<?xml version='1.0' encoding='UTF-8'?><gpx version="1.1" creator="JPX - https://github.com/jenetics/jpx" xmlns="http://www.topografix.com/GPX/1/1"><trk><trkseg><trkpt lat="43.3467561" lon="12.5878232"><ele>492.0</ele><time>2026-04-25T07:22:53.509Z</time></trkpt><trkpt lat="43.3467308" lon="12.5877422"><ele>492.0</ele><time>2026-04-25T07:22:57.508Z</time></trkpt><trkpt lat="43.3467697" lon="12.587622"><ele>492.0</ele><time>2026-04-25T07:23:01.509Z</time></trkpt><trkpt lat="43.3468556" lon="12.5875177"><ele>492.0</ele><time>2026-04-25T07:23:03.509Z</time></trkpt><trkpt lat="43.3469062" lon="12.5874553"><ele>492.0</ele><time>2026-04-25T07:23:04.511Z</time></trkpt><trkpt lat="43.346957" lon="12.5873922"><ele>492.0</ele><time>2026-04-25T07:23:05.505Z</time></trkpt><trkpt lat="43.347009" lon="12.5873317"><ele>492.00000000000006</ele><time>2026-04-25T07:23:06.509Z</time></trkpt><trkpt lat="43.347061" lon="12.5872655"><ele>492.0</ele><time>2026-04-25T07:23:07.51Z</time></trkpt><trkpt lat="43.3471162" lon="12.5871949"><ele>492.00000000000006</ele><time>2026-04-25T07:23:08.507Z</time></trkpt><trkpt lat="43.3471731" lon="12.5871193"><ele>492.00000000000006</ele><time>2026-04-25T07:23:09.505Z</time></trkpt><trkpt lat="43.3472286" lon="12.587046"><ele>492.0</ele><time>2026-04-25T07:23:10.51Z</time></trkpt><trkpt lat="43.3472714" lon="12.5869682"><ele>492.00000000000006</ele><time>2026-04-25T07:23:11.509Z</time></trkpt><trkpt lat="43.3472983" lon="12.586878"><ele>492.00000000000006</ele><time>2026-04-25T07:23:12.513Z</time></trkpt><trkpt lat="43.34731" lon="12.5867747"><ele>493.40000000000003</ele><time>2026-04-25T07:23:13.506Z</time></trkpt><trkpt lat="43.3473162" lon="12.5866595"><ele>494.80000000000007</ele><time>2026-04-25T07:23:14.509Z</time></trkpt><trkpt lat="43.3473194" lon="12.5865365"><ele>496.2</ele><time>2026-04-25T07:23:15.503Z</time></trkpt><trkpt lat="43.3473137" lon="12.5864077"><ele>497.6</ele><time>2026-04-25T07:23:16.513Z</time></trkpt><trkpt lat="43.3473074" lon="12.5862756"><ele>499.0</ele><time>2026-04-25T07:23:17.505Z</time></trkpt><trkpt lat="43.3472982" lon="12.5861365"><ele>499.0</ele><time>2026-04-25T07:23:18.501Z</time></trkpt><trkpt lat="43.347286" lon="12.5859902"><ele>499.0</ele><time>2026-04-25T07:23:19.502Z</time></trkpt><trkpt lat="43.3472734" lon="12.5858396"><ele>499.0</ele><time>2026-04-25T07:23:20.523Z</time></trkpt><trkpt lat="43.3472612" lon="12.5856851"><ele>499.0</ele><time>2026-04-25T07:23:21.513Z</time></trkpt><trkpt lat="43.3472496" lon="12.5855323"><ele>499.0</ele><time>2026-04-25T07:23:22.521Z</time></trkpt><trkpt lat="43.3472395" lon="12.5853859"><ele>499.4</ele><time>2026-04-25T07:23:23.515Z</time></trkpt><trkpt lat="43.3472295" lon="12.5852406"><ele>499.79999999999995</ele><time>2026-04-25T07:23:24.518Z</time></trkpt><trkpt lat="43.3472205" lon="12.5850967"><ele>500.20000000000005</ele><time>2026-04-25T07:23:25.519Z</time></trkpt><trkpt lat="43.347213" lon="12.584953"><ele>500.6</ele><time>2026-04-25T07:23:26.519Z</time></trkpt><trkpt lat="43.3472047" lon="12.5848079"><ele>501.0</ele><time>2026-04-25T07:23:27.507Z</time></trkpt><trkpt lat="43.3471945" lon="12.5846591"><ele>500.25</ele><time>2026-04-25T07:23:28.518Z</time></trkpt><trkpt lat="43.3471817" lon="12.5845045"><ele>499.5</ele><time>2026-04-25T07:23:29.51Z</time></trkpt><trkpt lat="43.3471689" lon="12.584344"><ele>498.75</ele><time>2026-04-25T07:23:30.508Z</time></trkpt><trkpt lat="43.3471577" lon="12.5841832"><ele>498.0</ele><time>2026-04-25T07:23:31.513Z</time></trkpt><trkpt lat="43.3471468" lon="12.5840226"><ele>498.0</ele><time>2026-04-25T07:23:32.511Z</time></trkpt><trkpt lat="43.3471368" lon="12.5838612"><ele>498.0</ele><time>2026-04-25T07:23:33.504Z</time></trkpt><trkpt lat="43.347127" lon="12.5837049"><ele>498.0</ele><time>2026-04-25T07:23:34.513Z</time></trkpt><trkpt lat="43.3471161" lon="12.5835494"><ele>498.0</ele><time>2026-04-25T07:23:35.523Z</time></trkpt><trkpt lat="43.3471044" lon="12.5833976"><ele>498.2</ele><time>2026-04-25T07:23:36.512Z</time></trkpt><trkpt lat="43.3470958" lon="12.5832521"><ele>498.4</ele><time>2026-04-25T07:23:37.524Z</time></trkpt><trkpt lat="43.3470924" lon="12.5831155"><ele>498.59999999999997</ele><time>2026-04-25T07:23:38.522Z</time></trkpt><trkpt lat="43.3470985" lon="12.5829889"><ele>498.79999999999995</ele><time>2026-04-25T07:23:39.516Z</time></trkpt><trkpt lat="43.3471177" lon="12.5828672"><ele>499.0</ele><time>2026-04-25T07:23:40.511Z</time></trkpt><trkpt lat="43.3471452" lon="12.5827454"><ele>499.4</ele><time>2026-04-25T07:23:41.524Z</time></trkpt><trkpt lat="43.3471756" lon="12.582626"><ele>499.79999999999995</ele><time>2026-04-25T07:23:42.522Z</time></trkpt><trkpt lat="43.3472131" lon="12.5825078"><ele>500.20000000000005</ele><time>2026-04-25T07:23:43.502Z</time></trkpt><trkpt lat="43.3472611" lon="12.5823939"><ele>500.6</ele><time>2026-04-25T07:23:44.519Z</time></trkpt><trkpt lat="43.3473181" lon="12.582283"><ele>501.0</ele><time>2026-04-25T07:23:45.513Z</time></trkpt><trkpt lat="43.3473778" lon="12.58217"><ele>501.8</ele><time>2026-04-25T07:23:46.513Z</time></trkpt><trkpt lat="43.3474386" lon="12.5820579"><ele>502.6</ele><time>2026-04-25T07:23:47.506Z</time></trkpt><trkpt lat="43.3474973" lon="12.5819456"><ele>503.4</ele><time>2026-04-25T07:23:48.513Z</time></trkpt><trkpt lat="43.3475545" lon="12.5818304"><ele>504.2</ele><time>2026-04-25T07:23:49.519Z</time></trkpt><trkpt lat="43.3476121" lon="12.5817123"><ele>505.0</ele><time>2026-04-25T07:23:50.515Z</time></trkpt><trkpt lat="43.3476711" lon="12.5815895"><ele>505.0</ele><time>2026-04-25T07:23:51.522Z</time></trkpt><trkpt lat="43.3477306" lon="12.5814665"><ele>505.0</ele><time>2026-04-25T07:23:52.516Z</time></trkpt><trkpt lat="43.3477903" lon="12.581342"><ele>505.0</ele><time>2026-04-25T07:23:53.514Z</time></trkpt><trkpt lat="43.3478498" lon="12.581218"><ele>505.0</ele><time>2026-04-25T07:23:54.508Z</time></trkpt><trkpt lat="43.347906" lon="12.5810949"><ele>505.0</ele><time>2026-04-25T07:23:55.527Z</time></trkpt><trkpt lat="43.3479601" lon="12.5809734"><ele>505.4</ele><time>2026-04-25T07:23:56.522Z</time></trkpt><trkpt lat="43.3480126" lon="12.5808588"><ele>505.8</ele><time>2026-04-25T07:23:57.523Z</time></trkpt><trkpt lat="43.3480628" lon="12.580751"><ele>506.20000000000005</ele><time>2026-04-25T07:23:58.523Z</time></trkpt><trkpt lat="43.348112" lon="12.5806457"><ele>506.6</ele><time>2026-04-25T07:23:59.501Z</time></trkpt><trkpt lat="43.3481623" lon="12.5805424"><ele>507.0</ele><time>2026-04-25T07:24:00.514Z</time></trkpt><trkpt lat="43.3482124" lon="12.5804392"><ele>507.0</ele><time>2026-04-25T07:24:01.511Z</time></trkpt><trkpt lat="43.3482516" lon="12.5803578"><ele>507.0</ele><time>2026-04-25T07:24:02.524Z</time></trkpt><trkpt lat="43.3483127" lon="12.5802461"><ele>507.0</ele><time>2026-04-25T07:24:04.521Z</time></trkpt><trkpt lat="43.3483743" lon="12.5801134"><ele>507.0</ele><time>2026-04-25T07:24:06.524Z</time></trkpt><trkpt lat="43.3484103" lon="12.5800231"><ele>507.0</ele><time>2026-04-25T07:24:07.518Z</time></trkpt><trkpt lat="43.3484507" lon="12.5799264"><ele>507.0</ele><time>2026-04-25T07:24:08.525Z</time></trkpt><trkpt lat="43.3484893" lon="12.5798376"><ele>505.6</ele><time>2026-04-25T07:24:09.526Z</time></trkpt><trkpt lat="43.3485525" lon="12.579717"><ele>504.20000000000005</ele><time>2026-04-25T07:24:11.525Z</time></trkpt><trkpt lat="43.3486131" lon="12.5796021"><ele>502.8</ele><time>2026-04-25T07:24:13.528Z</time></trkpt><trkpt lat="43.3486928" lon="12.5794566"><ele>501.4</ele><time>2026-04-25T07:24:15.516Z</time></trkpt><trkpt lat="43.3487374" lon="12.5793705"><ele>500.0</ele><time>2026-04-25T07:24:16.526Z</time></trkpt><trkpt lat="43.3487849" lon="12.5792798"><ele>500.2</ele><time>2026-04-25T07:24:17.527Z</time></trkpt><trkpt lat="43.3488436" lon="12.5791865"><ele>500.4</ele><time>2026-04-25T07:24:18.529Z</time></trkpt><trkpt lat="43.3489123" lon="12.5790938"><ele>500.6</ele><time>2026-04-25T07:24:19.513Z</time></trkpt><trkpt lat="43.3489939" lon="12.5790105"><ele>500.8</ele><time>2026-04-25T07:24:20.525Z</time></trkpt><trkpt lat="43.3490833" lon="12.5789319"><ele>501.0</ele><time>2026-04-25T07:24:21.515Z</time></trkpt><trkpt lat="43.3491738" lon="12.5788524"><ele>501.0</ele><time>2026-04-25T07:24:22.518Z</time></trkpt><trkpt lat="43.3492621" lon="12.5787723"><ele>501.0</ele><time>2026-04-25T07:24:23.526Z</time></trkpt><trkpt lat="43.3493458" lon="12.5786871"><ele>501.0</ele><time>2026-04-25T07:24:24.522Z</time></trkpt><trkpt lat="43.3494308" lon="12.5786232"><ele>501.0</ele><time>2026-04-25T07:24:25.521Z</time></trkpt><trkpt lat="43.3495152" lon="12.5785698"><ele>501.0</ele><time>2026-04-25T07:24:26.521Z</time></trkpt><trkpt lat="43.3496005" lon="12.5785273"><ele>499.8</ele><time>2026-04-25T07:24:27.515Z</time></trkpt><trkpt lat="43.3496917" lon="12.5784887"><ele>498.6</ele><time>2026-04-25T07:24:28.517Z</time></trkpt><trkpt lat="43.3497937" lon="12.5784498"><ele>497.4</ele><time>2026-04-25T07:24:29.523Z</time></trkpt><trkpt lat="43.3498991" lon="12.5784078"><ele>496.2</ele><time>2026-04-25T07:24:30.513Z</time></trkpt><trkpt lat="43.3500005" lon="12.5783663"><ele>495.0</ele><time>2026-04-25T07:24:31.52Z</time></trkpt><trkpt lat="43.3500965" lon="12.5783271"><ele>494.99999999999994</ele><time>2026-04-25T07:24:32.508Z</time></trkpt><trkpt lat="43.3501787" lon="12.5782831"><ele>495.0</ele><time>2026-04-25T07:24:33.525Z</time></trkpt><trkpt lat="43.3502466" lon="12.5782423"><ele>494.99999999999994</ele><time>2026-04-25T07:24:34.525Z</time></trkpt><trkpt lat="43.3503021" lon="12.5781908"><ele>494.99999999999994</ele><time>2026-04-25T07:24:35.508Z</time></trkpt><trkpt lat="43.3503515" lon="12.5781307"><ele>495.0</ele><time>2026-04-25T07:24:36.516Z</time></trkpt><trkpt lat="43.3503931" lon="12.5780607"><ele>494.99999999999994</ele><time>2026-04-25T07:24:37.523Z</time></trkpt><trkpt lat="43.3504223" lon="12.5779726"><ele>494.99999999999994</ele><time>2026-04-25T07:24:38.522Z</time></trkpt><trkpt lat="43.350439" lon="12.5778672"><ele>493.8333333333333</ele><time>2026-04-25T07:24:39.515Z</time></trkpt><trkpt lat="43.3504541" lon="12.5777592"><ele>492.66666666666663</ele><time>2026-04-25T07:24:40.516Z</time></trkpt><trkpt lat="43.3504639" lon="12.5776523"><ele>491.5</ele><time>2026-04-25T07:24:41.519Z</time></trkpt><trkpt lat="43.3504709" lon="12.5775629"><ele>490.3333333333333</ele><time>2026-04-25T07:24:42.517Z</time></trkpt><trkpt lat="43.3504768" lon="12.5774258"><ele>489.16666666666663</ele><time>2026-04-25T07:24:44.526Z</time></trkpt><trkpt lat="43.3504812" lon="12.5772941"><ele>488.0</ele><time>2026-04-25T07:24:46.508Z</time></trkpt><trkpt lat="43.3504853" lon="12.5771736"><ele>487.99999999999994</ele><time>2026-04-25T07:24:48.516Z</time></trkpt><trkpt lat="43.3504965" lon="12.5770531"><ele>488.0</ele><time>2026-04-25T07:24:50.53Z</time></trkpt><trkpt lat="43.3505407" lon="12.5769534"><ele>488.0</ele><time>2026-04-25T07:24:52.509Z</time></trkpt><trkpt lat="43.3506492" lon="12.5769009"><ele>488.0</ele><time>2026-04-25T07:24:54.516Z</time></trkpt><trkpt lat="43.3507143" lon="12.5768879"><ele>487.99999999999994</ele><time>2026-04-25T07:24:55.522Z</time></trkpt><trkpt lat="43.3507855" lon="12.5768761"><ele>488.0</ele><time>2026-04-25T07:24:56.514Z</time></trkpt><trkpt lat="43.3508603" lon="12.5768612"><ele>489.0</ele><time>2026-04-25T07:24:57.523Z</time></trkpt><trkpt lat="43.3509332" lon="12.5768496"><ele>489.99999999999994</ele><time>2026-04-25T07:24:58.529Z</time></trkpt><trkpt lat="43.3510014" lon="12.5768401"><ele>490.99999999999994</ele><time>2026-04-25T07:24:59.529Z</time></trkpt><trkpt lat="43.3511152" lon="12.5768371"><ele>492.0</ele><time>2026-04-25T07:25:01.518Z</time></trkpt><trkpt lat="43.3512338" lon="12.5768732"><ele>493.0</ele><time>2026-04-25T07:25:03.527Z</time></trkpt><trkpt lat="43.3513477" lon="12.5769588"><ele>493.50000000000006</ele><time>2026-04-25T07:25:05.52Z</time></trkpt><trkpt lat="43.3514014" lon="12.5770067"><ele>494.0</ele><time>2026-04-25T07:25:06.511Z</time></trkpt><trkpt lat="43.3514906" lon="12.5771112"><ele>494.5</ele><time>2026-04-25T07:25:08.525Z</time></trkpt><trkpt lat="43.3515687" lon="12.5771939"><ele>495.0</ele><time>2026-04-25T07:25:10.517Z</time></trkpt><trkpt lat="43.351634" lon="12.5771478"><ele>495.50000000000006</ele><time>2026-04-25T07:25:12.533Z</time></trkpt><trkpt lat="43.3516206" lon="12.5770456"><ele>496.0</ele><time>2026-04-25T07:25:14.528Z</time></trkpt><trkpt lat="43.3515188" lon="12.5769663"><ele>496.20000000000005</ele><time>2026-04-25T07:25:16.522Z</time></trkpt><trkpt lat="43.3514417" lon="12.5769144"><ele>496.40000000000003</ele><time>2026-04-25T07:25:17.523Z</time></trkpt><trkpt lat="43.3513612" lon="12.5768728"><ele>496.6</ele><time>2026-04-25T07:25:18.527Z</time></trkpt><trkpt lat="43.3512711" lon="12.5768318"><ele>496.8</ele><time>2026-04-25T07:25:19.514Z</time></trkpt><trkpt lat="43.3511794" lon="12.576792"><ele>497.0</ele><time>2026-04-25T07:25:20.508Z</time></trkpt><trkpt lat="43.351087" lon="12.5767753"><ele>496.3333333333333</ele><time>2026-04-25T07:25:21.524Z</time></trkpt><trkpt lat="43.3509999" lon="12.5767752"><ele>495.66666666666663</ele><time>2026-04-25T07:25:22.512Z</time></trkpt><trkpt lat="43.3509193" lon="12.5767876"><ele>495.0</ele><time>2026-04-25T07:25:23.519Z</time></trkpt><trkpt lat="43.350854" lon="12.5767926"><ele>494.33333333333337</ele><time>2026-04-25T07:25:24.528Z</time></trkpt><trkpt lat="43.3507811" lon="12.576783"><ele>493.6666666666667</ele><time>2026-04-25T07:25:26.512Z</time></trkpt><trkpt lat="43.3507176" lon="12.5767633"><ele>493.0</ele><time>2026-04-25T07:25:28.53Z</time></trkpt><trkpt lat="43.3506227" lon="12.5767222"><ele>492.0</ele><time>2026-04-25T07:25:30.526Z</time></trkpt><trkpt lat="43.3505216" lon="12.5767723"><ele>491.0</ele><time>2026-04-25T07:25:32.521Z</time></trkpt><trkpt lat="43.3504627" lon="12.5769366"><ele>490.0</ele><time>2026-04-25T07:25:34.516Z</time></trkpt><trkpt lat="43.3504492" lon="12.5770717"><ele>489.0</ele><time>2026-04-25T07:25:35.515Z</time></trkpt><trkpt lat="43.3504385" lon="12.5772294"><ele>488.79999999999995</ele><time>2026-04-25T07:25:36.507Z</time></trkpt><trkpt lat="43.3504313" lon="12.5773959"><ele>488.59999999999997</ele><time>2026-04-25T07:25:37.523Z</time></trkpt><trkpt lat="43.3504252" lon="12.5775593"><ele>488.4</ele><time>2026-04-25T07:25:38.519Z</time></trkpt><trkpt lat="43.3504181" lon="12.5777063"><ele>488.2</ele><time>2026-04-25T07:25:39.515Z</time></trkpt><trkpt lat="43.350407" lon="12.5778374"><ele>488.0</ele><time>2026-04-25T07:25:40.506Z</time></trkpt><trkpt lat="43.350386" lon="12.5779499"><ele>489.4</ele><time>2026-04-25T07:25:41.516Z</time></trkpt><trkpt lat="43.3503459" lon="12.5780515"><ele>490.79999999999995</ele><time>2026-04-25T07:25:42.519Z</time></trkpt><trkpt lat="43.3502876" lon="12.578145"><ele>492.2</ele><time>2026-04-25T07:25:43.517Z</time></trkpt><trkpt lat="43.3502094" lon="12.5782156"><ele>493.6</ele><time>2026-04-25T07:25:44.53Z</time></trkpt><trkpt lat="43.3501108" lon="12.5782597"><ele>495.0</ele><time>2026-04-25T07:25:45.53Z</time></trkpt><trkpt lat="43.3499824" lon="12.5783044"><ele>495.0</ele><time>2026-04-25T07:25:46.505Z</time></trkpt><trkpt lat="43.3498472" lon="12.5783608"><ele>495.0</ele><time>2026-04-25T07:25:47.512Z</time></trkpt><trkpt lat="43.3497187" lon="12.5784156"><ele>495.0</ele><time>2026-04-25T07:25:48.508Z</time></trkpt><trkpt lat="43.3495974" lon="12.5784747"><ele>495.0</ele><time>2026-04-25T07:25:49.514Z</time></trkpt><trkpt lat="43.3494805" lon="12.5785343"><ele>494.0</ele><time>2026-04-25T07:25:50.523Z</time></trkpt><trkpt lat="43.3493669" lon="12.5786024"><ele>493.0</ele><time>2026-04-25T07:25:51.524Z</time></trkpt><trkpt lat="43.3492603" lon="12.5786843"><ele>492.0</ele><time>2026-04-25T07:25:52.527Z</time></trkpt><trkpt lat="43.34916" lon="12.5787726"><ele>491.0</ele><time>2026-04-25T07:25:53.522Z</time></trkpt><trkpt lat="43.3490655" lon="12.5788575"><ele>491.8</ele><time>2026-04-25T07:25:54.521Z</time></trkpt><trkpt lat="43.3489795" lon="12.5789448"><ele>492.6</ele><time>2026-04-25T07:25:55.526Z</time></trkpt><trkpt lat="43.3489026" lon="12.579041"><ele>493.4</ele><time>2026-04-25T07:25:56.511Z</time></trkpt><trkpt lat="43.348839" lon="12.5791311"><ele>494.2</ele><time>2026-04-25T07:25:57.523Z</time></trkpt><trkpt lat="43.3487835" lon="12.5792162"><ele>495.0</ele><time>2026-04-25T07:25:58.527Z</time></trkpt><trkpt lat="43.3487346" lon="12.579297"><ele>495.0</ele><time>2026-04-25T07:25:59.526Z</time></trkpt><trkpt lat="43.3486977" lon="12.5793772"><ele>495.0</ele><time>2026-04-25T07:26:00.531Z</time></trkpt><trkpt lat="43.3486395" lon="12.5795292"><ele>495.0</ele><time>2026-04-25T07:26:02.515Z</time></trkpt><trkpt lat="43.3485688" lon="12.5796688"><ele>495.0</ele><time>2026-04-25T07:26:04.503Z</time></trkpt><trkpt lat="43.3485243" lon="12.5797524"><ele>495.0</ele><time>2026-04-25T07:26:05.526Z</time></trkpt><trkpt lat="43.3484774" lon="12.5798482"><ele>496.0</ele><time>2026-04-25T07:26:06.523Z</time></trkpt><trkpt lat="43.3484287" lon="12.5799526"><ele>497.0</ele><time>2026-04-25T07:26:07.523Z</time></trkpt><trkpt lat="43.3483775" lon="12.58006"><ele>498.0</ele><time>2026-04-25T07:26:08.516Z</time></trkpt><trkpt lat="43.3483224" lon="12.5801681"><ele>499.0</ele><time>2026-04-25T07:26:09.527Z</time></trkpt><trkpt lat="43.3482657" lon="12.5802774"><ele>500.0</ele><time>2026-04-25T07:26:10.527Z</time></trkpt><trkpt lat="43.3482096" lon="12.5803875"><ele>500.0</ele><time>2026-04-25T07:26:11.519Z</time></trkpt><trkpt lat="43.3481555" lon="12.580502"><ele>500.0</ele><time>2026-04-25T07:26:12.522Z</time></trkpt><trkpt lat="43.3481006" lon="12.5806173"><ele>500.0</ele><time>2026-04-25T07:26:13.524Z</time></trkpt><trkpt lat="43.3480415" lon="12.58073"><ele>500.0</ele><time>2026-04-25T07:26:14.517Z</time></trkpt><trkpt lat="43.3479829" lon="12.5808468"><ele>500.0</ele><time>2026-04-25T07:26:15.524Z</time></trkpt><trkpt lat="43.3479266" lon="12.5809621"><ele>500.0</ele><time>2026-04-25T07:26:16.523Z</time></trkpt><trkpt lat="43.3478725" lon="12.5810778"><ele>500.0</ele><time>2026-04-25T07:26:17.53Z</time></trkpt><trkpt lat="43.3478166" lon="12.5811966"><ele>500.0</ele><time>2026-04-25T07:26:18.525Z</time></trkpt><trkpt lat="43.3477576" lon="12.5813157"><ele>500.0</ele><time>2026-04-25T07:26:19.515Z</time></trkpt><trkpt lat="43.3476964" lon="12.58144"><ele>500.0</ele><time>2026-04-25T07:26:20.527Z</time></trkpt><trkpt lat="43.3476341" lon="12.5815683"><ele>501.0</ele><time>2026-04-25T07:26:21.515Z</time></trkpt><trkpt lat="43.3475756" lon="12.5816916"><ele>502.0</ele><time>2026-04-25T07:26:22.517Z</time></trkpt><trkpt lat="43.3475199" lon="12.5818081"><ele>503.0</ele><time>2026-04-25T07:26:23.523Z</time></trkpt><trkpt lat="43.3474668" lon="12.5819202"><ele>504.0</ele><time>2026-04-25T07:26:24.504Z</time></trkpt><trkpt lat="43.3474179" lon="12.5820278"><ele>505.0</ele><time>2026-04-25T07:26:25.528Z</time></trkpt><trkpt lat="43.3473729" lon="12.5821249"><ele>505.4</ele><time>2026-04-25T07:26:26.523Z</time></trkpt><trkpt lat="43.3473318" lon="12.5822038"><ele>505.8</ele><time>2026-04-25T07:26:27.518Z</time></trkpt><trkpt lat="43.3472685" lon="12.5823156"><ele>506.20000000000005</ele><time>2026-04-25T07:26:29.523Z</time></trkpt><trkpt lat="43.3472191" lon="12.5824245"><ele>506.6</ele><time>2026-04-25T07:26:31.517Z</time></trkpt><trkpt lat="43.3471811" lon="12.5825176"><ele>507.0</ele><time>2026-04-25T07:26:32.512Z</time></trkpt><trkpt lat="43.3471383" lon="12.582652"><ele>505.8</ele><time>2026-04-25T07:26:33.508Z</time></trkpt><trkpt lat="43.347104" lon="12.5827893"><ele>504.6</ele><time>2026-04-25T07:26:34.519Z</time></trkpt><trkpt lat="43.347078" lon="12.5829306"><ele>503.40000000000003</ele><time>2026-04-25T07:26:35.515Z</time></trkpt><trkpt lat="43.3470626" lon="12.5830849"><ele>502.20000000000005</ele><time>2026-04-25T07:26:36.518Z</time></trkpt><trkpt lat="43.347055" lon="12.5832454"><ele>501.0</ele><time>2026-04-25T07:26:37.517Z</time></trkpt><trkpt lat="43.3470631" lon="12.5834154"><ele>500.5</ele><time>2026-04-25T07:26:38.517Z</time></trkpt><trkpt lat="43.3470802" lon="12.5835788"><ele>500.0</ele><time>2026-04-25T07:26:39.517Z</time></trkpt><trkpt lat="43.3471025" lon="12.583743"><ele>499.5</ele><time>2026-04-25T07:26:40.519Z</time></trkpt><trkpt lat="43.3471261" lon="12.5839117"><ele>499.0</ele><time>2026-04-25T07:26:41.518Z</time></trkpt><trkpt lat="43.3471455" lon="12.5840857"><ele>498.75</ele><time>2026-04-25T07:26:42.528Z</time></trkpt><trkpt lat="43.3471591" lon="12.5842653"><ele>498.5</ele><time>2026-04-25T07:26:43.523Z</time></trkpt><trkpt lat="43.3471694" lon="12.5844391"><ele>498.25</ele><time>2026-04-25T07:26:44.52Z</time></trkpt><trkpt lat="43.3471782" lon="12.5846108"><ele>498.0</ele><time>2026-04-25T07:26:45.525Z</time></trkpt><trkpt lat="43.3471894" lon="12.5847729"><ele>498.25</ele><time>2026-04-25T07:26:46.523Z</time></trkpt><trkpt lat="43.3472024" lon="12.5849332"><ele>498.5</ele><time>2026-04-25T07:26:47.508Z</time></trkpt><trkpt lat="43.3472157" lon="12.5850902"><ele>498.75</ele><time>2026-04-25T07:26:48.508Z</time></trkpt><trkpt lat="43.3472261" lon="12.5852424"><ele>499.0</ele><time>2026-04-25T07:26:49.517Z</time></trkpt><trkpt lat="43.3472378" lon="12.5853934"><ele>499.0</ele><time>2026-04-25T07:26:50.504Z</time></trkpt><trkpt lat="43.347249" lon="12.5855408"><ele>499.0</ele><time>2026-04-25T07:26:51.514Z</time></trkpt><trkpt lat="43.3472587" lon="12.5856808"><ele>499.0</ele><time>2026-04-25T07:26:52.522Z</time></trkpt><trkpt lat="43.3472669" lon="12.5858134"><ele>499.0</ele><time>2026-04-25T07:26:53.518Z</time></trkpt><trkpt lat="43.3472749" lon="12.5859378"><ele>499.0</ele><time>2026-04-25T07:26:54.524Z</time></trkpt><trkpt lat="43.3472806" lon="12.5860529"><ele>499.00000000000006</ele><time>2026-04-25T07:26:55.519Z</time></trkpt><trkpt lat="43.3472855" lon="12.5861617"><ele>499.0</ele><time>2026-04-25T07:26:56.524Z</time></trkpt><trkpt lat="43.3472899" lon="12.5862674"><ele>499.00000000000006</ele><time>2026-04-25T07:26:57.512Z</time></trkpt><trkpt lat="43.3472956" lon="12.5863666"><ele>499.00000000000006</ele><time>2026-04-25T07:26:58.516Z</time></trkpt><trkpt lat="43.3473015" lon="12.5864613"><ele>499.0</ele><time>2026-04-25T07:26:59.517Z</time></trkpt><trkpt lat="43.3473042" lon="12.5865553"><ele>499.00000000000006</ele><time>2026-04-25T07:27:00.527Z</time></trkpt><trkpt lat="43.3473005" lon="12.5866481"><ele>499.00000000000006</ele><time>2026-04-25T07:27:01.52Z</time></trkpt><trkpt lat="43.3472906" lon="12.5867398"><ele>499.1666666666667</ele><time>2026-04-25T07:27:02.524Z</time></trkpt><trkpt lat="43.3472792" lon="12.5868282"><ele>499.33333333333337</ele><time>2026-04-25T07:27:03.52Z</time></trkpt><trkpt lat="43.3472298" lon="12.5869856"><ele>499.5</ele><time>2026-04-25T07:27:05.508Z</time></trkpt><trkpt lat="43.3471816" lon="12.5870719"><ele>499.66666666666663</ele><time>2026-04-25T07:27:06.527Z</time></trkpt><trkpt lat="43.3471215" lon="12.5871536"><ele>499.8333333333333</ele><time>2026-04-25T07:27:07.511Z</time></trkpt><trkpt lat="43.3470577" lon="12.5872271"><ele>500.0</ele><time>2026-04-25T07:27:08.521Z</time></trkpt><trkpt lat="43.3469966" lon="12.5872976"><ele>498.66666666666663</ele><time>2026-04-25T07:27:09.526Z</time></trkpt><trkpt lat="43.3469393" lon="12.5873648"><ele>497.3333333333333</ele><time>2026-04-25T07:27:10.508Z</time></trkpt><trkpt lat="43.3468866" lon="12.5874313"><ele>496.0</ele><time>2026-04-25T07:27:11.515Z</time></trkpt><trkpt lat="43.3468333" lon="12.5875009"><ele>494.66666666666663</ele><time>2026-04-25T07:27:12.527Z</time></trkpt><trkpt lat="43.3467732" lon="12.5875711"><ele>493.3333333333333</ele><time>2026-04-25T07:27:13.521Z</time></trkpt><trkpt lat="43.3467115" lon="12.5876452"><ele>492.0</ele><time>2026-04-25T07:27:14.525Z</time></trkpt><trkpt lat="43.34665" lon="12.5877213"><ele>492.0</ele><time>2026-04-25T07:27:15.526Z</time></trkpt><trkpt lat="43.3465903" lon="12.5877982"><ele>492.0</ele><time>2026-04-25T07:27:16.507Z</time></trkpt><trkpt lat="43.3465299" lon="12.5878773"><ele>492.0</ele><time>2026-04-25T07:27:17.505Z</time></trkpt><trkpt lat="43.3464675" lon="12.5879576"><ele>492.0</ele><time>2026-04-25T07:27:18.521Z</time></trkpt><trkpt lat="43.3464053" lon="12.5880375"><ele>492.0</ele><time>2026-04-25T07:27:19.516Z</time></trkpt><trkpt lat="43.3463422" lon="12.588118"><ele>492.0</ele><time>2026-04-25T07:27:20.524Z</time></trkpt><trkpt lat="43.3462786" lon="12.5881966"><ele>491.8333333333333</ele><time>2026-04-25T07:27:21.516Z</time></trkpt><trkpt lat="43.3462152" lon="12.5882731"><ele>491.66666666666663</ele><time>2026-04-25T07:27:22.526Z</time></trkpt><trkpt lat="43.3461504" lon="12.5883479"><ele>491.5</ele><time>2026-04-25T07:27:23.515Z</time></trkpt><trkpt lat="43.3460843" lon="12.5884239"><ele>491.3333333333333</ele><time>2026-04-25T07:27:24.526Z</time></trkpt><trkpt lat="43.3460172" lon="12.5885037"><ele>491.16666666666663</ele><time>2026-04-25T07:27:25.519Z</time></trkpt><trkpt lat="43.3459488" lon="12.5885899"><ele>491.0</ele><time>2026-04-25T07:27:26.525Z</time></trkpt><trkpt lat="43.3458779" lon="12.5886815"><ele>491.0</ele><time>2026-04-25T07:27:27.519Z</time></trkpt><trkpt lat="43.3458057" lon="12.5887749"><ele>491.0</ele><time>2026-04-25T07:27:28.527Z</time></trkpt><trkpt lat="43.3457334" lon="12.5888668"><ele>491.0</ele><time>2026-04-25T07:27:29.509Z</time></trkpt><trkpt lat="43.3456589" lon="12.5889563"><ele>491.0</ele><time>2026-04-25T07:27:30.523Z</time></trkpt><trkpt lat="43.3455816" lon="12.5890475"><ele>491.0</ele><time>2026-04-25T07:27:31.508Z</time></trkpt><trkpt lat="43.3455037" lon="12.5891404"><ele>490.8</ele><time>2026-04-25T07:27:32.528Z</time></trkpt><trkpt lat="43.3454291" lon="12.5892365"><ele>490.6</ele><time>2026-04-25T07:27:33.525Z</time></trkpt><trkpt lat="43.3453532" lon="12.5893308"><ele>490.4</ele><time>2026-04-25T07:27:34.522Z</time></trkpt><trkpt lat="43.3452767" lon="12.5894275"><ele>490.2</ele><time>2026-04-25T07:27:35.526Z</time></trkpt><trkpt lat="43.3451974" lon="12.5895263"><ele>490.0</ele><time>2026-04-25T07:27:36.526Z</time></trkpt><trkpt lat="43.3451185" lon="12.5896303"><ele>490.0</ele><time>2026-04-25T07:27:37.525Z</time></trkpt><trkpt lat="43.3450394" lon="12.5897348"><ele>490.0</ele><time>2026-04-25T07:27:38.523Z</time></trkpt><trkpt lat="43.3449619" lon="12.5898375"><ele>490.0</ele><time>2026-04-25T07:27:39.515Z</time></trkpt><trkpt lat="43.3448845" lon="12.5899377"><ele>490.0</ele><time>2026-04-25T07:27:40.52Z</time></trkpt><trkpt lat="43.3448079" lon="12.5900365"><ele>490.0</ele><time>2026-04-25T07:27:41.507Z</time></trkpt><trkpt lat="43.3447306" lon="12.5901362"><ele>490.0</ele><time>2026-04-25T07:27:42.519Z</time></trkpt><trkpt lat="43.3446544" lon="12.590239"><ele>490.0</ele><time>2026-04-25T07:27:43.526Z</time></trkpt><trkpt lat="43.3445747" lon="12.5903387"><ele>490.0</ele><time>2026-04-25T07:27:44.51Z</time></trkpt><trkpt lat="43.3444951" lon="12.5904386"><ele>490.0</ele><time>2026-04-25T07:27:45.527Z</time></trkpt><trkpt lat="43.3444136" lon="12.590539"><ele>490.0</ele><time>2026-04-25T07:27:46.526Z</time></trkpt><trkpt lat="43.3443305" lon="12.5906406"><ele>490.4</ele><time>2026-04-25T07:27:47.523Z</time></trkpt><trkpt lat="43.3442518" lon="12.5907376"><ele>490.8</ele><time>2026-04-25T07:27:48.517Z</time></trkpt><trkpt lat="43.344179" lon="12.5908279"><ele>491.20000000000005</ele><time>2026-04-25T07:27:49.518Z</time></trkpt><trkpt lat="43.3441087" lon="12.590913"><ele>491.6</ele><time>2026-04-25T07:27:50.524Z</time></trkpt><trkpt lat="43.3440421" lon="12.5909931"><ele>492.0</ele><time>2026-04-25T07:27:51.525Z</time></trkpt><trkpt lat="43.343979" lon="12.5910711"><ele>492.0</ele><time>2026-04-25T07:27:52.523Z</time></trkpt><trkpt lat="43.3439182" lon="12.5911438"><ele>492.0</ele><time>2026-04-25T07:27:53.528Z</time></trkpt><trkpt lat="43.3438592" lon="12.591214"><ele>492.0</ele><time>2026-04-25T07:27:54.528Z</time></trkpt><trkpt lat="43.3438015" lon="12.591279"><ele>492.0</ele><time>2026-04-25T07:27:55.516Z</time></trkpt><trkpt lat="43.3437446" lon="12.5913456"><ele>492.0</ele><time>2026-04-25T07:27:56.526Z</time></trkpt><trkpt lat="43.3436855" lon="12.5914107"><ele>492.0</ele><time>2026-04-25T07:27:57.528Z</time></trkpt><trkpt lat="43.3436277" lon="12.5914741"><ele>492.4285714285715</ele><time>2026-04-25T07:27:58.526Z</time></trkpt><trkpt lat="43.3435727" lon="12.5915346"><ele>492.8571428571429</ele><time>2026-04-25T07:27:59.511Z</time></trkpt><trkpt lat="43.3435179" lon="12.5915979"><ele>493.2857142857143</ele><time>2026-04-25T07:28:00.514Z</time></trkpt><trkpt lat="43.3434618" lon="12.5916663"><ele>493.7142857142857</ele><time>2026-04-25T07:28:01.521Z</time></trkpt><trkpt lat="43.3434043" lon="12.5917362"><ele>494.1428571428571</ele><time>2026-04-25T07:28:02.531Z</time></trkpt><trkpt lat="43.3433457" lon="12.5918045"><ele>494.5714285714285</ele><time>2026-04-25T07:28:03.519Z</time></trkpt><trkpt lat="43.3432876" lon="12.5918778"><ele>494.99999999999994</ele><time>2026-04-25T07:28:04.527Z</time></trkpt><trkpt lat="43.343227" lon="12.5919506"><ele>495.1666666666667</ele><time>2026-04-25T07:28:05.528Z</time></trkpt><trkpt lat="43.3431634" lon="12.592028"><ele>495.33333333333337</ele><time>2026-04-25T07:28:06.517Z</time></trkpt><trkpt lat="43.3430961" lon="12.5921088"><ele>495.5</ele><time>2026-04-25T07:28:07.528Z</time></trkpt><trkpt lat="43.3430246" lon="12.5921921"><ele>495.6666666666667</ele><time>2026-04-25T07:28:08.526Z</time></trkpt><trkpt lat="43.3429558" lon="12.5922746"><ele>495.83333333333337</ele><time>2026-04-25T07:28:09.525Z</time></trkpt><trkpt lat="43.3428913" lon="12.592353"><ele>496.0</ele><time>2026-04-25T07:28:10.527Z</time></trkpt><trkpt lat="43.3428296" lon="12.5924288"><ele>496.00000000000006</ele><time>2026-04-25T07:28:11.53Z</time></trkpt><trkpt lat="43.3427669" lon="12.5925014"><ele>496.0</ele><time>2026-04-25T07:28:12.534Z</time></trkpt><trkpt lat="43.3427038" lon="12.592573"><ele>496.0</ele><time>2026-04-25T07:28:13.524Z</time></trkpt><trkpt lat="43.3426407" lon="12.5926474"><ele>496.0</ele><time>2026-04-25T07:28:14.527Z</time></trkpt><trkpt lat="43.3425757" lon="12.5927267"><ele>496.00000000000006</ele><time>2026-04-25T07:28:15.526Z</time></trkpt><trkpt lat="43.342507" lon="12.5928093"><ele>496.0</ele><time>2026-04-25T07:28:16.527Z</time></trkpt><trkpt lat="43.3424351" lon="12.5928907"><ele>496.00000000000006</ele><time>2026-04-25T07:28:17.519Z</time></trkpt><trkpt lat="43.3423645" lon="12.5929703"><ele>496.0</ele><time>2026-04-25T07:28:18.527Z</time></trkpt><trkpt lat="43.3423023" lon="12.5930478"><ele>496.0</ele><time>2026-04-25T07:28:19.524Z</time></trkpt><trkpt lat="43.3422447" lon="12.5931183"><ele>496.0</ele><time>2026-04-25T07:28:20.521Z</time></trkpt><trkpt lat="43.3421916" lon="12.5931842"><ele>496.00000000000006</ele><time>2026-04-25T07:28:21.531Z</time></trkpt><trkpt lat="43.3421419" lon="12.5932443"><ele>496.0</ele><time>2026-04-25T07:28:22.521Z</time></trkpt><trkpt lat="43.3420923" lon="12.5932985"><ele>495.0</ele><time>2026-04-25T07:28:23.509Z</time></trkpt><trkpt lat="43.3419923" lon="12.5934136"><ele>494.0</ele><time>2026-04-25T07:28:25.516Z</time></trkpt><trkpt lat="43.3419334" lon="12.5934843"><ele>493.0</ele><time>2026-04-25T07:28:26.528Z</time></trkpt><trkpt lat="43.3418704" lon="12.5935641"><ele>492.0</ele><time>2026-04-25T07:28:27.528Z</time></trkpt><trkpt lat="43.3418032" lon="12.5936518"><ele>491.0</ele><time>2026-04-25T07:28:28.526Z</time></trkpt><trkpt lat="43.3417364" lon="12.5937319"><ele>491.0</ele><time>2026-04-25T07:28:29.529Z</time></trkpt><trkpt lat="43.3416726" lon="12.593798"><ele>491.0</ele><time>2026-04-25T07:28:30.507Z</time></trkpt><trkpt lat="43.341614" lon="12.593845"><ele>491.0</ele><time>2026-04-25T07:28:31.528Z</time></trkpt><trkpt lat="43.3415232" lon="12.5938981"><ele>491.0</ele><time>2026-04-25T07:28:33.528Z</time></trkpt><trkpt lat="43.3414189" lon="12.5940232"><ele>491.0</ele><time>2026-04-25T07:28:35.532Z</time></trkpt><trkpt lat="43.3413587" lon="12.5941276"><ele>490.5</ele><time>2026-04-25T07:28:36.526Z</time></trkpt><trkpt lat="43.3412857" lon="12.5942491"><ele>490.0</ele><time>2026-04-25T07:28:37.529Z</time></trkpt><trkpt lat="43.3411977" lon="12.594369"><ele>489.5</ele><time>2026-04-25T07:28:38.521Z</time></trkpt><trkpt lat="43.3411036" lon="12.5944842"><ele>489.0</ele><time>2026-04-25T07:28:39.532Z</time></trkpt><trkpt lat="43.3410079" lon="12.5945951"><ele>489.0</ele><time>2026-04-25T07:28:40.514Z</time></trkpt><trkpt lat="43.3409156" lon="12.5947034"><ele>489.0</ele><time>2026-04-25T07:28:41.519Z</time></trkpt><trkpt lat="43.3408214" lon="12.5948158"><ele>489.0</ele><time>2026-04-25T07:28:42.534Z</time></trkpt><trkpt lat="43.3407265" lon="12.5949326"><ele>489.0</ele><time>2026-04-25T07:28:43.522Z</time></trkpt><trkpt lat="43.34063" lon="12.59505"><ele>488.25</ele><time>2026-04-25T07:28:44.53Z</time></trkpt><trkpt lat="43.3405324" lon="12.5951654"><ele>487.5</ele><time>2026-04-25T07:28:45.517Z</time></trkpt><trkpt lat="43.3404358" lon="12.5952792"><ele>486.75</ele><time>2026-04-25T07:28:46.529Z</time></trkpt><trkpt lat="43.3403401" lon="12.5953939"><ele>486.0</ele><time>2026-04-25T07:28:47.514Z</time></trkpt><trkpt lat="43.3402454" lon="12.5955113"><ele>486.0</ele><time>2026-04-25T07:28:48.513Z</time></trkpt><trkpt lat="43.340147" lon="12.5956281"><ele>486.0</ele><time>2026-04-25T07:28:49.523Z</time></trkpt><trkpt lat="43.3400462" lon="12.5957447"><ele>486.0</ele><time>2026-04-25T07:28:50.527Z</time></trkpt><trkpt lat="43.3399501" lon="12.5958605"><ele>486.0</ele><time>2026-04-25T07:28:51.525Z</time></trkpt><trkpt lat="43.3398654" lon="12.5959649"><ele>486.0</ele><time>2026-04-25T07:28:52.523Z</time></trkpt><trkpt lat="43.3397929" lon="12.5960467"><ele>486.0</ele><time>2026-04-25T07:28:53.523Z</time></trkpt><trkpt lat="43.3397368" lon="12.5961025"><ele>486.0</ele><time>2026-04-25T07:28:54.517Z</time></trkpt><trkpt lat="43.3396935" lon="12.5961991"><ele>486.0</ele><time>2026-04-25T07:28:56.529Z</time></trkpt><trkpt lat="43.3397591" lon="12.5963342"><ele>486.0</ele><time>2026-04-25T07:28:58.51Z</time></trkpt><trkpt lat="43.3398219" lon="12.5964108"><ele>486.0</ele><time>2026-04-25T07:28:59.512Z</time></trkpt><trkpt lat="43.3398838" lon="12.5964691"><ele>486.3333333333333</ele><time>2026-04-25T07:29:00.514Z</time></trkpt><trkpt lat="43.3399489" lon="12.5965144"><ele>486.66666666666663</ele><time>2026-04-25T07:29:02.506Z</time></trkpt><trkpt lat="43.3400345" lon="12.5965589"><ele>487.0</ele><time>2026-04-25T07:29:31.512Z</time></trkpt><trkpt lat="43.3400992" lon="12.5966046"><ele>487.3333333333333</ele><time>2026-04-25T07:29:32.521Z</time></trkpt><trkpt lat="43.3401722" lon="12.5966605"><ele>487.66666666666663</ele><time>2026-04-25T07:29:33.513Z</time></trkpt><trkpt lat="43.3402434" lon="12.5967142"><ele>488.0</ele><time>2026-04-25T07:29:34.511Z</time></trkpt><trkpt lat="43.340319" lon="12.5967692"><ele>487.99999999999994</ele><time>2026-04-25T07:29:35.503Z</time></trkpt><trkpt lat="43.3403945" lon="12.5968244"><ele>488.0</ele><time>2026-04-25T07:29:36.503Z</time></trkpt><trkpt lat="43.3404716" lon="12.5968874"><ele>488.0</ele><time>2026-04-25T07:29:37.512Z</time></trkpt><trkpt lat="43.3405429" lon="12.596956"><ele>488.0</ele><time>2026-04-25T07:29:38.512Z</time></trkpt><trkpt lat="43.3406144" lon="12.5970173"><ele>487.99999999999994</ele><time>2026-04-25T07:29:39.511Z</time></trkpt><trkpt lat="43.3406867" lon="12.5970713"><ele>488.0</ele><time>2026-04-25T07:29:40.512Z</time></trkpt><trkpt lat="43.3407574" lon="12.597126"><ele>488.66666666666663</ele><time>2026-04-25T07:29:41.513Z</time></trkpt><trkpt lat="43.3408279" lon="12.5971803"><ele>489.3333333333333</ele><time>2026-04-25T07:29:42.511Z</time></trkpt><trkpt lat="43.3408962" lon="12.5972304"><ele>490.0</ele><time>2026-04-25T07:29:43.513Z</time></trkpt><trkpt lat="43.3409554" lon="12.5972706"><ele>490.66666666666663</ele><time>2026-04-25T07:29:44.508Z</time></trkpt><trkpt lat="43.3410494" lon="12.5973352"><ele>491.3333333333333</ele><time>2026-04-25T07:29:46.511Z</time></trkpt><trkpt lat="43.3410677" lon="12.5974417"><ele>492.0</ele><time>2026-04-25T07:29:48.504Z</time></trkpt><trkpt lat="43.3410425" lon="12.597523"><ele>492.0</ele><time>2026-04-25T07:29:49.514Z</time></trkpt><trkpt lat="43.3410104" lon="12.5975976"><ele>492.0</ele><time>2026-04-25T07:29:50.511Z</time></trkpt><trkpt lat="43.3409638" lon="12.5976915"><ele>492.0</ele><time>2026-04-25T07:29:52.515Z</time></trkpt><trkpt lat="43.3409366" lon="12.5977863"><ele>492.0</ele><time>2026-04-25T07:29:56.512Z</time></trkpt><trkpt lat="43.3409007" lon="12.5978921"><ele>492.0</ele><time>2026-04-25T07:29:58.502Z</time></trkpt><trkpt lat="43.3408675" lon="12.5979884"><ele>492.0</ele><time>2026-04-25T07:29:59.501Z</time></trkpt><trkpt lat="43.3408233" lon="12.5980965"><ele>492.5</ele><time>2026-04-25T07:30:00.502Z</time></trkpt><trkpt lat="43.3407872" lon="12.5981924"><ele>493.0</ele><time>2026-04-25T07:30:01.499Z</time></trkpt><trkpt lat="43.3407534" lon="12.5982806"><ele>493.5</ele><time>2026-04-25T07:30:02.504Z</time></trkpt><trkpt lat="43.3407162" lon="12.5983697"><ele>494.0</ele><time>2026-04-25T07:30:03.498Z</time></trkpt><trkpt lat="43.3406711" lon="12.5984637"><ele>494.5</ele><time>2026-04-25T07:30:04.499Z</time></trkpt><trkpt lat="43.3406217" lon="12.5985676"><ele>495.0</ele><time>2026-04-25T07:30:05.498Z</time></trkpt><trkpt lat="43.3405722" lon="12.5986747"><ele>493.6</ele><time>2026-04-25T07:30:06.505Z</time></trkpt><trkpt lat="43.3405223" lon="12.5987856"><ele>492.2</ele><time>2026-04-25T07:30:07.503Z</time></trkpt><trkpt lat="43.3404737" lon="12.5988994"><ele>490.79999999999995</ele><time>2026-04-25T07:30:08.505Z</time></trkpt><trkpt lat="43.3404217" lon="12.5990101"><ele>489.4</ele><time>2026-04-25T07:30:09.506Z</time></trkpt><trkpt lat="43.3403619" lon="12.5991197"><ele>488.0</ele><time>2026-04-25T07:30:10.507Z</time></trkpt><trkpt lat="43.3402901" lon="12.5992312"><ele>488.0</ele><time>2026-04-25T07:30:11.505Z</time></trkpt><trkpt lat="43.3402047" lon="12.5993498"><ele>488.0</ele><time>2026-04-25T07:30:12.505Z</time></trkpt><trkpt lat="43.3401046" lon="12.599492"><ele>488.0</ele><time>2026-04-25T07:30:13.505Z</time></trkpt><trkpt lat="43.3399885" lon="12.5996669"><ele>488.0</ele><time>2026-04-25T07:30:14.512Z</time></trkpt><trkpt lat="43.3398688" lon="12.5998375"><ele>489.3333333333333</ele><time>2026-04-25T07:30:15.51Z</time></trkpt><trkpt lat="43.3397581" lon="12.6"><ele>490.66666666666663</ele><time>2026-04-25T07:30:16.513Z</time></trkpt><trkpt lat="43.3396543" lon="12.6001477"><ele>492.0</ele><time>2026-04-25T07:30:17.505Z</time></trkpt><trkpt lat="43.3395563" lon="12.6002848"><ele>491.5</ele><time>2026-04-25T07:30:18.511Z</time></trkpt><trkpt lat="43.3394652" lon="12.6004083"><ele>491.0</ele><time>2026-04-25T07:30:19.513Z</time></trkpt><trkpt lat="43.3393775" lon="12.6005281"><ele>490.5</ele><time>2026-04-25T07:30:20.511Z</time></trkpt><trkpt lat="43.3392874" lon="12.6006439"><ele>490.0</ele><time>2026-04-25T07:30:21.502Z</time></trkpt><trkpt lat="43.3391941" lon="12.6007576"><ele>490.0</ele><time>2026-04-25T07:30:22.502Z</time></trkpt><trkpt lat="43.3391012" lon="12.6008743"><ele>490.0</ele><time>2026-04-25T07:30:23.511Z</time></trkpt><trkpt lat="43.3390064" lon="12.6009953"><ele>490.0</ele><time>2026-04-25T07:30:24.511Z</time></trkpt><trkpt lat="43.3389134" lon="12.601111"><ele>490.0</ele><time>2026-04-25T07:30:25.511Z</time></trkpt><trkpt lat="43.338824" lon="12.6012185"><ele>487.5</ele><time>2026-04-25T07:30:26.508Z</time></trkpt><trkpt lat="43.3387386" lon="12.6013212"><ele>485.0</ele><time>2026-04-25T07:30:27.511Z</time></trkpt><trkpt lat="43.3386535" lon="12.6014182"><ele>482.5</ele><time>2026-04-25T07:30:28.51Z</time></trkpt><trkpt lat="43.3385598" lon="12.6015047"><ele>480.0</ele><time>2026-04-25T07:30:29.501Z</time></trkpt><trkpt lat="43.3384545" lon="12.6015837"><ele>480.0</ele><time>2026-04-25T07:30:30.506Z</time></trkpt><trkpt lat="43.3383397" lon="12.6016758"><ele>480.0</ele><time>2026-04-25T07:30:31.504Z</time></trkpt><trkpt lat="43.3382135" lon="12.6017839"><ele>480.0</ele><time>2026-04-25T07:30:32.51Z</time></trkpt><trkpt lat="43.3380859" lon="12.6019045"><ele>480.0</ele><time>2026-04-25T07:30:33.501Z</time></trkpt><trkpt lat="43.3379725" lon="12.6020263"><ele>478.25</ele><time>2026-04-25T07:30:34.509Z</time></trkpt><trkpt lat="43.3378682" lon="12.6021571"><ele>476.5</ele><time>2026-04-25T07:30:35.508Z</time></trkpt><trkpt lat="43.3377754" lon="12.6022887"><ele>474.75</ele><time>2026-04-25T07:30:36.502Z</time></trkpt><trkpt lat="43.337693" lon="12.6024105"><ele>473.0</ele><time>2026-04-25T07:30:37.506Z</time></trkpt><trkpt lat="43.337617" lon="12.6025226"><ele>473.0</ele><time>2026-04-25T07:30:38.507Z</time></trkpt><trkpt lat="43.3375444" lon="12.6026274"><ele>472.99999999999994</ele><time>2026-04-25T07:30:39.508Z</time></trkpt><trkpt lat="43.3374786" lon="12.6027189"><ele>472.99999999999994</ele><time>2026-04-25T07:30:40.507Z</time></trkpt><trkpt lat="43.3374103" lon="12.6027998"><ele>473.0</ele><time>2026-04-25T07:30:41.509Z</time></trkpt><trkpt lat="43.3373341" lon="12.6028794"><ele>473.0</ele><time>2026-04-25T07:30:42.514Z</time></trkpt><trkpt lat="43.3372514" lon="12.6029589"><ele>472.49999999999994</ele><time>2026-04-25T07:30:43.507Z</time></trkpt><trkpt lat="43.3371712" lon="12.60304"><ele>472.0</ele><time>2026-04-25T07:30:44.51Z</time></trkpt><trkpt lat="43.3370974" lon="12.6031177"><ele>471.5</ele><time>2026-04-25T07:30:45.507Z</time></trkpt><trkpt lat="43.3370295" lon="12.6031883"><ele>471.0</ele><time>2026-04-25T07:30:46.508Z</time></trkpt><trkpt lat="43.3369741" lon="12.6032499"><ele>470.49999999999994</ele><time>2026-04-25T07:30:47.511Z</time></trkpt><trkpt lat="43.3369034" lon="12.6033245"><ele>470.0</ele><time>2026-04-25T07:30:49.512Z</time></trkpt><trkpt lat="43.3368691" lon="12.6034494"><ele>470.0</ele><time>2026-04-25T07:30:51.511Z</time></trkpt><trkpt lat="43.3368778" lon="12.6035359"><ele>470.0</ele><time>2026-04-25T07:30:52.505Z</time></trkpt><trkpt lat="43.3369059" lon="12.603648"><ele>470.0</ele><time>2026-04-25T07:30:53.504Z</time></trkpt><trkpt lat="43.336957" lon="12.6038007"><ele>470.0</ele><time>2026-04-25T07:30:54.51Z</time></trkpt><trkpt lat="43.3370147" lon="12.603984"><ele>470.0</ele><time>2026-04-25T07:30:55.502Z</time></trkpt><trkpt lat="43.3370801" lon="12.604188"><ele>471.0</ele><time>2026-04-25T07:30:56.505Z</time></trkpt><trkpt lat="43.3371432" lon="12.604399"><ele>472.0</ele><time>2026-04-25T07:30:57.505Z</time></trkpt><trkpt lat="43.3371883" lon="12.6046141"><ele>473.0</ele><time>2026-04-25T07:30:58.512Z</time></trkpt><trkpt lat="43.3372106" lon="12.6048325"><ele>473.3333333333333</ele><time>2026-04-25T07:30:59.513Z</time></trkpt><trkpt lat="43.337202" lon="12.6050592"><ele>473.66666666666663</ele><time>2026-04-25T07:31:00.516Z</time></trkpt><trkpt lat="43.3371716" lon="12.6053006"><ele>474.0</ele><time>2026-04-25T07:31:01.502Z</time></trkpt><trkpt lat="43.3371237" lon="12.6055423"><ele>476.33333333333337</ele><time>2026-04-25T07:31:02.506Z</time></trkpt><trkpt lat="43.3370568" lon="12.6057768"><ele>478.6666666666667</ele><time>2026-04-25T07:31:03.507Z</time></trkpt><trkpt lat="43.3369725" lon="12.6060046"><ele>481.0</ele><time>2026-04-25T07:31:04.502Z</time></trkpt><trkpt lat="43.3368772" lon="12.6062272"><ele>485.0</ele><time>2026-04-25T07:31:05.512Z</time></trkpt><trkpt lat="43.3367838" lon="12.6064465"><ele>489.0</ele><time>2026-04-25T07:31:06.511Z</time></trkpt><trkpt lat="43.3366973" lon="12.6066504"><ele>493.0</ele><time>2026-04-25T07:31:07.513Z</time></trkpt><trkpt lat="43.3366248" lon="12.6068373"><ele>497.6666666666667</ele><time>2026-04-25T07:31:08.507Z</time></trkpt><trkpt lat="43.3365661" lon="12.607025"><ele>502.33333333333337</ele><time>2026-04-25T07:31:09.512Z</time></trkpt><trkpt lat="43.3365218" lon="12.6072215"><ele>507.0</ele><time>2026-04-25T07:31:10.513Z</time></trkpt><trkpt lat="43.3364916" lon="12.6074296"><ele>507.0</ele><time>2026-04-25T07:31:11.513Z</time></trkpt><trkpt lat="43.3364748" lon="12.6076387"><ele>507.0</ele><time>2026-04-25T07:31:12.516Z</time></trkpt><trkpt lat="43.33647" lon="12.6078477"><ele>507.0</ele><time>2026-04-25T07:31:13.512Z</time></trkpt><trkpt lat="43.3364702" lon="12.6080464"><ele>509.0</ele><time>2026-04-25T07:31:14.504Z</time></trkpt><trkpt lat="43.3364796" lon="12.6082242"><ele>511.0</ele><time>2026-04-25T07:31:15.51Z</time></trkpt><trkpt lat="43.3365063" lon="12.608392"><ele>513.0</ele><time>2026-04-25T07:31:16.514Z</time></trkpt><trkpt lat="43.3365443" lon="12.608552"><ele>515.0</ele><time>2026-04-25T07:31:17.509Z</time></trkpt><trkpt lat="43.3365908" lon="12.6087011"><ele>516.0</ele><time>2026-04-25T07:31:18.501Z</time></trkpt><trkpt lat="43.3366465" lon="12.6088484"><ele>517.0</ele><time>2026-04-25T07:31:19.508Z</time></trkpt><trkpt lat="43.3367228" lon="12.6089962"><ele>518.0</ele><time>2026-04-25T07:31:20.517Z</time></trkpt><trkpt lat="43.3368103" lon="12.6091456"><ele>519.0</ele><time>2026-04-25T07:31:21.508Z</time></trkpt><trkpt lat="43.3369172" lon="12.6092871"><ele>519.0</ele><time>2026-04-25T07:31:22.504Z</time></trkpt><trkpt lat="43.3370281" lon="12.6094267"><ele>519.0</ele><time>2026-04-25T07:31:23.506Z</time></trkpt><trkpt lat="43.3371216" lon="12.6095568"><ele>519.0</ele><time>2026-04-25T07:31:24.513Z</time></trkpt><trkpt lat="43.337192" lon="12.609694"><ele>519.0</ele><time>2026-04-25T07:31:25.508Z</time></trkpt><trkpt lat="43.3372426" lon="12.6098353"><ele>519.6</ele><time>2026-04-25T07:31:26.501Z</time></trkpt><trkpt lat="43.337265" lon="12.6099458"><ele>520.2</ele><time>2026-04-25T07:31:27.512Z</time></trkpt><trkpt lat="43.3372301" lon="12.6100912"><ele>520.8000000000001</ele><time>2026-04-25T07:31:29.508Z</time></trkpt><trkpt lat="43.3371559" lon="12.610186"><ele>521.4</ele><time>2026-04-25T07:31:31.513Z</time></trkpt><trkpt lat="43.3370944" lon="12.6102336"><ele>522.0</ele><time>2026-04-25T07:31:32.512Z</time></trkpt><trkpt lat="43.3370026" lon="12.610285"><ele>524.0</ele><time>2026-04-25T07:31:33.51Z</time></trkpt><trkpt lat="43.3368894" lon="12.6103329"><ele>526.0</ele><time>2026-04-25T07:31:34.509Z</time></trkpt><trkpt lat="43.3367852" lon="12.6103767"><ele>528.0</ele><time>2026-04-25T07:31:35.511Z</time></trkpt><trkpt lat="43.3367066" lon="12.6104452"><ele>530.0</ele><time>2026-04-25T07:31:36.512Z</time></trkpt><trkpt lat="43.3366537" lon="12.6105487"><ele>532.0</ele><time>2026-04-25T07:31:37.508Z</time></trkpt><trkpt lat="43.3366216" lon="12.6106667"><ele>532.0</ele><time>2026-04-25T07:31:38.507Z</time></trkpt><trkpt lat="43.3366042" lon="12.610792"><ele>532.0</ele><time>2026-04-25T07:31:39.509Z</time></trkpt><trkpt lat="43.3365988" lon="12.6108915"><ele>532.0</ele><time>2026-04-25T07:31:40.512Z</time></trkpt><trkpt lat="43.3365951" lon="12.6109899"><ele>532.0</ele><time>2026-04-25T07:31:41.512Z</time></trkpt><trkpt lat="43.3365836" lon="12.6111316"><ele>532.0</ele><time>2026-04-25T07:31:42.508Z</time></trkpt><trkpt lat="43.3365714" lon="12.6113047"><ele>534.5</ele><time>2026-04-25T07:31:43.511Z</time></trkpt><trkpt lat="43.3365639" lon="12.6115009"><ele>537.0</ele><time>2026-04-25T07:31:44.513Z</time></trkpt><trkpt lat="43.336549" lon="12.6116991"><ele>539.5</ele><time>2026-04-25T07:31:45.512Z</time></trkpt><trkpt lat="43.3365298" lon="12.6118821"><ele>542.0</ele><time>2026-04-25T07:31:46.503Z</time></trkpt><trkpt lat="43.3365072" lon="12.6120451"><ele>544.0</ele><time>2026-04-25T07:31:47.509Z</time></trkpt><trkpt lat="43.3364644" lon="12.6121807"><ele>546.0</ele><time>2026-04-25T07:31:48.515Z</time></trkpt><trkpt lat="43.3364039" lon="12.6122847"><ele>548.0</ele><time>2026-04-25T07:31:49.504Z</time></trkpt><trkpt lat="43.3363316" lon="12.6123667"><ele>550.0</ele><time>2026-04-25T07:31:50.504Z</time></trkpt><trkpt lat="43.3362455" lon="12.612425"><ele>552.0</ele><time>2026-04-25T07:31:51.515Z</time></trkpt><trkpt lat="43.3361452" lon="12.6124478"><ele>554.2</ele><time>2026-04-25T07:31:52.518Z</time></trkpt><trkpt lat="43.3360336" lon="12.6124436"><ele>556.4000000000001</ele><time>2026-04-25T07:31:53.505Z</time></trkpt><trkpt lat="43.3359177" lon="12.6124236"><ele>558.5999999999999</ele><time>2026-04-25T07:31:54.513Z</time></trkpt><trkpt lat="43.3358049" lon="12.6124171"><ele>560.8</ele><time>2026-04-25T07:31:55.509Z</time></trkpt><trkpt lat="43.3357142" lon="12.6124502"><ele>563.0</ele><time>2026-04-25T07:31:56.515Z</time></trkpt><trkpt lat="43.3356402" lon="12.6125302"><ele>563.0</ele><time>2026-04-25T07:31:57.515Z</time></trkpt><trkpt lat="43.3355731" lon="12.6126535"><ele>563.0</ele><time>2026-04-25T07:31:58.509Z</time></trkpt><trkpt lat="43.335501" lon="12.612802"><ele>563.0</ele><time>2026-04-25T07:31:59.507Z</time></trkpt><trkpt lat="43.3354253" lon="12.6129618"><ele>563.0</ele><time>2026-04-25T07:32:00.508Z</time></trkpt><trkpt lat="43.3353561" lon="12.6131109"><ele>566.8</ele><time>2026-04-25T07:32:01.514Z</time></trkpt><trkpt lat="43.3352955" lon="12.6132462"><ele>570.5999999999999</ele><time>2026-04-25T07:32:02.519Z</time></trkpt><trkpt lat="43.3352386" lon="12.6133665"><ele>574.4000000000001</ele><time>2026-04-25T07:32:03.501Z</time></trkpt><trkpt lat="43.335192" lon="12.6134625"><ele>578.2</ele><time>2026-04-25T07:32:04.509Z</time></trkpt><trkpt lat="43.3351523" lon="12.6135983"><ele>582.0</ele><time>2026-04-25T07:32:06.507Z</time></trkpt><trkpt lat="43.3352112" lon="12.6137448"><ele>584.2</ele><time>2026-04-25T07:32:08.511Z</time></trkpt><trkpt lat="43.3352542" lon="12.613844"><ele>586.4000000000001</ele><time>2026-04-25T07:32:09.509Z</time></trkpt><trkpt lat="43.3352985" lon="12.6139715"><ele>588.5999999999999</ele><time>2026-04-25T07:32:10.504Z</time></trkpt><trkpt lat="43.3353434" lon="12.6141249"><ele>590.8</ele><time>2026-04-25T07:32:11.516Z</time></trkpt><trkpt lat="43.3353855" lon="12.6142701"><ele>593.0</ele><time>2026-04-25T07:32:12.517Z</time></trkpt><trkpt lat="43.3354117" lon="12.6144127"><ele>595.8</ele><time>2026-04-25T07:32:13.514Z</time></trkpt><trkpt lat="43.3354231" lon="12.6145662"><ele>598.5999999999999</ele><time>2026-04-25T07:32:14.507Z</time></trkpt><trkpt lat="43.3354343" lon="12.6147218"><ele>601.4000000000001</ele><time>2026-04-25T07:32:15.514Z</time></trkpt><trkpt lat="43.3354489" lon="12.6148675"><ele>604.2</ele><time>2026-04-25T07:32:16.512Z</time></trkpt><trkpt lat="43.3354685" lon="12.6149925"><ele>607.0</ele><time>2026-04-25T07:32:17.51Z</time></trkpt><trkpt lat="43.3354985" lon="12.6151021"><ele>607.0</ele><time>2026-04-25T07:32:18.508Z</time></trkpt><trkpt lat="43.3355435" lon="12.6152098"><ele>607.0</ele><time>2026-04-25T07:32:19.511Z</time></trkpt><trkpt lat="43.3355975" lon="12.6153178"><ele>607.0</ele><time>2026-04-25T07:32:20.51Z</time></trkpt><trkpt lat="43.335663" lon="12.6154094"><ele>607.0</ele><time>2026-04-25T07:32:21.503Z</time></trkpt><trkpt lat="43.335751" lon="12.6154973"><ele>607.0</ele><time>2026-04-25T07:32:22.516Z</time></trkpt><trkpt lat="43.3358444" lon="12.6155754"><ele>607.5</ele><time>2026-04-25T07:32:23.514Z</time></trkpt><trkpt lat="43.3359254" lon="12.6156367"><ele>608.0</ele><time>2026-04-25T07:32:24.514Z</time></trkpt><trkpt lat="43.3359956" lon="12.6156933"><ele>608.5</ele><time>2026-04-25T07:32:25.502Z</time></trkpt><trkpt lat="43.3360527" lon="12.6157498"><ele>609.0</ele><time>2026-04-25T07:32:26.513Z</time></trkpt><trkpt lat="43.3361087" lon="12.6158231"><ele>609.5</ele><time>2026-04-25T07:32:27.513Z</time></trkpt><trkpt lat="43.3361716" lon="12.6159189"><ele>610.0</ele><time>2026-04-25T07:32:28.512Z</time></trkpt><trkpt lat="43.3362296" lon="12.6160196"><ele>610.0</ele><time>2026-04-25T07:32:29.504Z</time></trkpt><trkpt lat="43.3362903" lon="12.6161043"><ele>610.0</ele><time>2026-04-25T07:32:30.504Z</time></trkpt><trkpt lat="43.3363632" lon="12.6161711"><ele>610.0</ele><time>2026-04-25T07:32:31.505Z</time></trkpt><trkpt lat="43.3364453" lon="12.6162232"><ele>610.0</ele><time>2026-04-25T07:32:32.512Z</time></trkpt><trkpt lat="43.3365219" lon="12.6162683"><ele>610.0</ele><time>2026-04-25T07:32:33.51Z</time></trkpt><trkpt lat="43.3365909" lon="12.6163084"><ele>610.0</ele><time>2026-04-25T07:32:34.51Z</time></trkpt><trkpt lat="43.3366532" lon="12.6163446"><ele>609.0</ele><time>2026-04-25T07:32:35.503Z</time></trkpt><trkpt lat="43.3367591" lon="12.6164158"><ele>608.0</ele><time>2026-04-25T07:32:37.505Z</time></trkpt><trkpt lat="43.3368217" lon="12.616462"><ele>607.0</ele><time>2026-04-25T07:32:38.516Z</time></trkpt><trkpt lat="43.3368986" lon="12.6165151"><ele>606.0</ele><time>2026-04-25T07:32:39.513Z</time></trkpt><trkpt lat="43.3369802" lon="12.6165736"><ele>605.0</ele><time>2026-04-25T07:32:40.508Z</time></trkpt><trkpt lat="43.3370642" lon="12.6166346"><ele>605.0</ele><time>2026-04-25T07:32:41.513Z</time></trkpt><trkpt lat="43.3371498" lon="12.6166863"><ele>605.0</ele><time>2026-04-25T07:32:42.511Z</time></trkpt><trkpt lat="43.3372428" lon="12.6167293"><ele>605.0</ele><time>2026-04-25T07:32:43.503Z</time></trkpt><trkpt lat="43.3373434" lon="12.6167651"><ele>605.0</ele><time>2026-04-25T07:32:44.509Z</time></trkpt><trkpt lat="43.337447" lon="12.6167958"><ele>605.0</ele><time>2026-04-25T07:32:45.512Z</time></trkpt><trkpt lat="43.3375432" lon="12.6168312"><ele>604.3333333333333</ele><time>2026-04-25T07:32:46.51Z</time></trkpt><trkpt lat="43.3376281" lon="12.6168668"><ele>603.6666666666666</ele><time>2026-04-25T07:32:47.504Z</time></trkpt><trkpt lat="43.3376971" lon="12.6168971"><ele>603.0</ele><time>2026-04-25T07:32:48.506Z</time></trkpt><trkpt lat="43.3377579" lon="12.6169209"><ele>602.3333333333334</ele><time>2026-04-25T07:32:49.507Z</time></trkpt><trkpt lat="43.3378188" lon="12.6169534"><ele>601.6666666666667</ele><time>2026-04-25T07:32:50.505Z</time></trkpt><trkpt lat="43.3378789" lon="12.6169972"><ele>601.0</ele><time>2026-04-25T07:32:51.511Z</time></trkpt><trkpt lat="43.3379618" lon="12.6171224"><ele>601.0</ele><time>2026-04-25T07:32:53.511Z</time></trkpt><trkpt lat="43.3379886" lon="12.6172086"><ele>601.0</ele><time>2026-04-25T07:32:54.512Z</time></trkpt><trkpt lat="43.3380159" lon="12.6173071"><ele>601.0</ele><time>2026-04-25T07:32:55.511Z</time></trkpt><trkpt lat="43.3380515" lon="12.61742"><ele>601.0</ele><time>2026-04-25T07:32:56.508Z</time></trkpt><trkpt lat="43.3380975" lon="12.6175358"><ele>601.0</ele><time>2026-04-25T07:32:57.51Z</time></trkpt><trkpt lat="43.3381509" lon="12.6176369"><ele>601.0</ele><time>2026-04-25T07:32:58.512Z</time></trkpt><trkpt lat="43.3382176" lon="12.6177209"><ele>601.4</ele><time>2026-04-25T07:32:59.512Z</time></trkpt><trkpt lat="43.3382974" lon="12.6177781"><ele>601.8</ele><time>2026-04-25T07:33:00.508Z</time></trkpt><trkpt lat="43.3383881" lon="12.6178181"><ele>602.1999999999999</ele><time>2026-04-25T07:33:01.514Z</time></trkpt><trkpt lat="43.3384916" lon="12.617852"><ele>602.6</ele><time>2026-04-25T07:33:02.506Z</time></trkpt><trkpt lat="43.3386007" lon="12.6178779"><ele>603.0</ele><time>2026-04-25T07:33:03.509Z</time></trkpt><trkpt lat="43.338712" lon="12.6178941"><ele>604.4</ele><time>2026-04-25T07:33:04.506Z</time></trkpt><trkpt lat="43.3388264" lon="12.6179075"><ele>605.8</ele><time>2026-04-25T07:33:05.502Z</time></trkpt><trkpt lat="43.3389374" lon="12.6179195"><ele>607.2</ele><time>2026-04-25T07:33:06.51Z</time></trkpt><trkpt lat="43.3390477" lon="12.6179234"><ele>608.6</ele><time>2026-04-25T07:33:07.501Z</time></trkpt><trkpt lat="43.3391565" lon="12.6179223"><ele>610.0</ele><time>2026-04-25T07:33:08.507Z</time></trkpt><trkpt lat="43.3392544" lon="12.6179168"><ele>610.3333333333334</ele><time>2026-04-25T07:33:09.513Z</time></trkpt><trkpt lat="43.3393416" lon="12.6178996"><ele>610.6666666666667</ele><time>2026-04-25T07:33:10.511Z</time></trkpt><trkpt lat="43.3394223" lon="12.6178623"><ele>611.0</ele><time>2026-04-25T07:33:11.502Z</time></trkpt><trkpt lat="43.3395025" lon="12.6178186"><ele>611.3333333333334</ele><time>2026-04-25T07:33:12.502Z</time></trkpt><trkpt lat="43.3395803" lon="12.61776"><ele>611.6666666666666</ele><time>2026-04-25T07:33:13.505Z</time></trkpt><trkpt lat="43.3396622" lon="12.6176958"><ele>612.0</ele><time>2026-04-25T07:33:14.511Z</time></trkpt><trkpt lat="43.3397488" lon="12.6176497"><ele>613.6</ele><time>2026-04-25T07:33:15.512Z</time></trkpt><trkpt lat="43.3398399" lon="12.6176186"><ele>615.2</ele><time>2026-04-25T07:33:16.51Z</time></trkpt><trkpt lat="43.3399411" lon="12.617594"><ele>616.8</ele><time>2026-04-25T07:33:17.502Z</time></trkpt><trkpt lat="43.3400484" lon="12.6175734"><ele>618.4</ele><time>2026-04-25T07:33:18.504Z</time></trkpt><trkpt lat="43.340141" lon="12.6175495"><ele>620.0</ele><time>2026-04-25T07:33:19.504Z</time></trkpt><trkpt lat="43.3402177" lon="12.6175166"><ele>620.0</ele><time>2026-04-25T07:33:20.508Z</time></trkpt><trkpt lat="43.3402788" lon="12.6174733"><ele>620.0</ele><time>2026-04-25T07:33:21.503Z</time></trkpt><trkpt lat="43.3403339" lon="12.6174293"><ele>620.0</ele><time>2026-04-25T07:33:22.507Z</time></trkpt><trkpt lat="43.3403916" lon="12.617388"><ele>620.0</ele><time>2026-04-25T07:33:23.504Z</time></trkpt><trkpt lat="43.3404671" lon="12.617325"><ele>620.0</ele><time>2026-04-25T07:33:24.514Z</time></trkpt><trkpt lat="43.3405507" lon="12.6172583"><ele>620.0</ele><time>2026-04-25T07:33:25.513Z</time></trkpt><trkpt lat="43.3406308" lon="12.6171959"><ele>622.5</ele><time>2026-04-25T07:33:26.505Z</time></trkpt><trkpt lat="43.3407062" lon="12.6171444"><ele>625.0</ele><time>2026-04-25T07:33:27.511Z</time></trkpt><trkpt lat="43.3407867" lon="12.6171082"><ele>627.5</ele><time>2026-04-25T07:33:28.511Z</time></trkpt><trkpt lat="43.34087" lon="12.6170936"><ele>630.0</ele><time>2026-04-25T07:33:29.503Z</time></trkpt><trkpt lat="43.3409493" lon="12.6171064"><ele>632.5</ele><time>2026-04-25T07:33:30.509Z</time></trkpt><trkpt lat="43.3410223" lon="12.6171536"><ele>635.0</ele><time>2026-04-25T07:33:31.502Z</time></trkpt><trkpt lat="43.3410823" lon="12.6172317"><ele>635.0</ele><time>2026-04-25T07:33:32.509Z</time></trkpt><trkpt lat="43.341131" lon="12.6173427"><ele>635.0</ele><time>2026-04-25T07:33:33.5Z</time></trkpt><trkpt lat="43.3411596" lon="12.6174653"><ele>635.0</ele><time>2026-04-25T07:33:34.509Z</time></trkpt><trkpt lat="43.3411825" lon="12.6176022"><ele>635.0</ele><time>2026-04-25T07:33:35.513Z</time></trkpt><trkpt lat="43.3412092" lon="12.6177453"><ele>635.0</ele><time>2026-04-25T07:33:36.509Z</time></trkpt><trkpt lat="43.3412423" lon="12.6178737"><ele>633.9999999999999</ele><time>2026-04-25T07:33:37.506Z</time></trkpt><trkpt lat="43.3412842" lon="12.6179805"><ele>633.0</ele><time>2026-04-25T07:33:38.507Z</time></trkpt><trkpt lat="43.3413279" lon="12.6180742"><ele>632.0</ele><time>2026-04-25T07:33:39.513Z</time></trkpt><trkpt lat="43.3413757" lon="12.6181464"><ele>631.0</ele><time>2026-04-25T07:33:40.509Z</time></trkpt><trkpt lat="43.3414278" lon="12.6182086"><ele>630.0</ele><time>2026-04-25T07:33:41.509Z</time></trkpt><trkpt lat="43.3414875" lon="12.6182534"><ele>628.9999999999999</ele><time>2026-04-25T07:33:42.512Z</time></trkpt><trkpt lat="43.3415533" lon="12.6182776"><ele>628.0</ele><time>2026-04-25T07:33:43.501Z</time></trkpt><trkpt lat="43.3416231" lon="12.6182892"><ele>631.1666666666667</ele><time>2026-04-25T07:33:44.501Z</time></trkpt><trkpt lat="43.3416983" lon="12.6182938"><ele>634.3333333333334</ele><time>2026-04-25T07:33:45.505Z</time></trkpt><trkpt lat="43.3417771" lon="12.6183001"><ele>637.5</ele><time>2026-04-25T07:33:46.511Z</time></trkpt><trkpt lat="43.3418577" lon="12.6183233"><ele>640.6666666666666</ele><time>2026-04-25T07:33:47.51Z</time></trkpt><trkpt lat="43.3419428" lon="12.6183736"><ele>643.8333333333333</ele><time>2026-04-25T07:33:48.501Z</time></trkpt><trkpt lat="43.3420283" lon="12.6184397"><ele>647.0</ele><time>2026-04-25T07:33:49.508Z</time></trkpt><trkpt lat="43.3421115" lon="12.6185075"><ele>647.0</ele><time>2026-04-25T07:33:50.51Z</time></trkpt><trkpt lat="43.3421922" lon="12.6185707"><ele>647.0</ele><time>2026-04-25T07:33:51.507Z</time></trkpt><trkpt lat="43.3422735" lon="12.6186407"><ele>647.0</ele><time>2026-04-25T07:33:52.501Z</time></trkpt><trkpt lat="43.3423599" lon="12.6187148"><ele>647.0</ele><time>2026-04-25T07:33:53.508Z</time></trkpt><trkpt lat="43.3424543" lon="12.6187799"><ele>647.0</ele><time>2026-04-25T07:33:54.504Z</time></trkpt><trkpt lat="43.3425574" lon="12.6188259"><ele>647.6</ele><time>2026-04-25T07:33:55.504Z</time></trkpt><trkpt lat="43.3426639" lon="12.6188536"><ele>648.2</ele><time>2026-04-25T07:33:56.507Z</time></trkpt><trkpt lat="43.3427735" lon="12.6188688"><ele>648.8</ele><time>2026-04-25T07:33:57.509Z</time></trkpt><trkpt lat="43.3428836" lon="12.6188755"><ele>649.4</ele><time>2026-04-25T07:33:58.507Z</time></trkpt><trkpt lat="43.3429867" lon="12.6188753"><ele>650.0</ele><time>2026-04-25T07:33:59.502Z</time></trkpt><trkpt lat="43.3430833" lon="12.6188621"><ele>650.2</ele><time>2026-04-25T07:34:00.501Z</time></trkpt><trkpt lat="43.3431785" lon="12.6188447"><ele>650.4</ele><time>2026-04-25T07:34:01.508Z</time></trkpt><trkpt lat="43.343275" lon="12.6188233"><ele>650.5999999999999</ele><time>2026-04-25T07:34:02.511Z</time></trkpt><trkpt lat="43.3433713" lon="12.6187901"><ele>650.8</ele><time>2026-04-25T07:34:03.5Z</time></trkpt><trkpt lat="43.3434672" lon="12.6187376"><ele>651.0</ele><time>2026-04-25T07:34:04.503Z</time></trkpt><trkpt lat="43.3435626" lon="12.6186688"><ele>656.5</ele><time>2026-04-25T07:34:05.509Z</time></trkpt><trkpt lat="43.3436628" lon="12.618601"><ele>662.0</ele><time>2026-04-25T07:34:06.501Z</time></trkpt><trkpt lat="43.3437657" lon="12.6185405"><ele>667.5</ele><time>2026-04-25T07:34:07.502Z</time></trkpt><trkpt lat="43.3438687" lon="12.6184817"><ele>673.0</ele><time>2026-04-25T07:34:08.508Z</time></trkpt><trkpt lat="43.3439758" lon="12.6184231"><ele>673.0</ele><time>2026-04-25T07:34:09.512Z</time></trkpt><trkpt lat="43.3440878" lon="12.6183563"><ele>673.0</ele><time>2026-04-25T07:34:10.511Z</time></trkpt><trkpt lat="43.3441991" lon="12.6182807"><ele>673.0</ele><time>2026-04-25T07:34:11.509Z</time></trkpt><trkpt lat="43.3443051" lon="12.6182083"><ele>673.0</ele><time>2026-04-25T07:34:12.514Z</time></trkpt><trkpt lat="43.344405" lon="12.6181503"><ele>673.0</ele><time>2026-04-25T07:34:13.511Z</time></trkpt><trkpt lat="43.3445026" lon="12.6181113"><ele>673.0</ele><time>2026-04-25T07:34:14.51Z</time></trkpt><trkpt lat="43.3445977" lon="12.6181103"><ele>673.0</ele><time>2026-04-25T07:34:15.509Z</time></trkpt><trkpt lat="43.3446795" lon="12.6181428"><ele>673.0</ele><time>2026-04-25T07:34:16.503Z</time></trkpt><trkpt lat="43.3447467" lon="12.6182031"><ele>673.0</ele><time>2026-04-25T07:34:17.51Z</time></trkpt><trkpt lat="43.3448084" lon="12.6182834"><ele>673.0</ele><time>2026-04-25T07:34:18.509Z</time></trkpt><trkpt lat="43.3448728" lon="12.618367"><ele>673.2</ele><time>2026-04-25T07:34:19.507Z</time></trkpt><trkpt lat="43.3449478" lon="12.6184463"><ele>673.4</ele><time>2026-04-25T07:34:20.507Z</time></trkpt><trkpt lat="43.3450303" lon="12.6185062"><ele>673.6</ele><time>2026-04-25T07:34:21.507Z</time></trkpt><trkpt lat="43.3451085" lon="12.618567"><ele>673.8000000000001</ele><time>2026-04-25T07:34:22.508Z</time></trkpt><trkpt lat="43.3451753" lon="12.6186409"><ele>674.0</ele><time>2026-04-25T07:34:23.511Z</time></trkpt><trkpt lat="43.345227" lon="12.6187385"><ele>674.0</ele><time>2026-04-25T07:34:24.509Z</time></trkpt><trkpt lat="43.3452603" lon="12.6188585"><ele>674.0</ele><time>2026-04-25T07:34:25.506Z</time></trkpt><trkpt lat="43.3452761" lon="12.6189975"><ele>674.0</ele><time>2026-04-25T07:34:26.503Z</time></trkpt><trkpt lat="43.3452797" lon="12.6191471"><ele>674.0</ele><time>2026-04-25T07:34:27.512Z</time></trkpt><trkpt lat="43.3452724" lon="12.6193077"><ele>674.0</ele><time>2026-04-25T07:34:28.513Z</time></trkpt><trkpt lat="43.3452544" lon="12.619481"><ele>677.25</ele><time>2026-04-25T07:34:29.512Z</time></trkpt><trkpt lat="43.3452268" lon="12.6196586"><ele>680.5</ele><time>2026-04-25T07:34:30.513Z</time></trkpt><trkpt lat="43.3451926" lon="12.6198297"><ele>683.75</ele><time>2026-04-25T07:34:31.501Z</time></trkpt><trkpt lat="43.3451506" lon="12.6199843"><ele>687.0</ele><time>2026-04-25T07:34:32.516Z</time></trkpt><trkpt lat="43.3451006" lon="12.6201259"><ele>687.0</ele><time>2026-04-25T07:34:33.511Z</time></trkpt><trkpt lat="43.3450458" lon="12.6202653"><ele>687.0</ele><time>2026-04-25T07:34:34.511Z</time></trkpt><trkpt lat="43.3449921" lon="12.6204045"><ele>687.0</ele><time>2026-04-25T07:34:35.511Z</time></trkpt><trkpt lat="43.3449417" lon="12.6205352"><ele>687.0</ele><time>2026-04-25T07:34:36.515Z</time></trkpt><trkpt lat="43.3448951" lon="12.6206584"><ele>687.0</ele><time>2026-04-25T07:34:37.509Z</time></trkpt><trkpt lat="43.3448519" lon="12.6207755"><ele>685.0</ele><time>2026-04-25T07:34:38.51Z</time></trkpt><trkpt lat="43.3448087" lon="12.620887"><ele>683.0</ele><time>2026-04-25T07:34:39.51Z</time></trkpt><trkpt lat="43.3447619" lon="12.6210022"><ele>681.0</ele><time>2026-04-25T07:34:40.511Z</time></trkpt><trkpt lat="43.3447112" lon="12.6211129"><ele>679.0</ele><time>2026-04-25T07:34:41.51Z</time></trkpt><trkpt lat="43.3446623" lon="12.6212251"><ele>677.0</ele><time>2026-04-25T07:34:42.51Z</time></trkpt><trkpt lat="43.3446147" lon="12.6213436"><ele>677.0</ele><time>2026-04-25T07:34:43.515Z</time></trkpt><trkpt lat="43.3445735" lon="12.6214631"><ele>677.0</ele><time>2026-04-25T07:34:44.508Z</time></trkpt><trkpt lat="43.344544" lon="12.621579"><ele>677.0</ele><time>2026-04-25T07:34:45.506Z</time></trkpt><trkpt lat="43.3445321" lon="12.6216917"><ele>677.0</ele><time>2026-04-25T07:34:46.514Z</time></trkpt><trkpt lat="43.3445398" lon="12.6218006"><ele>677.0</ele><time>2026-04-25T07:34:47.512Z</time></trkpt><trkpt lat="43.3445633" lon="12.6218923"><ele>677.0</ele><time>2026-04-25T07:34:48.515Z</time></trkpt><trkpt lat="43.3446378" lon="12.6220091"><ele>676.4285714285713</ele><time>2026-04-25T07:34:50.514Z</time></trkpt><trkpt lat="43.3446953" lon="12.6220479"><ele>675.8571428571429</ele><time>2026-04-25T07:34:51.505Z</time></trkpt><trkpt lat="43.3447653" lon="12.6220739"><ele>675.2857142857142</ele><time>2026-04-25T07:34:52.513Z</time></trkpt><trkpt lat="43.3448433" lon="12.622075"><ele>674.7142857142857</ele><time>2026-04-25T07:34:53.503Z</time></trkpt><trkpt lat="43.3449143" lon="12.6220507"><ele>674.1428571428571</ele><time>2026-04-25T07:34:54.512Z</time></trkpt><trkpt lat="43.3449787" lon="12.622007"><ele>673.5714285714286</ele><time>2026-04-25T07:34:55.503Z</time></trkpt><trkpt lat="43.3450435" lon="12.6219461"><ele>673.0</ele><time>2026-04-25T07:34:56.51Z</time></trkpt><trkpt lat="43.3451096" lon="12.6218813"><ele>677.2</ele><time>2026-04-25T07:34:57.516Z</time></trkpt><trkpt lat="43.3451739" lon="12.6218251"><ele>681.4</ele><time>2026-04-25T07:34:58.512Z</time></trkpt><trkpt lat="43.3452353" lon="12.6218025"><ele>685.6</ele><time>2026-04-25T07:34:59.506Z</time></trkpt><trkpt lat="43.3453573" lon="12.6218741"><ele>689.8000000000001</ele><time>2026-04-25T07:35:01.502Z</time></trkpt><trkpt lat="43.345425" lon="12.6219645"><ele>694.0</ele><time>2026-04-25T07:35:02.511Z</time></trkpt><trkpt lat="43.3454953" lon="12.6220721"><ele>697.4000000000001</ele><time>2026-04-25T07:35:03.511Z</time></trkpt><trkpt lat="43.3455653" lon="12.6221846"><ele>700.8</ele><time>2026-04-25T07:35:04.508Z</time></trkpt><trkpt lat="43.3456332" lon="12.6223026"><ele>704.2</ele><time>2026-04-25T07:35:05.51Z</time></trkpt><trkpt lat="43.3456979" lon="12.6224273"><ele>707.5999999999999</ele><time>2026-04-25T07:35:06.512Z</time></trkpt><trkpt lat="43.3457586" lon="12.6225597"><ele>711.0</ele><time>2026-04-25T07:35:07.513Z</time></trkpt><trkpt lat="43.345809" lon="12.6226992"><ele>711.5</ele><time>2026-04-25T07:35:08.511Z</time></trkpt><trkpt lat="43.3458452" lon="12.6228355"><ele>712.0</ele><time>2026-04-25T07:35:09.512Z</time></trkpt><trkpt lat="43.3458653" lon="12.6229559"><ele>712.5</ele><time>2026-04-25T07:35:10.513Z</time></trkpt><trkpt lat="43.3458736" lon="12.6230651"><ele>713.0</ele><time>2026-04-25T07:35:11.514Z</time></trkpt><trkpt lat="43.3458715" lon="12.6231704"><ele>713.5</ele><time>2026-04-25T07:35:12.513Z</time></trkpt><trkpt lat="43.3458627" lon="12.6232685"><ele>714.0</ele><time>2026-04-25T07:35:13.512Z</time></trkpt><trkpt lat="43.3458201" lon="12.6234149"><ele>714.0</ele><time>2026-04-25T07:35:15.511Z</time></trkpt><trkpt lat="43.3457704" lon="12.6234855"><ele>714.0</ele><time>2026-04-25T07:35:16.513Z</time></trkpt><trkpt lat="43.3457062" lon="12.6235601"><ele>714.0</ele><time>2026-04-25T07:35:17.505Z</time></trkpt><trkpt lat="43.3456355" lon="12.6236264"><ele>714.0</ele><time>2026-04-25T07:35:18.504Z</time></trkpt><trkpt lat="43.3455668" lon="12.6236778"><ele>714.0</ele><time>2026-04-25T07:35:19.513Z</time></trkpt><trkpt lat="43.3455138" lon="12.6237288"><ele>714.0</ele><time>2026-04-25T07:35:20.509Z</time></trkpt><trkpt lat="43.3454733" lon="12.6237953"><ele>714.0</ele><time>2026-04-25T07:35:21.504Z</time></trkpt><trkpt lat="43.3454377" lon="12.6238791"><ele>715.2</ele><time>2026-04-25T07:35:22.514Z</time></trkpt><trkpt lat="43.3454097" lon="12.623969"><ele>716.4000000000001</ele><time>2026-04-25T07:35:23.515Z</time></trkpt><trkpt lat="43.3453988" lon="12.6241251"><ele>717.6</ele><time>2026-04-25T07:35:25.508Z</time></trkpt><trkpt lat="43.3454482" lon="12.6242249"><ele>718.8</ele><time>2026-04-25T07:35:27.512Z</time></trkpt><trkpt lat="43.34556" lon="12.624314"><ele>720.0</ele><time>2026-04-25T07:35:29.513Z</time></trkpt><trkpt lat="43.3456425" lon="12.6243801"><ele>720.0</ele><time>2026-04-25T07:35:31.515Z</time></trkpt><trkpt lat="43.3457305" lon="12.6243488"><ele>720.0</ele><time>2026-04-25T07:35:34.514Z</time></trkpt><trkpt lat="43.345819" lon="12.6242545"><ele>720.0</ele><time>2026-04-25T07:35:36.509Z</time></trkpt><trkpt lat="43.3458972" lon="12.6242923"><ele>720.0</ele><time>2026-04-25T07:40:13.506Z</time></trkpt><trkpt lat="43.3459321" lon="12.6242013"><ele>720.0</ele><time>2026-04-25T07:40:18.51Z</time></trkpt><trkpt lat="43.3458642" lon="12.6241672"><ele>720.0</ele><time>2026-04-25T07:40:21.516Z</time></trkpt><trkpt lat="43.3457753" lon="12.624207"><ele>720.0</ele><time>2026-04-25T07:40:37.516Z</time></trkpt><trkpt lat="43.3456716" lon="12.6242496"><ele>720.0</ele><time>2026-04-25T07:40:39.514Z</time></trkpt><trkpt lat="43.3456047" lon="12.6243219"><ele>720.0</ele><time>2026-04-25T07:40:42.516Z</time></trkpt><trkpt lat="43.345528" lon="12.6242878"><ele>720.0</ele><time>2026-04-25T07:40:44.51Z</time></trkpt><trkpt lat="43.34544" lon="12.6241813"><ele>720.0</ele><time>2026-04-25T07:40:46.515Z</time></trkpt><trkpt lat="43.3454106" lon="12.6240493"><ele>718.5</ele><time>2026-04-25T07:40:48.512Z</time></trkpt><trkpt lat="43.345436" lon="12.6238906"><ele>717.0</ele><time>2026-04-25T07:40:50.51Z</time></trkpt><trkpt lat="43.3454925" lon="12.6237422"><ele>715.5</ele><time>2026-04-25T07:40:52.516Z</time></trkpt><trkpt lat="43.3455776" lon="12.6236306"><ele>714.0</ele><time>2026-04-25T07:40:54.513Z</time></trkpt><trkpt lat="43.345682" lon="12.6235369"><ele>714.0</ele><time>2026-04-25T07:40:56.517Z</time></trkpt><trkpt lat="43.3457764" lon="12.6234485"><ele>714.0</ele><time>2026-04-25T07:40:58.516Z</time></trkpt><trkpt lat="43.3458289" lon="12.623386"><ele>714.0</ele><time>2026-04-25T07:41:00.511Z</time></trkpt><trkpt lat="43.345828" lon="12.6232957"><ele>714.0</ele><time>2026-04-25T07:41:04.508Z</time></trkpt><trkpt lat="43.3457532" lon="12.6233308"><ele>714.0</ele><time>2026-04-25T07:41:08.51Z</time></trkpt><trkpt lat="43.345644" lon="12.6234432"><ele>714.0</ele><time>2026-04-25T07:41:10.514Z</time></trkpt><trkpt lat="43.3455655" lon="12.623532"><ele>714.0</ele><time>2026-04-25T07:41:11.508Z</time></trkpt><trkpt lat="43.3454861" lon="12.6236024"><ele>714.0</ele><time>2026-04-25T07:41:12.514Z</time></trkpt><trkpt lat="43.3454112" lon="12.6236744"><ele>714.0</ele><time>2026-04-25T07:41:13.512Z</time></trkpt><trkpt lat="43.3453438" lon="12.6237552"><ele>714.0</ele><time>2026-04-25T07:41:14.511Z</time></trkpt><trkpt lat="43.3452851" lon="12.6238361"><ele>712.8333333333334</ele><time>2026-04-25T07:41:15.51Z</time></trkpt><trkpt lat="43.3452385" lon="12.6239072"><ele>711.6666666666666</ele><time>2026-04-25T07:41:16.515Z</time></trkpt><trkpt lat="43.3451472" lon="12.624038"><ele>710.5</ele><time>2026-04-25T07:41:18.504Z</time></trkpt><trkpt lat="43.3451068" lon="12.6241207"><ele>709.3333333333333</ele><time>2026-04-25T07:41:19.508Z</time></trkpt><trkpt lat="43.3450753" lon="12.6242152"><ele>708.1666666666666</ele><time>2026-04-25T07:41:20.511Z</time></trkpt><trkpt lat="43.3450428" lon="12.6243079"><ele>707.0</ele><time>2026-04-25T07:41:21.514Z</time></trkpt><trkpt lat="43.3450034" lon="12.6244016"><ele>707.5</ele><time>2026-04-25T07:41:22.505Z</time></trkpt><trkpt lat="43.3449575" lon="12.6244993"><ele>708.0</ele><time>2026-04-25T07:41:23.513Z</time></trkpt><trkpt lat="43.344905" lon="12.6245935"><ele>708.5</ele><time>2026-04-25T07:41:24.517Z</time></trkpt><trkpt lat="43.3448493" lon="12.6246767"><ele>709.0</ele><time>2026-04-25T07:41:25.513Z</time></trkpt><trkpt lat="43.3447951" lon="12.6247507"><ele>709.5</ele><time>2026-04-25T07:41:26.516Z</time></trkpt><trkpt lat="43.3447497" lon="12.6248264"><ele>710.0</ele><time>2026-04-25T07:41:27.516Z</time></trkpt><trkpt lat="43.3447135" lon="12.6249066"><ele>710.3333333333333</ele><time>2026-04-25T07:41:28.512Z</time></trkpt><trkpt lat="43.3446823" lon="12.6249973"><ele>710.6666666666666</ele><time>2026-04-25T07:41:29.514Z</time></trkpt><trkpt lat="43.3446554" lon="12.6250925"><ele>711.0</ele><time>2026-04-25T07:41:30.516Z</time></trkpt><trkpt lat="43.3446332" lon="12.62519"><ele>711.3333333333334</ele><time>2026-04-25T07:41:31.513Z</time></trkpt><trkpt lat="43.3446145" lon="12.6252862"><ele>711.6666666666667</ele><time>2026-04-25T07:41:32.519Z</time></trkpt><trkpt lat="43.3445969" lon="12.6253923"><ele>712.0</ele><time>2026-04-25T07:41:33.505Z</time></trkpt><trkpt lat="43.3445799" lon="12.6255125"><ele>712.0</ele><time>2026-04-25T07:41:34.517Z</time></trkpt><trkpt lat="43.3445596" lon="12.6256341"><ele>712.0</ele><time>2026-04-25T07:41:35.515Z</time></trkpt><trkpt lat="43.3445389" lon="12.6257361"><ele>712.0</ele><time>2026-04-25T07:41:36.515Z</time></trkpt><trkpt lat="43.3445142" lon="12.6258225"><ele>712.0</ele><time>2026-04-25T07:41:37.515Z</time></trkpt><trkpt lat="43.3444843" lon="12.6259023"><ele>712.0</ele><time>2026-04-25T07:41:38.508Z</time></trkpt><trkpt lat="43.3444401" lon="12.6260236"><ele>712.0</ele><time>2026-04-25T07:41:40.513Z</time></trkpt><trkpt lat="43.3444091" lon="12.6261429"><ele>711.0</ele><time>2026-04-25T07:41:42.515Z</time></trkpt><trkpt lat="43.3443578" lon="12.6262736"><ele>710.0</ele><time>2026-04-25T07:41:44.507Z</time></trkpt><trkpt lat="43.3443078" lon="12.6264108"><ele>709.0</ele><time>2026-04-25T07:41:46.513Z</time></trkpt><trkpt lat="43.3442636" lon="12.6265683"><ele>708.0</ele><time>2026-04-25T07:41:48.511Z</time></trkpt><trkpt lat="43.3442416" lon="12.6267321"><ele>708.0</ele><time>2026-04-25T07:41:50.513Z</time></trkpt><trkpt lat="43.3442273" lon="12.6268598"><ele>708.0</ele><time>2026-04-25T07:41:52.507Z</time></trkpt><trkpt lat="43.3442422" lon="12.6269692"><ele>708.0</ele><time>2026-04-25T07:41:54.514Z</time></trkpt><trkpt lat="43.3442855" lon="12.6270517"><ele>708.0</ele><time>2026-04-25T07:41:56.502Z</time></trkpt><trkpt lat="43.3443817" lon="12.6271626"><ele>708.0</ele><time>2026-04-25T07:41:58.515Z</time></trkpt><trkpt lat="43.3444357" lon="12.6272404"><ele>709.3333333333334</ele><time>2026-04-25T07:41:59.507Z</time></trkpt><trkpt lat="43.3444804" lon="12.6273168"><ele>710.6666666666666</ele><time>2026-04-25T07:42:00.508Z</time></trkpt><trkpt lat="43.3445166" lon="12.6273933"><ele>712.0</ele><time>2026-04-25T07:42:01.513Z</time></trkpt><trkpt lat="43.3445458" lon="12.6274768"><ele>713.3333333333333</ele><time>2026-04-25T07:42:02.512Z</time></trkpt><trkpt lat="43.3445735" lon="12.6276437"><ele>714.6666666666666</ele><time>2026-04-25T07:42:04.513Z</time></trkpt><trkpt lat="43.3445858" lon="12.6277412"><ele>716.0</ele><time>2026-04-25T07:42:05.512Z</time></trkpt><trkpt lat="43.3446012" lon="12.6278413"><ele>717.0000000000001</ele><time>2026-04-25T07:42:06.511Z</time></trkpt><trkpt lat="43.3446246" lon="12.6279385"><ele>718.0</ele><time>2026-04-25T07:42:07.502Z</time></trkpt><trkpt lat="43.3446486" lon="12.6280305"><ele>719.0</ele><time>2026-04-25T07:42:08.5Z</time></trkpt><trkpt lat="43.3446747" lon="12.6281271"><ele>720.0</ele><time>2026-04-25T07:42:09.512Z</time></trkpt><trkpt lat="43.3446957" lon="12.628228"><ele>721.0</ele><time>2026-04-25T07:42:10.502Z</time></trkpt><trkpt lat="43.3447131" lon="12.6283214"><ele>722.0000000000001</ele><time>2026-04-25T07:42:11.51Z</time></trkpt><trkpt lat="43.3447299" lon="12.628406"><ele>723.0</ele><time>2026-04-25T07:42:12.508Z</time></trkpt><trkpt lat="43.3447526" lon="12.6285101"><ele>717.8</ele><time>2026-04-25T07:42:14.51Z</time></trkpt><trkpt lat="43.3448013" lon="12.6285737"><ele>712.5999999999999</ele><time>2026-04-25T07:42:17.503Z</time></trkpt><trkpt lat="43.3448835" lon="12.6284884"><ele>707.4000000000001</ele><time>2026-04-25T07:42:26.515Z</time></trkpt><trkpt lat="43.3449848" lon="12.6284376"><ele>702.2</ele><time>2026-04-25T07:42:28.512Z</time></trkpt><trkpt lat="43.3451128" lon="12.6284735"><ele>697.0</ele><time>2026-04-25T07:42:30.504Z</time></trkpt><trkpt lat="43.3451811" lon="12.6285234"><ele>697.0</ele><time>2026-04-25T07:42:31.511Z</time></trkpt><trkpt lat="43.3452409" lon="12.6285873"><ele>697.0</ele><time>2026-04-25T07:42:32.509Z</time></trkpt><trkpt lat="43.3452902" lon="12.6286589"><ele>697.0</ele><time>2026-04-25T07:42:33.513Z</time></trkpt><trkpt lat="43.345335" lon="12.6287245"><ele>697.0</ele><time>2026-04-25T07:42:34.508Z</time></trkpt><trkpt lat="43.3454337" lon="12.6288313"><ele>697.0</ele><time>2026-04-25T07:42:36.501Z</time></trkpt><trkpt lat="43.3455008" lon="12.628872"><ele>697.0</ele><time>2026-04-25T07:42:37.502Z</time></trkpt><trkpt lat="43.3455889" lon="12.628907"><ele>698.3333333333334</ele><time>2026-04-25T07:42:38.5Z</time></trkpt><trkpt lat="43.3456844" lon="12.6289279"><ele>699.6666666666667</ele><time>2026-04-25T07:42:39.511Z</time></trkpt><trkpt lat="43.3457742" lon="12.6289355"><ele>701.0</ele><time>2026-04-25T07:42:40.511Z</time></trkpt><trkpt lat="43.3458536" lon="12.6289359"><ele>702.3333333333334</ele><time>2026-04-25T07:42:41.505Z</time></trkpt><trkpt lat="43.3459232" lon="12.6289409"><ele>703.6666666666666</ele><time>2026-04-25T07:42:42.514Z</time></trkpt><trkpt lat="43.3459931" lon="12.6289543"><ele>705.0</ele><time>2026-04-25T07:42:43.51Z</time></trkpt><trkpt lat="43.3460864" lon="12.629037"><ele>705.0</ele><time>2026-04-25T07:42:45.512Z</time></trkpt><trkpt lat="43.3461402" lon="12.6291563"><ele>705.0</ele><time>2026-04-25T07:42:47.511Z</time></trkpt><trkpt lat="43.3462004" lon="12.6293081"><ele>705.0</ele><time>2026-04-25T07:42:49.511Z</time></trkpt><trkpt lat="43.3462553" lon="12.6294397"><ele>705.0</ele><time>2026-04-25T07:42:51.511Z</time></trkpt><trkpt lat="43.3463108" lon="12.6294988"><ele>705.0</ele><time>2026-04-25T07:42:52.516Z</time></trkpt><trkpt lat="43.3463792" lon="12.6295594"><ele>703.8333333333334</ele><time>2026-04-25T07:42:53.512Z</time></trkpt><trkpt lat="43.3464472" lon="12.6296101"><ele>702.6666666666666</ele><time>2026-04-25T07:42:54.508Z</time></trkpt><trkpt lat="43.3465159" lon="12.629638"><ele>701.5</ele><time>2026-04-25T07:42:55.511Z</time></trkpt><trkpt lat="43.346584" lon="12.6296526"><ele>700.3333333333333</ele><time>2026-04-25T07:42:56.504Z</time></trkpt><trkpt lat="43.3467138" lon="12.6296512"><ele>699.1666666666666</ele><time>2026-04-25T07:42:58.506Z</time></trkpt><trkpt lat="43.3467832" lon="12.6296476"><ele>698.0</ele><time>2026-04-25T07:42:59.504Z</time></trkpt><trkpt lat="43.3468459" lon="12.6296565"><ele>698.0</ele><time>2026-04-25T07:43:00.513Z</time></trkpt><trkpt lat="43.3469605" lon="12.6297072"><ele>698.0</ele><time>2026-04-25T07:43:02.514Z</time></trkpt><trkpt lat="43.3470596" lon="12.6296902"><ele>698.0</ele><time>2026-04-25T07:43:04.5Z</time></trkpt><trkpt lat="43.3471335" lon="12.629688"><ele>698.0</ele><time>2026-04-25T07:43:06.504Z</time></trkpt><trkpt lat="43.3471403" lon="12.6298142"><ele>698.0</ele><time>2026-04-25T07:43:09.506Z</time></trkpt><trkpt lat="43.3470868" lon="12.6299302"><ele>698.0</ele><time>2026-04-25T07:43:11.51Z</time></trkpt><trkpt lat="43.3470197" lon="12.6300561"><ele>698.0</ele><time>2026-04-25T07:43:13.502Z</time></trkpt><trkpt lat="43.3469722" lon="12.6301914"><ele>698.0</ele><time>2026-04-25T07:43:15.506Z</time></trkpt><trkpt lat="43.3469735" lon="12.6303483"><ele>698.0</ele><time>2026-04-25T07:43:17.507Z</time></trkpt><trkpt lat="43.3469959" lon="12.6304704"><ele>698.0</ele><time>2026-04-25T07:43:19.511Z</time></trkpt><trkpt lat="43.3470193" lon="12.6305555"><ele>698.8333333333333</ele><time>2026-04-25T07:43:21.509Z</time></trkpt><trkpt lat="43.3470476" lon="12.6306544"><ele>699.6666666666666</ele><time>2026-04-25T07:43:23.514Z</time></trkpt><trkpt lat="43.3470687" lon="12.6307482"><ele>700.5</ele><time>2026-04-25T07:43:25.506Z</time></trkpt><trkpt lat="43.3470224" lon="12.6308214"><ele>701.3333333333334</ele><time>2026-04-25T07:43:29.506Z</time></trkpt><trkpt lat="43.3469265" lon="12.6308073"><ele>702.1666666666667</ele><time>2026-04-25T07:43:32.488Z</time></trkpt><trkpt lat="43.3468642" lon="12.6307815"><ele>703.0</ele><time>2026-04-25T07:43:33.508Z</time></trkpt><trkpt lat="43.3467955" lon="12.6307557"><ele>703.0</ele><time>2026-04-25T07:43:34.512Z</time></trkpt><trkpt lat="43.3466833" lon="12.6307028"><ele>703.0</ele><time>2026-04-25T07:43:36.507Z</time></trkpt><trkpt lat="43.3466176" lon="12.6305871"><ele>703.0</ele><time>2026-04-25T07:43:38.511Z</time></trkpt><trkpt lat="43.3465862" lon="12.6304987"><ele>703.0</ele><time>2026-04-25T07:43:39.509Z</time></trkpt><trkpt lat="43.3465593" lon="12.6304124"><ele>703.0</ele><time>2026-04-25T07:43:40.51Z</time></trkpt><trkpt lat="43.3465292" lon="12.630275"><ele>702.2857142857142</ele><time>2026-04-25T07:43:42.511Z</time></trkpt><trkpt lat="43.3465149" lon="12.6301479"><ele>701.5714285714286</ele><time>2026-04-25T07:43:45.51Z</time></trkpt><trkpt lat="43.3464986" lon="12.6300569"><ele>700.8571428571429</ele><time>2026-04-25T07:43:56.507Z</time></trkpt><trkpt lat="43.3464573" lon="12.6299874"><ele>700.1428571428571</ele><time>2026-04-25T07:45:45.502Z</time></trkpt><trkpt lat="43.3463957" lon="12.629914"><ele>699.4285714285714</ele><time>2026-04-25T07:45:56.506Z</time></trkpt><trkpt lat="43.3463301" lon="12.6298805"><ele>698.7142857142857</ele><time>2026-04-25T07:46:08.512Z</time></trkpt><trkpt lat="43.3462634" lon="12.6299139"><ele>698.0</ele><time>2026-04-25T07:46:10.506Z</time></trkpt><trkpt lat="43.3461673" lon="12.6299369"><ele>703.4</ele><time>2026-04-25T07:46:12.517Z</time></trkpt><trkpt lat="43.3460761" lon="12.6299616"><ele>708.8</ele><time>2026-04-25T07:46:14.511Z</time></trkpt><trkpt lat="43.3459994" lon="12.6300104"><ele>714.2</ele><time>2026-04-25T07:46:16.505Z</time></trkpt><trkpt lat="43.3459127" lon="12.6300383"><ele>719.6</ele><time>2026-04-25T07:46:18.507Z</time></trkpt><trkpt lat="43.345816" lon="12.630009"><ele>725.0</ele><time>2026-04-25T07:46:20.513Z</time></trkpt><trkpt lat="43.3457506" lon="12.6299145"><ele>725.0</ele><time>2026-04-25T07:46:22.505Z</time></trkpt><trkpt lat="43.3457037" lon="12.6297992"><ele>725.0</ele><time>2026-04-25T07:46:24.515Z</time></trkpt><trkpt lat="43.3456581" lon="12.6296801"><ele>725.0</ele><time>2026-04-25T07:46:26.515Z</time></trkpt><trkpt lat="43.3455751" lon="12.6295935"><ele>725.0</ele><time>2026-04-25T07:46:28.512Z</time></trkpt><trkpt lat="43.3455069" lon="12.6295753"><ele>725.0</ele><time>2026-04-25T07:46:30.508Z</time></trkpt><trkpt lat="43.3454597" lon="12.6296432"><ele>725.0</ele><time>2026-04-25T07:46:41.505Z</time></trkpt><trkpt lat="43.3453931" lon="12.6297823"><ele>727.5</ele><time>2026-04-25T07:46:43.514Z</time></trkpt><trkpt lat="43.3453501" lon="12.6298662"><ele>730.0</ele><time>2026-04-25T07:46:44.51Z</time></trkpt><trkpt lat="43.3452652" lon="12.6299542"><ele>732.5</ele><time>2026-04-25T07:46:46.514Z</time></trkpt><trkpt lat="43.3451666" lon="12.6299925"><ele>735.0</ele><time>2026-04-25T07:46:48.504Z</time></trkpt><trkpt lat="43.3450924" lon="12.6299847"><ele>737.5</ele><time>2026-04-25T07:46:50.512Z</time></trkpt><trkpt lat="43.3450142" lon="12.6299875"><ele>740.0</ele><time>2026-04-25T07:46:52.513Z</time></trkpt><trkpt lat="43.3449216" lon="12.6300195"><ele>740.0</ele><time>2026-04-25T07:46:54.515Z</time></trkpt><trkpt lat="43.3448138" lon="12.6300947"><ele>740.0</ele><time>2026-04-25T07:46:56.509Z</time></trkpt><trkpt lat="43.3447507" lon="12.6301432"><ele>740.0</ele><time>2026-04-25T07:46:57.513Z</time></trkpt><trkpt lat="43.344687" lon="12.6301911"><ele>740.0</ele><time>2026-04-25T07:46:58.513Z</time></trkpt><trkpt lat="43.3446289" lon="12.630233"><ele>740.0</ele><time>2026-04-25T07:46:59.51Z</time></trkpt><trkpt lat="43.3445387" lon="12.6303373"><ele>740.0</ele><time>2026-04-25T07:47:01.512Z</time></trkpt><trkpt lat="43.3444964" lon="12.6304143"><ele>742.1666666666666</ele><time>2026-04-25T07:47:02.512Z</time></trkpt><trkpt lat="43.3444449" lon="12.6304912"><ele>744.3333333333333</ele><time>2026-04-25T07:47:03.511Z</time></trkpt><trkpt lat="43.344385" lon="12.6305685"><ele>746.5</ele><time>2026-04-25T07:47:04.503Z</time></trkpt><trkpt lat="43.3443234" lon="12.6306525"><ele>748.6666666666666</ele><time>2026-04-25T07:47:05.514Z</time></trkpt><trkpt lat="43.3442709" lon="12.6307388"><ele>750.8333333333334</ele><time>2026-04-25T07:47:06.511Z</time></trkpt><trkpt lat="43.3442316" lon="12.630837"><ele>753.0</ele><time>2026-04-25T07:47:07.506Z</time></trkpt><trkpt lat="43.3442039" lon="12.6309492"><ele>753.0</ele><time>2026-04-25T07:47:08.507Z</time></trkpt><trkpt lat="43.3441832" lon="12.6310811"><ele>753.0</ele><time>2026-04-25T07:47:09.514Z</time></trkpt><trkpt lat="43.3441644" lon="12.6312183"><ele>753.0</ele><time>2026-04-25T07:47:10.506Z</time></trkpt><trkpt lat="43.3441483" lon="12.6313375"><ele>753.0</ele><time>2026-04-25T07:47:11.511Z</time></trkpt><trkpt lat="43.3441316" lon="12.6314429"><ele>753.0</ele><time>2026-04-25T07:47:12.517Z</time></trkpt><trkpt lat="43.344099" lon="12.6315406"><ele>753.0</ele><time>2026-04-25T07:47:13.512Z</time></trkpt><trkpt lat="43.3440544" lon="12.6316371"><ele>753.0</ele><time>2026-04-25T07:47:14.512Z</time></trkpt><trkpt lat="43.3439975" lon="12.6317335"><ele>753.0</ele><time>2026-04-25T07:47:15.513Z</time></trkpt><trkpt lat="43.3439277" lon="12.6318262"><ele>753.0</ele><time>2026-04-25T07:47:16.504Z</time></trkpt><trkpt lat="43.3438552" lon="12.6319152"><ele>753.0</ele><time>2026-04-25T07:47:17.503Z</time></trkpt><trkpt lat="43.3437934" lon="12.6320075"><ele>753.0</ele><time>2026-04-25T07:47:18.51Z</time></trkpt><trkpt lat="43.3437363" lon="12.6321048"><ele>753.0</ele><time>2026-04-25T07:47:19.5Z</time></trkpt><trkpt lat="43.3436925" lon="12.6322057"><ele>753.0</ele><time>2026-04-25T07:47:20.51Z</time></trkpt><trkpt lat="43.3436624" lon="12.6323136"><ele>753.0</ele><time>2026-04-25T07:47:21.51Z</time></trkpt><trkpt lat="43.3436367" lon="12.6324306"><ele>753.0</ele><time>2026-04-25T07:47:22.514Z</time></trkpt><trkpt lat="43.3436151" lon="12.632556"><ele>753.0</ele><time>2026-04-25T07:47:23.51Z</time></trkpt><trkpt lat="43.3436008" lon="12.6326872"><ele>753.0</ele><time>2026-04-25T07:47:24.511Z</time></trkpt><trkpt lat="43.3435884" lon="12.6328139"><ele>755.0</ele><time>2026-04-25T07:47:25.513Z</time></trkpt><trkpt lat="43.3435669" lon="12.6329232"><ele>757.0</ele><time>2026-04-25T07:47:26.507Z</time></trkpt><trkpt lat="43.3435355" lon="12.6330171"><ele>759.0</ele><time>2026-04-25T07:47:27.512Z</time></trkpt><trkpt lat="43.3434897" lon="12.6331023"><ele>761.0</ele><time>2026-04-25T07:47:28.512Z</time></trkpt><trkpt lat="43.3434251" lon="12.6331871"><ele>763.0</ele><time>2026-04-25T07:47:29.509Z</time></trkpt><trkpt lat="43.3433504" lon="12.6332705"><ele>765.0</ele><time>2026-04-25T07:47:30.504Z</time></trkpt><trkpt lat="43.3432749" lon="12.6333438"><ele>765.0</ele><time>2026-04-25T07:47:31.509Z</time></trkpt><trkpt lat="43.3432063" lon="12.633413"><ele>765.0</ele><time>2026-04-25T07:47:32.511Z</time></trkpt><trkpt lat="43.3431455" lon="12.6334795"><ele>765.0</ele><time>2026-04-25T07:47:33.51Z</time></trkpt><trkpt lat="43.3430923" lon="12.6335414"><ele>765.0</ele><time>2026-04-25T07:47:34.506Z</time></trkpt><trkpt lat="43.3430415" lon="12.6335999"><ele>765.0</ele><time>2026-04-25T07:47:35.51Z</time></trkpt><trkpt lat="43.3429543" lon="12.6337061"><ele>765.0</ele><time>2026-04-25T07:47:37.498Z</time></trkpt><trkpt lat="43.3429021" lon="12.6338567"><ele>764.5</ele><time>2026-04-25T07:47:39.503Z</time></trkpt><trkpt lat="43.3428829" lon="12.6339465"><ele>764.0</ele><time>2026-04-25T07:47:40.507Z</time></trkpt><trkpt lat="43.3428591" lon="12.6340465"><ele>763.5</ele><time>2026-04-25T07:47:41.511Z</time></trkpt><trkpt lat="43.3428284" lon="12.6341426"><ele>763.0</ele><time>2026-04-25T07:47:42.516Z</time></trkpt><trkpt lat="43.3427854" lon="12.6342307"><ele>762.5</ele><time>2026-04-25T07:47:43.511Z</time></trkpt><trkpt lat="43.3427343" lon="12.6343117"><ele>762.0</ele><time>2026-04-25T07:47:44.504Z</time></trkpt><trkpt lat="43.3426745" lon="12.6343751"><ele>762.0</ele><time>2026-04-25T07:47:45.512Z</time></trkpt><trkpt lat="43.3426037" lon="12.6344261"><ele>762.0</ele><time>2026-04-25T07:47:46.512Z</time></trkpt><trkpt lat="43.3425217" lon="12.6344613"><ele>762.0</ele><time>2026-04-25T07:47:47.513Z</time></trkpt><trkpt lat="43.3424346" lon="12.6344913"><ele>762.0</ele><time>2026-04-25T07:47:48.504Z</time></trkpt><trkpt lat="43.3423464" lon="12.6345179"><ele>762.0</ele><time>2026-04-25T07:47:49.511Z</time></trkpt><trkpt lat="43.3422561" lon="12.6345476"><ele>762.0</ele><time>2026-04-25T07:47:50.503Z</time></trkpt><trkpt lat="43.3421681" lon="12.634575"><ele>765.5</ele><time>2026-04-25T07:47:51.515Z</time></trkpt><trkpt lat="43.3420804" lon="12.6345908"><ele>769.0</ele><time>2026-04-25T07:47:52.503Z</time></trkpt><trkpt lat="43.3419936" lon="12.63459"><ele>772.5</ele><time>2026-04-25T07:47:53.505Z</time></trkpt><trkpt lat="43.3419042" lon="12.6345661"><ele>776.0</ele><time>2026-04-25T07:47:54.516Z</time></trkpt><trkpt lat="43.3418143" lon="12.6345431"><ele>779.5</ele><time>2026-04-25T07:47:55.504Z</time></trkpt><trkpt lat="43.3417294" lon="12.634542"><ele>783.0</ele><time>2026-04-25T07:47:56.506Z</time></trkpt><trkpt lat="43.3416439" lon="12.6345486"><ele>783.0</ele><time>2026-04-25T07:47:57.507Z</time></trkpt><trkpt lat="43.3415557" lon="12.6345559"><ele>783.0</ele><time>2026-04-25T07:47:58.508Z</time></trkpt><trkpt lat="43.3414671" lon="12.6345677"><ele>783.0</ele><time>2026-04-25T07:47:59.512Z</time></trkpt><trkpt lat="43.341379" lon="12.634591"><ele>783.0</ele><time>2026-04-25T07:48:00.509Z</time></trkpt><trkpt lat="43.3412963" lon="12.6346339"><ele>783.0</ele><time>2026-04-25T07:48:01.512Z</time></trkpt><trkpt lat="43.3412203" lon="12.6346818"><ele>783.0</ele><time>2026-04-25T07:48:02.511Z</time></trkpt><trkpt lat="43.3411521" lon="12.6347276"><ele>780.2</ele><time>2026-04-25T07:48:03.505Z</time></trkpt><trkpt lat="43.3410518" lon="12.6348087"><ele>777.4</ele><time>2026-04-25T07:48:05.512Z</time></trkpt><trkpt lat="43.3409983" lon="12.6349404"><ele>774.6</ele><time>2026-04-25T07:48:07.513Z</time></trkpt><trkpt lat="43.3409931" lon="12.6350313"><ele>771.8000000000001</ele><time>2026-04-25T07:48:08.504Z</time></trkpt><trkpt lat="43.341003" lon="12.6351364"><ele>769.0</ele><time>2026-04-25T07:48:09.511Z</time></trkpt><trkpt lat="43.3410314" lon="12.6352605"><ele>769.0</ele><time>2026-04-25T07:48:10.514Z</time></trkpt><trkpt lat="43.3410556" lon="12.6353925"><ele>769.0</ele><time>2026-04-25T07:48:11.505Z</time></trkpt><trkpt lat="43.341067" lon="12.635533"><ele>769.0</ele><time>2026-04-25T07:48:12.512Z</time></trkpt><trkpt lat="43.3410671" lon="12.6356689"><ele>769.0</ele><time>2026-04-25T07:48:13.51Z</time></trkpt><trkpt lat="43.3410569" lon="12.6357968"><ele>769.0</ele><time>2026-04-25T07:48:14.511Z</time></trkpt><trkpt lat="43.3410398" lon="12.6359066"><ele>768.9999999999999</ele><time>2026-04-25T07:48:15.507Z</time></trkpt><trkpt lat="43.3410169" lon="12.6359994"><ele>769.0</ele><time>2026-04-25T07:48:16.509Z</time></trkpt><trkpt lat="43.3409788" lon="12.6360901"><ele>769.0</ele><time>2026-04-25T07:48:17.511Z</time></trkpt><trkpt lat="43.3409255" lon="12.6361792"><ele>769.0</ele><time>2026-04-25T07:48:18.511Z</time></trkpt><trkpt lat="43.3408724" lon="12.6362689"><ele>768.9999999999999</ele><time>2026-04-25T07:48:19.508Z</time></trkpt><trkpt lat="43.3408316" lon="12.6363497"><ele>769.0</ele><time>2026-04-25T07:48:20.507Z</time></trkpt><trkpt lat="43.3408107" lon="12.6364324"><ele>770.6</ele><time>2026-04-25T07:48:21.512Z</time></trkpt><trkpt lat="43.3407821" lon="12.6366069"><ele>772.2</ele><time>2026-04-25T07:48:23.512Z</time></trkpt><trkpt lat="43.34076" lon="12.6367169"><ele>773.8000000000001</ele><time>2026-04-25T07:48:24.512Z</time></trkpt><trkpt lat="43.3407126" lon="12.6368225"><ele>775.4000000000001</ele><time>2026-04-25T07:48:25.507Z</time></trkpt><trkpt lat="43.340648" lon="12.6369216"><ele>777.0</ele><time>2026-04-25T07:48:26.507Z</time></trkpt><trkpt lat="43.3405838" lon="12.637012"><ele>775.0</ele><time>2026-04-25T07:48:27.508Z</time></trkpt><trkpt lat="43.3405315" lon="12.637086"><ele>773.0</ele><time>2026-04-25T07:48:28.507Z</time></trkpt><trkpt lat="43.3404566" lon="12.6371907"><ele>771.0</ele><time>2026-04-25T07:48:30.515Z</time></trkpt><trkpt lat="43.3403893" lon="12.6371745"><ele>769.0</ele><time>2026-04-25T07:48:32.516Z</time></trkpt><trkpt lat="43.3403685" lon="12.637068"><ele>767.0</ele><time>2026-04-25T07:48:34.515Z</time></trkpt><trkpt lat="43.3404344" lon="12.63693"><ele>766.0</ele><time>2026-04-25T07:48:36.515Z</time></trkpt><trkpt lat="43.3404799" lon="12.636859"><ele>765.0</ele><time>2026-04-25T07:48:37.51Z</time></trkpt><trkpt lat="43.3405164" lon="12.6367693"><ele>764.0</ele><time>2026-04-25T07:48:38.505Z</time></trkpt><trkpt lat="43.3405415" lon="12.6366645"><ele>763.0</ele><time>2026-04-25T07:48:39.513Z</time></trkpt><trkpt lat="43.3405576" lon="12.6365495"><ele>762.0</ele><time>2026-04-25T07:48:40.516Z</time></trkpt><trkpt lat="43.3405651" lon="12.6364244"><ele>761.0</ele><time>2026-04-25T07:48:41.511Z</time></trkpt><trkpt lat="43.3405682" lon="12.6363032"><ele>762.3333333333333</ele><time>2026-04-25T07:48:42.517Z</time></trkpt><trkpt lat="43.34057" lon="12.6361799"><ele>763.6666666666666</ele><time>2026-04-25T07:48:43.507Z</time></trkpt><trkpt lat="43.3405651" lon="12.6360589"><ele>765.0</ele><time>2026-04-25T07:48:44.51Z</time></trkpt><trkpt lat="43.3405644" lon="12.6359435"><ele>766.3333333333333</ele><time>2026-04-25T07:48:45.515Z</time></trkpt><trkpt lat="43.3405622" lon="12.635826"><ele>767.6666666666666</ele><time>2026-04-25T07:48:46.514Z</time></trkpt><trkpt lat="43.3405653" lon="12.6357209"><ele>769.0</ele><time>2026-04-25T07:48:47.515Z</time></trkpt><trkpt lat="43.3405701" lon="12.6356241"><ele>768.9999999999999</ele><time>2026-04-25T07:48:48.513Z</time></trkpt><trkpt lat="43.3405726" lon="12.6354848"><ele>769.0</ele><time>2026-04-25T07:48:50.514Z</time></trkpt><trkpt lat="43.3404736" lon="12.6354552"><ele>769.0</ele><time>2026-04-25T07:48:53.509Z</time></trkpt><trkpt lat="43.3403967" lon="12.6355643"><ele>769.0</ele><time>2026-04-25T07:48:55.511Z</time></trkpt><trkpt lat="43.3403568" lon="12.63564"><ele>768.9999999999999</ele><time>2026-04-25T07:48:56.509Z</time></trkpt><trkpt lat="43.3403153" lon="12.6357066"><ele>769.0</ele><time>2026-04-25T07:48:57.51Z</time></trkpt><trkpt lat="43.34022" lon="12.6357644"><ele>765.4999999999999</ele><time>2026-04-25T07:48:59.508Z</time></trkpt><trkpt lat="43.3401316" lon="12.6357141"><ele>762.0</ele><time>2026-04-25T07:49:01.511Z</time></trkpt><trkpt lat="43.3400675" lon="12.6356268"><ele>758.5</ele><time>2026-04-25T07:49:03.51Z</time></trkpt><trkpt lat="43.3400422" lon="12.6355174"><ele>755.0</ele><time>2026-04-25T07:49:05.511Z</time></trkpt><trkpt lat="43.3400382" lon="12.6354012"><ele>751.5</ele><time>2026-04-25T07:49:08.509Z</time></trkpt><trkpt lat="43.3400213" lon="12.6353024"><ele>748.0</ele><time>2026-04-25T07:49:11.511Z</time></trkpt><trkpt lat="43.339961" lon="12.6352673"><ele>748.0</ele><time>2026-04-25T07:49:14.51Z</time></trkpt><trkpt lat="43.3399096" lon="12.6353272"><ele>748.0</ele><time>2026-04-25T07:49:16.509Z</time></trkpt><trkpt lat="43.3398759" lon="12.6354011"><ele>748.0</ele><time>2026-04-25T07:49:17.509Z</time></trkpt><trkpt lat="43.3398362" lon="12.6354896"><ele>748.0</ele><time>2026-04-25T07:49:18.511Z</time></trkpt><trkpt lat="43.3397902" lon="12.6355698"><ele>748.0</ele><time>2026-04-25T07:49:19.514Z</time></trkpt><trkpt lat="43.3397317" lon="12.6356403"><ele>748.0</ele><time>2026-04-25T07:49:20.501Z</time></trkpt><trkpt lat="43.3396588" lon="12.6356968"><ele>748.0</ele><time>2026-04-25T07:49:21.508Z</time></trkpt><trkpt lat="43.3395653" lon="12.635719"><ele>744.5999999999999</ele><time>2026-04-25T07:49:22.502Z</time></trkpt><trkpt lat="43.3394617" lon="12.6357025"><ele>741.1999999999999</ele><time>2026-04-25T07:49:23.501Z</time></trkpt><trkpt lat="43.3393687" lon="12.6356689"><ele>737.8</ele><time>2026-04-25T07:49:24.506Z</time></trkpt><trkpt lat="43.3392834" lon="12.6356193"><ele>734.4</ele><time>2026-04-25T07:49:25.509Z</time></trkpt><trkpt lat="43.3392148" lon="12.6355767"><ele>731.0</ele><time>2026-04-25T07:49:26.503Z</time></trkpt><trkpt lat="43.3391006" lon="12.6355851"><ele>731.0</ele><time>2026-04-25T07:49:28.504Z</time></trkpt><trkpt lat="43.3390506" lon="12.6356452"><ele>731.0</ele><time>2026-04-25T07:49:29.511Z</time></trkpt><trkpt lat="43.3390087" lon="12.6357433"><ele>731.0</ele><time>2026-04-25T07:49:30.511Z</time></trkpt><trkpt lat="43.3389799" lon="12.6358694"><ele>731.0</ele><time>2026-04-25T07:49:31.509Z</time></trkpt><trkpt lat="43.3389594" lon="12.6360052"><ele>731.0</ele><time>2026-04-25T07:49:32.514Z</time></trkpt><trkpt lat="43.3389451" lon="12.6361388"><ele>731.0</ele><time>2026-04-25T07:49:33.51Z</time></trkpt><trkpt lat="43.3389436" lon="12.6362822"><ele>730.1666666666666</ele><time>2026-04-25T07:49:34.507Z</time></trkpt><trkpt lat="43.338936" lon="12.6364204"><ele>729.3333333333333</ele><time>2026-04-25T07:49:35.503Z</time></trkpt><trkpt lat="43.338922" lon="12.6365379"><ele>728.5</ele><time>2026-04-25T07:49:36.513Z</time></trkpt><trkpt lat="43.338888" lon="12.6366266"><ele>727.6666666666666</ele><time>2026-04-25T07:49:37.512Z</time></trkpt><trkpt lat="43.3388199" lon="12.636685"><ele>726.8333333333334</ele><time>2026-04-25T07:49:38.512Z</time></trkpt><trkpt lat="43.3387175" lon="12.6367108"><ele>726.0</ele><time>2026-04-25T07:49:39.503Z</time></trkpt><trkpt lat="43.3385925" lon="12.6367144"><ele>726.0</ele><time>2026-04-25T07:49:40.511Z</time></trkpt><trkpt lat="43.3384691" lon="12.6367096"><ele>726.0</ele><time>2026-04-25T07:49:41.51Z</time></trkpt><trkpt lat="43.3383428" lon="12.6366717"><ele>726.0</ele><time>2026-04-25T07:49:42.515Z</time></trkpt><trkpt lat="43.3382229" lon="12.6366114"><ele>726.0</ele><time>2026-04-25T07:49:43.505Z</time></trkpt><trkpt lat="43.3381143" lon="12.6365307"><ele>724.5</ele><time>2026-04-25T07:49:44.507Z</time></trkpt><trkpt lat="43.3380163" lon="12.6364578"><ele>723.0</ele><time>2026-04-25T07:49:45.513Z</time></trkpt><trkpt lat="43.3379229" lon="12.6364033"><ele>721.5</ele><time>2026-04-25T07:49:46.509Z</time></trkpt><trkpt lat="43.3378403" lon="12.636367"><ele>720.0</ele><time>2026-04-25T07:49:47.51Z</time></trkpt><trkpt lat="43.337767" lon="12.6363522"><ele>718.5</ele><time>2026-04-25T07:49:48.511Z</time></trkpt><trkpt lat="43.3377008" lon="12.6363654"><ele>717.0</ele><time>2026-04-25T07:49:49.512Z</time></trkpt><trkpt lat="43.3376046" lon="12.6364788"><ele>717.0</ele><time>2026-04-25T07:49:51.506Z</time></trkpt><trkpt lat="43.3375627" lon="12.6365709"><ele>717.0</ele><time>2026-04-25T07:49:52.512Z</time></trkpt><trkpt lat="43.337521" lon="12.6367012"><ele>717.0</ele><time>2026-04-25T07:49:53.504Z</time></trkpt><trkpt lat="43.3374657" lon="12.6368208"><ele>717.0</ele><time>2026-04-25T07:49:54.515Z</time></trkpt><trkpt lat="43.3373929" lon="12.6368942"><ele>717.0</ele><time>2026-04-25T07:49:55.507Z</time></trkpt><trkpt lat="43.3373031" lon="12.6369289"><ele>716.0</ele><time>2026-04-25T07:49:56.512Z</time></trkpt><trkpt lat="43.3372121" lon="12.6369165"><ele>715.0</ele><time>2026-04-25T07:49:57.512Z</time></trkpt><trkpt lat="43.3371199" lon="12.6368554"><ele>714.0</ele><time>2026-04-25T07:49:58.506Z</time></trkpt><trkpt lat="43.3370167" lon="12.6367689"><ele>713.0</ele><time>2026-04-25T07:49:59.511Z</time></trkpt><trkpt lat="43.3369091" lon="12.6366871"><ele>712.0</ele><time>2026-04-25T07:50:00.514Z</time></trkpt><trkpt lat="43.3368126" lon="12.6366204"><ele>712.0</ele><time>2026-04-25T07:50:01.508Z</time></trkpt><trkpt lat="43.336722" lon="12.6365623"><ele>712.0</ele><time>2026-04-25T07:50:02.514Z</time></trkpt><trkpt lat="43.336639" lon="12.6365194"><ele>712.0</ele><time>2026-04-25T07:50:03.507Z</time></trkpt><trkpt lat="43.336557" lon="12.6365005"><ele>712.0</ele><time>2026-04-25T07:50:04.508Z</time></trkpt><trkpt lat="43.3364804" lon="12.6365117"><ele>712.0</ele><time>2026-04-25T07:50:05.508Z</time></trkpt><trkpt lat="43.3364147" lon="12.6365585"><ele>712.0</ele><time>2026-04-25T07:50:06.506Z</time></trkpt><trkpt lat="43.3363607" lon="12.6366255"><ele>711.0</ele><time>2026-04-25T07:50:07.513Z</time></trkpt><trkpt lat="43.3363226" lon="12.6366981"><ele>710.0</ele><time>2026-04-25T07:50:08.508Z</time></trkpt><trkpt lat="43.3362925" lon="12.6367822"><ele>709.0</ele><time>2026-04-25T07:50:09.513Z</time></trkpt><trkpt lat="43.3362619" lon="12.636892"><ele>708.0</ele><time>2026-04-25T07:50:10.504Z</time></trkpt><trkpt lat="43.3362348" lon="12.6370291"><ele>707.0</ele><time>2026-04-25T07:50:11.503Z</time></trkpt><trkpt lat="43.3362028" lon="12.6371691"><ele>706.0</ele><time>2026-04-25T07:50:12.514Z</time></trkpt><trkpt lat="43.3361665" lon="12.6372935"><ele>706.0</ele><time>2026-04-25T07:50:13.501Z</time></trkpt><trkpt lat="43.3361155" lon="12.6373831"><ele>706.0</ele><time>2026-04-25T07:50:14.512Z</time></trkpt><trkpt lat="43.336046" lon="12.6374436"><ele>706.0</ele><time>2026-04-25T07:50:15.512Z</time></trkpt><trkpt lat="43.3359748" lon="12.6374712"><ele>706.0</ele><time>2026-04-25T07:50:16.514Z</time></trkpt><trkpt lat="43.3358737" lon="12.6375207"><ele>706.0</ele><time>2026-04-25T07:50:18.506Z</time></trkpt><trkpt lat="43.3358536" lon="12.6376897"><ele>706.0</ele><time>2026-04-25T07:50:20.506Z</time></trkpt><trkpt lat="43.3358727" lon="12.6378075"><ele>706.0</ele><time>2026-04-25T07:50:21.512Z</time></trkpt><trkpt lat="43.3359045" lon="12.6379428"><ele>706.0</ele><time>2026-04-25T07:50:22.516Z</time></trkpt><trkpt lat="43.3359383" lon="12.6381043"><ele>706.0</ele><time>2026-04-25T07:50:23.512Z</time></trkpt><trkpt lat="43.3359734" lon="12.6382819"><ele>706.0</ele><time>2026-04-25T07:50:24.512Z</time></trkpt><trkpt lat="43.3360054" lon="12.6384539"><ele>706.0</ele><time>2026-04-25T07:50:25.512Z</time></trkpt><trkpt lat="43.3360271" lon="12.6386297"><ele>706.0</ele><time>2026-04-25T07:50:26.506Z</time></trkpt><trkpt lat="43.3360398" lon="12.638797"><ele>706.0</ele><time>2026-04-25T07:50:27.51Z</time></trkpt><trkpt lat="43.336045" lon="12.6389526"><ele>706.0</ele><time>2026-04-25T07:50:28.512Z</time></trkpt><trkpt lat="43.3360331" lon="12.6391036"><ele>706.1666666666667</ele><time>2026-04-25T07:50:29.509Z</time></trkpt><trkpt lat="43.3359979" lon="12.6392469"><ele>706.3333333333334</ele><time>2026-04-25T07:50:30.511Z</time></trkpt><trkpt lat="43.3359514" lon="12.639358"><ele>706.5</ele><time>2026-04-25T07:50:31.511Z</time></trkpt><trkpt lat="43.335914" lon="12.6394421"><ele>706.6666666666666</ele><time>2026-04-25T07:50:32.515Z</time></trkpt><trkpt lat="43.3359247" lon="12.6395614"><ele>706.8333333333333</ele><time>2026-04-25T07:50:34.512Z</time></trkpt><trkpt lat="43.3359844" lon="12.6396017"><ele>707.0</ele><time>2026-04-25T07:50:35.51Z</time></trkpt><trkpt lat="43.3360722" lon="12.6396295"><ele>707.0</ele><time>2026-04-25T07:50:36.51Z</time></trkpt><trkpt lat="43.3361844" lon="12.6396457"><ele>707.0</ele><time>2026-04-25T07:50:37.508Z</time></trkpt><trkpt lat="43.3363289" lon="12.6396693"><ele>707.0</ele><time>2026-04-25T07:50:38.509Z</time></trkpt><trkpt lat="43.3364782" lon="12.6397022"><ele>707.0</ele><time>2026-04-25T07:50:39.51Z</time></trkpt><trkpt lat="43.3366125" lon="12.6397422"><ele>709.2</ele><time>2026-04-25T07:50:40.513Z</time></trkpt><trkpt lat="43.3367155" lon="12.639805"><ele>711.4000000000001</ele><time>2026-04-25T07:50:41.501Z</time></trkpt><trkpt lat="43.3367919" lon="12.6399075"><ele>713.5999999999999</ele><time>2026-04-25T07:50:42.503Z</time></trkpt><trkpt lat="43.3368403" lon="12.6400301"><ele>715.8</ele><time>2026-04-25T07:50:43.504Z</time></trkpt><trkpt lat="43.3368524" lon="12.6401836"><ele>718.0</ele><time>2026-04-25T07:50:44.511Z</time></trkpt><trkpt lat="43.3368338" lon="12.6403656"><ele>718.0</ele><time>2026-04-25T07:50:45.508Z</time></trkpt><trkpt lat="43.3367974" lon="12.6405462"><ele>718.0</ele><time>2026-04-25T07:50:46.512Z</time></trkpt><trkpt lat="43.33676" lon="12.6407012"><ele>718.0</ele><time>2026-04-25T07:50:47.509Z</time></trkpt><trkpt lat="43.3367431" lon="12.6408218"><ele>718.0</ele><time>2026-04-25T07:50:48.511Z</time></trkpt><trkpt lat="43.3368173" lon="12.6409652"><ele>718.0</ele><time>2026-04-25T07:50:50.51Z</time></trkpt><trkpt lat="43.3369031" lon="12.641033"><ele>718.0</ele><time>2026-04-25T07:50:51.507Z</time></trkpt><trkpt lat="43.3370057" lon="12.6410857"><ele>718.0</ele><time>2026-04-25T07:50:52.51Z</time></trkpt><trkpt lat="43.3371056" lon="12.6411438"><ele>718.0</ele><time>2026-04-25T07:50:53.51Z</time></trkpt><trkpt lat="43.3372001" lon="12.6412194"><ele>718.0</ele><time>2026-04-25T07:50:54.511Z</time></trkpt><trkpt lat="43.3372905" lon="12.6413213"><ele>722.8</ele><time>2026-04-25T07:50:55.507Z</time></trkpt><trkpt lat="43.3373685" lon="12.6414477"><ele>727.5999999999999</ele><time>2026-04-25T07:50:56.504Z</time></trkpt><trkpt lat="43.3374339" lon="12.6415733"><ele>732.4000000000001</ele><time>2026-04-25T07:50:57.503Z</time></trkpt><trkpt lat="43.3374731" lon="12.6416833"><ele>737.2</ele><time>2026-04-25T07:50:58.508Z</time></trkpt><trkpt lat="43.3374857" lon="12.6418067"><ele>742.0</ele><time>2026-04-25T07:50:59.51Z</time></trkpt><trkpt lat="43.3374749" lon="12.6419426"><ele>744.2</ele><time>2026-04-25T07:51:00.511Z</time></trkpt><trkpt lat="43.3374377" lon="12.6420694"><ele>746.4000000000001</ele><time>2026-04-25T07:51:01.506Z</time></trkpt><trkpt lat="43.3373715" lon="12.6421869"><ele>748.5999999999999</ele><time>2026-04-25T07:51:02.512Z</time></trkpt><trkpt lat="43.3372961" lon="12.6422685"><ele>750.8</ele><time>2026-04-25T07:51:03.506Z</time></trkpt><trkpt lat="43.3372249" lon="12.6423402"><ele>753.0</ele><time>2026-04-25T07:51:04.501Z</time></trkpt><trkpt lat="43.3371537" lon="12.6424064"><ele>747.5999999999999</ele><time>2026-04-25T07:51:05.501Z</time></trkpt><trkpt lat="43.3370924" lon="12.6424931"><ele>742.1999999999999</ele><time>2026-04-25T07:51:06.509Z</time></trkpt><trkpt lat="43.3370426" lon="12.6426096"><ele>736.8</ele><time>2026-04-25T07:51:07.509Z</time></trkpt><trkpt lat="43.3369949" lon="12.6427673"><ele>731.4</ele><time>2026-04-25T07:51:08.51Z</time></trkpt><trkpt lat="43.3369493" lon="12.6429277"><ele>726.0</ele><time>2026-04-25T07:51:09.509Z</time></trkpt><trkpt lat="43.336903" lon="12.6430839"><ele>726.0</ele><time>2026-04-25T07:51:10.513Z</time></trkpt><trkpt lat="43.3368712" lon="12.6431949"><ele>726.0</ele><time>2026-04-25T07:51:11.511Z</time></trkpt><trkpt lat="43.336873" lon="12.6433031"><ele>726.0</ele><time>2026-04-25T07:51:12.508Z</time></trkpt><trkpt lat="43.3368999" lon="12.6434006"><ele>726.0</ele><time>2026-04-25T07:51:13.512Z</time></trkpt><trkpt lat="43.3369559" lon="12.6434991"><ele>726.0</ele><time>2026-04-25T07:51:14.511Z</time></trkpt><trkpt lat="43.3370215" lon="12.6435919"><ele>726.0</ele><time>2026-04-25T07:51:15.512Z</time></trkpt><trkpt lat="43.3370817" lon="12.6436806"><ele>725.5</ele><time>2026-04-25T07:51:16.511Z</time></trkpt><trkpt lat="43.3371336" lon="12.6437707"><ele>725.0</ele><time>2026-04-25T07:51:17.515Z</time></trkpt><trkpt lat="43.3371704" lon="12.6438792"><ele>724.5</ele><time>2026-04-25T07:51:18.503Z</time></trkpt><trkpt lat="43.3371805" lon="12.6440037"><ele>724.0</ele><time>2026-04-25T07:51:19.514Z</time></trkpt><trkpt lat="43.3371604" lon="12.6441281"><ele>723.5</ele><time>2026-04-25T07:51:20.505Z</time></trkpt><trkpt lat="43.3371114" lon="12.644229"><ele>723.0</ele><time>2026-04-25T07:51:21.516Z</time></trkpt><trkpt lat="43.3370265" lon="12.6442998"><ele>723.0</ele><time>2026-04-25T07:51:22.505Z</time></trkpt><trkpt lat="43.3369274" lon="12.644354"><ele>723.0</ele><time>2026-04-25T07:51:23.511Z</time></trkpt><trkpt lat="43.3368389" lon="12.644407"><ele>723.0</ele><time>2026-04-25T07:51:24.512Z</time></trkpt><trkpt lat="43.3367669" lon="12.6444654"><ele>723.0</ele><time>2026-04-25T07:51:25.511Z</time></trkpt><trkpt lat="43.3367171" lon="12.6445259"><ele>723.0</ele><time>2026-04-25T07:51:26.509Z</time></trkpt><trkpt lat="43.3366975" lon="12.6446468"><ele>723.0</ele><time>2026-04-25T07:51:28.515Z</time></trkpt><trkpt lat="43.3367888" lon="12.644724"><ele>722.4</ele><time>2026-04-25T07:51:30.508Z</time></trkpt><trkpt lat="43.3368731" lon="12.6447604"><ele>721.8</ele><time>2026-04-25T07:51:31.51Z</time></trkpt><trkpt lat="43.3369708" lon="12.6448012"><ele>721.2</ele><time>2026-04-25T07:51:32.511Z</time></trkpt><trkpt lat="43.3370657" lon="12.6448493"><ele>720.6</ele><time>2026-04-25T07:51:33.507Z</time></trkpt><trkpt lat="43.3371493" lon="12.6448997"><ele>720.0</ele><time>2026-04-25T07:51:34.509Z</time></trkpt><trkpt lat="43.3372141" lon="12.6449505"><ele>720.6</ele><time>2026-04-25T07:51:35.502Z</time></trkpt><trkpt lat="43.3372677" lon="12.644998"><ele>721.2</ele><time>2026-04-25T07:51:36.502Z</time></trkpt><trkpt lat="43.3373663" lon="12.6450702"><ele>721.8</ele><time>2026-04-25T07:51:38.513Z</time></trkpt><trkpt lat="43.3374943" lon="12.6450836"><ele>722.4</ele><time>2026-04-25T07:51:40.51Z</time></trkpt><trkpt lat="43.3375741" lon="12.645073"><ele>723.0</ele><time>2026-04-25T07:51:41.502Z</time></trkpt><trkpt lat="43.3376579" lon="12.6450547"><ele>723.0</ele><time>2026-04-25T07:51:42.511Z</time></trkpt><trkpt lat="43.3377424" lon="12.6450292"><ele>723.0</ele><time>2026-04-25T07:51:43.509Z</time></trkpt><trkpt lat="43.3378299" lon="12.6450124"><ele>723.0</ele><time>2026-04-25T07:51:44.511Z</time></trkpt><trkpt lat="43.3379309" lon="12.6450162"><ele>723.0</ele><time>2026-04-25T07:51:45.505Z</time></trkpt><trkpt lat="43.3380428" lon="12.6450349"><ele>723.0</ele><time>2026-04-25T07:51:46.502Z</time></trkpt><trkpt lat="43.3381479" lon="12.6450545"><ele>721.8</ele><time>2026-04-25T07:51:47.511Z</time></trkpt><trkpt lat="43.3382443" lon="12.6450676"><ele>720.5999999999999</ele><time>2026-04-25T07:51:48.51Z</time></trkpt><trkpt lat="43.3383371" lon="12.6450764"><ele>719.4000000000001</ele><time>2026-04-25T07:51:49.51Z</time></trkpt><trkpt lat="43.3384293" lon="12.645083"><ele>718.2</ele><time>2026-04-25T07:51:50.513Z</time></trkpt><trkpt lat="43.338521" lon="12.6451007"><ele>717.0</ele><time>2026-04-25T07:51:51.502Z</time></trkpt><trkpt lat="43.3386125" lon="12.6451296"><ele>717.0</ele><time>2026-04-25T07:51:52.511Z</time></trkpt><trkpt lat="43.338699" lon="12.6451617"><ele>717.0</ele><time>2026-04-25T07:51:53.506Z</time></trkpt><trkpt lat="43.3387813" lon="12.6451917"><ele>717.0</ele><time>2026-04-25T07:51:54.504Z</time></trkpt><trkpt lat="43.3388602" lon="12.645213"><ele>717.0</ele><time>2026-04-25T07:51:55.504Z</time></trkpt><trkpt lat="43.3389325" lon="12.6452403"><ele>717.0</ele><time>2026-04-25T07:51:56.51Z</time></trkpt><trkpt lat="43.3389923" lon="12.6452827"><ele>717.0</ele><time>2026-04-25T07:51:57.51Z</time></trkpt><trkpt lat="43.3390415" lon="12.6453412"><ele>713.6666666666666</ele><time>2026-04-25T07:51:58.511Z</time></trkpt><trkpt lat="43.3390883" lon="12.6454247"><ele>710.3333333333334</ele><time>2026-04-25T07:51:59.509Z</time></trkpt><trkpt lat="43.3391338" lon="12.6455196"><ele>707.0</ele><time>2026-04-25T07:52:00.514Z</time></trkpt><trkpt lat="43.3391735" lon="12.6456218"><ele>703.6666666666667</ele><time>2026-04-25T07:52:01.511Z</time></trkpt><trkpt lat="43.3392036" lon="12.6457269"><ele>700.3333333333334</ele><time>2026-04-25T07:52:02.517Z</time></trkpt><trkpt lat="43.339232" lon="12.6458332"><ele>697.0</ele><time>2026-04-25T07:52:03.507Z</time></trkpt><trkpt lat="43.3392671" lon="12.6459307"><ele>697.0</ele><time>2026-04-25T07:52:04.507Z</time></trkpt><trkpt lat="43.3393161" lon="12.6460255"><ele>697.0</ele><time>2026-04-25T07:52:05.502Z</time></trkpt><trkpt lat="43.3393808" lon="12.6461104"><ele>697.0</ele><time>2026-04-25T07:52:06.513Z</time></trkpt><trkpt lat="43.3394565" lon="12.6461885"><ele>697.0</ele><time>2026-04-25T07:52:07.509Z</time></trkpt><trkpt lat="43.3395462" lon="12.6462571"><ele>697.0</ele><time>2026-04-25T07:52:08.515Z</time></trkpt><trkpt lat="43.3396409" lon="12.6463206"><ele>697.2</ele><time>2026-04-25T07:52:09.513Z</time></trkpt><trkpt lat="43.3397338" lon="12.6463754"><ele>697.4000000000001</ele><time>2026-04-25T07:52:10.512Z</time></trkpt><trkpt lat="43.3398259" lon="12.6464237"><ele>697.5999999999999</ele><time>2026-04-25T07:52:11.508Z</time></trkpt><trkpt lat="43.3399127" lon="12.6464641"><ele>697.8</ele><time>2026-04-25T07:52:12.511Z</time></trkpt><trkpt lat="43.3399925" lon="12.6465003"><ele>698.0</ele><time>2026-04-25T07:52:13.506Z</time></trkpt><trkpt lat="43.3400694" lon="12.6465311"><ele>698.0</ele><time>2026-04-25T07:52:14.514Z</time></trkpt><trkpt lat="43.3401466" lon="12.6465688"><ele>698.0</ele><time>2026-04-25T07:52:15.511Z</time></trkpt><trkpt lat="43.3402209" lon="12.646616"><ele>698.0</ele><time>2026-04-25T07:52:16.506Z</time></trkpt><trkpt lat="43.3402883" lon="12.6466733"><ele>698.0</ele><time>2026-04-25T07:52:17.511Z</time></trkpt><trkpt lat="43.3403444" lon="12.6467391"><ele>698.0</ele><time>2026-04-25T07:52:18.511Z</time></trkpt><trkpt lat="43.3403945" lon="12.6468113"><ele>698.0</ele><time>2026-04-25T07:52:19.512Z</time></trkpt><trkpt lat="43.340441" lon="12.6468866"><ele>696.6666666666666</ele><time>2026-04-25T07:52:20.513Z</time></trkpt><trkpt lat="43.3404839" lon="12.6469677"><ele>695.3333333333333</ele><time>2026-04-25T07:52:21.501Z</time></trkpt><trkpt lat="43.3405281" lon="12.6470472"><ele>694.0</ele><time>2026-04-25T07:52:22.514Z</time></trkpt><trkpt lat="43.3406113" lon="12.6471629"><ele>692.6666666666666</ele><time>2026-04-25T07:52:24.512Z</time></trkpt><trkpt lat="43.3406516" lon="12.6473156"><ele>691.3333333333334</ele><time>2026-04-25T07:52:26.511Z</time></trkpt><trkpt lat="43.3406453" lon="12.6474018"><ele>690.0</ele><time>2026-04-25T07:52:27.51Z</time></trkpt><trkpt lat="43.340622" lon="12.6474873"><ele>690.0</ele><time>2026-04-25T07:52:28.51Z</time></trkpt><trkpt lat="43.3405896" lon="12.6475805"><ele>690.0</ele><time>2026-04-25T07:52:29.508Z</time></trkpt><trkpt lat="43.3405544" lon="12.6476747"><ele>690.0</ele><time>2026-04-25T07:52:30.512Z</time></trkpt><trkpt lat="43.3405323" lon="12.6477673"><ele>690.0</ele><time>2026-04-25T07:52:31.51Z</time></trkpt><trkpt lat="43.3405369" lon="12.6478736"><ele>690.0</ele><time>2026-04-25T07:52:32.515Z</time></trkpt><trkpt lat="43.3405732" lon="12.6479744"><ele>690.0</ele><time>2026-04-25T07:52:33.514Z</time></trkpt><trkpt lat="43.3406266" lon="12.6480755"><ele>687.6666666666666</ele><time>2026-04-25T07:52:34.51Z</time></trkpt><trkpt lat="43.3406863" lon="12.6481715"><ele>685.3333333333334</ele><time>2026-04-25T07:52:35.507Z</time></trkpt><trkpt lat="43.3407504" lon="12.6482712"><ele>683.0</ele><time>2026-04-25T07:52:36.504Z</time></trkpt><trkpt lat="43.340809" lon="12.6483657"><ele>680.6666666666667</ele><time>2026-04-25T07:52:37.514Z</time></trkpt><trkpt lat="43.3408641" lon="12.6484495"><ele>678.3333333333334</ele><time>2026-04-25T07:52:38.506Z</time></trkpt><trkpt lat="43.3409156" lon="12.6485316"><ele>676.0</ele><time>2026-04-25T07:52:39.502Z</time></trkpt><trkpt lat="43.3409718" lon="12.6486094"><ele>674.4</ele><time>2026-04-25T07:52:40.509Z</time></trkpt><trkpt lat="43.3410326" lon="12.6486872"><ele>672.8</ele><time>2026-04-25T07:52:41.511Z</time></trkpt><trkpt lat="43.3411013" lon="12.6487643"><ele>671.1999999999999</ele><time>2026-04-25T07:52:42.507Z</time></trkpt><trkpt lat="43.3411769" lon="12.6488428"><ele>669.5999999999999</ele><time>2026-04-25T07:52:43.51Z</time></trkpt><trkpt lat="43.34126" lon="12.6489238"><ele>668.0</ele><time>2026-04-25T07:52:44.513Z</time></trkpt><trkpt lat="43.3413564" lon="12.6490032"><ele>668.0</ele><time>2026-04-25T07:52:45.512Z</time></trkpt><trkpt lat="43.3414649" lon="12.6490744"><ele>668.0</ele><time>2026-04-25T07:52:46.512Z</time></trkpt><trkpt lat="43.3415721" lon="12.6491463"><ele>668.0</ele><time>2026-04-25T07:52:47.511Z</time></trkpt><trkpt lat="43.3416644" lon="12.6492193"><ele>668.0</ele><time>2026-04-25T07:52:48.513Z</time></trkpt><trkpt lat="43.3417338" lon="12.6492832"><ele>668.0</ele><time>2026-04-25T07:52:49.514Z</time></trkpt><trkpt lat="43.3417908" lon="12.6493406"><ele>668.0</ele><time>2026-04-25T07:52:50.506Z</time></trkpt><trkpt lat="43.3418428" lon="12.6493898"><ele>668.0</ele><time>2026-04-25T07:52:51.515Z</time></trkpt><trkpt lat="43.3419442" lon="12.649457"><ele>668.0</ele><time>2026-04-25T07:52:53.512Z</time></trkpt><trkpt lat="43.3420589" lon="12.6495149"><ele>668.0</ele><time>2026-04-25T07:52:55.504Z</time></trkpt><trkpt lat="43.3421366" lon="12.649544"><ele>668.0</ele><time>2026-04-25T07:52:56.509Z</time></trkpt><trkpt lat="43.3422248" lon="12.64957"><ele>666.0</ele><time>2026-04-25T07:52:57.509Z</time></trkpt><trkpt lat="43.3423155" lon="12.6495926"><ele>664.0</ele><time>2026-04-25T07:52:58.514Z</time></trkpt><trkpt lat="43.342403" lon="12.6496126"><ele>662.0</ele><time>2026-04-25T07:52:59.511Z</time></trkpt><trkpt lat="43.3424845" lon="12.649628"><ele>660.0</ele><time>2026-04-25T07:53:00.511Z</time></trkpt><trkpt lat="43.3425583" lon="12.6496416"><ele>658.0</ele><time>2026-04-25T07:53:01.507Z</time></trkpt><trkpt lat="43.342631" lon="12.6496599"><ele>656.0</ele><time>2026-04-25T07:53:02.512Z</time></trkpt><trkpt lat="43.3427058" lon="12.6496804"><ele>656.0</ele><time>2026-04-25T07:53:03.506Z</time></trkpt><trkpt lat="43.3427796" lon="12.6497117"><ele>656.0</ele><time>2026-04-25T07:53:04.509Z</time></trkpt><trkpt lat="43.3428517" lon="12.6497474"><ele>656.0</ele><time>2026-04-25T07:53:05.503Z</time></trkpt><trkpt lat="43.3429224" lon="12.6497813"><ele>656.0</ele><time>2026-04-25T07:53:06.509Z</time></trkpt><trkpt lat="43.3429848" lon="12.6498102"><ele>656.0</ele><time>2026-04-25T07:53:07.51Z</time></trkpt><trkpt lat="43.3430653" lon="12.6498465"><ele>656.0</ele><time>2026-04-25T07:53:09.505Z</time></trkpt><trkpt lat="43.3431575" lon="12.6499028"><ele>656.0</ele><time>2026-04-25T07:53:11.511Z</time></trkpt><trkpt lat="43.3432615" lon="12.6499956"><ele>656.0</ele><time>2026-04-25T07:53:13.506Z</time></trkpt><trkpt lat="43.343359" lon="12.650073"><ele>656.0</ele><time>2026-04-25T07:53:15.51Z</time></trkpt><trkpt lat="43.3434513" lon="12.6501131"><ele>656.0</ele><time>2026-04-25T07:53:17.506Z</time></trkpt><trkpt lat="43.3435303" lon="12.6501033"><ele>656.0</ele><time>2026-04-25T07:53:19.512Z</time></trkpt><trkpt lat="43.3436009" lon="12.650144"><ele>656.0</ele><time>2026-04-25T07:53:21.507Z</time></trkpt><trkpt lat="43.3436823" lon="12.650275"><ele>656.0</ele><time>2026-04-25T07:53:23.516Z</time></trkpt><trkpt lat="43.3437204" lon="12.6503595"><ele>656.0</ele><time>2026-04-25T07:53:24.507Z</time></trkpt><trkpt lat="43.3437575" lon="12.6504487"><ele>656.0</ele><time>2026-04-25T07:53:25.51Z</time></trkpt><trkpt lat="43.3437975" lon="12.6505494"><ele>656.0</ele><time>2026-04-25T07:53:26.51Z</time></trkpt><trkpt lat="43.343839" lon="12.6506617"><ele>656.0</ele><time>2026-04-25T07:53:27.507Z</time></trkpt><trkpt lat="43.3438767" lon="12.6507836"><ele>656.4</ele><time>2026-04-25T07:53:28.513Z</time></trkpt><trkpt lat="43.3439013" lon="12.6509113"><ele>656.8</ele><time>2026-04-25T07:53:29.512Z</time></trkpt><trkpt lat="43.3439171" lon="12.6510375"><ele>657.1999999999999</ele><time>2026-04-25T07:53:30.504Z</time></trkpt><trkpt lat="43.3439223" lon="12.6511492"><ele>657.5999999999999</ele><time>2026-04-25T07:53:31.51Z</time></trkpt><trkpt lat="43.3439156" lon="12.6512497"><ele>658.0</ele><time>2026-04-25T07:53:32.507Z</time></trkpt><trkpt lat="43.343905" lon="12.6514023"><ele>658.0</ele><time>2026-04-25T07:53:34.51Z</time></trkpt><trkpt lat="43.3439533" lon="12.6515147"><ele>658.0</ele><time>2026-04-25T07:53:36.505Z</time></trkpt><trkpt lat="43.3440574" lon="12.6516427"><ele>658.0</ele><time>2026-04-25T07:53:38.507Z</time></trkpt><trkpt lat="43.3441169" lon="12.6517162"><ele>658.0</ele><time>2026-04-25T07:53:39.507Z</time></trkpt><trkpt lat="43.3441795" lon="12.6518015"><ele>658.0</ele><time>2026-04-25T07:53:40.505Z</time></trkpt><trkpt lat="43.3442426" lon="12.6518942"><ele>655.2</ele><time>2026-04-25T07:53:41.511Z</time></trkpt><trkpt lat="43.3443031" lon="12.6520014"><ele>652.4</ele><time>2026-04-25T07:53:42.502Z</time></trkpt><trkpt lat="43.3443638" lon="12.6521226"><ele>649.6</ele><time>2026-04-25T07:53:43.507Z</time></trkpt><trkpt lat="43.3444187" lon="12.6522446"><ele>646.8000000000001</ele><time>2026-04-25T07:53:44.51Z</time></trkpt><trkpt lat="43.3444639" lon="12.652361"><ele>644.0</ele><time>2026-04-25T07:53:45.504Z</time></trkpt><trkpt lat="43.3445065" lon="12.6524717"><ele>644.0</ele><time>2026-04-25T07:53:46.508Z</time></trkpt><trkpt lat="43.3445454" lon="12.6525853"><ele>644.0</ele><time>2026-04-25T07:53:47.509Z</time></trkpt><trkpt lat="43.3445724" lon="12.6526926"><ele>644.0</ele><time>2026-04-25T07:53:48.506Z</time></trkpt><trkpt lat="43.3445933" lon="12.6527942"><ele>644.0</ele><time>2026-04-25T07:53:49.502Z</time></trkpt><trkpt lat="43.344614" lon="12.6528876"><ele>644.0</ele><time>2026-04-25T07:53:50.503Z</time></trkpt><trkpt lat="43.3446317" lon="12.6529777"><ele>644.0</ele><time>2026-04-25T07:53:51.512Z</time></trkpt><trkpt lat="43.3446373" lon="12.6530726"><ele>643.1666666666666</ele><time>2026-04-25T07:53:52.504Z</time></trkpt><trkpt lat="43.3446283" lon="12.6531765"><ele>642.3333333333333</ele><time>2026-04-25T07:53:53.514Z</time></trkpt><trkpt lat="43.3446078" lon="12.6532875"><ele>641.5</ele><time>2026-04-25T07:53:54.502Z</time></trkpt><trkpt lat="43.3445847" lon="12.6533983"><ele>640.6666666666666</ele><time>2026-04-25T07:53:55.511Z</time></trkpt><trkpt lat="43.3445647" lon="12.6535082"><ele>639.8333333333334</ele><time>2026-04-25T07:53:56.51Z</time></trkpt><trkpt lat="43.3445543" lon="12.653608"><ele>639.0</ele><time>2026-04-25T07:53:57.508Z</time></trkpt><trkpt lat="43.3445565" lon="12.6537007"><ele>639.0</ele><time>2026-04-25T07:53:58.505Z</time></trkpt><trkpt lat="43.3445626" lon="12.653844"><ele>639.0</ele><time>2026-04-25T07:54:00.505Z</time></trkpt><trkpt lat="43.3445117" lon="12.653959"><ele>639.0</ele><time>2026-04-25T07:54:02.506Z</time></trkpt><trkpt lat="43.3444653" lon="12.6540236"><ele>639.0</ele><time>2026-04-25T07:54:03.505Z</time></trkpt><trkpt lat="43.3444102" lon="12.6541261"><ele>639.0</ele><time>2026-04-25T07:54:05.507Z</time></trkpt><trkpt lat="43.3443835" lon="12.6542605"><ele>639.0</ele><time>2026-04-25T07:54:07.51Z</time></trkpt><trkpt lat="43.3443537" lon="12.6543536"><ele>639.0</ele><time>2026-04-25T07:54:08.507Z</time></trkpt><trkpt lat="43.3443266" lon="12.6544406"><ele>639.0</ele><time>2026-04-25T07:54:09.508Z</time></trkpt><trkpt lat="43.3443096" lon="12.6545248"><ele>639.0</ele><time>2026-04-25T07:54:10.502Z</time></trkpt><trkpt lat="43.3443325" lon="12.6546888"><ele>639.0</ele><time>2026-04-25T07:54:12.505Z</time></trkpt><trkpt lat="43.3443662" lon="12.6547754"><ele>639.0</ele><time>2026-04-25T07:54:13.511Z</time></trkpt><trkpt lat="43.3443938" lon="12.6548866"><ele>639.0</ele><time>2026-04-25T07:54:14.512Z</time></trkpt><trkpt lat="43.344424" lon="12.6549923"><ele>639.0</ele><time>2026-04-25T07:54:15.505Z</time></trkpt><trkpt lat="43.3444609" lon="12.6550841"><ele>639.0</ele><time>2026-04-25T07:54:16.506Z</time></trkpt><trkpt lat="43.3445019" lon="12.6551591"><ele>639.0</ele><time>2026-04-25T07:54:17.512Z</time></trkpt><trkpt lat="43.3446171" lon="12.6552397"><ele>639.0</ele><time>2026-04-25T07:54:19.507Z</time></trkpt><trkpt lat="43.3446944" lon="12.6552615"><ele>639.0</ele><time>2026-04-25T07:54:20.515Z</time></trkpt><trkpt lat="43.3447683" lon="12.6552934"><ele>644.0</ele><time>2026-04-25T07:54:21.503Z</time></trkpt><trkpt lat="43.3448272" lon="12.6553343"><ele>649.0</ele><time>2026-04-25T07:54:22.514Z</time></trkpt><trkpt lat="43.3448677" lon="12.6554305"><ele>654.0</ele><time>2026-04-25T07:54:24.509Z</time></trkpt><trkpt lat="43.3448546" lon="12.6555508"><ele>659.0</ele><time>2026-04-25T07:54:26.507Z</time></trkpt><trkpt lat="43.3448766" lon="12.6557127"><ele>664.0</ele><time>2026-04-25T07:54:28.512Z</time></trkpt><trkpt lat="43.3449069" lon="12.655864"><ele>664.0</ele><time>2026-04-25T07:54:29.51Z</time></trkpt><trkpt lat="43.3449395" lon="12.6559914"><ele>664.0</ele><time>2026-04-25T07:54:30.502Z</time></trkpt><trkpt lat="43.3449662" lon="12.6561019"><ele>664.0</ele><time>2026-04-25T07:54:31.504Z</time></trkpt><trkpt lat="43.3449791" lon="12.6562002"><ele>664.0</ele><time>2026-04-25T07:54:32.504Z</time></trkpt><trkpt lat="43.3449705" lon="12.6562911"><ele>664.0</ele><time>2026-04-25T07:54:33.508Z</time></trkpt><trkpt lat="43.344941" lon="12.6563809"><ele>664.0</ele><time>2026-04-25T07:54:34.508Z</time></trkpt><trkpt lat="43.3449007" lon="12.6564761"><ele>664.8333333333334</ele><time>2026-04-25T07:54:35.508Z</time></trkpt><trkpt lat="43.344851" lon="12.6565679"><ele>665.6666666666667</ele><time>2026-04-25T07:54:36.502Z</time></trkpt><trkpt lat="43.344798" lon="12.6566626"><ele>666.5</ele><time>2026-04-25T07:54:37.509Z</time></trkpt><trkpt lat="43.3447462" lon="12.6567473"><ele>667.3333333333334</ele><time>2026-04-25T07:54:38.508Z</time></trkpt><trkpt lat="43.3446935" lon="12.6568174"><ele>668.1666666666666</ele><time>2026-04-25T07:54:39.506Z</time></trkpt><trkpt lat="43.3446436" lon="12.6568877"><ele>669.0</ele><time>2026-04-25T07:54:40.51Z</time></trkpt><trkpt lat="43.3445675" lon="12.6569924"><ele>665.8333333333334</ele><time>2026-04-25T07:54:42.515Z</time></trkpt><trkpt lat="43.3445276" lon="12.6571499"><ele>662.6666666666666</ele><time>2026-04-25T07:54:44.506Z</time></trkpt><trkpt lat="43.3445057" lon="12.6572501"><ele>659.5</ele><time>2026-04-25T07:54:45.506Z</time></trkpt><trkpt lat="43.3444785" lon="12.6573388"><ele>656.3333333333333</ele><time>2026-04-25T07:54:46.511Z</time></trkpt><trkpt lat="43.3444408" lon="12.6574142"><ele>653.1666666666666</ele><time>2026-04-25T07:54:47.507Z</time></trkpt><trkpt lat="43.3444026" lon="12.6574857"><ele>650.0</ele><time>2026-04-25T07:54:48.507Z</time></trkpt><trkpt lat="43.3443773" lon="12.6575665"><ele>650.0</ele><time>2026-04-25T07:54:49.507Z</time></trkpt><trkpt lat="43.3443605" lon="12.657663"><ele>650.0</ele><time>2026-04-25T07:54:50.511Z</time></trkpt><trkpt lat="43.3443549" lon="12.6577659"><ele>650.0</ele><time>2026-04-25T07:54:51.513Z</time></trkpt><trkpt lat="43.3443677" lon="12.65786"><ele>650.0</ele><time>2026-04-25T07:54:52.515Z</time></trkpt><trkpt lat="43.3443873" lon="12.6579639"><ele>650.0</ele><time>2026-04-25T07:54:53.504Z</time></trkpt><trkpt lat="43.3444052" lon="12.6580697"><ele>650.0</ele><time>2026-04-25T07:54:54.512Z</time></trkpt><trkpt lat="43.3444184" lon="12.6581689"><ele>650.0</ele><time>2026-04-25T07:54:55.507Z</time></trkpt><trkpt lat="43.3444232" lon="12.6582639"><ele>648.8333333333333</ele><time>2026-04-25T07:54:56.503Z</time></trkpt><trkpt lat="43.3444136" lon="12.6583642"><ele>647.6666666666666</ele><time>2026-04-25T07:54:57.507Z</time></trkpt><trkpt lat="43.3443922" lon="12.6584672"><ele>646.5</ele><time>2026-04-25T07:54:58.511Z</time></trkpt><trkpt lat="43.3443717" lon="12.6585563"><ele>645.3333333333334</ele><time>2026-04-25T07:54:59.508Z</time></trkpt><trkpt lat="43.3443424" lon="12.6587004"><ele>644.1666666666667</ele><time>2026-04-25T07:55:01.505Z</time></trkpt><trkpt lat="43.3443173" lon="12.6588232"><ele>643.0</ele><time>2026-04-25T07:55:03.508Z</time></trkpt><trkpt lat="43.3443127" lon="12.658951"><ele>640.4</ele><time>2026-04-25T07:55:05.513Z</time></trkpt><trkpt lat="43.3443202" lon="12.6590726"><ele>637.8</ele><time>2026-04-25T07:55:07.51Z</time></trkpt><trkpt lat="43.344375" lon="12.6591931"><ele>635.2</ele><time>2026-04-25T07:55:09.51Z</time></trkpt><trkpt lat="43.3444697" lon="12.6592914"><ele>632.6</ele><time>2026-04-25T07:55:11.512Z</time></trkpt><trkpt lat="43.3445214" lon="12.6593412"><ele>630.0</ele><time>2026-04-25T07:55:12.511Z</time></trkpt><trkpt lat="43.3446135" lon="12.6594542"><ele>630.5714285714286</ele><time>2026-04-25T07:55:14.51Z</time></trkpt><trkpt lat="43.3446703" lon="12.659505"><ele>631.1428571428571</ele><time>2026-04-25T07:55:15.507Z</time></trkpt><trkpt lat="43.3447431" lon="12.6595517"><ele>631.7142857142858</ele><time>2026-04-25T07:55:16.504Z</time></trkpt><trkpt lat="43.3448168" lon="12.6595982"><ele>632.2857142857142</ele><time>2026-04-25T07:55:17.51Z</time></trkpt><trkpt lat="43.3448873" lon="12.6596498"><ele>632.8571428571429</ele><time>2026-04-25T07:55:18.505Z</time></trkpt><trkpt lat="43.344951" lon="12.659687"><ele>633.4285714285714</ele><time>2026-04-25T07:55:19.51Z</time></trkpt><trkpt lat="43.3450129" lon="12.6597165"><ele>634.0</ele><time>2026-04-25T07:55:20.502Z</time></trkpt><trkpt lat="43.3450758" lon="12.6597328"><ele>634.0</ele><time>2026-04-25T07:55:21.511Z</time></trkpt><trkpt lat="43.3452" lon="12.6597304"><ele>634.0</ele><time>2026-04-25T07:55:23.513Z</time></trkpt><trkpt lat="43.3452654" lon="12.6597246"><ele>634.0</ele><time>2026-04-25T07:55:24.507Z</time></trkpt><trkpt lat="43.3453327" lon="12.65971"><ele>634.0</ele><time>2026-04-25T07:55:25.512Z</time></trkpt><trkpt lat="43.3453985" lon="12.6596909"><ele>634.0</ele><time>2026-04-25T07:55:26.51Z</time></trkpt><trkpt lat="43.3454651" lon="12.6596636"><ele>634.0</ele><time>2026-04-25T07:55:27.51Z</time></trkpt><trkpt lat="43.3455322" lon="12.6596304"><ele>633.5</ele><time>2026-04-25T07:55:28.503Z</time></trkpt><trkpt lat="43.3455986" lon="12.6595805"><ele>633.0</ele><time>2026-04-25T07:55:29.51Z</time></trkpt><trkpt lat="43.3456643" lon="12.6595093"><ele>632.5</ele><time>2026-04-25T07:55:30.508Z</time></trkpt><trkpt lat="43.3457155" lon="12.6594441"><ele>632.0</ele><time>2026-04-25T07:55:31.506Z</time></trkpt><trkpt lat="43.3457842" lon="12.6593642"><ele>631.5</ele><time>2026-04-25T07:55:33.505Z</time></trkpt><trkpt lat="43.3458885" lon="12.6593189"><ele>631.0</ele><time>2026-04-25T07:55:35.509Z</time></trkpt><trkpt lat="43.3459613" lon="12.6593008"><ele>631.0</ele><time>2026-04-25T07:55:36.506Z</time></trkpt><trkpt lat="43.346044" lon="12.6592976"><ele>631.0</ele><time>2026-04-25T07:55:37.511Z</time></trkpt><trkpt lat="43.3461266" lon="12.6592929"><ele>631.0</ele><time>2026-04-25T07:55:38.509Z</time></trkpt><trkpt lat="43.3461927" lon="12.6592852"><ele>631.0</ele><time>2026-04-25T07:55:39.507Z</time></trkpt><trkpt lat="43.3462752" lon="12.6592169"><ele>631.0</ele><time>2026-04-25T07:55:41.499Z</time></trkpt><trkpt lat="43.3463492" lon="12.6591051"><ele>631.0</ele><time>2026-04-25T07:55:43.516Z</time></trkpt><trkpt lat="43.3464065" lon="12.659007"><ele>629.3333333333334</ele><time>2026-04-25T07:55:45.51Z</time></trkpt><trkpt lat="43.3464713" lon="12.6589783"><ele>627.6666666666667</ele><time>2026-04-25T07:55:47.509Z</time></trkpt><trkpt lat="43.3465873" lon="12.658964"><ele>626.0</ele><time>2026-04-25T07:55:49.508Z</time></trkpt><trkpt lat="43.3466682" lon="12.6589567"><ele>624.3333333333334</ele><time>2026-04-25T07:55:50.511Z</time></trkpt><trkpt lat="43.3467554" lon="12.6589493"><ele>622.6666666666666</ele><time>2026-04-25T07:55:51.503Z</time></trkpt><trkpt lat="43.3468292" lon="12.6589441"><ele>621.0</ele><time>2026-04-25T07:55:52.511Z</time></trkpt><trkpt lat="43.3468993" lon="12.6589332"><ele>620.9999999999999</ele><time>2026-04-25T07:55:53.511Z</time></trkpt><trkpt lat="43.3469714" lon="12.6589218"><ele>621.0</ele><time>2026-04-25T07:55:54.511Z</time></trkpt><trkpt lat="43.3470442" lon="12.6589067"><ele>621.0</ele><time>2026-04-25T07:55:55.502Z</time></trkpt><trkpt lat="43.3471158" lon="12.6589039"><ele>621.0</ele><time>2026-04-25T07:55:56.503Z</time></trkpt><trkpt lat="43.3471796" lon="12.6588971"><ele>621.0</ele><time>2026-04-25T07:55:57.507Z</time></trkpt><trkpt lat="43.3472428" lon="12.6588973"><ele>620.9999999999999</ele><time>2026-04-25T07:55:58.507Z</time></trkpt><trkpt lat="43.3473276" lon="12.6588975"><ele>621.0</ele><time>2026-04-25T07:56:00.51Z</time></trkpt><trkpt lat="43.3473823" lon="12.6589452"><ele>621.3333333333334</ele><time>2026-04-25T07:56:02.51Z</time></trkpt><trkpt lat="43.3474537" lon="12.6590775"><ele>621.6666666666666</ele><time>2026-04-25T07:56:04.507Z</time></trkpt><trkpt lat="43.3475008" lon="12.659143"><ele>622.0</ele><time>2026-04-25T07:56:05.51Z</time></trkpt><trkpt lat="43.3475546" lon="12.6591975"><ele>622.3333333333333</ele><time>2026-04-25T07:56:06.504Z</time></trkpt><trkpt lat="43.3476385" lon="12.6592791"><ele>622.6666666666666</ele><time>2026-04-25T07:56:08.508Z</time></trkpt><trkpt lat="43.3476968" lon="12.6593784"><ele>623.0</ele><time>2026-04-25T07:56:10.51Z</time></trkpt><trkpt lat="43.347735" lon="12.6595104"><ele>620.1999999999999</ele><time>2026-04-25T07:56:12.514Z</time></trkpt><trkpt lat="43.3477333" lon="12.659686"><ele>617.4</ele><time>2026-04-25T07:56:14.502Z</time></trkpt><trkpt lat="43.3477186" lon="12.6597751"><ele>614.5999999999999</ele><time>2026-04-25T07:56:15.508Z</time></trkpt><trkpt lat="43.3477014" lon="12.6598645"><ele>611.8</ele><time>2026-04-25T07:56:16.512Z</time></trkpt><trkpt lat="43.3476704" lon="12.6600273"><ele>609.0</ele><time>2026-04-25T07:56:18.513Z</time></trkpt><trkpt lat="43.3476257" lon="12.6601906"><ele>609.0</ele><time>2026-04-25T07:56:20.507Z</time></trkpt><trkpt lat="43.347594" lon="12.6602707"><ele>609.0</ele><time>2026-04-25T07:56:21.512Z</time></trkpt><trkpt lat="43.3475334" lon="12.6604019"><ele>609.0</ele><time>2026-04-25T07:56:23.51Z</time></trkpt><trkpt lat="43.3474741" lon="12.6604894"><ele>609.0</ele><time>2026-04-25T07:56:25.509Z</time></trkpt><trkpt lat="43.3474102" lon="12.6605844"><ele>609.0</ele><time>2026-04-25T07:56:27.501Z</time></trkpt><trkpt lat="43.3473494" lon="12.6606996"><ele>607.4</ele><time>2026-04-25T07:56:29.512Z</time></trkpt><trkpt lat="43.3473064" lon="12.6608122"><ele>605.8</ele><time>2026-04-25T07:56:31.503Z</time></trkpt><trkpt lat="43.3472854" lon="12.6609368"><ele>604.2</ele><time>2026-04-25T07:56:33.503Z</time></trkpt><trkpt lat="43.3472965" lon="12.6610858"><ele>602.6</ele><time>2026-04-25T07:56:35.506Z</time></trkpt><trkpt lat="43.3473729" lon="12.6611987"><ele>601.0</ele><time>2026-04-25T07:56:37.511Z</time></trkpt><trkpt lat="43.3474297" lon="12.6612388"><ele>597.0</ele><time>2026-04-25T07:56:38.508Z</time></trkpt><trkpt lat="43.3474893" lon="12.6612715"><ele>593.0</ele><time>2026-04-25T07:56:39.511Z</time></trkpt><trkpt lat="43.3476009" lon="12.6613102"><ele>589.0</ele><time>2026-04-25T07:56:41.504Z</time></trkpt><trkpt lat="43.347703" lon="12.6613844"><ele>585.0</ele><time>2026-04-25T07:56:43.514Z</time></trkpt><trkpt lat="43.3477808" lon="12.6614746"><ele>581.0</ele><time>2026-04-25T07:56:45.51Z</time></trkpt><trkpt lat="43.3478639" lon="12.6615223"><ele>581.0</ele><time>2026-04-25T07:56:47.504Z</time></trkpt><trkpt lat="43.3479267" lon="12.6615366"><ele>581.0</ele><time>2026-04-25T07:56:48.503Z</time></trkpt><trkpt lat="43.3479924" lon="12.6615494"><ele>581.0</ele><time>2026-04-25T07:56:49.505Z</time></trkpt><trkpt lat="43.3480574" lon="12.6615744"><ele>581.0</ele><time>2026-04-25T07:56:50.51Z</time></trkpt><trkpt lat="43.3481262" lon="12.6616061"><ele>581.0</ele><time>2026-04-25T07:56:51.508Z</time></trkpt><trkpt lat="43.3481854" lon="12.661639"><ele>581.0</ele><time>2026-04-25T07:56:52.512Z</time></trkpt><trkpt lat="43.3482826" lon="12.6617206"><ele>581.0</ele><time>2026-04-25T07:56:54.509Z</time></trkpt><trkpt lat="43.3483635" lon="12.6618314"><ele>581.6666666666666</ele><time>2026-04-25T07:56:56.511Z</time></trkpt><trkpt lat="43.3484124" lon="12.6619146"><ele>582.3333333333333</ele><time>2026-04-25T07:56:57.511Z</time></trkpt><trkpt lat="43.3484721" lon="12.6620159"><ele>583.0</ele><time>2026-04-25T07:56:58.504Z</time></trkpt><trkpt lat="43.3485263" lon="12.6621144"><ele>583.6666666666666</ele><time>2026-04-25T07:56:59.506Z</time></trkpt><trkpt lat="43.3485774" lon="12.6622072"><ele>584.3333333333334</ele><time>2026-04-25T07:57:00.511Z</time></trkpt><trkpt lat="43.3486243" lon="12.6622777"><ele>585.0</ele><time>2026-04-25T07:57:01.51Z</time></trkpt><trkpt lat="43.3487271" lon="12.6623536"><ele>582.6</ele><time>2026-04-25T07:57:03.515Z</time></trkpt><trkpt lat="43.3488392" lon="12.6623913"><ele>580.2</ele><time>2026-04-25T07:57:05.502Z</time></trkpt><trkpt lat="43.3489428" lon="12.6624534"><ele>577.8</ele><time>2026-04-25T07:57:07.499Z</time></trkpt><trkpt lat="43.3490095" lon="12.6625391"><ele>575.4</ele><time>2026-04-25T07:57:09.511Z</time></trkpt><trkpt lat="43.3490574" lon="12.6626555"><ele>573.0</ele><time>2026-04-25T07:57:11.511Z</time></trkpt><trkpt lat="43.3491184" lon="12.6628078"><ele>572.3333333333334</ele><time>2026-04-25T07:57:13.51Z</time></trkpt><trkpt lat="43.3491586" lon="12.6628762"><ele>571.6666666666666</ele><time>2026-04-25T07:57:14.51Z</time></trkpt><trkpt lat="43.3492071" lon="12.6629324"><ele>571.0</ele><time>2026-04-25T07:57:15.509Z</time></trkpt><trkpt lat="43.3492978" lon="12.6630494"><ele>570.3333333333333</ele><time>2026-04-25T07:57:17.508Z</time></trkpt><trkpt lat="43.3493405" lon="12.6631202"><ele>569.6666666666666</ele><time>2026-04-25T07:57:18.508Z</time></trkpt><trkpt lat="43.3493985" lon="12.6632513"><ele>569.0</ele><time>2026-04-25T07:57:20.513Z</time></trkpt><trkpt lat="43.349427" lon="12.6633902"><ele>569.0</ele><time>2026-04-25T07:57:22.51Z</time></trkpt><trkpt lat="43.3494431" lon="12.6635189"><ele>569.0</ele><time>2026-04-25T07:57:24.514Z</time></trkpt><trkpt lat="43.3494672" lon="12.6636065"><ele>569.0</ele><time>2026-04-25T07:57:26.502Z</time></trkpt><trkpt lat="43.349519" lon="12.6636639"><ele>569.0</ele><time>2026-04-25T07:57:28.51Z</time></trkpt><trkpt lat="43.3496232" lon="12.6637288"><ele>569.0</ele><time>2026-04-25T07:57:30.512Z</time></trkpt><trkpt lat="43.3496832" lon="12.6637597"><ele>569.0</ele><time>2026-04-25T07:57:31.508Z</time></trkpt><trkpt lat="43.3497738" lon="12.6638331"><ele>567.6666666666666</ele><time>2026-04-25T07:57:33.511Z</time></trkpt><trkpt lat="43.3497861" lon="12.6639542"><ele>566.3333333333333</ele><time>2026-04-25T07:57:35.514Z</time></trkpt><trkpt lat="43.3497651" lon="12.6640401"><ele>565.0</ele><time>2026-04-25T07:57:36.505Z</time></trkpt><trkpt lat="43.3497378" lon="12.6641231"><ele>563.6666666666666</ele><time>2026-04-25T07:57:37.507Z</time></trkpt><trkpt lat="43.3496659" lon="12.6642419"><ele>562.3333333333334</ele><time>2026-04-25T07:57:39.508Z</time></trkpt><trkpt lat="43.3495756" lon="12.6642937"><ele>561.0</ele><time>2026-04-25T07:57:41.505Z</time></trkpt><trkpt lat="43.3494866" lon="12.664324"><ele>560.2</ele><time>2026-04-25T07:57:43.51Z</time></trkpt><trkpt lat="43.3494207" lon="12.6643999"><ele>559.4000000000001</ele><time>2026-04-25T07:57:45.511Z</time></trkpt><trkpt lat="43.3493751" lon="12.6645409"><ele>558.6</ele><time>2026-04-25T07:57:47.509Z</time></trkpt><trkpt lat="43.3493579" lon="12.6646259"><ele>557.8000000000001</ele><time>2026-04-25T07:57:48.512Z</time></trkpt><trkpt lat="43.3493361" lon="12.6647925"><ele>557.0</ele><time>2026-04-25T07:57:50.511Z</time></trkpt><trkpt lat="43.3493684" lon="12.6649038"><ele>554.6</ele><time>2026-04-25T07:57:52.511Z</time></trkpt><trkpt lat="43.3494646" lon="12.6649112"><ele>552.2</ele><time>2026-04-25T07:57:54.504Z</time></trkpt><trkpt lat="43.349575" lon="12.6649219"><ele>549.8</ele><time>2026-04-25T07:57:56.507Z</time></trkpt><trkpt lat="43.3496315" lon="12.6650927"><ele>547.4</ele><time>2026-04-25T07:57:58.514Z</time></trkpt><trkpt lat="43.3496216" lon="12.665206"><ele>545.0</ele><time>2026-04-25T07:57:59.502Z</time></trkpt><trkpt lat="43.3495884" lon="12.6652995"><ele>545.0</ele><time>2026-04-25T07:58:00.502Z</time></trkpt><trkpt lat="43.3495536" lon="12.665379"><ele>545.0</ele><time>2026-04-25T07:58:01.51Z</time></trkpt><trkpt lat="43.3495269" lon="12.6654606"><ele>545.0</ele><time>2026-04-25T07:58:02.51Z</time></trkpt><trkpt lat="43.3495067" lon="12.6655525"><ele>545.0</ele><time>2026-04-25T07:58:03.51Z</time></trkpt><trkpt lat="43.3494827" lon="12.6656533"><ele>545.0</ele><time>2026-04-25T07:58:04.503Z</time></trkpt><trkpt lat="43.3494618" lon="12.665762"><ele>545.0</ele><time>2026-04-25T07:58:05.505Z</time></trkpt><trkpt lat="43.3494436" lon="12.6658587"><ele>545.0</ele><time>2026-04-25T07:58:06.512Z</time></trkpt><trkpt lat="43.349435" lon="12.6659467"><ele>545.0</ele><time>2026-04-25T07:58:07.513Z</time></trkpt><trkpt lat="43.3494351" lon="12.6660413"><ele>545.0</ele><time>2026-04-25T07:58:08.509Z</time></trkpt><trkpt lat="43.3494427" lon="12.6661394"><ele>545.0</ele><time>2026-04-25T07:58:09.513Z</time></trkpt><trkpt lat="43.3494514" lon="12.6662325"><ele>545.0</ele><time>2026-04-25T07:58:10.504Z</time></trkpt><trkpt lat="43.3494564" lon="12.6663235"><ele>545.0</ele><time>2026-04-25T07:58:11.51Z</time></trkpt><trkpt lat="43.349446" lon="12.6664096"><ele>545.0</ele><time>2026-04-25T07:58:12.517Z</time></trkpt><trkpt lat="43.3493616" lon="12.6665243"><ele>545.6666666666666</ele><time>2026-04-25T07:58:14.512Z</time></trkpt><trkpt lat="43.34933" lon="12.6666162"><ele>546.3333333333333</ele><time>2026-04-25T07:58:16.512Z</time></trkpt><trkpt lat="43.3493919" lon="12.6666536"><ele>547.0</ele><time>2026-04-25T07:58:18.514Z</time></trkpt><trkpt lat="43.3494981" lon="12.6666213"><ele>547.6666666666666</ele><time>2026-04-25T07:58:20.508Z</time></trkpt><trkpt lat="43.3495677" lon="12.6666012"><ele>548.3333333333334</ele><time>2026-04-25T07:58:21.505Z</time></trkpt><trkpt lat="43.3496559" lon="12.6666094"><ele>549.0</ele><time>2026-04-25T07:58:22.513Z</time></trkpt><trkpt lat="43.3497484" lon="12.6666302"><ele>550.6666666666666</ele><time>2026-04-25T07:58:23.509Z</time></trkpt><trkpt lat="43.349834" lon="12.6666452"><ele>552.3333333333334</ele><time>2026-04-25T07:58:24.516Z</time></trkpt><trkpt lat="43.3499091" lon="12.6666572"><ele>554.0</ele><time>2026-04-25T07:58:25.513Z</time></trkpt><trkpt lat="43.3500094" lon="12.6666807"><ele>555.6666666666667</ele><time>2026-04-25T07:58:27.515Z</time></trkpt><trkpt lat="43.3500591" lon="12.6667691"><ele>557.3333333333334</ele><time>2026-04-25T07:58:29.502Z</time></trkpt><trkpt lat="43.3500831" lon="12.6668539"><ele>559.0</ele><time>2026-04-25T07:58:30.514Z</time></trkpt><trkpt lat="43.3501075" lon="12.6669487"><ele>559.0</ele><time>2026-04-25T07:58:31.509Z</time></trkpt><trkpt lat="43.3501235" lon="12.6670504"><ele>559.0</ele><time>2026-04-25T07:58:32.507Z</time></trkpt><trkpt lat="43.3501246" lon="12.6671544"><ele>559.0</ele><time>2026-04-25T07:58:33.51Z</time></trkpt><trkpt lat="43.3501064" lon="12.6672587"><ele>559.0</ele><time>2026-04-25T07:58:34.505Z</time></trkpt><trkpt lat="43.3500829" lon="12.6673608"><ele>559.0</ele><time>2026-04-25T07:58:35.511Z</time></trkpt><trkpt lat="43.3500546" lon="12.6674548"><ele>559.0</ele><time>2026-04-25T07:58:36.511Z</time></trkpt><trkpt lat="43.3500155" lon="12.6675452"><ele>559.0</ele><time>2026-04-25T07:58:37.513Z</time></trkpt><trkpt lat="43.3499736" lon="12.6676427"><ele>559.0</ele><time>2026-04-25T07:58:38.511Z</time></trkpt><trkpt lat="43.3499404" lon="12.6677375"><ele>559.0</ele><time>2026-04-25T07:58:39.503Z</time></trkpt><trkpt lat="43.3499146" lon="12.6678883"><ele>559.0</ele><time>2026-04-25T07:58:41.511Z</time></trkpt><trkpt lat="43.3499296" lon="12.6680348"><ele>559.0</ele><time>2026-04-25T07:58:43.51Z</time></trkpt><trkpt lat="43.3499956" lon="12.6681707"><ele>558.0</ele><time>2026-04-25T07:58:45.512Z</time></trkpt><trkpt lat="43.3500492" lon="12.6682429"><ele>557.0</ele><time>2026-04-25T07:58:46.506Z</time></trkpt><trkpt lat="43.3501087" lon="12.6683144"><ele>556.0</ele><time>2026-04-25T07:58:47.505Z</time></trkpt><trkpt lat="43.3501723" lon="12.6683788"><ele>555.0</ele><time>2026-04-25T07:58:48.507Z</time></trkpt><trkpt lat="43.3502395" lon="12.668441"><ele>554.0</ele><time>2026-04-25T07:58:49.511Z</time></trkpt><trkpt lat="43.3503106" lon="12.6685062"><ele>553.0</ele><time>2026-04-25T07:58:50.512Z</time></trkpt><trkpt lat="43.3503835" lon="12.6685728"><ele>554.6</ele><time>2026-04-25T07:58:51.509Z</time></trkpt><trkpt lat="43.3504561" lon="12.6686379"><ele>556.1999999999999</ele><time>2026-04-25T07:58:52.514Z</time></trkpt><trkpt lat="43.3505284" lon="12.6687053"><ele>557.8</ele><time>2026-04-25T07:58:53.507Z</time></trkpt><trkpt lat="43.350603" lon="12.6687781"><ele>559.4</ele><time>2026-04-25T07:58:54.511Z</time></trkpt><trkpt lat="43.3506657" lon="12.6688505"><ele>561.0</ele><time>2026-04-25T07:58:55.506Z</time></trkpt><trkpt lat="43.3507262" lon="12.6689962"><ele>561.1666666666666</ele><time>2026-04-25T07:58:57.512Z</time></trkpt><trkpt lat="43.3507337" lon="12.6690827"><ele>561.3333333333334</ele><time>2026-04-25T07:58:58.502Z</time></trkpt><trkpt lat="43.3507303" lon="12.6691706"><ele>561.5</ele><time>2026-04-25T07:58:59.501Z</time></trkpt><trkpt lat="43.3507204" lon="12.6693387"><ele>561.6666666666667</ele><time>2026-04-25T07:59:01.508Z</time></trkpt><trkpt lat="43.350727" lon="12.6694337"><ele>561.8333333333334</ele><time>2026-04-25T07:59:02.513Z</time></trkpt><trkpt lat="43.3507383" lon="12.6695327"><ele>562.0</ele><time>2026-04-25T07:59:03.503Z</time></trkpt><trkpt lat="43.3507476" lon="12.6696361"><ele>562.3333333333334</ele><time>2026-04-25T07:59:04.512Z</time></trkpt><trkpt lat="43.3507584" lon="12.6697372"><ele>562.6666666666667</ele><time>2026-04-25T07:59:05.51Z</time></trkpt><trkpt lat="43.350776" lon="12.6698338"><ele>563.0</ele><time>2026-04-25T07:59:06.512Z</time></trkpt><trkpt lat="43.3508036" lon="12.6699191"><ele>563.3333333333334</ele><time>2026-04-25T07:59:07.512Z</time></trkpt><trkpt lat="43.3508505" lon="12.6699914"><ele>563.6666666666666</ele><time>2026-04-25T07:59:08.506Z</time></trkpt><trkpt lat="43.3509193" lon="12.6700575"><ele>564.0</ele><time>2026-04-25T07:59:09.508Z</time></trkpt><trkpt lat="43.3510044" lon="12.6701198"><ele>564.0</ele><time>2026-04-25T07:59:10.513Z</time></trkpt><trkpt lat="43.3510952" lon="12.6701825"><ele>564.0</ele><time>2026-04-25T07:59:11.515Z</time></trkpt><trkpt lat="43.3511802" lon="12.6702443"><ele>564.0</ele><time>2026-04-25T07:59:12.518Z</time></trkpt><trkpt lat="43.3512606" lon="12.6703007"><ele>564.0</ele><time>2026-04-25T07:59:13.51Z</time></trkpt><trkpt lat="43.3513437" lon="12.6703482"><ele>564.0</ele><time>2026-04-25T07:59:14.507Z</time></trkpt><trkpt lat="43.3514294" lon="12.6703856"><ele>560.8</ele><time>2026-04-25T07:59:15.511Z</time></trkpt><trkpt lat="43.3515098" lon="12.6704079"><ele>557.5999999999999</ele><time>2026-04-25T07:59:16.504Z</time></trkpt><trkpt lat="43.3515868" lon="12.6704169"><ele>554.4</ele><time>2026-04-25T07:59:17.507Z</time></trkpt><trkpt lat="43.3516673" lon="12.6704103"><ele>551.1999999999999</ele><time>2026-04-25T07:59:18.512Z</time></trkpt><trkpt lat="43.3517636" lon="12.6703816"><ele>548.0</ele><time>2026-04-25T07:59:19.514Z</time></trkpt><trkpt lat="43.3518783" lon="12.6703417"><ele>548.0</ele><time>2026-04-25T07:59:20.507Z</time></trkpt><trkpt lat="43.3519966" lon="12.6702988"><ele>548.0</ele><time>2026-04-25T07:59:21.512Z</time></trkpt><trkpt lat="43.3521066" lon="12.6702676"><ele>548.0</ele><time>2026-04-25T07:59:22.509Z</time></trkpt><trkpt lat="43.3522117" lon="12.6702571"><ele>548.0</ele><time>2026-04-25T07:59:23.513Z</time></trkpt><trkpt lat="43.3523019" lon="12.6702643"><ele>548.0</ele><time>2026-04-25T07:59:24.51Z</time></trkpt><trkpt lat="43.3523853" lon="12.6702745"><ele>546.0</ele><time>2026-04-25T07:59:25.513Z</time></trkpt><trkpt lat="43.3524872" lon="12.6702861"><ele>544.0</ele><time>2026-04-25T07:59:26.505Z</time></trkpt><trkpt lat="43.3525811" lon="12.6703058"><ele>542.0</ele><time>2026-04-25T07:59:27.508Z</time></trkpt><trkpt lat="43.3526626" lon="12.670328"><ele>540.0</ele><time>2026-04-25T07:59:28.509Z</time></trkpt><trkpt lat="43.3527301" lon="12.6703524"><ele>538.0</ele><time>2026-04-25T07:59:29.513Z</time></trkpt><trkpt lat="43.3528118" lon="12.6704006"><ele>536.0</ele><time>2026-04-25T07:59:31.506Z</time></trkpt><trkpt lat="43.3527959" lon="12.6705126"><ele>536.0</ele><time>2026-04-25T07:59:34.513Z</time></trkpt><trkpt lat="43.3526941" lon="12.6705225"><ele>536.0</ele><time>2026-04-25T07:59:36.512Z</time></trkpt><trkpt lat="43.3526074" lon="12.6705085"><ele>536.0</ele><time>2026-04-25T07:59:37.512Z</time></trkpt><trkpt lat="43.3525048" lon="12.6704991"><ele>536.0</ele><time>2026-04-25T07:59:38.506Z</time></trkpt><trkpt lat="43.3523934" lon="12.6705052"><ele>536.0</ele><time>2026-04-25T07:59:39.512Z</time></trkpt><trkpt lat="43.3522852" lon="12.6705215"><ele>538.4</ele><time>2026-04-25T07:59:40.512Z</time></trkpt><trkpt lat="43.3521883" lon="12.6705516"><ele>540.8</ele><time>2026-04-25T07:59:41.511Z</time></trkpt><trkpt lat="43.3520987" lon="12.6705976"><ele>543.1999999999999</ele><time>2026-04-25T07:59:42.509Z</time></trkpt><trkpt lat="43.3520109" lon="12.6706544"><ele>545.6</ele><time>2026-04-25T07:59:43.512Z</time></trkpt><trkpt lat="43.3519312" lon="12.6707255"><ele>548.0</ele><time>2026-04-25T07:59:44.504Z</time></trkpt><trkpt lat="43.3518601" lon="12.6708007"><ele>548.0</ele><time>2026-04-25T07:59:45.513Z</time></trkpt><trkpt lat="43.3518017" lon="12.6708721"><ele>548.0</ele><time>2026-04-25T07:59:46.502Z</time></trkpt><trkpt lat="43.3517591" lon="12.670946"><ele>548.0</ele><time>2026-04-25T07:59:47.504Z</time></trkpt><trkpt lat="43.351734" lon="12.671089"><ele>548.0</ele><time>2026-04-25T07:59:49.512Z</time></trkpt><trkpt lat="43.3517562" lon="12.671173"><ele>548.0</ele><time>2026-04-25T07:59:50.511Z</time></trkpt><trkpt lat="43.3518003" lon="12.6712715"><ele>548.0</ele><time>2026-04-25T07:59:51.505Z</time></trkpt><trkpt lat="43.351864" lon="12.6713697"><ele>548.6</ele><time>2026-04-25T07:59:52.511Z</time></trkpt><trkpt lat="43.3519378" lon="12.6714647"><ele>549.1999999999999</ele><time>2026-04-25T07:59:53.509Z</time></trkpt><trkpt lat="43.3520193" lon="12.6715509"><ele>549.8</ele><time>2026-04-25T07:59:54.51Z</time></trkpt><trkpt lat="43.3521043" lon="12.6716241"><ele>550.4</ele><time>2026-04-25T07:59:55.512Z</time></trkpt><trkpt lat="43.3521901" lon="12.6716851"><ele>551.0</ele><time>2026-04-25T07:59:56.508Z</time></trkpt><trkpt lat="43.3522802" lon="12.6717379"><ele>545.6</ele><time>2026-04-25T07:59:57.508Z</time></trkpt><trkpt lat="43.3523705" lon="12.6717875"><ele>540.2</ele><time>2026-04-25T07:59:58.51Z</time></trkpt><trkpt lat="43.3524572" lon="12.6718362"><ele>534.8</ele><time>2026-04-25T07:59:59.505Z</time></trkpt><trkpt lat="43.3525471" lon="12.671892"><ele>529.4</ele><time>2026-04-25T08:00:00.507Z</time></trkpt><trkpt lat="43.3526405" lon="12.6719522"><ele>524.0</ele><time>2026-04-25T08:00:01.508Z</time></trkpt><trkpt lat="43.3527367" lon="12.6720059"><ele>524.0</ele><time>2026-04-25T08:00:02.513Z</time></trkpt><trkpt lat="43.3528373" lon="12.672052"><ele>524.0</ele><time>2026-04-25T08:00:03.507Z</time></trkpt><trkpt lat="43.3529395" lon="12.6720934"><ele>524.0</ele><time>2026-04-25T08:00:04.509Z</time></trkpt><trkpt lat="43.3530371" lon="12.6721243"><ele>524.0</ele><time>2026-04-25T08:00:05.506Z</time></trkpt><trkpt lat="43.3531269" lon="12.6721493"><ele>524.0</ele><time>2026-04-25T08:00:06.5Z</time></trkpt><trkpt lat="43.353212" lon="12.6721733"><ele>521.2</ele><time>2026-04-25T08:00:07.508Z</time></trkpt><trkpt lat="43.3532975" lon="12.672213"><ele>518.4</ele><time>2026-04-25T08:00:08.501Z</time></trkpt><trkpt lat="43.3533818" lon="12.6722769"><ele>515.6</ele><time>2026-04-25T08:00:09.508Z</time></trkpt><trkpt lat="43.3534576" lon="12.6723605"><ele>512.8</ele><time>2026-04-25T08:00:10.511Z</time></trkpt><trkpt lat="43.3535257" lon="12.6724591"><ele>510.0</ele><time>2026-04-25T08:00:11.51Z</time></trkpt><trkpt lat="43.3535911" lon="12.6725606"><ele>510.0</ele><time>2026-04-25T08:00:12.509Z</time></trkpt><trkpt lat="43.3536521" lon="12.672653"><ele>510.0</ele><time>2026-04-25T08:00:13.511Z</time></trkpt><trkpt lat="43.353713" lon="12.6727411"><ele>510.0</ele><time>2026-04-25T08:00:14.508Z</time></trkpt><trkpt lat="43.353777" lon="12.672818"><ele>510.0</ele><time>2026-04-25T08:00:15.512Z</time></trkpt><trkpt lat="43.3538463" lon="12.6728723"><ele>510.0</ele><time>2026-04-25T08:00:16.501Z</time></trkpt><trkpt lat="43.3539181" lon="12.6729055"><ele>510.0</ele><time>2026-04-25T08:00:17.514Z</time></trkpt><trkpt lat="43.353996" lon="12.6729073"><ele>507.6</ele><time>2026-04-25T08:00:18.512Z</time></trkpt><trkpt lat="43.3540837" lon="12.6728691"><ele>505.2</ele><time>2026-04-25T08:00:19.504Z</time></trkpt><trkpt lat="43.3541709" lon="12.6728028"><ele>502.79999999999995</ele><time>2026-04-25T08:00:20.51Z</time></trkpt><trkpt lat="43.3542595" lon="12.6727399"><ele>500.4</ele><time>2026-04-25T08:00:21.507Z</time></trkpt><trkpt lat="43.3543574" lon="12.6726967"><ele>498.0</ele><time>2026-04-25T08:00:22.513Z</time></trkpt><trkpt lat="43.3544599" lon="12.6726788"><ele>498.0</ele><time>2026-04-25T08:00:23.504Z</time></trkpt><trkpt lat="43.3545549" lon="12.6726854"><ele>498.0</ele><time>2026-04-25T08:00:24.514Z</time></trkpt><trkpt lat="43.3546382" lon="12.6727153"><ele>498.0</ele><time>2026-04-25T08:00:25.513Z</time></trkpt><trkpt lat="43.3547099" lon="12.6727583"><ele>498.0</ele><time>2026-04-25T08:00:26.511Z</time></trkpt><trkpt lat="43.3547729" lon="12.6728257"><ele>498.0</ele><time>2026-04-25T08:00:27.51Z</time></trkpt><trkpt lat="43.3548328" lon="12.6729203"><ele>498.0</ele><time>2026-04-25T08:00:28.506Z</time></trkpt><trkpt lat="43.354891" lon="12.6730286"><ele>495.3333333333333</ele><time>2026-04-25T08:00:29.51Z</time></trkpt><trkpt lat="43.3549444" lon="12.673135"><ele>492.66666666666663</ele><time>2026-04-25T08:00:30.506Z</time></trkpt><trkpt lat="43.3549983" lon="12.6732334"><ele>490.0</ele><time>2026-04-25T08:00:31.504Z</time></trkpt><trkpt lat="43.3550568" lon="12.6733166"><ele>487.3333333333333</ele><time>2026-04-25T08:00:32.502Z</time></trkpt><trkpt lat="43.3551203" lon="12.6733846"><ele>484.66666666666663</ele><time>2026-04-25T08:00:33.509Z</time></trkpt><trkpt lat="43.3551928" lon="12.673439"><ele>482.0</ele><time>2026-04-25T08:00:34.5Z</time></trkpt><trkpt lat="43.3552797" lon="12.6734747"><ele>481.99999999999994</ele><time>2026-04-25T08:00:35.508Z</time></trkpt><trkpt lat="43.3553694" lon="12.6734945"><ele>482.0</ele><time>2026-04-25T08:00:36.503Z</time></trkpt><trkpt lat="43.3554568" lon="12.6734933"><ele>482.0</ele><time>2026-04-25T08:00:37.506Z</time></trkpt><trkpt lat="43.3555368" lon="12.6734697"><ele>482.0</ele><time>2026-04-25T08:00:38.503Z</time></trkpt><trkpt lat="43.3556147" lon="12.6734195"><ele>481.99999999999994</ele><time>2026-04-25T08:00:39.511Z</time></trkpt><trkpt lat="43.355692" lon="12.6733483"><ele>482.0</ele><time>2026-04-25T08:00:40.506Z</time></trkpt><trkpt lat="43.3557724" lon="12.6732736"><ele>478.8</ele><time>2026-04-25T08:00:41.51Z</time></trkpt><trkpt lat="43.3558584" lon="12.6732005"><ele>475.6</ele><time>2026-04-25T08:00:42.51Z</time></trkpt><trkpt lat="43.3559417" lon="12.6731375"><ele>472.40000000000003</ele><time>2026-04-25T08:00:43.512Z</time></trkpt><trkpt lat="43.3560203" lon="12.6730709"><ele>469.20000000000005</ele><time>2026-04-25T08:00:44.511Z</time></trkpt><trkpt lat="43.3560937" lon="12.6730053"><ele>466.0</ele><time>2026-04-25T08:00:45.511Z</time></trkpt><trkpt lat="43.3561534" lon="12.6729351"><ele>466.00000000000006</ele><time>2026-04-25T08:00:46.505Z</time></trkpt><trkpt lat="43.3562144" lon="12.6728637"><ele>466.0</ele><time>2026-04-25T08:00:47.513Z</time></trkpt><trkpt lat="43.3562817" lon="12.6728022"><ele>466.0</ele><time>2026-04-25T08:00:48.511Z</time></trkpt><trkpt lat="43.3563603" lon="12.6727645"><ele>466.0</ele><time>2026-04-25T08:00:49.511Z</time></trkpt><trkpt lat="43.3564455" lon="12.6727486"><ele>466.00000000000006</ele><time>2026-04-25T08:00:50.51Z</time></trkpt><trkpt lat="43.3565331" lon="12.6727361"><ele>466.0</ele><time>2026-04-25T08:00:51.512Z</time></trkpt><trkpt lat="43.3566169" lon="12.6727148"><ele>464.83333333333337</ele><time>2026-04-25T08:00:52.513Z</time></trkpt><trkpt lat="43.3566955" lon="12.6726993"><ele>463.6666666666667</ele><time>2026-04-25T08:00:53.505Z</time></trkpt><trkpt lat="43.3567747" lon="12.672706"><ele>462.5</ele><time>2026-04-25T08:00:54.51Z</time></trkpt><trkpt lat="43.3568528" lon="12.6727518"><ele>461.33333333333337</ele><time>2026-04-25T08:00:55.51Z</time></trkpt><trkpt lat="43.3569322" lon="12.6728309"><ele>460.1666666666667</ele><time>2026-04-25T08:00:56.509Z</time></trkpt><trkpt lat="43.3570022" lon="12.6729198"><ele>459.0</ele><time>2026-04-25T08:00:57.505Z</time></trkpt><trkpt lat="43.3570753" lon="12.6729939"><ele>457.3333333333333</ele><time>2026-04-25T08:00:58.501Z</time></trkpt><trkpt lat="43.357162" lon="12.6730574"><ele>455.66666666666663</ele><time>2026-04-25T08:00:59.511Z</time></trkpt><trkpt lat="43.3572523" lon="12.6731083"><ele>454.0</ele><time>2026-04-25T08:01:00.509Z</time></trkpt><trkpt lat="43.3573367" lon="12.6731458"><ele>452.3333333333333</ele><time>2026-04-25T08:01:01.507Z</time></trkpt><trkpt lat="43.3574096" lon="12.6731753"><ele>450.66666666666663</ele><time>2026-04-25T08:01:02.501Z</time></trkpt><trkpt lat="43.3574686" lon="12.6732183"><ele>449.0</ele><time>2026-04-25T08:01:03.508Z</time></trkpt><trkpt lat="43.3575093" lon="12.6732867"><ele>448.99999999999994</ele><time>2026-04-25T08:01:04.503Z</time></trkpt><trkpt lat="43.3575268" lon="12.6733739"><ele>449.0</ele><time>2026-04-25T08:01:05.506Z</time></trkpt><trkpt lat="43.3575081" lon="12.6734652"><ele>449.0</ele><time>2026-04-25T08:01:06.51Z</time></trkpt><trkpt lat="43.3574588" lon="12.673561"><ele>449.0</ele><time>2026-04-25T08:01:07.502Z</time></trkpt><trkpt lat="43.3573902" lon="12.6736617"><ele>448.99999999999994</ele><time>2026-04-25T08:01:08.51Z</time></trkpt><trkpt lat="43.3573106" lon="12.673778"><ele>449.0</ele><time>2026-04-25T08:01:09.509Z</time></trkpt><trkpt lat="43.3572246" lon="12.6738932"><ele>448.49999999999994</ele><time>2026-04-25T08:01:10.514Z</time></trkpt><trkpt lat="43.3571507" lon="12.6739921"><ele>448.0</ele><time>2026-04-25T08:01:11.506Z</time></trkpt><trkpt lat="43.3570935" lon="12.6740714"><ele>447.5</ele><time>2026-04-25T08:01:12.507Z</time></trkpt><trkpt lat="43.3570723" lon="12.6741585"><ele>447.0</ele><time>2026-04-25T08:01:13.506Z</time></trkpt><trkpt lat="43.3571317" lon="12.6743117"><ele>446.49999999999994</ele><time>2026-04-25T08:01:15.516Z</time></trkpt><trkpt lat="43.3571889" lon="12.6743632"><ele>446.0</ele><time>2026-04-25T08:01:16.515Z</time></trkpt><trkpt lat="43.3572571" lon="12.6743844"><ele>447.66666666666663</ele><time>2026-04-25T08:01:17.511Z</time></trkpt><trkpt lat="43.357331" lon="12.6743636"><ele>449.3333333333333</ele><time>2026-04-25T08:01:18.516Z</time></trkpt><trkpt lat="43.3574029" lon="12.6743164"><ele>451.0</ele><time>2026-04-25T08:01:19.503Z</time></trkpt><trkpt lat="43.3574714" lon="12.6742548"><ele>452.66666666666663</ele><time>2026-04-25T08:01:20.513Z</time></trkpt><trkpt lat="43.3575394" lon="12.6741752"><ele>454.3333333333333</ele><time>2026-04-25T08:01:21.516Z</time></trkpt><trkpt lat="43.3576178" lon="12.6740768"><ele>456.0</ele><time>2026-04-25T08:01:22.515Z</time></trkpt><trkpt lat="43.357697" lon="12.6739667"><ele>456.0</ele><time>2026-04-25T08:01:23.514Z</time></trkpt><trkpt lat="43.3577787" lon="12.6738666"><ele>456.0</ele><time>2026-04-25T08:01:24.506Z</time></trkpt><trkpt lat="43.3578509" lon="12.6738142"><ele>456.0</ele><time>2026-04-25T08:01:25.514Z</time></trkpt><trkpt lat="43.3579151" lon="12.6738208"><ele>456.0</ele><time>2026-04-25T08:01:26.512Z</time></trkpt><trkpt lat="43.3579776" lon="12.673959"><ele>456.0</ele><time>2026-04-25T08:01:28.511Z</time></trkpt><trkpt lat="43.3579509" lon="12.6740578"><ele>456.0</ele><time>2026-04-25T08:01:29.508Z</time></trkpt><trkpt lat="43.3578951" lon="12.6741612"><ele>456.0</ele><time>2026-04-25T08:01:30.506Z</time></trkpt><trkpt lat="43.3578298" lon="12.6742788"><ele>456.0</ele><time>2026-04-25T08:01:31.51Z</time></trkpt><trkpt lat="43.3577561" lon="12.6744254"><ele>456.0</ele><time>2026-04-25T08:01:32.502Z</time></trkpt><trkpt lat="43.3576811" lon="12.674574"><ele>457.1666666666667</ele><time>2026-04-25T08:01:33.507Z</time></trkpt><trkpt lat="43.357614" lon="12.6747098"><ele>458.33333333333337</ele><time>2026-04-25T08:01:34.505Z</time></trkpt><trkpt lat="43.3575602" lon="12.6748266"><ele>459.5</ele><time>2026-04-25T08:01:35.512Z</time></trkpt><trkpt lat="43.3575276" lon="12.6749235"><ele>460.6666666666667</ele><time>2026-04-25T08:01:36.511Z</time></trkpt><trkpt lat="43.3575176" lon="12.675012"><ele>461.83333333333337</ele><time>2026-04-25T08:01:37.508Z</time></trkpt><trkpt lat="43.3575226" lon="12.6751116"><ele>463.0</ele><time>2026-04-25T08:01:38.505Z</time></trkpt><trkpt lat="43.3575393" lon="12.6752295"><ele>463.59999999999997</ele><time>2026-04-25T08:01:39.512Z</time></trkpt><trkpt lat="43.3575596" lon="12.6753641"><ele>464.19999999999993</ele><time>2026-04-25T08:01:40.504Z</time></trkpt><trkpt lat="43.3575643" lon="12.6754974"><ele>464.8</ele><time>2026-04-25T08:01:41.504Z</time></trkpt><trkpt lat="43.3575502" lon="12.67563"><ele>465.4</ele><time>2026-04-25T08:01:42.512Z</time></trkpt><trkpt lat="43.3575119" lon="12.6757686"><ele>466.0</ele><time>2026-04-25T08:01:43.506Z</time></trkpt><trkpt lat="43.3574553" lon="12.6759115"><ele>466.0</ele><time>2026-04-25T08:01:44.514Z</time></trkpt><trkpt lat="43.3573949" lon="12.6760682"><ele>466.0</ele><time>2026-04-25T08:01:45.517Z</time></trkpt><trkpt lat="43.3573436" lon="12.6762238"><ele>466.0</ele><time>2026-04-25T08:01:46.506Z</time></trkpt><trkpt lat="43.3573148" lon="12.6763708"><ele>466.0</ele><time>2026-04-25T08:01:47.514Z</time></trkpt><trkpt lat="43.3573027" lon="12.6764962"><ele>466.8</ele><time>2026-04-25T08:01:48.515Z</time></trkpt><trkpt lat="43.3573097" lon="12.6766194"><ele>467.6</ele><time>2026-04-25T08:01:49.516Z</time></trkpt><trkpt lat="43.3573371" lon="12.6767468"><ele>468.4</ele><time>2026-04-25T08:01:50.515Z</time></trkpt><trkpt lat="43.3573735" lon="12.6768882"><ele>469.2</ele><time>2026-04-25T08:01:51.512Z</time></trkpt><trkpt lat="43.3574081" lon="12.6770196"><ele>470.0</ele><time>2026-04-25T08:01:52.514Z</time></trkpt><trkpt lat="43.3574387" lon="12.6771312"><ele>469.99999999999994</ele><time>2026-04-25T08:01:53.516Z</time></trkpt><trkpt lat="43.3574628" lon="12.6772313"><ele>470.0</ele><time>2026-04-25T08:01:54.513Z</time></trkpt><trkpt lat="43.3574992" lon="12.6773615"><ele>470.0</ele><time>2026-04-25T08:01:56.513Z</time></trkpt><trkpt lat="43.357466" lon="12.6774377"><ele>470.0</ele><time>2026-04-25T08:01:59.516Z</time></trkpt><trkpt lat="43.3574046" lon="12.6773883"><ele>469.99999999999994</ele><time>2026-04-25T08:02:01.512Z</time></trkpt><trkpt lat="43.3573335" lon="12.6772594"><ele>470.0</ele><time>2026-04-25T08:02:03.506Z</time></trkpt><trkpt lat="43.3572394" lon="12.6772215"><ele>467.2</ele><time>2026-04-25T08:02:05.504Z</time></trkpt><trkpt lat="43.3571709" lon="12.6772648"><ele>464.4</ele><time>2026-04-25T08:02:06.513Z</time></trkpt><trkpt lat="43.3571013" lon="12.6773352"><ele>461.6</ele><time>2026-04-25T08:02:07.511Z</time></trkpt><trkpt lat="43.3570324" lon="12.6774277"><ele>458.8</ele><time>2026-04-25T08:02:08.507Z</time></trkpt><trkpt lat="43.3569566" lon="12.6775294"><ele>456.0</ele><time>2026-04-25T08:02:09.503Z</time></trkpt><trkpt lat="43.3568861" lon="12.6776308"><ele>456.0</ele><time>2026-04-25T08:02:10.511Z</time></trkpt><trkpt lat="43.3568187" lon="12.6777282"><ele>456.0</ele><time>2026-04-25T08:02:11.514Z</time></trkpt><trkpt lat="43.356754" lon="12.6778221"><ele>456.0</ele><time>2026-04-25T08:02:12.514Z</time></trkpt><trkpt lat="43.3566899" lon="12.6779089"><ele>456.0</ele><time>2026-04-25T08:02:13.516Z</time></trkpt><trkpt lat="43.3566237" lon="12.6779955"><ele>456.0</ele><time>2026-04-25T08:02:14.513Z</time></trkpt><trkpt lat="43.3565542" lon="12.6780852"><ele>455.8</ele><time>2026-04-25T08:02:15.515Z</time></trkpt><trkpt lat="43.3564799" lon="12.6781789"><ele>455.6</ele><time>2026-04-25T08:02:16.513Z</time></trkpt><trkpt lat="43.3564024" lon="12.6782811"><ele>455.4</ele><time>2026-04-25T08:02:17.513Z</time></trkpt><trkpt lat="43.3563216" lon="12.6783936"><ele>455.2</ele><time>2026-04-25T08:02:18.504Z</time></trkpt><trkpt lat="43.3562354" lon="12.6785045"><ele>455.0</ele><time>2026-04-25T08:02:19.506Z</time></trkpt><trkpt lat="43.3561489" lon="12.6786153"><ele>455.0</ele><time>2026-04-25T08:02:20.513Z</time></trkpt><trkpt lat="43.3560641" lon="12.6787192"><ele>455.0</ele><time>2026-04-25T08:02:21.512Z</time></trkpt><trkpt lat="43.3559816" lon="12.6788249"><ele>455.0</ele><time>2026-04-25T08:02:22.515Z</time></trkpt><trkpt lat="43.3559008" lon="12.6789354"><ele>455.0</ele><time>2026-04-25T08:02:23.514Z</time></trkpt><trkpt lat="43.355822" lon="12.6790448"><ele>455.0</ele><time>2026-04-25T08:02:24.513Z</time></trkpt><trkpt lat="43.3557461" lon="12.6791486"><ele>455.0</ele><time>2026-04-25T08:02:25.514Z</time></trkpt><trkpt lat="43.3556712" lon="12.6792422"><ele>455.0</ele><time>2026-04-25T08:02:26.503Z</time></trkpt><trkpt lat="43.3555994" lon="12.6793355"><ele>455.0</ele><time>2026-04-25T08:02:27.503Z</time></trkpt><trkpt lat="43.3555253" lon="12.6794194"><ele>455.0</ele><time>2026-04-25T08:02:28.511Z</time></trkpt><trkpt lat="43.3554495" lon="12.6794916"><ele>453.8333333333333</ele><time>2026-04-25T08:02:29.511Z</time></trkpt><trkpt lat="43.3553714" lon="12.6795433"><ele>452.66666666666663</ele><time>2026-04-25T08:02:30.51Z</time></trkpt><trkpt lat="43.3552867" lon="12.6795711"><ele>451.5</ele><time>2026-04-25T08:02:31.503Z</time></trkpt><trkpt lat="43.3551983" lon="12.6795823"><ele>450.33333333333337</ele><time>2026-04-25T08:02:32.514Z</time></trkpt><trkpt lat="43.3551139" lon="12.6795906"><ele>449.1666666666667</ele><time>2026-04-25T08:02:33.509Z</time></trkpt><trkpt lat="43.3550426" lon="12.6795972"><ele>448.0</ele><time>2026-04-25T08:02:34.508Z</time></trkpt><trkpt lat="43.3549777" lon="12.6796229"><ele>448.00000000000006</ele><time>2026-04-25T08:02:35.509Z</time></trkpt><trkpt lat="43.3549224" lon="12.6796675"><ele>448.0</ele><time>2026-04-25T08:02:36.503Z</time></trkpt><trkpt lat="43.35488" lon="12.6797374"><ele>448.0</ele><time>2026-04-25T08:02:37.512Z</time></trkpt><trkpt lat="43.3548443" lon="12.6798305"><ele>448.0</ele><time>2026-04-25T08:02:38.512Z</time></trkpt><trkpt lat="43.35481" lon="12.6799424"><ele>448.00000000000006</ele><time>2026-04-25T08:02:39.51Z</time></trkpt><trkpt lat="43.3547787" lon="12.6800658"><ele>448.0</ele><time>2026-04-25T08:02:40.513Z</time></trkpt><trkpt lat="43.3547397" lon="12.6801887"><ele>445.79999999999995</ele><time>2026-04-25T08:02:41.513Z</time></trkpt><trkpt lat="43.3546811" lon="12.6803003"><ele>443.59999999999997</ele><time>2026-04-25T08:02:42.517Z</time></trkpt><trkpt lat="43.354612" lon="12.6804109"><ele>441.40000000000003</ele><time>2026-04-25T08:02:43.513Z</time></trkpt><trkpt lat="43.354536" lon="12.6805255"><ele>439.20000000000005</ele><time>2026-04-25T08:02:44.512Z</time></trkpt><trkpt lat="43.3544575" lon="12.6806432"><ele>437.0</ele><time>2026-04-25T08:02:45.505Z</time></trkpt><trkpt lat="43.3543808" lon="12.6807586"><ele>437.0</ele><time>2026-04-25T08:02:46.512Z</time></trkpt><trkpt lat="43.3543038" lon="12.6808658"><ele>437.00000000000006</ele><time>2026-04-25T08:02:47.514Z</time></trkpt><trkpt lat="43.3542271" lon="12.6809693"><ele>437.00000000000006</ele><time>2026-04-25T08:02:48.51Z</time></trkpt><trkpt lat="43.3541499" lon="12.6810765"><ele>437.0</ele><time>2026-04-25T08:02:49.511Z</time></trkpt><trkpt lat="43.3540784" lon="12.6811802"><ele>437.0</ele><time>2026-04-25T08:02:50.511Z</time></trkpt><trkpt lat="43.3540174" lon="12.6812838"><ele>436.8333333333333</ele><time>2026-04-25T08:02:51.509Z</time></trkpt><trkpt lat="43.3539681" lon="12.6813718"><ele>436.66666666666663</ele><time>2026-04-25T08:02:52.509Z</time></trkpt><trkpt lat="43.3539309" lon="12.6814448"><ele>436.5</ele><time>2026-04-25T08:02:53.505Z</time></trkpt><trkpt lat="43.3538385" lon="12.6815223"><ele>436.33333333333337</ele><time>2026-04-25T08:02:55.506Z</time></trkpt><trkpt lat="43.3537712" lon="12.6815257"><ele>436.1666666666667</ele><time>2026-04-25T08:02:56.51Z</time></trkpt><trkpt lat="43.3536924" lon="12.6815024"><ele>436.0</ele><time>2026-04-25T08:02:57.502Z</time></trkpt><trkpt lat="43.3536004" lon="12.6814629"><ele>436.00000000000006</ele><time>2026-04-25T08:02:58.509Z</time></trkpt><trkpt lat="43.353508" lon="12.6814296"><ele>436.0</ele><time>2026-04-25T08:02:59.502Z</time></trkpt><trkpt lat="43.3534195" lon="12.6814218"><ele>436.0</ele><time>2026-04-25T08:03:00.503Z</time></trkpt><trkpt lat="43.3533341" lon="12.6814327"><ele>436.0</ele><time>2026-04-25T08:03:01.51Z</time></trkpt><trkpt lat="43.3532521" lon="12.681439"><ele>436.00000000000006</ele><time>2026-04-25T08:03:02.508Z</time></trkpt><trkpt lat="43.3531722" lon="12.6814071"><ele>436.0</ele><time>2026-04-25T08:03:03.503Z</time></trkpt><trkpt lat="43.3530858" lon="12.6813268"><ele>435.25</ele><time>2026-04-25T08:03:04.514Z</time></trkpt><trkpt lat="43.3529901" lon="12.6812122"><ele>434.5</ele><time>2026-04-25T08:03:05.505Z</time></trkpt><trkpt lat="43.3528929" lon="12.681081"><ele>433.75</ele><time>2026-04-25T08:03:06.513Z</time></trkpt><trkpt lat="43.352807" lon="12.6809653"><ele>433.0</ele><time>2026-04-25T08:03:07.508Z</time></trkpt><trkpt lat="43.3527262" lon="12.6808609"><ele>433.00000000000006</ele><time>2026-04-25T08:03:08.511Z</time></trkpt><trkpt lat="43.3526515" lon="12.6807736"><ele>433.0</ele><time>2026-04-25T08:03:09.514Z</time></trkpt><trkpt lat="43.3525807" lon="12.6807009"><ele>433.0</ele><time>2026-04-25T08:03:10.508Z</time></trkpt><trkpt lat="43.3525205" lon="12.6806326"><ele>433.0</ele><time>2026-04-25T08:03:11.505Z</time></trkpt><trkpt lat="43.3524739" lon="12.6805713"><ele>433.00000000000006</ele><time>2026-04-25T08:03:12.512Z</time></trkpt><trkpt lat="43.3524132" lon="12.6805131"><ele>433.0</ele><time>2026-04-25T08:03:14.511Z</time></trkpt><trkpt lat="43.3523846" lon="12.680616"><ele>433.00000000000006</ele><time>2026-04-25T08:03:17.514Z</time></trkpt><trkpt lat="43.3524324" lon="12.6807239"><ele>433.0</ele><time>2026-04-25T08:03:19.511Z</time></trkpt><trkpt lat="43.3525018" lon="12.6807491"><ele>433.0</ele><time>2026-04-25T08:03:21.502Z</time></trkpt><trkpt lat="43.3526092" lon="12.6807644"><ele>433.0</ele><time>2026-04-25T08:03:23.514Z</time></trkpt><trkpt lat="43.3526787" lon="12.6808104"><ele>433.00000000000006</ele><time>2026-04-25T08:03:24.508Z</time></trkpt><trkpt lat="43.3527574" lon="12.6808893"><ele>433.0</ele><time>2026-04-25T08:03:25.511Z</time></trkpt><trkpt lat="43.3528456" lon="12.6809902"><ele>433.0</ele><time>2026-04-25T08:03:26.505Z</time></trkpt><trkpt lat="43.352941" lon="12.681107"><ele>433.0</ele><time>2026-04-25T08:03:27.503Z</time></trkpt><trkpt lat="43.3530327" lon="12.681224"><ele>433.0</ele><time>2026-04-25T08:03:28.513Z</time></trkpt><trkpt lat="43.3531126" lon="12.6813285"><ele>433.0</ele><time>2026-04-25T08:03:29.515Z</time></trkpt><trkpt lat="43.3531866" lon="12.6814095"><ele>433.50000000000006</ele><time>2026-04-25T08:03:30.512Z</time></trkpt><trkpt lat="43.3532596" lon="12.6814525"><ele>434.0</ele><time>2026-04-25T08:03:31.513Z</time></trkpt><trkpt lat="43.3533372" lon="12.6814632"><ele>434.5</ele><time>2026-04-25T08:03:32.515Z</time></trkpt><trkpt lat="43.3534196" lon="12.6814512"><ele>435.0</ele><time>2026-04-25T08:03:33.508Z</time></trkpt><trkpt lat="43.3535089" lon="12.681432"><ele>435.50000000000006</ele><time>2026-04-25T08:03:34.509Z</time></trkpt><trkpt lat="43.3535934" lon="12.6814443"><ele>436.0</ele><time>2026-04-25T08:03:35.513Z</time></trkpt><trkpt lat="43.3536724" lon="12.6814711"><ele>436.00000000000006</ele><time>2026-04-25T08:03:36.516Z</time></trkpt><trkpt lat="43.3537446" lon="12.6814929"><ele>436.0</ele><time>2026-04-25T08:03:37.514Z</time></trkpt><trkpt lat="43.3538524" lon="12.6815064"><ele>436.0</ele><time>2026-04-25T08:03:39.512Z</time></trkpt><trkpt lat="43.3538298" lon="12.681606"><ele>436.0</ele><time>2026-04-25T08:03:49.502Z</time></trkpt><trkpt lat="43.3537706" lon="12.6816684"><ele>436.00000000000006</ele><time>2026-04-25T08:03:52.5Z</time></trkpt><trkpt lat="43.353699" lon="12.681711"><ele>436.0</ele><time>2026-04-25T08:03:55.513Z</time></trkpt><trkpt lat="43.3536119" lon="12.6817614"><ele>436.0</ele><time>2026-04-25T08:03:57.515Z</time></trkpt><trkpt lat="43.3535316" lon="12.6817742"><ele>436.0</ele><time>2026-04-25T08:03:59.51Z</time></trkpt><trkpt lat="43.3534613" lon="12.6818043"><ele>436.0</ele><time>2026-04-25T08:04:01.51Z</time></trkpt><trkpt lat="43.3533487" lon="12.6818383"><ele>436.0</ele><time>2026-04-25T08:04:03.512Z</time></trkpt><trkpt lat="43.3532294" lon="12.6818817"><ele>436.0</ele><time>2026-04-25T08:04:05.508Z</time></trkpt><trkpt lat="43.3531693" lon="12.6819133"><ele>436.33333333333337</ele><time>2026-04-25T08:04:06.512Z</time></trkpt><trkpt lat="43.3531019" lon="12.6819465"><ele>436.6666666666667</ele><time>2026-04-25T08:04:07.51Z</time></trkpt><trkpt lat="43.3530215" lon="12.6819856"><ele>437.0</ele><time>2026-04-25T08:04:08.512Z</time></trkpt><trkpt lat="43.3529305" lon="12.6820241"><ele>437.33333333333337</ele><time>2026-04-25T08:04:09.515Z</time></trkpt><trkpt lat="43.3528435" lon="12.6820479"><ele>437.6666666666667</ele><time>2026-04-25T08:04:10.513Z</time></trkpt><trkpt lat="43.3527562" lon="12.6820437"><ele>438.0</ele><time>2026-04-25T08:04:11.503Z</time></trkpt><trkpt lat="43.3526717" lon="12.6820286"><ele>438.0</ele><time>2026-04-25T08:04:12.516Z</time></trkpt><trkpt lat="43.3525956" lon="12.6820224"><ele>438.0</ele><time>2026-04-25T08:04:13.511Z</time></trkpt><trkpt lat="43.3525291" lon="12.6820441"><ele>438.0</ele><time>2026-04-25T08:04:14.51Z</time></trkpt><trkpt lat="43.3524627" lon="12.6820962"><ele>438.0</ele><time>2026-04-25T08:04:15.503Z</time></trkpt><trkpt lat="43.3523973" lon="12.682161"><ele>438.0</ele><time>2026-04-25T08:04:16.511Z</time></trkpt><trkpt lat="43.3523396" lon="12.6822207"><ele>438.0</ele><time>2026-04-25T08:04:17.507Z</time></trkpt><trkpt lat="43.3522871" lon="12.6822708"><ele>438.0</ele><time>2026-04-25T08:04:18.511Z</time></trkpt><trkpt lat="43.3521879" lon="12.6823698"><ele>436.79999999999995</ele><time>2026-04-25T08:04:20.504Z</time></trkpt><trkpt lat="43.352083" lon="12.6824618"><ele>435.59999999999997</ele><time>2026-04-25T08:04:22.506Z</time></trkpt><trkpt lat="43.3520212" lon="12.6825118"><ele>434.40000000000003</ele><time>2026-04-25T08:04:23.507Z</time></trkpt><trkpt lat="43.3519494" lon="12.6825789"><ele>433.20000000000005</ele><time>2026-04-25T08:04:24.512Z</time></trkpt><trkpt lat="43.351864" lon="12.682656"><ele>432.0</ele><time>2026-04-25T08:04:25.509Z</time></trkpt><trkpt lat="43.3517782" lon="12.6827321"><ele>432.8333333333333</ele><time>2026-04-25T08:04:26.507Z</time></trkpt><trkpt lat="43.3517068" lon="12.6827937"><ele>433.66666666666663</ele><time>2026-04-25T08:04:27.509Z</time></trkpt><trkpt lat="43.351653" lon="12.6828397"><ele>434.5</ele><time>2026-04-25T08:04:28.507Z</time></trkpt><trkpt lat="43.3515969" lon="12.682912"><ele>435.3333333333333</ele><time>2026-04-25T08:04:30.514Z</time></trkpt><trkpt lat="43.3515753" lon="12.6829965"><ele>436.16666666666663</ele><time>2026-04-25T08:04:32.515Z</time></trkpt><trkpt lat="43.351608" lon="12.6831038"><ele>437.0</ele><time>2026-04-25T08:04:34.513Z</time></trkpt><trkpt lat="43.3516997" lon="12.6832214"><ele>436.99999999999994</ele><time>2026-04-25T08:04:36.515Z</time></trkpt><trkpt lat="43.3517791" lon="12.683337"><ele>437.0</ele><time>2026-04-25T08:04:38.513Z</time></trkpt><trkpt lat="43.3518182" lon="12.6834079"><ele>437.0</ele><time>2026-04-25T08:04:39.511Z</time></trkpt><trkpt lat="43.3518376" lon="12.6834922"><ele>437.0</ele><time>2026-04-25T08:04:40.506Z</time></trkpt><trkpt lat="43.3517917" lon="12.6836437"><ele>436.99999999999994</ele><time>2026-04-25T08:04:42.513Z</time></trkpt><trkpt lat="43.3517341" lon="12.6837218"><ele>437.0</ele><time>2026-04-25T08:04:43.509Z</time></trkpt><trkpt lat="43.3516691" lon="12.6838045"><ele>438.8333333333333</ele><time>2026-04-25T08:04:44.507Z</time></trkpt><trkpt lat="43.3516102" lon="12.6838835"><ele>440.66666666666663</ele><time>2026-04-25T08:04:45.511Z</time></trkpt><trkpt lat="43.3515593" lon="12.6839664"><ele>442.5</ele><time>2026-04-25T08:04:46.513Z</time></trkpt><trkpt lat="43.3515132" lon="12.684054"><ele>444.33333333333337</ele><time>2026-04-25T08:04:47.508Z</time></trkpt><trkpt lat="43.351467" lon="12.6841393"><ele>446.1666666666667</ele><time>2026-04-25T08:04:48.509Z</time></trkpt><trkpt lat="43.3514232" lon="12.684221"><ele>448.0</ele><time>2026-04-25T08:04:49.511Z</time></trkpt><trkpt lat="43.3513832" lon="12.6843024"><ele>447.83333333333337</ele><time>2026-04-25T08:04:50.511Z</time></trkpt><trkpt lat="43.3513457" lon="12.6843761"><ele>447.6666666666667</ele><time>2026-04-25T08:04:51.505Z</time></trkpt><trkpt lat="43.3512893" lon="12.6844697"><ele>447.5</ele><time>2026-04-25T08:04:53.509Z</time></trkpt><trkpt lat="43.3512278" lon="12.6845685"><ele>447.33333333333337</ele><time>2026-04-25T08:04:56.504Z</time></trkpt><trkpt lat="43.3511687" lon="12.6846885"><ele>447.1666666666667</ele><time>2026-04-25T08:04:58.511Z</time></trkpt><trkpt lat="43.3511238" lon="12.6847788"><ele>447.0</ele><time>2026-04-25T08:04:59.51Z</time></trkpt><trkpt lat="43.3510731" lon="12.6848707"><ele>447.0</ele><time>2026-04-25T08:05:00.507Z</time></trkpt><trkpt lat="43.3510341" lon="12.6849624"><ele>447.0</ele><time>2026-04-25T08:05:01.507Z</time></trkpt><trkpt lat="43.3510006" lon="12.6850412"><ele>447.0</ele><time>2026-04-25T08:05:02.513Z</time></trkpt><trkpt lat="43.3509646" lon="12.6851841"><ele>447.0</ele><time>2026-04-25T08:05:04.512Z</time></trkpt><trkpt lat="43.3510022" lon="12.685295"><ele>447.0</ele><time>2026-04-25T08:05:06.512Z</time></trkpt><trkpt lat="43.3510915" lon="12.6853306"><ele>447.0</ele><time>2026-04-25T08:05:08.513Z</time></trkpt><trkpt lat="43.3511849" lon="12.6852453"><ele>447.0</ele><time>2026-04-25T08:05:10.511Z</time></trkpt><trkpt lat="43.3512076" lon="12.6851647"><ele>447.0</ele><time>2026-04-25T08:05:11.501Z</time></trkpt><trkpt lat="43.3509767" lon="12.6851773"><ele>447.0</ele><time>2026-04-25T08:14:47.506Z</time></trkpt><trkpt lat="43.3509064" lon="12.6850849"><ele>447.0</ele><time>2026-04-25T08:15:01.513Z</time></trkpt><trkpt lat="43.3507806" lon="12.6850223"><ele>447.0</ele><time>2026-04-25T08:15:03.514Z</time></trkpt><trkpt lat="43.3507015" lon="12.6849993"><ele>447.0</ele><time>2026-04-25T08:15:04.51Z</time></trkpt><trkpt lat="43.3506237" lon="12.6849831"><ele>447.0</ele><time>2026-04-25T08:15:05.505Z</time></trkpt><trkpt lat="43.3505556" lon="12.6849788"><ele>447.0</ele><time>2026-04-25T08:15:06.515Z</time></trkpt><trkpt lat="43.3504611" lon="12.6850166"><ele>447.0</ele><time>2026-04-25T08:15:08.514Z</time></trkpt><trkpt lat="43.3504184" lon="12.6851098"><ele>447.0</ele><time>2026-04-25T08:15:10.516Z</time></trkpt><trkpt lat="43.3504175" lon="12.6853081"><ele>445.0</ele><time>2026-04-25T08:15:12.508Z</time></trkpt><trkpt lat="43.3504198" lon="12.6854336"><ele>443.0</ele><time>2026-04-25T08:15:13.513Z</time></trkpt><trkpt lat="43.3504248" lon="12.6855436"><ele>441.0</ele><time>2026-04-25T08:15:14.517Z</time></trkpt><trkpt lat="43.3504187" lon="12.6856381"><ele>439.0</ele><time>2026-04-25T08:15:15.507Z</time></trkpt><trkpt lat="43.3503927" lon="12.6857225"><ele>437.0</ele><time>2026-04-25T08:15:16.515Z</time></trkpt><trkpt lat="43.3503493" lon="12.6858125"><ele>435.0</ele><time>2026-04-25T08:15:17.507Z</time></trkpt><trkpt lat="43.3502982" lon="12.6859189"><ele>435.0</ele><time>2026-04-25T08:15:18.514Z</time></trkpt><trkpt lat="43.3502268" lon="12.6860249"><ele>435.0</ele><time>2026-04-25T08:15:19.506Z</time></trkpt><trkpt lat="43.3501564" lon="12.6861176"><ele>435.0</ele><time>2026-04-25T08:15:20.513Z</time></trkpt><trkpt lat="43.350093" lon="12.6862033"><ele>435.0</ele><time>2026-04-25T08:15:21.516Z</time></trkpt><trkpt lat="43.3500278" lon="12.6862803"><ele>435.0</ele><time>2026-04-25T08:15:22.518Z</time></trkpt><trkpt lat="43.3499571" lon="12.6863471"><ele>435.3333333333333</ele><time>2026-04-25T08:15:23.509Z</time></trkpt><trkpt lat="43.3498771" lon="12.6864027"><ele>435.66666666666663</ele><time>2026-04-25T08:15:24.513Z</time></trkpt><trkpt lat="43.349796" lon="12.6864441"><ele>436.0</ele><time>2026-04-25T08:15:25.51Z</time></trkpt><trkpt lat="43.3497151" lon="12.6864631"><ele>436.3333333333333</ele><time>2026-04-25T08:15:26.512Z</time></trkpt><trkpt lat="43.3496351" lon="12.6864618"><ele>436.66666666666663</ele><time>2026-04-25T08:15:27.516Z</time></trkpt><trkpt lat="43.3495619" lon="12.6864576"><ele>437.0</ele><time>2026-04-25T08:15:28.513Z</time></trkpt><trkpt lat="43.3494844" lon="12.6864532"><ele>437.0</ele><time>2026-04-25T08:15:29.514Z</time></trkpt><trkpt lat="43.3493943" lon="12.6864446"><ele>437.00000000000006</ele><time>2026-04-25T08:15:30.514Z</time></trkpt><trkpt lat="43.3493021" lon="12.6864299"><ele>437.00000000000006</ele><time>2026-04-25T08:15:31.513Z</time></trkpt><trkpt lat="43.3492068" lon="12.6864059"><ele>437.0</ele><time>2026-04-25T08:15:32.513Z</time></trkpt><trkpt lat="43.3491143" lon="12.6863766"><ele>437.0</ele><time>2026-04-25T08:15:33.508Z</time></trkpt><trkpt lat="43.3490299" lon="12.68635"><ele>436.99999999999994</ele><time>2026-04-25T08:15:34.507Z</time></trkpt><trkpt lat="43.3489537" lon="12.6863179"><ele>437.0</ele><time>2026-04-25T08:15:35.504Z</time></trkpt><trkpt lat="43.3488838" lon="12.6862677"><ele>437.0</ele><time>2026-04-25T08:15:36.503Z</time></trkpt><trkpt lat="43.3488209" lon="12.6862031"><ele>437.0</ele><time>2026-04-25T08:15:37.515Z</time></trkpt><trkpt lat="43.3487581" lon="12.6861273"><ele>436.99999999999994</ele><time>2026-04-25T08:15:38.51Z</time></trkpt><trkpt lat="43.3486962" lon="12.6860571"><ele>437.0</ele><time>2026-04-25T08:15:39.515Z</time></trkpt><trkpt lat="43.3486354" lon="12.686006"><ele>435.4285714285714</ele><time>2026-04-25T08:15:40.505Z</time></trkpt><trkpt lat="43.3485723" lon="12.6859745"><ele>433.8571428571429</ele><time>2026-04-25T08:15:41.514Z</time></trkpt><trkpt lat="43.3485068" lon="12.6859579"><ele>432.2857142857143</ele><time>2026-04-25T08:15:42.507Z</time></trkpt><trkpt lat="43.3484435" lon="12.6859453"><ele>430.71428571428567</ele><time>2026-04-25T08:15:43.511Z</time></trkpt><trkpt lat="43.3483825" lon="12.6859218"><ele>429.1428571428571</ele><time>2026-04-25T08:15:44.511Z</time></trkpt><trkpt lat="43.3483251" lon="12.6858049"><ele>427.57142857142856</ele><time>2026-04-25T08:15:46.512Z</time></trkpt><trkpt lat="43.3483236" lon="12.6857001"><ele>426.0</ele><time>2026-04-25T08:15:47.514Z</time></trkpt><trkpt lat="43.3483304" lon="12.6855668"><ele>426.0</ele><time>2026-04-25T08:15:48.508Z</time></trkpt><trkpt lat="43.3483453" lon="12.6854312"><ele>426.0</ele><time>2026-04-25T08:15:49.513Z</time></trkpt><trkpt lat="43.3483498" lon="12.6852945"><ele>426.0</ele><time>2026-04-25T08:15:50.508Z</time></trkpt><trkpt lat="43.3483516" lon="12.6851579"><ele>426.0</ele><time>2026-04-25T08:15:51.514Z</time></trkpt><trkpt lat="43.3483479" lon="12.6850426"><ele>426.0</ele><time>2026-04-25T08:15:52.512Z</time></trkpt><trkpt lat="43.3483303" lon="12.6849466"><ele>425.8333333333333</ele><time>2026-04-25T08:15:53.515Z</time></trkpt><trkpt lat="43.3482931" lon="12.6848647"><ele>425.66666666666663</ele><time>2026-04-25T08:15:54.514Z</time></trkpt><trkpt lat="43.348231" lon="12.6847961"><ele>425.5</ele><time>2026-04-25T08:15:55.513Z</time></trkpt><trkpt lat="43.3481498" lon="12.6847357"><ele>425.3333333333333</ele><time>2026-04-25T08:15:56.515Z</time></trkpt><trkpt lat="43.3480621" lon="12.6846773"><ele>425.16666666666663</ele><time>2026-04-25T08:15:57.514Z</time></trkpt><trkpt lat="43.3479768" lon="12.6846152"><ele>425.0</ele><time>2026-04-25T08:15:58.508Z</time></trkpt><trkpt lat="43.3478952" lon="12.6845559"><ele>424.99999999999994</ele><time>2026-04-25T08:15:59.515Z</time></trkpt><trkpt lat="43.3478137" lon="12.6844975"><ele>425.0</ele><time>2026-04-25T08:16:00.515Z</time></trkpt><trkpt lat="43.3477314" lon="12.6844459"><ele>425.0</ele><time>2026-04-25T08:16:01.514Z</time></trkpt><trkpt lat="43.3476527" lon="12.6843961"><ele>425.0</ele><time>2026-04-25T08:16:02.516Z</time></trkpt><trkpt lat="43.347581" lon="12.6843435"><ele>424.99999999999994</ele><time>2026-04-25T08:16:03.517Z</time></trkpt><trkpt lat="43.3475116" lon="12.6842836"><ele>425.0</ele><time>2026-04-25T08:16:04.513Z</time></trkpt><trkpt lat="43.3474569" lon="12.6841996"><ele>426.66666666666663</ele><time>2026-04-25T08:16:05.515Z</time></trkpt><trkpt lat="43.347411" lon="12.6840959"><ele>428.3333333333333</ele><time>2026-04-25T08:16:06.515Z</time></trkpt><trkpt lat="43.3473729" lon="12.6839824"><ele>430.0</ele><time>2026-04-25T08:16:07.511Z</time></trkpt><trkpt lat="43.3473394" lon="12.6838733"><ele>431.66666666666663</ele><time>2026-04-25T08:16:08.515Z</time></trkpt><trkpt lat="43.3472985" lon="12.683778"><ele>433.3333333333333</ele><time>2026-04-25T08:16:09.516Z</time></trkpt><trkpt lat="43.347242" lon="12.683686"><ele>435.0</ele><time>2026-04-25T08:16:10.514Z</time></trkpt><trkpt lat="43.3471732" lon="12.6836043"><ele>438.3333333333333</ele><time>2026-04-25T08:16:11.509Z</time></trkpt><trkpt lat="43.3471007" lon="12.6835285"><ele>441.66666666666663</ele><time>2026-04-25T08:16:12.516Z</time></trkpt><trkpt lat="43.3470337" lon="12.6834605"><ele>445.0</ele><time>2026-04-25T08:16:13.512Z</time></trkpt><trkpt lat="43.3469695" lon="12.6834217"><ele>448.3333333333333</ele><time>2026-04-25T08:16:14.513Z</time></trkpt><trkpt lat="43.3469056" lon="12.6834078"><ele>451.66666666666663</ele><time>2026-04-25T08:16:15.505Z</time></trkpt><trkpt lat="43.3468304" lon="12.683409"><ele>455.0</ele><time>2026-04-25T08:16:16.514Z</time></trkpt><trkpt lat="43.3467414" lon="12.6834288"><ele>454.99999999999994</ele><time>2026-04-25T08:16:17.507Z</time></trkpt><trkpt lat="43.3466495" lon="12.6834523"><ele>455.0</ele><time>2026-04-25T08:16:18.515Z</time></trkpt><trkpt lat="43.3465602" lon="12.6834687"><ele>455.0</ele><time>2026-04-25T08:16:19.517Z</time></trkpt><trkpt lat="43.3464722" lon="12.6834687"><ele>455.0</ele><time>2026-04-25T08:16:20.515Z</time></trkpt><trkpt lat="43.3463826" lon="12.6834569"><ele>454.99999999999994</ele><time>2026-04-25T08:16:21.513Z</time></trkpt><trkpt lat="43.3463041" lon="12.6834434"><ele>455.0</ele><time>2026-04-25T08:16:22.516Z</time></trkpt><trkpt lat="43.34624" lon="12.6834412"><ele>455.16666666666663</ele><time>2026-04-25T08:16:23.515Z</time></trkpt><trkpt lat="43.3461732" lon="12.6834676"><ele>455.3333333333333</ele><time>2026-04-25T08:16:24.513Z</time></trkpt><trkpt lat="43.346104" lon="12.683532"><ele>455.5</ele><time>2026-04-25T08:16:25.505Z</time></trkpt><trkpt lat="43.3460403" lon="12.6836154"><ele>455.66666666666663</ele><time>2026-04-25T08:16:26.506Z</time></trkpt><trkpt lat="43.3459749" lon="12.6836771"><ele>455.8333333333333</ele><time>2026-04-25T08:16:27.515Z</time></trkpt><trkpt lat="43.3459103" lon="12.6837178"><ele>456.0</ele><time>2026-04-25T08:16:28.512Z</time></trkpt><trkpt lat="43.3458425" lon="12.6837371"><ele>456.0</ele><time>2026-04-25T08:16:29.515Z</time></trkpt><trkpt lat="43.3457721" lon="12.6837326"><ele>456.0</ele><time>2026-04-25T08:16:30.517Z</time></trkpt><trkpt lat="43.3456906" lon="12.6837141"><ele>456.0</ele><time>2026-04-25T08:16:31.518Z</time></trkpt><trkpt lat="43.3456091" lon="12.6836852"><ele>456.0</ele><time>2026-04-25T08:16:32.518Z</time></trkpt><trkpt lat="43.3455337" lon="12.6836397"><ele>456.0</ele><time>2026-04-25T08:16:33.516Z</time></trkpt><trkpt lat="43.3454659" lon="12.6835787"><ele>456.0</ele><time>2026-04-25T08:16:34.51Z</time></trkpt><trkpt lat="43.3454142" lon="12.6835059"><ele>460.5</ele><time>2026-04-25T08:16:35.511Z</time></trkpt><trkpt lat="43.3453838" lon="12.6834253"><ele>465.0</ele><time>2026-04-25T08:16:36.515Z</time></trkpt><trkpt lat="43.3453737" lon="12.6833361"><ele>469.5</ele><time>2026-04-25T08:16:37.508Z</time></trkpt><trkpt lat="43.3453558" lon="12.6832057"><ele>474.0</ele><time>2026-04-25T08:16:39.512Z</time></trkpt><trkpt lat="43.3452608" lon="12.6831666"><ele>478.5</ele><time>2026-04-25T08:16:41.514Z</time></trkpt><trkpt lat="43.3451798" lon="12.6831711"><ele>483.0</ele><time>2026-04-25T08:16:42.508Z</time></trkpt><trkpt lat="43.3450991" lon="12.6831707"><ele>483.0</ele><time>2026-04-25T08:16:43.514Z</time></trkpt><trkpt lat="43.3450301" lon="12.683154"><ele>483.0</ele><time>2026-04-25T08:16:44.51Z</time></trkpt><trkpt lat="43.3449653" lon="12.6831168"><ele>483.0</ele><time>2026-04-25T08:16:45.515Z</time></trkpt><trkpt lat="43.3449149" lon="12.6830613"><ele>483.0</ele><time>2026-04-25T08:16:46.512Z</time></trkpt><trkpt lat="43.3448622" lon="12.6829106"><ele>483.0</ele><time>2026-04-25T08:16:48.512Z</time></trkpt><trkpt lat="43.3448721" lon="12.6828141"><ele>483.0</ele><time>2026-04-25T08:16:49.508Z</time></trkpt><trkpt lat="43.3448824" lon="12.6827132"><ele>484.8333333333333</ele><time>2026-04-25T08:16:50.514Z</time></trkpt><trkpt lat="43.3448954" lon="12.6826053"><ele>486.66666666666663</ele><time>2026-04-25T08:16:51.51Z</time></trkpt><trkpt lat="43.3448801" lon="12.6824605"><ele>488.5</ele><time>2026-04-25T08:16:53.505Z</time></trkpt><trkpt lat="43.3448202" lon="12.6824199"><ele>490.3333333333333</ele><time>2026-04-25T08:18:34.516Z</time></trkpt><trkpt lat="43.3447464" lon="12.6824387"><ele>492.16666666666663</ele><time>2026-04-25T08:18:37.509Z</time></trkpt><trkpt lat="43.3446989" lon="12.6825127"><ele>494.0</ele><time>2026-04-25T08:19:28.509Z</time></trkpt><trkpt lat="43.344611" lon="12.6826339"><ele>495.0</ele><time>2026-04-25T08:19:30.517Z</time></trkpt><trkpt lat="43.3445175" lon="12.6826829"><ele>496.0</ele><time>2026-04-25T08:19:32.521Z</time></trkpt><trkpt lat="43.3443983" lon="12.6826579"><ele>497.0</ele><time>2026-04-25T08:19:34.508Z</time></trkpt><trkpt lat="43.3443284" lon="12.6826139"><ele>498.0</ele><time>2026-04-25T08:19:35.517Z</time></trkpt><trkpt lat="43.344259" lon="12.682561"><ele>499.0</ele><time>2026-04-25T08:19:36.517Z</time></trkpt><trkpt lat="43.3442007" lon="12.6824924"><ele>499.00000000000006</ele><time>2026-04-25T08:19:37.517Z</time></trkpt><trkpt lat="43.3441507" lon="12.6824045"><ele>499.0</ele><time>2026-04-25T08:19:38.516Z</time></trkpt><trkpt lat="43.3441061" lon="12.6823086"><ele>499.0</ele><time>2026-04-25T08:19:39.514Z</time></trkpt><trkpt lat="43.344059" lon="12.6822029"><ele>499.0</ele><time>2026-04-25T08:19:40.521Z</time></trkpt><trkpt lat="43.3440128" lon="12.6821007"><ele>499.00000000000006</ele><time>2026-04-25T08:19:41.516Z</time></trkpt><trkpt lat="43.3439533" lon="12.6820096"><ele>499.0</ele><time>2026-04-25T08:19:42.518Z</time></trkpt><trkpt lat="43.343881" lon="12.6819226"><ele>498.6</ele><time>2026-04-25T08:19:43.51Z</time></trkpt><trkpt lat="43.3438145" lon="12.6818371"><ele>498.2</ele><time>2026-04-25T08:19:44.519Z</time></trkpt><trkpt lat="43.3437617" lon="12.6817422"><ele>497.80000000000007</ele><time>2026-04-25T08:19:45.517Z</time></trkpt><trkpt lat="43.3437156" lon="12.6816364"><ele>497.40000000000003</ele><time>2026-04-25T08:19:46.518Z</time></trkpt><trkpt lat="43.343667" lon="12.6815212"><ele>497.0</ele><time>2026-04-25T08:19:47.51Z</time></trkpt><trkpt lat="43.343621" lon="12.6814013"><ele>497.0</ele><time>2026-04-25T08:19:48.519Z</time></trkpt><trkpt lat="43.3435805" lon="12.6812848"><ele>497.00000000000006</ele><time>2026-04-25T08:19:49.518Z</time></trkpt><trkpt lat="43.3435446" lon="12.6811693"><ele>497.00000000000006</ele><time>2026-04-25T08:19:50.513Z</time></trkpt><trkpt lat="43.3435124" lon="12.6810454"><ele>497.0</ele><time>2026-04-25T08:19:51.517Z</time></trkpt><trkpt lat="43.3434819" lon="12.6809123"><ele>497.0</ele><time>2026-04-25T08:19:52.52Z</time></trkpt><trkpt lat="43.3434446" lon="12.680778"><ele>501.20000000000005</ele><time>2026-04-25T08:19:53.506Z</time></trkpt><trkpt lat="43.3433969" lon="12.680651"><ele>505.40000000000003</ele><time>2026-04-25T08:19:54.518Z</time></trkpt><trkpt lat="43.3433416" lon="12.680541"><ele>509.59999999999997</ele><time>2026-04-25T08:19:55.519Z</time></trkpt><trkpt lat="43.3432767" lon="12.6804425"><ele>513.8</ele><time>2026-04-25T08:19:56.518Z</time></trkpt><trkpt lat="43.3431992" lon="12.6803496"><ele>518.0</ele><time>2026-04-25T08:19:57.514Z</time></trkpt><trkpt lat="43.3431138" lon="12.6802568"><ele>518.6</ele><time>2026-04-25T08:19:58.507Z</time></trkpt><trkpt lat="43.3430297" lon="12.6801689"><ele>519.1999999999999</ele><time>2026-04-25T08:19:59.516Z</time></trkpt><trkpt lat="43.3429557" lon="12.6800711"><ele>519.8</ele><time>2026-04-25T08:20:00.513Z</time></trkpt><trkpt lat="43.3428842" lon="12.6799514"><ele>520.4</ele><time>2026-04-25T08:20:01.516Z</time></trkpt><trkpt lat="43.342829" lon="12.6798204"><ele>521.0</ele><time>2026-04-25T08:20:02.516Z</time></trkpt><trkpt lat="43.3427883" lon="12.6796865"><ele>521.0</ele><time>2026-04-25T08:20:03.516Z</time></trkpt><trkpt lat="43.3427602" lon="12.6795605"><ele>521.0</ele><time>2026-04-25T08:20:04.518Z</time></trkpt><trkpt lat="43.3427314" lon="12.6794579"><ele>521.0</ele><time>2026-04-25T08:20:05.513Z</time></trkpt><trkpt lat="43.3426787" lon="12.6793717"><ele>521.0</ele><time>2026-04-25T08:20:06.518Z</time></trkpt><trkpt lat="43.3426057" lon="12.6792907"><ele>521.0</ele><time>2026-04-25T08:20:07.517Z</time></trkpt><trkpt lat="43.3425235" lon="12.6792113"><ele>523.2</ele><time>2026-04-25T08:20:08.509Z</time></trkpt><trkpt lat="43.3424441" lon="12.679136"><ele>525.4000000000001</ele><time>2026-04-25T08:20:09.516Z</time></trkpt><trkpt lat="43.3423661" lon="12.6790617"><ele>527.6</ele><time>2026-04-25T08:20:10.516Z</time></trkpt><trkpt lat="43.3422869" lon="12.6789755"><ele>529.8000000000001</ele><time>2026-04-25T08:20:11.513Z</time></trkpt><trkpt lat="43.3422135" lon="12.6788752"><ele>532.0</ele><time>2026-04-25T08:20:12.521Z</time></trkpt><trkpt lat="43.3421448" lon="12.6787643"><ele>532.0</ele><time>2026-04-25T08:20:13.516Z</time></trkpt><trkpt lat="43.342086" lon="12.6786669"><ele>532.0</ele><time>2026-04-25T08:20:14.516Z</time></trkpt><trkpt lat="43.3420319" lon="12.678598"><ele>532.0</ele><time>2026-04-25T08:20:15.52Z</time></trkpt><trkpt lat="43.3419682" lon="12.6785306"><ele>532.0</ele><time>2026-04-25T08:20:16.517Z</time></trkpt><trkpt lat="43.3419002" lon="12.6784653"><ele>532.0</ele><time>2026-04-25T08:20:17.516Z</time></trkpt><trkpt lat="43.341843" lon="12.678411"><ele>532.0</ele><time>2026-04-25T08:20:18.512Z</time></trkpt><trkpt lat="43.3417817" lon="12.6783811"><ele>533.5</ele><time>2026-04-25T08:20:19.518Z</time></trkpt><trkpt lat="43.341706" lon="12.6783662"><ele>535.0</ele><time>2026-04-25T08:20:20.52Z</time></trkpt><trkpt lat="43.3416174" lon="12.6783473"><ele>536.5</ele><time>2026-04-25T08:20:21.518Z</time></trkpt><trkpt lat="43.3415296" lon="12.6783124"><ele>538.0</ele><time>2026-04-25T08:20:22.511Z</time></trkpt><trkpt lat="43.3414565" lon="12.678274"><ele>539.5</ele><time>2026-04-25T08:20:23.516Z</time></trkpt><trkpt lat="43.3413923" lon="12.6782216"><ele>541.0</ele><time>2026-04-25T08:20:24.518Z</time></trkpt><trkpt lat="43.3413276" lon="12.6781506"><ele>541.0</ele><time>2026-04-25T08:20:25.516Z</time></trkpt><trkpt lat="43.3412703" lon="12.678064"><ele>541.0</ele><time>2026-04-25T08:20:26.503Z</time></trkpt><trkpt lat="43.3412225" lon="12.6779689"><ele>541.0</ele><time>2026-04-25T08:20:27.508Z</time></trkpt><trkpt lat="43.3411794" lon="12.6778563"><ele>541.0</ele><time>2026-04-25T08:20:28.51Z</time></trkpt><trkpt lat="43.3411369" lon="12.6777465"><ele>541.0</ele><time>2026-04-25T08:20:29.511Z</time></trkpt><trkpt lat="43.3410896" lon="12.6776462"><ele>541.0</ele><time>2026-04-25T08:20:30.516Z</time></trkpt><trkpt lat="43.3410359" lon="12.6775473"><ele>544.1666666666667</ele><time>2026-04-25T08:20:31.517Z</time></trkpt><trkpt lat="43.3409779" lon="12.6774471"><ele>547.3333333333334</ele><time>2026-04-25T08:20:32.523Z</time></trkpt><trkpt lat="43.3409194" lon="12.6773602"><ele>550.5</ele><time>2026-04-25T08:20:33.516Z</time></trkpt><trkpt lat="43.3408679" lon="12.6772942"><ele>553.6666666666666</ele><time>2026-04-25T08:20:34.516Z</time></trkpt><trkpt lat="43.34081" lon="12.6772451"><ele>556.8333333333333</ele><time>2026-04-25T08:20:35.507Z</time></trkpt><trkpt lat="43.3407348" lon="12.6771993"><ele>560.0</ele><time>2026-04-25T08:20:36.507Z</time></trkpt><trkpt lat="43.3406492" lon="12.6771603"><ele>560.0</ele><time>2026-04-25T08:20:37.517Z</time></trkpt><trkpt lat="43.340562" lon="12.6771214"><ele>560.0</ele><time>2026-04-25T08:20:38.508Z</time></trkpt><trkpt lat="43.3404763" lon="12.6770792"><ele>560.0</ele><time>2026-04-25T08:20:39.518Z</time></trkpt><trkpt lat="43.3403919" lon="12.6770287"><ele>560.0</ele><time>2026-04-25T08:20:40.514Z</time></trkpt><trkpt lat="43.340308" lon="12.6769785"><ele>560.0</ele><time>2026-04-25T08:20:41.515Z</time></trkpt><trkpt lat="43.3402251" lon="12.6769275"><ele>560.0</ele><time>2026-04-25T08:20:42.515Z</time></trkpt><trkpt lat="43.3401456" lon="12.6768769"><ele>560.0</ele><time>2026-04-25T08:20:43.516Z</time></trkpt><trkpt lat="43.340072" lon="12.6768222"><ele>560.0</ele><time>2026-04-25T08:20:44.52Z</time></trkpt><trkpt lat="43.3400084" lon="12.6767662"><ele>560.0</ele><time>2026-04-25T08:20:45.517Z</time></trkpt><trkpt lat="43.3399524" lon="12.6767103"><ele>560.0</ele><time>2026-04-25T08:20:46.52Z</time></trkpt><trkpt lat="43.3399002" lon="12.6766509"><ele>560.0</ele><time>2026-04-25T08:20:47.518Z</time></trkpt><trkpt lat="43.3398512" lon="12.6765924"><ele>560.0</ele><time>2026-04-25T08:20:48.534Z</time></trkpt><trkpt lat="43.3397989" lon="12.6765389"><ele>560.0</ele><time>2026-04-25T08:20:49.512Z</time></trkpt><trkpt lat="43.339743" lon="12.6764893"><ele>560.0</ele><time>2026-04-25T08:20:50.515Z</time></trkpt><trkpt lat="43.3396818" lon="12.6764387"><ele>560.0</ele><time>2026-04-25T08:20:51.518Z</time></trkpt><trkpt lat="43.3396186" lon="12.6763893"><ele>560.0</ele><time>2026-04-25T08:20:52.52Z</time></trkpt><trkpt lat="43.3395519" lon="12.676347"><ele>560.0</ele><time>2026-04-25T08:20:53.517Z</time></trkpt><trkpt lat="43.3394806" lon="12.6763158"><ele>560.0</ele><time>2026-04-25T08:20:54.513Z</time></trkpt><trkpt lat="43.3394075" lon="12.6762976"><ele>560.0</ele><time>2026-04-25T08:20:55.508Z</time></trkpt><trkpt lat="43.3393401" lon="12.6762931"><ele>560.4285714285714</ele><time>2026-04-25T08:20:56.516Z</time></trkpt><trkpt lat="43.3392734" lon="12.676293"><ele>560.8571428571429</ele><time>2026-04-25T08:20:57.51Z</time></trkpt><trkpt lat="43.3392082" lon="12.6763073"><ele>561.2857142857142</ele><time>2026-04-25T08:20:58.512Z</time></trkpt><trkpt lat="43.339135" lon="12.6763319"><ele>561.7142857142858</ele><time>2026-04-25T08:20:59.509Z</time></trkpt><trkpt lat="43.3390599" lon="12.6763579"><ele>562.1428571428571</ele><time>2026-04-25T08:21:00.516Z</time></trkpt><trkpt lat="43.3389846" lon="12.6763788"><ele>562.5714285714286</ele><time>2026-04-25T08:21:01.517Z</time></trkpt><trkpt lat="43.3389091" lon="12.6763897"><ele>563.0</ele><time>2026-04-25T08:21:02.522Z</time></trkpt><trkpt lat="43.3388372" lon="12.6763914"><ele>563.0</ele><time>2026-04-25T08:21:03.517Z</time></trkpt><trkpt lat="43.3387694" lon="12.676394"><ele>563.0</ele><time>2026-04-25T08:21:04.517Z</time></trkpt><trkpt lat="43.3386989" lon="12.6764086"><ele>563.0</ele><time>2026-04-25T08:21:05.509Z</time></trkpt><trkpt lat="43.3386232" lon="12.676433"><ele>563.0</ele><time>2026-04-25T08:21:06.517Z</time></trkpt><trkpt lat="43.3385501" lon="12.6764531"><ele>563.0</ele><time>2026-04-25T08:21:07.516Z</time></trkpt><trkpt lat="43.3384776" lon="12.6764633"><ele>563.0</ele><time>2026-04-25T08:21:08.508Z</time></trkpt><trkpt lat="43.3384065" lon="12.6764742"><ele>563.0</ele><time>2026-04-25T08:21:09.518Z</time></trkpt><trkpt lat="43.3383317" lon="12.6764853"><ele>563.0</ele><time>2026-04-25T08:21:10.516Z</time></trkpt><trkpt lat="43.3382593" lon="12.6765066"><ele>563.0</ele><time>2026-04-25T08:21:11.515Z</time></trkpt><trkpt lat="43.3381857" lon="12.6765345"><ele>563.0</ele><time>2026-04-25T08:21:12.518Z</time></trkpt><trkpt lat="43.3381142" lon="12.6765647"><ele>563.0</ele><time>2026-04-25T08:21:13.515Z</time></trkpt><trkpt lat="43.3380437" lon="12.6765844"><ele>563.0</ele><time>2026-04-25T08:21:14.516Z</time></trkpt><trkpt lat="43.337968" lon="12.6765953"><ele>563.0</ele><time>2026-04-25T08:21:15.516Z</time></trkpt><trkpt lat="43.337893" lon="12.6765977"><ele>563.0</ele><time>2026-04-25T08:21:16.518Z</time></trkpt><trkpt lat="43.3378204" lon="12.6765916"><ele>560.8</ele><time>2026-04-25T08:21:17.517Z</time></trkpt><trkpt lat="43.3377557" lon="12.676571"><ele>558.5999999999999</ele><time>2026-04-25T08:21:18.517Z</time></trkpt><trkpt lat="43.3376568" lon="12.6764827"><ele>556.4000000000001</ele><time>2026-04-25T08:21:20.515Z</time></trkpt><trkpt lat="43.3376099" lon="12.6764241"><ele>554.2</ele><time>2026-04-25T08:21:21.512Z</time></trkpt><trkpt lat="43.3375278" lon="12.6763044"><ele>552.0</ele><time>2026-04-25T08:21:23.518Z</time></trkpt><trkpt lat="43.337447" lon="12.6761827"><ele>550.8000000000001</ele><time>2026-04-25T08:21:25.517Z</time></trkpt><trkpt lat="43.3373667" lon="12.6760635"><ele>549.6</ele><time>2026-04-25T08:21:27.516Z</time></trkpt><trkpt lat="43.3372896" lon="12.6759436"><ele>548.4000000000001</ele><time>2026-04-25T08:21:29.507Z</time></trkpt><trkpt lat="43.3372079" lon="12.6758209"><ele>547.2</ele><time>2026-04-25T08:21:31.508Z</time></trkpt><trkpt lat="43.3371648" lon="12.6757562"><ele>546.0</ele><time>2026-04-25T08:21:32.515Z</time></trkpt><trkpt lat="43.3371214" lon="12.6756918"><ele>546.0</ele><time>2026-04-25T08:21:33.517Z</time></trkpt><trkpt lat="43.3370395" lon="12.6755767"><ele>546.0</ele><time>2026-04-25T08:21:35.518Z</time></trkpt><trkpt lat="43.3369573" lon="12.6755098"><ele>546.0</ele><time>2026-04-25T08:21:37.517Z</time></trkpt><trkpt lat="43.3368701" lon="12.6755632"><ele>546.0</ele><time>2026-04-25T08:21:39.524Z</time></trkpt><trkpt lat="43.3368156" lon="12.6756188"><ele>546.0</ele><time>2026-04-25T08:21:40.52Z</time></trkpt><trkpt lat="43.3367555" lon="12.6756786"><ele>546.0</ele><time>2026-04-25T08:21:41.511Z</time></trkpt><trkpt lat="43.3366991" lon="12.6757374"><ele>546.0</ele><time>2026-04-25T08:21:42.521Z</time></trkpt><trkpt lat="43.3366488" lon="12.6757979"><ele>546.0</ele><time>2026-04-25T08:21:43.516Z</time></trkpt><trkpt lat="43.3365886" lon="12.6759193"><ele>546.0</ele><time>2026-04-25T08:21:45.519Z</time></trkpt><trkpt lat="43.3365877" lon="12.6760696"><ele>546.0</ele><time>2026-04-25T08:21:47.517Z</time></trkpt><trkpt lat="43.3365973" lon="12.6761575"><ele>546.0</ele><time>2026-04-25T08:21:48.517Z</time></trkpt><trkpt lat="43.3366106" lon="12.6762625"><ele>544.8333333333334</ele><time>2026-04-25T08:21:49.517Z</time></trkpt><trkpt lat="43.3366193" lon="12.6763713"><ele>543.6666666666666</ele><time>2026-04-25T08:21:50.52Z</time></trkpt><trkpt lat="43.3366251" lon="12.6764834"><ele>542.5</ele><time>2026-04-25T08:21:51.513Z</time></trkpt><trkpt lat="43.3366296" lon="12.6766012"><ele>541.3333333333333</ele><time>2026-04-25T08:21:52.518Z</time></trkpt><trkpt lat="43.3366363" lon="12.6767157"><ele>540.1666666666666</ele><time>2026-04-25T08:21:53.519Z</time></trkpt><trkpt lat="43.3366389" lon="12.6768284"><ele>539.0</ele><time>2026-04-25T08:21:54.508Z</time></trkpt><trkpt lat="43.336637" lon="12.6769324"><ele>537.8333333333333</ele><time>2026-04-25T08:21:55.516Z</time></trkpt><trkpt lat="43.3366336" lon="12.6770316"><ele>536.6666666666666</ele><time>2026-04-25T08:21:56.508Z</time></trkpt><trkpt lat="43.3366341" lon="12.6771324"><ele>535.5</ele><time>2026-04-25T08:21:57.517Z</time></trkpt><trkpt lat="43.3366331" lon="12.6772384"><ele>534.3333333333334</ele><time>2026-04-25T08:21:58.522Z</time></trkpt><trkpt lat="43.3366323" lon="12.6773464"><ele>533.1666666666667</ele><time>2026-04-25T08:21:59.517Z</time></trkpt><trkpt lat="43.3366408" lon="12.6774578"><ele>532.0</ele><time>2026-04-25T08:22:00.519Z</time></trkpt><trkpt lat="43.336653" lon="12.6775715"><ele>532.0</ele><time>2026-04-25T08:22:01.516Z</time></trkpt><trkpt lat="43.3366696" lon="12.677695"><ele>532.0</ele><time>2026-04-25T08:22:02.522Z</time></trkpt><trkpt lat="43.3366863" lon="12.6778368"><ele>532.0</ele><time>2026-04-25T08:22:03.517Z</time></trkpt><trkpt lat="43.3367003" lon="12.6779806"><ele>532.0</ele><time>2026-04-25T08:22:04.518Z</time></trkpt><trkpt lat="43.3367045" lon="12.678112"><ele>532.0</ele><time>2026-04-25T08:22:05.516Z</time></trkpt><trkpt lat="43.3367044" lon="12.6782349"><ele>531.0</ele><time>2026-04-25T08:22:06.514Z</time></trkpt><trkpt lat="43.3367042" lon="12.6783538"><ele>530.0</ele><time>2026-04-25T08:22:07.517Z</time></trkpt><trkpt lat="43.3367" lon="12.6784695"><ele>529.0</ele><time>2026-04-25T08:22:08.515Z</time></trkpt><trkpt lat="43.3366914" lon="12.678584"><ele>528.0</ele><time>2026-04-25T08:22:09.518Z</time></trkpt><trkpt lat="43.3366883" lon="12.6786878"><ele>527.0</ele><time>2026-04-25T08:22:10.508Z</time></trkpt><trkpt lat="43.3366934" lon="12.6787774"><ele>526.0</ele><time>2026-04-25T08:22:11.515Z</time></trkpt><trkpt lat="43.3367514" lon="12.6789278"><ele>525.1666666666667</ele><time>2026-04-25T08:22:13.515Z</time></trkpt><trkpt lat="43.3367985" lon="12.6790081"><ele>524.3333333333334</ele><time>2026-04-25T08:22:14.514Z</time></trkpt><trkpt lat="43.3368442" lon="12.6790935"><ele>523.5</ele><time>2026-04-25T08:22:15.52Z</time></trkpt><trkpt lat="43.3368832" lon="12.6791785"><ele>522.6666666666666</ele><time>2026-04-25T08:22:16.507Z</time></trkpt><trkpt lat="43.3369166" lon="12.6792721"><ele>521.8333333333333</ele><time>2026-04-25T08:22:17.513Z</time></trkpt><trkpt lat="43.3369361" lon="12.6793777"><ele>521.0</ele><time>2026-04-25T08:22:18.519Z</time></trkpt><trkpt lat="43.336944" lon="12.6794914"><ele>520.2</ele><time>2026-04-25T08:22:19.52Z</time></trkpt><trkpt lat="43.3369483" lon="12.6796134"><ele>519.4000000000001</ele><time>2026-04-25T08:22:20.524Z</time></trkpt><trkpt lat="43.3369496" lon="12.6797459"><ele>518.6</ele><time>2026-04-25T08:22:21.522Z</time></trkpt><trkpt lat="43.3369457" lon="12.6798853"><ele>517.8000000000001</ele><time>2026-04-25T08:22:22.514Z</time></trkpt><trkpt lat="43.3369369" lon="12.6800287"><ele>517.0</ele><time>2026-04-25T08:22:23.51Z</time></trkpt><trkpt lat="43.3369231" lon="12.6801659"><ele>516.2</ele><time>2026-04-25T08:22:24.513Z</time></trkpt><trkpt lat="43.3369092" lon="12.680302"><ele>515.4000000000001</ele><time>2026-04-25T08:22:25.518Z</time></trkpt><trkpt lat="43.3369007" lon="12.6804436"><ele>514.5999999999999</ele><time>2026-04-25T08:22:26.517Z</time></trkpt><trkpt lat="43.336899" lon="12.6805881"><ele>513.8</ele><time>2026-04-25T08:22:27.515Z</time></trkpt><trkpt lat="43.3369013" lon="12.6807341"><ele>513.0</ele><time>2026-04-25T08:22:28.518Z</time></trkpt><trkpt lat="43.336912" lon="12.6808794"><ele>513.0</ele><time>2026-04-25T08:22:29.517Z</time></trkpt><trkpt lat="43.3369305" lon="12.6810154"><ele>513.0</ele><time>2026-04-25T08:22:30.515Z</time></trkpt><trkpt lat="43.3369502" lon="12.6811314"><ele>513.0</ele><time>2026-04-25T08:22:31.515Z</time></trkpt><trkpt lat="43.3369701" lon="12.681242"><ele>513.0</ele><time>2026-04-25T08:22:32.519Z</time></trkpt><trkpt lat="43.3369948" lon="12.6813591"><ele>513.0</ele><time>2026-04-25T08:22:33.508Z</time></trkpt><trkpt lat="43.33702" lon="12.6814737"><ele>513.0</ele><time>2026-04-25T08:22:34.514Z</time></trkpt><trkpt lat="43.3370411" lon="12.6815959"><ele>512.4</ele><time>2026-04-25T08:22:35.515Z</time></trkpt><trkpt lat="43.3370612" lon="12.6817184"><ele>511.79999999999995</ele><time>2026-04-25T08:22:36.518Z</time></trkpt><trkpt lat="43.3370771" lon="12.6818454"><ele>511.2</ele><time>2026-04-25T08:22:37.508Z</time></trkpt><trkpt lat="43.3370903" lon="12.6819786"><ele>510.6</ele><time>2026-04-25T08:22:38.512Z</time></trkpt><trkpt lat="43.3370993" lon="12.682109"><ele>510.0</ele><time>2026-04-25T08:22:39.517Z</time></trkpt><trkpt lat="43.3370992" lon="12.6822435"><ele>509.6666666666667</ele><time>2026-04-25T08:22:40.516Z</time></trkpt><trkpt lat="43.337096" lon="12.6823788"><ele>509.33333333333337</ele><time>2026-04-25T08:22:41.517Z</time></trkpt><trkpt lat="43.3370971" lon="12.6824968"><ele>509.0</ele><time>2026-04-25T08:22:42.521Z</time></trkpt><trkpt lat="43.3371083" lon="12.6825873"><ele>508.6666666666667</ele><time>2026-04-25T08:22:43.518Z</time></trkpt><trkpt lat="43.3371869" lon="12.682724"><ele>508.33333333333337</ele><time>2026-04-25T08:22:45.516Z</time></trkpt><trkpt lat="43.3372427" lon="12.6827858"><ele>508.0</ele><time>2026-04-25T08:22:46.518Z</time></trkpt><trkpt lat="43.3372956" lon="12.6828561"><ele>510.50000000000006</ele><time>2026-04-25T08:22:47.518Z</time></trkpt><trkpt lat="43.3373483" lon="12.682938"><ele>513.0</ele><time>2026-04-25T08:22:48.516Z</time></trkpt><trkpt lat="43.337402" lon="12.6830276"><ele>515.5</ele><time>2026-04-25T08:22:49.511Z</time></trkpt><trkpt lat="43.3374616" lon="12.6831279"><ele>518.0</ele><time>2026-04-25T08:22:50.518Z</time></trkpt><trkpt lat="43.3375202" lon="12.6832257"><ele>520.5</ele><time>2026-04-25T08:22:51.517Z</time></trkpt><trkpt lat="43.3375712" lon="12.6833042"><ele>523.0</ele><time>2026-04-25T08:22:52.526Z</time></trkpt><trkpt lat="43.3376118" lon="12.6833725"><ele>523.0</ele><time>2026-04-25T08:22:53.515Z</time></trkpt><trkpt lat="43.3376711" lon="12.6834409"><ele>523.0</ele><time>2026-04-25T08:22:55.519Z</time></trkpt><trkpt lat="43.337751" lon="12.6834416"><ele>523.0</ele><time>2026-04-25T08:22:58.515Z</time></trkpt><trkpt lat="43.3378468" lon="12.6833984"><ele>523.0</ele><time>2026-04-25T08:23:01.511Z</time></trkpt><trkpt lat="43.3379097" lon="12.6833842"><ele>523.0</ele><time>2026-04-25T08:23:02.52Z</time></trkpt><trkpt lat="43.3379829" lon="12.6833687"><ele>523.0</ele><time>2026-04-25T08:23:03.515Z</time></trkpt><trkpt lat="43.3380681" lon="12.6833512"><ele>523.5</ele><time>2026-04-25T08:23:04.517Z</time></trkpt><trkpt lat="43.3381587" lon="12.6833384"><ele>524.0</ele><time>2026-04-25T08:23:05.516Z</time></trkpt><trkpt lat="43.3382417" lon="12.6833462"><ele>524.5</ele><time>2026-04-25T08:23:06.517Z</time></trkpt><trkpt lat="43.3383186" lon="12.6833673"><ele>525.0</ele><time>2026-04-25T08:23:07.519Z</time></trkpt><trkpt lat="43.3383891" lon="12.683399"><ele>525.5</ele><time>2026-04-25T08:23:08.521Z</time></trkpt><trkpt lat="43.3384526" lon="12.6834544"><ele>526.0</ele><time>2026-04-25T08:23:09.52Z</time></trkpt><trkpt lat="43.3385108" lon="12.6835323"><ele>521.8</ele><time>2026-04-25T08:23:10.517Z</time></trkpt><trkpt lat="43.3385656" lon="12.6836248"><ele>517.6</ele><time>2026-04-25T08:23:11.518Z</time></trkpt><trkpt lat="43.338606" lon="12.6837328"><ele>513.4</ele><time>2026-04-25T08:23:12.523Z</time></trkpt><trkpt lat="43.3386419" lon="12.6838537"><ele>509.2</ele><time>2026-04-25T08:23:13.512Z</time></trkpt><trkpt lat="43.33868" lon="12.6839746"><ele>505.0</ele><time>2026-04-25T08:23:14.518Z</time></trkpt><trkpt lat="43.33872" lon="12.6840898"><ele>505.0</ele><time>2026-04-25T08:23:15.517Z</time></trkpt><trkpt lat="43.3387624" lon="12.6842091"><ele>505.0</ele><time>2026-04-25T08:23:16.518Z</time></trkpt><trkpt lat="43.3388047" lon="12.6843333"><ele>505.0</ele><time>2026-04-25T08:23:17.517Z</time></trkpt><trkpt lat="43.3388439" lon="12.684456"><ele>505.0</ele><time>2026-04-25T08:23:18.52Z</time></trkpt><trkpt lat="43.3388885" lon="12.6845732"><ele>505.0</ele><time>2026-04-25T08:23:19.517Z</time></trkpt><trkpt lat="43.3389411" lon="12.6846882"><ele>503.2</ele><time>2026-04-25T08:23:20.511Z</time></trkpt><trkpt lat="43.339" lon="12.6848022"><ele>501.4</ele><time>2026-04-25T08:23:21.508Z</time></trkpt><trkpt lat="43.3390625" lon="12.6849234"><ele>499.6</ele><time>2026-04-25T08:23:22.52Z</time></trkpt><trkpt lat="43.3391226" lon="12.6850483"><ele>497.8</ele><time>2026-04-25T08:23:23.506Z</time></trkpt><trkpt lat="43.3391826" lon="12.6851761"><ele>496.0</ele><time>2026-04-25T08:23:24.517Z</time></trkpt><trkpt lat="43.3392404" lon="12.6853051"><ele>492.6</ele><time>2026-04-25T08:23:25.517Z</time></trkpt><trkpt lat="43.3392919" lon="12.6854355"><ele>489.20000000000005</ele><time>2026-04-25T08:23:26.516Z</time></trkpt><trkpt lat="43.3393301" lon="12.6855696"><ele>485.79999999999995</ele><time>2026-04-25T08:23:27.518Z</time></trkpt><trkpt lat="43.3393539" lon="12.6857111"><ele>482.4</ele><time>2026-04-25T08:23:28.513Z</time></trkpt><trkpt lat="43.3393601" lon="12.6858598"><ele>479.0</ele><time>2026-04-25T08:23:29.509Z</time></trkpt><trkpt lat="43.3393649" lon="12.686011"><ele>477.4</ele><time>2026-04-25T08:23:30.519Z</time></trkpt><trkpt lat="43.3393676" lon="12.6861597"><ele>475.79999999999995</ele><time>2026-04-25T08:23:31.518Z</time></trkpt><trkpt lat="43.3393679" lon="12.6862995"><ele>474.20000000000005</ele><time>2026-04-25T08:23:32.516Z</time></trkpt><trkpt lat="43.3393708" lon="12.6864379"><ele>472.6</ele><time>2026-04-25T08:23:33.517Z</time></trkpt><trkpt lat="43.3393749" lon="12.6865782"><ele>471.0</ele><time>2026-04-25T08:23:34.508Z</time></trkpt><trkpt lat="43.3393863" lon="12.6867215"><ele>471.0</ele><time>2026-04-25T08:23:35.518Z</time></trkpt><trkpt lat="43.3394077" lon="12.6868661"><ele>471.0</ele><time>2026-04-25T08:23:36.518Z</time></trkpt><trkpt lat="43.3394355" lon="12.6870169"><ele>471.0</ele><time>2026-04-25T08:23:37.518Z</time></trkpt><trkpt lat="43.3394654" lon="12.6871638"><ele>471.0</ele><time>2026-04-25T08:23:38.513Z</time></trkpt><trkpt lat="43.3394934" lon="12.6873117"><ele>471.0</ele><time>2026-04-25T08:23:39.517Z</time></trkpt><trkpt lat="43.3395187" lon="12.6874681"><ele>471.0</ele><time>2026-04-25T08:23:40.513Z</time></trkpt><trkpt lat="43.3395477" lon="12.6876284"><ele>471.0</ele><time>2026-04-25T08:23:41.516Z</time></trkpt><trkpt lat="43.3395666" lon="12.6877829"><ele>471.0</ele><time>2026-04-25T08:23:42.522Z</time></trkpt><trkpt lat="43.3395693" lon="12.6879352"><ele>471.0</ele><time>2026-04-25T08:23:43.512Z</time></trkpt><trkpt lat="43.339575" lon="12.6880824"><ele>470.4</ele><time>2026-04-25T08:23:44.518Z</time></trkpt><trkpt lat="43.3395911" lon="12.688229"><ele>469.8</ele><time>2026-04-25T08:23:45.517Z</time></trkpt><trkpt lat="43.3396064" lon="12.6883724"><ele>469.19999999999993</ele><time>2026-04-25T08:23:46.517Z</time></trkpt><trkpt lat="43.3396202" lon="12.6885075"><ele>468.59999999999997</ele><time>2026-04-25T08:23:47.515Z</time></trkpt><trkpt lat="43.3396395" lon="12.6886315"><ele>468.0</ele><time>2026-04-25T08:23:48.515Z</time></trkpt><trkpt lat="43.3396589" lon="12.688753"><ele>463.79999999999995</ele><time>2026-04-25T08:23:49.515Z</time></trkpt><trkpt lat="43.3396767" lon="12.6888583"><ele>459.59999999999997</ele><time>2026-04-25T08:23:50.518Z</time></trkpt><trkpt lat="43.3397007" lon="12.6889441"><ele>455.40000000000003</ele><time>2026-04-25T08:23:51.515Z</time></trkpt><trkpt lat="43.3397571" lon="12.6890755"><ele>451.20000000000005</ele><time>2026-04-25T08:23:53.518Z</time></trkpt><trkpt lat="43.3398669" lon="12.6891678"><ele>447.0</ele><time>2026-04-25T08:23:55.516Z</time></trkpt><trkpt lat="43.3399306" lon="12.6892059"><ele>444.40000000000003</ele><time>2026-04-25T08:23:56.516Z</time></trkpt><trkpt lat="43.340047" lon="12.6892087"><ele>441.80000000000007</ele><time>2026-04-25T08:23:58.514Z</time></trkpt><trkpt lat="43.3401495" lon="12.6891197"><ele>439.2</ele><time>2026-04-25T08:24:00.521Z</time></trkpt><trkpt lat="43.3402166" lon="12.6890376"><ele>436.6</ele><time>2026-04-25T08:24:01.515Z</time></trkpt><trkpt lat="43.3402856" lon="12.6889529"><ele>434.0</ele><time>2026-04-25T08:24:02.524Z</time></trkpt><trkpt lat="43.3403393" lon="12.6888926"><ele>434.0</ele><time>2026-04-25T08:24:03.519Z</time></trkpt><trkpt lat="43.3404069" lon="12.6888725"><ele>434.0</ele><time>2026-04-25T08:24:05.518Z</time></trkpt><trkpt lat="43.3404122" lon="12.6889646"><ele>434.0</ele><time>2026-04-25T08:24:07.516Z</time></trkpt><trkpt lat="43.3403279" lon="12.6891208"><ele>434.0</ele><time>2026-04-25T08:24:09.52Z</time></trkpt><trkpt lat="43.3402601" lon="12.6892282"><ele>434.0</ele><time>2026-04-25T08:24:10.513Z</time></trkpt><trkpt lat="43.3401876" lon="12.6893551"><ele>431.0</ele><time>2026-04-25T08:24:11.508Z</time></trkpt><trkpt lat="43.3401255" lon="12.6894855"><ele>428.0</ele><time>2026-04-25T08:24:12.516Z</time></trkpt><trkpt lat="43.3400782" lon="12.6896138"><ele>425.0</ele><time>2026-04-25T08:24:13.516Z</time></trkpt><trkpt lat="43.3400308" lon="12.6897306"><ele>422.0</ele><time>2026-04-25T08:24:14.52Z</time></trkpt><trkpt lat="43.3399792" lon="12.6898325"><ele>419.0</ele><time>2026-04-25T08:24:15.506Z</time></trkpt><trkpt lat="43.3399201" lon="12.689917"><ele>419.0</ele><time>2026-04-25T08:24:16.507Z</time></trkpt><trkpt lat="43.3398634" lon="12.6899713"><ele>419.0</ele><time>2026-04-25T08:24:17.516Z</time></trkpt><trkpt lat="43.3397734" lon="12.6900277"><ele>419.0</ele><time>2026-04-25T08:24:19.518Z</time></trkpt><trkpt lat="43.3397093" lon="12.6900791"><ele>419.0</ele><time>2026-04-25T08:24:22.519Z</time></trkpt><trkpt lat="43.339649" lon="12.6901185"><ele>419.0</ele><time>2026-04-25T08:25:19.516Z</time></trkpt></trkseg><trkseg><trkpt lat="43.3395713" lon="12.690269"><ele>414.0</ele><time>2026-04-25T08:36:59.517Z</time></trkpt><trkpt lat="43.3395413" lon="12.6903764"><ele>414.0</ele><time>2026-04-25T08:37:01.509Z</time></trkpt><trkpt lat="43.3394977" lon="12.6905349"><ele>414.0</ele><time>2026-04-25T08:37:03.511Z</time></trkpt><trkpt lat="43.3394717" lon="12.6906138"><ele>414.0</ele><time>2026-04-25T08:37:04.52Z</time></trkpt><trkpt lat="43.3394213" lon="12.6907691"><ele>414.0</ele><time>2026-04-25T08:37:06.513Z</time></trkpt><trkpt lat="43.3393836" lon="12.6908395"><ele>414.0</ele><time>2026-04-25T08:37:07.517Z</time></trkpt><trkpt lat="43.3393264" lon="12.690902"><ele>414.0</ele><time>2026-04-25T08:37:08.518Z</time></trkpt><trkpt lat="43.3392641" lon="12.6909517"><ele>414.0</ele><time>2026-04-25T08:37:09.516Z</time></trkpt><trkpt lat="43.3391693" lon="12.6910016"><ele>414.0</ele><time>2026-04-25T08:37:11.517Z</time></trkpt><trkpt lat="43.3390871" lon="12.6910067"><ele>414.0</ele><time>2026-04-25T08:37:13.517Z</time></trkpt><trkpt lat="43.3390176" lon="12.6910005"><ele>414.0</ele><time>2026-04-25T08:37:15.518Z</time></trkpt><trkpt lat="43.338937" lon="12.6909976"><ele>414.0</ele><time>2026-04-25T08:37:17.515Z</time></trkpt><trkpt lat="43.3388892" lon="12.6910608"><ele>414.0</ele><time>2026-04-25T08:37:19.521Z</time></trkpt><trkpt lat="43.3389077" lon="12.6912083"><ele>414.0</ele><time>2026-04-25T08:37:21.521Z</time></trkpt><trkpt lat="43.3389422" lon="12.6912893"><ele>414.0</ele><time>2026-04-25T08:37:22.52Z</time></trkpt><trkpt lat="43.3389833" lon="12.6913759"><ele>414.0</ele><time>2026-04-25T08:37:23.517Z</time></trkpt><trkpt lat="43.3390217" lon="12.6914597"><ele>414.0</ele><time>2026-04-25T08:37:24.516Z</time></trkpt><trkpt lat="43.339057" lon="12.6915401"><ele>414.1666666666667</ele><time>2026-04-25T08:37:25.517Z</time></trkpt><trkpt lat="43.3390833" lon="12.691626"><ele>414.33333333333337</ele><time>2026-04-25T08:37:26.512Z</time></trkpt><trkpt lat="43.339099" lon="12.6917184"><ele>414.5</ele><time>2026-04-25T08:37:27.514Z</time></trkpt><trkpt lat="43.3391041" lon="12.6918299"><ele>414.6666666666667</ele><time>2026-04-25T08:37:28.522Z</time></trkpt><trkpt lat="43.3390926" lon="12.6919594"><ele>414.83333333333337</ele><time>2026-04-25T08:37:29.522Z</time></trkpt><trkpt lat="43.3390802" lon="12.6920977"><ele>415.0</ele><time>2026-04-25T08:37:30.518Z</time></trkpt><trkpt lat="43.339073" lon="12.6922412"><ele>415.8</ele><time>2026-04-25T08:37:31.511Z</time></trkpt><trkpt lat="43.3390754" lon="12.692378"><ele>416.6</ele><time>2026-04-25T08:37:32.521Z</time></trkpt><trkpt lat="43.3390846" lon="12.6925124"><ele>417.4</ele><time>2026-04-25T08:37:33.518Z</time></trkpt><trkpt lat="43.3390958" lon="12.6926484"><ele>418.2</ele><time>2026-04-25T08:37:34.519Z</time></trkpt><trkpt lat="43.3391175" lon="12.6927811"><ele>419.0</ele><time>2026-04-25T08:37:35.516Z</time></trkpt><trkpt lat="43.3391496" lon="12.6929182"><ele>420.25</ele><time>2026-04-25T08:37:36.509Z</time></trkpt><trkpt lat="43.3391871" lon="12.693065"><ele>421.5</ele><time>2026-04-25T08:37:37.521Z</time></trkpt><trkpt lat="43.3392251" lon="12.6932172"><ele>422.75</ele><time>2026-04-25T08:37:38.511Z</time></trkpt><trkpt lat="43.3392632" lon="12.6933709"><ele>424.0</ele><time>2026-04-25T08:37:39.52Z</time></trkpt><trkpt lat="43.3392995" lon="12.6935187"><ele>425.6</ele><time>2026-04-25T08:37:40.522Z</time></trkpt><trkpt lat="43.3393307" lon="12.693665"><ele>427.2</ele><time>2026-04-25T08:37:41.522Z</time></trkpt><trkpt lat="43.3393532" lon="12.69381"><ele>428.80000000000007</ele><time>2026-04-25T08:37:42.528Z</time></trkpt><trkpt lat="43.3393691" lon="12.6939495"><ele>430.40000000000003</ele><time>2026-04-25T08:37:43.524Z</time></trkpt><trkpt lat="43.3393804" lon="12.694088"><ele>432.0</ele><time>2026-04-25T08:37:44.517Z</time></trkpt><trkpt lat="43.3393885" lon="12.6942332"><ele>432.0</ele><time>2026-04-25T08:37:45.514Z</time></trkpt><trkpt lat="43.3393958" lon="12.6943728"><ele>432.00000000000006</ele><time>2026-04-25T08:37:46.52Z</time></trkpt><trkpt lat="43.3393927" lon="12.6944982"><ele>432.00000000000006</ele><time>2026-04-25T08:37:47.515Z</time></trkpt><trkpt lat="43.3393717" lon="12.6946108"><ele>432.0</ele><time>2026-04-25T08:37:48.518Z</time></trkpt><trkpt lat="43.3393293" lon="12.6947228"><ele>432.0</ele><time>2026-04-25T08:37:49.524Z</time></trkpt><trkpt lat="43.3392784" lon="12.6948373"><ele>433.40000000000003</ele><time>2026-04-25T08:37:50.515Z</time></trkpt><trkpt lat="43.3392256" lon="12.69496"><ele>434.80000000000007</ele><time>2026-04-25T08:37:51.519Z</time></trkpt><trkpt lat="43.339175" lon="12.6950917"><ele>436.2</ele><time>2026-04-25T08:37:52.515Z</time></trkpt><trkpt lat="43.3391235" lon="12.6952314"><ele>437.6</ele><time>2026-04-25T08:37:53.521Z</time></trkpt><trkpt lat="43.3390695" lon="12.6953792"><ele>439.0</ele><time>2026-04-25T08:37:54.521Z</time></trkpt><trkpt lat="43.3390133" lon="12.6955244"><ele>438.0</ele><time>2026-04-25T08:37:55.52Z</time></trkpt><trkpt lat="43.3389528" lon="12.6956625"><ele>437.0</ele><time>2026-04-25T08:37:56.516Z</time></trkpt><trkpt lat="43.3388923" lon="12.6957975"><ele>436.0</ele><time>2026-04-25T08:37:57.517Z</time></trkpt><trkpt lat="43.3388313" lon="12.6959235"><ele>435.0</ele><time>2026-04-25T08:37:58.524Z</time></trkpt><trkpt lat="43.338772" lon="12.6960387"><ele>434.0</ele><time>2026-04-25T08:37:59.521Z</time></trkpt><trkpt lat="43.3387147" lon="12.6961455"><ele>436.99999999999994</ele><time>2026-04-25T08:38:00.515Z</time></trkpt><trkpt lat="43.3386616" lon="12.6962455"><ele>440.0</ele><time>2026-04-25T08:38:01.518Z</time></trkpt><trkpt lat="43.3386134" lon="12.6963388"><ele>443.0</ele><time>2026-04-25T08:38:02.527Z</time></trkpt><trkpt lat="43.3385762" lon="12.6964302"><ele>446.0</ele><time>2026-04-25T08:38:03.518Z</time></trkpt><trkpt lat="43.3385435" lon="12.6965282"><ele>448.99999999999994</ele><time>2026-04-25T08:38:04.514Z</time></trkpt><trkpt lat="43.3385109" lon="12.6966189"><ele>452.0</ele><time>2026-04-25T08:38:05.509Z</time></trkpt><trkpt lat="43.3384695" lon="12.696687"><ele>451.99999999999994</ele><time>2026-04-25T08:38:06.523Z</time></trkpt><trkpt lat="43.3384124" lon="12.6967464"><ele>452.0</ele><time>2026-04-25T08:38:07.522Z</time></trkpt><trkpt lat="43.3383461" lon="12.6968137"><ele>452.0</ele><time>2026-04-25T08:38:08.52Z</time></trkpt><trkpt lat="43.3382828" lon="12.6969037"><ele>452.0</ele><time>2026-04-25T08:38:09.521Z</time></trkpt><trkpt lat="43.3382266" lon="12.697014"><ele>451.99999999999994</ele><time>2026-04-25T08:38:10.521Z</time></trkpt><trkpt lat="43.3381772" lon="12.6971346"><ele>452.0</ele><time>2026-04-25T08:38:11.521Z</time></trkpt><trkpt lat="43.3381372" lon="12.6972687"><ele>454.6</ele><time>2026-04-25T08:38:12.528Z</time></trkpt><trkpt lat="43.3381109" lon="12.6974105"><ele>457.20000000000005</ele><time>2026-04-25T08:38:13.517Z</time></trkpt><trkpt lat="43.338097" lon="12.6975482"><ele>459.8</ele><time>2026-04-25T08:38:14.515Z</time></trkpt><trkpt lat="43.3380907" lon="12.6976748"><ele>462.4</ele><time>2026-04-25T08:38:15.519Z</time></trkpt><trkpt lat="43.3380856" lon="12.6977835"><ele>465.0</ele><time>2026-04-25T08:38:16.523Z</time></trkpt><trkpt lat="43.338068" lon="12.6978841"><ele>466.4</ele><time>2026-04-25T08:38:17.522Z</time></trkpt><trkpt lat="43.3380342" lon="12.6979616"><ele>467.8</ele><time>2026-04-25T08:38:18.517Z</time></trkpt><trkpt lat="43.3379592" lon="12.6980676"><ele>469.20000000000005</ele><time>2026-04-25T08:38:20.522Z</time></trkpt><trkpt lat="43.3379856" lon="12.6981985"><ele>470.6</ele><time>2026-04-25T08:38:23.523Z</time></trkpt><trkpt lat="43.3381075" lon="12.6983229"><ele>472.0</ele><time>2026-04-25T08:38:25.514Z</time></trkpt><trkpt lat="43.3381964" lon="12.6983926"><ele>472.00000000000006</ele><time>2026-04-25T08:38:26.518Z</time></trkpt><trkpt lat="43.338275" lon="12.6984349"><ele>472.0</ele><time>2026-04-25T08:38:27.514Z</time></trkpt><trkpt lat="43.3383431" lon="12.6984503"><ele>472.0</ele><time>2026-04-25T08:38:28.524Z</time></trkpt><trkpt lat="43.3384453" lon="12.6984691"><ele>472.0</ele><time>2026-04-25T08:38:30.519Z</time></trkpt><trkpt lat="43.3385116" lon="12.6984802"><ele>472.00000000000006</ele><time>2026-04-25T08:38:44.532Z</time></trkpt><trkpt lat="43.3386142" lon="12.6984856"><ele>472.0</ele><time>2026-04-25T08:38:46.534Z</time></trkpt><trkpt lat="43.3386946" lon="12.6984976"><ele>472.0</ele><time>2026-04-25T08:38:47.522Z</time></trkpt><trkpt lat="43.3387971" lon="12.6985066"><ele>472.00000000000006</ele><time>2026-04-25T08:38:48.518Z</time></trkpt><trkpt lat="43.338909" lon="12.6985144"><ele>472.00000000000006</ele><time>2026-04-25T08:38:49.522Z</time></trkpt><trkpt lat="43.3390122" lon="12.6985337"><ele>472.0</ele><time>2026-04-25T08:38:50.514Z</time></trkpt><trkpt lat="43.3391048" lon="12.6985683"><ele>472.0</ele><time>2026-04-25T08:38:51.521Z</time></trkpt><trkpt lat="43.3391829" lon="12.6986194"><ele>473.33333333333337</ele><time>2026-04-25T08:38:52.526Z</time></trkpt><trkpt lat="43.3392547" lon="12.6986937"><ele>474.6666666666667</ele><time>2026-04-25T08:38:53.517Z</time></trkpt><trkpt lat="43.3393298" lon="12.6987654"><ele>476.0</ele><time>2026-04-25T08:38:54.523Z</time></trkpt><trkpt lat="43.339411" lon="12.6988163"><ele>477.33333333333337</ele><time>2026-04-25T08:38:55.511Z</time></trkpt><trkpt lat="43.3394905" lon="12.698845"><ele>478.6666666666667</ele><time>2026-04-25T08:38:56.513Z</time></trkpt><trkpt lat="43.3395865" lon="12.6988559"><ele>480.0</ele><time>2026-04-25T08:38:57.515Z</time></trkpt><trkpt lat="43.3396965" lon="12.6988526"><ele>481.0</ele><time>2026-04-25T08:38:58.511Z</time></trkpt><trkpt lat="43.3398227" lon="12.6988458"><ele>482.0</ele><time>2026-04-25T08:38:59.516Z</time></trkpt><trkpt lat="43.3399461" lon="12.6988563"><ele>483.0</ele><time>2026-04-25T08:39:00.518Z</time></trkpt><trkpt lat="43.3400694" lon="12.6988851"><ele>484.0</ele><time>2026-04-25T08:39:01.52Z</time></trkpt><trkpt lat="43.3401988" lon="12.6989216"><ele>484.0</ele><time>2026-04-25T08:39:02.52Z</time></trkpt><trkpt lat="43.3403316" lon="12.6989627"><ele>484.0</ele><time>2026-04-25T08:39:03.522Z</time></trkpt><trkpt lat="43.3404537" lon="12.6990004"><ele>484.0</ele><time>2026-04-25T08:39:04.518Z</time></trkpt><trkpt lat="43.3405633" lon="12.6990368"><ele>484.0</ele><time>2026-04-25T08:39:05.52Z</time></trkpt><trkpt lat="43.340671" lon="12.6990653"><ele>484.4</ele><time>2026-04-25T08:39:06.522Z</time></trkpt><trkpt lat="43.3407779" lon="12.6990749"><ele>484.79999999999995</ele><time>2026-04-25T08:39:07.515Z</time></trkpt><trkpt lat="43.3408867" lon="12.6990736"><ele>485.20000000000005</ele><time>2026-04-25T08:39:08.522Z</time></trkpt><trkpt lat="43.3409899" lon="12.6990722"><ele>485.6</ele><time>2026-04-25T08:39:09.52Z</time></trkpt><trkpt lat="43.3410922" lon="12.699074"><ele>486.0</ele><time>2026-04-25T08:39:10.509Z</time></trkpt><trkpt lat="43.3411963" lon="12.6990859"><ele>486.0</ele><time>2026-04-25T08:39:11.516Z</time></trkpt><trkpt lat="43.3413019" lon="12.6991176"><ele>486.0</ele><time>2026-04-25T08:39:12.526Z</time></trkpt><trkpt lat="43.3414095" lon="12.6991629"><ele>486.0</ele><time>2026-04-25T08:39:13.522Z</time></trkpt><trkpt lat="43.3415203" lon="12.6992195"><ele>486.0</ele><time>2026-04-25T08:39:14.521Z</time></trkpt><trkpt lat="43.341629" lon="12.6992888"><ele>485.0</ele><time>2026-04-25T08:39:15.513Z</time></trkpt><trkpt lat="43.3417352" lon="12.699369"><ele>484.0</ele><time>2026-04-25T08:39:16.522Z</time></trkpt><trkpt lat="43.3418382" lon="12.6994599"><ele>483.0</ele><time>2026-04-25T08:39:17.518Z</time></trkpt><trkpt lat="43.3419391" lon="12.6995614"><ele>482.0</ele><time>2026-04-25T08:39:18.514Z</time></trkpt><trkpt lat="43.3420274" lon="12.6996801"><ele>481.5</ele><time>2026-04-25T08:39:19.514Z</time></trkpt><trkpt lat="43.3421118" lon="12.6997995"><ele>481.0</ele><time>2026-04-25T08:39:20.52Z</time></trkpt><trkpt lat="43.3422031" lon="12.69991"><ele>480.5</ele><time>2026-04-25T08:39:21.509Z</time></trkpt><trkpt lat="43.3423035" lon="12.7000078"><ele>480.0</ele><time>2026-04-25T08:39:22.524Z</time></trkpt><trkpt lat="43.3424101" lon="12.7000983"><ele>479.75</ele><time>2026-04-25T08:39:23.518Z</time></trkpt><trkpt lat="43.3425189" lon="12.7001825"><ele>479.5</ele><time>2026-04-25T08:39:24.525Z</time></trkpt><trkpt lat="43.3426262" lon="12.7002724"><ele>479.25</ele><time>2026-04-25T08:39:25.515Z</time></trkpt><trkpt lat="43.3427354" lon="12.7003684"><ele>479.0</ele><time>2026-04-25T08:39:26.521Z</time></trkpt><trkpt lat="43.3428395" lon="12.7004711"><ele>479.0</ele><time>2026-04-25T08:39:27.518Z</time></trkpt><trkpt lat="43.3429356" lon="12.7005799"><ele>479.0</ele><time>2026-04-25T08:39:28.525Z</time></trkpt><trkpt lat="43.3430286" lon="12.700703"><ele>479.0</ele><time>2026-04-25T08:39:29.513Z</time></trkpt><trkpt lat="43.3431243" lon="12.7008367"><ele>479.0</ele><time>2026-04-25T08:39:30.518Z</time></trkpt><trkpt lat="43.3432347" lon="12.700962"><ele>479.0</ele><time>2026-04-25T08:39:31.509Z</time></trkpt><trkpt lat="43.3433547" lon="12.7010773"><ele>479.0</ele><time>2026-04-25T08:39:32.519Z</time></trkpt><trkpt lat="43.3434817" lon="12.7011856"><ele>479.0</ele><time>2026-04-25T08:39:33.523Z</time></trkpt><trkpt lat="43.3436079" lon="12.7012897"><ele>479.0</ele><time>2026-04-25T08:39:34.519Z</time></trkpt><trkpt lat="43.343732" lon="12.7013983"><ele>479.5</ele><time>2026-04-25T08:39:35.525Z</time></trkpt><trkpt lat="43.3438564" lon="12.7015122"><ele>480.0</ele><time>2026-04-25T08:39:36.526Z</time></trkpt><trkpt lat="43.3439786" lon="12.701629"><ele>480.5</ele><time>2026-04-25T08:39:37.526Z</time></trkpt><trkpt lat="43.3440983" lon="12.7017472"><ele>481.0</ele><time>2026-04-25T08:39:38.52Z</time></trkpt><trkpt lat="43.344219" lon="12.7018683"><ele>479.6666666666667</ele><time>2026-04-25T08:39:39.513Z</time></trkpt><trkpt lat="43.3443423" lon="12.7019891"><ele>478.33333333333337</ele><time>2026-04-25T08:39:40.517Z</time></trkpt><trkpt lat="43.3444708" lon="12.7021062"><ele>477.0</ele><time>2026-04-25T08:39:41.517Z</time></trkpt><trkpt lat="43.3446032" lon="12.7022173"><ele>476.0</ele><time>2026-04-25T08:39:42.527Z</time></trkpt><trkpt lat="43.3447402" lon="12.702318"><ele>475.0</ele><time>2026-04-25T08:39:43.515Z</time></trkpt><trkpt lat="43.3448818" lon="12.7024086"><ele>474.0</ele><time>2026-04-25T08:39:44.523Z</time></trkpt><trkpt lat="43.3450248" lon="12.702483"><ele>474.0</ele><time>2026-04-25T08:39:45.524Z</time></trkpt><trkpt lat="43.3451665" lon="12.7025489"><ele>474.0</ele><time>2026-04-25T08:39:46.522Z</time></trkpt><trkpt lat="43.3453033" lon="12.7026192"><ele>474.0</ele><time>2026-04-25T08:39:47.522Z</time></trkpt><trkpt lat="43.3454338" lon="12.7027064"><ele>474.0</ele><time>2026-04-25T08:39:48.525Z</time></trkpt><trkpt lat="43.3455564" lon="12.7028179"><ele>474.0</ele><time>2026-04-25T08:39:49.524Z</time></trkpt><trkpt lat="43.3456688" lon="12.7029423"><ele>474.0</ele><time>2026-04-25T08:39:50.524Z</time></trkpt><trkpt lat="43.3457741" lon="12.7030602"><ele>474.0</ele><time>2026-04-25T08:39:51.51Z</time></trkpt><trkpt lat="43.3458727" lon="12.7031643"><ele>474.0</ele><time>2026-04-25T08:39:52.529Z</time></trkpt><trkpt lat="43.3459737" lon="12.7032575"><ele>474.0</ele><time>2026-04-25T08:39:53.51Z</time></trkpt><trkpt lat="43.3460784" lon="12.7033387"><ele>474.0</ele><time>2026-04-25T08:39:54.519Z</time></trkpt><trkpt lat="43.3461864" lon="12.7034085"><ele>474.0</ele><time>2026-04-25T08:39:55.518Z</time></trkpt><trkpt lat="43.346295" lon="12.7034793"><ele>474.0</ele><time>2026-04-25T08:39:56.52Z</time></trkpt><trkpt lat="43.3463995" lon="12.7035641"><ele>472.75</ele><time>2026-04-25T08:39:57.518Z</time></trkpt><trkpt lat="43.3464987" lon="12.7036655"><ele>471.5</ele><time>2026-04-25T08:39:58.518Z</time></trkpt><trkpt lat="43.3465925" lon="12.7037682"><ele>470.25</ele><time>2026-04-25T08:39:59.524Z</time></trkpt><trkpt lat="43.3466925" lon="12.7038644"><ele>469.0</ele><time>2026-04-25T08:40:00.524Z</time></trkpt><trkpt lat="43.346797" lon="12.7039497"><ele>469.0</ele><time>2026-04-25T08:40:01.52Z</time></trkpt><trkpt lat="43.3469076" lon="12.7040192"><ele>469.0</ele><time>2026-04-25T08:40:02.525Z</time></trkpt><trkpt lat="43.347026" lon="12.7040797"><ele>469.0</ele><time>2026-04-25T08:40:03.515Z</time></trkpt><trkpt lat="43.3471473" lon="12.7041443"><ele>469.0</ele><time>2026-04-25T08:40:04.51Z</time></trkpt><trkpt lat="43.3472664" lon="12.7042217"><ele>468.75</ele><time>2026-04-25T08:40:05.524Z</time></trkpt><trkpt lat="43.3473815" lon="12.7043169"><ele>468.5</ele><time>2026-04-25T08:40:06.519Z</time></trkpt><trkpt lat="43.3474944" lon="12.7044187"><ele>468.25</ele><time>2026-04-25T08:40:07.519Z</time></trkpt><trkpt lat="43.3476053" lon="12.7045283"><ele>468.0</ele><time>2026-04-25T08:40:08.516Z</time></trkpt><trkpt lat="43.3477201" lon="12.7046308"><ele>468.0</ele><time>2026-04-25T08:40:09.514Z</time></trkpt><trkpt lat="43.3478316" lon="12.7047292"><ele>468.0</ele><time>2026-04-25T08:40:10.512Z</time></trkpt><trkpt lat="43.3479406" lon="12.7048317"><ele>468.0</ele><time>2026-04-25T08:40:11.516Z</time></trkpt><trkpt lat="43.3480518" lon="12.7049355"><ele>468.0</ele><time>2026-04-25T08:40:12.518Z</time></trkpt><trkpt lat="43.3481648" lon="12.7050394"><ele>468.0</ele><time>2026-04-25T08:40:13.516Z</time></trkpt><trkpt lat="43.3482738" lon="12.7051473"><ele>468.0</ele><time>2026-04-25T08:40:14.523Z</time></trkpt><trkpt lat="43.3483805" lon="12.7052623"><ele>468.0</ele><time>2026-04-25T08:40:15.521Z</time></trkpt><trkpt lat="43.3484873" lon="12.7053851"><ele>468.0</ele><time>2026-04-25T08:40:16.522Z</time></trkpt><trkpt lat="43.3486009" lon="12.7055148"><ele>468.33333333333337</ele><time>2026-04-25T08:40:17.523Z</time></trkpt><trkpt lat="43.3487253" lon="12.7056518"><ele>468.6666666666667</ele><time>2026-04-25T08:40:18.515Z</time></trkpt><trkpt lat="43.3488618" lon="12.7057905"><ele>469.0</ele><time>2026-04-25T08:40:19.523Z</time></trkpt><trkpt lat="43.3490081" lon="12.7059347"><ele>469.6666666666667</ele><time>2026-04-25T08:40:20.523Z</time></trkpt><trkpt lat="43.3491591" lon="12.706075"><ele>470.33333333333337</ele><time>2026-04-25T08:40:21.521Z</time></trkpt><trkpt lat="43.3493134" lon="12.7062111"><ele>471.0</ele><time>2026-04-25T08:40:22.527Z</time></trkpt><trkpt lat="43.3494756" lon="12.7063451"><ele>471.0</ele><time>2026-04-25T08:40:23.517Z</time></trkpt><trkpt lat="43.3496434" lon="12.7064776"><ele>471.0</ele><time>2026-04-25T08:40:24.517Z</time></trkpt><trkpt lat="43.3498184" lon="12.7066051"><ele>471.0</ele><time>2026-04-25T08:40:25.518Z</time></trkpt><trkpt lat="43.3499946" lon="12.7067297"><ele>471.0</ele><time>2026-04-25T08:40:26.514Z</time></trkpt><trkpt lat="43.3501782" lon="12.7068524"><ele>471.0</ele><time>2026-04-25T08:40:27.523Z</time></trkpt><trkpt lat="43.3503674" lon="12.7069703"><ele>471.0</ele><time>2026-04-25T08:40:28.524Z</time></trkpt><trkpt lat="43.3505611" lon="12.7070873"><ele>472.33333333333337</ele><time>2026-04-25T08:40:29.517Z</time></trkpt><trkpt lat="43.3507606" lon="12.7072044"><ele>473.6666666666667</ele><time>2026-04-25T08:40:30.51Z</time></trkpt><trkpt lat="43.3509608" lon="12.7073216"><ele>475.0</ele><time>2026-04-25T08:40:31.512Z</time></trkpt><trkpt lat="43.3511597" lon="12.7074358"><ele>475.0</ele><time>2026-04-25T08:40:32.526Z</time></trkpt><trkpt lat="43.3513524" lon="12.7075458"><ele>475.0</ele><time>2026-04-25T08:40:33.517Z</time></trkpt><trkpt lat="43.3515378" lon="12.7076526"><ele>475.0</ele><time>2026-04-25T08:40:34.518Z</time></trkpt><trkpt lat="43.3517187" lon="12.7077553"><ele>476.0</ele><time>2026-04-25T08:40:35.519Z</time></trkpt><trkpt lat="43.3518975" lon="12.7078537"><ele>477.0</ele><time>2026-04-25T08:40:36.513Z</time></trkpt><trkpt lat="43.3520698" lon="12.707951"><ele>478.0</ele><time>2026-04-25T08:40:37.516Z</time></trkpt><trkpt lat="43.3522282" lon="12.7080502"><ele>478.6666666666667</ele><time>2026-04-25T08:40:38.52Z</time></trkpt><trkpt lat="43.3523759" lon="12.7081644"><ele>479.33333333333337</ele><time>2026-04-25T08:40:39.517Z</time></trkpt><trkpt lat="43.3525209" lon="12.7083039"><ele>480.0</ele><time>2026-04-25T08:40:40.522Z</time></trkpt><trkpt lat="43.3526791" lon="12.7084682"><ele>480.0</ele><time>2026-04-25T08:40:41.522Z</time></trkpt><trkpt lat="43.3528487" lon="12.708642"><ele>480.0</ele><time>2026-04-25T08:40:42.516Z</time></trkpt><trkpt lat="43.3530371" lon="12.7088193"><ele>480.0</ele><time>2026-04-25T08:40:43.52Z</time></trkpt><trkpt lat="43.3532275" lon="12.7089735"><ele>481.33333333333337</ele><time>2026-04-25T08:40:44.521Z</time></trkpt><trkpt lat="43.3534018" lon="12.7091006"><ele>482.6666666666667</ele><time>2026-04-25T08:40:45.519Z</time></trkpt><trkpt lat="43.3535552" lon="12.7092095"><ele>484.0</ele><time>2026-04-25T08:40:46.517Z</time></trkpt><trkpt lat="43.3536843" lon="12.709315"><ele>484.2</ele><time>2026-04-25T08:40:47.519Z</time></trkpt><trkpt lat="43.3537936" lon="12.7094116"><ele>484.4</ele><time>2026-04-25T08:40:48.523Z</time></trkpt><trkpt lat="43.353886" lon="12.709502"><ele>484.6</ele><time>2026-04-25T08:40:49.523Z</time></trkpt><trkpt lat="43.3539579" lon="12.7096002"><ele>484.8</ele><time>2026-04-25T08:40:50.519Z</time></trkpt><trkpt lat="43.3540081" lon="12.709704"><ele>485.0</ele><time>2026-04-25T08:40:51.524Z</time></trkpt><trkpt lat="43.3540251" lon="12.7098173"><ele>487.0</ele><time>2026-04-25T08:40:52.525Z</time></trkpt><trkpt lat="43.3540118" lon="12.709949"><ele>489.0</ele><time>2026-04-25T08:40:53.523Z</time></trkpt><trkpt lat="43.3539791" lon="12.710103"><ele>491.0</ele><time>2026-04-25T08:40:54.516Z</time></trkpt><trkpt lat="43.3539375" lon="12.7102854"><ele>493.0</ele><time>2026-04-25T08:40:55.507Z</time></trkpt><trkpt lat="43.3539084" lon="12.7105077"><ele>493.33333333333337</ele><time>2026-04-25T08:40:56.522Z</time></trkpt><trkpt lat="43.3538821" lon="12.7107506"><ele>493.66666666666663</ele><time>2026-04-25T08:40:57.524Z</time></trkpt><trkpt lat="43.3538561" lon="12.7110126"><ele>494.0</ele><time>2026-04-25T08:40:58.523Z</time></trkpt><trkpt lat="43.3538235" lon="12.711279"><ele>493.3333333333333</ele><time>2026-04-25T08:40:59.523Z</time></trkpt><trkpt lat="43.3537887" lon="12.7115255"><ele>492.66666666666663</ele><time>2026-04-25T08:41:00.523Z</time></trkpt><trkpt lat="43.3537594" lon="12.7117471"><ele>492.0</ele><time>2026-04-25T08:41:01.527Z</time></trkpt><trkpt lat="43.3537343" lon="12.7119415"><ele>492.0</ele><time>2026-04-25T08:41:02.528Z</time></trkpt><trkpt lat="43.3537125" lon="12.7121121"><ele>492.00000000000006</ele><time>2026-04-25T08:41:03.523Z</time></trkpt><trkpt lat="43.353696" lon="12.712257"><ele>492.00000000000006</ele><time>2026-04-25T08:41:04.52Z</time></trkpt><trkpt lat="43.3536862" lon="12.7123817"><ele>492.0</ele><time>2026-04-25T08:41:05.522Z</time></trkpt><trkpt lat="43.3536768" lon="12.712488"><ele>492.0</ele><time>2026-04-25T08:41:06.524Z</time></trkpt><trkpt lat="43.3536543" lon="12.7125976"><ele>492.0</ele><time>2026-04-25T08:41:07.522Z</time></trkpt><trkpt lat="43.3536136" lon="12.7127248"><ele>492.0</ele><time>2026-04-25T08:41:08.509Z</time></trkpt><trkpt lat="43.3535572" lon="12.7128676"><ele>492.0</ele><time>2026-04-25T08:41:09.515Z</time></trkpt><trkpt lat="43.3534889" lon="12.713019"><ele>492.0</ele><time>2026-04-25T08:41:10.519Z</time></trkpt><trkpt lat="43.3534062" lon="12.7131845"><ele>492.5</ele><time>2026-04-25T08:41:11.522Z</time></trkpt><trkpt lat="43.3533119" lon="12.7133561"><ele>493.0</ele><time>2026-04-25T08:41:12.527Z</time></trkpt><trkpt lat="43.353218" lon="12.7135213"><ele>493.5</ele><time>2026-04-25T08:41:13.518Z</time></trkpt><trkpt lat="43.3531336" lon="12.7136748"><ele>494.0</ele><time>2026-04-25T08:41:14.518Z</time></trkpt><trkpt lat="43.3530514" lon="12.7138098"><ele>493.79999999999995</ele><time>2026-04-25T08:41:15.516Z</time></trkpt><trkpt lat="43.3529714" lon="12.7139181"><ele>493.59999999999997</ele><time>2026-04-25T08:41:16.522Z</time></trkpt><trkpt lat="43.3528876" lon="12.7139993"><ele>493.4</ele><time>2026-04-25T08:41:17.522Z</time></trkpt><trkpt lat="43.3527932" lon="12.7140603"><ele>493.2</ele><time>2026-04-25T08:41:18.519Z</time></trkpt><trkpt lat="43.352684" lon="12.7141149"><ele>493.0</ele><time>2026-04-25T08:41:19.522Z</time></trkpt><trkpt lat="43.3525652" lon="12.7141821"><ele>493.0</ele><time>2026-04-25T08:41:20.514Z</time></trkpt><trkpt lat="43.3524394" lon="12.7142696"><ele>493.0</ele><time>2026-04-25T08:41:21.523Z</time></trkpt><trkpt lat="43.3523021" lon="12.7143788"><ele>493.0</ele><time>2026-04-25T08:41:22.527Z</time></trkpt><trkpt lat="43.3521689" lon="12.7144876"><ele>492.25</ele><time>2026-04-25T08:41:23.518Z</time></trkpt><trkpt lat="43.3520421" lon="12.7145742"><ele>491.5</ele><time>2026-04-25T08:41:24.522Z</time></trkpt><trkpt lat="43.351909" lon="12.7146357"><ele>490.75</ele><time>2026-04-25T08:41:25.516Z</time></trkpt><trkpt lat="43.3517661" lon="12.7146777"><ele>490.0</ele><time>2026-04-25T08:41:26.523Z</time></trkpt><trkpt lat="43.3516181" lon="12.7147119"><ele>490.0</ele><time>2026-04-25T08:41:27.519Z</time></trkpt><trkpt lat="43.3514781" lon="12.714747"><ele>490.0</ele><time>2026-04-25T08:41:28.524Z</time></trkpt><trkpt lat="43.3513397" lon="12.7147778"><ele>490.0</ele><time>2026-04-25T08:41:29.514Z</time></trkpt><trkpt lat="43.3512076" lon="12.714804"><ele>490.0</ele><time>2026-04-25T08:41:30.518Z</time></trkpt><trkpt lat="43.3510815" lon="12.7148345"><ele>488.75</ele><time>2026-04-25T08:41:31.52Z</time></trkpt><trkpt lat="43.3509618" lon="12.7148702"><ele>487.5</ele><time>2026-04-25T08:41:32.512Z</time></trkpt><trkpt lat="43.3508478" lon="12.7149135"><ele>486.25</ele><time>2026-04-25T08:41:33.523Z</time></trkpt><trkpt lat="43.3507354" lon="12.7149652"><ele>485.0</ele><time>2026-04-25T08:41:34.524Z</time></trkpt><trkpt lat="43.3506242" lon="12.7150293"><ele>483.75</ele><time>2026-04-25T08:41:35.519Z</time></trkpt><trkpt lat="43.3505196" lon="12.7151039"><ele>482.5</ele><time>2026-04-25T08:41:36.525Z</time></trkpt><trkpt lat="43.3504198" lon="12.7151891"><ele>481.25</ele><time>2026-04-25T08:41:37.518Z</time></trkpt><trkpt lat="43.350328" lon="12.7152834"><ele>480.0</ele><time>2026-04-25T08:41:38.514Z</time></trkpt><trkpt lat="43.3502474" lon="12.7153819"><ele>480.0</ele><time>2026-04-25T08:41:39.513Z</time></trkpt><trkpt lat="43.3501766" lon="12.7154741"><ele>480.0</ele><time>2026-04-25T08:41:40.521Z</time></trkpt><trkpt lat="43.35012" lon="12.7155623"><ele>480.0</ele><time>2026-04-25T08:41:41.522Z</time></trkpt><trkpt lat="43.350075" lon="12.7156578"><ele>480.0</ele><time>2026-04-25T08:41:42.522Z</time></trkpt><trkpt lat="43.3500381" lon="12.7157653"><ele>480.0</ele><time>2026-04-25T08:41:43.524Z</time></trkpt><trkpt lat="43.3500081" lon="12.7158926"><ele>480.0</ele><time>2026-04-25T08:41:44.524Z</time></trkpt><trkpt lat="43.3499871" lon="12.7160462"><ele>480.0</ele><time>2026-04-25T08:41:45.522Z</time></trkpt><trkpt lat="43.3499664" lon="12.716211"><ele>480.0</ele><time>2026-04-25T08:41:46.522Z</time></trkpt><trkpt lat="43.3499451" lon="12.7163687"><ele>480.0</ele><time>2026-04-25T08:41:47.517Z</time></trkpt><trkpt lat="43.3499264" lon="12.7165116"><ele>479.8</ele><time>2026-04-25T08:41:48.513Z</time></trkpt><trkpt lat="43.3499091" lon="12.7166378"><ele>479.6</ele><time>2026-04-25T08:41:49.521Z</time></trkpt><trkpt lat="43.3498937" lon="12.7167453"><ele>479.4</ele><time>2026-04-25T08:41:50.522Z</time></trkpt><trkpt lat="43.3498831" lon="12.7168363"><ele>479.2</ele><time>2026-04-25T08:41:51.52Z</time></trkpt><trkpt lat="43.3498889" lon="12.716976"><ele>479.0</ele><time>2026-04-25T08:41:53.51Z</time></trkpt><trkpt lat="43.3499672" lon="12.7170973"><ele>479.0</ele><time>2026-04-25T08:41:55.51Z</time></trkpt><trkpt lat="43.3500267" lon="12.7171701"><ele>479.0</ele><time>2026-04-25T08:41:56.519Z</time></trkpt><trkpt lat="43.3500827" lon="12.7172625"><ele>479.0</ele><time>2026-04-25T08:41:57.517Z</time></trkpt><trkpt lat="43.3501273" lon="12.7173709"><ele>479.0</ele><time>2026-04-25T08:41:58.521Z</time></trkpt><trkpt lat="43.350163" lon="12.7174961"><ele>479.0</ele><time>2026-04-25T08:41:59.521Z</time></trkpt><trkpt lat="43.3501941" lon="12.7176361"><ele>479.25</ele><time>2026-04-25T08:42:00.525Z</time></trkpt><trkpt lat="43.3502248" lon="12.717796"><ele>479.5</ele><time>2026-04-25T08:42:01.517Z</time></trkpt><trkpt lat="43.3502609" lon="12.7179721"><ele>479.75</ele><time>2026-04-25T08:42:02.521Z</time></trkpt><trkpt lat="43.3502986" lon="12.7181427"><ele>480.0</ele><time>2026-04-25T08:42:03.518Z</time></trkpt><trkpt lat="43.3503355" lon="12.7183085"><ele>480.0</ele><time>2026-04-25T08:42:04.517Z</time></trkpt><trkpt lat="43.3503648" lon="12.7184763"><ele>480.0</ele><time>2026-04-25T08:42:05.523Z</time></trkpt><trkpt lat="43.350384" lon="12.7186338"><ele>480.0</ele><time>2026-04-25T08:42:06.524Z</time></trkpt><trkpt lat="43.3503949" lon="12.7187836"><ele>480.0</ele><time>2026-04-25T08:42:07.522Z</time></trkpt><trkpt lat="43.3504031" lon="12.7189321"><ele>480.4</ele><time>2026-04-25T08:42:08.521Z</time></trkpt><trkpt lat="43.3504071" lon="12.7190772"><ele>480.8</ele><time>2026-04-25T08:42:09.516Z</time></trkpt><trkpt lat="43.3504066" lon="12.7192105"><ele>481.20000000000005</ele><time>2026-04-25T08:42:10.523Z</time></trkpt><trkpt lat="43.3504032" lon="12.7193286"><ele>481.6</ele><time>2026-04-25T08:42:11.518Z</time></trkpt><trkpt lat="43.3503984" lon="12.7194319"><ele>482.0</ele><time>2026-04-25T08:42:12.525Z</time></trkpt><trkpt lat="43.3504363" lon="12.7195821"><ele>482.6</ele><time>2026-04-25T08:42:14.519Z</time></trkpt><trkpt lat="43.3504805" lon="12.7196651"><ele>483.20000000000005</ele><time>2026-04-25T08:42:15.517Z</time></trkpt><trkpt lat="43.3505191" lon="12.7197662"><ele>483.8</ele><time>2026-04-25T08:42:16.519Z</time></trkpt><trkpt lat="43.3505468" lon="12.7198905"><ele>484.4</ele><time>2026-04-25T08:42:17.522Z</time></trkpt><trkpt lat="43.3505697" lon="12.7200323"><ele>485.0</ele><time>2026-04-25T08:42:18.526Z</time></trkpt><trkpt lat="43.3506039" lon="12.7201887"><ele>487.25</ele><time>2026-04-25T08:42:19.52Z</time></trkpt><trkpt lat="43.350653" lon="12.7203512"><ele>489.5</ele><time>2026-04-25T08:42:20.519Z</time></trkpt><trkpt lat="43.3507126" lon="12.7205028"><ele>491.75</ele><time>2026-04-25T08:42:21.519Z</time></trkpt><trkpt lat="43.3507816" lon="12.720644"><ele>494.0</ele><time>2026-04-25T08:42:22.523Z</time></trkpt><trkpt lat="43.3508523" lon="12.7207723"><ele>494.0</ele><time>2026-04-25T08:42:23.516Z</time></trkpt><trkpt lat="43.3509193" lon="12.7208948"><ele>494.0</ele><time>2026-04-25T08:42:24.522Z</time></trkpt><trkpt lat="43.3509763" lon="12.7210085"><ele>494.0</ele><time>2026-04-25T08:42:25.518Z</time></trkpt><trkpt lat="43.3510231" lon="12.7211179"><ele>494.0</ele><time>2026-04-25T08:42:26.516Z</time></trkpt><trkpt lat="43.3510666" lon="12.7212216"><ele>494.0</ele><time>2026-04-25T08:42:27.519Z</time></trkpt><trkpt lat="43.3511102" lon="12.7213178"><ele>494.8333333333333</ele><time>2026-04-25T08:42:28.516Z</time></trkpt><trkpt lat="43.351155" lon="12.7214077"><ele>495.66666666666663</ele><time>2026-04-25T08:42:29.523Z</time></trkpt><trkpt lat="43.351199" lon="12.7214839"><ele>496.5</ele><time>2026-04-25T08:42:30.525Z</time></trkpt><trkpt lat="43.3512588" lon="12.721576"><ele>497.33333333333337</ele><time>2026-04-25T08:42:32.527Z</time></trkpt><trkpt lat="43.3512242" lon="12.7217078"><ele>498.1666666666667</ele><time>2026-04-25T08:42:40.523Z</time></trkpt><trkpt lat="43.3511641" lon="12.7218029"><ele>499.0</ele><time>2026-04-25T08:42:41.519Z</time></trkpt><trkpt lat="43.3510966" lon="12.7219172"><ele>499.75</ele><time>2026-04-25T08:42:42.515Z</time></trkpt><trkpt lat="43.35103" lon="12.7220576"><ele>500.5</ele><time>2026-04-25T08:42:43.511Z</time></trkpt><trkpt lat="43.3509639" lon="12.7222175"><ele>501.25</ele><time>2026-04-25T08:42:44.52Z</time></trkpt><trkpt lat="43.3508977" lon="12.7223829"><ele>502.0</ele><time>2026-04-25T08:42:45.522Z</time></trkpt><trkpt lat="43.3508209" lon="12.7225463"><ele>502.0</ele><time>2026-04-25T08:42:46.522Z</time></trkpt><trkpt lat="43.3507284" lon="12.7226919"><ele>502.0</ele><time>2026-04-25T08:42:47.518Z</time></trkpt><trkpt lat="43.3506173" lon="12.7228044"><ele>502.0</ele><time>2026-04-25T08:42:48.524Z</time></trkpt><trkpt lat="43.3504827" lon="12.7228799"><ele>502.0</ele><time>2026-04-25T08:42:49.519Z</time></trkpt><trkpt lat="43.3503283" lon="12.7229298"><ele>501.6666666666667</ele><time>2026-04-25T08:42:50.524Z</time></trkpt><trkpt lat="43.3501655" lon="12.7229721"><ele>501.33333333333337</ele><time>2026-04-25T08:42:51.521Z</time></trkpt><trkpt lat="43.349997" lon="12.7230189"><ele>501.0</ele><time>2026-04-25T08:42:52.519Z</time></trkpt><trkpt lat="43.3498299" lon="12.7230775"><ele>500.66666666666663</ele><time>2026-04-25T08:42:53.519Z</time></trkpt><trkpt lat="43.3496622" lon="12.7231506"><ele>500.3333333333333</ele><time>2026-04-25T08:42:54.522Z</time></trkpt><trkpt lat="43.3494893" lon="12.7232473"><ele>500.0</ele><time>2026-04-25T08:42:55.524Z</time></trkpt><trkpt lat="43.3493167" lon="12.7233585"><ele>500.0</ele><time>2026-04-25T08:42:56.521Z</time></trkpt><trkpt lat="43.3491528" lon="12.7234736"><ele>500.0</ele><time>2026-04-25T08:42:57.516Z</time></trkpt><trkpt lat="43.3489971" lon="12.7235865"><ele>500.0</ele><time>2026-04-25T08:42:58.524Z</time></trkpt><trkpt lat="43.3488492" lon="12.7236924"><ele>500.25</ele><time>2026-04-25T08:42:59.525Z</time></trkpt><trkpt lat="43.34871" lon="12.7237944"><ele>500.5</ele><time>2026-04-25T08:43:00.519Z</time></trkpt><trkpt lat="43.34858" lon="12.7238886"><ele>500.75</ele><time>2026-04-25T08:43:01.521Z</time></trkpt><trkpt lat="43.3484559" lon="12.7239795"><ele>501.0</ele><time>2026-04-25T08:43:02.524Z</time></trkpt><trkpt lat="43.3483357" lon="12.7240715"><ele>501.0</ele><time>2026-04-25T08:43:03.523Z</time></trkpt><trkpt lat="43.3482123" lon="12.7241675"><ele>501.0</ele><time>2026-04-25T08:43:04.517Z</time></trkpt><trkpt lat="43.3480766" lon="12.724268"><ele>501.0</ele><time>2026-04-25T08:43:05.525Z</time></trkpt><trkpt lat="43.3479297" lon="12.7243769"><ele>499.33333333333337</ele><time>2026-04-25T08:43:06.524Z</time></trkpt><trkpt lat="43.3477756" lon="12.724493"><ele>497.6666666666667</ele><time>2026-04-25T08:43:07.523Z</time></trkpt><trkpt lat="43.3476141" lon="12.7246162"><ele>496.0</ele><time>2026-04-25T08:43:08.523Z</time></trkpt><trkpt lat="43.3474411" lon="12.7247458"><ele>496.0</ele><time>2026-04-25T08:43:09.522Z</time></trkpt><trkpt lat="43.3472599" lon="12.7248826"><ele>496.0</ele><time>2026-04-25T08:43:10.522Z</time></trkpt><trkpt lat="43.3470714" lon="12.7250252"><ele>496.0</ele><time>2026-04-25T08:43:11.523Z</time></trkpt><trkpt lat="43.3468844" lon="12.7251686"><ele>496.33333333333337</ele><time>2026-04-25T08:43:12.527Z</time></trkpt><trkpt lat="43.3466997" lon="12.7253066"><ele>496.66666666666663</ele><time>2026-04-25T08:43:13.516Z</time></trkpt><trkpt lat="43.3465136" lon="12.7254442"><ele>497.0</ele><time>2026-04-25T08:43:14.522Z</time></trkpt><trkpt lat="43.3463251" lon="12.7255836"><ele>494.3333333333333</ele><time>2026-04-25T08:43:15.518Z</time></trkpt><trkpt lat="43.346135" lon="12.7257238"><ele>491.66666666666663</ele><time>2026-04-25T08:43:16.515Z</time></trkpt><trkpt lat="43.3459467" lon="12.7258637"><ele>489.0</ele><time>2026-04-25T08:43:17.52Z</time></trkpt><trkpt lat="43.3457591" lon="12.726004"><ele>489.0</ele><time>2026-04-25T08:43:18.525Z</time></trkpt><trkpt lat="43.3455722" lon="12.7261451"><ele>489.0</ele><time>2026-04-25T08:43:19.521Z</time></trkpt><trkpt lat="43.3453851" lon="12.7262823"><ele>489.0</ele><time>2026-04-25T08:43:20.522Z</time></trkpt><trkpt lat="43.3451976" lon="12.7264187"><ele>489.0</ele><time>2026-04-25T08:43:21.516Z</time></trkpt><trkpt lat="43.3450095" lon="12.7265562"><ele>489.0</ele><time>2026-04-25T08:43:22.527Z</time></trkpt><trkpt lat="43.3448219" lon="12.7266939"><ele>489.0</ele><time>2026-04-25T08:43:23.521Z</time></trkpt><trkpt lat="43.3446326" lon="12.726831"><ele>488.66666666666663</ele><time>2026-04-25T08:43:24.522Z</time></trkpt><trkpt lat="43.3444423" lon="12.72697"><ele>488.3333333333333</ele><time>2026-04-25T08:43:25.523Z</time></trkpt><trkpt lat="43.3442512" lon="12.7271094"><ele>488.0</ele><time>2026-04-25T08:43:26.523Z</time></trkpt><trkpt lat="43.3440614" lon="12.7272466"><ele>487.3333333333333</ele><time>2026-04-25T08:43:27.515Z</time></trkpt><trkpt lat="43.3438731" lon="12.7273825"><ele>486.66666666666663</ele><time>2026-04-25T08:43:28.526Z</time></trkpt><trkpt lat="43.3436848" lon="12.7275186"><ele>486.0</ele><time>2026-04-25T08:43:29.519Z</time></trkpt><trkpt lat="43.3434971" lon="12.7276519"><ele>487.0</ele><time>2026-04-25T08:43:30.517Z</time></trkpt><trkpt lat="43.3433093" lon="12.7277857"><ele>488.0</ele><time>2026-04-25T08:43:31.517Z</time></trkpt><trkpt lat="43.343122" lon="12.7279219"><ele>489.0</ele><time>2026-04-25T08:43:32.53Z</time></trkpt><trkpt lat="43.3429362" lon="12.7280585"><ele>489.0</ele><time>2026-04-25T08:43:33.523Z</time></trkpt><trkpt lat="43.3427502" lon="12.7281951"><ele>489.0</ele><time>2026-04-25T08:43:34.52Z</time></trkpt><trkpt lat="43.3425615" lon="12.7283295"><ele>489.0</ele><time>2026-04-25T08:43:35.511Z</time></trkpt><trkpt lat="43.3423743" lon="12.7284635"><ele>489.0</ele><time>2026-04-25T08:43:36.52Z</time></trkpt><trkpt lat="43.342192" lon="12.7285943"><ele>489.0</ele><time>2026-04-25T08:43:37.522Z</time></trkpt><trkpt lat="43.3420189" lon="12.7287197"><ele>489.0</ele><time>2026-04-25T08:43:38.515Z</time></trkpt><trkpt lat="43.341855" lon="12.7288419"><ele>489.0</ele><time>2026-04-25T08:43:39.52Z</time></trkpt><trkpt lat="43.3416982" lon="12.7289591"><ele>489.0</ele><time>2026-04-25T08:43:40.516Z</time></trkpt><trkpt lat="43.3415521" lon="12.7290663"><ele>489.0</ele><time>2026-04-25T08:43:41.523Z</time></trkpt><trkpt lat="43.3414153" lon="12.7291659"><ele>488.75</ele><time>2026-04-25T08:43:42.527Z</time></trkpt><trkpt lat="43.3412853" lon="12.729261"><ele>488.5</ele><time>2026-04-25T08:43:43.521Z</time></trkpt><trkpt lat="43.3411641" lon="12.72935"><ele>488.25</ele><time>2026-04-25T08:43:44.517Z</time></trkpt><trkpt lat="43.3410515" lon="12.7294327"><ele>488.0</ele><time>2026-04-25T08:43:45.523Z</time></trkpt><trkpt lat="43.3409467" lon="12.7295092"><ele>488.0</ele><time>2026-04-25T08:43:46.519Z</time></trkpt><trkpt lat="43.3408488" lon="12.7295798"><ele>487.99999999999994</ele><time>2026-04-25T08:43:47.514Z</time></trkpt><trkpt lat="43.3407586" lon="12.7296415"><ele>487.99999999999994</ele><time>2026-04-25T08:43:48.52Z</time></trkpt><trkpt lat="43.3406811" lon="12.7297017"><ele>488.0</ele><time>2026-04-25T08:43:49.524Z</time></trkpt><trkpt lat="43.3406134" lon="12.7297671"><ele>488.0</ele><time>2026-04-25T08:43:50.523Z</time></trkpt><trkpt lat="43.3405626" lon="12.7298454"><ele>488.3333333333333</ele><time>2026-04-25T08:43:51.524Z</time></trkpt><trkpt lat="43.3405354" lon="12.7299396"><ele>488.66666666666663</ele><time>2026-04-25T08:43:52.519Z</time></trkpt><trkpt lat="43.3405212" lon="12.7300321"><ele>489.0</ele><time>2026-04-25T08:43:53.522Z</time></trkpt><trkpt lat="43.3404751" lon="12.7301893"><ele>489.33333333333337</ele><time>2026-04-25T08:43:55.521Z</time></trkpt><trkpt lat="43.3404257" lon="12.7302709"><ele>489.6666666666667</ele><time>2026-04-25T08:43:56.518Z</time></trkpt><trkpt lat="43.3403471" lon="12.7303598"><ele>490.0</ele><time>2026-04-25T08:43:57.526Z</time></trkpt><trkpt lat="43.3402371" lon="12.730447"><ele>490.0</ele><time>2026-04-25T08:43:58.515Z</time></trkpt><trkpt lat="43.3400981" lon="12.730541"><ele>490.0</ele><time>2026-04-25T08:43:59.522Z</time></trkpt><trkpt lat="43.3399439" lon="12.7306435"><ele>490.0</ele><time>2026-04-25T08:44:00.525Z</time></trkpt><trkpt lat="43.3397879" lon="12.7307512"><ele>489.6666666666667</ele><time>2026-04-25T08:44:01.52Z</time></trkpt><trkpt lat="43.3396407" lon="12.7308579"><ele>489.33333333333337</ele><time>2026-04-25T08:44:02.531Z</time></trkpt><trkpt lat="43.3395029" lon="12.7309574"><ele>489.0</ele><time>2026-04-25T08:44:03.525Z</time></trkpt><trkpt lat="43.3393786" lon="12.7310489"><ele>489.4</ele><time>2026-04-25T08:44:04.523Z</time></trkpt><trkpt lat="43.3392726" lon="12.7311304"><ele>489.79999999999995</ele><time>2026-04-25T08:44:05.521Z</time></trkpt><trkpt lat="43.3391843" lon="12.731199"><ele>490.20000000000005</ele><time>2026-04-25T08:44:06.517Z</time></trkpt><trkpt lat="43.339111" lon="12.7312556"><ele>490.6</ele><time>2026-04-25T08:44:07.519Z</time></trkpt><trkpt lat="43.339059" lon="12.7313094"><ele>491.0</ele><time>2026-04-25T08:44:08.521Z</time></trkpt><trkpt lat="43.3390179" lon="12.7314407"><ele>491.0</ele><time>2026-04-25T08:44:10.515Z</time></trkpt><trkpt lat="43.3390594" lon="12.7315786"><ele>491.0</ele><time>2026-04-25T08:44:12.519Z</time></trkpt><trkpt lat="43.339159" lon="12.7316997"><ele>491.0</ele><time>2026-04-25T08:44:14.522Z</time></trkpt><trkpt lat="43.3392385" lon="12.7317752"><ele>491.0</ele><time>2026-04-25T08:44:15.516Z</time></trkpt><trkpt lat="43.3393346" lon="12.731868"><ele>492.0</ele><time>2026-04-25T08:44:16.523Z</time></trkpt><trkpt lat="43.3394431" lon="12.7319725"><ele>493.0</ele><time>2026-04-25T08:44:17.519Z</time></trkpt><trkpt lat="43.3395446" lon="12.7320822"><ele>494.0</ele><time>2026-04-25T08:44:18.526Z</time></trkpt><trkpt lat="43.3396363" lon="12.7322077"><ele>495.0</ele><time>2026-04-25T08:44:19.522Z</time></trkpt><trkpt lat="43.3397234" lon="12.732334"><ele>495.25</ele><time>2026-04-25T08:44:20.524Z</time></trkpt><trkpt lat="43.339818" lon="12.7324452"><ele>495.5</ele><time>2026-04-25T08:44:21.522Z</time></trkpt><trkpt lat="43.339922" lon="12.732546"><ele>495.75</ele><time>2026-04-25T08:44:22.53Z</time></trkpt><trkpt lat="43.3400327" lon="12.7326489"><ele>496.0</ele><time>2026-04-25T08:44:23.523Z</time></trkpt><trkpt lat="43.3401562" lon="12.7327735"><ele>497.5</ele><time>2026-04-25T08:44:24.521Z</time></trkpt><trkpt lat="43.3402861" lon="12.7329016"><ele>499.0</ele><time>2026-04-25T08:44:25.525Z</time></trkpt><trkpt lat="43.3404074" lon="12.7330214"><ele>500.5</ele><time>2026-04-25T08:44:26.512Z</time></trkpt><trkpt lat="43.3405135" lon="12.7331321"><ele>502.0</ele><time>2026-04-25T08:44:27.521Z</time></trkpt><trkpt lat="43.3406017" lon="12.7332284"><ele>502.8</ele><time>2026-04-25T08:44:28.516Z</time></trkpt><trkpt lat="43.3406722" lon="12.7333122"><ele>503.6</ele><time>2026-04-25T08:44:29.52Z</time></trkpt><trkpt lat="43.3407194" lon="12.7333821"><ele>504.40000000000003</ele><time>2026-04-25T08:44:30.521Z</time></trkpt><trkpt lat="43.3407273" lon="12.733546"><ele>505.20000000000005</ele><time>2026-04-25T08:44:32.522Z</time></trkpt><trkpt lat="43.3406879" lon="12.7336493"><ele>506.0</ele><time>2026-04-25T08:44:33.517Z</time></trkpt><trkpt lat="43.3406303" lon="12.733765"><ele>506.3333333333333</ele><time>2026-04-25T08:44:34.521Z</time></trkpt><trkpt lat="43.3405784" lon="12.7338853"><ele>506.66666666666663</ele><time>2026-04-25T08:44:35.515Z</time></trkpt><trkpt lat="43.3405405" lon="12.7339954"><ele>507.0</ele><time>2026-04-25T08:44:36.523Z</time></trkpt><trkpt lat="43.3405037" lon="12.7340952"><ele>507.33333333333337</ele><time>2026-04-25T08:44:37.524Z</time></trkpt><trkpt lat="43.3404587" lon="12.734177"><ele>507.6666666666667</ele><time>2026-04-25T08:44:38.521Z</time></trkpt><trkpt lat="43.3403957" lon="12.7342335"><ele>508.0</ele><time>2026-04-25T08:44:39.517Z</time></trkpt><trkpt lat="43.3403151" lon="12.7342693"><ele>508.0</ele><time>2026-04-25T08:44:40.514Z</time></trkpt><trkpt lat="43.3402228" lon="12.734297"><ele>507.99999999999994</ele><time>2026-04-25T08:44:41.519Z</time></trkpt><trkpt lat="43.3401195" lon="12.7343099"><ele>507.99999999999994</ele><time>2026-04-25T08:44:42.518Z</time></trkpt><trkpt lat="43.3400114" lon="12.7343049"><ele>508.0</ele><time>2026-04-25T08:44:43.524Z</time></trkpt><trkpt lat="43.339924" lon="12.734306"><ele>508.0</ele><time>2026-04-25T08:44:44.523Z</time></trkpt><trkpt lat="43.3398587" lon="12.7343272"><ele>508.00000000000006</ele><time>2026-04-25T08:44:45.523Z</time></trkpt><trkpt lat="43.3397996" lon="12.7343667"><ele>508.0</ele><time>2026-04-25T08:44:46.521Z</time></trkpt><trkpt lat="43.339742" lon="12.7344305"><ele>508.0</ele><time>2026-04-25T08:44:47.517Z</time></trkpt><trkpt lat="43.3396824" lon="12.734516"><ele>508.0</ele><time>2026-04-25T08:44:48.515Z</time></trkpt><trkpt lat="43.3396236" lon="12.7346091"><ele>508.00000000000006</ele><time>2026-04-25T08:44:49.523Z</time></trkpt><trkpt lat="43.3395634" lon="12.7347006"><ele>508.0</ele><time>2026-04-25T08:44:50.516Z</time></trkpt><trkpt lat="43.3394939" lon="12.7347806"><ele>507.6666666666667</ele><time>2026-04-25T08:44:51.516Z</time></trkpt><trkpt lat="43.3394187" lon="12.7348479"><ele>507.33333333333337</ele><time>2026-04-25T08:44:52.511Z</time></trkpt><trkpt lat="43.3393497" lon="12.7349037"><ele>507.0</ele><time>2026-04-25T08:44:53.522Z</time></trkpt><trkpt lat="43.3392868" lon="12.7349558"><ele>506.66666666666663</ele><time>2026-04-25T08:44:54.52Z</time></trkpt><trkpt lat="43.339227" lon="12.735015"><ele>506.3333333333333</ele><time>2026-04-25T08:44:55.515Z</time></trkpt><trkpt lat="43.3391748" lon="12.735086"><ele>506.0</ele><time>2026-04-25T08:44:56.521Z</time></trkpt><trkpt lat="43.33913" lon="12.7351764"><ele>505.5</ele><time>2026-04-25T08:44:57.524Z</time></trkpt><trkpt lat="43.3390778" lon="12.7352976"><ele>505.0</ele><time>2026-04-25T08:44:58.518Z</time></trkpt><trkpt lat="43.3390103" lon="12.7354473"><ele>504.5</ele><time>2026-04-25T08:44:59.518Z</time></trkpt><trkpt lat="43.3389353" lon="12.7356053"><ele>504.0</ele><time>2026-04-25T08:45:00.524Z</time></trkpt><trkpt lat="43.3388608" lon="12.735751"><ele>504.0</ele><time>2026-04-25T08:45:01.52Z</time></trkpt><trkpt lat="43.3387834" lon="12.7358777"><ele>504.0</ele><time>2026-04-25T08:45:02.522Z</time></trkpt><trkpt lat="43.3387083" lon="12.7359891"><ele>504.0</ele><time>2026-04-25T08:45:03.521Z</time></trkpt><trkpt lat="43.338635" lon="12.7360885"><ele>504.0</ele><time>2026-04-25T08:45:04.516Z</time></trkpt><trkpt lat="43.3385565" lon="12.7361852"><ele>504.0</ele><time>2026-04-25T08:45:05.512Z</time></trkpt><trkpt lat="43.3384744" lon="12.7362755"><ele>504.0</ele><time>2026-04-25T08:45:06.514Z</time></trkpt><trkpt lat="43.3383905" lon="12.7363516"><ele>504.0</ele><time>2026-04-25T08:45:07.509Z</time></trkpt><trkpt lat="43.3383093" lon="12.7364045"><ele>504.0</ele><time>2026-04-25T08:45:08.522Z</time></trkpt><trkpt lat="43.3382265" lon="12.7364391"><ele>504.0</ele><time>2026-04-25T08:45:09.52Z</time></trkpt><trkpt lat="43.3381492" lon="12.7364594"><ele>504.0</ele><time>2026-04-25T08:45:10.517Z</time></trkpt><trkpt lat="43.3380792" lon="12.7364594"><ele>504.0</ele><time>2026-04-25T08:45:11.525Z</time></trkpt><trkpt lat="43.3380095" lon="12.7364385"><ele>504.0</ele><time>2026-04-25T08:45:12.517Z</time></trkpt><trkpt lat="43.3379348" lon="12.7364163"><ele>504.0</ele><time>2026-04-25T08:45:13.524Z</time></trkpt><trkpt lat="43.3378575" lon="12.736421"><ele>504.0</ele><time>2026-04-25T08:45:14.522Z</time></trkpt><trkpt lat="43.3377847" lon="12.7364523"><ele>504.0</ele><time>2026-04-25T08:45:15.516Z</time></trkpt><trkpt lat="43.3377133" lon="12.7365"><ele>504.0</ele><time>2026-04-25T08:45:16.522Z</time></trkpt><trkpt lat="43.3376429" lon="12.7365568"><ele>504.0</ele><time>2026-04-25T08:45:17.521Z</time></trkpt><trkpt lat="43.3375712" lon="12.7366152"><ele>504.0</ele><time>2026-04-25T08:45:18.513Z</time></trkpt><trkpt lat="43.3374959" lon="12.7366759"><ele>504.0</ele><time>2026-04-25T08:45:19.518Z</time></trkpt><trkpt lat="43.3374175" lon="12.7367333"><ele>504.0</ele><time>2026-04-25T08:45:20.508Z</time></trkpt><trkpt lat="43.3373348" lon="12.7367836"><ele>504.0</ele><time>2026-04-25T08:45:21.519Z</time></trkpt><trkpt lat="43.3372478" lon="12.7368356"><ele>504.0</ele><time>2026-04-25T08:45:22.522Z</time></trkpt><trkpt lat="43.3371606" lon="12.7368859"><ele>503.4</ele><time>2026-04-25T08:45:23.52Z</time></trkpt><trkpt lat="43.3370711" lon="12.7369307"><ele>502.79999999999995</ele><time>2026-04-25T08:45:24.516Z</time></trkpt><trkpt lat="43.3369752" lon="12.736979"><ele>502.20000000000005</ele><time>2026-04-25T08:45:25.513Z</time></trkpt><trkpt lat="43.3368807" lon="12.7370424"><ele>501.6</ele><time>2026-04-25T08:45:26.521Z</time></trkpt><trkpt lat="43.3368022" lon="12.7371239"><ele>501.0</ele><time>2026-04-25T08:45:27.519Z</time></trkpt><trkpt lat="43.3367414" lon="12.7372256"><ele>501.0</ele><time>2026-04-25T08:45:28.519Z</time></trkpt><trkpt lat="43.3366903" lon="12.7373444"><ele>501.0</ele><time>2026-04-25T08:45:29.513Z</time></trkpt><trkpt lat="43.3366447" lon="12.7374636"><ele>501.0</ele><time>2026-04-25T08:45:30.521Z</time></trkpt><trkpt lat="43.3365925" lon="12.7375815"><ele>501.0</ele><time>2026-04-25T08:45:31.521Z</time></trkpt><trkpt lat="43.33654" lon="12.737695"><ele>501.0</ele><time>2026-04-25T08:45:32.514Z</time></trkpt><trkpt lat="43.3364868" lon="12.7378087"><ele>502.0</ele><time>2026-04-25T08:45:33.515Z</time></trkpt><trkpt lat="43.3364336" lon="12.7379303"><ele>503.0</ele><time>2026-04-25T08:45:34.511Z</time></trkpt><trkpt lat="43.3363827" lon="12.7380545"><ele>504.0</ele><time>2026-04-25T08:45:35.519Z</time></trkpt><trkpt lat="43.3363299" lon="12.7381793"><ele>505.0</ele><time>2026-04-25T08:45:36.508Z</time></trkpt><trkpt lat="43.336266" lon="12.7382898"><ele>506.0</ele><time>2026-04-25T08:45:37.52Z</time></trkpt><trkpt lat="43.3361977" lon="12.7383765"><ele>505.99999999999994</ele><time>2026-04-25T08:45:38.511Z</time></trkpt><trkpt lat="43.3361418" lon="12.7384353"><ele>506.0</ele><time>2026-04-25T08:45:39.517Z</time></trkpt><trkpt lat="43.3360536" lon="12.7385131"><ele>506.0</ele><time>2026-04-25T08:45:41.519Z</time></trkpt><trkpt lat="43.3359983" lon="12.7385679"><ele>506.0</ele><time>2026-04-25T08:45:42.523Z</time></trkpt><trkpt lat="43.3359297" lon="12.7386327"><ele>505.99999999999994</ele><time>2026-04-25T08:45:43.516Z</time></trkpt><trkpt lat="43.3358527" lon="12.7387054"><ele>506.0</ele><time>2026-04-25T08:45:44.509Z</time></trkpt><trkpt lat="43.3357704" lon="12.7387857"><ele>506.75</ele><time>2026-04-25T08:45:45.519Z</time></trkpt><trkpt lat="43.3356819" lon="12.7388731"><ele>507.5</ele><time>2026-04-25T08:45:46.51Z</time></trkpt><trkpt lat="43.3355902" lon="12.7389633"><ele>508.25</ele><time>2026-04-25T08:45:47.519Z</time></trkpt><trkpt lat="43.3354954" lon="12.7390543"><ele>509.0</ele><time>2026-04-25T08:45:48.518Z</time></trkpt><trkpt lat="43.3353952" lon="12.7391501"><ele>509.0</ele><time>2026-04-25T08:45:49.52Z</time></trkpt><trkpt lat="43.3352912" lon="12.7392553"><ele>509.0</ele><time>2026-04-25T08:45:50.518Z</time></trkpt><trkpt lat="43.3351803" lon="12.7393708"><ele>509.0</ele><time>2026-04-25T08:45:51.512Z</time></trkpt><trkpt lat="43.3350636" lon="12.7394919"><ele>509.0</ele><time>2026-04-25T08:45:52.521Z</time></trkpt><trkpt lat="43.3349452" lon="12.7396183"><ele>508.5</ele><time>2026-04-25T08:45:53.517Z</time></trkpt><trkpt lat="43.3348248" lon="12.7397438"><ele>508.0</ele><time>2026-04-25T08:45:54.52Z</time></trkpt><trkpt lat="43.3347103" lon="12.7398644"><ele>507.5</ele><time>2026-04-25T08:45:55.508Z</time></trkpt><trkpt lat="43.334599" lon="12.739979"><ele>507.0</ele><time>2026-04-25T08:45:56.511Z</time></trkpt><trkpt lat="43.334491" lon="12.7400909"><ele>507.0</ele><time>2026-04-25T08:45:57.518Z</time></trkpt><trkpt lat="43.3343813" lon="12.7402052"><ele>507.0</ele><time>2026-04-25T08:45:58.514Z</time></trkpt><trkpt lat="43.3342725" lon="12.7403187"><ele>507.0</ele><time>2026-04-25T08:45:59.513Z</time></trkpt><trkpt lat="43.3341659" lon="12.7404288"><ele>507.0</ele><time>2026-04-25T08:46:00.513Z</time></trkpt><trkpt lat="43.3340586" lon="12.7405394"><ele>507.75</ele><time>2026-04-25T08:46:01.515Z</time></trkpt><trkpt lat="43.3339522" lon="12.7406511"><ele>508.5</ele><time>2026-04-25T08:46:02.513Z</time></trkpt><trkpt lat="43.3338476" lon="12.7407595"><ele>509.25</ele><time>2026-04-25T08:46:03.512Z</time></trkpt><trkpt lat="43.3337464" lon="12.7408647"><ele>510.0</ele><time>2026-04-25T08:46:04.52Z</time></trkpt><trkpt lat="43.3336498" lon="12.7409613"><ele>509.6</ele><time>2026-04-25T08:46:05.521Z</time></trkpt><trkpt lat="43.3335589" lon="12.7410471"><ele>509.2</ele><time>2026-04-25T08:46:06.512Z</time></trkpt><trkpt lat="43.3334774" lon="12.7411255"><ele>508.79999999999995</ele><time>2026-04-25T08:46:07.519Z</time></trkpt><trkpt lat="43.3334059" lon="12.7411895"><ele>508.4</ele><time>2026-04-25T08:46:08.515Z</time></trkpt><trkpt lat="43.3333453" lon="12.7412417"><ele>508.0</ele><time>2026-04-25T08:46:09.513Z</time></trkpt><trkpt lat="43.3332545" lon="12.7413235"><ele>508.0</ele><time>2026-04-25T08:46:11.513Z</time></trkpt><trkpt lat="43.3332015" lon="12.7413786"><ele>507.99999999999994</ele><time>2026-04-25T08:46:12.522Z</time></trkpt><trkpt lat="43.3331481" lon="12.741469"><ele>507.99999999999994</ele><time>2026-04-25T08:46:13.515Z</time></trkpt><trkpt lat="43.3330961" lon="12.7416022"><ele>508.0</ele><time>2026-04-25T08:46:14.517Z</time></trkpt><trkpt lat="43.3330468" lon="12.7417646"><ele>508.0</ele><time>2026-04-25T08:46:15.523Z</time></trkpt><trkpt lat="43.3330008" lon="12.7419295"><ele>506.33333333333337</ele><time>2026-04-25T08:46:16.514Z</time></trkpt><trkpt lat="43.3329567" lon="12.7420685"><ele>504.6666666666667</ele><time>2026-04-25T08:46:17.524Z</time></trkpt><trkpt lat="43.3329266" lon="12.7421858"><ele>503.0</ele><time>2026-04-25T08:46:18.513Z</time></trkpt><trkpt lat="43.3329037" lon="12.7422857"><ele>501.33333333333337</ele><time>2026-04-25T08:46:19.513Z</time></trkpt><trkpt lat="43.3328718" lon="12.7424149"><ele>499.6666666666667</ele><time>2026-04-25T08:46:21.52Z</time></trkpt><trkpt lat="43.3328692" lon="12.7425085"><ele>498.0</ele><time>2026-04-25T08:46:23.522Z</time></trkpt><trkpt lat="43.3329237" lon="12.7426699"><ele>499.2</ele><time>2026-04-25T08:46:25.515Z</time></trkpt><trkpt lat="43.3329714" lon="12.7427573"><ele>500.4</ele><time>2026-04-25T08:46:26.51Z</time></trkpt><trkpt lat="43.333025" lon="12.7428547"><ele>501.59999999999997</ele><time>2026-04-25T08:46:27.515Z</time></trkpt><trkpt lat="43.3330937" lon="12.7429703"><ele>502.79999999999995</ele><time>2026-04-25T08:46:28.522Z</time></trkpt><trkpt lat="43.3331756" lon="12.7431001"><ele>504.0</ele><time>2026-04-25T08:46:29.52Z</time></trkpt><trkpt lat="43.3332668" lon="12.7432435"><ele>504.0</ele><time>2026-04-25T08:46:30.518Z</time></trkpt><trkpt lat="43.3333645" lon="12.743396"><ele>504.0</ele><time>2026-04-25T08:46:31.523Z</time></trkpt><trkpt lat="43.3334707" lon="12.7435509"><ele>504.0</ele><time>2026-04-25T08:46:32.522Z</time></trkpt><trkpt lat="43.3335771" lon="12.7437008"><ele>501.5</ele><time>2026-04-25T08:46:33.512Z</time></trkpt><trkpt lat="43.3336799" lon="12.7438397"><ele>499.0</ele><time>2026-04-25T08:46:34.519Z</time></trkpt><trkpt lat="43.3337797" lon="12.7439735"><ele>496.5</ele><time>2026-04-25T08:46:35.517Z</time></trkpt><trkpt lat="43.333874" lon="12.7441033"><ele>494.0</ele><time>2026-04-25T08:46:36.523Z</time></trkpt><trkpt lat="43.3339624" lon="12.744232"><ele>497.0</ele><time>2026-04-25T08:46:37.513Z</time></trkpt><trkpt lat="43.3340501" lon="12.7443582"><ele>500.0</ele><time>2026-04-25T08:46:38.519Z</time></trkpt><trkpt lat="43.3341381" lon="12.7444782"><ele>503.0</ele><time>2026-04-25T08:46:39.517Z</time></trkpt><trkpt lat="43.3342224" lon="12.7445928"><ele>506.0</ele><time>2026-04-25T08:46:40.518Z</time></trkpt><trkpt lat="43.3343045" lon="12.7447075"><ele>506.0</ele><time>2026-04-25T08:46:41.516Z</time></trkpt><trkpt lat="43.334375" lon="12.7448324"><ele>506.0</ele><time>2026-04-25T08:46:42.522Z</time></trkpt><trkpt lat="43.3344314" lon="12.7449688"><ele>506.0</ele><time>2026-04-25T08:46:43.517Z</time></trkpt><trkpt lat="43.3344817" lon="12.7451172"><ele>506.0</ele><time>2026-04-25T08:46:44.511Z</time></trkpt><trkpt lat="43.334529" lon="12.7452786"><ele>505.0</ele><time>2026-04-25T08:46:45.513Z</time></trkpt><trkpt lat="43.3345811" lon="12.7454408"><ele>504.0</ele><time>2026-04-25T08:46:46.512Z</time></trkpt><trkpt lat="43.3346306" lon="12.7456"><ele>503.0</ele><time>2026-04-25T08:46:47.516Z</time></trkpt><trkpt lat="43.3346828" lon="12.7457493"><ele>502.0</ele><time>2026-04-25T08:46:48.518Z</time></trkpt><trkpt lat="43.3347429" lon="12.7458744"><ele>505.75</ele><time>2026-04-25T08:46:49.514Z</time></trkpt><trkpt lat="43.3348179" lon="12.7459578"><ele>509.5</ele><time>2026-04-25T08:46:50.514Z</time></trkpt><trkpt lat="43.3349208" lon="12.7459932"><ele>513.25</ele><time>2026-04-25T08:46:51.516Z</time></trkpt><trkpt lat="43.3350483" lon="12.7459898"><ele>517.0</ele><time>2026-04-25T08:46:52.515Z</time></trkpt><trkpt lat="43.3351958" lon="12.7459767"><ele>517.0</ele><time>2026-04-25T08:46:53.508Z</time></trkpt><trkpt lat="43.3353506" lon="12.7459839"><ele>517.0</ele><time>2026-04-25T08:46:54.517Z</time></trkpt><trkpt lat="43.3355154" lon="12.7460247"><ele>517.0</ele><time>2026-04-25T08:46:55.518Z</time></trkpt><trkpt lat="43.3356796" lon="12.7460821"><ele>514.6666666666667</ele><time>2026-04-25T08:46:56.508Z</time></trkpt><trkpt lat="43.3358379" lon="12.7461457"><ele>512.3333333333334</ele><time>2026-04-25T08:46:57.514Z</time></trkpt><trkpt lat="43.3359927" lon="12.7462197"><ele>510.0</ele><time>2026-04-25T08:46:58.52Z</time></trkpt><trkpt lat="43.336149" lon="12.7463139"><ele>510.0</ele><time>2026-04-25T08:46:59.516Z</time></trkpt><trkpt lat="43.3363062" lon="12.7464203"><ele>510.0</ele><time>2026-04-25T08:47:00.512Z</time></trkpt><trkpt lat="43.3364803" lon="12.7465284"><ele>510.0</ele><time>2026-04-25T08:47:01.517Z</time></trkpt><trkpt lat="43.3366654" lon="12.7466307"><ele>512.6666666666666</ele><time>2026-04-25T08:47:02.517Z</time></trkpt><trkpt lat="43.3368406" lon="12.7467138"><ele>515.3333333333333</ele><time>2026-04-25T08:47:03.52Z</time></trkpt><trkpt lat="43.3370125" lon="12.7467725"><ele>518.0</ele><time>2026-04-25T08:47:04.518Z</time></trkpt><trkpt lat="43.3371735" lon="12.7468277"><ele>519.3333333333333</ele><time>2026-04-25T08:47:05.515Z</time></trkpt><trkpt lat="43.3373251" lon="12.7469051"><ele>520.6666666666666</ele><time>2026-04-25T08:47:06.516Z</time></trkpt><trkpt lat="43.3374682" lon="12.7470243"><ele>522.0</ele><time>2026-04-25T08:47:07.514Z</time></trkpt><trkpt lat="43.3376067" lon="12.7471787"><ele>522.0</ele><time>2026-04-25T08:47:08.51Z</time></trkpt><trkpt lat="43.3377376" lon="12.7473572"><ele>522.0</ele><time>2026-04-25T08:47:09.516Z</time></trkpt><trkpt lat="43.3378677" lon="12.747557"><ele>522.0</ele><time>2026-04-25T08:47:10.506Z</time></trkpt><trkpt lat="43.3380023" lon="12.7477596"><ele>522.0</ele><time>2026-04-25T08:47:11.51Z</time></trkpt><trkpt lat="43.3381364" lon="12.747952"><ele>522.0</ele><time>2026-04-25T08:47:12.519Z</time></trkpt><trkpt lat="43.3382699" lon="12.748129"><ele>522.0</ele><time>2026-04-25T08:47:13.511Z</time></trkpt><trkpt lat="43.3383947" lon="12.7482992"><ele>522.0</ele><time>2026-04-25T08:47:14.515Z</time></trkpt><trkpt lat="43.3385025" lon="12.7484575"><ele>522.0</ele><time>2026-04-25T08:47:15.514Z</time></trkpt><trkpt lat="43.3385861" lon="12.7485991"><ele>522.0</ele><time>2026-04-25T08:47:16.511Z</time></trkpt><trkpt lat="43.3386476" lon="12.7487232"><ele>522.0</ele><time>2026-04-25T08:47:17.511Z</time></trkpt><trkpt lat="43.338693" lon="12.7488352"><ele>524.0</ele><time>2026-04-25T08:47:18.509Z</time></trkpt><trkpt lat="43.3387246" lon="12.7489428"><ele>526.0</ele><time>2026-04-25T08:47:19.516Z</time></trkpt><trkpt lat="43.3387281" lon="12.7490494"><ele>528.0</ele><time>2026-04-25T08:47:20.514Z</time></trkpt><trkpt lat="43.3386918" lon="12.7491317"><ele>530.0</ele><time>2026-04-25T08:47:21.504Z</time></trkpt><trkpt lat="43.3386231" lon="12.7491642"><ele>532.0</ele><time>2026-04-25T08:47:22.513Z</time></trkpt><trkpt lat="43.3385459" lon="12.7491435"><ele>534.0</ele><time>2026-04-25T08:47:23.504Z</time></trkpt><trkpt lat="43.3384713" lon="12.7490575"><ele>534.0</ele><time>2026-04-25T08:47:24.509Z</time></trkpt><trkpt lat="43.3383883" lon="12.7489397"><ele>534.0</ele><time>2026-04-25T08:47:25.509Z</time></trkpt><trkpt lat="43.3382916" lon="12.7488105"><ele>534.0</ele><time>2026-04-25T08:47:26.514Z</time></trkpt><trkpt lat="43.3381772" lon="12.7486893"><ele>534.0</ele><time>2026-04-25T08:47:27.513Z</time></trkpt><trkpt lat="43.3380343" lon="12.7485921"><ele>534.3333333333334</ele><time>2026-04-25T08:47:28.507Z</time></trkpt><trkpt lat="43.3378735" lon="12.7484744"><ele>534.6666666666667</ele><time>2026-04-25T08:47:29.51Z</time></trkpt><trkpt lat="43.3377195" lon="12.7483184"><ele>535.0</ele><time>2026-04-25T08:47:30.511Z</time></trkpt><trkpt lat="43.3375761" lon="12.7481677"><ele>535.0</ele><time>2026-04-25T08:47:31.508Z</time></trkpt><trkpt lat="43.3374446" lon="12.7480323"><ele>535.0</ele><time>2026-04-25T08:47:32.515Z</time></trkpt><trkpt lat="43.3373208" lon="12.7479313"><ele>535.0</ele><time>2026-04-25T08:47:33.514Z</time></trkpt><trkpt lat="43.3371878" lon="12.7478581"><ele>541.3333333333334</ele><time>2026-04-25T08:47:34.513Z</time></trkpt><trkpt lat="43.3370462" lon="12.7478281"><ele>547.6666666666666</ele><time>2026-04-25T08:47:35.515Z</time></trkpt><trkpt lat="43.336889" lon="12.7478561"><ele>554.0</ele><time>2026-04-25T08:47:36.516Z</time></trkpt><trkpt lat="43.33673" lon="12.7479172"><ele>554.0</ele><time>2026-04-25T08:47:37.514Z</time></trkpt><trkpt lat="43.3365578" lon="12.7479588"><ele>554.0</ele><time>2026-04-25T08:47:38.508Z</time></trkpt><trkpt lat="43.3363711" lon="12.747969"><ele>554.0</ele><time>2026-04-25T08:47:39.516Z</time></trkpt><trkpt lat="43.3361576" lon="12.7479498"><ele>560.5</ele><time>2026-04-25T08:47:40.505Z</time></trkpt><trkpt lat="43.3359238" lon="12.7479335"><ele>567.0</ele><time>2026-04-25T08:47:41.511Z</time></trkpt><trkpt lat="43.3357049" lon="12.7479196"><ele>572.3333333333334</ele><time>2026-04-25T08:47:42.507Z</time></trkpt><trkpt lat="43.3355084" lon="12.7479063"><ele>577.6666666666667</ele><time>2026-04-25T08:47:43.513Z</time></trkpt><trkpt lat="43.3353371" lon="12.7478953"><ele>583.0</ele><time>2026-04-25T08:47:44.515Z</time></trkpt><trkpt lat="43.3351777" lon="12.7478752"><ele>583.0</ele><time>2026-04-25T08:47:45.514Z</time></trkpt><trkpt lat="43.3350221" lon="12.7478472"><ele>583.0</ele><time>2026-04-25T08:47:46.508Z</time></trkpt><trkpt lat="43.3348687" lon="12.7478196"><ele>583.0</ele><time>2026-04-25T08:47:47.51Z</time></trkpt><trkpt lat="43.3347295" lon="12.7477944"><ele>584.75</ele><time>2026-04-25T08:47:48.514Z</time></trkpt><trkpt lat="43.3345941" lon="12.7477682"><ele>586.5</ele><time>2026-04-25T08:47:49.512Z</time></trkpt><trkpt lat="43.3344602" lon="12.7477553"><ele>588.25</ele><time>2026-04-25T08:47:50.515Z</time></trkpt><trkpt lat="43.3343289" lon="12.7477608"><ele>590.0</ele><time>2026-04-25T08:47:51.515Z</time></trkpt><trkpt lat="43.3341985" lon="12.7477831"><ele>590.0</ele><time>2026-04-25T08:47:52.517Z</time></trkpt><trkpt lat="43.334074" lon="12.7478312"><ele>590.0</ele><time>2026-04-25T08:47:53.513Z</time></trkpt><trkpt lat="43.3339488" lon="12.7478952"><ele>590.0</ele><time>2026-04-25T08:47:54.521Z</time></trkpt><trkpt lat="43.3338314" lon="12.747986"><ele>590.0</ele><time>2026-04-25T08:47:55.514Z</time></trkpt><trkpt lat="43.333724" lon="12.7480911"><ele>588.0</ele><time>2026-04-25T08:47:56.517Z</time></trkpt><trkpt lat="43.3336276" lon="12.7481822"><ele>586.0</ele><time>2026-04-25T08:47:57.518Z</time></trkpt><trkpt lat="43.3335447" lon="12.7482607"><ele>584.0</ele><time>2026-04-25T08:47:58.514Z</time></trkpt><trkpt lat="43.3334719" lon="12.7483249"><ele>582.0</ele><time>2026-04-25T08:47:59.517Z</time></trkpt><trkpt lat="43.3334055" lon="12.7483767"><ele>580.0</ele><time>2026-04-25T08:48:00.517Z</time></trkpt><trkpt lat="43.3333418" lon="12.7484421"><ele>580.0</ele><time>2026-04-25T08:48:01.515Z</time></trkpt><trkpt lat="43.3332776" lon="12.748525"><ele>580.0</ele><time>2026-04-25T08:48:02.515Z</time></trkpt><trkpt lat="43.3332168" lon="12.7486363"><ele>580.0</ele><time>2026-04-25T08:48:03.512Z</time></trkpt><trkpt lat="43.3331739" lon="12.7487747"><ele>580.0</ele><time>2026-04-25T08:48:04.52Z</time></trkpt><trkpt lat="43.333152" lon="12.7489247"><ele>580.0</ele><time>2026-04-25T08:48:05.52Z</time></trkpt><trkpt lat="43.3331601" lon="12.7490719"><ele>579.25</ele><time>2026-04-25T08:48:06.515Z</time></trkpt><trkpt lat="43.333211" lon="12.7491924"><ele>578.5</ele><time>2026-04-25T08:48:07.517Z</time></trkpt><trkpt lat="43.3332936" lon="12.7493012"><ele>577.75</ele><time>2026-04-25T08:48:08.527Z</time></trkpt><trkpt lat="43.3334102" lon="12.7494123"><ele>577.0</ele><time>2026-04-25T08:48:09.519Z</time></trkpt><trkpt lat="43.3335446" lon="12.7495417"><ele>577.0</ele><time>2026-04-25T08:48:10.521Z</time></trkpt><trkpt lat="43.3336918" lon="12.7496974"><ele>577.0</ele><time>2026-04-25T08:48:11.509Z</time></trkpt><trkpt lat="43.3338456" lon="12.749862"><ele>577.0</ele><time>2026-04-25T08:48:12.517Z</time></trkpt><trkpt lat="43.3340086" lon="12.7500257"><ele>582.3333333333334</ele><time>2026-04-25T08:48:13.52Z</time></trkpt><trkpt lat="43.3341736" lon="12.7501771"><ele>587.6666666666666</ele><time>2026-04-25T08:48:14.518Z</time></trkpt><trkpt lat="43.3343399" lon="12.7503149"><ele>593.0</ele><time>2026-04-25T08:48:15.517Z</time></trkpt><trkpt lat="43.3345082" lon="12.7504612"><ele>593.0</ele><time>2026-04-25T08:48:16.516Z</time></trkpt><trkpt lat="43.3346739" lon="12.7506232"><ele>593.0</ele><time>2026-04-25T08:48:17.516Z</time></trkpt><trkpt lat="43.3348373" lon="12.7507937"><ele>593.0</ele><time>2026-04-25T08:48:18.517Z</time></trkpt><trkpt lat="43.3350019" lon="12.7509691"><ele>598.3333333333333</ele><time>2026-04-25T08:48:19.514Z</time></trkpt><trkpt lat="43.3351703" lon="12.7511429"><ele>603.6666666666666</ele><time>2026-04-25T08:48:20.518Z</time></trkpt><trkpt lat="43.3353421" lon="12.7513184"><ele>609.0</ele><time>2026-04-25T08:48:21.518Z</time></trkpt><trkpt lat="43.3355129" lon="12.7514967"><ele>612.3333333333334</ele><time>2026-04-25T08:48:22.52Z</time></trkpt><trkpt lat="43.3356827" lon="12.7516745"><ele>615.6666666666667</ele><time>2026-04-25T08:48:23.517Z</time></trkpt><trkpt lat="43.3358545" lon="12.751853"><ele>619.0</ele><time>2026-04-25T08:48:24.515Z</time></trkpt><trkpt lat="43.3360262" lon="12.752032"><ele>619.0</ele><time>2026-04-25T08:48:25.515Z</time></trkpt><trkpt lat="43.3361977" lon="12.7522124"><ele>619.0</ele><time>2026-04-25T08:48:26.519Z</time></trkpt><trkpt lat="43.3363693" lon="12.7523937"><ele>619.0</ele><time>2026-04-25T08:48:27.519Z</time></trkpt><trkpt lat="43.3365397" lon="12.7525775"><ele>623.6666666666667</ele><time>2026-04-25T08:48:28.515Z</time></trkpt><trkpt lat="43.3367075" lon="12.7527662"><ele>628.3333333333334</ele><time>2026-04-25T08:48:29.516Z</time></trkpt><trkpt lat="43.336867" lon="12.7529577"><ele>633.0</ele><time>2026-04-25T08:48:30.519Z</time></trkpt><trkpt lat="43.3370136" lon="12.7531437"><ele>633.0</ele><time>2026-04-25T08:48:31.518Z</time></trkpt><trkpt lat="43.3371445" lon="12.753324"><ele>633.0</ele><time>2026-04-25T08:48:32.521Z</time></trkpt><trkpt lat="43.3372656" lon="12.7535125"><ele>633.0</ele><time>2026-04-25T08:48:33.512Z</time></trkpt><trkpt lat="43.3373704" lon="12.7537052"><ele>640.25</ele><time>2026-04-25T08:48:34.517Z</time></trkpt><trkpt lat="43.3374527" lon="12.7538989"><ele>647.5</ele><time>2026-04-25T08:48:35.51Z</time></trkpt><trkpt lat="43.3375056" lon="12.7540864"><ele>654.75</ele><time>2026-04-25T08:48:36.52Z</time></trkpt><trkpt lat="43.3375312" lon="12.7542628"><ele>662.0</ele><time>2026-04-25T08:48:37.519Z</time></trkpt><trkpt lat="43.3375243" lon="12.7544376"><ele>662.0</ele><time>2026-04-25T08:48:38.518Z</time></trkpt><trkpt lat="43.3374943" lon="12.7546066"><ele>662.0</ele><time>2026-04-25T08:48:39.516Z</time></trkpt><trkpt lat="43.337452" lon="12.7547754"><ele>662.0</ele><time>2026-04-25T08:48:40.517Z</time></trkpt><trkpt lat="43.3374174" lon="12.7549244"><ele>662.0</ele><time>2026-04-25T08:48:41.51Z</time></trkpt><trkpt lat="43.3374138" lon="12.755034"><ele>662.0</ele><time>2026-04-25T08:48:42.524Z</time></trkpt><trkpt lat="43.3374567" lon="12.7551026"><ele>662.0</ele><time>2026-04-25T08:48:43.52Z</time></trkpt><trkpt lat="43.3375217" lon="12.755126"><ele>662.0</ele><time>2026-04-25T08:48:44.519Z</time></trkpt><trkpt lat="43.3375974" lon="12.7550886"><ele>662.0</ele><time>2026-04-25T08:48:45.518Z</time></trkpt><trkpt lat="43.3376538" lon="12.754984"><ele>662.0</ele><time>2026-04-25T08:48:46.522Z</time></trkpt><trkpt lat="43.3376841" lon="12.7548279"><ele>662.0</ele><time>2026-04-25T08:48:47.51Z</time></trkpt><trkpt lat="43.337711" lon="12.7546348"><ele>662.0</ele><time>2026-04-25T08:48:48.513Z</time></trkpt><trkpt lat="43.3377273" lon="12.7544161"><ele>662.0</ele><time>2026-04-25T08:48:49.511Z</time></trkpt><trkpt lat="43.3377317" lon="12.75417"><ele>662.0</ele><time>2026-04-25T08:48:50.507Z</time></trkpt><trkpt lat="43.3377165" lon="12.7539039"><ele>662.3333333333333</ele><time>2026-04-25T08:48:51.515Z</time></trkpt><trkpt lat="43.3376778" lon="12.7536332"><ele>662.6666666666666</ele><time>2026-04-25T08:48:52.512Z</time></trkpt><trkpt lat="43.3376135" lon="12.7533599"><ele>663.0</ele><time>2026-04-25T08:48:53.508Z</time></trkpt><trkpt lat="43.3375291" lon="12.753081"><ele>666.0</ele><time>2026-04-25T08:48:54.508Z</time></trkpt><trkpt lat="43.337434" lon="12.7528196"><ele>669.0</ele><time>2026-04-25T08:48:55.519Z</time></trkpt><trkpt lat="43.3373402" lon="12.7526023"><ele>672.0</ele><time>2026-04-25T08:48:56.514Z</time></trkpt><trkpt lat="43.3372561" lon="12.7524164"><ele>668.2</ele><time>2026-04-25T08:48:57.515Z</time></trkpt><trkpt lat="43.337191" lon="12.752254"><ele>664.4000000000001</ele><time>2026-04-25T08:48:58.516Z</time></trkpt><trkpt lat="43.3371484" lon="12.7521245"><ele>660.5999999999999</ele><time>2026-04-25T08:48:59.513Z</time></trkpt><trkpt lat="43.3371213" lon="12.7520164"><ele>656.8</ele><time>2026-04-25T08:49:00.522Z</time></trkpt><trkpt lat="43.3371338" lon="12.7519265"><ele>653.0</ele><time>2026-04-25T08:49:01.523Z</time></trkpt><trkpt lat="43.3371943" lon="12.7518744"><ele>660.25</ele><time>2026-04-25T08:49:02.527Z</time></trkpt><trkpt lat="43.3372744" lon="12.7518762"><ele>667.5</ele><time>2026-04-25T08:49:03.523Z</time></trkpt><trkpt lat="43.337357" lon="12.7519695"><ele>674.75</ele><time>2026-04-25T08:49:04.525Z</time></trkpt><trkpt lat="43.3374086" lon="12.7521269"><ele>682.0</ele><time>2026-04-25T08:49:05.526Z</time></trkpt><trkpt lat="43.3374364" lon="12.7523198"><ele>682.0</ele><time>2026-04-25T08:49:06.519Z</time></trkpt><trkpt lat="43.3374692" lon="12.7525215"><ele>682.0</ele><time>2026-04-25T08:49:07.526Z</time></trkpt><trkpt lat="43.3375399" lon="12.7527167"><ele>682.0</ele><time>2026-04-25T08:49:08.515Z</time></trkpt><trkpt lat="43.3376657" lon="12.7529057"><ele>684.0</ele><time>2026-04-25T08:49:09.514Z</time></trkpt><trkpt lat="43.3378122" lon="12.7531044"><ele>686.0</ele><time>2026-04-25T08:49:10.521Z</time></trkpt><trkpt lat="43.3379612" lon="12.7533117"><ele>688.0</ele><time>2026-04-25T08:49:11.52Z</time></trkpt><trkpt lat="43.338092" lon="12.7535329"><ele>691.3333333333334</ele><time>2026-04-25T08:49:12.525Z</time></trkpt><trkpt lat="43.3382147" lon="12.7537806"><ele>694.6666666666666</ele><time>2026-04-25T08:49:13.519Z</time></trkpt><trkpt lat="43.3383281" lon="12.7540488"><ele>698.0</ele><time>2026-04-25T08:49:14.508Z</time></trkpt><trkpt lat="43.338427" lon="12.7543131"><ele>696.3333333333333</ele><time>2026-04-25T08:49:15.512Z</time></trkpt><trkpt lat="43.3385117" lon="12.7545532"><ele>694.6666666666666</ele><time>2026-04-25T08:49:16.515Z</time></trkpt><trkpt lat="43.3385799" lon="12.7547732"><ele>693.0</ele><time>2026-04-25T08:49:17.519Z</time></trkpt><trkpt lat="43.3386403" lon="12.7549593"><ele>693.0</ele><time>2026-04-25T08:49:18.515Z</time></trkpt><trkpt lat="43.3387173" lon="12.7551116"><ele>693.0</ele><time>2026-04-25T08:49:19.521Z</time></trkpt><trkpt lat="43.3388325" lon="12.7552429"><ele>693.0</ele><time>2026-04-25T08:49:20.521Z</time></trkpt><trkpt lat="43.3389984" lon="12.7553586"><ele>695.6666666666666</ele><time>2026-04-25T08:49:21.516Z</time></trkpt><trkpt lat="43.3391891" lon="12.7554624"><ele>698.3333333333333</ele><time>2026-04-25T08:49:22.517Z</time></trkpt><trkpt lat="43.3393731" lon="12.7555759"><ele>701.0</ele><time>2026-04-25T08:49:23.516Z</time></trkpt><trkpt lat="43.3395435" lon="12.7556895"><ele>701.0</ele><time>2026-04-25T08:49:24.512Z</time></trkpt><trkpt lat="43.3397022" lon="12.7557944"><ele>701.0</ele><time>2026-04-25T08:49:25.516Z</time></trkpt><trkpt lat="43.3398463" lon="12.7558958"><ele>701.0</ele><time>2026-04-25T08:49:26.516Z</time></trkpt><trkpt lat="43.3399761" lon="12.7560098"><ele>706.0</ele><time>2026-04-25T08:49:27.509Z</time></trkpt><trkpt lat="43.340089" lon="12.7561477"><ele>711.0</ele><time>2026-04-25T08:49:28.516Z</time></trkpt><trkpt lat="43.3401829" lon="12.7563081"><ele>716.0</ele><time>2026-04-25T08:49:29.522Z</time></trkpt><trkpt lat="43.3402525" lon="12.7564918"><ele>716.0</ele><time>2026-04-25T08:49:30.522Z</time></trkpt><trkpt lat="43.3402946" lon="12.7567003"><ele>716.0</ele><time>2026-04-25T08:49:31.522Z</time></trkpt><trkpt lat="43.3403063" lon="12.756925"><ele>716.0</ele><time>2026-04-25T08:49:32.526Z</time></trkpt><trkpt lat="43.3402895" lon="12.7571657"><ele>718.6666666666666</ele><time>2026-04-25T08:49:33.522Z</time></trkpt><trkpt lat="43.3402721" lon="12.7574141"><ele>721.3333333333334</ele><time>2026-04-25T08:49:34.516Z</time></trkpt><trkpt lat="43.3402577" lon="12.7576642"><ele>724.0</ele><time>2026-04-25T08:49:35.524Z</time></trkpt><trkpt lat="43.3402479" lon="12.7579214"><ele>725.3333333333334</ele><time>2026-04-25T08:49:36.517Z</time></trkpt><trkpt lat="43.3402433" lon="12.7581945"><ele>726.6666666666666</ele><time>2026-04-25T08:49:37.521Z</time></trkpt><trkpt lat="43.3402434" lon="12.7584632"><ele>728.0</ele><time>2026-04-25T08:49:38.515Z</time></trkpt><trkpt lat="43.3402496" lon="12.7587028"><ele>728.0</ele><time>2026-04-25T08:49:39.521Z</time></trkpt><trkpt lat="43.3402687" lon="12.7589261"><ele>728.0</ele><time>2026-04-25T08:49:40.523Z</time></trkpt><trkpt lat="43.3403055" lon="12.7591384"><ele>728.0</ele><time>2026-04-25T08:49:41.519Z</time></trkpt><trkpt lat="43.340369" lon="12.7593344"><ele>723.0</ele><time>2026-04-25T08:49:42.522Z</time></trkpt><trkpt lat="43.3404621" lon="12.75954"><ele>718.0</ele><time>2026-04-25T08:49:43.523Z</time></trkpt><trkpt lat="43.340571" lon="12.7597508"><ele>713.0</ele><time>2026-04-25T08:49:44.519Z</time></trkpt><trkpt lat="43.340667" lon="12.7599456"><ele>723.0</ele><time>2026-04-25T08:49:45.516Z</time></trkpt><trkpt lat="43.3407519" lon="12.7601244"><ele>733.0</ele><time>2026-04-25T08:49:46.512Z</time></trkpt><trkpt lat="43.340839" lon="12.7602896"><ele>743.0</ele><time>2026-04-25T08:49:47.51Z</time></trkpt><trkpt lat="43.3409416" lon="12.7604519"><ele>743.0</ele><time>2026-04-25T08:49:48.519Z</time></trkpt><trkpt lat="43.3410693" lon="12.7606157"><ele>743.0</ele><time>2026-04-25T08:49:49.514Z</time></trkpt><trkpt lat="43.3412096" lon="12.7607865"><ele>743.0</ele><time>2026-04-25T08:49:50.523Z</time></trkpt><trkpt lat="43.3413552" lon="12.7609618"><ele>750.6666666666666</ele><time>2026-04-25T08:49:51.52Z</time></trkpt><trkpt lat="43.3414908" lon="12.7611335"><ele>758.3333333333334</ele><time>2026-04-25T08:49:52.519Z</time></trkpt><trkpt lat="43.3416139" lon="12.7613127"><ele>766.0</ele><time>2026-04-25T08:49:53.512Z</time></trkpt><trkpt lat="43.3417264" lon="12.761508"><ele>766.0</ele><time>2026-04-25T08:49:54.516Z</time></trkpt><trkpt lat="43.3418269" lon="12.7617188"><ele>766.0</ele><time>2026-04-25T08:49:55.519Z</time></trkpt><trkpt lat="43.3419184" lon="12.7619481"><ele>766.0</ele><time>2026-04-25T08:49:56.517Z</time></trkpt><trkpt lat="43.3420063" lon="12.7621877"><ele>764.3333333333334</ele><time>2026-04-25T08:49:57.509Z</time></trkpt><trkpt lat="43.3420929" lon="12.7624322"><ele>762.6666666666666</ele><time>2026-04-25T08:49:58.518Z</time></trkpt><trkpt lat="43.3421701" lon="12.7626835"><ele>761.0</ele><time>2026-04-25T08:49:59.516Z</time></trkpt><trkpt lat="43.3422301" lon="12.7629456"><ele>771.0</ele><time>2026-04-25T08:50:00.52Z</time></trkpt><trkpt lat="43.3422755" lon="12.7632142"><ele>781.0</ele><time>2026-04-25T08:50:01.511Z</time></trkpt><trkpt lat="43.3423098" lon="12.7634885"><ele>791.0</ele><time>2026-04-25T08:50:02.521Z</time></trkpt><trkpt lat="43.3423409" lon="12.7637672"><ele>792.0</ele><time>2026-04-25T08:50:03.518Z</time></trkpt><trkpt lat="43.3423698" lon="12.7640394"><ele>793.0</ele><time>2026-04-25T08:50:04.521Z</time></trkpt><trkpt lat="43.3423955" lon="12.7642925"><ele>794.0</ele><time>2026-04-25T08:50:05.515Z</time></trkpt><trkpt lat="43.3424205" lon="12.7645275"><ele>794.25</ele><time>2026-04-25T08:50:06.515Z</time></trkpt><trkpt lat="43.3424458" lon="12.7647457"><ele>794.5</ele><time>2026-04-25T08:50:07.518Z</time></trkpt><trkpt lat="43.3424683" lon="12.7649429"><ele>794.75</ele><time>2026-04-25T08:50:08.519Z</time></trkpt><trkpt lat="43.3424836" lon="12.7651171"><ele>795.0</ele><time>2026-04-25T08:50:09.521Z</time></trkpt><trkpt lat="43.3424941" lon="12.7652712"><ele>794.6666666666666</ele><time>2026-04-25T08:50:10.514Z</time></trkpt><trkpt lat="43.342507" lon="12.7654063"><ele>794.3333333333333</ele><time>2026-04-25T08:50:11.519Z</time></trkpt><trkpt lat="43.3425333" lon="12.7655277"><ele>794.0</ele><time>2026-04-25T08:50:12.519Z</time></trkpt><trkpt lat="43.3425837" lon="12.7656161"><ele>793.6666666666666</ele><time>2026-04-25T08:50:13.519Z</time></trkpt><trkpt lat="43.3426588" lon="12.765658"><ele>793.3333333333333</ele><time>2026-04-25T08:50:14.519Z</time></trkpt><trkpt lat="43.3427437" lon="12.7656331"><ele>793.0</ele><time>2026-04-25T08:50:15.52Z</time></trkpt><trkpt lat="43.3428058" lon="12.7655348"><ele>793.0</ele><time>2026-04-25T08:50:16.511Z</time></trkpt><trkpt lat="43.3428345" lon="12.7653771"><ele>793.0</ele><time>2026-04-25T08:50:17.514Z</time></trkpt><trkpt lat="43.3428377" lon="12.7651791"><ele>793.0</ele><time>2026-04-25T08:50:18.515Z</time></trkpt><trkpt lat="43.3428463" lon="12.7649533"><ele>793.0</ele><time>2026-04-25T08:50:19.521Z</time></trkpt><trkpt lat="43.3428817" lon="12.7647169"><ele>793.3333333333333</ele><time>2026-04-25T08:50:20.521Z</time></trkpt><trkpt lat="43.3429383" lon="12.7644661"><ele>793.6666666666667</ele><time>2026-04-25T08:50:21.514Z</time></trkpt><trkpt lat="43.3429982" lon="12.7642102"><ele>794.0</ele><time>2026-04-25T08:50:22.524Z</time></trkpt><trkpt lat="43.3430507" lon="12.763969"><ele>801.6666666666667</ele><time>2026-04-25T08:50:23.518Z</time></trkpt><trkpt lat="43.3430975" lon="12.7637466"><ele>809.3333333333333</ele><time>2026-04-25T08:50:24.519Z</time></trkpt><trkpt lat="43.3431564" lon="12.7635389"><ele>817.0</ele><time>2026-04-25T08:50:25.519Z</time></trkpt><trkpt lat="43.343241" lon="12.7633463"><ele>817.0</ele><time>2026-04-25T08:50:26.516Z</time></trkpt><trkpt lat="43.3433458" lon="12.7631906"><ele>817.0</ele><time>2026-04-25T08:50:27.518Z</time></trkpt><trkpt lat="43.3434373" lon="12.7630794"><ele>817.0</ele><time>2026-04-25T08:50:28.507Z</time></trkpt><trkpt lat="43.3435034" lon="12.763002"><ele>817.0</ele><time>2026-04-25T08:50:29.517Z</time></trkpt><trkpt lat="43.3435665" lon="12.7629306"><ele>817.0</ele><time>2026-04-25T08:50:30.513Z</time></trkpt><trkpt lat="43.343629" lon="12.7628592"><ele>817.0</ele><time>2026-04-25T08:50:31.519Z</time></trkpt><trkpt lat="43.3436876" lon="12.7627805"><ele>817.0</ele><time>2026-04-25T08:50:32.515Z</time></trkpt><trkpt lat="43.3437283" lon="12.7626787"><ele>817.0</ele><time>2026-04-25T08:50:33.523Z</time></trkpt><trkpt lat="43.3437441" lon="12.7625437"><ele>817.0</ele><time>2026-04-25T08:50:34.523Z</time></trkpt><trkpt lat="43.3437315" lon="12.7623652"><ele>817.0</ele><time>2026-04-25T08:50:35.52Z</time></trkpt><trkpt lat="43.3436981" lon="12.7621872"><ele>816.9999999999999</ele><time>2026-04-25T08:50:36.515Z</time></trkpt><trkpt lat="43.3436702" lon="12.7620409"><ele>817.0</ele><time>2026-04-25T08:50:37.523Z</time></trkpt><trkpt lat="43.3436643" lon="12.7619131"><ele>817.0</ele><time>2026-04-25T08:50:38.521Z</time></trkpt><trkpt lat="43.3436917" lon="12.7618168"><ele>817.0</ele><time>2026-04-25T08:50:39.522Z</time></trkpt><trkpt lat="43.3437524" lon="12.7617674"><ele>816.9999999999999</ele><time>2026-04-25T08:50:40.524Z</time></trkpt><trkpt lat="43.3438162" lon="12.7617913"><ele>817.0</ele><time>2026-04-25T08:50:41.522Z</time></trkpt><trkpt lat="43.3438679" lon="12.7618828"><ele>820.5</ele><time>2026-04-25T08:50:42.513Z</time></trkpt><trkpt lat="43.3439157" lon="12.762025"><ele>824.0</ele><time>2026-04-25T08:50:43.519Z</time></trkpt><trkpt lat="43.3439697" lon="12.7622008"><ele>827.5</ele><time>2026-04-25T08:50:44.523Z</time></trkpt><trkpt lat="43.3440295" lon="12.762386"><ele>831.0</ele><time>2026-04-25T08:50:45.52Z</time></trkpt><trkpt lat="43.3440874" lon="12.7625817"><ele>832.75</ele><time>2026-04-25T08:50:46.51Z</time></trkpt><trkpt lat="43.344138" lon="12.7627713"><ele>834.5</ele><time>2026-04-25T08:50:47.511Z</time></trkpt><trkpt lat="43.3441759" lon="12.7629456"><ele>836.25</ele><time>2026-04-25T08:50:48.523Z</time></trkpt><trkpt lat="43.3441968" lon="12.7631149"><ele>838.0</ele><time>2026-04-25T08:50:49.526Z</time></trkpt><trkpt lat="43.3441989" lon="12.7632785"><ele>838.0</ele><time>2026-04-25T08:50:50.519Z</time></trkpt><trkpt lat="43.3441919" lon="12.7634317"><ele>838.0</ele><time>2026-04-25T08:50:51.519Z</time></trkpt><trkpt lat="43.3441817" lon="12.7635706"><ele>838.0</ele><time>2026-04-25T08:50:52.52Z</time></trkpt><trkpt lat="43.34417" lon="12.7636988"><ele>838.0</ele><time>2026-04-25T08:50:53.518Z</time></trkpt><trkpt lat="43.3441603" lon="12.7638311"><ele>838.0</ele><time>2026-04-25T08:50:54.522Z</time></trkpt><trkpt lat="43.3441529" lon="12.7639824"><ele>839.25</ele><time>2026-04-25T08:50:55.521Z</time></trkpt><trkpt lat="43.3441512" lon="12.7641478"><ele>840.5</ele><time>2026-04-25T08:50:56.519Z</time></trkpt><trkpt lat="43.3441554" lon="12.7643129"><ele>841.75</ele><time>2026-04-25T08:50:57.518Z</time></trkpt><trkpt lat="43.3441711" lon="12.7644717"><ele>843.0</ele><time>2026-04-25T08:50:58.517Z</time></trkpt><trkpt lat="43.3442007" lon="12.7646307"><ele>843.6666666666667</ele><time>2026-04-25T08:50:59.521Z</time></trkpt><trkpt lat="43.3442438" lon="12.7648081"><ele>844.3333333333334</ele><time>2026-04-25T08:51:00.524Z</time></trkpt><trkpt lat="43.3443029" lon="12.7650186"><ele>845.0</ele><time>2026-04-25T08:51:01.519Z</time></trkpt><trkpt lat="43.3443616" lon="12.7652593"><ele>845.3333333333334</ele><time>2026-04-25T08:51:02.528Z</time></trkpt><trkpt lat="43.3444177" lon="12.7655131"><ele>845.6666666666667</ele><time>2026-04-25T08:51:03.52Z</time></trkpt><trkpt lat="43.3444678" lon="12.7657516"><ele>846.0</ele><time>2026-04-25T08:51:04.52Z</time></trkpt><trkpt lat="43.344511" lon="12.765962"><ele>847.0</ele><time>2026-04-25T08:51:05.515Z</time></trkpt><trkpt lat="43.344553" lon="12.766157"><ele>848.0</ele><time>2026-04-25T08:51:06.52Z</time></trkpt><trkpt lat="43.344592" lon="12.7663539"><ele>849.0</ele><time>2026-04-25T08:51:07.519Z</time></trkpt><trkpt lat="43.3446265" lon="12.7665506"><ele>850.0</ele><time>2026-04-25T08:51:08.522Z</time></trkpt><trkpt lat="43.3446491" lon="12.7667516"><ele>850.5</ele><time>2026-04-25T08:51:09.516Z</time></trkpt><trkpt lat="43.3446582" lon="12.7669541"><ele>851.0</ele><time>2026-04-25T08:51:10.514Z</time></trkpt><trkpt lat="43.3446552" lon="12.7671577"><ele>851.5</ele><time>2026-04-25T08:51:11.524Z</time></trkpt><trkpt lat="43.3446404" lon="12.7673597"><ele>852.0</ele><time>2026-04-25T08:51:12.524Z</time></trkpt><trkpt lat="43.3446194" lon="12.7675503"><ele>853.25</ele><time>2026-04-25T08:51:13.518Z</time></trkpt><trkpt lat="43.3445908" lon="12.7677257"><ele>854.5</ele><time>2026-04-25T08:51:14.517Z</time></trkpt><trkpt lat="43.3445584" lon="12.7678897"><ele>855.75</ele><time>2026-04-25T08:51:15.516Z</time></trkpt><trkpt lat="43.3445316" lon="12.7680419"><ele>857.0</ele><time>2026-04-25T08:51:16.513Z</time></trkpt><trkpt lat="43.3445174" lon="12.7681866"><ele>857.0</ele><time>2026-04-25T08:51:17.515Z</time></trkpt><trkpt lat="43.3445201" lon="12.7683386"><ele>857.0</ele><time>2026-04-25T08:51:18.518Z</time></trkpt><trkpt lat="43.3445335" lon="12.7684974"><ele>857.0</ele><time>2026-04-25T08:51:19.519Z</time></trkpt><trkpt lat="43.3445556" lon="12.7686615"><ele>857.0</ele><time>2026-04-25T08:51:20.517Z</time></trkpt><trkpt lat="43.3445811" lon="12.7688293"><ele>858.5</ele><time>2026-04-25T08:51:21.514Z</time></trkpt><trkpt lat="43.3446024" lon="12.7689993"><ele>860.0</ele><time>2026-04-25T08:51:22.522Z</time></trkpt><trkpt lat="43.3446119" lon="12.7691692"><ele>861.5</ele><time>2026-04-25T08:51:23.517Z</time></trkpt><trkpt lat="43.3446069" lon="12.7693383"><ele>863.0</ele><time>2026-04-25T08:51:24.518Z</time></trkpt><trkpt lat="43.3445889" lon="12.7695069"><ele>865.6666666666667</ele><time>2026-04-25T08:51:25.515Z</time></trkpt><trkpt lat="43.3445589" lon="12.7696922"><ele>868.3333333333333</ele><time>2026-04-25T08:51:26.518Z</time></trkpt><trkpt lat="43.3445267" lon="12.7699062"><ele>871.0</ele><time>2026-04-25T08:51:27.518Z</time></trkpt><trkpt lat="43.3444869" lon="12.7701553"><ele>876.0</ele><time>2026-04-25T08:51:28.513Z</time></trkpt><trkpt lat="43.3444373" lon="12.7704267"><ele>881.0</ele><time>2026-04-25T08:51:29.515Z</time></trkpt><trkpt lat="43.3443709" lon="12.7707074"><ele>886.0</ele><time>2026-04-25T08:51:30.519Z</time></trkpt><trkpt lat="43.3442829" lon="12.7709924"><ele>891.6666666666666</ele><time>2026-04-25T08:51:31.517Z</time></trkpt><trkpt lat="43.3441791" lon="12.7712695"><ele>897.3333333333333</ele><time>2026-04-25T08:51:32.521Z</time></trkpt><trkpt lat="43.3440634" lon="12.7715211"><ele>903.0</ele><time>2026-04-25T08:51:33.52Z</time></trkpt><trkpt lat="43.3439403" lon="12.7717506"><ele>901.6666666666667</ele><time>2026-04-25T08:51:34.512Z</time></trkpt><trkpt lat="43.3438203" lon="12.7719702"><ele>900.3333333333334</ele><time>2026-04-25T08:51:35.522Z</time></trkpt><trkpt lat="43.3437149" lon="12.7721807"><ele>899.0</ele><time>2026-04-25T08:51:36.513Z</time></trkpt><trkpt lat="43.343624" lon="12.7723875"><ele>899.0</ele><time>2026-04-25T08:51:37.515Z</time></trkpt><trkpt lat="43.3435413" lon="12.7725956"><ele>899.0</ele><time>2026-04-25T08:51:38.522Z</time></trkpt><trkpt lat="43.3434608" lon="12.7728019"><ele>899.0</ele><time>2026-04-25T08:51:39.517Z</time></trkpt><trkpt lat="43.343382" lon="12.7730028"><ele>905.0</ele><time>2026-04-25T08:51:40.521Z</time></trkpt><trkpt lat="43.3433019" lon="12.7732149"><ele>911.0</ele><time>2026-04-25T08:51:41.511Z</time></trkpt><trkpt lat="43.3432109" lon="12.7734515"><ele>917.0</ele><time>2026-04-25T08:51:42.526Z</time></trkpt><trkpt lat="43.343103" lon="12.7737022"><ele>915.0</ele><time>2026-04-25T08:51:43.519Z</time></trkpt><trkpt lat="43.3429901" lon="12.7739354"><ele>913.0</ele><time>2026-04-25T08:51:44.515Z</time></trkpt><trkpt lat="43.3428892" lon="12.7741467"><ele>911.0</ele><time>2026-04-25T08:51:45.513Z</time></trkpt><trkpt lat="43.3428052" lon="12.7743425"><ele>914.75</ele><time>2026-04-25T08:51:46.51Z</time></trkpt><trkpt lat="43.3427311" lon="12.7745176"><ele>918.5</ele><time>2026-04-25T08:51:47.518Z</time></trkpt><trkpt lat="43.3426638" lon="12.7746695"><ele>922.25</ele><time>2026-04-25T08:51:48.518Z</time></trkpt><trkpt lat="43.3426049" lon="12.7748076"><ele>926.0</ele><time>2026-04-25T08:51:49.514Z</time></trkpt><trkpt lat="43.3425536" lon="12.7749326"><ele>926.0</ele><time>2026-04-25T08:51:50.518Z</time></trkpt><trkpt lat="43.342504" lon="12.7750494"><ele>925.9999999999999</ele><time>2026-04-25T08:51:51.512Z</time></trkpt><trkpt lat="43.3424561" lon="12.7751596"><ele>925.9999999999999</ele><time>2026-04-25T08:51:52.513Z</time></trkpt><trkpt lat="43.3424093" lon="12.7752682"><ele>926.0</ele><time>2026-04-25T08:51:53.517Z</time></trkpt><trkpt lat="43.3423617" lon="12.7753795"><ele>926.0</ele><time>2026-04-25T08:51:54.52Z</time></trkpt><trkpt lat="43.3423104" lon="12.7754952"><ele>924.8</ele><time>2026-04-25T08:51:55.522Z</time></trkpt><trkpt lat="43.3422555" lon="12.7756183"><ele>923.5999999999999</ele><time>2026-04-25T08:51:56.511Z</time></trkpt><trkpt lat="43.3422007" lon="12.7757486"><ele>922.4</ele><time>2026-04-25T08:51:57.509Z</time></trkpt><trkpt lat="43.3421471" lon="12.7758838"><ele>921.2</ele><time>2026-04-25T08:51:58.521Z</time></trkpt><trkpt lat="43.342098" lon="12.7760248"><ele>920.0</ele><time>2026-04-25T08:51:59.515Z</time></trkpt><trkpt lat="43.3420503" lon="12.7761695"><ele>923.0</ele><time>2026-04-25T08:52:00.523Z</time></trkpt><trkpt lat="43.3420066" lon="12.7763162"><ele>926.0</ele><time>2026-04-25T08:52:01.521Z</time></trkpt><trkpt lat="43.341967" lon="12.7764566"><ele>929.0</ele><time>2026-04-25T08:52:02.524Z</time></trkpt><trkpt lat="43.3419275" lon="12.7765905"><ele>932.0</ele><time>2026-04-25T08:52:03.522Z</time></trkpt><trkpt lat="43.3418846" lon="12.7767229"><ele>935.0</ele><time>2026-04-25T08:52:04.516Z</time></trkpt><trkpt lat="43.3418421" lon="12.7768552"><ele>938.4</ele><time>2026-04-25T08:52:05.516Z</time></trkpt><trkpt lat="43.3418022" lon="12.7769856"><ele>941.8</ele><time>2026-04-25T08:52:06.521Z</time></trkpt><trkpt lat="43.3417618" lon="12.7771153"><ele>945.2</ele><time>2026-04-25T08:52:07.521Z</time></trkpt><trkpt lat="43.3417201" lon="12.7772429"><ele>948.6</ele><time>2026-04-25T08:52:08.518Z</time></trkpt><trkpt lat="43.3416787" lon="12.7773677"><ele>952.0</ele><time>2026-04-25T08:52:09.511Z</time></trkpt><trkpt lat="43.3416333" lon="12.7774885"><ele>952.0</ele><time>2026-04-25T08:52:10.522Z</time></trkpt><trkpt lat="43.341581" lon="12.7776015"><ele>952.0</ele><time>2026-04-25T08:52:11.516Z</time></trkpt><trkpt lat="43.341518" lon="12.7777057"><ele>952.0</ele><time>2026-04-25T08:52:12.528Z</time></trkpt><trkpt lat="43.3414474" lon="12.7778099"><ele>952.0</ele><time>2026-04-25T08:52:13.521Z</time></trkpt><trkpt lat="43.3413737" lon="12.7779162"><ele>952.0</ele><time>2026-04-25T08:52:14.515Z</time></trkpt><trkpt lat="43.3412965" lon="12.7780246"><ele>951.2</ele><time>2026-04-25T08:52:15.52Z</time></trkpt><trkpt lat="43.3412221" lon="12.7781262"><ele>950.4000000000001</ele><time>2026-04-25T08:52:16.52Z</time></trkpt><trkpt lat="43.3411519" lon="12.7782196"><ele>949.5999999999999</ele><time>2026-04-25T08:52:17.52Z</time></trkpt><trkpt lat="43.3410837" lon="12.7783064"><ele>948.8</ele><time>2026-04-25T08:52:18.51Z</time></trkpt><trkpt lat="43.3410173" lon="12.7783922"><ele>948.0</ele><time>2026-04-25T08:52:19.521Z</time></trkpt><trkpt lat="43.3409568" lon="12.7784789"><ele>950.2857142857142</ele><time>2026-04-25T08:52:20.517Z</time></trkpt><trkpt lat="43.340906" lon="12.7785675"><ele>952.5714285714286</ele><time>2026-04-25T08:52:21.521Z</time></trkpt><trkpt lat="43.3408695" lon="12.7786588"><ele>954.8571428571429</ele><time>2026-04-25T08:52:22.525Z</time></trkpt><trkpt lat="43.3408504" lon="12.778754"><ele>957.1428571428571</ele><time>2026-04-25T08:52:23.513Z</time></trkpt><trkpt lat="43.3408535" lon="12.7788426"><ele>959.4285714285716</ele><time>2026-04-25T08:52:24.518Z</time></trkpt><trkpt lat="43.3408754" lon="12.7789342"><ele>961.7142857142858</ele><time>2026-04-25T08:52:25.522Z</time></trkpt><trkpt lat="43.3409174" lon="12.7790109"><ele>964.0</ele><time>2026-04-25T08:52:26.519Z</time></trkpt><trkpt lat="43.340981" lon="12.7790511"><ele>964.0</ele><time>2026-04-25T08:52:27.522Z</time></trkpt><trkpt lat="43.3410566" lon="12.7790554"><ele>964.0000000000001</ele><time>2026-04-25T08:52:28.517Z</time></trkpt><trkpt lat="43.3411348" lon="12.7790195"><ele>964.0000000000001</ele><time>2026-04-25T08:52:29.521Z</time></trkpt><trkpt lat="43.3412231" lon="12.7789433"><ele>964.0</ele><time>2026-04-25T08:52:30.522Z</time></trkpt><trkpt lat="43.3413339" lon="12.7788238"><ele>964.0</ele><time>2026-04-25T08:52:31.521Z</time></trkpt><trkpt lat="43.3414652" lon="12.7786907"><ele>964.0</ele><time>2026-04-25T08:52:32.526Z</time></trkpt><trkpt lat="43.3416076" lon="12.778537"><ele>964.0</ele><time>2026-04-25T08:52:33.516Z</time></trkpt><trkpt lat="43.341766" lon="12.7783545"><ele>964.0</ele><time>2026-04-25T08:52:34.511Z</time></trkpt><trkpt lat="43.3419491" lon="12.7781529"><ele>964.0</ele><time>2026-04-25T08:52:35.519Z</time></trkpt><trkpt lat="43.3421412" lon="12.7779361"><ele>964.0</ele><time>2026-04-25T08:52:36.514Z</time></trkpt><trkpt lat="43.3423419" lon="12.7777138"><ele>970.5</ele><time>2026-04-25T08:52:37.51Z</time></trkpt><trkpt lat="43.3425536" lon="12.7774802"><ele>977.0</ele><time>2026-04-25T08:52:38.518Z</time></trkpt><trkpt lat="43.3427542" lon="12.7772469"><ele>977.0</ele><time>2026-04-25T08:52:39.523Z</time></trkpt><trkpt lat="43.3429381" lon="12.7770329"><ele>977.0</ele><time>2026-04-25T08:52:40.515Z</time></trkpt><trkpt lat="43.3431002" lon="12.7768356"><ele>981.6666666666667</ele><time>2026-04-25T08:52:41.51Z</time></trkpt><trkpt lat="43.3432495" lon="12.776642"><ele>986.3333333333333</ele><time>2026-04-25T08:52:42.524Z</time></trkpt><trkpt lat="43.3433915" lon="12.776454"><ele>991.0</ele><time>2026-04-25T08:52:43.52Z</time></trkpt><trkpt lat="43.3435254" lon="12.7762792"><ele>991.0</ele><time>2026-04-25T08:52:44.52Z</time></trkpt><trkpt lat="43.343655" lon="12.7761194"><ele>991.0</ele><time>2026-04-25T08:52:45.514Z</time></trkpt><trkpt lat="43.3437867" lon="12.7759695"><ele>991.0</ele><time>2026-04-25T08:52:46.521Z</time></trkpt><trkpt lat="43.3439227" lon="12.7758193"><ele>995.3333333333333</ele><time>2026-04-25T08:52:47.521Z</time></trkpt><trkpt lat="43.3440684" lon="12.7756678"><ele>999.6666666666667</ele><time>2026-04-25T08:52:48.508Z</time></trkpt><trkpt lat="43.3442229" lon="12.775515"><ele>1004.0</ele><time>2026-04-25T08:52:49.521Z</time></trkpt><trkpt lat="43.3443848" lon="12.7753583"><ele>1004.0</ele><time>2026-04-25T08:52:50.52Z</time></trkpt><trkpt lat="43.3445483" lon="12.7751981"><ele>1004.0</ele><time>2026-04-25T08:52:51.519Z</time></trkpt><trkpt lat="43.3447053" lon="12.7750382"><ele>1004.0</ele><time>2026-04-25T08:52:52.514Z</time></trkpt><trkpt lat="43.3448525" lon="12.77489"><ele>1006.6666666666667</ele><time>2026-04-25T08:52:53.522Z</time></trkpt><trkpt lat="43.3449944" lon="12.7747577"><ele>1009.3333333333333</ele><time>2026-04-25T08:52:54.517Z</time></trkpt><trkpt lat="43.3451393" lon="12.7746307"><ele>1012.0</ele><time>2026-04-25T08:52:55.52Z</time></trkpt><trkpt lat="43.3452852" lon="12.7745095"><ele>1012.0</ele><time>2026-04-25T08:52:56.522Z</time></trkpt><trkpt lat="43.3454266" lon="12.7743979"><ele>1012.0</ele><time>2026-04-25T08:52:57.521Z</time></trkpt><trkpt lat="43.3455554" lon="12.7742966"><ele>1012.0</ele><time>2026-04-25T08:52:58.524Z</time></trkpt><trkpt lat="43.3456784" lon="12.774199"><ele>1015.3333333333333</ele><time>2026-04-25T08:52:59.516Z</time></trkpt><trkpt lat="43.3458059" lon="12.7740982"><ele>1018.6666666666667</ele><time>2026-04-25T08:53:00.518Z</time></trkpt><trkpt lat="43.3459402" lon="12.7739923"><ele>1022.0</ele><time>2026-04-25T08:53:01.518Z</time></trkpt><trkpt lat="43.3460824" lon="12.7738822"><ele>1022.0</ele><time>2026-04-25T08:53:02.522Z</time></trkpt><trkpt lat="43.3462262" lon="12.7737667"><ele>1022.0</ele><time>2026-04-25T08:53:03.522Z</time></trkpt><trkpt lat="43.3463651" lon="12.7736372"><ele>1022.0</ele><time>2026-04-25T08:53:04.515Z</time></trkpt><trkpt lat="43.3464937" lon="12.7734877"><ele>1025.0</ele><time>2026-04-25T08:53:05.518Z</time></trkpt><trkpt lat="43.3466134" lon="12.7733173"><ele>1028.0</ele><time>2026-04-25T08:53:06.523Z</time></trkpt><trkpt lat="43.3467254" lon="12.7731358"><ele>1031.0</ele><time>2026-04-25T08:53:07.523Z</time></trkpt><trkpt lat="43.3468423" lon="12.7729502"><ele>1031.0</ele><time>2026-04-25T08:53:08.521Z</time></trkpt><trkpt lat="43.3469652" lon="12.7727679"><ele>1031.0</ele><time>2026-04-25T08:53:09.522Z</time></trkpt><trkpt lat="43.3470893" lon="12.7725818"><ele>1031.0</ele><time>2026-04-25T08:53:10.514Z</time></trkpt><trkpt lat="43.3472066" lon="12.7723815"><ele>1033.3333333333335</ele><time>2026-04-25T08:53:11.519Z</time></trkpt><trkpt lat="43.347312" lon="12.7721661"><ele>1035.6666666666667</ele><time>2026-04-25T08:53:12.521Z</time></trkpt><trkpt lat="43.3474177" lon="12.7719426"><ele>1038.0</ele><time>2026-04-25T08:53:13.513Z</time></trkpt><trkpt lat="43.3475295" lon="12.7717221"><ele>1038.0</ele><time>2026-04-25T08:53:14.521Z</time></trkpt><trkpt lat="43.3476489" lon="12.7715056"><ele>1038.0</ele><time>2026-04-25T08:53:15.521Z</time></trkpt><trkpt lat="43.347776" lon="12.7712798"><ele>1038.0</ele><time>2026-04-25T08:53:16.515Z</time></trkpt><trkpt lat="43.3479039" lon="12.7710536"><ele>1034.6666666666667</ele><time>2026-04-25T08:53:17.519Z</time></trkpt><trkpt lat="43.3480274" lon="12.7708429"><ele>1031.3333333333335</ele><time>2026-04-25T08:53:18.518Z</time></trkpt><trkpt lat="43.3481482" lon="12.7706498"><ele>1028.0</ele><time>2026-04-25T08:53:19.516Z</time></trkpt><trkpt lat="43.3482679" lon="12.7704789"><ele>1033.6666666666667</ele><time>2026-04-25T08:53:20.52Z</time></trkpt><trkpt lat="43.3483942" lon="12.7703321"><ele>1039.3333333333333</ele><time>2026-04-25T08:53:21.52Z</time></trkpt><trkpt lat="43.3485365" lon="12.7702087"><ele>1045.0</ele><time>2026-04-25T08:53:22.524Z</time></trkpt><trkpt lat="43.348696" lon="12.7701115"><ele>1045.0</ele><time>2026-04-25T08:53:23.511Z</time></trkpt><trkpt lat="43.3488674" lon="12.7700208"><ele>1045.0</ele><time>2026-04-25T08:53:24.52Z</time></trkpt><trkpt lat="43.3490447" lon="12.7699303"><ele>1045.0</ele><time>2026-04-25T08:53:25.511Z</time></trkpt><trkpt lat="43.349225" lon="12.7698332"><ele>1052.3333333333333</ele><time>2026-04-25T08:53:26.521Z</time></trkpt><trkpt lat="43.3494054" lon="12.769731"><ele>1059.6666666666667</ele><time>2026-04-25T08:53:27.521Z</time></trkpt><trkpt lat="43.3495876" lon="12.7696258"><ele>1067.0</ele><time>2026-04-25T08:53:28.511Z</time></trkpt><trkpt lat="43.3497669" lon="12.7695162"><ele>1068.3333333333335</ele><time>2026-04-25T08:53:29.522Z</time></trkpt><trkpt lat="43.3499395" lon="12.7693952"><ele>1069.6666666666667</ele><time>2026-04-25T08:53:30.513Z</time></trkpt><trkpt lat="43.3501038" lon="12.7692583"><ele>1071.0</ele><time>2026-04-25T08:53:31.522Z</time></trkpt><trkpt lat="43.3502632" lon="12.7690996"><ele>1071.0</ele><time>2026-04-25T08:53:32.525Z</time></trkpt><trkpt lat="43.3504226" lon="12.768917"><ele>1071.0</ele><time>2026-04-25T08:53:33.515Z</time></trkpt><trkpt lat="43.3505837" lon="12.7687262"><ele>1071.0</ele><time>2026-04-25T08:53:34.521Z</time></trkpt><trkpt lat="43.3507493" lon="12.7685345"><ele>1075.0</ele><time>2026-04-25T08:53:35.524Z</time></trkpt><trkpt lat="43.3509163" lon="12.7683487"><ele>1079.0</ele><time>2026-04-25T08:53:36.523Z</time></trkpt><trkpt lat="43.3510766" lon="12.768172"><ele>1083.0</ele><time>2026-04-25T08:53:37.521Z</time></trkpt><trkpt lat="43.3512196" lon="12.7680106"><ele>1083.0</ele><time>2026-04-25T08:53:38.515Z</time></trkpt><trkpt lat="43.3513503" lon="12.7678539"><ele>1083.0</ele><time>2026-04-25T08:53:39.52Z</time></trkpt><trkpt lat="43.3514595" lon="12.7676722"><ele>1083.0</ele><time>2026-04-25T08:53:40.522Z</time></trkpt><trkpt lat="43.351546" lon="12.7674516"><ele>1088.3333333333333</ele><time>2026-04-25T08:53:41.513Z</time></trkpt><trkpt lat="43.3516231" lon="12.7672"><ele>1093.6666666666665</ele><time>2026-04-25T08:53:42.524Z</time></trkpt><trkpt lat="43.3517014" lon="12.7669318"><ele>1099.0</ele><time>2026-04-25T08:53:43.516Z</time></trkpt><trkpt lat="43.3517772" lon="12.7666777"><ele>1099.0</ele><time>2026-04-25T08:53:44.516Z</time></trkpt><trkpt lat="43.3518444" lon="12.7664496"><ele>1099.0</ele><time>2026-04-25T08:53:45.521Z</time></trkpt><trkpt lat="43.3519154" lon="12.7662399"><ele>1099.0</ele><time>2026-04-25T08:53:46.524Z</time></trkpt><trkpt lat="43.351997" lon="12.766056"><ele>1096.5</ele><time>2026-04-25T08:53:47.511Z</time></trkpt><trkpt lat="43.3520927" lon="12.7659043"><ele>1094.0</ele><time>2026-04-25T08:53:48.521Z</time></trkpt><trkpt lat="43.3522073" lon="12.7657901"><ele>1091.5</ele><time>2026-04-25T08:53:49.515Z</time></trkpt><trkpt lat="43.3523337" lon="12.7657156"><ele>1089.0</ele><time>2026-04-25T08:53:50.522Z</time></trkpt><trkpt lat="43.3524532" lon="12.7656701"><ele>1093.5</ele><time>2026-04-25T08:53:51.516Z</time></trkpt><trkpt lat="43.3525559" lon="12.7656214"><ele>1098.0</ele><time>2026-04-25T08:53:52.517Z</time></trkpt><trkpt lat="43.3526389" lon="12.7655197"><ele>1102.5</ele><time>2026-04-25T08:53:53.522Z</time></trkpt><trkpt lat="43.3526974" lon="12.7653509"><ele>1107.0</ele><time>2026-04-25T08:53:54.523Z</time></trkpt><trkpt lat="43.3527454" lon="12.7651403"><ele>1107.0</ele><time>2026-04-25T08:53:55.521Z</time></trkpt><trkpt lat="43.3527961" lon="12.7648985"><ele>1107.0</ele><time>2026-04-25T08:53:56.522Z</time></trkpt><trkpt lat="43.3528507" lon="12.7646552"><ele>1107.0</ele><time>2026-04-25T08:53:57.517Z</time></trkpt><trkpt lat="43.3528984" lon="12.7644372"><ele>1106.8</ele><time>2026-04-25T08:53:58.517Z</time></trkpt><trkpt lat="43.3529386" lon="12.7642472"><ele>1106.6</ele><time>2026-04-25T08:53:59.523Z</time></trkpt><trkpt lat="43.3529708" lon="12.7640904"><ele>1106.3999999999999</ele><time>2026-04-25T08:54:00.524Z</time></trkpt><trkpt lat="43.3529947" lon="12.7639754"><ele>1106.2</ele><time>2026-04-25T08:54:01.517Z</time></trkpt><trkpt lat="43.3530511" lon="12.7638724"><ele>1106.0</ele><time>2026-04-25T08:54:03.52Z</time></trkpt><trkpt lat="43.3530987" lon="12.7637907"><ele>1106.0</ele><time>2026-04-25T08:54:06.523Z</time></trkpt><trkpt lat="43.3530193" lon="12.7637674"><ele>1106.0</ele><time>2026-04-25T08:54:09.523Z</time></trkpt><trkpt lat="43.3529639" lon="12.7639188"><ele>1106.0</ele><time>2026-04-25T08:54:11.526Z</time></trkpt><trkpt lat="43.3529231" lon="12.7640768"><ele>1106.0</ele><time>2026-04-25T08:54:12.525Z</time></trkpt><trkpt lat="43.3528719" lon="12.7642723"><ele>1106.3333333333335</ele><time>2026-04-25T08:54:13.526Z</time></trkpt><trkpt lat="43.352819" lon="12.764495"><ele>1106.6666666666667</ele><time>2026-04-25T08:54:14.524Z</time></trkpt><trkpt lat="43.3527648" lon="12.7647342"><ele>1107.0</ele><time>2026-04-25T08:54:15.513Z</time></trkpt><trkpt lat="43.3527146" lon="12.7649676"><ele>1107.0</ele><time>2026-04-25T08:54:16.524Z</time></trkpt><trkpt lat="43.3526706" lon="12.7651865"><ele>1107.0</ele><time>2026-04-25T08:54:17.528Z</time></trkpt><trkpt lat="43.3526255" lon="12.765371"><ele>1107.0</ele><time>2026-04-25T08:54:18.517Z</time></trkpt><trkpt lat="43.3525589" lon="12.7655184"><ele>1107.0</ele><time>2026-04-25T08:54:19.523Z</time></trkpt><trkpt lat="43.3524595" lon="12.7656217"><ele>1110.0</ele><time>2026-04-25T08:54:20.516Z</time></trkpt><trkpt lat="43.3523451" lon="12.7656841"><ele>1113.0</ele><time>2026-04-25T08:54:21.519Z</time></trkpt><trkpt lat="43.3522282" lon="12.7657331"><ele>1116.0</ele><time>2026-04-25T08:54:22.518Z</time></trkpt><trkpt lat="43.3521208" lon="12.7658066"><ele>1119.0</ele><time>2026-04-25T08:54:23.512Z</time></trkpt><trkpt lat="43.3520208" lon="12.7659093"><ele>1112.3333333333333</ele><time>2026-04-25T08:54:24.518Z</time></trkpt><trkpt lat="43.3519317" lon="12.7660496"><ele>1105.6666666666665</ele><time>2026-04-25T08:54:25.523Z</time></trkpt><trkpt lat="43.3518578" lon="12.7662352"><ele>1099.0</ele><time>2026-04-25T08:54:26.51Z</time></trkpt><trkpt lat="43.3517917" lon="12.7664513"><ele>1099.0</ele><time>2026-04-25T08:54:27.519Z</time></trkpt><trkpt lat="43.3517223" lon="12.7666862"><ele>1099.0</ele><time>2026-04-25T08:54:28.518Z</time></trkpt><trkpt lat="43.3516552" lon="12.7669208"><ele>1099.0</ele><time>2026-04-25T08:54:29.52Z</time></trkpt><trkpt lat="43.3515882" lon="12.7671415"><ele>1100.6666666666665</ele><time>2026-04-25T08:54:30.517Z</time></trkpt><trkpt lat="43.3515229" lon="12.7673592"><ele>1102.3333333333333</ele><time>2026-04-25T08:54:31.519Z</time></trkpt><trkpt lat="43.3514527" lon="12.7675722"><ele>1104.0</ele><time>2026-04-25T08:54:32.519Z</time></trkpt><trkpt lat="43.351363" lon="12.7677617"><ele>1097.0</ele><time>2026-04-25T08:54:33.521Z</time></trkpt><trkpt lat="43.3512524" lon="12.7679244"><ele>1090.0</ele><time>2026-04-25T08:54:34.517Z</time></trkpt><trkpt lat="43.3511187" lon="12.7680695"><ele>1083.0</ele><time>2026-04-25T08:54:35.52Z</time></trkpt><trkpt lat="43.3509703" lon="12.7682248"><ele>1083.0</ele><time>2026-04-25T08:54:36.518Z</time></trkpt><trkpt lat="43.35082" lon="12.7683833"><ele>1083.0</ele><time>2026-04-25T08:54:37.518Z</time></trkpt><trkpt lat="43.3506767" lon="12.7685442"><ele>1083.0</ele><time>2026-04-25T08:54:38.521Z</time></trkpt><trkpt lat="43.3505429" lon="12.7687033"><ele>1079.0</ele><time>2026-04-25T08:54:39.522Z</time></trkpt><trkpt lat="43.3504114" lon="12.7688639"><ele>1075.0</ele><time>2026-04-25T08:54:40.512Z</time></trkpt><trkpt lat="43.3502782" lon="12.76902"><ele>1071.0</ele><time>2026-04-25T08:54:41.516Z</time></trkpt><trkpt lat="43.3501404" lon="12.769167"><ele>1071.0</ele><time>2026-04-25T08:54:42.523Z</time></trkpt><trkpt lat="43.3499908" lon="12.7693003"><ele>1071.0</ele><time>2026-04-25T08:54:43.518Z</time></trkpt><trkpt lat="43.3498319" lon="12.7694224"><ele>1071.0</ele><time>2026-04-25T08:54:44.518Z</time></trkpt><trkpt lat="43.3496635" lon="12.7695377"><ele>1069.6666666666667</ele><time>2026-04-25T08:54:45.521Z</time></trkpt><trkpt lat="43.3494888" lon="12.7696474"><ele>1068.3333333333335</ele><time>2026-04-25T08:54:46.517Z</time></trkpt><trkpt lat="43.3493117" lon="12.7697473"><ele>1067.0</ele><time>2026-04-25T08:54:47.519Z</time></trkpt><trkpt lat="43.3491372" lon="12.7698375"><ele>1067.0</ele><time>2026-04-25T08:54:48.523Z</time></trkpt><trkpt lat="43.3489677" lon="12.7699194"><ele>1067.0</ele><time>2026-04-25T08:54:49.524Z</time></trkpt><trkpt lat="43.3488046" lon="12.7700018"><ele>1067.0</ele><time>2026-04-25T08:54:50.516Z</time></trkpt><trkpt lat="43.3486473" lon="12.7700861"><ele>1064.3333333333335</ele><time>2026-04-25T08:54:51.523Z</time></trkpt><trkpt lat="43.3484982" lon="12.7701827"><ele>1061.6666666666667</ele><time>2026-04-25T08:54:52.515Z</time></trkpt><trkpt lat="43.3483622" lon="12.7702984"><ele>1059.0</ele><time>2026-04-25T08:54:53.519Z</time></trkpt><trkpt lat="43.3482377" lon="12.7704391"><ele>1059.0</ele><time>2026-04-25T08:54:54.516Z</time></trkpt><trkpt lat="43.34812" lon="12.7706062"><ele>1059.0</ele><time>2026-04-25T08:54:55.523Z</time></trkpt><trkpt lat="43.3480057" lon="12.7707973"><ele>1059.0</ele><time>2026-04-25T08:54:56.521Z</time></trkpt><trkpt lat="43.3478886" lon="12.771001"><ele>1052.0</ele><time>2026-04-25T08:54:57.522Z</time></trkpt><trkpt lat="43.347767" lon="12.771208"><ele>1045.0</ele><time>2026-04-25T08:54:58.518Z</time></trkpt><trkpt lat="43.3476478" lon="12.7714172"><ele>1038.0</ele><time>2026-04-25T08:54:59.521Z</time></trkpt><trkpt lat="43.3475319" lon="12.7716238"><ele>1038.0</ele><time>2026-04-25T08:55:00.513Z</time></trkpt><trkpt lat="43.3474235" lon="12.7718287"><ele>1038.0</ele><time>2026-04-25T08:55:01.519Z</time></trkpt><trkpt lat="43.347325" lon="12.7720288"><ele>1038.0</ele><time>2026-04-25T08:55:02.525Z</time></trkpt><trkpt lat="43.3472349" lon="12.7722242"><ele>1035.6666666666667</ele><time>2026-04-25T08:55:03.52Z</time></trkpt><trkpt lat="43.3471444" lon="12.7724059"><ele>1033.3333333333335</ele><time>2026-04-25T08:55:04.52Z</time></trkpt><trkpt lat="43.3470454" lon="12.7725739"><ele>1031.0</ele><time>2026-04-25T08:55:05.52Z</time></trkpt><trkpt lat="43.3469397" lon="12.7727308"><ele>1031.0</ele><time>2026-04-25T08:55:06.518Z</time></trkpt><trkpt lat="43.3468305" lon="12.7728905"><ele>1031.0</ele><time>2026-04-25T08:55:07.519Z</time></trkpt><trkpt lat="43.3467213" lon="12.7730574"><ele>1031.0</ele><time>2026-04-25T08:55:08.517Z</time></trkpt><trkpt lat="43.3466158" lon="12.7732263"><ele>1031.0</ele><time>2026-04-25T08:55:09.515Z</time></trkpt><trkpt lat="43.3465117" lon="12.7733911"><ele>1031.0</ele><time>2026-04-25T08:55:10.518Z</time></trkpt><trkpt lat="43.3464027" lon="12.7735471"><ele>1031.0</ele><time>2026-04-25T08:55:11.521Z</time></trkpt><trkpt lat="43.3462915" lon="12.7736954"><ele>1028.0</ele><time>2026-04-25T08:55:12.526Z</time></trkpt><trkpt lat="43.3461815" lon="12.77384"><ele>1025.0</ele><time>2026-04-25T08:55:13.522Z</time></trkpt><trkpt lat="43.3460706" lon="12.7739806"><ele>1022.0</ele><time>2026-04-25T08:55:14.522Z</time></trkpt><trkpt lat="43.3459511" lon="12.7741195"><ele>1022.0</ele><time>2026-04-25T08:55:15.521Z</time></trkpt><trkpt lat="43.3458332" lon="12.7742597"><ele>1022.0</ele><time>2026-04-25T08:55:16.52Z</time></trkpt><trkpt lat="43.3457247" lon="12.7743994"><ele>1022.0</ele><time>2026-04-25T08:55:17.514Z</time></trkpt><trkpt lat="43.3456202" lon="12.7745507"><ele>1018.6666666666667</ele><time>2026-04-25T08:55:18.522Z</time></trkpt><trkpt lat="43.3455165" lon="12.774724"><ele>1015.3333333333333</ele><time>2026-04-25T08:55:19.519Z</time></trkpt><trkpt lat="43.3454169" lon="12.774918"><ele>1012.0</ele><time>2026-04-25T08:55:20.519Z</time></trkpt><trkpt lat="43.3453197" lon="12.7751025"><ele>1017.0</ele><time>2026-04-25T08:55:21.515Z</time></trkpt><trkpt lat="43.3452338" lon="12.775265"><ele>1022.0</ele><time>2026-04-25T08:55:22.529Z</time></trkpt><trkpt lat="43.34515" lon="12.7754087"><ele>1027.0</ele><time>2026-04-25T08:55:23.521Z</time></trkpt><trkpt lat="43.3450613" lon="12.7755496"><ele>1032.0</ele><time>2026-04-25T08:55:24.515Z</time></trkpt><trkpt lat="43.3449729" lon="12.7756881"><ele>1032.0</ele><time>2026-04-25T08:55:25.522Z</time></trkpt><trkpt lat="43.3448908" lon="12.7758228"><ele>1032.0</ele><time>2026-04-25T08:55:26.515Z</time></trkpt><trkpt lat="43.344814" lon="12.7759578"><ele>1032.0</ele><time>2026-04-25T08:55:27.523Z</time></trkpt><trkpt lat="43.3447471" lon="12.7760874"><ele>1032.0</ele><time>2026-04-25T08:55:28.52Z</time></trkpt><trkpt lat="43.3446889" lon="12.7762096"><ele>1030.0</ele><time>2026-04-25T08:55:29.514Z</time></trkpt><trkpt lat="43.3446368" lon="12.7763298"><ele>1028.0</ele><time>2026-04-25T08:55:30.521Z</time></trkpt><trkpt lat="43.3445911" lon="12.7764468"><ele>1026.0</ele><time>2026-04-25T08:55:31.518Z</time></trkpt><trkpt lat="43.3445493" lon="12.7765606"><ele>1024.0</ele><time>2026-04-25T08:55:32.527Z</time></trkpt><trkpt lat="43.3445083" lon="12.7766695"><ele>1022.0</ele><time>2026-04-25T08:55:33.518Z</time></trkpt><trkpt lat="43.3444702" lon="12.7767765"><ele>1024.2857142857142</ele><time>2026-04-25T08:55:34.522Z</time></trkpt><trkpt lat="43.3444346" lon="12.7768771"><ele>1026.5714285714284</ele><time>2026-04-25T08:55:35.522Z</time></trkpt><trkpt lat="43.3443995" lon="12.7769715"><ele>1028.857142857143</ele><time>2026-04-25T08:55:36.523Z</time></trkpt><trkpt lat="43.3443665" lon="12.7770664"><ele>1031.142857142857</ele><time>2026-04-25T08:55:37.517Z</time></trkpt><trkpt lat="43.344333" lon="12.7771596"><ele>1033.4285714285713</ele><time>2026-04-25T08:55:38.522Z</time></trkpt><trkpt lat="43.3443008" lon="12.7772454"><ele>1035.7142857142858</ele><time>2026-04-25T08:55:39.521Z</time></trkpt><trkpt lat="43.344272" lon="12.7773289"><ele>1038.0</ele><time>2026-04-25T08:55:40.519Z</time></trkpt><trkpt lat="43.3442467" lon="12.7774092"><ele>1038.0</ele><time>2026-04-25T08:55:41.509Z</time></trkpt><trkpt lat="43.3442064" lon="12.7775656"><ele>1038.0</ele><time>2026-04-25T08:55:43.514Z</time></trkpt><trkpt lat="43.3441748" lon="12.7777371"><ele>1038.0</ele><time>2026-04-25T08:55:45.52Z</time></trkpt><trkpt lat="43.3441556" lon="12.7778277"><ele>1038.0</ele><time>2026-04-25T08:55:46.519Z</time></trkpt><trkpt lat="43.3441388" lon="12.7779221"><ele>1038.0</ele><time>2026-04-25T08:55:47.52Z</time></trkpt><trkpt lat="43.3441321" lon="12.7780242"><ele>1040.1666666666667</ele><time>2026-04-25T08:55:48.512Z</time></trkpt><trkpt lat="43.3441318" lon="12.7781425"><ele>1042.3333333333333</ele><time>2026-04-25T08:55:49.52Z</time></trkpt><trkpt lat="43.3441377" lon="12.7782632"><ele>1044.5</ele><time>2026-04-25T08:55:50.525Z</time></trkpt><trkpt lat="43.3441482" lon="12.7783833"><ele>1046.6666666666665</ele><time>2026-04-25T08:55:51.52Z</time></trkpt><trkpt lat="43.3441606" lon="12.7785067"><ele>1048.8333333333333</ele><time>2026-04-25T08:55:52.526Z</time></trkpt><trkpt lat="43.3441719" lon="12.7786299"><ele>1051.0</ele><time>2026-04-25T08:55:53.519Z</time></trkpt><trkpt lat="43.3441802" lon="12.7787436"><ele>1052.5714285714287</ele><time>2026-04-25T08:55:54.518Z</time></trkpt><trkpt lat="43.3441795" lon="12.7788421"><ele>1054.142857142857</ele><time>2026-04-25T08:55:55.51Z</time></trkpt><trkpt lat="43.3441592" lon="12.7789328"><ele>1055.7142857142858</ele><time>2026-04-25T08:55:56.521Z</time></trkpt><trkpt lat="43.3441174" lon="12.7790003"><ele>1057.2857142857142</ele><time>2026-04-25T08:55:57.52Z</time></trkpt><trkpt lat="43.3440574" lon="12.7790406"><ele>1058.857142857143</ele><time>2026-04-25T08:55:58.522Z</time></trkpt><trkpt lat="43.3439823" lon="12.7790554"><ele>1060.4285714285716</ele><time>2026-04-25T08:55:59.519Z</time></trkpt><trkpt lat="43.3438959" lon="12.7790635"><ele>1062.0</ele><time>2026-04-25T08:56:00.521Z</time></trkpt><trkpt lat="43.3438075" lon="12.7790841"><ele>1060.4</ele><time>2026-04-25T08:56:01.513Z</time></trkpt><trkpt lat="43.3437215" lon="12.7791228"><ele>1058.8000000000002</ele><time>2026-04-25T08:56:02.521Z</time></trkpt><trkpt lat="43.3436339" lon="12.7791745"><ele>1057.2</ele><time>2026-04-25T08:56:03.524Z</time></trkpt><trkpt lat="43.3435492" lon="12.7792333"><ele>1055.6000000000001</ele><time>2026-04-25T08:56:04.522Z</time></trkpt><trkpt lat="43.3434752" lon="12.7793019"><ele>1054.0</ele><time>2026-04-25T08:56:05.518Z</time></trkpt><trkpt lat="43.3434145" lon="12.7793798"><ele>1054.0</ele><time>2026-04-25T08:56:06.521Z</time></trkpt><trkpt lat="43.3433679" lon="12.7794685"><ele>1054.0</ele><time>2026-04-25T08:56:07.52Z</time></trkpt><trkpt lat="43.3433292" lon="12.7795753"><ele>1054.0</ele><time>2026-04-25T08:56:08.521Z</time></trkpt><trkpt lat="43.3432949" lon="12.779693"><ele>1054.0</ele><time>2026-04-25T08:56:09.523Z</time></trkpt><trkpt lat="43.343264" lon="12.7798166"><ele>1054.0</ele><time>2026-04-25T08:56:10.517Z</time></trkpt><trkpt lat="43.34324" lon="12.7799447"><ele>1054.0</ele><time>2026-04-25T08:56:11.519Z</time></trkpt><trkpt lat="43.3432204" lon="12.7800786"><ele>1054.0</ele><time>2026-04-25T08:56:12.517Z</time></trkpt><trkpt lat="43.3432012" lon="12.7802154"><ele>1054.0</ele><time>2026-04-25T08:56:13.51Z</time></trkpt><trkpt lat="43.3431817" lon="12.7803552"><ele>1054.0</ele><time>2026-04-25T08:56:14.52Z</time></trkpt><trkpt lat="43.3431641" lon="12.7804937"><ele>1054.0</ele><time>2026-04-25T08:56:15.508Z</time></trkpt><trkpt lat="43.3431477" lon="12.7806339"><ele>1057.2</ele><time>2026-04-25T08:56:16.52Z</time></trkpt><trkpt lat="43.3431314" lon="12.78077"><ele>1060.4</ele><time>2026-04-25T08:56:17.519Z</time></trkpt><trkpt lat="43.3431188" lon="12.780903"><ele>1063.6</ele><time>2026-04-25T08:56:18.52Z</time></trkpt><trkpt lat="43.3431085" lon="12.7810326"><ele>1066.8</ele><time>2026-04-25T08:56:19.52Z</time></trkpt><trkpt lat="43.3430943" lon="12.7811529"><ele>1070.0</ele><time>2026-04-25T08:56:20.511Z</time></trkpt><trkpt lat="43.3430643" lon="12.7812667"><ele>1069.4</ele><time>2026-04-25T08:56:21.519Z</time></trkpt><trkpt lat="43.3430138" lon="12.7813616"><ele>1068.8</ele><time>2026-04-25T08:56:22.526Z</time></trkpt><trkpt lat="43.3429411" lon="12.7814375"><ele>1068.2</ele><time>2026-04-25T08:56:23.519Z</time></trkpt><trkpt lat="43.3428486" lon="12.7814957"><ele>1067.6</ele><time>2026-04-25T08:56:24.509Z</time></trkpt><trkpt lat="43.3427428" lon="12.7815461"><ele>1067.0</ele><time>2026-04-25T08:56:25.52Z</time></trkpt><trkpt lat="43.3426298" lon="12.781591"><ele>1067.0</ele><time>2026-04-25T08:56:26.519Z</time></trkpt><trkpt lat="43.3425055" lon="12.7816266"><ele>1067.0</ele><time>2026-04-25T08:56:27.518Z</time></trkpt><trkpt lat="43.3423755" lon="12.7816523"><ele>1067.0</ele><time>2026-04-25T08:56:28.519Z</time></trkpt><trkpt lat="43.342241" lon="12.7816748"><ele>1067.0</ele><time>2026-04-25T08:56:29.519Z</time></trkpt><trkpt lat="43.3421018" lon="12.7817029"><ele>1067.4</ele><time>2026-04-25T08:56:30.525Z</time></trkpt><trkpt lat="43.3419656" lon="12.7817349"><ele>1067.8000000000002</ele><time>2026-04-25T08:56:31.521Z</time></trkpt><trkpt lat="43.3418476" lon="12.7817644"><ele>1068.2</ele><time>2026-04-25T08:56:32.519Z</time></trkpt><trkpt lat="43.3417565" lon="12.7817915"><ele>1068.6000000000001</ele><time>2026-04-25T08:56:33.518Z</time></trkpt><trkpt lat="43.3416848" lon="12.7818196"><ele>1069.0</ele><time>2026-04-25T08:56:34.517Z</time></trkpt><trkpt lat="43.3416197" lon="12.7818594"><ele>1069.0</ele><time>2026-04-25T08:56:35.522Z</time></trkpt><trkpt lat="43.3415639" lon="12.7819267"><ele>1069.0</ele><time>2026-04-25T08:56:36.521Z</time></trkpt><trkpt lat="43.3415151" lon="12.7820204"><ele>1069.0</ele><time>2026-04-25T08:56:37.52Z</time></trkpt><trkpt lat="43.3414701" lon="12.7821328"><ele>1069.0</ele><time>2026-04-25T08:56:38.522Z</time></trkpt><trkpt lat="43.341422" lon="12.7822542"><ele>1069.0</ele><time>2026-04-25T08:56:39.522Z</time></trkpt><trkpt lat="43.3413649" lon="12.7823811"><ele>1066.6000000000001</ele><time>2026-04-25T08:56:40.521Z</time></trkpt><trkpt lat="43.3412999" lon="12.782511"><ele>1064.2</ele><time>2026-04-25T08:56:41.519Z</time></trkpt><trkpt lat="43.3412335" lon="12.7826346"><ele>1061.8000000000002</ele><time>2026-04-25T08:56:42.527Z</time></trkpt><trkpt lat="43.3411703" lon="12.7827532"><ele>1059.4</ele><time>2026-04-25T08:56:43.519Z</time></trkpt><trkpt lat="43.341112" lon="12.7828731"><ele>1057.0</ele><time>2026-04-25T08:56:44.521Z</time></trkpt><trkpt lat="43.3410625" lon="12.7829964"><ele>1057.0</ele><time>2026-04-25T08:56:45.52Z</time></trkpt><trkpt lat="43.3410223" lon="12.783123"><ele>1057.0</ele><time>2026-04-25T08:56:46.523Z</time></trkpt><trkpt lat="43.3409891" lon="12.7832508"><ele>1057.0</ele><time>2026-04-25T08:56:47.517Z</time></trkpt><trkpt lat="43.3409551" lon="12.7833774"><ele>1057.0</ele><time>2026-04-25T08:56:48.513Z</time></trkpt><trkpt lat="43.3409166" lon="12.7835051"><ele>1057.0</ele><time>2026-04-25T08:56:49.522Z</time></trkpt><trkpt lat="43.3408744" lon="12.7836348"><ele>1055.0</ele><time>2026-04-25T08:56:50.518Z</time></trkpt><trkpt lat="43.3408258" lon="12.7837687"><ele>1053.0</ele><time>2026-04-25T08:56:51.525Z</time></trkpt><trkpt lat="43.3407742" lon="12.7838999"><ele>1051.0</ele><time>2026-04-25T08:56:52.526Z</time></trkpt><trkpt lat="43.3407209" lon="12.7840256"><ele>1049.0</ele><time>2026-04-25T08:56:53.513Z</time></trkpt><trkpt lat="43.3406656" lon="12.7841455"><ele>1047.0</ele><time>2026-04-25T08:56:54.522Z</time></trkpt><trkpt lat="43.3406137" lon="12.7842699"><ele>1050.0</ele><time>2026-04-25T08:56:55.516Z</time></trkpt><trkpt lat="43.3405612" lon="12.7843988"><ele>1053.0</ele><time>2026-04-25T08:56:56.522Z</time></trkpt><trkpt lat="43.3405078" lon="12.7845298"><ele>1056.0</ele><time>2026-04-25T08:56:57.518Z</time></trkpt><trkpt lat="43.3404617" lon="12.7846608"><ele>1059.0</ele><time>2026-04-25T08:56:58.521Z</time></trkpt><trkpt lat="43.3404151" lon="12.7847914"><ele>1062.0</ele><time>2026-04-25T08:56:59.517Z</time></trkpt><trkpt lat="43.3403651" lon="12.7849224"><ele>1062.0</ele><time>2026-04-25T08:57:00.514Z</time></trkpt><trkpt lat="43.3403183" lon="12.7850488"><ele>1062.0</ele><time>2026-04-25T08:57:01.518Z</time></trkpt><trkpt lat="43.3402716" lon="12.7851769"><ele>1062.0</ele><time>2026-04-25T08:57:02.519Z</time></trkpt><trkpt lat="43.3402238" lon="12.7853121"><ele>1062.0</ele><time>2026-04-25T08:57:03.519Z</time></trkpt><trkpt lat="43.3401762" lon="12.7854509"><ele>1062.0</ele><time>2026-04-25T08:57:04.52Z</time></trkpt><trkpt lat="43.3401292" lon="12.7855917"><ele>1058.4</ele><time>2026-04-25T08:57:05.523Z</time></trkpt><trkpt lat="43.3400844" lon="12.7857348"><ele>1054.8000000000002</ele><time>2026-04-25T08:57:06.513Z</time></trkpt><trkpt lat="43.340043" lon="12.7858755"><ele>1051.2</ele><time>2026-04-25T08:57:07.518Z</time></trkpt><trkpt lat="43.3400044" lon="12.7860169"><ele>1047.6000000000001</ele><time>2026-04-25T08:57:08.511Z</time></trkpt><trkpt lat="43.3399668" lon="12.7861624"><ele>1044.0</ele><time>2026-04-25T08:57:09.516Z</time></trkpt><trkpt lat="43.3399324" lon="12.7863064"><ele>1040.4</ele><time>2026-04-25T08:57:10.511Z</time></trkpt><trkpt lat="43.3399033" lon="12.7864502"><ele>1036.8000000000002</ele><time>2026-04-25T08:57:11.518Z</time></trkpt><trkpt lat="43.3398759" lon="12.7865984"><ele>1033.1999999999998</ele><time>2026-04-25T08:57:12.525Z</time></trkpt><trkpt lat="43.3398521" lon="12.7867464"><ele>1029.6</ele><time>2026-04-25T08:57:13.518Z</time></trkpt><trkpt lat="43.3398322" lon="12.7868952"><ele>1026.0</ele><time>2026-04-25T08:57:14.522Z</time></trkpt><trkpt lat="43.3398154" lon="12.7870476"><ele>1023.5999999999999</ele><time>2026-04-25T08:57:15.521Z</time></trkpt><trkpt lat="43.3397992" lon="12.7871987"><ele>1021.1999999999999</ele><time>2026-04-25T08:57:16.516Z</time></trkpt><trkpt lat="43.3397826" lon="12.787345"><ele>1018.8000000000001</ele><time>2026-04-25T08:57:17.518Z</time></trkpt><trkpt lat="43.3397678" lon="12.7874922"><ele>1016.4000000000001</ele><time>2026-04-25T08:57:18.519Z</time></trkpt><trkpt lat="43.3397573" lon="12.7876441"><ele>1014.0</ele><time>2026-04-25T08:57:19.515Z</time></trkpt><trkpt lat="43.3397515" lon="12.7878042"><ele>1011.0</ele><time>2026-04-25T08:57:20.519Z</time></trkpt><trkpt lat="43.3397448" lon="12.7879686"><ele>1008.0</ele><time>2026-04-25T08:57:21.52Z</time></trkpt><trkpt lat="43.3397388" lon="12.7881301"><ele>1005.0</ele><time>2026-04-25T08:57:22.512Z</time></trkpt><trkpt lat="43.3397291" lon="12.7882907"><ele>1002.0</ele><time>2026-04-25T08:57:23.519Z</time></trkpt><trkpt lat="43.3397206" lon="12.7884579"><ele>1015.5</ele><time>2026-04-25T08:57:24.514Z</time></trkpt><trkpt lat="43.3397122" lon="12.7886221"><ele>1029.0</ele><time>2026-04-25T08:57:25.511Z</time></trkpt><trkpt lat="43.3397024" lon="12.788787"><ele>1042.5</ele><time>2026-04-25T08:57:26.515Z</time></trkpt><trkpt lat="43.3396887" lon="12.7889513"><ele>1056.0</ele><time>2026-04-25T08:57:27.521Z</time></trkpt><trkpt lat="43.3396712" lon="12.7891174"><ele>1056.0</ele><time>2026-04-25T08:57:28.517Z</time></trkpt><trkpt lat="43.3396603" lon="12.7892844"><ele>1056.0</ele><time>2026-04-25T08:57:29.508Z</time></trkpt><trkpt lat="43.3396496" lon="12.7894505"><ele>1056.0</ele><time>2026-04-25T08:57:30.516Z</time></trkpt><trkpt lat="43.3396402" lon="12.7896145"><ele>1056.0</ele><time>2026-04-25T08:57:31.509Z</time></trkpt><trkpt lat="43.3396384" lon="12.7897777"><ele>1054.3999999999999</ele><time>2026-04-25T08:57:32.517Z</time></trkpt><trkpt lat="43.3396458" lon="12.789938"><ele>1052.8</ele><time>2026-04-25T08:57:33.515Z</time></trkpt><trkpt lat="43.3396558" lon="12.7900946"><ele>1051.1999999999998</ele><time>2026-04-25T08:57:34.511Z</time></trkpt><trkpt lat="43.3396649" lon="12.790247"><ele>1049.6</ele><time>2026-04-25T08:57:35.513Z</time></trkpt><trkpt lat="43.33967" lon="12.7903941"><ele>1048.0</ele><time>2026-04-25T08:57:36.508Z</time></trkpt><trkpt lat="43.3396719" lon="12.7905331"><ele>1046.5</ele><time>2026-04-25T08:57:37.516Z</time></trkpt><trkpt lat="43.3396673" lon="12.790656"><ele>1045.0</ele><time>2026-04-25T08:57:38.508Z</time></trkpt><trkpt lat="43.3396583" lon="12.7907699"><ele>1043.5</ele><time>2026-04-25T08:57:39.513Z</time></trkpt><trkpt lat="43.3396489" lon="12.7908806"><ele>1042.0</ele><time>2026-04-25T08:57:40.519Z</time></trkpt><trkpt lat="43.339637" lon="12.790992"><ele>1040.5</ele><time>2026-04-25T08:57:41.517Z</time></trkpt><trkpt lat="43.339617" lon="12.7911054"><ele>1039.0</ele><time>2026-04-25T08:57:42.514Z</time></trkpt><trkpt lat="43.3395818" lon="12.7912309"><ele>1034.6000000000001</ele><time>2026-04-25T08:57:43.517Z</time></trkpt><trkpt lat="43.3395438" lon="12.7913627"><ele>1030.2</ele><time>2026-04-25T08:57:44.515Z</time></trkpt><trkpt lat="43.3395056" lon="12.7914967"><ele>1025.8000000000002</ele><time>2026-04-25T08:57:45.516Z</time></trkpt><trkpt lat="43.339468" lon="12.7916306"><ele>1021.4000000000001</ele><time>2026-04-25T08:57:46.519Z</time></trkpt><trkpt lat="43.3394279" lon="12.7917615"><ele>1017.0</ele><time>2026-04-25T08:57:47.506Z</time></trkpt><trkpt lat="43.3393851" lon="12.7918886"><ele>1010.2</ele><time>2026-04-25T08:57:48.516Z</time></trkpt><trkpt lat="43.3393378" lon="12.792013"><ele>1003.4000000000001</ele><time>2026-04-25T08:57:49.524Z</time></trkpt><trkpt lat="43.3392879" lon="12.7921333"><ele>996.5999999999999</ele><time>2026-04-25T08:57:50.511Z</time></trkpt><trkpt lat="43.3392416" lon="12.7922469"><ele>989.8</ele><time>2026-04-25T08:57:51.515Z</time></trkpt><trkpt lat="43.3391886" lon="12.79235"><ele>983.0</ele><time>2026-04-25T08:57:52.515Z</time></trkpt><trkpt lat="43.3391249" lon="12.7924421"><ele>983.0</ele><time>2026-04-25T08:57:53.511Z</time></trkpt><trkpt lat="43.3390544" lon="12.7925269"><ele>983.0</ele><time>2026-04-25T08:57:54.515Z</time></trkpt><trkpt lat="43.338979" lon="12.7926135"><ele>983.0</ele><time>2026-04-25T08:57:55.517Z</time></trkpt><trkpt lat="43.3389048" lon="12.7927069"><ele>983.0</ele><time>2026-04-25T08:57:56.518Z</time></trkpt><trkpt lat="43.3388354" lon="12.7928092"><ele>983.0</ele><time>2026-04-25T08:57:57.521Z</time></trkpt><trkpt lat="43.3387684" lon="12.7929131"><ele>984.1666666666667</ele><time>2026-04-25T08:57:58.52Z</time></trkpt><trkpt lat="43.3387073" lon="12.7930145"><ele>985.3333333333334</ele><time>2026-04-25T08:57:59.518Z</time></trkpt><trkpt lat="43.3386522" lon="12.7931134"><ele>986.5</ele><time>2026-04-25T08:58:00.512Z</time></trkpt><trkpt lat="43.3385975" lon="12.793205"><ele>987.6666666666667</ele><time>2026-04-25T08:58:01.514Z</time></trkpt><trkpt lat="43.3385355" lon="12.7932834"><ele>988.8333333333334</ele><time>2026-04-25T08:58:02.516Z</time></trkpt><trkpt lat="43.3384653" lon="12.7933579"><ele>990.0</ele><time>2026-04-25T08:58:03.519Z</time></trkpt><trkpt lat="43.3383872" lon="12.7934334"><ele>986.8</ele><time>2026-04-25T08:58:04.52Z</time></trkpt><trkpt lat="43.3383105" lon="12.7935065"><ele>983.6</ele><time>2026-04-25T08:58:05.52Z</time></trkpt><trkpt lat="43.3382331" lon="12.7935737"><ele>980.4000000000001</ele><time>2026-04-25T08:58:06.513Z</time></trkpt><trkpt lat="43.3381522" lon="12.7936338"><ele>977.2</ele><time>2026-04-25T08:58:07.518Z</time></trkpt><trkpt lat="43.3380636" lon="12.7936868"><ele>974.0</ele><time>2026-04-25T08:58:08.52Z</time></trkpt><trkpt lat="43.3379661" lon="12.7937346"><ele>974.0</ele><time>2026-04-25T08:58:09.515Z</time></trkpt><trkpt lat="43.3378631" lon="12.7937901"><ele>974.0000000000001</ele><time>2026-04-25T08:58:10.519Z</time></trkpt><trkpt lat="43.3377578" lon="12.7938501"><ele>974.0000000000001</ele><time>2026-04-25T08:58:11.52Z</time></trkpt><trkpt lat="43.3376554" lon="12.7939153"><ele>974.0</ele><time>2026-04-25T08:58:12.521Z</time></trkpt><trkpt lat="43.3375596" lon="12.7939909"><ele>974.0</ele><time>2026-04-25T08:58:13.515Z</time></trkpt><trkpt lat="43.3374672" lon="12.7940759"><ele>974.0</ele><time>2026-04-25T08:58:14.519Z</time></trkpt><trkpt lat="43.3373733" lon="12.7941605"><ele>974.0</ele><time>2026-04-25T08:58:15.515Z</time></trkpt><trkpt lat="43.3372744" lon="12.7942416"><ele>974.0</ele><time>2026-04-25T08:58:16.518Z</time></trkpt><trkpt lat="43.3371725" lon="12.7943203"><ele>974.0</ele><time>2026-04-25T08:58:17.515Z</time></trkpt><trkpt lat="43.3370681" lon="12.7943973"><ele>972.2</ele><time>2026-04-25T08:58:18.52Z</time></trkpt><trkpt lat="43.3369633" lon="12.7944783"><ele>970.4000000000001</ele><time>2026-04-25T08:58:19.521Z</time></trkpt><trkpt lat="43.3368641" lon="12.7945601"><ele>968.6</ele><time>2026-04-25T08:58:20.519Z</time></trkpt><trkpt lat="43.3367704" lon="12.7946368"><ele>966.8</ele><time>2026-04-25T08:58:21.516Z</time></trkpt><trkpt lat="43.3366848" lon="12.7947064"><ele>965.0</ele><time>2026-04-25T08:58:22.516Z</time></trkpt><trkpt lat="43.3366021" lon="12.7947721"><ele>965.0000000000001</ele><time>2026-04-25T08:58:23.511Z</time></trkpt><trkpt lat="43.3365214" lon="12.7948246"><ele>965.0</ele><time>2026-04-25T08:58:24.515Z</time></trkpt><trkpt lat="43.3364467" lon="12.7948669"><ele>965.0</ele><time>2026-04-25T08:58:25.522Z</time></trkpt><trkpt lat="43.3363891" lon="12.7949044"><ele>965.0</ele><time>2026-04-25T08:58:26.518Z</time></trkpt><trkpt lat="43.3363192" lon="12.7949917"><ele>965.0000000000001</ele><time>2026-04-25T08:58:28.519Z</time></trkpt><trkpt lat="43.3363315" lon="12.7951195"><ele>965.0</ele><time>2026-04-25T08:58:30.514Z</time></trkpt><trkpt lat="43.336424" lon="12.7951788"><ele>965.0000000000001</ele><time>2026-04-25T08:58:32.52Z</time></trkpt><trkpt lat="43.3365473" lon="12.795144"><ele>965.0</ele><time>2026-04-25T08:58:34.521Z</time></trkpt><trkpt lat="43.3366038" lon="12.7950937"><ele>965.0</ele><time>2026-04-25T08:58:35.523Z</time></trkpt><trkpt lat="43.3366516" lon="12.7950349"><ele>965.0</ele><time>2026-04-25T08:58:36.517Z</time></trkpt><trkpt lat="43.3366986" lon="12.7949611"><ele>965.0000000000001</ele><time>2026-04-25T08:58:37.516Z</time></trkpt><trkpt lat="43.3367497" lon="12.7948738"><ele>965.0</ele><time>2026-04-25T08:58:38.52Z</time></trkpt><trkpt lat="43.3368077" lon="12.7947909"><ele>965.0</ele><time>2026-04-25T08:58:39.518Z</time></trkpt><trkpt lat="43.336876" lon="12.7947267"><ele>965.0</ele><time>2026-04-25T08:58:40.511Z</time></trkpt><trkpt lat="43.3369529" lon="12.7946811"><ele>965.0</ele><time>2026-04-25T08:58:41.513Z</time></trkpt><trkpt lat="43.3370424" lon="12.7946403"><ele>965.0</ele><time>2026-04-25T08:58:42.52Z</time></trkpt><trkpt lat="43.3371424" lon="12.7945961"><ele>965.0</ele><time>2026-04-25T08:58:43.51Z</time></trkpt><trkpt lat="43.3372364" lon="12.7945509"><ele>958.2</ele><time>2026-04-25T08:58:44.519Z</time></trkpt><trkpt lat="43.337329" lon="12.79451"><ele>951.4</ele><time>2026-04-25T08:58:45.52Z</time></trkpt><trkpt lat="43.3374214" lon="12.7944786"><ele>944.5999999999999</ele><time>2026-04-25T08:58:46.515Z</time></trkpt><trkpt lat="43.3375138" lon="12.7944611"><ele>937.8</ele><time>2026-04-25T08:58:47.515Z</time></trkpt><trkpt lat="43.3376074" lon="12.7944528"><ele>931.0</ele><time>2026-04-25T08:58:48.517Z</time></trkpt><trkpt lat="43.3377059" lon="12.7944477"><ele>931.0</ele><time>2026-04-25T08:58:49.518Z</time></trkpt><trkpt lat="43.337803" lon="12.7944453"><ele>930.9999999999999</ele><time>2026-04-25T08:58:50.519Z</time></trkpt><trkpt lat="43.3378983" lon="12.7944379"><ele>930.9999999999999</ele><time>2026-04-25T08:58:51.52Z</time></trkpt><trkpt lat="43.3379956" lon="12.7944251"><ele>931.0</ele><time>2026-04-25T08:58:52.519Z</time></trkpt><trkpt lat="43.3380922" lon="12.7944148"><ele>931.0</ele><time>2026-04-25T08:58:53.52Z</time></trkpt><trkpt lat="43.3381871" lon="12.7944097"><ele>927.5999999999999</ele><time>2026-04-25T08:58:54.518Z</time></trkpt><trkpt lat="43.3382815" lon="12.7944034"><ele>924.1999999999999</ele><time>2026-04-25T08:58:55.518Z</time></trkpt><trkpt lat="43.338378" lon="12.7943855"><ele>920.8000000000001</ele><time>2026-04-25T08:58:56.512Z</time></trkpt><trkpt lat="43.3384734" lon="12.7943528"><ele>917.4000000000001</ele><time>2026-04-25T08:58:57.517Z</time></trkpt><trkpt lat="43.3385617" lon="12.7943063"><ele>914.0</ele><time>2026-04-25T08:58:58.518Z</time></trkpt><trkpt lat="43.3386424" lon="12.7942569"><ele>913.1666666666667</ele><time>2026-04-25T08:58:59.509Z</time></trkpt><trkpt lat="43.338712" lon="12.7942078"><ele>912.3333333333334</ele><time>2026-04-25T08:59:00.518Z</time></trkpt><trkpt lat="43.3387763" lon="12.7941526"><ele>911.5</ele><time>2026-04-25T08:59:01.516Z</time></trkpt><trkpt lat="43.3388343" lon="12.7940857"><ele>910.6666666666667</ele><time>2026-04-25T08:59:02.523Z</time></trkpt><trkpt lat="43.3388959" lon="12.7939997"><ele>909.8333333333334</ele><time>2026-04-25T08:59:03.518Z</time></trkpt><trkpt lat="43.338963" lon="12.7938987"><ele>909.0</ele><time>2026-04-25T08:59:04.516Z</time></trkpt><trkpt lat="43.3390394" lon="12.7937909"><ele>909.0</ele><time>2026-04-25T08:59:05.507Z</time></trkpt><trkpt lat="43.339122" lon="12.7936837"><ele>909.0</ele><time>2026-04-25T08:59:06.516Z</time></trkpt><trkpt lat="43.3392091" lon="12.7935795"><ele>909.0</ele><time>2026-04-25T08:59:07.519Z</time></trkpt><trkpt lat="43.3393003" lon="12.7934829"><ele>909.0</ele><time>2026-04-25T08:59:08.521Z</time></trkpt><trkpt lat="43.3393956" lon="12.7933946"><ele>907.75</ele><time>2026-04-25T08:59:09.518Z</time></trkpt><trkpt lat="43.3394929" lon="12.7933101"><ele>906.5</ele><time>2026-04-25T08:59:10.514Z</time></trkpt><trkpt lat="43.3395922" lon="12.7932252"><ele>905.25</ele><time>2026-04-25T08:59:11.515Z</time></trkpt><trkpt lat="43.3396888" lon="12.7931387"><ele>904.0</ele><time>2026-04-25T08:59:12.522Z</time></trkpt><trkpt lat="43.3397839" lon="12.7930496"><ele>904.0</ele><time>2026-04-25T08:59:13.52Z</time></trkpt><trkpt lat="43.3398736" lon="12.7929533"><ele>904.0</ele><time>2026-04-25T08:59:14.519Z</time></trkpt><trkpt lat="43.33996" lon="12.7928471"><ele>904.0</ele><time>2026-04-25T08:59:15.509Z</time></trkpt><trkpt lat="43.3400458" lon="12.7927365"><ele>904.0</ele><time>2026-04-25T08:59:16.517Z</time></trkpt><trkpt lat="43.3401326" lon="12.7926254"><ele>910.75</ele><time>2026-04-25T08:59:17.516Z</time></trkpt><trkpt lat="43.3402177" lon="12.7925065"><ele>917.5</ele><time>2026-04-25T08:59:18.512Z</time></trkpt><trkpt lat="43.3403043" lon="12.7923805"><ele>924.25</ele><time>2026-04-25T08:59:19.519Z</time></trkpt><trkpt lat="43.3403906" lon="12.7922528"><ele>931.0</ele><time>2026-04-25T08:59:20.522Z</time></trkpt><trkpt lat="43.3404709" lon="12.792125"><ele>931.0</ele><time>2026-04-25T08:59:21.518Z</time></trkpt><trkpt lat="43.3405454" lon="12.7919941"><ele>931.0</ele><time>2026-04-25T08:59:22.52Z</time></trkpt><trkpt lat="43.3406172" lon="12.7918576"><ele>931.0</ele><time>2026-04-25T08:59:23.518Z</time></trkpt><trkpt lat="43.340685" lon="12.791716"><ele>931.0</ele><time>2026-04-25T08:59:24.521Z</time></trkpt><trkpt lat="43.3407503" lon="12.7915707"><ele>926.5</ele><time>2026-04-25T08:59:25.519Z</time></trkpt><trkpt lat="43.3408137" lon="12.791423"><ele>922.0</ele><time>2026-04-25T08:59:26.517Z</time></trkpt><trkpt lat="43.3408732" lon="12.7912741"><ele>917.5</ele><time>2026-04-25T08:59:27.521Z</time></trkpt><trkpt lat="43.3409306" lon="12.7911239"><ele>913.0</ele><time>2026-04-25T08:59:28.52Z</time></trkpt><trkpt lat="43.3409885" lon="12.7909731"><ele>913.0</ele><time>2026-04-25T08:59:29.519Z</time></trkpt><trkpt lat="43.3410478" lon="12.790823"><ele>913.0</ele><time>2026-04-25T08:59:30.517Z</time></trkpt><trkpt lat="43.3411065" lon="12.7906761"><ele>913.0</ele><time>2026-04-25T08:59:31.514Z</time></trkpt><trkpt lat="43.3411676" lon="12.7905357"><ele>913.0</ele><time>2026-04-25T08:59:32.519Z</time></trkpt><trkpt lat="43.3412293" lon="12.790401"><ele>913.0</ele><time>2026-04-25T08:59:33.521Z</time></trkpt><trkpt lat="43.341287" lon="12.790267"><ele>913.0</ele><time>2026-04-25T08:59:34.516Z</time></trkpt><trkpt lat="43.3413413" lon="12.7901285"><ele>913.0</ele><time>2026-04-25T08:59:35.519Z</time></trkpt><trkpt lat="43.3413931" lon="12.7899887"><ele>913.0</ele><time>2026-04-25T08:59:36.521Z</time></trkpt><trkpt lat="43.3414437" lon="12.7898514"><ele>907.75</ele><time>2026-04-25T08:59:37.513Z</time></trkpt><trkpt lat="43.3414934" lon="12.7897194"><ele>902.5</ele><time>2026-04-25T08:59:38.516Z</time></trkpt><trkpt lat="43.3415438" lon="12.7895886"><ele>897.25</ele><time>2026-04-25T08:59:39.511Z</time></trkpt><trkpt lat="43.3415974" lon="12.7894465"><ele>892.0</ele><time>2026-04-25T08:59:40.518Z</time></trkpt><trkpt lat="43.3416594" lon="12.7892966"><ele>892.0</ele><time>2026-04-25T08:59:41.518Z</time></trkpt><trkpt lat="43.341729" lon="12.789146"><ele>892.0</ele><time>2026-04-25T08:59:42.517Z</time></trkpt><trkpt lat="43.3418055" lon="12.7890055"><ele>892.0</ele><time>2026-04-25T08:59:43.517Z</time></trkpt><trkpt lat="43.3418863" lon="12.7888777"><ele>892.0</ele><time>2026-04-25T08:59:44.514Z</time></trkpt><trkpt lat="43.3419661" lon="12.7887646"><ele>892.0</ele><time>2026-04-25T08:59:45.519Z</time></trkpt><trkpt lat="43.3420464" lon="12.788663"><ele>892.0</ele><time>2026-04-25T08:59:46.517Z</time></trkpt><trkpt lat="43.3421362" lon="12.7885723"><ele>892.0</ele><time>2026-04-25T08:59:47.513Z</time></trkpt><trkpt lat="43.3422317" lon="12.7884964"><ele>892.0</ele><time>2026-04-25T08:59:48.51Z</time></trkpt><trkpt lat="43.3423281" lon="12.7884395"><ele>892.0</ele><time>2026-04-25T08:59:49.515Z</time></trkpt><trkpt lat="43.3424271" lon="12.788404"><ele>891.0</ele><time>2026-04-25T08:59:50.515Z</time></trkpt><trkpt lat="43.3425256" lon="12.7883931"><ele>890.0</ele><time>2026-04-25T08:59:51.517Z</time></trkpt><trkpt lat="43.342621" lon="12.7884158"><ele>889.0</ele><time>2026-04-25T08:59:52.517Z</time></trkpt><trkpt lat="43.342718" lon="12.7884548"><ele>888.0</ele><time>2026-04-25T08:59:53.517Z</time></trkpt><trkpt lat="43.3428174" lon="12.7884959"><ele>887.0</ele><time>2026-04-25T08:59:54.521Z</time></trkpt><trkpt lat="43.3429203" lon="12.7885379"><ele>882.6</ele><time>2026-04-25T08:59:55.521Z</time></trkpt><trkpt lat="43.3430234" lon="12.7885777"><ele>878.2</ele><time>2026-04-25T08:59:56.516Z</time></trkpt><trkpt lat="43.3431218" lon="12.7886161"><ele>873.8</ele><time>2026-04-25T08:59:57.52Z</time></trkpt><trkpt lat="43.3432201" lon="12.7886523"><ele>869.4</ele><time>2026-04-25T08:59:58.52Z</time></trkpt><trkpt lat="43.3433178" lon="12.7886908"><ele>865.0</ele><time>2026-04-25T08:59:59.514Z</time></trkpt><trkpt lat="43.3434147" lon="12.7887392"><ele>864.2</ele><time>2026-04-25T09:00:00.516Z</time></trkpt><trkpt lat="43.3435098" lon="12.7887921"><ele>863.4</ele><time>2026-04-25T09:00:01.516Z</time></trkpt><trkpt lat="43.3436023" lon="12.788848"><ele>862.5999999999999</ele><time>2026-04-25T09:00:02.509Z</time></trkpt><trkpt lat="43.3436953" lon="12.7889034"><ele>861.8</ele><time>2026-04-25T09:00:03.516Z</time></trkpt><trkpt lat="43.3437874" lon="12.7889562"><ele>861.0</ele><time>2026-04-25T09:00:04.511Z</time></trkpt><trkpt lat="43.3438776" lon="12.7890035"><ele>862.1666666666666</ele><time>2026-04-25T09:00:05.516Z</time></trkpt><trkpt lat="43.3439601" lon="12.7890529"><ele>863.3333333333333</ele><time>2026-04-25T09:00:06.518Z</time></trkpt><trkpt lat="43.3440399" lon="12.7890994"><ele>864.5</ele><time>2026-04-25T09:00:07.509Z</time></trkpt><trkpt lat="43.34412" lon="12.7891407"><ele>865.6666666666666</ele><time>2026-04-25T09:00:08.517Z</time></trkpt><trkpt lat="43.3441983" lon="12.7891781"><ele>866.8333333333333</ele><time>2026-04-25T09:00:09.519Z</time></trkpt><trkpt lat="43.3442745" lon="12.7892116"><ele>868.0</ele><time>2026-04-25T09:00:10.521Z</time></trkpt><trkpt lat="43.3443489" lon="12.7892417"><ele>867.9999999999999</ele><time>2026-04-25T09:00:11.52Z</time></trkpt><trkpt lat="43.3444168" lon="12.7892663"><ele>868.0</ele><time>2026-04-25T09:00:12.525Z</time></trkpt><trkpt lat="43.3445208" lon="12.789307"><ele>868.0</ele><time>2026-04-25T09:00:14.518Z</time></trkpt><trkpt lat="43.3445923" lon="12.7893352"><ele>868.0</ele><time>2026-04-25T09:00:16.522Z</time></trkpt><trkpt lat="43.3446581" lon="12.7893888"><ele>867.9999999999999</ele><time>2026-04-25T09:00:18.52Z</time></trkpt><trkpt lat="43.3447221" lon="12.7894448"><ele>868.0</ele><time>2026-04-25T09:00:20.519Z</time></trkpt><trkpt lat="43.3447913" lon="12.7894731"><ele>864.1428571428571</ele><time>2026-04-25T09:00:25.519Z</time></trkpt><trkpt lat="43.3448686" lon="12.789503"><ele>860.2857142857142</ele><time>2026-04-25T09:00:27.512Z</time></trkpt><trkpt lat="43.3449297" lon="12.7895317"><ele>856.4285714285714</ele><time>2026-04-25T09:00:28.52Z</time></trkpt><trkpt lat="43.3449933" lon="12.7895609"><ele>852.5714285714286</ele><time>2026-04-25T09:00:29.515Z</time></trkpt><trkpt lat="43.3450571" lon="12.7895934"><ele>848.7142857142857</ele><time>2026-04-25T09:00:30.519Z</time></trkpt><trkpt lat="43.3451229" lon="12.7896264"><ele>844.8571428571429</ele><time>2026-04-25T09:00:31.519Z</time></trkpt><trkpt lat="43.3451858" lon="12.7896623"><ele>841.0</ele><time>2026-04-25T09:00:32.52Z</time></trkpt><trkpt lat="43.3452655" lon="12.7897259"><ele>841.0</ele><time>2026-04-25T09:00:34.516Z</time></trkpt><trkpt lat="43.3453208" lon="12.7897721"><ele>841.0</ele><time>2026-04-25T09:00:41.514Z</time></trkpt><trkpt lat="43.345287" lon="12.7896931"><ele>841.0</ele><time>2026-04-25T09:00:54.512Z</time></trkpt><trkpt lat="43.3451966" lon="12.7896663"><ele>841.0</ele><time>2026-04-25T09:00:56.52Z</time></trkpt><trkpt lat="43.345136" lon="12.7896393"><ele>841.0</ele><time>2026-04-25T09:00:57.509Z</time></trkpt><trkpt lat="43.3450678" lon="12.7896022"><ele>841.0</ele><time>2026-04-25T09:00:58.521Z</time></trkpt><trkpt lat="43.3449997" lon="12.78956"><ele>841.0</ele><time>2026-04-25T09:00:59.522Z</time></trkpt><trkpt lat="43.344924" lon="12.7895138"><ele>840.9999999999999</ele><time>2026-04-25T09:01:00.521Z</time></trkpt><trkpt lat="43.3448451" lon="12.7894682"><ele>841.0</ele><time>2026-04-25T09:01:01.518Z</time></trkpt><trkpt lat="43.34477" lon="12.7894296"><ele>841.0</ele><time>2026-04-25T09:01:02.521Z</time></trkpt><trkpt lat="43.3447051" lon="12.7893984"><ele>841.0</ele><time>2026-04-25T09:01:03.51Z</time></trkpt><trkpt lat="43.3446098" lon="12.7893787"><ele>840.9999999999999</ele><time>2026-04-25T09:01:05.515Z</time></trkpt><trkpt lat="43.3445347" lon="12.7893898"><ele>841.0</ele><time>2026-04-25T09:01:07.514Z</time></trkpt><trkpt lat="43.344459" lon="12.7893841"><ele>838.5999999999999</ele><time>2026-04-25T09:01:09.519Z</time></trkpt><trkpt lat="43.3443918" lon="12.7893934"><ele>836.2</ele><time>2026-04-25T09:01:11.515Z</time></trkpt><trkpt lat="43.3442999" lon="12.7894341"><ele>833.8</ele><time>2026-04-25T09:01:13.521Z</time></trkpt><trkpt lat="43.3441814" lon="12.7894779"><ele>831.4000000000001</ele><time>2026-04-25T09:01:15.52Z</time></trkpt><trkpt lat="43.3440619" lon="12.7895173"><ele>829.0</ele><time>2026-04-25T09:01:17.516Z</time></trkpt><trkpt lat="43.343952" lon="12.7895553"><ele>829.6</ele><time>2026-04-25T09:01:19.519Z</time></trkpt><trkpt lat="43.3438263" lon="12.7895671"><ele>830.2</ele><time>2026-04-25T09:01:21.516Z</time></trkpt><trkpt lat="43.3437503" lon="12.789578"><ele>830.8000000000001</ele><time>2026-04-25T09:01:22.516Z</time></trkpt><trkpt lat="43.3436719" lon="12.7895971"><ele>831.4000000000001</ele><time>2026-04-25T09:01:23.518Z</time></trkpt><trkpt lat="43.3435983" lon="12.7896141"><ele>832.0</ele><time>2026-04-25T09:01:24.515Z</time></trkpt><trkpt lat="43.3434859" lon="12.7896418"><ele>831.9999999999999</ele><time>2026-04-25T09:01:26.519Z</time></trkpt><trkpt lat="43.343371" lon="12.7896699"><ele>832.0</ele><time>2026-04-25T09:01:28.523Z</time></trkpt><trkpt lat="43.3433093" lon="12.7896998"><ele>832.0</ele><time>2026-04-25T09:01:29.513Z</time></trkpt><trkpt lat="43.3432474" lon="12.7897533"><ele>832.0</ele><time>2026-04-25T09:01:30.516Z</time></trkpt><trkpt lat="43.3431835" lon="12.7898166"><ele>831.9999999999999</ele><time>2026-04-25T09:01:31.524Z</time></trkpt><trkpt lat="43.3431197" lon="12.789874"><ele>832.0</ele><time>2026-04-25T09:01:32.515Z</time></trkpt><trkpt lat="43.3430569" lon="12.7899204"><ele>834.4000000000001</ele><time>2026-04-25T09:01:33.519Z</time></trkpt><trkpt lat="43.3429937" lon="12.7899492"><ele>836.8000000000001</ele><time>2026-04-25T09:01:34.519Z</time></trkpt><trkpt lat="43.3428848" lon="12.7899468"><ele>839.2</ele><time>2026-04-25T09:01:36.52Z</time></trkpt><trkpt lat="43.3428029" lon="12.7898966"><ele>841.6</ele><time>2026-04-25T09:01:38.514Z</time></trkpt><trkpt lat="43.3427434" lon="12.789997"><ele>844.0</ele><time>2026-04-25T09:01:41.519Z</time></trkpt><trkpt lat="43.3427341" lon="12.7901379"><ele>840.8000000000001</ele><time>2026-04-25T09:01:43.52Z</time></trkpt><trkpt lat="43.3427278" lon="12.7902724"><ele>837.6</ele><time>2026-04-25T09:01:45.512Z</time></trkpt><trkpt lat="43.3427084" lon="12.7904114"><ele>834.4</ele><time>2026-04-25T09:01:47.523Z</time></trkpt><trkpt lat="43.3427189" lon="12.7905579"><ele>831.2</ele><time>2026-04-25T09:01:49.519Z</time></trkpt><trkpt lat="43.3427361" lon="12.7907176"><ele>828.0</ele><time>2026-04-25T09:01:51.517Z</time></trkpt><trkpt lat="43.3427327" lon="12.790808"><ele>828.0</ele><time>2026-04-25T09:01:52.519Z</time></trkpt><trkpt lat="43.3427182" lon="12.7909028"><ele>828.0</ele><time>2026-04-25T09:01:53.517Z</time></trkpt><trkpt lat="43.342697" lon="12.7910021"><ele>828.0</ele><time>2026-04-25T09:01:54.519Z</time></trkpt><trkpt lat="43.3426748" lon="12.7911004"><ele>828.0</ele><time>2026-04-25T09:01:55.519Z</time></trkpt><trkpt lat="43.342654" lon="12.7911923"><ele>828.0</ele><time>2026-04-25T09:01:56.515Z</time></trkpt><trkpt lat="43.3426305" lon="12.7913153"><ele>828.0</ele><time>2026-04-25T09:01:58.516Z</time></trkpt><trkpt lat="43.3425941" lon="12.7914068"><ele>825.0</ele><time>2026-04-25T09:02:00.523Z</time></trkpt><trkpt lat="43.3425954" lon="12.7915676"><ele>822.0</ele><time>2026-04-25T09:02:02.522Z</time></trkpt><trkpt lat="43.3425946" lon="12.7916568"><ele>819.0</ele><time>2026-04-25T09:02:03.519Z</time></trkpt><trkpt lat="43.3425837" lon="12.791753"><ele>816.0</ele><time>2026-04-25T09:02:04.517Z</time></trkpt><trkpt lat="43.3425643" lon="12.7918534"><ele>813.0</ele><time>2026-04-25T09:02:05.518Z</time></trkpt><trkpt lat="43.34254" lon="12.7919622"><ele>810.0</ele><time>2026-04-25T09:02:06.516Z</time></trkpt><trkpt lat="43.3425224" lon="12.7920659"><ele>806.3333333333334</ele><time>2026-04-25T09:02:07.517Z</time></trkpt><trkpt lat="43.3425065" lon="12.7921643"><ele>802.6666666666667</ele><time>2026-04-25T09:02:08.516Z</time></trkpt><trkpt lat="43.3424843" lon="12.7922637"><ele>799.0</ele><time>2026-04-25T09:02:09.515Z</time></trkpt><trkpt lat="43.3424564" lon="12.7923635"><ele>795.3333333333334</ele><time>2026-04-25T09:02:10.518Z</time></trkpt><trkpt lat="43.3424247" lon="12.7924686"><ele>791.6666666666667</ele><time>2026-04-25T09:02:11.517Z</time></trkpt><trkpt lat="43.34239" lon="12.7925721"><ele>788.0</ele><time>2026-04-25T09:02:12.512Z</time></trkpt><trkpt lat="43.342354" lon="12.7926691"><ele>791.1666666666667</ele><time>2026-04-25T09:02:13.519Z</time></trkpt><trkpt lat="43.3423163" lon="12.7927615"><ele>794.3333333333334</ele><time>2026-04-25T09:02:14.516Z</time></trkpt><trkpt lat="43.342277" lon="12.7928541"><ele>797.5</ele><time>2026-04-25T09:02:15.519Z</time></trkpt><trkpt lat="43.3422399" lon="12.7929444"><ele>800.6666666666667</ele><time>2026-04-25T09:02:16.515Z</time></trkpt><trkpt lat="43.3422037" lon="12.7930319"><ele>803.8333333333334</ele><time>2026-04-25T09:02:17.519Z</time></trkpt><trkpt lat="43.3421651" lon="12.7931185"><ele>807.0</ele><time>2026-04-25T09:02:18.517Z</time></trkpt><trkpt lat="43.3421292" lon="12.7932105"><ele>807.0</ele><time>2026-04-25T09:02:19.517Z</time></trkpt><trkpt lat="43.342098" lon="12.7933089"><ele>807.0</ele><time>2026-04-25T09:02:20.519Z</time></trkpt><trkpt lat="43.3420707" lon="12.7934096"><ele>807.0</ele><time>2026-04-25T09:02:21.52Z</time></trkpt><trkpt lat="43.3420463" lon="12.7935128"><ele>807.0</ele><time>2026-04-25T09:02:22.523Z</time></trkpt><trkpt lat="43.3420215" lon="12.7936113"><ele>807.0</ele><time>2026-04-25T09:02:23.519Z</time></trkpt><trkpt lat="43.3419932" lon="12.7937057"><ele>807.0</ele><time>2026-04-25T09:02:24.509Z</time></trkpt><trkpt lat="43.3419602" lon="12.7937986"><ele>803.2857142857143</ele><time>2026-04-25T09:02:25.518Z</time></trkpt><trkpt lat="43.341925" lon="12.7938837"><ele>799.5714285714286</ele><time>2026-04-25T09:02:26.516Z</time></trkpt><trkpt lat="43.3418851" lon="12.793964"><ele>795.8571428571429</ele><time>2026-04-25T09:02:27.518Z</time></trkpt><trkpt lat="43.3418423" lon="12.7940401"><ele>792.1428571428571</ele><time>2026-04-25T09:02:28.519Z</time></trkpt><trkpt lat="43.3417978" lon="12.7941078"><ele>788.4285714285714</ele><time>2026-04-25T09:02:29.515Z</time></trkpt><trkpt lat="43.3417487" lon="12.7941682"><ele>784.7142857142858</ele><time>2026-04-25T09:02:30.515Z</time></trkpt><trkpt lat="43.3416939" lon="12.7942329"><ele>781.0</ele><time>2026-04-25T09:02:31.518Z</time></trkpt><trkpt lat="43.3416382" lon="12.7942998"><ele>781.6666666666666</ele><time>2026-04-25T09:02:32.52Z</time></trkpt><trkpt lat="43.3415865" lon="12.7943632"><ele>782.3333333333333</ele><time>2026-04-25T09:02:33.518Z</time></trkpt><trkpt lat="43.3415067" lon="12.7944808"><ele>783.0</ele><time>2026-04-25T09:02:35.519Z</time></trkpt><trkpt lat="43.3414282" lon="12.7946105"><ele>783.6666666666667</ele><time>2026-04-25T09:02:37.518Z</time></trkpt><trkpt lat="43.3413822" lon="12.7946789"><ele>784.3333333333334</ele><time>2026-04-25T09:02:38.516Z</time></trkpt><trkpt lat="43.3413366" lon="12.7947464"><ele>785.0</ele><time>2026-04-25T09:02:39.514Z</time></trkpt><trkpt lat="43.3412877" lon="12.7948125"><ele>785.0</ele><time>2026-04-25T09:02:40.52Z</time></trkpt><trkpt lat="43.3412416" lon="12.7948784"><ele>785.0</ele><time>2026-04-25T09:02:41.516Z</time></trkpt><trkpt lat="43.3411643" lon="12.7950059"><ele>785.0</ele><time>2026-04-25T09:02:43.519Z</time></trkpt><trkpt lat="43.3410874" lon="12.7951426"><ele>785.0</ele><time>2026-04-25T09:02:45.518Z</time></trkpt><trkpt lat="43.3410398" lon="12.7952201"><ele>785.0</ele><time>2026-04-25T09:02:46.517Z</time></trkpt><trkpt lat="43.3409884" lon="12.795298"><ele>779.1666666666667</ele><time>2026-04-25T09:02:47.519Z</time></trkpt><trkpt lat="43.3409394" lon="12.7953728"><ele>773.3333333333334</ele><time>2026-04-25T09:02:48.519Z</time></trkpt><trkpt lat="43.3408948" lon="12.795444"><ele>767.5</ele><time>2026-04-25T09:02:49.515Z</time></trkpt><trkpt lat="43.3408526" lon="12.7955096"><ele>761.6666666666667</ele><time>2026-04-25T09:02:50.518Z</time></trkpt><trkpt lat="43.3407692" lon="12.7956426"><ele>755.8333333333334</ele><time>2026-04-25T09:02:52.523Z</time></trkpt><trkpt lat="43.3407252" lon="12.7957151"><ele>750.0</ele><time>2026-04-25T09:02:53.518Z</time></trkpt><trkpt lat="43.3406831" lon="12.7957913"><ele>750.0</ele><time>2026-04-25T09:02:54.519Z</time></trkpt><trkpt lat="43.3406448" lon="12.7958745"><ele>750.0</ele><time>2026-04-25T09:02:55.518Z</time></trkpt><trkpt lat="43.3406036" lon="12.7959636"><ele>750.0</ele><time>2026-04-25T09:02:56.519Z</time></trkpt><trkpt lat="43.340557" lon="12.7960557"><ele>750.0</ele><time>2026-04-25T09:02:57.518Z</time></trkpt><trkpt lat="43.3405082" lon="12.7961481"><ele>750.0</ele><time>2026-04-25T09:02:58.515Z</time></trkpt><trkpt lat="43.3404546" lon="12.7962415"><ele>750.0</ele><time>2026-04-25T09:02:59.518Z</time></trkpt><trkpt lat="43.3404007" lon="12.7963301"><ele>751.5</ele><time>2026-04-25T09:03:00.516Z</time></trkpt><trkpt lat="43.3403487" lon="12.7964118"><ele>753.0</ele><time>2026-04-25T09:03:01.519Z</time></trkpt><trkpt lat="43.3402955" lon="12.7964978"><ele>754.5</ele><time>2026-04-25T09:03:02.513Z</time></trkpt><trkpt lat="43.340243" lon="12.7965823"><ele>756.0</ele><time>2026-04-25T09:03:03.519Z</time></trkpt><trkpt lat="43.3401924" lon="12.7966602"><ele>757.5</ele><time>2026-04-25T09:03:04.518Z</time></trkpt><trkpt lat="43.3401495" lon="12.7967498"><ele>759.0</ele><time>2026-04-25T09:03:05.515Z</time></trkpt><trkpt lat="43.3401178" lon="12.7968447"><ele>752.6</ele><time>2026-04-25T09:03:06.517Z</time></trkpt><trkpt lat="43.3400916" lon="12.7969301"><ele>746.2</ele><time>2026-04-25T09:03:07.515Z</time></trkpt><trkpt lat="43.3400417" lon="12.7970695"><ele>739.8000000000001</ele><time>2026-04-25T09:03:09.518Z</time></trkpt><trkpt lat="43.3399668" lon="12.7972056"><ele>733.4000000000001</ele><time>2026-04-25T09:03:11.516Z</time></trkpt><trkpt lat="43.3399172" lon="12.7972797"><ele>727.0</ele><time>2026-04-25T09:03:12.518Z</time></trkpt><trkpt lat="43.3398589" lon="12.7973588"><ele>727.0</ele><time>2026-04-25T09:03:13.516Z</time></trkpt><trkpt lat="43.3397905" lon="12.7974457"><ele>727.0</ele><time>2026-04-25T09:03:14.514Z</time></trkpt><trkpt lat="43.3397197" lon="12.7975416"><ele>727.0</ele><time>2026-04-25T09:03:15.515Z</time></trkpt><trkpt lat="43.3396559" lon="12.7976387"><ele>727.0</ele><time>2026-04-25T09:03:16.51Z</time></trkpt><trkpt lat="43.3395959" lon="12.7977344"><ele>727.0</ele><time>2026-04-25T09:03:17.515Z</time></trkpt><trkpt lat="43.3395412" lon="12.7978281"><ele>728.6666666666667</ele><time>2026-04-25T09:03:18.515Z</time></trkpt><trkpt lat="43.3394899" lon="12.797926"><ele>730.3333333333334</ele><time>2026-04-25T09:03:19.514Z</time></trkpt><trkpt lat="43.3394439" lon="12.79802"><ele>732.0</ele><time>2026-04-25T09:03:20.517Z</time></trkpt><trkpt lat="43.3394044" lon="12.7981131"><ele>733.6666666666666</ele><time>2026-04-25T09:03:21.51Z</time></trkpt><trkpt lat="43.3393723" lon="12.7982109"><ele>735.3333333333333</ele><time>2026-04-25T09:03:22.518Z</time></trkpt><trkpt lat="43.3393469" lon="12.7983147"><ele>737.0</ele><time>2026-04-25T09:03:23.509Z</time></trkpt><trkpt lat="43.3393318" lon="12.798428"><ele>736.6666666666666</ele><time>2026-04-25T09:03:24.514Z</time></trkpt><trkpt lat="43.3393212" lon="12.7985405"><ele>736.3333333333333</ele><time>2026-04-25T09:03:25.513Z</time></trkpt><trkpt lat="43.3393094" lon="12.798644"><ele>736.0</ele><time>2026-04-25T09:03:26.516Z</time></trkpt><trkpt lat="43.339298" lon="12.7987323"><ele>735.6666666666666</ele><time>2026-04-25T09:03:27.516Z</time></trkpt><trkpt lat="43.3392695" lon="12.7988717"><ele>735.3333333333334</ele><time>2026-04-25T09:03:29.512Z</time></trkpt><trkpt lat="43.3392306" lon="12.7989934"><ele>735.0</ele><time>2026-04-25T09:03:31.513Z</time></trkpt><trkpt lat="43.3392269" lon="12.7990914"><ele>735.0</ele><time>2026-04-25T09:03:33.514Z</time></trkpt><trkpt lat="43.3393142" lon="12.7991442"><ele>735.0</ele><time>2026-04-25T09:03:35.513Z</time></trkpt><trkpt lat="43.3393787" lon="12.7991672"><ele>735.0</ele><time>2026-04-25T09:03:36.505Z</time></trkpt><trkpt lat="43.3394478" lon="12.7991845"><ele>735.0</ele><time>2026-04-25T09:03:37.514Z</time></trkpt><trkpt lat="43.3395147" lon="12.7991997"><ele>735.0</ele><time>2026-04-25T09:03:38.508Z</time></trkpt><trkpt lat="43.3395792" lon="12.799222"><ele>735.0</ele><time>2026-04-25T09:03:39.514Z</time></trkpt><trkpt lat="43.3396475" lon="12.7992638"><ele>735.0</ele><time>2026-04-25T09:03:40.511Z</time></trkpt><trkpt lat="43.339721" lon="12.7993265"><ele>734.4</ele><time>2026-04-25T09:03:41.513Z</time></trkpt><trkpt lat="43.3398043" lon="12.7994033"><ele>733.8</ele><time>2026-04-25T09:03:42.516Z</time></trkpt><trkpt lat="43.3398898" lon="12.7994854"><ele>733.2</ele><time>2026-04-25T09:03:43.514Z</time></trkpt><trkpt lat="43.3399625" lon="12.799561"><ele>732.6</ele><time>2026-04-25T09:03:44.514Z</time></trkpt><trkpt lat="43.3400352" lon="12.7996202"><ele>732.0</ele><time>2026-04-25T09:03:45.514Z</time></trkpt><trkpt lat="43.3401013" lon="12.7996793"><ele>732.0</ele><time>2026-04-25T09:03:46.506Z</time></trkpt><trkpt lat="43.3401689" lon="12.7997395"><ele>732.0</ele><time>2026-04-25T09:03:47.514Z</time></trkpt><trkpt lat="43.3402373" lon="12.7998005"><ele>732.0</ele><time>2026-04-25T09:03:48.512Z</time></trkpt><trkpt lat="43.3403008" lon="12.799858"><ele>732.0</ele><time>2026-04-25T09:03:49.516Z</time></trkpt><trkpt lat="43.3404039" lon="12.7999389"><ele>732.0</ele><time>2026-04-25T09:03:51.51Z</time></trkpt><trkpt lat="43.3404705" lon="12.7999726"><ele>732.0</ele><time>2026-04-25T09:03:52.516Z</time></trkpt><trkpt lat="43.3405503" lon="12.7999954"><ele>732.4000000000001</ele><time>2026-04-25T09:03:53.507Z</time></trkpt><trkpt lat="43.340628" lon="12.8000112"><ele>732.8000000000001</ele><time>2026-04-25T09:03:54.515Z</time></trkpt><trkpt lat="43.3407105" lon="12.8000353"><ele>733.2</ele><time>2026-04-25T09:03:55.517Z</time></trkpt><trkpt lat="43.3408049" lon="12.800077"><ele>733.6</ele><time>2026-04-25T09:03:56.512Z</time></trkpt><trkpt lat="43.3409036" lon="12.8001289"><ele>734.0</ele><time>2026-04-25T09:03:57.517Z</time></trkpt><trkpt lat="43.3410037" lon="12.800184"><ele>734.0</ele><time>2026-04-25T09:03:58.518Z</time></trkpt><trkpt lat="43.3411102" lon="12.8002345"><ele>734.0</ele><time>2026-04-25T09:03:59.505Z</time></trkpt><trkpt lat="43.341219" lon="12.8002832"><ele>734.0</ele><time>2026-04-25T09:04:00.511Z</time></trkpt><trkpt lat="43.341327" lon="12.8003282"><ele>734.0</ele><time>2026-04-25T09:04:01.515Z</time></trkpt><trkpt lat="43.3414298" lon="12.8003698"><ele>734.0</ele><time>2026-04-25T09:04:02.516Z</time></trkpt><trkpt lat="43.3415261" lon="12.8004086"><ele>729.6666666666666</ele><time>2026-04-25T09:04:03.513Z</time></trkpt><trkpt lat="43.3416171" lon="12.8004518"><ele>725.3333333333333</ele><time>2026-04-25T09:04:04.514Z</time></trkpt><trkpt lat="43.3416956" lon="12.8004968"><ele>721.0</ele><time>2026-04-25T09:04:05.508Z</time></trkpt><trkpt lat="43.3417631" lon="12.8005518"><ele>716.6666666666666</ele><time>2026-04-25T09:04:06.516Z</time></trkpt><trkpt lat="43.3418229" lon="12.800615"><ele>712.3333333333334</ele><time>2026-04-25T09:04:07.516Z</time></trkpt><trkpt lat="43.3418845" lon="12.8006849"><ele>708.0</ele><time>2026-04-25T09:04:08.514Z</time></trkpt><trkpt lat="43.3419439" lon="12.8007579"><ele>708.0</ele><time>2026-04-25T09:04:09.513Z</time></trkpt><trkpt lat="43.3420039" lon="12.8008393"><ele>708.0</ele><time>2026-04-25T09:04:10.515Z</time></trkpt><trkpt lat="43.3420633" lon="12.8009171"><ele>708.0</ele><time>2026-04-25T09:04:11.512Z</time></trkpt><trkpt lat="43.3421238" lon="12.8010005"><ele>708.0</ele><time>2026-04-25T09:04:12.516Z</time></trkpt><trkpt lat="43.3421805" lon="12.801087"><ele>708.0</ele><time>2026-04-25T09:04:13.509Z</time></trkpt><trkpt lat="43.3422318" lon="12.8011749"><ele>708.0</ele><time>2026-04-25T09:04:14.512Z</time></trkpt><trkpt lat="43.3422811" lon="12.8012549"><ele>703.3333333333334</ele><time>2026-04-25T09:04:15.516Z</time></trkpt><trkpt lat="43.3423325" lon="12.801338"><ele>698.6666666666666</ele><time>2026-04-25T09:04:16.513Z</time></trkpt><trkpt lat="43.3423826" lon="12.801424"><ele>694.0</ele><time>2026-04-25T09:04:17.514Z</time></trkpt><trkpt lat="43.3424288" lon="12.8015068"><ele>689.3333333333333</ele><time>2026-04-25T09:04:18.509Z</time></trkpt><trkpt lat="43.3424725" lon="12.8015871"><ele>684.6666666666666</ele><time>2026-04-25T09:04:19.513Z</time></trkpt><trkpt lat="43.3425108" lon="12.8016706"><ele>680.0</ele><time>2026-04-25T09:04:20.511Z</time></trkpt><trkpt lat="43.3425432" lon="12.8017632"><ele>679.0</ele><time>2026-04-25T09:04:21.515Z</time></trkpt><trkpt lat="43.3425639" lon="12.8018664"><ele>678.0</ele><time>2026-04-25T09:04:22.514Z</time></trkpt><trkpt lat="43.3425772" lon="12.8019802"><ele>677.0</ele><time>2026-04-25T09:04:23.513Z</time></trkpt><trkpt lat="43.3425939" lon="12.8020935"><ele>676.0</ele><time>2026-04-25T09:04:24.515Z</time></trkpt><trkpt lat="43.3426124" lon="12.8022003"><ele>675.0</ele><time>2026-04-25T09:04:25.515Z</time></trkpt><trkpt lat="43.3426218" lon="12.8023047"><ele>674.0</ele><time>2026-04-25T09:04:26.516Z</time></trkpt><trkpt lat="43.3426162" lon="12.8024098"><ele>674.0</ele><time>2026-04-25T09:04:27.51Z</time></trkpt><trkpt lat="43.3426016" lon="12.8025153"><ele>674.0</ele><time>2026-04-25T09:04:28.518Z</time></trkpt><trkpt lat="43.3425793" lon="12.8026153"><ele>674.0</ele><time>2026-04-25T09:04:29.518Z</time></trkpt><trkpt lat="43.3425453" lon="12.8027093"><ele>674.0</ele><time>2026-04-25T09:04:30.519Z</time></trkpt><trkpt lat="43.3424983" lon="12.8028028"><ele>674.0</ele><time>2026-04-25T09:04:31.514Z</time></trkpt><trkpt lat="43.342445" lon="12.802898"><ele>674.0</ele><time>2026-04-25T09:04:32.525Z</time></trkpt><trkpt lat="43.3423877" lon="12.8030007"><ele>674.4000000000001</ele><time>2026-04-25T09:04:33.521Z</time></trkpt><trkpt lat="43.3423275" lon="12.8031172"><ele>674.8</ele><time>2026-04-25T09:04:34.517Z</time></trkpt><trkpt lat="43.3422725" lon="12.8032404"><ele>675.2</ele><time>2026-04-25T09:04:35.515Z</time></trkpt><trkpt lat="43.3422233" lon="12.8033658"><ele>675.5999999999999</ele><time>2026-04-25T09:04:36.516Z</time></trkpt><trkpt lat="43.3421817" lon="12.8034895"><ele>676.0</ele><time>2026-04-25T09:04:37.512Z</time></trkpt><trkpt lat="43.3421455" lon="12.8036109"><ele>676.0</ele><time>2026-04-25T09:04:38.517Z</time></trkpt><trkpt lat="43.3421146" lon="12.8037356"><ele>676.0</ele><time>2026-04-25T09:04:39.517Z</time></trkpt><trkpt lat="43.3420837" lon="12.8038551"><ele>676.0</ele><time>2026-04-25T09:04:40.514Z</time></trkpt><trkpt lat="43.3420471" lon="12.8039626"><ele>676.0</ele><time>2026-04-25T09:04:41.52Z</time></trkpt><trkpt lat="43.3420069" lon="12.8040702"><ele>676.0</ele><time>2026-04-25T09:04:42.516Z</time></trkpt><trkpt lat="43.3419662" lon="12.8041783"><ele>676.0</ele><time>2026-04-25T09:04:43.52Z</time></trkpt><trkpt lat="43.3419222" lon="12.804269"><ele>676.0</ele><time>2026-04-25T09:04:44.512Z</time></trkpt><trkpt lat="43.3418723" lon="12.8043464"><ele>676.0</ele><time>2026-04-25T09:04:45.518Z</time></trkpt><trkpt lat="43.341819" lon="12.8044181"><ele>676.0</ele><time>2026-04-25T09:04:46.513Z</time></trkpt><trkpt lat="43.341769" lon="12.8044972"><ele>676.0</ele><time>2026-04-25T09:04:47.517Z</time></trkpt><trkpt lat="43.3417215" lon="12.804586"><ele>676.0</ele><time>2026-04-25T09:04:48.518Z</time></trkpt><trkpt lat="43.3416793" lon="12.8046878"><ele>671.1666666666667</ele><time>2026-04-25T09:04:49.521Z</time></trkpt><trkpt lat="43.3416482" lon="12.8048039"><ele>666.3333333333334</ele><time>2026-04-25T09:04:50.516Z</time></trkpt><trkpt lat="43.3416167" lon="12.8049229"><ele>661.5</ele><time>2026-04-25T09:04:51.515Z</time></trkpt><trkpt lat="43.3415856" lon="12.8050384"><ele>656.6666666666666</ele><time>2026-04-25T09:04:52.519Z</time></trkpt><trkpt lat="43.3415613" lon="12.8051551"><ele>651.8333333333333</ele><time>2026-04-25T09:04:53.518Z</time></trkpt><trkpt lat="43.3415466" lon="12.8052708"><ele>647.0</ele><time>2026-04-25T09:04:54.513Z</time></trkpt><trkpt lat="43.3415289" lon="12.8053762"><ele>647.3333333333333</ele><time>2026-04-25T09:04:55.516Z</time></trkpt><trkpt lat="43.3415028" lon="12.805471"><ele>647.6666666666666</ele><time>2026-04-25T09:04:56.516Z</time></trkpt><trkpt lat="43.3414655" lon="12.8055604"><ele>648.0</ele><time>2026-04-25T09:04:57.515Z</time></trkpt><trkpt lat="43.341421" lon="12.8056499"><ele>648.3333333333334</ele><time>2026-04-25T09:04:58.518Z</time></trkpt><trkpt lat="43.3413778" lon="12.8057443"><ele>648.6666666666667</ele><time>2026-04-25T09:04:59.517Z</time></trkpt><trkpt lat="43.3413377" lon="12.8058385"><ele>649.0</ele><time>2026-04-25T09:05:00.516Z</time></trkpt><trkpt lat="43.3412905" lon="12.8059272"><ele>645.1666666666667</ele><time>2026-04-25T09:05:01.522Z</time></trkpt><trkpt lat="43.3412394" lon="12.8060141"><ele>641.3333333333334</ele><time>2026-04-25T09:05:02.519Z</time></trkpt><trkpt lat="43.3411869" lon="12.806099"><ele>637.5</ele><time>2026-04-25T09:05:03.519Z</time></trkpt><trkpt lat="43.3411322" lon="12.8061785"><ele>633.6666666666666</ele><time>2026-04-25T09:05:04.518Z</time></trkpt><trkpt lat="43.3410708" lon="12.806249"><ele>629.8333333333333</ele><time>2026-04-25T09:05:05.519Z</time></trkpt><trkpt lat="43.3410036" lon="12.8063191"><ele>626.0</ele><time>2026-04-25T09:05:06.52Z</time></trkpt><trkpt lat="43.3409341" lon="12.8063989"><ele>626.0</ele><time>2026-04-25T09:05:07.514Z</time></trkpt><trkpt lat="43.3408606" lon="12.8064934"><ele>626.0</ele><time>2026-04-25T09:05:08.524Z</time></trkpt><trkpt lat="43.3407922" lon="12.8065951"><ele>626.0</ele><time>2026-04-25T09:05:09.514Z</time></trkpt><trkpt lat="43.3407315" lon="12.806699"><ele>626.0</ele><time>2026-04-25T09:05:10.518Z</time></trkpt><trkpt lat="43.3406835" lon="12.806802"><ele>626.0</ele><time>2026-04-25T09:05:11.519Z</time></trkpt><trkpt lat="43.3406465" lon="12.8069056"><ele>626.3333333333333</ele><time>2026-04-25T09:05:12.52Z</time></trkpt><trkpt lat="43.3406141" lon="12.8070137"><ele>626.6666666666666</ele><time>2026-04-25T09:05:13.517Z</time></trkpt><trkpt lat="43.3405882" lon="12.8071216"><ele>627.0</ele><time>2026-04-25T09:05:14.509Z</time></trkpt><trkpt lat="43.3405714" lon="12.8072306"><ele>627.3333333333334</ele><time>2026-04-25T09:05:15.509Z</time></trkpt><trkpt lat="43.3405576" lon="12.8073413"><ele>627.6666666666667</ele><time>2026-04-25T09:05:16.517Z</time></trkpt><trkpt lat="43.3405363" lon="12.8074531"><ele>628.0</ele><time>2026-04-25T09:05:17.517Z</time></trkpt><trkpt lat="43.3405097" lon="12.8075637"><ele>625.6</ele><time>2026-04-25T09:05:18.513Z</time></trkpt><trkpt lat="43.3404825" lon="12.8076604"><ele>623.1999999999999</ele><time>2026-04-25T09:05:19.514Z</time></trkpt><trkpt lat="43.3404402" lon="12.8077896"><ele>620.8</ele><time>2026-04-25T09:05:21.519Z</time></trkpt><trkpt lat="43.3404085" lon="12.8078768"><ele>618.4</ele><time>2026-04-25T09:05:23.517Z</time></trkpt><trkpt lat="43.3403607" lon="12.8080067"><ele>616.0</ele><time>2026-04-25T09:05:25.518Z</time></trkpt><trkpt lat="43.3403031" lon="12.8081588"><ele>616.0</ele><time>2026-04-25T09:05:27.514Z</time></trkpt><trkpt lat="43.3402869" lon="12.8082459"><ele>616.0</ele><time>2026-04-25T09:05:28.516Z</time></trkpt><trkpt lat="43.3402758" lon="12.8083384"><ele>616.0</ele><time>2026-04-25T09:05:29.519Z</time></trkpt><trkpt lat="43.340277" lon="12.8084938"><ele>616.0</ele><time>2026-04-25T09:05:31.522Z</time></trkpt><trkpt lat="43.3403058" lon="12.8085795"><ele>616.0</ele><time>2026-04-25T09:05:34.521Z</time></trkpt><trkpt lat="43.3403634" lon="12.8086693"><ele>616.0</ele><time>2026-04-25T09:05:39.517Z</time></trkpt><trkpt lat="43.3404295" lon="12.8087225"><ele>613.1666666666667</ele><time>2026-04-25T09:05:41.511Z</time></trkpt><trkpt lat="43.3405022" lon="12.8087596"><ele>610.3333333333334</ele><time>2026-04-25T09:05:42.518Z</time></trkpt><trkpt lat="43.3405715" lon="12.8087912"><ele>607.5</ele><time>2026-04-25T09:05:43.519Z</time></trkpt><trkpt lat="43.3406488" lon="12.8088674"><ele>604.6666666666666</ele><time>2026-04-25T09:05:45.516Z</time></trkpt><trkpt lat="43.340674" lon="12.8089835"><ele>601.8333333333333</ele><time>2026-04-25T09:05:47.522Z</time></trkpt><trkpt lat="43.3407386" lon="12.8090982"><ele>599.0</ele><time>2026-04-25T09:05:49.513Z</time></trkpt><trkpt lat="43.3407808" lon="12.8092094"><ele>596.8333333333333</ele><time>2026-04-25T09:05:51.516Z</time></trkpt><trkpt lat="43.3407456" lon="12.8093168"><ele>594.6666666666666</ele><time>2026-04-25T09:05:53.517Z</time></trkpt><trkpt lat="43.3406725" lon="12.8093834"><ele>592.5</ele><time>2026-04-25T09:05:55.52Z</time></trkpt><trkpt lat="43.3406098" lon="12.8094424"><ele>590.3333333333334</ele><time>2026-04-25T09:05:57.519Z</time></trkpt><trkpt lat="43.3405627" lon="12.8095153"><ele>588.1666666666667</ele><time>2026-04-25T09:05:59.513Z</time></trkpt><trkpt lat="43.3405201" lon="12.8096117"><ele>586.0</ele><time>2026-04-25T09:06:01.524Z</time></trkpt><trkpt lat="43.3404575" lon="12.8097337"><ele>584.0</ele><time>2026-04-25T09:06:03.515Z</time></trkpt><trkpt lat="43.3403656" lon="12.8098455"><ele>582.0</ele><time>2026-04-25T09:06:05.524Z</time></trkpt><trkpt lat="43.3402741" lon="12.809949"><ele>580.0</ele><time>2026-04-25T09:06:07.523Z</time></trkpt><trkpt lat="43.3401837" lon="12.8100678"><ele>578.0</ele><time>2026-04-25T09:06:09.517Z</time></trkpt><trkpt lat="43.3401105" lon="12.8101851"><ele>573.5</ele><time>2026-04-25T09:06:11.514Z</time></trkpt><trkpt lat="43.3400444" lon="12.8103264"><ele>569.0</ele><time>2026-04-25T09:06:13.52Z</time></trkpt><trkpt lat="43.3400037" lon="12.8104066"><ele>564.5</ele><time>2026-04-25T09:06:14.52Z</time></trkpt><trkpt lat="43.3399548" lon="12.8104805"><ele>560.0</ele><time>2026-04-25T09:06:15.519Z</time></trkpt><trkpt lat="43.3399015" lon="12.8105526"><ele>555.5</ele><time>2026-04-25T09:06:16.514Z</time></trkpt><trkpt lat="43.3398484" lon="12.8106149"><ele>551.0</ele><time>2026-04-25T09:06:17.51Z</time></trkpt><trkpt lat="43.3397602" lon="12.8107095"><ele>551.0</ele><time>2026-04-25T09:06:19.515Z</time></trkpt><trkpt lat="43.3396974" lon="12.8108023"><ele>551.0</ele><time>2026-04-25T09:06:21.513Z</time></trkpt><trkpt lat="43.3396705" lon="12.8108812"><ele>551.0</ele><time>2026-04-25T09:06:23.519Z</time></trkpt><trkpt lat="43.3395851" lon="12.8108868"><ele>551.0</ele><time>2026-04-25T09:06:28.519Z</time></trkpt><trkpt lat="43.3394993" lon="12.8108086"><ele>551.0</ele><time>2026-04-25T09:06:30.521Z</time></trkpt><trkpt lat="43.3394205" lon="12.8106807"><ele>551.0</ele><time>2026-04-25T09:06:32.519Z</time></trkpt><trkpt lat="43.3393943" lon="12.8106016"><ele>551.0</ele><time>2026-04-25T09:06:33.521Z</time></trkpt><trkpt lat="43.3393745" lon="12.810512"><ele>551.0</ele><time>2026-04-25T09:06:34.519Z</time></trkpt><trkpt lat="43.3393436" lon="12.8104119"><ele>551.0</ele><time>2026-04-25T09:06:35.516Z</time></trkpt><trkpt lat="43.3393041" lon="12.8103198"><ele>551.0</ele><time>2026-04-25T09:06:36.524Z</time></trkpt><trkpt lat="43.339265" lon="12.810251"><ele>551.0</ele><time>2026-04-25T09:06:37.516Z</time></trkpt><trkpt lat="43.339165" lon="12.8102281"><ele>551.0</ele><time>2026-04-25T09:06:39.511Z</time></trkpt><trkpt lat="43.3390594" lon="12.8102966"><ele>551.0</ele><time>2026-04-25T09:06:41.51Z</time></trkpt><trkpt lat="43.3389504" lon="12.8103346"><ele>551.0</ele><time>2026-04-25T09:06:43.52Z</time></trkpt><trkpt lat="43.3388561" lon="12.8103965"><ele>551.0</ele><time>2026-04-25T09:06:45.513Z</time></trkpt><trkpt lat="43.3388115" lon="12.8104605"><ele>551.0</ele><time>2026-04-25T09:06:46.522Z</time></trkpt><trkpt lat="43.3387199" lon="12.8105693"><ele>552.8</ele><time>2026-04-25T09:06:48.52Z</time></trkpt><trkpt lat="43.3386214" lon="12.810619"><ele>554.6</ele><time>2026-04-25T09:06:50.522Z</time></trkpt><trkpt lat="43.3385197" lon="12.8105775"><ele>556.4</ele><time>2026-04-25T09:06:52.522Z</time></trkpt><trkpt lat="43.338456" lon="12.8105244"><ele>558.2</ele><time>2026-04-25T09:06:53.525Z</time></trkpt><trkpt lat="43.338375" lon="12.8104652"><ele>560.0</ele><time>2026-04-25T09:06:54.516Z</time></trkpt><trkpt lat="43.3382839" lon="12.8104171"><ele>560.0</ele><time>2026-04-25T09:06:55.522Z</time></trkpt><trkpt lat="43.3381904" lon="12.8103798"><ele>560.0</ele><time>2026-04-25T09:06:56.515Z</time></trkpt><trkpt lat="43.3381043" lon="12.8103422"><ele>560.0</ele><time>2026-04-25T09:06:57.518Z</time></trkpt><trkpt lat="43.3380353" lon="12.8102949"><ele>560.0</ele><time>2026-04-25T09:06:58.514Z</time></trkpt><trkpt lat="43.3379846" lon="12.8102357"><ele>560.0</ele><time>2026-04-25T09:06:59.518Z</time></trkpt><trkpt lat="43.3379398" lon="12.8101604"><ele>560.0</ele><time>2026-04-25T09:07:00.52Z</time></trkpt><trkpt lat="43.337895" lon="12.8100783"><ele>562.2857142857143</ele><time>2026-04-25T09:07:01.52Z</time></trkpt><trkpt lat="43.3378502" lon="12.8100077"><ele>564.5714285714286</ele><time>2026-04-25T09:07:02.516Z</time></trkpt><trkpt lat="43.3377956" lon="12.8099464"><ele>566.8571428571429</ele><time>2026-04-25T09:07:03.516Z</time></trkpt><trkpt lat="43.3377335" lon="12.8098885"><ele>569.1428571428571</ele><time>2026-04-25T09:07:04.521Z</time></trkpt><trkpt lat="43.3376669" lon="12.8098331"><ele>571.4285714285714</ele><time>2026-04-25T09:07:05.52Z</time></trkpt><trkpt lat="43.3375964" lon="12.8097787"><ele>573.7142857142858</ele><time>2026-04-25T09:07:06.522Z</time></trkpt><trkpt lat="43.3375284" lon="12.8097374"><ele>576.0</ele><time>2026-04-25T09:07:07.515Z</time></trkpt><trkpt lat="43.3374675" lon="12.8097043"><ele>576.0</ele><time>2026-04-25T09:07:08.519Z</time></trkpt><trkpt lat="43.3373556" lon="12.8096415"><ele>576.0</ele><time>2026-04-25T09:07:10.519Z</time></trkpt><trkpt lat="43.337265" lon="12.8095834"><ele>576.0</ele><time>2026-04-25T09:07:12.512Z</time></trkpt><trkpt lat="43.3372049" lon="12.8095059"><ele>576.0</ele><time>2026-04-25T09:07:14.517Z</time></trkpt><trkpt lat="43.3370944" lon="12.8094968"><ele>576.0</ele><time>2026-04-25T09:07:16.521Z</time></trkpt><trkpt lat="43.3370149" lon="12.8095144"><ele>575.1666666666666</ele><time>2026-04-25T09:07:17.52Z</time></trkpt><trkpt lat="43.3369258" lon="12.8095245"><ele>574.3333333333334</ele><time>2026-04-25T09:07:18.514Z</time></trkpt><trkpt lat="43.3368422" lon="12.8095242"><ele>573.5</ele><time>2026-04-25T09:07:19.522Z</time></trkpt><trkpt lat="43.3367635" lon="12.8095127"><ele>572.6666666666667</ele><time>2026-04-25T09:07:20.514Z</time></trkpt><trkpt lat="43.3366865" lon="12.8094946"><ele>571.8333333333334</ele><time>2026-04-25T09:07:21.516Z</time></trkpt><trkpt lat="43.3366118" lon="12.8094678"><ele>571.0</ele><time>2026-04-25T09:07:22.516Z</time></trkpt><trkpt lat="43.3365368" lon="12.8094328"><ele>571.0</ele><time>2026-04-25T09:07:23.515Z</time></trkpt><trkpt lat="43.3364584" lon="12.8093918"><ele>571.0</ele><time>2026-04-25T09:07:24.517Z</time></trkpt><trkpt lat="43.336383" lon="12.8093474"><ele>571.0</ele><time>2026-04-25T09:07:25.52Z</time></trkpt><trkpt lat="43.3363075" lon="12.8092971"><ele>571.0</ele><time>2026-04-25T09:07:26.523Z</time></trkpt><trkpt lat="43.3362352" lon="12.809244"><ele>571.0</ele><time>2026-04-25T09:07:27.514Z</time></trkpt><trkpt lat="43.3361665" lon="12.8091872"><ele>571.0</ele><time>2026-04-25T09:07:28.52Z</time></trkpt><trkpt lat="43.3361003" lon="12.8091157"><ele>572.0</ele><time>2026-04-25T09:07:29.521Z</time></trkpt><trkpt lat="43.3360397" lon="12.8090293"><ele>573.0</ele><time>2026-04-25T09:07:30.515Z</time></trkpt><trkpt lat="43.3359967" lon="12.808937"><ele>574.0</ele><time>2026-04-25T09:07:31.517Z</time></trkpt><trkpt lat="43.3359666" lon="12.8088314"><ele>575.0</ele><time>2026-04-25T09:07:32.524Z</time></trkpt><trkpt lat="43.3359333" lon="12.808721"><ele>576.0</ele><time>2026-04-25T09:07:33.516Z</time></trkpt><trkpt lat="43.3358786" lon="12.8086247"><ele>577.0</ele><time>2026-04-25T09:07:34.515Z</time></trkpt><trkpt lat="43.3358053" lon="12.8085584"><ele>577.0</ele><time>2026-04-25T09:07:35.52Z</time></trkpt><trkpt lat="43.3357229" lon="12.8085108"><ele>577.0</ele><time>2026-04-25T09:07:36.511Z</time></trkpt><trkpt lat="43.3356336" lon="12.8084749"><ele>577.0</ele><time>2026-04-25T09:07:37.52Z</time></trkpt><trkpt lat="43.3355447" lon="12.8084352"><ele>577.0</ele><time>2026-04-25T09:07:38.515Z</time></trkpt><trkpt lat="43.3354611" lon="12.8083823"><ele>577.0</ele><time>2026-04-25T09:07:39.516Z</time></trkpt><trkpt lat="43.3353749" lon="12.8083265"><ele>579.0</ele><time>2026-04-25T09:07:40.517Z</time></trkpt><trkpt lat="43.3352804" lon="12.808281"><ele>581.0</ele><time>2026-04-25T09:07:41.511Z</time></trkpt><trkpt lat="43.3351799" lon="12.8082545"><ele>583.0</ele><time>2026-04-25T09:07:42.523Z</time></trkpt><trkpt lat="43.3350841" lon="12.8082373"><ele>585.0</ele><time>2026-04-25T09:07:43.514Z</time></trkpt><trkpt lat="43.3349989" lon="12.8082194"><ele>587.0</ele><time>2026-04-25T09:07:44.519Z</time></trkpt><trkpt lat="43.3349255" lon="12.8081884"><ele>587.0</ele><time>2026-04-25T09:07:45.52Z</time></trkpt><trkpt lat="43.3348687" lon="12.8081377"><ele>587.0</ele><time>2026-04-25T09:07:46.518Z</time></trkpt><trkpt lat="43.3348184" lon="12.8080698"><ele>587.0</ele><time>2026-04-25T09:07:47.52Z</time></trkpt><trkpt lat="43.3347722" lon="12.8079921"><ele>587.0</ele><time>2026-04-25T09:07:48.519Z</time></trkpt><trkpt lat="43.3347303" lon="12.8079097"><ele>587.0</ele><time>2026-04-25T09:07:49.515Z</time></trkpt><trkpt lat="43.334684" lon="12.8078229"><ele>587.0</ele><time>2026-04-25T09:07:50.519Z</time></trkpt><trkpt lat="43.3346315" lon="12.8077332"><ele>587.0</ele><time>2026-04-25T09:07:51.517Z</time></trkpt><trkpt lat="43.334577" lon="12.8076372"><ele>585.4</ele><time>2026-04-25T09:07:52.517Z</time></trkpt><trkpt lat="43.3345217" lon="12.8075388"><ele>583.8000000000001</ele><time>2026-04-25T09:07:53.51Z</time></trkpt><trkpt lat="43.3344658" lon="12.8074402"><ele>582.2</ele><time>2026-04-25T09:07:54.515Z</time></trkpt><trkpt lat="43.3344086" lon="12.8073411"><ele>580.6</ele><time>2026-04-25T09:07:55.519Z</time></trkpt><trkpt lat="43.3343501" lon="12.8072417"><ele>579.0</ele><time>2026-04-25T09:07:56.513Z</time></trkpt><trkpt lat="43.3342912" lon="12.8071391"><ele>579.0</ele><time>2026-04-25T09:07:57.518Z</time></trkpt><trkpt lat="43.3342292" lon="12.8070371"><ele>579.0</ele><time>2026-04-25T09:07:58.519Z</time></trkpt><trkpt lat="43.3341664" lon="12.8069339"><ele>579.0</ele><time>2026-04-25T09:07:59.522Z</time></trkpt><trkpt lat="43.3341015" lon="12.8068359"><ele>579.0</ele><time>2026-04-25T09:08:00.521Z</time></trkpt><trkpt lat="43.3340311" lon="12.8067498"><ele>579.0</ele><time>2026-04-25T09:08:01.515Z</time></trkpt><trkpt lat="43.3339563" lon="12.8066807"><ele>577.8333333333334</ele><time>2026-04-25T09:08:02.522Z</time></trkpt><trkpt lat="43.3338873" lon="12.8066225"><ele>576.6666666666666</ele><time>2026-04-25T09:08:03.512Z</time></trkpt><trkpt lat="43.3338308" lon="12.8065685"><ele>575.5</ele><time>2026-04-25T09:08:04.52Z</time></trkpt><trkpt lat="43.333779" lon="12.8064408"><ele>574.3333333333333</ele><time>2026-04-25T09:08:06.521Z</time></trkpt><trkpt lat="43.3337803" lon="12.8062735"><ele>573.1666666666666</ele><time>2026-04-25T09:08:08.522Z</time></trkpt><trkpt lat="43.3337656" lon="12.8061814"><ele>572.0</ele><time>2026-04-25T09:08:09.512Z</time></trkpt><trkpt lat="43.3337288" lon="12.8060979"><ele>572.0</ele><time>2026-04-25T09:08:10.515Z</time></trkpt><trkpt lat="43.3336797" lon="12.8060231"><ele>572.0</ele><time>2026-04-25T09:08:11.521Z</time></trkpt><trkpt lat="43.3336256" lon="12.8059545"><ele>572.0</ele><time>2026-04-25T09:08:12.515Z</time></trkpt><trkpt lat="43.3335585" lon="12.8058967"><ele>572.0</ele><time>2026-04-25T09:08:13.517Z</time></trkpt><trkpt lat="43.3334777" lon="12.8058589"><ele>572.0</ele><time>2026-04-25T09:08:14.523Z</time></trkpt><trkpt lat="43.3333948" lon="12.8058441"><ele>572.0</ele><time>2026-04-25T09:08:15.519Z</time></trkpt><trkpt lat="43.3333187" lon="12.8058441"><ele>573.0</ele><time>2026-04-25T09:08:16.515Z</time></trkpt><trkpt lat="43.3332523" lon="12.8058413"><ele>574.0</ele><time>2026-04-25T09:08:17.516Z</time></trkpt><trkpt lat="43.3331872" lon="12.8058171"><ele>575.0</ele><time>2026-04-25T09:08:18.518Z</time></trkpt><trkpt lat="43.3331211" lon="12.8057651"><ele>576.0</ele><time>2026-04-25T09:08:19.517Z</time></trkpt><trkpt lat="43.3330532" lon="12.805693"><ele>577.0</ele><time>2026-04-25T09:08:20.522Z</time></trkpt><trkpt lat="43.3329816" lon="12.8056197"><ele>578.0</ele><time>2026-04-25T09:08:21.513Z</time></trkpt><trkpt lat="43.3329115" lon="12.805546"><ele>578.0</ele><time>2026-04-25T09:08:22.516Z</time></trkpt><trkpt lat="43.3328433" lon="12.8054703"><ele>578.0</ele><time>2026-04-25T09:08:23.519Z</time></trkpt><trkpt lat="43.332776" lon="12.8053926"><ele>578.0</ele><time>2026-04-25T09:08:24.517Z</time></trkpt><trkpt lat="43.3327107" lon="12.8053128"><ele>578.0</ele><time>2026-04-25T09:08:25.506Z</time></trkpt><trkpt lat="43.3326453" lon="12.8052343"><ele>578.0</ele><time>2026-04-25T09:08:26.516Z</time></trkpt><trkpt lat="43.3325794" lon="12.805161"><ele>578.0</ele><time>2026-04-25T09:08:27.518Z</time></trkpt><trkpt lat="43.3325109" lon="12.8050904"><ele>577.6666666666666</ele><time>2026-04-25T09:08:28.515Z</time></trkpt><trkpt lat="43.3324423" lon="12.8050212"><ele>577.3333333333333</ele><time>2026-04-25T09:08:29.515Z</time></trkpt><trkpt lat="43.3323676" lon="12.8049495"><ele>577.0</ele><time>2026-04-25T09:08:30.515Z</time></trkpt><trkpt lat="43.3322913" lon="12.804877"><ele>576.6666666666666</ele><time>2026-04-25T09:08:31.519Z</time></trkpt><trkpt lat="43.3322178" lon="12.8048086"><ele>576.3333333333334</ele><time>2026-04-25T09:08:32.521Z</time></trkpt><trkpt lat="43.3321537" lon="12.8047458"><ele>576.0</ele><time>2026-04-25T09:08:33.515Z</time></trkpt><trkpt lat="43.3320976" lon="12.8046894"><ele>576.0</ele><time>2026-04-25T09:08:34.517Z</time></trkpt><trkpt lat="43.3320464" lon="12.8046324"><ele>576.0</ele><time>2026-04-25T09:08:35.519Z</time></trkpt><trkpt lat="43.3319677" lon="12.8045382"><ele>576.0</ele><time>2026-04-25T09:08:37.519Z</time></trkpt><trkpt lat="43.3319146" lon="12.8044756"><ele>576.0</ele><time>2026-04-25T09:08:39.517Z</time></trkpt><trkpt lat="43.3318471" lon="12.8044371"><ele>576.0</ele><time>2026-04-25T09:11:26.52Z</time></trkpt><trkpt lat="43.3317715" lon="12.8043801"><ele>576.0</ele><time>2026-04-25T09:11:28.52Z</time></trkpt><trkpt lat="43.331713" lon="12.8042903"><ele>582.4</ele><time>2026-04-25T09:11:30.521Z</time></trkpt><trkpt lat="43.3316509" lon="12.8041294"><ele>588.8</ele><time>2026-04-25T09:11:32.528Z</time></trkpt><trkpt lat="43.3316268" lon="12.8040425"><ele>595.1999999999999</ele><time>2026-04-25T09:11:33.515Z</time></trkpt><trkpt lat="43.3316031" lon="12.8039589"><ele>601.6</ele><time>2026-04-25T09:11:34.51Z</time></trkpt><trkpt lat="43.3315528" lon="12.8038086"><ele>608.0</ele><time>2026-04-25T09:11:36.516Z</time></trkpt><trkpt lat="43.3315056" lon="12.8036819"><ele>608.0</ele><time>2026-04-25T09:11:38.521Z</time></trkpt><trkpt lat="43.3314269" lon="12.8036226"><ele>608.0</ele><time>2026-04-25T09:11:40.517Z</time></trkpt><trkpt lat="43.3313062" lon="12.8036234"><ele>608.0</ele><time>2026-04-25T09:11:42.519Z</time></trkpt><trkpt lat="43.3312377" lon="12.803637"><ele>608.0</ele><time>2026-04-25T09:11:43.52Z</time></trkpt><trkpt lat="43.3311342" lon="12.8036553"><ele>608.0</ele><time>2026-04-25T09:11:45.519Z</time></trkpt><trkpt lat="43.3310628" lon="12.8036088"><ele>607.0</ele><time>2026-04-25T09:11:47.524Z</time></trkpt><trkpt lat="43.3309814" lon="12.8035051"><ele>606.0</ele><time>2026-04-25T09:11:49.52Z</time></trkpt><trkpt lat="43.3309007" lon="12.8034336"><ele>605.0</ele><time>2026-04-25T09:11:51.517Z</time></trkpt><trkpt lat="43.3308255" lon="12.8034909"><ele>604.0</ele><time>2026-04-25T09:11:53.517Z</time></trkpt><trkpt lat="43.3307583" lon="12.8036171"><ele>603.0</ele><time>2026-04-25T09:11:55.512Z</time></trkpt><trkpt lat="43.3307191" lon="12.8036899"><ele>603.0</ele><time>2026-04-25T09:12:00.52Z</time></trkpt><trkpt lat="43.330747" lon="12.8037822"><ele>603.0</ele><time>2026-04-25T09:12:04.516Z</time></trkpt><trkpt lat="43.3307778" lon="12.8038725"><ele>603.0</ele><time>2026-04-25T09:12:07.513Z</time></trkpt><trkpt lat="43.3307892" lon="12.8039746"><ele>603.0</ele><time>2026-04-25T09:12:09.515Z</time></trkpt><trkpt lat="43.330783" lon="12.8040886"><ele>603.0</ele><time>2026-04-25T09:12:11.518Z</time></trkpt><trkpt lat="43.3307945" lon="12.8042174"><ele>603.0</ele><time>2026-04-25T09:12:13.511Z</time></trkpt><trkpt lat="43.3308036" lon="12.8043268"><ele>600.6666666666666</ele><time>2026-04-25T09:12:15.519Z</time></trkpt><trkpt lat="43.3308195" lon="12.8044572"><ele>598.3333333333334</ele><time>2026-04-25T09:12:17.515Z</time></trkpt><trkpt lat="43.3308519" lon="12.8045805"><ele>596.0</ele><time>2026-04-25T09:12:19.508Z</time></trkpt><trkpt lat="43.3308788" lon="12.8047029"><ele>593.6666666666667</ele><time>2026-04-25T09:12:21.515Z</time></trkpt><trkpt lat="43.3309069" lon="12.804811"><ele>591.3333333333334</ele><time>2026-04-25T09:12:23.521Z</time></trkpt><trkpt lat="43.3309176" lon="12.8049161"><ele>589.0</ele><time>2026-04-25T09:12:25.517Z</time></trkpt><trkpt lat="43.3309265" lon="12.8050651"><ele>589.0</ele><time>2026-04-25T09:12:27.517Z</time></trkpt><trkpt lat="43.3309558" lon="12.8051971"><ele>589.0</ele><time>2026-04-25T09:12:29.514Z</time></trkpt><trkpt lat="43.3310415" lon="12.8052956"><ele>589.0</ele><time>2026-04-25T09:12:31.512Z</time></trkpt><trkpt lat="43.3311155" lon="12.8053369"><ele>589.0</ele><time>2026-04-25T09:12:32.517Z</time></trkpt><trkpt lat="43.3312005" lon="12.8053745"><ele>589.0</ele><time>2026-04-25T09:12:33.515Z</time></trkpt><trkpt lat="43.3312767" lon="12.8054094"><ele>589.0</ele><time>2026-04-25T09:12:34.515Z</time></trkpt><trkpt lat="43.331341" lon="12.8054387"><ele>589.0</ele><time>2026-04-25T09:12:35.521Z</time></trkpt><trkpt lat="43.3314298" lon="12.8055126"><ele>589.0</ele><time>2026-04-25T09:12:37.512Z</time></trkpt><trkpt lat="43.3314745" lon="12.8056266"><ele>589.0</ele><time>2026-04-25T09:12:39.515Z</time></trkpt><trkpt lat="43.3315239" lon="12.8057575"><ele>589.0</ele><time>2026-04-25T09:12:41.516Z</time></trkpt><trkpt lat="43.331588" lon="12.8059103"><ele>583.1666666666667</ele><time>2026-04-25T09:12:43.514Z</time></trkpt><trkpt lat="43.3316207" lon="12.8060003"><ele>577.3333333333334</ele><time>2026-04-25T09:12:44.514Z</time></trkpt><trkpt lat="43.3316536" lon="12.8060956"><ele>571.5</ele><time>2026-04-25T09:12:45.514Z</time></trkpt><trkpt lat="43.3316848" lon="12.8061879"><ele>565.6666666666666</ele><time>2026-04-25T09:12:46.508Z</time></trkpt><trkpt lat="43.3317162" lon="12.8062761"><ele>559.8333333333333</ele><time>2026-04-25T09:12:47.514Z</time></trkpt><trkpt lat="43.3317807" lon="12.8064162"><ele>554.0</ele><time>2026-04-25T09:12:49.514Z</time></trkpt><trkpt lat="43.3318096" lon="12.8064951"><ele>554.0</ele><time>2026-04-25T09:12:50.514Z</time></trkpt><trkpt lat="43.3318365" lon="12.8065779"><ele>554.0</ele><time>2026-04-25T09:12:51.515Z</time></trkpt><trkpt lat="43.3318654" lon="12.8066561"><ele>554.0</ele><time>2026-04-25T09:12:52.517Z</time></trkpt><trkpt lat="43.3319482" lon="12.8067788"><ele>554.0</ele><time>2026-04-25T09:12:54.515Z</time></trkpt><trkpt lat="43.3320044" lon="12.8068275"><ele>554.0</ele><time>2026-04-25T09:12:55.515Z</time></trkpt><trkpt lat="43.332072" lon="12.8068767"><ele>554.0</ele><time>2026-04-25T09:12:56.516Z</time></trkpt><trkpt lat="43.3321359" lon="12.806926"><ele>557.1666666666666</ele><time>2026-04-25T09:12:57.517Z</time></trkpt><trkpt lat="43.332199" lon="12.8069822"><ele>560.3333333333333</ele><time>2026-04-25T09:12:58.515Z</time></trkpt><trkpt lat="43.33226" lon="12.8070439"><ele>563.5</ele><time>2026-04-25T09:12:59.517Z</time></trkpt><trkpt lat="43.3323128" lon="12.8070987"><ele>566.6666666666666</ele><time>2026-04-25T09:13:00.508Z</time></trkpt><trkpt lat="43.332416" lon="12.8071948"><ele>569.8333333333334</ele><time>2026-04-25T09:13:02.52Z</time></trkpt><trkpt lat="43.3324787" lon="12.8072433"><ele>573.0</ele><time>2026-04-25T09:13:03.516Z</time></trkpt><trkpt lat="43.3325439" lon="12.807295"><ele>566.6666666666666</ele><time>2026-04-25T09:13:04.516Z</time></trkpt><trkpt lat="43.3326092" lon="12.8073492"><ele>560.3333333333334</ele><time>2026-04-25T09:13:05.511Z</time></trkpt><trkpt lat="43.3326774" lon="12.8074001"><ele>554.0</ele><time>2026-04-25T09:13:06.516Z</time></trkpt><trkpt lat="43.3327526" lon="12.8074473"><ele>547.6666666666667</ele><time>2026-04-25T09:13:07.514Z</time></trkpt><trkpt lat="43.3328318" lon="12.8074976"><ele>541.3333333333334</ele><time>2026-04-25T09:13:08.516Z</time></trkpt><trkpt lat="43.332911" lon="12.8075536"><ele>535.0</ele><time>2026-04-25T09:13:09.517Z</time></trkpt><trkpt lat="43.3329842" lon="12.807621"><ele>533.0</ele><time>2026-04-25T09:13:10.518Z</time></trkpt><trkpt lat="43.3330481" lon="12.8076917"><ele>531.0</ele><time>2026-04-25T09:13:11.509Z</time></trkpt><trkpt lat="43.3331047" lon="12.8077557"><ele>529.0</ele><time>2026-04-25T09:13:12.518Z</time></trkpt><trkpt lat="43.3331525" lon="12.8078196"><ele>527.0</ele><time>2026-04-25T09:13:13.515Z</time></trkpt><trkpt lat="43.3331984" lon="12.8078871"><ele>525.0</ele><time>2026-04-25T09:13:14.509Z</time></trkpt><trkpt lat="43.3332342" lon="12.8079614"><ele>523.0</ele><time>2026-04-25T09:13:15.508Z</time></trkpt><trkpt lat="43.3332427" lon="12.8080487"><ele>521.0</ele><time>2026-04-25T09:13:16.514Z</time></trkpt><trkpt lat="43.3332407" lon="12.8081507"><ele>521.0</ele><time>2026-04-25T09:13:17.511Z</time></trkpt><trkpt lat="43.3332471" lon="12.8082398"><ele>521.0</ele><time>2026-04-25T09:13:18.513Z</time></trkpt><trkpt lat="43.3332673" lon="12.8083228"><ele>521.0</ele><time>2026-04-25T09:13:19.516Z</time></trkpt><trkpt lat="43.333305" lon="12.808398"><ele>521.0</ele><time>2026-04-25T09:13:20.517Z</time></trkpt><trkpt lat="43.3333607" lon="12.808472"><ele>521.0</ele><time>2026-04-25T09:13:21.518Z</time></trkpt><trkpt lat="43.3334241" lon="12.808546"><ele>521.0</ele><time>2026-04-25T09:13:22.516Z</time></trkpt><trkpt lat="43.3334881" lon="12.8086271"><ele>521.0</ele><time>2026-04-25T09:13:23.511Z</time></trkpt><trkpt lat="43.3335432" lon="12.8087194"><ele>520.0</ele><time>2026-04-25T09:13:24.515Z</time></trkpt><trkpt lat="43.3335834" lon="12.8088222"><ele>519.0</ele><time>2026-04-25T09:13:25.519Z</time></trkpt><trkpt lat="43.3336103" lon="12.8089294"><ele>518.0</ele><time>2026-04-25T09:13:26.512Z</time></trkpt><trkpt lat="43.3336366" lon="12.8090273"><ele>517.0</ele><time>2026-04-25T09:13:27.514Z</time></trkpt><trkpt lat="43.3336731" lon="12.8091089"><ele>516.0</ele><time>2026-04-25T09:13:28.512Z</time></trkpt><trkpt lat="43.3337249" lon="12.8091817"><ele>515.0</ele><time>2026-04-25T09:13:29.515Z</time></trkpt><trkpt lat="43.3337864" lon="12.8092592"><ele>516.0</ele><time>2026-04-25T09:13:30.51Z</time></trkpt><trkpt lat="43.3338451" lon="12.8093445"><ele>517.0</ele><time>2026-04-25T09:13:31.515Z</time></trkpt><trkpt lat="43.3338956" lon="12.8094361"><ele>518.0</ele><time>2026-04-25T09:13:32.523Z</time></trkpt><trkpt lat="43.3339403" lon="12.8095328"><ele>519.0</ele><time>2026-04-25T09:13:33.514Z</time></trkpt><trkpt lat="43.3339803" lon="12.8096321"><ele>520.0</ele><time>2026-04-25T09:13:34.519Z</time></trkpt><trkpt lat="43.3340145" lon="12.8097291"><ele>521.0</ele><time>2026-04-25T09:13:35.516Z</time></trkpt><trkpt lat="43.3340445" lon="12.8098143"><ele>516.2857142857142</ele><time>2026-04-25T09:13:36.513Z</time></trkpt><trkpt lat="43.3340707" lon="12.8098951"><ele>511.57142857142856</ele><time>2026-04-25T09:13:37.515Z</time></trkpt><trkpt lat="43.3340972" lon="12.8099787"><ele>506.85714285714283</ele><time>2026-04-25T09:13:38.508Z</time></trkpt><trkpt lat="43.3341312" lon="12.8100594"><ele>502.1428571428571</ele><time>2026-04-25T09:13:39.516Z</time></trkpt><trkpt lat="43.3341699" lon="12.8101382"><ele>497.42857142857144</ele><time>2026-04-25T09:13:40.517Z</time></trkpt><trkpt lat="43.3342078" lon="12.8102152"><ele>492.71428571428567</ele><time>2026-04-25T09:13:41.519Z</time></trkpt><trkpt lat="43.3342383" lon="12.8102936"><ele>487.99999999999994</ele><time>2026-04-25T09:13:42.52Z</time></trkpt><trkpt lat="43.334295" lon="12.8104394"><ele>486.49999999999994</ele><time>2026-04-25T09:13:44.52Z</time></trkpt><trkpt lat="43.334362" lon="12.8105821"><ele>485.0</ele><time>2026-04-25T09:13:46.516Z</time></trkpt><trkpt lat="43.3344161" lon="12.8106498"><ele>483.5</ele><time>2026-04-25T09:13:47.517Z</time></trkpt><trkpt lat="43.3344761" lon="12.8107125"><ele>482.0</ele><time>2026-04-25T09:13:48.517Z</time></trkpt><trkpt lat="43.3345399" lon="12.8107732"><ele>480.49999999999994</ele><time>2026-04-25T09:13:49.523Z</time></trkpt><trkpt lat="43.3346079" lon="12.8108355"><ele>479.0</ele><time>2026-04-25T09:13:50.523Z</time></trkpt><trkpt lat="43.3346729" lon="12.8108946"><ele>480.3333333333333</ele><time>2026-04-25T09:13:51.517Z</time></trkpt><trkpt lat="43.3347347" lon="12.8109497"><ele>481.66666666666663</ele><time>2026-04-25T09:13:52.526Z</time></trkpt><trkpt lat="43.3347894" lon="12.8110088"><ele>483.0</ele><time>2026-04-25T09:13:53.516Z</time></trkpt><trkpt lat="43.3348398" lon="12.8110686"><ele>484.33333333333337</ele><time>2026-04-25T09:13:54.511Z</time></trkpt><trkpt lat="43.3349083" lon="12.8111962"><ele>485.6666666666667</ele><time>2026-04-25T09:13:56.513Z</time></trkpt><trkpt lat="43.3349277" lon="12.8113341"><ele>487.0</ele><time>2026-04-25T09:13:58.511Z</time></trkpt><trkpt lat="43.334922" lon="12.811502"><ele>487.0</ele><time>2026-04-25T09:14:00.517Z</time></trkpt><trkpt lat="43.3349175" lon="12.8115946"><ele>487.00000000000006</ele><time>2026-04-25T09:14:01.52Z</time></trkpt><trkpt lat="43.3349437" lon="12.8117425"><ele>487.00000000000006</ele><time>2026-04-25T09:14:03.515Z</time></trkpt><trkpt lat="43.335022" lon="12.8118014"><ele>487.0</ele><time>2026-04-25T09:14:05.515Z</time></trkpt><trkpt lat="43.3351439" lon="12.811818"><ele>487.0</ele><time>2026-04-25T09:14:07.521Z</time></trkpt><trkpt lat="43.3352188" lon="12.8118262"><ele>485.6</ele><time>2026-04-25T09:14:08.515Z</time></trkpt><trkpt lat="43.3353063" lon="12.8118336"><ele>484.20000000000005</ele><time>2026-04-25T09:14:09.512Z</time></trkpt><trkpt lat="43.3354039" lon="12.8118413"><ele>482.8</ele><time>2026-04-25T09:14:10.516Z</time></trkpt><trkpt lat="43.3355061" lon="12.8118545"><ele>481.4</ele><time>2026-04-25T09:14:11.519Z</time></trkpt><trkpt lat="43.3356054" lon="12.8118719"><ele>480.0</ele><time>2026-04-25T09:14:12.528Z</time></trkpt><trkpt lat="43.3357017" lon="12.8119015"><ele>480.0</ele><time>2026-04-25T09:14:13.513Z</time></trkpt><trkpt lat="43.3357931" lon="12.8119393"><ele>480.0</ele><time>2026-04-25T09:14:14.519Z</time></trkpt><trkpt lat="43.3358837" lon="12.8119783"><ele>480.0</ele><time>2026-04-25T09:14:15.515Z</time></trkpt><trkpt lat="43.3359723" lon="12.8120184"><ele>480.0</ele><time>2026-04-25T09:14:16.519Z</time></trkpt><trkpt lat="43.3360615" lon="12.8120596"><ele>480.0</ele><time>2026-04-25T09:14:17.517Z</time></trkpt><trkpt lat="43.3361521" lon="12.8121002"><ele>480.0</ele><time>2026-04-25T09:14:18.522Z</time></trkpt><trkpt lat="43.3362407" lon="12.8121403"><ele>480.0</ele><time>2026-04-25T09:14:19.515Z</time></trkpt><trkpt lat="43.3363275" lon="12.8121804"><ele>480.0</ele><time>2026-04-25T09:14:20.52Z</time></trkpt><trkpt lat="43.3364122" lon="12.8122126"><ele>480.0</ele><time>2026-04-25T09:14:21.524Z</time></trkpt><trkpt lat="43.3364998" lon="12.8122312"><ele>480.0</ele><time>2026-04-25T09:14:22.525Z</time></trkpt><trkpt lat="43.3365863" lon="12.8122304"><ele>480.0</ele><time>2026-04-25T09:14:23.522Z</time></trkpt><trkpt lat="43.3366697" lon="12.8122117"><ele>481.6666666666667</ele><time>2026-04-25T09:14:24.513Z</time></trkpt><trkpt lat="43.3367508" lon="12.8121788"><ele>483.33333333333337</ele><time>2026-04-25T09:14:25.516Z</time></trkpt><trkpt lat="43.3368314" lon="12.812144"><ele>485.0</ele><time>2026-04-25T09:14:26.514Z</time></trkpt><trkpt lat="43.3369089" lon="12.8121075"><ele>486.6666666666667</ele><time>2026-04-25T09:14:27.509Z</time></trkpt><trkpt lat="43.33698" lon="12.8120705"><ele>488.33333333333337</ele><time>2026-04-25T09:14:28.517Z</time></trkpt><trkpt lat="43.3370431" lon="12.8120341"><ele>490.0</ele><time>2026-04-25T09:14:29.517Z</time></trkpt><trkpt lat="43.337138" lon="12.8119606"><ele>490.00000000000006</ele><time>2026-04-25T09:14:31.516Z</time></trkpt><trkpt lat="43.3372095" lon="12.8119325"><ele>490.0</ele><time>2026-04-25T09:14:33.515Z</time></trkpt><trkpt lat="43.3372304" lon="12.8120147"><ele>490.0</ele><time>2026-04-25T09:14:37.523Z</time></trkpt><trkpt lat="43.3371634" lon="12.8119902"><ele>490.0</ele><time>2026-04-25T09:14:45.518Z</time></trkpt><trkpt lat="43.3370971" lon="12.8120017"><ele>490.00000000000006</ele><time>2026-04-25T09:14:46.524Z</time></trkpt><trkpt lat="43.3370169" lon="12.8120318"><ele>490.0</ele><time>2026-04-25T09:14:47.528Z</time></trkpt><trkpt lat="43.336919" lon="12.8120776"><ele>490.0</ele><time>2026-04-25T09:14:48.526Z</time></trkpt><trkpt lat="43.3368045" lon="12.8121339"><ele>490.0</ele><time>2026-04-25T09:14:49.517Z</time></trkpt><trkpt lat="43.3366891" lon="12.8121791"><ele>490.0</ele><time>2026-04-25T09:14:50.519Z</time></trkpt><trkpt lat="43.3365787" lon="12.8122015"><ele>490.0</ele><time>2026-04-25T09:14:51.533Z</time></trkpt><trkpt lat="43.3364781" lon="12.8122073"><ele>488.0</ele><time>2026-04-25T09:14:52.53Z</time></trkpt><trkpt lat="43.3363791" lon="12.8121937"><ele>486.0</ele><time>2026-04-25T09:14:53.52Z</time></trkpt><trkpt lat="43.3362744" lon="12.8121591"><ele>484.0</ele><time>2026-04-25T09:14:54.525Z</time></trkpt><trkpt lat="43.3361633" lon="12.8121131"><ele>482.0</ele><time>2026-04-25T09:14:55.524Z</time></trkpt><trkpt lat="43.3360476" lon="12.8120572"><ele>480.0</ele><time>2026-04-25T09:14:56.524Z</time></trkpt><trkpt lat="43.3359359" lon="12.8120034"><ele>480.0</ele><time>2026-04-25T09:14:57.521Z</time></trkpt><trkpt lat="43.335832" lon="12.8119556"><ele>480.0</ele><time>2026-04-25T09:14:58.517Z</time></trkpt><trkpt lat="43.3357395" lon="12.8119175"><ele>480.0</ele><time>2026-04-25T09:14:59.523Z</time></trkpt><trkpt lat="43.3356535" lon="12.8118843"><ele>480.0</ele><time>2026-04-25T09:15:00.522Z</time></trkpt><trkpt lat="43.3355698" lon="12.811858"><ele>480.0</ele><time>2026-04-25T09:15:01.513Z</time></trkpt><trkpt lat="43.335487" lon="12.8118379"><ele>481.1666666666667</ele><time>2026-04-25T09:15:02.521Z</time></trkpt><trkpt lat="43.3354065" lon="12.8118207"><ele>482.33333333333337</ele><time>2026-04-25T09:15:03.522Z</time></trkpt><trkpt lat="43.3353266" lon="12.8118097"><ele>483.5</ele><time>2026-04-25T09:15:04.52Z</time></trkpt><trkpt lat="43.3352458" lon="12.8118037"><ele>484.6666666666667</ele><time>2026-04-25T09:15:05.52Z</time></trkpt><trkpt lat="43.3351703" lon="12.811799"><ele>485.83333333333337</ele><time>2026-04-25T09:15:06.52Z</time></trkpt><trkpt lat="43.335103" lon="12.8117912"><ele>487.0</ele><time>2026-04-25T09:15:07.52Z</time></trkpt><trkpt lat="43.3349901" lon="12.8117757"><ele>487.00000000000006</ele><time>2026-04-25T09:15:09.513Z</time></trkpt><trkpt lat="43.3349467" lon="12.8116686"><ele>487.0</ele><time>2026-04-25T09:15:11.521Z</time></trkpt><trkpt lat="43.3349438" lon="12.8115669"><ele>487.0</ele><time>2026-04-25T09:15:12.525Z</time></trkpt><trkpt lat="43.334946" lon="12.8114403"><ele>487.0</ele><time>2026-04-25T09:15:13.524Z</time></trkpt><trkpt lat="43.3349462" lon="12.8113159"><ele>487.00000000000006</ele><time>2026-04-25T09:15:14.52Z</time></trkpt><trkpt lat="43.3349368" lon="12.8112128"><ele>487.0</ele><time>2026-04-25T09:15:15.518Z</time></trkpt><trkpt lat="43.3349083" lon="12.8111272"><ele>487.00000000000006</ele><time>2026-04-25T09:15:16.516Z</time></trkpt><trkpt lat="43.3348628" lon="12.8110574"><ele>487.0</ele><time>2026-04-25T09:15:17.514Z</time></trkpt><trkpt lat="43.3347623" lon="12.8109677"><ele>487.0</ele><time>2026-04-25T09:15:19.51Z</time></trkpt><trkpt lat="43.3347041" lon="12.8109278"><ele>487.0</ele><time>2026-04-25T09:15:20.523Z</time></trkpt><trkpt lat="43.3346426" lon="12.8108814"><ele>487.00000000000006</ele><time>2026-04-25T09:15:21.515Z</time></trkpt><trkpt lat="43.3345791" lon="12.8108315"><ele>487.0</ele><time>2026-04-25T09:15:22.513Z</time></trkpt><trkpt lat="43.334516" lon="12.8107781"><ele>485.8571428571429</ele><time>2026-04-25T09:15:23.514Z</time></trkpt><trkpt lat="43.334454" lon="12.8107191"><ele>484.71428571428567</ele><time>2026-04-25T09:15:24.525Z</time></trkpt><trkpt lat="43.3343955" lon="12.8106633"><ele>483.57142857142856</ele><time>2026-04-25T09:15:25.519Z</time></trkpt><trkpt lat="43.3343431" lon="12.8106051"><ele>482.42857142857144</ele><time>2026-04-25T09:15:26.514Z</time></trkpt><trkpt lat="43.3342983" lon="12.8105399"><ele>481.28571428571433</ele><time>2026-04-25T09:15:27.524Z</time></trkpt><trkpt lat="43.3342633" lon="12.8104658"><ele>480.1428571428571</ele><time>2026-04-25T09:15:28.523Z</time></trkpt><trkpt lat="43.3342374" lon="12.8103806"><ele>479.0</ele><time>2026-04-25T09:15:29.525Z</time></trkpt><trkpt lat="43.3342186" lon="12.8102915"><ele>479.0</ele><time>2026-04-25T09:15:30.517Z</time></trkpt><trkpt lat="43.3341744" lon="12.8101532"><ele>479.0</ele><time>2026-04-25T09:15:32.52Z</time></trkpt><trkpt lat="43.3340911" lon="12.8101168"><ele>479.0</ele><time>2026-04-25T09:15:34.515Z</time></trkpt><trkpt lat="43.3340021" lon="12.8102058"><ele>479.0</ele><time>2026-04-25T09:15:36.511Z</time></trkpt><trkpt lat="43.3339705" lon="12.8102925"><ele>479.0</ele><time>2026-04-25T09:15:37.507Z</time></trkpt><trkpt lat="43.3339509" lon="12.8104096"><ele>479.0</ele><time>2026-04-25T09:15:38.514Z</time></trkpt><trkpt lat="43.3339365" lon="12.8105464"><ele>479.0</ele><time>2026-04-25T09:15:39.512Z</time></trkpt><trkpt lat="43.3339218" lon="12.8106967"><ele>479.0</ele><time>2026-04-25T09:15:40.516Z</time></trkpt><trkpt lat="43.3339005" lon="12.8108394"><ele>479.0</ele><time>2026-04-25T09:15:41.515Z</time></trkpt><trkpt lat="43.3338698" lon="12.8109635"><ele>479.0</ele><time>2026-04-25T09:15:42.523Z</time></trkpt><trkpt lat="43.3338346" lon="12.8110719"><ele>483.49999999999994</ele><time>2026-04-25T09:15:43.518Z</time></trkpt><trkpt lat="43.3338008" lon="12.8111706"><ele>488.0</ele><time>2026-04-25T09:15:44.517Z</time></trkpt><trkpt lat="43.3337742" lon="12.8112639"><ele>492.5</ele><time>2026-04-25T09:15:45.518Z</time></trkpt><trkpt lat="43.3337534" lon="12.8113616"><ele>497.0</ele><time>2026-04-25T09:15:46.522Z</time></trkpt><trkpt lat="43.3337421" lon="12.8114695"><ele>501.49999999999994</ele><time>2026-04-25T09:15:47.514Z</time></trkpt><trkpt lat="43.3337404" lon="12.811586"><ele>506.0</ele><time>2026-04-25T09:15:48.516Z</time></trkpt><trkpt lat="43.3337544" lon="12.811708"><ele>504.4</ele><time>2026-04-25T09:15:49.518Z</time></trkpt><trkpt lat="43.3337875" lon="12.8118292"><ele>502.8</ele><time>2026-04-25T09:15:50.518Z</time></trkpt><trkpt lat="43.3338273" lon="12.8119477"><ele>501.19999999999993</ele><time>2026-04-25T09:15:51.511Z</time></trkpt><trkpt lat="43.3338791" lon="12.8120532"><ele>499.59999999999997</ele><time>2026-04-25T09:15:52.517Z</time></trkpt><trkpt lat="43.3339394" lon="12.8121578"><ele>498.0</ele><time>2026-04-25T09:15:53.513Z</time></trkpt><trkpt lat="43.3340023" lon="12.8122682"><ele>491.4</ele><time>2026-04-25T09:15:54.518Z</time></trkpt><trkpt lat="43.3340675" lon="12.812383"><ele>484.79999999999995</ele><time>2026-04-25T09:15:55.518Z</time></trkpt><trkpt lat="43.3341348" lon="12.8124974"><ele>478.2</ele><time>2026-04-25T09:15:56.513Z</time></trkpt><trkpt lat="43.3341987" lon="12.8126132"><ele>471.6</ele><time>2026-04-25T09:15:57.521Z</time></trkpt><trkpt lat="43.3342578" lon="12.8127334"><ele>465.0</ele><time>2026-04-25T09:15:58.521Z</time></trkpt><trkpt lat="43.3343084" lon="12.8128607"><ele>464.0</ele><time>2026-04-25T09:15:59.524Z</time></trkpt><trkpt lat="43.3343542" lon="12.8129918"><ele>463.0</ele><time>2026-04-25T09:16:00.517Z</time></trkpt><trkpt lat="43.3343922" lon="12.8131238"><ele>462.0</ele><time>2026-04-25T09:16:01.513Z</time></trkpt><trkpt lat="43.3344166" lon="12.8132621"><ele>461.0</ele><time>2026-04-25T09:16:02.521Z</time></trkpt><trkpt lat="43.3344316" lon="12.8134076"><ele>460.0</ele><time>2026-04-25T09:16:03.514Z</time></trkpt><trkpt lat="43.3344342" lon="12.8135632"><ele>458.25</ele><time>2026-04-25T09:16:04.518Z</time></trkpt><trkpt lat="43.3344284" lon="12.8137264"><ele>456.5</ele><time>2026-04-25T09:16:05.52Z</time></trkpt><trkpt lat="43.334417" lon="12.8139004"><ele>454.75</ele><time>2026-04-25T09:16:06.524Z</time></trkpt><trkpt lat="43.3344015" lon="12.8140954"><ele>453.0</ele><time>2026-04-25T09:16:07.523Z</time></trkpt><trkpt lat="43.3343855" lon="12.8143171"><ele>452.33333333333337</ele><time>2026-04-25T09:16:08.52Z</time></trkpt><trkpt lat="43.3343813" lon="12.81454"><ele>451.6666666666667</ele><time>2026-04-25T09:16:09.517Z</time></trkpt><trkpt lat="43.3343864" lon="12.8147512"><ele>451.0</ele><time>2026-04-25T09:16:10.521Z</time></trkpt><trkpt lat="43.3344016" lon="12.8149496"><ele>451.0</ele><time>2026-04-25T09:16:11.521Z</time></trkpt><trkpt lat="43.334429" lon="12.8151396"><ele>451.0</ele><time>2026-04-25T09:16:12.527Z</time></trkpt><trkpt lat="43.3344606" lon="12.8153211"><ele>451.0</ele><time>2026-04-25T09:16:13.524Z</time></trkpt><trkpt lat="43.3344873" lon="12.8154965"><ele>451.0</ele><time>2026-04-25T09:16:14.512Z</time></trkpt><trkpt lat="43.3345098" lon="12.8156567"><ele>451.0</ele><time>2026-04-25T09:16:15.524Z</time></trkpt><trkpt lat="43.3345297" lon="12.8157977"><ele>451.0</ele><time>2026-04-25T09:16:16.523Z</time></trkpt><trkpt lat="43.3345518" lon="12.8159256"><ele>451.0</ele><time>2026-04-25T09:16:17.521Z</time></trkpt><trkpt lat="43.3345956" lon="12.8160417"><ele>451.0</ele><time>2026-04-25T09:16:18.52Z</time></trkpt><trkpt lat="43.3346707" lon="12.8161585"><ele>451.0</ele><time>2026-04-25T09:16:19.52Z</time></trkpt><trkpt lat="43.3347589" lon="12.8162786"><ele>449.25</ele><time>2026-04-25T09:16:20.523Z</time></trkpt><trkpt lat="43.3348409" lon="12.8164144"><ele>447.5</ele><time>2026-04-25T09:16:21.514Z</time></trkpt><trkpt lat="43.3349161" lon="12.8165754"><ele>445.75</ele><time>2026-04-25T09:16:22.521Z</time></trkpt><trkpt lat="43.3349751" lon="12.8167491"><ele>444.0</ele><time>2026-04-25T09:16:23.525Z</time></trkpt><trkpt lat="43.3350181" lon="12.816922"><ele>443.0</ele><time>2026-04-25T09:16:24.518Z</time></trkpt><trkpt lat="43.3350468" lon="12.8170934"><ele>442.0</ele><time>2026-04-25T09:16:25.516Z</time></trkpt><trkpt lat="43.3350712" lon="12.817255"><ele>441.0</ele><time>2026-04-25T09:16:26.517Z</time></trkpt><trkpt lat="43.3350943" lon="12.8174074"><ele>440.0</ele><time>2026-04-25T09:16:27.521Z</time></trkpt><trkpt lat="43.3351188" lon="12.8175489"><ele>439.6</ele><time>2026-04-25T09:16:28.518Z</time></trkpt><trkpt lat="43.3351441" lon="12.817679"><ele>439.2</ele><time>2026-04-25T09:16:29.523Z</time></trkpt><trkpt lat="43.3351793" lon="12.8177994"><ele>438.79999999999995</ele><time>2026-04-25T09:16:30.519Z</time></trkpt><trkpt lat="43.3352378" lon="12.8179086"><ele>438.4</ele><time>2026-04-25T09:16:31.511Z</time></trkpt><trkpt lat="43.3353222" lon="12.8180168"><ele>438.0</ele><time>2026-04-25T09:16:32.523Z</time></trkpt><trkpt lat="43.3354302" lon="12.8181445"><ele>438.0</ele><time>2026-04-25T09:16:33.515Z</time></trkpt><trkpt lat="43.3355376" lon="12.8182736"><ele>437.99999999999994</ele><time>2026-04-25T09:16:34.523Z</time></trkpt><trkpt lat="43.3356271" lon="12.8183799"><ele>437.99999999999994</ele><time>2026-04-25T09:16:35.524Z</time></trkpt><trkpt lat="43.3356954" lon="12.8184644"><ele>438.0</ele><time>2026-04-25T09:16:36.514Z</time></trkpt><trkpt lat="43.3357431" lon="12.818541"><ele>438.0</ele><time>2026-04-25T09:16:37.52Z</time></trkpt><trkpt lat="43.3357784" lon="12.8186767"><ele>438.2</ele><time>2026-04-25T09:16:39.52Z</time></trkpt><trkpt lat="43.3357345" lon="12.8188227"><ele>438.4</ele><time>2026-04-25T09:16:41.523Z</time></trkpt><trkpt lat="43.335676" lon="12.8189047"><ele>438.59999999999997</ele><time>2026-04-25T09:16:42.514Z</time></trkpt><trkpt lat="43.3355936" lon="12.8190002"><ele>438.79999999999995</ele><time>2026-04-25T09:16:43.52Z</time></trkpt><trkpt lat="43.3355016" lon="12.8191048"><ele>439.0</ele><time>2026-04-25T09:16:44.523Z</time></trkpt><trkpt lat="43.3354034" lon="12.819221"><ele>442.0</ele><time>2026-04-25T09:16:45.521Z</time></trkpt><trkpt lat="43.3352993" lon="12.8193341"><ele>445.0</ele><time>2026-04-25T09:16:46.523Z</time></trkpt><trkpt lat="43.335195" lon="12.8194516"><ele>448.0</ele><time>2026-04-25T09:16:47.514Z</time></trkpt><trkpt lat="43.3350914" lon="12.8195721"><ele>451.0</ele><time>2026-04-25T09:16:48.526Z</time></trkpt><trkpt lat="43.3349862" lon="12.8196901"><ele>451.0</ele><time>2026-04-25T09:16:49.524Z</time></trkpt><trkpt lat="43.3348769" lon="12.8197989"><ele>451.0</ele><time>2026-04-25T09:16:50.519Z</time></trkpt><trkpt lat="43.3347688" lon="12.8198968"><ele>451.0</ele><time>2026-04-25T09:16:51.52Z</time></trkpt><trkpt lat="43.3346648" lon="12.8199892"><ele>451.0</ele><time>2026-04-25T09:16:52.526Z</time></trkpt><trkpt lat="43.3345687" lon="12.8200668"><ele>452.0</ele><time>2026-04-25T09:16:53.525Z</time></trkpt><trkpt lat="43.3344876" lon="12.8201314"><ele>453.0</ele><time>2026-04-25T09:16:54.52Z</time></trkpt><trkpt lat="43.334425" lon="12.820166"><ele>454.0</ele><time>2026-04-25T09:16:55.527Z</time></trkpt><trkpt lat="43.3343401" lon="12.8200586"><ele>455.0</ele><time>2026-04-25T09:16:57.52Z</time></trkpt><trkpt lat="43.3343025" lon="12.8199543"><ele>456.0</ele><time>2026-04-25T09:16:58.521Z</time></trkpt><trkpt lat="43.334249" lon="12.8198406"><ele>456.0</ele><time>2026-04-25T09:16:59.518Z</time></trkpt><trkpt lat="43.334171" lon="12.8197413"><ele>456.0</ele><time>2026-04-25T09:17:00.515Z</time></trkpt><trkpt lat="43.3340721" lon="12.8196757"><ele>456.0</ele><time>2026-04-25T09:17:01.525Z</time></trkpt><trkpt lat="43.3339638" lon="12.819642"><ele>456.0</ele><time>2026-04-25T09:17:02.523Z</time></trkpt><trkpt lat="43.3338533" lon="12.8196441"><ele>456.0</ele><time>2026-04-25T09:17:03.522Z</time></trkpt><trkpt lat="43.3337358" lon="12.819679"><ele>455.75</ele><time>2026-04-25T09:17:04.52Z</time></trkpt><trkpt lat="43.3335916" lon="12.8197409"><ele>455.5</ele><time>2026-04-25T09:17:05.518Z</time></trkpt><trkpt lat="43.333445" lon="12.8198017"><ele>455.25</ele><time>2026-04-25T09:17:06.516Z</time></trkpt><trkpt lat="43.3333093" lon="12.819852"><ele>455.0</ele><time>2026-04-25T09:17:07.522Z</time></trkpt><trkpt lat="43.3331802" lon="12.8198865"><ele>453.5</ele><time>2026-04-25T09:17:08.525Z</time></trkpt><trkpt lat="43.3330503" lon="12.8198865"><ele>452.0</ele><time>2026-04-25T09:17:09.522Z</time></trkpt><trkpt lat="43.3329169" lon="12.8198488"><ele>450.5</ele><time>2026-04-25T09:17:10.518Z</time></trkpt><trkpt lat="43.3327858" lon="12.8197744"><ele>449.0</ele><time>2026-04-25T09:17:11.515Z</time></trkpt><trkpt lat="43.3326689" lon="12.8196743"><ele>449.0</ele><time>2026-04-25T09:17:12.523Z</time></trkpt><trkpt lat="43.332567" lon="12.8195793"><ele>449.0</ele><time>2026-04-25T09:17:13.517Z</time></trkpt><trkpt lat="43.3324647" lon="12.8195129"><ele>449.0</ele><time>2026-04-25T09:17:14.515Z</time></trkpt><trkpt lat="43.3323575" lon="12.8194954"><ele>449.0</ele><time>2026-04-25T09:17:15.527Z</time></trkpt><trkpt lat="43.3322485" lon="12.8195359"><ele>448.3333333333333</ele><time>2026-04-25T09:17:16.527Z</time></trkpt><trkpt lat="43.332136" lon="12.8196251"><ele>447.66666666666663</ele><time>2026-04-25T09:17:17.515Z</time></trkpt><trkpt lat="43.3320154" lon="12.8197643"><ele>447.0</ele><time>2026-04-25T09:17:18.526Z</time></trkpt><trkpt lat="43.3318909" lon="12.8199338"><ele>447.0</ele><time>2026-04-25T09:17:19.526Z</time></trkpt><trkpt lat="43.331771" lon="12.8201046"><ele>447.0</ele><time>2026-04-25T09:17:20.525Z</time></trkpt><trkpt lat="43.3316618" lon="12.8202609"><ele>447.0</ele><time>2026-04-25T09:17:21.515Z</time></trkpt><trkpt lat="43.3315675" lon="12.820386"><ele>446.5</ele><time>2026-04-25T09:17:22.522Z</time></trkpt><trkpt lat="43.3314945" lon="12.8204708"><ele>446.0</ele><time>2026-04-25T09:17:23.516Z</time></trkpt><trkpt lat="43.3314272" lon="12.8205191"><ele>445.5</ele><time>2026-04-25T09:17:24.529Z</time></trkpt><trkpt lat="43.3313464" lon="12.8205355"><ele>445.0</ele><time>2026-04-25T09:17:25.526Z</time></trkpt><trkpt lat="43.3312567" lon="12.8205104"><ele>444.5</ele><time>2026-04-25T09:17:26.525Z</time></trkpt><trkpt lat="43.33116" lon="12.8204639"><ele>444.0</ele><time>2026-04-25T09:17:27.524Z</time></trkpt><trkpt lat="43.3310612" lon="12.8204373"><ele>443.25</ele><time>2026-04-25T09:17:28.521Z</time></trkpt><trkpt lat="43.3309606" lon="12.8204577"><ele>442.5</ele><time>2026-04-25T09:17:29.525Z</time></trkpt><trkpt lat="43.3308629" lon="12.8205262"><ele>441.75</ele><time>2026-04-25T09:17:30.529Z</time></trkpt><trkpt lat="43.3307671" lon="12.8206426"><ele>441.0</ele><time>2026-04-25T09:17:31.517Z</time></trkpt><trkpt lat="43.3306687" lon="12.8207996"><ele>439.66666666666663</ele><time>2026-04-25T09:17:32.52Z</time></trkpt><trkpt lat="43.3305685" lon="12.8209828"><ele>438.3333333333333</ele><time>2026-04-25T09:17:33.523Z</time></trkpt><trkpt lat="43.3304573" lon="12.8211718"><ele>437.0</ele><time>2026-04-25T09:17:34.525Z</time></trkpt><trkpt lat="43.3303245" lon="12.8213574"><ele>434.66666666666663</ele><time>2026-04-25T09:17:35.516Z</time></trkpt><trkpt lat="43.3301653" lon="12.8215362"><ele>432.33333333333337</ele><time>2026-04-25T09:17:36.515Z</time></trkpt><trkpt lat="43.3299783" lon="12.821719"><ele>430.0</ele><time>2026-04-25T09:17:37.523Z</time></trkpt><trkpt lat="43.3297632" lon="12.8219138"><ele>429.5</ele><time>2026-04-25T09:17:38.526Z</time></trkpt><trkpt lat="43.3295522" lon="12.8220962"><ele>429.0</ele><time>2026-04-25T09:17:39.527Z</time></trkpt><trkpt lat="43.3293619" lon="12.8222578"><ele>429.0</ele><time>2026-04-25T09:17:40.52Z</time></trkpt><trkpt lat="43.3291882" lon="12.822409"><ele>429.0</ele><time>2026-04-25T09:17:41.518Z</time></trkpt><trkpt lat="43.3290243" lon="12.8225536"><ele>429.0</ele><time>2026-04-25T09:17:42.52Z</time></trkpt><trkpt lat="43.3288717" lon="12.8226913"><ele>429.5</ele><time>2026-04-25T09:17:43.52Z</time></trkpt><trkpt lat="43.3287448" lon="12.8228002"><ele>430.0</ele><time>2026-04-25T09:17:44.517Z</time></trkpt><trkpt lat="43.3286328" lon="12.8228774"><ele>430.5</ele><time>2026-04-25T09:17:45.522Z</time></trkpt><trkpt lat="43.3285236" lon="12.8229218"><ele>431.0</ele><time>2026-04-25T09:17:46.518Z</time></trkpt><trkpt lat="43.3284097" lon="12.8229287"><ele>431.0</ele><time>2026-04-25T09:17:47.516Z</time></trkpt><trkpt lat="43.328291" lon="12.8228889"><ele>431.0</ele><time>2026-04-25T09:17:48.517Z</time></trkpt><trkpt lat="43.3281677" lon="12.8228133"><ele>431.0</ele><time>2026-04-25T09:17:49.524Z</time></trkpt><trkpt lat="43.3280251" lon="12.8227159"><ele>431.0</ele><time>2026-04-25T09:17:50.526Z</time></trkpt><trkpt lat="43.327851" lon="12.8226037"><ele>433.5</ele><time>2026-04-25T09:17:51.517Z</time></trkpt><trkpt lat="43.3276548" lon="12.8224818"><ele>436.0</ele><time>2026-04-25T09:17:52.517Z</time></trkpt><trkpt lat="43.3274413" lon="12.822345"><ele>437.5</ele><time>2026-04-25T09:17:53.513Z</time></trkpt><trkpt lat="43.327212" lon="12.8221951"><ele>439.0</ele><time>2026-04-25T09:17:54.525Z</time></trkpt><trkpt lat="43.3269829" lon="12.8220383"><ele>439.0</ele><time>2026-04-25T09:17:55.526Z</time></trkpt><trkpt lat="43.3267788" lon="12.8219008"><ele>439.0</ele><time>2026-04-25T09:17:56.525Z</time></trkpt><trkpt lat="43.3266057" lon="12.8217751"><ele>439.0</ele><time>2026-04-25T09:17:57.524Z</time></trkpt><trkpt lat="43.3264622" lon="12.8216512"><ele>441.33333333333337</ele><time>2026-04-25T09:17:58.525Z</time></trkpt><trkpt lat="43.326339" lon="12.8215213"><ele>443.66666666666663</ele><time>2026-04-25T09:17:59.517Z</time></trkpt><trkpt lat="43.3262169" lon="12.8213804"><ele>446.0</ele><time>2026-04-25T09:18:00.517Z</time></trkpt><trkpt lat="43.3260875" lon="12.8212119"><ele>446.0</ele><time>2026-04-25T09:18:01.522Z</time></trkpt><trkpt lat="43.3259645" lon="12.8210334"><ele>446.0</ele><time>2026-04-25T09:18:02.531Z</time></trkpt><trkpt lat="43.3258488" lon="12.8208698"><ele>446.0</ele><time>2026-04-25T09:18:03.525Z</time></trkpt><trkpt lat="43.325736" lon="12.8207397"><ele>447.75</ele><time>2026-04-25T09:18:04.527Z</time></trkpt><trkpt lat="43.325631" lon="12.8206489"><ele>449.5</ele><time>2026-04-25T09:18:05.524Z</time></trkpt><trkpt lat="43.3255139" lon="12.8205874"><ele>451.25</ele><time>2026-04-25T09:18:06.527Z</time></trkpt><trkpt lat="43.3253781" lon="12.8205486"><ele>453.0</ele><time>2026-04-25T09:18:07.525Z</time></trkpt><trkpt lat="43.3252205" lon="12.8205365"><ele>454.0</ele><time>2026-04-25T09:18:08.525Z</time></trkpt><trkpt lat="43.3250412" lon="12.8205356"><ele>455.0</ele><time>2026-04-25T09:18:09.527Z</time></trkpt><trkpt lat="43.3248401" lon="12.820537"><ele>456.0</ele><time>2026-04-25T09:18:10.526Z</time></trkpt><trkpt lat="43.3246335" lon="12.8205419"><ele>456.66666666666663</ele><time>2026-04-25T09:18:11.526Z</time></trkpt><trkpt lat="43.3244291" lon="12.820543"><ele>457.3333333333333</ele><time>2026-04-25T09:18:12.526Z</time></trkpt><trkpt lat="43.3242389" lon="12.820537"><ele>458.0</ele><time>2026-04-25T09:18:13.526Z</time></trkpt><trkpt lat="43.3240648" lon="12.8205249"><ele>458.0</ele><time>2026-04-25T09:18:14.526Z</time></trkpt><trkpt lat="43.323901" lon="12.820515"><ele>458.0</ele><time>2026-04-25T09:18:15.524Z</time></trkpt><trkpt lat="43.3237465" lon="12.8205137"><ele>458.0</ele><time>2026-04-25T09:18:16.521Z</time></trkpt><trkpt lat="43.3236091" lon="12.820524"><ele>460.0</ele><time>2026-04-25T09:18:17.516Z</time></trkpt><trkpt lat="43.3234864" lon="12.8205584"><ele>462.0</ele><time>2026-04-25T09:18:18.515Z</time></trkpt><trkpt lat="43.3233697" lon="12.820621"><ele>464.0</ele><time>2026-04-25T09:18:19.517Z</time></trkpt><trkpt lat="43.3232585" lon="12.8207029"><ele>466.0</ele><time>2026-04-25T09:18:20.525Z</time></trkpt><trkpt lat="43.3231579" lon="12.8208041"><ele>466.0</ele><time>2026-04-25T09:18:21.519Z</time></trkpt><trkpt lat="43.3230697" lon="12.8209296"><ele>466.0</ele><time>2026-04-25T09:18:22.529Z</time></trkpt><trkpt lat="43.3229961" lon="12.8210646"><ele>466.0</ele><time>2026-04-25T09:18:23.524Z</time></trkpt><trkpt lat="43.3229395" lon="12.821198"><ele>466.0</ele><time>2026-04-25T09:18:24.524Z</time></trkpt><trkpt lat="43.3228912" lon="12.8213298"><ele>466.50000000000006</ele><time>2026-04-25T09:18:25.516Z</time></trkpt><trkpt lat="43.3228361" lon="12.8214562"><ele>467.0</ele><time>2026-04-25T09:18:26.527Z</time></trkpt><trkpt lat="43.3227769" lon="12.8215572"><ele>467.5</ele><time>2026-04-25T09:18:27.528Z</time></trkpt><trkpt lat="43.3227142" lon="12.8216227"><ele>468.0</ele><time>2026-04-25T09:18:28.525Z</time></trkpt><trkpt lat="43.3226442" lon="12.8216499"><ele>468.50000000000006</ele><time>2026-04-25T09:18:29.515Z</time></trkpt><trkpt lat="43.3225665" lon="12.8216327"><ele>469.0</ele><time>2026-04-25T09:18:30.526Z</time></trkpt><trkpt lat="43.3224701" lon="12.8215833"><ele>469.0</ele><time>2026-04-25T09:18:31.525Z</time></trkpt><trkpt lat="43.3223533" lon="12.8215168"><ele>469.0</ele><time>2026-04-25T09:18:32.527Z</time></trkpt><trkpt lat="43.3222146" lon="12.8214454"><ele>469.0</ele><time>2026-04-25T09:18:33.515Z</time></trkpt><trkpt lat="43.3220572" lon="12.8213698"><ele>469.0</ele><time>2026-04-25T09:18:34.518Z</time></trkpt><trkpt lat="43.3219017" lon="12.8212965"><ele>467.25</ele><time>2026-04-25T09:18:35.522Z</time></trkpt><trkpt lat="43.3217656" lon="12.8212292"><ele>465.5</ele><time>2026-04-25T09:18:36.522Z</time></trkpt><trkpt lat="43.3216457" lon="12.8211762"><ele>463.75</ele><time>2026-04-25T09:18:37.516Z</time></trkpt><trkpt lat="43.3215369" lon="12.8211263"><ele>462.0</ele><time>2026-04-25T09:18:38.523Z</time></trkpt><trkpt lat="43.321434" lon="12.821061"><ele>462.40000000000003</ele><time>2026-04-25T09:18:39.525Z</time></trkpt><trkpt lat="43.3213381" lon="12.8209793"><ele>462.80000000000007</ele><time>2026-04-25T09:18:40.523Z</time></trkpt><trkpt lat="43.3212536" lon="12.8208844"><ele>463.2</ele><time>2026-04-25T09:18:41.516Z</time></trkpt><trkpt lat="43.3211851" lon="12.820781"><ele>463.6</ele><time>2026-04-25T09:18:42.524Z</time></trkpt><trkpt lat="43.3211347" lon="12.8206787"><ele>464.0</ele><time>2026-04-25T09:18:43.523Z</time></trkpt><trkpt lat="43.3210816" lon="12.820588"><ele>464.0</ele><time>2026-04-25T09:18:44.524Z</time></trkpt><trkpt lat="43.321008" lon="12.8205263"><ele>464.0</ele><time>2026-04-25T09:18:45.523Z</time></trkpt><trkpt lat="43.3209221" lon="12.8205047"><ele>464.0</ele><time>2026-04-25T09:18:46.523Z</time></trkpt><trkpt lat="43.3208281" lon="12.8205247"><ele>464.0</ele><time>2026-04-25T09:18:47.518Z</time></trkpt><trkpt lat="43.3207218" lon="12.8206"><ele>464.0</ele><time>2026-04-25T09:18:48.512Z</time></trkpt><trkpt lat="43.3206159" lon="12.8207136"><ele>464.0</ele><time>2026-04-25T09:18:49.524Z</time></trkpt><trkpt lat="43.3205175" lon="12.8208391"><ele>464.0</ele><time>2026-04-25T09:18:50.528Z</time></trkpt><trkpt lat="43.3204319" lon="12.8209697"><ele>464.0</ele><time>2026-04-25T09:18:51.525Z</time></trkpt><trkpt lat="43.3203589" lon="12.8210987"><ele>464.0</ele><time>2026-04-25T09:18:52.528Z</time></trkpt><trkpt lat="43.3202929" lon="12.8212244"><ele>464.0</ele><time>2026-04-25T09:18:53.515Z</time></trkpt><trkpt lat="43.3202363" lon="12.8213437"><ele>464.0</ele><time>2026-04-25T09:18:54.518Z</time></trkpt><trkpt lat="43.3202029" lon="12.8214666"><ele>464.0</ele><time>2026-04-25T09:18:55.518Z</time></trkpt><trkpt lat="43.3202046" lon="12.8215915"><ele>464.0</ele><time>2026-04-25T09:18:56.525Z</time></trkpt><trkpt lat="43.3202389" lon="12.8217237"><ele>464.0</ele><time>2026-04-25T09:18:57.513Z</time></trkpt><trkpt lat="43.3203021" lon="12.8218761"><ele>465.75</ele><time>2026-04-25T09:18:58.515Z</time></trkpt><trkpt lat="43.3203731" lon="12.8220405"><ele>467.5</ele><time>2026-04-25T09:18:59.516Z</time></trkpt><trkpt lat="43.3204344" lon="12.8221937"><ele>469.25</ele><time>2026-04-25T09:19:00.517Z</time></trkpt><trkpt lat="43.320476" lon="12.8223404"><ele>471.0</ele><time>2026-04-25T09:19:01.525Z</time></trkpt><trkpt lat="43.3204848" lon="12.8224683"><ele>471.0</ele><time>2026-04-25T09:19:02.519Z</time></trkpt><trkpt lat="43.3204665" lon="12.8225795"><ele>471.0</ele><time>2026-04-25T09:19:03.515Z</time></trkpt><trkpt lat="43.3204156" lon="12.8226813"><ele>471.0</ele><time>2026-04-25T09:19:04.529Z</time></trkpt><trkpt lat="43.3203303" lon="12.8227789"><ele>471.0</ele><time>2026-04-25T09:19:05.523Z</time></trkpt><trkpt lat="43.3202206" lon="12.8228758"><ele>471.0</ele><time>2026-04-25T09:19:06.516Z</time></trkpt><trkpt lat="43.3201073" lon="12.8229733"><ele>470.20000000000005</ele><time>2026-04-25T09:19:07.524Z</time></trkpt><trkpt lat="43.3200073" lon="12.8230544"><ele>469.40000000000003</ele><time>2026-04-25T09:19:08.523Z</time></trkpt><trkpt lat="43.3199252" lon="12.8231313"><ele>468.6</ele><time>2026-04-25T09:19:09.515Z</time></trkpt><trkpt lat="43.3198686" lon="12.8232294"><ele>467.8</ele><time>2026-04-25T09:19:10.519Z</time></trkpt><trkpt lat="43.3198331" lon="12.8233548"><ele>467.0</ele><time>2026-04-25T09:19:11.522Z</time></trkpt><trkpt lat="43.3198061" lon="12.8234883"><ele>467.20000000000005</ele><time>2026-04-25T09:19:12.524Z</time></trkpt><trkpt lat="43.3197691" lon="12.8236028"><ele>467.40000000000003</ele><time>2026-04-25T09:19:13.521Z</time></trkpt><trkpt lat="43.3197102" lon="12.823663"><ele>467.59999999999997</ele><time>2026-04-25T09:19:14.522Z</time></trkpt><trkpt lat="43.3196262" lon="12.8236737"><ele>467.79999999999995</ele><time>2026-04-25T09:19:15.516Z</time></trkpt><trkpt lat="43.3195141" lon="12.823661"><ele>468.0</ele><time>2026-04-25T09:19:16.524Z</time></trkpt><trkpt lat="43.3193733" lon="12.8236447"><ele>468.0</ele><time>2026-04-25T09:19:17.524Z</time></trkpt><trkpt lat="43.3192362" lon="12.8236227"><ele>468.0</ele><time>2026-04-25T09:19:18.518Z</time></trkpt><trkpt lat="43.3191166" lon="12.8235896"><ele>468.0</ele><time>2026-04-25T09:19:19.526Z</time></trkpt><trkpt lat="43.3190192" lon="12.8235222"><ele>468.0</ele><time>2026-04-25T09:19:20.514Z</time></trkpt><trkpt lat="43.3189412" lon="12.8234258"><ele>471.5</ele><time>2026-04-25T09:19:21.52Z</time></trkpt><trkpt lat="43.3188741" lon="12.8233087"><ele>475.0</ele><time>2026-04-25T09:19:22.515Z</time></trkpt><trkpt lat="43.3188015" lon="12.8231751"><ele>478.5</ele><time>2026-04-25T09:19:23.515Z</time></trkpt><trkpt lat="43.318713" lon="12.8230258"><ele>482.0</ele><time>2026-04-25T09:19:24.518Z</time></trkpt><trkpt lat="43.3186181" lon="12.8228781"><ele>482.0</ele><time>2026-04-25T09:19:25.514Z</time></trkpt><trkpt lat="43.3185269" lon="12.8227547"><ele>482.0</ele><time>2026-04-25T09:19:26.522Z</time></trkpt><trkpt lat="43.3184389" lon="12.8226574"><ele>482.0</ele><time>2026-04-25T09:19:27.516Z</time></trkpt><trkpt lat="43.3183414" lon="12.8225884"><ele>482.0</ele><time>2026-04-25T09:19:28.517Z</time></trkpt><trkpt lat="43.3182333" lon="12.8225428"><ele>483.5</ele><time>2026-04-25T09:19:29.515Z</time></trkpt><trkpt lat="43.3181132" lon="12.8225205"><ele>485.0</ele><time>2026-04-25T09:19:30.525Z</time></trkpt><trkpt lat="43.3179862" lon="12.8225203"><ele>486.5</ele><time>2026-04-25T09:19:31.527Z</time></trkpt><trkpt lat="43.3178667" lon="12.8225467"><ele>488.0</ele><time>2026-04-25T09:19:32.521Z</time></trkpt><trkpt lat="43.3177624" lon="12.8225969"><ele>490.2</ele><time>2026-04-25T09:19:33.518Z</time></trkpt><trkpt lat="43.3176839" lon="12.8226742"><ele>492.4</ele><time>2026-04-25T09:19:34.525Z</time></trkpt><trkpt lat="43.3176316" lon="12.8227823"><ele>494.59999999999997</ele><time>2026-04-25T09:19:35.513Z</time></trkpt><trkpt lat="43.3176059" lon="12.8229116"><ele>496.79999999999995</ele><time>2026-04-25T09:19:36.522Z</time></trkpt><trkpt lat="43.3176051" lon="12.8230588"><ele>499.0</ele><time>2026-04-25T09:19:37.519Z</time></trkpt><trkpt lat="43.3176339" lon="12.8232063"><ele>499.0</ele><time>2026-04-25T09:19:38.515Z</time></trkpt><trkpt lat="43.3176742" lon="12.8233332"><ele>499.0</ele><time>2026-04-25T09:19:39.524Z</time></trkpt><trkpt lat="43.3177148" lon="12.8234422"><ele>499.0</ele><time>2026-04-25T09:19:40.523Z</time></trkpt><trkpt lat="43.3177322" lon="12.8235486"><ele>499.0</ele><time>2026-04-25T09:19:41.514Z</time></trkpt><trkpt lat="43.3177202" lon="12.8236697"><ele>499.0</ele><time>2026-04-25T09:19:42.523Z</time></trkpt><trkpt lat="43.3176812" lon="12.8238133"><ele>499.6666666666667</ele><time>2026-04-25T09:19:43.523Z</time></trkpt><trkpt lat="43.3176263" lon="12.8240011"><ele>500.33333333333337</ele><time>2026-04-25T09:19:44.516Z</time></trkpt><trkpt lat="43.3175619" lon="12.8242376"><ele>501.0</ele><time>2026-04-25T09:19:45.523Z</time></trkpt><trkpt lat="43.3175041" lon="12.8244635"><ele>501.5</ele><time>2026-04-25T09:19:46.521Z</time></trkpt><trkpt lat="43.3174465" lon="12.8246642"><ele>502.0</ele><time>2026-04-25T09:19:47.512Z</time></trkpt><trkpt lat="43.3173881" lon="12.8248419"><ele>502.5</ele><time>2026-04-25T09:19:48.519Z</time></trkpt><trkpt lat="43.3173331" lon="12.825008"><ele>503.0</ele><time>2026-04-25T09:19:49.521Z</time></trkpt><trkpt lat="43.3172831" lon="12.825162"><ele>503.4</ele><time>2026-04-25T09:19:50.514Z</time></trkpt><trkpt lat="43.3172368" lon="12.8253074"><ele>503.79999999999995</ele><time>2026-04-25T09:19:51.517Z</time></trkpt><trkpt lat="43.3171925" lon="12.8254473"><ele>504.2</ele><time>2026-04-25T09:19:52.524Z</time></trkpt><trkpt lat="43.3171519" lon="12.8255722"><ele>504.6</ele><time>2026-04-25T09:19:53.517Z</time></trkpt><trkpt lat="43.3171165" lon="12.8256885"><ele>505.0</ele><time>2026-04-25T09:19:54.512Z</time></trkpt><trkpt lat="43.3170968" lon="12.8257998"><ele>506.6</ele><time>2026-04-25T09:19:55.516Z</time></trkpt><trkpt lat="43.3171079" lon="12.8259097"><ele>508.2</ele><time>2026-04-25T09:19:56.521Z</time></trkpt><trkpt lat="43.3171535" lon="12.8260134"><ele>509.79999999999995</ele><time>2026-04-25T09:19:57.511Z</time></trkpt><trkpt lat="43.3172248" lon="12.8261019"><ele>511.4</ele><time>2026-04-25T09:19:58.517Z</time></trkpt><trkpt lat="43.3173045" lon="12.8261836"><ele>513.0</ele><time>2026-04-25T09:19:59.517Z</time></trkpt><trkpt lat="43.3173937" lon="12.8262621"><ele>513.0</ele><time>2026-04-25T09:20:00.522Z</time></trkpt><trkpt lat="43.3175" lon="12.8263362"><ele>513.0</ele><time>2026-04-25T09:20:01.518Z</time></trkpt><trkpt lat="43.317602" lon="12.8264168"><ele>513.0</ele><time>2026-04-25T09:20:02.516Z</time></trkpt><trkpt lat="43.3176973" lon="12.8264954"><ele>513.0</ele><time>2026-04-25T09:20:03.515Z</time></trkpt><trkpt lat="43.3177803" lon="12.826572"><ele>513.0</ele><time>2026-04-25T09:20:04.514Z</time></trkpt><trkpt lat="43.3178463" lon="12.8266478"><ele>513.0</ele><time>2026-04-25T09:20:05.519Z</time></trkpt><trkpt lat="43.3178943" lon="12.8267216"><ele>513.0</ele><time>2026-04-25T09:20:06.517Z</time></trkpt><trkpt lat="43.317926" lon="12.8267981"><ele>513.0</ele><time>2026-04-25T09:20:07.518Z</time></trkpt><trkpt lat="43.3179351" lon="12.8269555"><ele>513.0</ele><time>2026-04-25T09:20:09.518Z</time></trkpt><trkpt lat="43.3178998" lon="12.827029"><ele>513.0</ele><time>2026-04-25T09:20:10.517Z</time></trkpt><trkpt lat="43.3178435" lon="12.8270767"><ele>513.0</ele><time>2026-04-25T09:20:11.522Z</time></trkpt><trkpt lat="43.3177157" lon="12.8270672"><ele>513.0</ele><time>2026-04-25T09:20:13.521Z</time></trkpt><trkpt lat="43.3176492" lon="12.8270238"><ele>513.0</ele><time>2026-04-25T09:20:14.524Z</time></trkpt><trkpt lat="43.3175834" lon="12.8269649"><ele>513.0</ele><time>2026-04-25T09:20:15.522Z</time></trkpt><trkpt lat="43.3175202" lon="12.8269023"><ele>513.0</ele><time>2026-04-25T09:20:16.519Z</time></trkpt><trkpt lat="43.3174567" lon="12.8268365"><ele>513.0</ele><time>2026-04-25T09:20:17.523Z</time></trkpt><trkpt lat="43.3173871" lon="12.8267708"><ele>513.0</ele><time>2026-04-25T09:20:18.519Z</time></trkpt><trkpt lat="43.3173099" lon="12.826704"><ele>516.0</ele><time>2026-04-25T09:20:19.523Z</time></trkpt><trkpt lat="43.317226" lon="12.8266355"><ele>519.0</ele><time>2026-04-25T09:20:20.524Z</time></trkpt><trkpt lat="43.3171377" lon="12.8265634"><ele>522.0</ele><time>2026-04-25T09:20:21.525Z</time></trkpt><trkpt lat="43.3170423" lon="12.8264871"><ele>525.0</ele><time>2026-04-25T09:20:22.517Z</time></trkpt><trkpt lat="43.3169384" lon="12.8264041"><ele>528.0</ele><time>2026-04-25T09:20:23.52Z</time></trkpt><trkpt lat="43.3168255" lon="12.8263198"><ele>528.0</ele><time>2026-04-25T09:20:24.519Z</time></trkpt><trkpt lat="43.3167042" lon="12.8262358"><ele>528.0</ele><time>2026-04-25T09:20:25.527Z</time></trkpt><trkpt lat="43.31657" lon="12.8261454"><ele>528.0</ele><time>2026-04-25T09:20:26.528Z</time></trkpt><trkpt lat="43.3164444" lon="12.8260574"><ele>528.0</ele><time>2026-04-25T09:20:27.526Z</time></trkpt><trkpt lat="43.316341" lon="12.8259898"><ele>528.4</ele><time>2026-04-25T09:20:28.527Z</time></trkpt><trkpt lat="43.3162468" lon="12.8259541"><ele>528.8</ele><time>2026-04-25T09:20:29.521Z</time></trkpt><trkpt lat="43.3161513" lon="12.8259514"><ele>529.2</ele><time>2026-04-25T09:20:30.518Z</time></trkpt><trkpt lat="43.3160561" lon="12.8259854"><ele>529.6</ele><time>2026-04-25T09:20:31.521Z</time></trkpt><trkpt lat="43.3159618" lon="12.8260615"><ele>530.0</ele><time>2026-04-25T09:20:32.514Z</time></trkpt><trkpt lat="43.3158763" lon="12.826153"><ele>530.2</ele><time>2026-04-25T09:20:33.523Z</time></trkpt><trkpt lat="43.3158006" lon="12.8262377"><ele>530.4</ele><time>2026-04-25T09:20:34.516Z</time></trkpt><trkpt lat="43.3157238" lon="12.826301"><ele>530.6</ele><time>2026-04-25T09:20:35.52Z</time></trkpt><trkpt lat="43.3156411" lon="12.8263266"><ele>530.8</ele><time>2026-04-25T09:20:36.528Z</time></trkpt><trkpt lat="43.31555" lon="12.8263049"><ele>531.0</ele><time>2026-04-25T09:20:37.513Z</time></trkpt><trkpt lat="43.3154509" lon="12.8262494"><ele>530.0</ele><time>2026-04-25T09:20:38.524Z</time></trkpt><trkpt lat="43.3153438" lon="12.8261708"><ele>529.0</ele><time>2026-04-25T09:20:39.518Z</time></trkpt><trkpt lat="43.3152339" lon="12.8260893"><ele>528.0</ele><time>2026-04-25T09:20:40.518Z</time></trkpt><trkpt lat="43.3151262" lon="12.8260135"><ele>527.0</ele><time>2026-04-25T09:20:41.517Z</time></trkpt><trkpt lat="43.3150221" lon="12.8259444"><ele>525.8000000000001</ele><time>2026-04-25T09:20:42.515Z</time></trkpt><trkpt lat="43.3149236" lon="12.8258806"><ele>524.6</ele><time>2026-04-25T09:20:43.523Z</time></trkpt><trkpt lat="43.3148294" lon="12.8258233"><ele>523.4000000000001</ele><time>2026-04-25T09:20:44.517Z</time></trkpt><trkpt lat="43.3147389" lon="12.8257682"><ele>522.2</ele><time>2026-04-25T09:20:45.526Z</time></trkpt><trkpt lat="43.3146576" lon="12.825713"><ele>521.0</ele><time>2026-04-25T09:20:46.526Z</time></trkpt><trkpt lat="43.3145885" lon="12.8256568"><ele>519.3333333333333</ele><time>2026-04-25T09:20:47.52Z</time></trkpt><trkpt lat="43.3145242" lon="12.8256091"><ele>517.6666666666666</ele><time>2026-04-25T09:20:48.528Z</time></trkpt><trkpt lat="43.3144583" lon="12.8255777"><ele>516.0</ele><time>2026-04-25T09:20:49.525Z</time></trkpt><trkpt lat="43.3143886" lon="12.8255778"><ele>514.3333333333334</ele><time>2026-04-25T09:20:50.527Z</time></trkpt><trkpt lat="43.3143214" lon="12.8256101"><ele>512.6666666666667</ele><time>2026-04-25T09:20:51.524Z</time></trkpt><trkpt lat="43.3142512" lon="12.8256716"><ele>511.0</ele><time>2026-04-25T09:20:52.527Z</time></trkpt><trkpt lat="43.3141724" lon="12.82575"><ele>511.0</ele><time>2026-04-25T09:20:53.522Z</time></trkpt><trkpt lat="43.3140911" lon="12.825845"><ele>511.0</ele><time>2026-04-25T09:20:54.524Z</time></trkpt><trkpt lat="43.3140036" lon="12.8259451"><ele>511.0</ele><time>2026-04-25T09:20:55.516Z</time></trkpt><trkpt lat="43.313918" lon="12.8260456"><ele>511.0</ele><time>2026-04-25T09:20:56.525Z</time></trkpt><trkpt lat="43.3138384" lon="12.82613"><ele>511.0</ele><time>2026-04-25T09:20:57.526Z</time></trkpt><trkpt lat="43.313765" lon="12.8261825"><ele>510.1666666666667</ele><time>2026-04-25T09:20:58.526Z</time></trkpt><trkpt lat="43.3136885" lon="12.8261988"><ele>509.33333333333337</ele><time>2026-04-25T09:20:59.526Z</time></trkpt><trkpt lat="43.3136121" lon="12.8261778"><ele>508.5</ele><time>2026-04-25T09:21:00.516Z</time></trkpt><trkpt lat="43.3135384" lon="12.8261287"><ele>507.66666666666663</ele><time>2026-04-25T09:21:01.515Z</time></trkpt><trkpt lat="43.3134641" lon="12.8260725"><ele>506.8333333333333</ele><time>2026-04-25T09:21:02.526Z</time></trkpt><trkpt lat="43.3133882" lon="12.8260316"><ele>506.0</ele><time>2026-04-25T09:21:03.526Z</time></trkpt><trkpt lat="43.3133092" lon="12.8260147"><ele>505.99999999999994</ele><time>2026-04-25T09:21:04.527Z</time></trkpt><trkpt lat="43.3132237" lon="12.8260268"><ele>506.0</ele><time>2026-04-25T09:21:05.524Z</time></trkpt><trkpt lat="43.313135" lon="12.82607"><ele>506.0</ele><time>2026-04-25T09:21:06.525Z</time></trkpt><trkpt lat="43.3130555" lon="12.8261204"><ele>506.0</ele><time>2026-04-25T09:21:07.527Z</time></trkpt><trkpt lat="43.3129917" lon="12.8261681"><ele>505.99999999999994</ele><time>2026-04-25T09:21:08.52Z</time></trkpt><trkpt lat="43.312933" lon="12.8262121"><ele>506.0</ele><time>2026-04-25T09:21:09.527Z</time></trkpt><trkpt lat="43.3128736" lon="12.8262435"><ele>504.99999999999994</ele><time>2026-04-25T09:21:10.526Z</time></trkpt><trkpt lat="43.3128068" lon="12.8262508"><ele>504.0</ele><time>2026-04-25T09:21:11.526Z</time></trkpt><trkpt lat="43.3127363" lon="12.8262294"><ele>503.0</ele><time>2026-04-25T09:21:12.518Z</time></trkpt><trkpt lat="43.3126612" lon="12.8261796"><ele>502.0</ele><time>2026-04-25T09:21:13.526Z</time></trkpt><trkpt lat="43.3125851" lon="12.8260991"><ele>500.99999999999994</ele><time>2026-04-25T09:21:14.525Z</time></trkpt><trkpt lat="43.3125191" lon="12.8259977"><ele>500.0</ele><time>2026-04-25T09:21:15.517Z</time></trkpt><trkpt lat="43.3124674" lon="12.8258867"><ele>498.99999999999994</ele><time>2026-04-25T09:21:16.527Z</time></trkpt><trkpt lat="43.3124153" lon="12.8257871"><ele>498.0</ele><time>2026-04-25T09:21:17.521Z</time></trkpt><trkpt lat="43.3123573" lon="12.8257008"><ele>497.0</ele><time>2026-04-25T09:21:18.527Z</time></trkpt><trkpt lat="43.3122924" lon="12.8256263"><ele>496.0</ele><time>2026-04-25T09:21:19.52Z</time></trkpt><trkpt lat="43.312224" lon="12.825562"><ele>494.99999999999994</ele><time>2026-04-25T09:21:20.523Z</time></trkpt><trkpt lat="43.3121511" lon="12.8255163"><ele>494.0</ele><time>2026-04-25T09:21:21.525Z</time></trkpt><trkpt lat="43.3120779" lon="12.8254858"><ele>493.3333333333333</ele><time>2026-04-25T09:21:22.522Z</time></trkpt><trkpt lat="43.3120014" lon="12.8254626"><ele>492.66666666666663</ele><time>2026-04-25T09:21:23.523Z</time></trkpt><trkpt lat="43.3119227" lon="12.8254416"><ele>492.0</ele><time>2026-04-25T09:21:24.518Z</time></trkpt><trkpt lat="43.3118376" lon="12.8254172"><ele>491.33333333333337</ele><time>2026-04-25T09:21:25.524Z</time></trkpt><trkpt lat="43.3117476" lon="12.8253913"><ele>490.6666666666667</ele><time>2026-04-25T09:21:26.524Z</time></trkpt><trkpt lat="43.311648" lon="12.8253676"><ele>490.0</ele><time>2026-04-25T09:21:27.526Z</time></trkpt><trkpt lat="43.3115433" lon="12.8253538"><ele>490.0</ele><time>2026-04-25T09:21:28.524Z</time></trkpt><trkpt lat="43.3114333" lon="12.8253534"><ele>490.0</ele><time>2026-04-25T09:21:29.521Z</time></trkpt><trkpt lat="43.3113187" lon="12.8253638"><ele>490.0</ele><time>2026-04-25T09:21:30.522Z</time></trkpt><trkpt lat="43.3112031" lon="12.825379"><ele>490.0</ele><time>2026-04-25T09:21:31.52Z</time></trkpt><trkpt lat="43.3110952" lon="12.8253977"><ele>487.00000000000006</ele><time>2026-04-25T09:21:32.527Z</time></trkpt><trkpt lat="43.3109992" lon="12.8254247"><ele>484.0</ele><time>2026-04-25T09:21:33.524Z</time></trkpt><trkpt lat="43.3109165" lon="12.8254582"><ele>481.0</ele><time>2026-04-25T09:21:34.517Z</time></trkpt><trkpt lat="43.3108476" lon="12.8254924"><ele>478.0</ele><time>2026-04-25T09:21:35.524Z</time></trkpt><trkpt lat="43.3107544" lon="12.8255144"><ele>475.00000000000006</ele><time>2026-04-25T09:21:37.521Z</time></trkpt><trkpt lat="43.310685" lon="12.8254557"><ele>472.0</ele><time>2026-04-25T09:21:39.529Z</time></trkpt><trkpt lat="43.3106267" lon="12.8253386"><ele>472.00000000000006</ele><time>2026-04-25T09:21:41.524Z</time></trkpt><trkpt lat="43.3106617" lon="12.8251855"><ele>472.0</ele><time>2026-04-25T09:21:43.524Z</time></trkpt><trkpt lat="43.3107088" lon="12.8251107"><ele>472.0</ele><time>2026-04-25T09:21:44.515Z</time></trkpt><trkpt lat="43.3107562" lon="12.8250467"><ele>472.0</ele><time>2026-04-25T09:21:45.523Z</time></trkpt><trkpt lat="43.3108184" lon="12.8249852"><ele>472.00000000000006</ele><time>2026-04-25T09:21:46.524Z</time></trkpt><trkpt lat="43.3108797" lon="12.8249182"><ele>472.0</ele><time>2026-04-25T09:21:47.522Z</time></trkpt><trkpt lat="43.3109237" lon="12.8248355"><ele>472.0</ele><time>2026-04-25T09:21:48.525Z</time></trkpt><trkpt lat="43.3109398" lon="12.824728"><ele>472.00000000000006</ele><time>2026-04-25T09:21:49.513Z</time></trkpt><trkpt lat="43.3109501" lon="12.8246223"><ele>472.00000000000006</ele><time>2026-04-25T09:21:50.525Z</time></trkpt><trkpt lat="43.3109556" lon="12.8244711"><ele>472.0</ele><time>2026-04-25T09:21:52.526Z</time></trkpt><trkpt lat="43.3108991" lon="12.8243756"><ele>472.0</ele><time>2026-04-25T09:21:54.522Z</time></trkpt><trkpt lat="43.3107897" lon="12.8243867"><ele>472.00000000000006</ele><time>2026-04-25T09:21:56.522Z</time></trkpt><trkpt lat="43.3107195" lon="12.8244156"><ele>472.0</ele><time>2026-04-25T09:21:57.523Z</time></trkpt><trkpt lat="43.3106411" lon="12.8244439"><ele>472.0</ele><time>2026-04-25T09:21:58.514Z</time></trkpt><trkpt lat="43.3105579" lon="12.8244743"><ele>472.0</ele><time>2026-04-25T09:21:59.519Z</time></trkpt><trkpt lat="43.3104781" lon="12.8245023"><ele>472.00000000000006</ele><time>2026-04-25T09:22:00.527Z</time></trkpt><trkpt lat="43.3104046" lon="12.8245166"><ele>472.0</ele><time>2026-04-25T09:22:01.524Z</time></trkpt><trkpt lat="43.3103338" lon="12.824514"><ele>471.83333333333337</ele><time>2026-04-25T09:22:02.525Z</time></trkpt><trkpt lat="43.3102641" lon="12.8244937"><ele>471.6666666666667</ele><time>2026-04-25T09:22:03.522Z</time></trkpt><trkpt lat="43.3101963" lon="12.8244461"><ele>471.5</ele><time>2026-04-25T09:22:04.516Z</time></trkpt><trkpt lat="43.3101373" lon="12.8243793"><ele>471.33333333333337</ele><time>2026-04-25T09:22:05.523Z</time></trkpt><trkpt lat="43.3100857" lon="12.8243013"><ele>471.1666666666667</ele><time>2026-04-25T09:22:06.529Z</time></trkpt><trkpt lat="43.3100386" lon="12.8242083"><ele>471.0</ele><time>2026-04-25T09:22:07.519Z</time></trkpt><trkpt lat="43.3099963" lon="12.8241069"><ele>472.1666666666667</ele><time>2026-04-25T09:22:08.519Z</time></trkpt><trkpt lat="43.3099569" lon="12.8240048"><ele>473.33333333333337</ele><time>2026-04-25T09:22:09.52Z</time></trkpt><trkpt lat="43.3099149" lon="12.8239022"><ele>474.5</ele><time>2026-04-25T09:22:10.517Z</time></trkpt><trkpt lat="43.3098724" lon="12.8238018"><ele>475.6666666666667</ele><time>2026-04-25T09:22:11.525Z</time></trkpt><trkpt lat="43.3098295" lon="12.8237027"><ele>476.83333333333337</ele><time>2026-04-25T09:22:12.524Z</time></trkpt><trkpt lat="43.3097798" lon="12.8236138"><ele>478.0</ele><time>2026-04-25T09:22:13.525Z</time></trkpt><trkpt lat="43.3097224" lon="12.8235374"><ele>479.0</ele><time>2026-04-25T09:22:14.524Z</time></trkpt><trkpt lat="43.3096532" lon="12.8234793"><ele>479.99999999999994</ele><time>2026-04-25T09:22:15.518Z</time></trkpt><trkpt lat="43.3095659" lon="12.8234591"><ele>480.99999999999994</ele><time>2026-04-25T09:22:16.525Z</time></trkpt><trkpt lat="43.3094597" lon="12.8234699"><ele>482.0</ele><time>2026-04-25T09:22:17.521Z</time></trkpt><trkpt lat="43.3093462" lon="12.8234835"><ele>483.0</ele><time>2026-04-25T09:22:18.52Z</time></trkpt><trkpt lat="43.3092332" lon="12.8234816"><ele>484.4</ele><time>2026-04-25T09:22:19.526Z</time></trkpt><trkpt lat="43.3091246" lon="12.8234649"><ele>485.79999999999995</ele><time>2026-04-25T09:22:20.526Z</time></trkpt><trkpt lat="43.3090308" lon="12.8234206"><ele>487.2</ele><time>2026-04-25T09:22:21.524Z</time></trkpt><trkpt lat="43.3089475" lon="12.8233518"><ele>488.6</ele><time>2026-04-25T09:22:22.519Z</time></trkpt><trkpt lat="43.3088662" lon="12.8232674"><ele>490.0</ele><time>2026-04-25T09:22:23.525Z</time></trkpt><trkpt lat="43.3087884" lon="12.8231819"><ele>490.00000000000006</ele><time>2026-04-25T09:22:24.518Z</time></trkpt><trkpt lat="43.3087306" lon="12.8231103"><ele>490.0</ele><time>2026-04-25T09:22:25.528Z</time></trkpt><trkpt lat="43.3086814" lon="12.8230252"><ele>490.0</ele><time>2026-04-25T09:22:27.515Z</time></trkpt><trkpt lat="43.3087036" lon="12.8231284"><ele>490.0</ele><time>2026-04-25T09:22:40.516Z</time></trkpt><trkpt lat="43.3087613" lon="12.8231837"><ele>490.00000000000006</ele><time>2026-04-25T09:22:41.523Z</time></trkpt><trkpt lat="43.3088336" lon="12.8232493"><ele>490.0</ele><time>2026-04-25T09:22:42.527Z</time></trkpt><trkpt lat="43.3089176" lon="12.8233226"><ele>490.0</ele><time>2026-04-25T09:22:43.523Z</time></trkpt><trkpt lat="43.3090153" lon="12.8233956"><ele>490.0</ele><time>2026-04-25T09:22:44.522Z</time></trkpt><trkpt lat="43.3091147" lon="12.8234574"><ele>490.0</ele><time>2026-04-25T09:22:45.525Z</time></trkpt></trkseg><trkseg><trkpt lat="43.3464642" lon="12.9239705"><ele>316.0</ele><time>2026-04-25T10:17:20.321Z</time></trkpt><trkpt lat="43.3464188" lon="12.9238711"><ele>316.0</ele><time>2026-04-25T10:18:09.331Z</time></trkpt><trkpt lat="43.346422" lon="12.9237158"><ele>316.0</ele><time>2026-04-25T10:18:11.32Z</time></trkpt><trkpt lat="43.346413" lon="12.9236278"><ele>316.0</ele><time>2026-04-25T10:18:12.318Z</time></trkpt><trkpt lat="43.3463994" lon="12.9235398"><ele>316.0</ele><time>2026-04-25T10:18:13.314Z</time></trkpt><trkpt lat="43.3463869" lon="12.9234476"><ele>316.0</ele><time>2026-04-25T10:18:14.321Z</time></trkpt><trkpt lat="43.3463921" lon="12.9233536"><ele>315.16666666666663</ele><time>2026-04-25T10:18:15.312Z</time></trkpt><trkpt lat="43.3464233" lon="12.9232757"><ele>314.3333333333333</ele><time>2026-04-25T10:18:16.314Z</time></trkpt><trkpt lat="43.3464724" lon="12.9232063"><ele>313.5</ele><time>2026-04-25T10:18:17.319Z</time></trkpt><trkpt lat="43.3465322" lon="12.9231422"><ele>312.6666666666667</ele><time>2026-04-25T10:18:18.323Z</time></trkpt><trkpt lat="43.3465976" lon="12.9230722"><ele>311.83333333333337</ele><time>2026-04-25T10:18:19.325Z</time></trkpt><trkpt lat="43.3466594" lon="12.9230015"><ele>311.0</ele><time>2026-04-25T10:18:20.323Z</time></trkpt><trkpt lat="43.3467178" lon="12.9229344"><ele>311.0</ele><time>2026-04-25T10:18:21.326Z</time></trkpt><trkpt lat="43.3467736" lon="12.9228706"><ele>311.0</ele><time>2026-04-25T10:18:22.327Z</time></trkpt><trkpt lat="43.3468285" lon="12.9228122"><ele>311.0</ele><time>2026-04-25T10:18:23.322Z</time></trkpt><trkpt lat="43.3468795" lon="12.9227542"><ele>311.0</ele><time>2026-04-25T10:18:24.32Z</time></trkpt><trkpt lat="43.3469596" lon="12.9226633"><ele>311.0</ele><time>2026-04-25T10:18:26.32Z</time></trkpt><trkpt lat="43.3470146" lon="12.9225837"><ele>311.0</ele><time>2026-04-25T10:18:29.32Z</time></trkpt><trkpt lat="43.3470214" lon="12.9224787"><ele>310.33333333333337</ele><time>2026-04-25T10:18:31.328Z</time></trkpt><trkpt lat="43.3469852" lon="12.9224026"><ele>309.6666666666667</ele><time>2026-04-25T10:18:32.33Z</time></trkpt><trkpt lat="43.3469308" lon="12.9223172"><ele>309.0</ele><time>2026-04-25T10:18:33.328Z</time></trkpt><trkpt lat="43.3468704" lon="12.9222245"><ele>308.3333333333333</ele><time>2026-04-25T10:18:34.33Z</time></trkpt><trkpt lat="43.3468142" lon="12.9221333"><ele>307.66666666666663</ele><time>2026-04-25T10:18:35.328Z</time></trkpt><trkpt lat="43.3467658" lon="12.9220467"><ele>307.0</ele><time>2026-04-25T10:18:36.327Z</time></trkpt><trkpt lat="43.3467267" lon="12.9219613"><ele>307.0</ele><time>2026-04-25T10:18:37.327Z</time></trkpt><trkpt lat="43.3466914" lon="12.9217912"><ele>307.0</ele><time>2026-04-25T10:18:39.329Z</time></trkpt><trkpt lat="43.3466907" lon="12.9216943"><ele>307.0</ele><time>2026-04-25T10:18:40.322Z</time></trkpt><trkpt lat="43.3466846" lon="12.9215963"><ele>307.0</ele><time>2026-04-25T10:18:41.32Z</time></trkpt><trkpt lat="43.3466641" lon="12.921503"><ele>307.0</ele><time>2026-04-25T10:18:42.32Z</time></trkpt><trkpt lat="43.3466283" lon="12.921424"><ele>307.0</ele><time>2026-04-25T10:18:43.322Z</time></trkpt><trkpt lat="43.3465766" lon="12.9213651"><ele>306.85714285714283</ele><time>2026-04-25T10:18:44.319Z</time></trkpt><trkpt lat="43.3465091" lon="12.9213305"><ele>306.7142857142857</ele><time>2026-04-25T10:18:45.319Z</time></trkpt><trkpt lat="43.346436" lon="12.921305"><ele>306.57142857142856</ele><time>2026-04-25T10:18:46.322Z</time></trkpt><trkpt lat="43.346369" lon="12.9212754"><ele>306.42857142857144</ele><time>2026-04-25T10:18:47.323Z</time></trkpt><trkpt lat="43.3463073" lon="12.9212299"><ele>306.2857142857143</ele><time>2026-04-25T10:18:48.325Z</time></trkpt><trkpt lat="43.3462533" lon="12.921168"><ele>306.1428571428571</ele><time>2026-04-25T10:18:49.321Z</time></trkpt><trkpt lat="43.3462005" lon="12.9210905"><ele>306.0</ele><time>2026-04-25T10:18:50.324Z</time></trkpt><trkpt lat="43.3461493" lon="12.921001"><ele>306.0</ele><time>2026-04-25T10:18:51.315Z</time></trkpt><trkpt lat="43.3460964" lon="12.9209079"><ele>306.0</ele><time>2026-04-25T10:18:52.329Z</time></trkpt><trkpt lat="43.3460388" lon="12.9208135"><ele>306.0</ele><time>2026-04-25T10:18:53.323Z</time></trkpt><trkpt lat="43.3459776" lon="12.9207175"><ele>306.0</ele><time>2026-04-25T10:18:54.322Z</time></trkpt><trkpt lat="43.3459154" lon="12.9206172"><ele>306.0</ele><time>2026-04-25T10:18:55.324Z</time></trkpt><trkpt lat="43.3458505" lon="12.92051"><ele>305.8</ele><time>2026-04-25T10:18:56.321Z</time></trkpt><trkpt lat="43.3457819" lon="12.9203971"><ele>305.6</ele><time>2026-04-25T10:18:57.326Z</time></trkpt><trkpt lat="43.3457138" lon="12.9202834"><ele>305.4</ele><time>2026-04-25T10:18:58.34Z</time></trkpt><trkpt lat="43.3456491" lon="12.9201747"><ele>305.2</ele><time>2026-04-25T10:18:59.34Z</time></trkpt><trkpt lat="43.3455859" lon="12.9200692"><ele>305.0</ele><time>2026-04-25T10:19:00.346Z</time></trkpt><trkpt lat="43.3455218" lon="12.9199628"><ele>305.8</ele><time>2026-04-25T10:19:01.339Z</time></trkpt><trkpt lat="43.3454609" lon="12.9198558"><ele>306.6</ele><time>2026-04-25T10:19:02.345Z</time></trkpt><trkpt lat="43.3454004" lon="12.9197492"><ele>307.4</ele><time>2026-04-25T10:19:03.345Z</time></trkpt><trkpt lat="43.3453398" lon="12.9196437"><ele>308.2</ele><time>2026-04-25T10:19:04.332Z</time></trkpt><trkpt lat="43.3452774" lon="12.9195403"><ele>309.0</ele><time>2026-04-25T10:19:05.34Z</time></trkpt><trkpt lat="43.3452151" lon="12.9194379"><ele>309.0</ele><time>2026-04-25T10:19:06.339Z</time></trkpt><trkpt lat="43.3451552" lon="12.9193413"><ele>309.0</ele><time>2026-04-25T10:19:07.344Z</time></trkpt><trkpt lat="43.3450961" lon="12.9192491"><ele>309.0</ele><time>2026-04-25T10:19:08.332Z</time></trkpt><trkpt lat="43.3450361" lon="12.9191531"><ele>309.0</ele><time>2026-04-25T10:19:09.345Z</time></trkpt><trkpt lat="43.3449757" lon="12.9190528"><ele>309.0</ele><time>2026-04-25T10:19:10.338Z</time></trkpt><trkpt lat="43.3449143" lon="12.9189504"><ele>309.0</ele><time>2026-04-25T10:19:11.343Z</time></trkpt><trkpt lat="43.3448562" lon="12.9188542"><ele>309.0</ele><time>2026-04-25T10:19:12.324Z</time></trkpt><trkpt lat="43.344796" lon="12.9187603"><ele>309.0</ele><time>2026-04-25T10:19:13.341Z</time></trkpt><trkpt lat="43.3447302" lon="12.9186549"><ele>309.0</ele><time>2026-04-25T10:19:14.327Z</time></trkpt><trkpt lat="43.3446599" lon="12.9185314"><ele>309.0</ele><time>2026-04-25T10:19:15.338Z</time></trkpt><trkpt lat="43.3445825" lon="12.9183948"><ele>309.0</ele><time>2026-04-25T10:19:16.344Z</time></trkpt><trkpt lat="43.3445001" lon="12.918248"><ele>309.0</ele><time>2026-04-25T10:19:17.338Z</time></trkpt><trkpt lat="43.3444116" lon="12.9180937"><ele>309.0</ele><time>2026-04-25T10:19:18.339Z</time></trkpt><trkpt lat="43.3443225" lon="12.9179411"><ele>309.0</ele><time>2026-04-25T10:19:19.34Z</time></trkpt><trkpt lat="43.3442326" lon="12.9177907"><ele>309.0</ele><time>2026-04-25T10:19:20.33Z</time></trkpt><trkpt lat="43.3441416" lon="12.9176388"><ele>309.0</ele><time>2026-04-25T10:19:21.323Z</time></trkpt><trkpt lat="43.3440476" lon="12.9174841"><ele>309.0</ele><time>2026-04-25T10:19:22.345Z</time></trkpt><trkpt lat="43.343953" lon="12.9173286"><ele>309.0</ele><time>2026-04-25T10:19:23.337Z</time></trkpt><trkpt lat="43.3438585" lon="12.9171697"><ele>310.3333333333333</ele><time>2026-04-25T10:19:24.329Z</time></trkpt><trkpt lat="43.3437632" lon="12.9170081"><ele>311.66666666666663</ele><time>2026-04-25T10:19:25.339Z</time></trkpt><trkpt lat="43.3436668" lon="12.9168445"><ele>313.0</ele><time>2026-04-25T10:19:26.337Z</time></trkpt><trkpt lat="43.3435697" lon="12.9166767"><ele>313.0</ele><time>2026-04-25T10:19:27.337Z</time></trkpt><trkpt lat="43.3434699" lon="12.9165083"><ele>313.0</ele><time>2026-04-25T10:19:28.341Z</time></trkpt><trkpt lat="43.3433681" lon="12.9163359"><ele>313.0</ele><time>2026-04-25T10:19:29.338Z</time></trkpt><trkpt lat="43.3432635" lon="12.91616"><ele>313.0</ele><time>2026-04-25T10:19:30.342Z</time></trkpt><trkpt lat="43.3431567" lon="12.9159827"><ele>313.0</ele><time>2026-04-25T10:19:31.347Z</time></trkpt><trkpt lat="43.3430482" lon="12.9158054"><ele>313.0</ele><time>2026-04-25T10:19:32.35Z</time></trkpt><trkpt lat="43.3429395" lon="12.9156264"><ele>313.3333333333333</ele><time>2026-04-25T10:19:33.343Z</time></trkpt><trkpt lat="43.3428326" lon="12.9154481"><ele>313.6666666666667</ele><time>2026-04-25T10:19:34.34Z</time></trkpt><trkpt lat="43.3427283" lon="12.9152735"><ele>314.0</ele><time>2026-04-25T10:19:35.34Z</time></trkpt><trkpt lat="43.3426311" lon="12.9151069"><ele>314.0</ele><time>2026-04-25T10:19:36.34Z</time></trkpt><trkpt lat="43.3425399" lon="12.9149493"><ele>314.0</ele><time>2026-04-25T10:19:37.347Z</time></trkpt><trkpt lat="43.3424482" lon="12.9148001"><ele>314.0</ele><time>2026-04-25T10:19:38.33Z</time></trkpt><trkpt lat="43.3423586" lon="12.9146559"><ele>314.0</ele><time>2026-04-25T10:19:39.342Z</time></trkpt><trkpt lat="43.3422755" lon="12.9145155"><ele>314.75</ele><time>2026-04-25T10:19:40.338Z</time></trkpt><trkpt lat="43.3421914" lon="12.9143783"><ele>315.5</ele><time>2026-04-25T10:19:41.339Z</time></trkpt><trkpt lat="43.3421083" lon="12.9142418"><ele>316.25</ele><time>2026-04-25T10:19:42.343Z</time></trkpt><trkpt lat="43.3420269" lon="12.9141069"><ele>317.0</ele><time>2026-04-25T10:19:43.319Z</time></trkpt><trkpt lat="43.3419447" lon="12.9139741"><ele>317.0</ele><time>2026-04-25T10:19:44.329Z</time></trkpt><trkpt lat="43.3418629" lon="12.9138392"><ele>317.0</ele><time>2026-04-25T10:19:45.339Z</time></trkpt><trkpt lat="43.3417826" lon="12.9137028"><ele>317.0</ele><time>2026-04-25T10:19:46.329Z</time></trkpt><trkpt lat="43.3417002" lon="12.9135682"><ele>317.0</ele><time>2026-04-25T10:19:47.329Z</time></trkpt><trkpt lat="43.3416199" lon="12.9134329"><ele>316.75</ele><time>2026-04-25T10:19:48.336Z</time></trkpt><trkpt lat="43.3415397" lon="12.9132947"><ele>316.5</ele><time>2026-04-25T10:19:49.34Z</time></trkpt><trkpt lat="43.3414588" lon="12.913155"><ele>316.25</ele><time>2026-04-25T10:19:50.338Z</time></trkpt><trkpt lat="43.3413786" lon="12.9130149"><ele>316.0</ele><time>2026-04-25T10:19:51.339Z</time></trkpt><trkpt lat="43.3412979" lon="12.9128753"><ele>316.0</ele><time>2026-04-25T10:19:52.325Z</time></trkpt><trkpt lat="43.3412151" lon="12.9127373"><ele>316.0</ele><time>2026-04-25T10:19:53.342Z</time></trkpt><trkpt lat="43.3411316" lon="12.9125996"><ele>316.0</ele><time>2026-04-25T10:19:54.329Z</time></trkpt><trkpt lat="43.3410508" lon="12.9124641"><ele>316.0</ele><time>2026-04-25T10:19:55.335Z</time></trkpt><trkpt lat="43.3409763" lon="12.9123362"><ele>316.2</ele><time>2026-04-25T10:19:56.338Z</time></trkpt><trkpt lat="43.3409054" lon="12.9122197"><ele>316.40000000000003</ele><time>2026-04-25T10:19:57.33Z</time></trkpt><trkpt lat="43.3408394" lon="12.9120949"><ele>316.6</ele><time>2026-04-25T10:19:58.339Z</time></trkpt><trkpt lat="43.3407724" lon="12.9119775"><ele>316.8</ele><time>2026-04-25T10:19:59.343Z</time></trkpt><trkpt lat="43.3407036" lon="12.9118564"><ele>317.0</ele><time>2026-04-25T10:20:00.342Z</time></trkpt><trkpt lat="43.340631" lon="12.9117358"><ele>317.0</ele><time>2026-04-25T10:20:01.337Z</time></trkpt><trkpt lat="43.3405531" lon="12.9116155"><ele>317.0</ele><time>2026-04-25T10:20:02.34Z</time></trkpt><trkpt lat="43.340473" lon="12.911493"><ele>317.0</ele><time>2026-04-25T10:20:03.319Z</time></trkpt><trkpt lat="43.3403937" lon="12.9113642"><ele>317.0</ele><time>2026-04-25T10:20:04.339Z</time></trkpt><trkpt lat="43.3403144" lon="12.9112313"><ele>317.75</ele><time>2026-04-25T10:20:05.338Z</time></trkpt><trkpt lat="43.3402344" lon="12.9110967"><ele>318.5</ele><time>2026-04-25T10:20:06.328Z</time></trkpt><trkpt lat="43.3401539" lon="12.9109596"><ele>319.25</ele><time>2026-04-25T10:20:07.33Z</time></trkpt><trkpt lat="43.3400712" lon="12.9108241"><ele>320.0</ele><time>2026-04-25T10:20:08.342Z</time></trkpt><trkpt lat="43.3399886" lon="12.9106866"><ele>320.25</ele><time>2026-04-25T10:20:09.341Z</time></trkpt><trkpt lat="43.3399065" lon="12.9105488"><ele>320.5</ele><time>2026-04-25T10:20:10.326Z</time></trkpt><trkpt lat="43.3398233" lon="12.9104115"><ele>320.75</ele><time>2026-04-25T10:20:11.327Z</time></trkpt><trkpt lat="43.3397382" lon="12.9102746"><ele>321.0</ele><time>2026-04-25T10:20:12.339Z</time></trkpt><trkpt lat="43.3396543" lon="12.9101363"><ele>322.0</ele><time>2026-04-25T10:20:13.33Z</time></trkpt><trkpt lat="43.3395702" lon="12.9099972"><ele>323.0</ele><time>2026-04-25T10:20:14.335Z</time></trkpt><trkpt lat="43.3394857" lon="12.9098593"><ele>324.0</ele><time>2026-04-25T10:20:15.339Z</time></trkpt><trkpt lat="43.3394027" lon="12.9097188"><ele>325.0</ele><time>2026-04-25T10:20:16.322Z</time></trkpt><trkpt lat="43.3393193" lon="12.9095788"><ele>325.0</ele><time>2026-04-25T10:20:17.33Z</time></trkpt><trkpt lat="43.3392367" lon="12.9094401"><ele>325.0</ele><time>2026-04-25T10:20:18.34Z</time></trkpt><trkpt lat="43.3391549" lon="12.9093033"><ele>325.0</ele><time>2026-04-25T10:20:19.327Z</time></trkpt><trkpt lat="43.3390758" lon="12.9091678"><ele>325.0</ele><time>2026-04-25T10:20:20.332Z</time></trkpt><trkpt lat="43.3390015" lon="12.9090412"><ele>324.8</ele><time>2026-04-25T10:20:21.337Z</time></trkpt><trkpt lat="43.3389351" lon="12.9089254"><ele>324.6</ele><time>2026-04-25T10:20:22.344Z</time></trkpt><trkpt lat="43.3388732" lon="12.9088169"><ele>324.4</ele><time>2026-04-25T10:20:23.338Z</time></trkpt><trkpt lat="43.3388112" lon="12.9087211"><ele>324.2</ele><time>2026-04-25T10:20:24.329Z</time></trkpt><trkpt lat="43.3387551" lon="12.9086299"><ele>324.0</ele><time>2026-04-25T10:20:25.339Z</time></trkpt><trkpt lat="43.3387004" lon="12.9085437"><ele>324.1666666666667</ele><time>2026-04-25T10:20:26.325Z</time></trkpt><trkpt lat="43.3386582" lon="12.9084794"><ele>324.3333333333333</ele><time>2026-04-25T10:20:27.337Z</time></trkpt><trkpt lat="43.3386093" lon="12.9084166"><ele>324.5</ele><time>2026-04-25T10:20:30.346Z</time></trkpt><trkpt lat="43.3385558" lon="12.9083087"><ele>324.66666666666663</ele><time>2026-04-25T10:20:41.337Z</time></trkpt><trkpt lat="43.3385063" lon="12.9081921"><ele>324.8333333333333</ele><time>2026-04-25T10:20:43.34Z</time></trkpt><trkpt lat="43.3384268" lon="12.9081197"><ele>325.0</ele><time>2026-04-25T10:20:45.341Z</time></trkpt><trkpt lat="43.338337" lon="12.9081837"><ele>325.0</ele><time>2026-04-25T10:20:47.336Z</time></trkpt><trkpt lat="43.3382625" lon="12.9083344"><ele>325.0</ele><time>2026-04-25T10:20:49.334Z</time></trkpt><trkpt lat="43.3381545" lon="12.9084324"><ele>325.0</ele><time>2026-04-25T10:20:51.339Z</time></trkpt><trkpt lat="43.3380765" lon="12.9084785"><ele>325.0</ele><time>2026-04-25T10:20:52.324Z</time></trkpt><trkpt lat="43.3380039" lon="12.9085096"><ele>325.0</ele><time>2026-04-25T10:20:53.335Z</time></trkpt><trkpt lat="43.337929" lon="12.9085368"><ele>325.0</ele><time>2026-04-25T10:20:54.342Z</time></trkpt><trkpt lat="43.3378498" lon="12.9085604"><ele>325.0</ele><time>2026-04-25T10:20:55.342Z</time></trkpt><trkpt lat="43.337766" lon="12.9085946"><ele>325.0</ele><time>2026-04-25T10:20:56.33Z</time></trkpt><trkpt lat="43.3376878" lon="12.9086195"><ele>325.0</ele><time>2026-04-25T10:20:57.342Z</time></trkpt><trkpt lat="43.3376049" lon="12.9086432"><ele>325.0</ele><time>2026-04-25T10:20:58.333Z</time></trkpt><trkpt lat="43.3375294" lon="12.9086591"><ele>325.0</ele><time>2026-04-25T10:20:59.329Z</time></trkpt><trkpt lat="43.3374577" lon="12.9086732"><ele>325.0</ele><time>2026-04-25T10:21:00.332Z</time></trkpt><trkpt lat="43.3373897" lon="12.9086945"><ele>325.0</ele><time>2026-04-25T10:21:01.325Z</time></trkpt><trkpt lat="43.3373219" lon="12.9087139"><ele>325.0</ele><time>2026-04-25T10:21:02.332Z</time></trkpt><trkpt lat="43.3372504" lon="12.9087367"><ele>325.0</ele><time>2026-04-25T10:21:03.344Z</time></trkpt><trkpt lat="43.3371755" lon="12.9087644"><ele>325.0</ele><time>2026-04-25T10:21:04.342Z</time></trkpt><trkpt lat="43.3370987" lon="12.9087883"><ele>325.0</ele><time>2026-04-25T10:21:05.342Z</time></trkpt><trkpt lat="43.3370261" lon="12.9088157"><ele>325.0</ele><time>2026-04-25T10:21:06.329Z</time></trkpt><trkpt lat="43.3369553" lon="12.9088405"><ele>325.5</ele><time>2026-04-25T10:21:07.343Z</time></trkpt><trkpt lat="43.3368893" lon="12.9088595"><ele>326.0</ele><time>2026-04-25T10:21:08.345Z</time></trkpt><trkpt lat="43.3368244" lon="12.9088835"><ele>326.5</ele><time>2026-04-25T10:21:09.326Z</time></trkpt><trkpt lat="43.3367546" lon="12.9089076"><ele>327.0</ele><time>2026-04-25T10:21:10.34Z</time></trkpt><trkpt lat="43.3366791" lon="12.9089323"><ele>327.5</ele><time>2026-04-25T10:21:11.33Z</time></trkpt><trkpt lat="43.3365934" lon="12.9089632"><ele>328.0</ele><time>2026-04-25T10:21:12.335Z</time></trkpt><trkpt lat="43.336505" lon="12.9089899"><ele>328.0</ele><time>2026-04-25T10:21:13.342Z</time></trkpt><trkpt lat="43.3364098" lon="12.9090196"><ele>328.0</ele><time>2026-04-25T10:21:14.343Z</time></trkpt><trkpt lat="43.3363155" lon="12.9090516"><ele>328.0</ele><time>2026-04-25T10:21:15.321Z</time></trkpt><trkpt lat="43.3362242" lon="12.9090813"><ele>328.0</ele><time>2026-04-25T10:21:16.341Z</time></trkpt><trkpt lat="43.3361351" lon="12.9091067"><ele>328.0</ele><time>2026-04-25T10:21:17.344Z</time></trkpt><trkpt lat="43.3360451" lon="12.9091303"><ele>327.59999999999997</ele><time>2026-04-25T10:21:18.34Z</time></trkpt><trkpt lat="43.3359534" lon="12.9091538"><ele>327.2</ele><time>2026-04-25T10:21:19.34Z</time></trkpt><trkpt lat="43.3358621" lon="12.9091699"><ele>326.8</ele><time>2026-04-25T10:21:20.328Z</time></trkpt><trkpt lat="43.3357714" lon="12.9091786"><ele>326.4</ele><time>2026-04-25T10:21:21.328Z</time></trkpt><trkpt lat="43.3356788" lon="12.9091758"><ele>326.0</ele><time>2026-04-25T10:21:22.333Z</time></trkpt><trkpt lat="43.335589" lon="12.9091651"><ele>326.20000000000005</ele><time>2026-04-25T10:21:23.327Z</time></trkpt><trkpt lat="43.3354987" lon="12.9091476"><ele>326.40000000000003</ele><time>2026-04-25T10:21:24.338Z</time></trkpt><trkpt lat="43.3354081" lon="12.9091202"><ele>326.6</ele><time>2026-04-25T10:21:25.337Z</time></trkpt><trkpt lat="43.3353186" lon="12.9090845"><ele>326.8</ele><time>2026-04-25T10:21:26.345Z</time></trkpt><trkpt lat="43.3352275" lon="12.9090469"><ele>327.0</ele><time>2026-04-25T10:21:27.339Z</time></trkpt><trkpt lat="43.3351379" lon="12.9089986"><ele>327.0</ele><time>2026-04-25T10:21:28.32Z</time></trkpt><trkpt lat="43.335049" lon="12.9089486"><ele>327.0</ele><time>2026-04-25T10:21:29.334Z</time></trkpt><trkpt lat="43.3349598" lon="12.9088895"><ele>327.0</ele><time>2026-04-25T10:21:30.33Z</time></trkpt><trkpt lat="43.3348735" lon="12.9088236"><ele>327.0</ele><time>2026-04-25T10:21:31.333Z</time></trkpt><trkpt lat="43.3347887" lon="12.908753"><ele>327.0</ele><time>2026-04-25T10:21:32.345Z</time></trkpt><trkpt lat="43.3347083" lon="12.9086783"><ele>328.20000000000005</ele><time>2026-04-25T10:21:33.331Z</time></trkpt><trkpt lat="43.3346322" lon="12.9085989"><ele>329.4</ele><time>2026-04-25T10:21:34.344Z</time></trkpt><trkpt lat="43.3345614" lon="12.9085155"><ele>330.6</ele><time>2026-04-25T10:21:35.338Z</time></trkpt><trkpt lat="43.3344934" lon="12.9084279"><ele>331.79999999999995</ele><time>2026-04-25T10:21:36.339Z</time></trkpt><trkpt lat="43.3344325" lon="12.908334"><ele>333.0</ele><time>2026-04-25T10:21:37.336Z</time></trkpt><trkpt lat="43.3343759" lon="12.9082367"><ele>333.0</ele><time>2026-04-25T10:21:38.335Z</time></trkpt><trkpt lat="43.3343272" lon="12.9081434"><ele>333.0</ele><time>2026-04-25T10:21:39.344Z</time></trkpt><trkpt lat="43.3342819" lon="12.9080561"><ele>333.0</ele><time>2026-04-25T10:21:40.342Z</time></trkpt><trkpt lat="43.3342375" lon="12.9079719"><ele>333.0</ele><time>2026-04-25T10:21:41.339Z</time></trkpt><trkpt lat="43.3341963" lon="12.9078835"><ele>333.0</ele><time>2026-04-25T10:21:42.34Z</time></trkpt><trkpt lat="43.3341543" lon="12.9077935"><ele>333.0</ele><time>2026-04-25T10:21:43.344Z</time></trkpt><trkpt lat="43.3341158" lon="12.9077079"><ele>333.0</ele><time>2026-04-25T10:21:44.331Z</time></trkpt><trkpt lat="43.3340818" lon="12.907631"><ele>333.0</ele><time>2026-04-25T10:21:45.328Z</time></trkpt><trkpt lat="43.3340268" lon="12.9075013"><ele>333.0</ele><time>2026-04-25T10:21:47.326Z</time></trkpt><trkpt lat="43.3339813" lon="12.9073997"><ele>333.0</ele><time>2026-04-25T10:21:49.339Z</time></trkpt><trkpt lat="43.3339303" lon="12.9072979"><ele>333.0</ele><time>2026-04-25T10:21:51.341Z</time></trkpt><trkpt lat="43.3338765" lon="12.9071954"><ele>333.0</ele><time>2026-04-25T10:21:53.339Z</time></trkpt><trkpt lat="43.3338236" lon="12.907074"><ele>332.8571428571429</ele><time>2026-04-25T10:21:55.34Z</time></trkpt><trkpt lat="43.3337882" lon="12.9069987"><ele>332.71428571428567</ele><time>2026-04-25T10:21:56.339Z</time></trkpt><trkpt lat="43.3337474" lon="12.9069164"><ele>332.57142857142856</ele><time>2026-04-25T10:21:57.329Z</time></trkpt><trkpt lat="43.3337072" lon="12.9068391"><ele>332.42857142857144</ele><time>2026-04-25T10:21:58.341Z</time></trkpt><trkpt lat="43.3336732" lon="12.9067606"><ele>332.28571428571433</ele><time>2026-04-25T10:21:59.338Z</time></trkpt><trkpt lat="43.3336391" lon="12.9066796"><ele>332.1428571428571</ele><time>2026-04-25T10:22:00.325Z</time></trkpt><trkpt lat="43.3336022" lon="12.9065982"><ele>332.0</ele><time>2026-04-25T10:22:01.343Z</time></trkpt><trkpt lat="43.333558" lon="12.9065148"><ele>332.0</ele><time>2026-04-25T10:22:02.34Z</time></trkpt><trkpt lat="43.333514" lon="12.9064299"><ele>332.0</ele><time>2026-04-25T10:22:03.341Z</time></trkpt><trkpt lat="43.3334716" lon="12.9063424"><ele>332.0</ele><time>2026-04-25T10:22:04.331Z</time></trkpt><trkpt lat="43.3334285" lon="12.9062517"><ele>332.0</ele><time>2026-04-25T10:22:05.344Z</time></trkpt><trkpt lat="43.3333813" lon="12.9061478"><ele>332.0</ele><time>2026-04-25T10:22:06.344Z</time></trkpt><trkpt lat="43.3333318" lon="12.9060398"><ele>332.0</ele><time>2026-04-25T10:22:07.329Z</time></trkpt><trkpt lat="43.3332836" lon="12.9059317"><ele>332.20000000000005</ele><time>2026-04-25T10:22:08.331Z</time></trkpt><trkpt lat="43.333231" lon="12.9058237"><ele>332.4</ele><time>2026-04-25T10:22:09.329Z</time></trkpt><trkpt lat="43.3331812" lon="12.9057134"><ele>332.6</ele><time>2026-04-25T10:22:10.32Z</time></trkpt><trkpt lat="43.3331315" lon="12.9056014"><ele>332.79999999999995</ele><time>2026-04-25T10:22:11.339Z</time></trkpt><trkpt lat="43.3330811" lon="12.9054867"><ele>333.0</ele><time>2026-04-25T10:22:12.343Z</time></trkpt><trkpt lat="43.3330297" lon="12.9053749"><ele>332.79999999999995</ele><time>2026-04-25T10:22:13.345Z</time></trkpt><trkpt lat="43.3329808" lon="12.9052656"><ele>332.6</ele><time>2026-04-25T10:22:14.34Z</time></trkpt><trkpt lat="43.3329306" lon="12.905151"><ele>332.4</ele><time>2026-04-25T10:22:15.337Z</time></trkpt><trkpt lat="43.3328772" lon="12.90503"><ele>332.20000000000005</ele><time>2026-04-25T10:22:16.331Z</time></trkpt><trkpt lat="43.3328233" lon="12.9049132"><ele>332.0</ele><time>2026-04-25T10:22:17.335Z</time></trkpt><trkpt lat="43.3327716" lon="12.9048035"><ele>332.0</ele><time>2026-04-25T10:22:18.344Z</time></trkpt><trkpt lat="43.3327201" lon="12.9046971"><ele>332.0</ele><time>2026-04-25T10:22:19.341Z</time></trkpt><trkpt lat="43.3326684" lon="12.9045862"><ele>332.0</ele><time>2026-04-25T10:22:20.341Z</time></trkpt><trkpt lat="43.3326171" lon="12.9044747"><ele>332.0</ele><time>2026-04-25T10:22:21.339Z</time></trkpt><trkpt lat="43.3325658" lon="12.9043661"><ele>332.0</ele><time>2026-04-25T10:22:22.333Z</time></trkpt><trkpt lat="43.3325158" lon="12.9042578"><ele>332.6</ele><time>2026-04-25T10:22:23.34Z</time></trkpt><trkpt lat="43.3324674" lon="12.9041507"><ele>333.20000000000005</ele><time>2026-04-25T10:22:24.341Z</time></trkpt><trkpt lat="43.3324185" lon="12.9040431"><ele>333.8</ele><time>2026-04-25T10:22:25.342Z</time></trkpt><trkpt lat="43.3323688" lon="12.903936"><ele>334.4</ele><time>2026-04-25T10:22:26.341Z</time></trkpt><trkpt lat="43.3323171" lon="12.9038297"><ele>335.0</ele><time>2026-04-25T10:22:27.343Z</time></trkpt><trkpt lat="43.3322673" lon="12.9037242"><ele>335.33333333333337</ele><time>2026-04-25T10:22:28.34Z</time></trkpt><trkpt lat="43.3322206" lon="12.9036208"><ele>335.6666666666667</ele><time>2026-04-25T10:22:29.342Z</time></trkpt><trkpt lat="43.3321765" lon="12.9035232"><ele>336.0</ele><time>2026-04-25T10:22:30.345Z</time></trkpt><trkpt lat="43.3321361" lon="12.9034303"><ele>336.3333333333333</ele><time>2026-04-25T10:22:31.334Z</time></trkpt><trkpt lat="43.3320995" lon="12.9033424"><ele>336.66666666666663</ele><time>2026-04-25T10:22:32.336Z</time></trkpt><trkpt lat="43.3320659" lon="12.9032626"><ele>337.0</ele><time>2026-04-25T10:22:33.331Z</time></trkpt><trkpt lat="43.3319977" lon="12.9031155"><ele>337.0</ele><time>2026-04-25T10:22:35.341Z</time></trkpt><trkpt lat="43.3319653" lon="12.9030397"><ele>337.0</ele><time>2026-04-25T10:22:36.344Z</time></trkpt><trkpt lat="43.3319342" lon="12.9029634"><ele>337.0</ele><time>2026-04-25T10:22:37.332Z</time></trkpt><trkpt lat="43.3318801" lon="12.9028166"><ele>337.0</ele><time>2026-04-25T10:22:39.331Z</time></trkpt><trkpt lat="43.3318314" lon="12.9026947"><ele>337.0</ele><time>2026-04-25T10:22:41.344Z</time></trkpt><trkpt lat="43.3317882" lon="12.9026021"><ele>337.0</ele><time>2026-04-25T10:22:43.342Z</time></trkpt><trkpt lat="43.3317396" lon="12.9024961"><ele>337.40000000000003</ele><time>2026-04-25T10:22:45.339Z</time></trkpt><trkpt lat="43.3317009" lon="12.9024104"><ele>337.8</ele><time>2026-04-25T10:22:46.341Z</time></trkpt><trkpt lat="43.3316419" lon="12.9023035"><ele>338.2</ele><time>2026-04-25T10:22:47.326Z</time></trkpt><trkpt lat="43.3315709" lon="12.9021765"><ele>338.6</ele><time>2026-04-25T10:22:48.33Z</time></trkpt><trkpt lat="43.3315074" lon="12.9020459"><ele>339.0</ele><time>2026-04-25T10:22:49.341Z</time></trkpt><trkpt lat="43.3314483" lon="12.9019144"><ele>339.0</ele><time>2026-04-25T10:22:50.341Z</time></trkpt><trkpt lat="43.3313928" lon="12.9017824"><ele>339.0</ele><time>2026-04-25T10:22:51.34Z</time></trkpt><trkpt lat="43.331334" lon="12.9016516"><ele>339.0</ele><time>2026-04-25T10:22:52.347Z</time></trkpt><trkpt lat="43.3312761" lon="12.9015246"><ele>339.0</ele><time>2026-04-25T10:22:53.34Z</time></trkpt><trkpt lat="43.3312206" lon="12.9013962"><ele>339.0</ele><time>2026-04-25T10:22:54.338Z</time></trkpt><trkpt lat="43.3311669" lon="12.9012723"><ele>339.79999999999995</ele><time>2026-04-25T10:22:55.332Z</time></trkpt><trkpt lat="43.3311124" lon="12.9011562"><ele>340.59999999999997</ele><time>2026-04-25T10:22:56.34Z</time></trkpt><trkpt lat="43.3310585" lon="12.9010356"><ele>341.4</ele><time>2026-04-25T10:22:57.34Z</time></trkpt><trkpt lat="43.3310054" lon="12.9009169"><ele>342.2</ele><time>2026-04-25T10:22:58.335Z</time></trkpt><trkpt lat="43.3309506" lon="12.9008005"><ele>343.0</ele><time>2026-04-25T10:22:59.328Z</time></trkpt><trkpt lat="43.330901" lon="12.9006885"><ele>343.0</ele><time>2026-04-25T10:23:00.335Z</time></trkpt><trkpt lat="43.3308529" lon="12.9005795"><ele>343.0</ele><time>2026-04-25T10:23:01.332Z</time></trkpt><trkpt lat="43.3308061" lon="12.9004728"><ele>343.0</ele><time>2026-04-25T10:23:02.342Z</time></trkpt><trkpt lat="43.3307566" lon="12.9003673"><ele>343.0</ele><time>2026-04-25T10:23:03.34Z</time></trkpt><trkpt lat="43.3307097" lon="12.9002626"><ele>343.0</ele><time>2026-04-25T10:23:04.324Z</time></trkpt><trkpt lat="43.330663" lon="12.9001555"><ele>343.0</ele><time>2026-04-25T10:23:05.341Z</time></trkpt><trkpt lat="43.3306181" lon="12.9000492"><ele>343.0</ele><time>2026-04-25T10:23:06.344Z</time></trkpt><trkpt lat="43.3305758" lon="12.8999529"><ele>343.0</ele><time>2026-04-25T10:23:07.338Z</time></trkpt><trkpt lat="43.3305332" lon="12.8998596"><ele>343.0</ele><time>2026-04-25T10:23:08.34Z</time></trkpt><trkpt lat="43.3304919" lon="12.899762"><ele>343.0</ele><time>2026-04-25T10:23:09.334Z</time></trkpt><trkpt lat="43.3304525" lon="12.8996637"><ele>343.0</ele><time>2026-04-25T10:23:10.323Z</time></trkpt><trkpt lat="43.3304104" lon="12.8995693"><ele>343.0</ele><time>2026-04-25T10:23:11.33Z</time></trkpt><trkpt lat="43.3303703" lon="12.8994797"><ele>343.0</ele><time>2026-04-25T10:23:12.327Z</time></trkpt><trkpt lat="43.3303319" lon="12.8993939"><ele>343.0</ele><time>2026-04-25T10:23:13.321Z</time></trkpt><trkpt lat="43.3302918" lon="12.8993096"><ele>343.0</ele><time>2026-04-25T10:23:14.339Z</time></trkpt><trkpt lat="43.33025" lon="12.8992293"><ele>343.0</ele><time>2026-04-25T10:23:15.329Z</time></trkpt><trkpt lat="43.3302086" lon="12.8991521"><ele>343.0</ele><time>2026-04-25T10:23:16.329Z</time></trkpt><trkpt lat="43.3301645" lon="12.8990765"><ele>343.0</ele><time>2026-04-25T10:23:17.332Z</time></trkpt><trkpt lat="43.3301195" lon="12.8989973"><ele>342.66666666666663</ele><time>2026-04-25T10:23:18.329Z</time></trkpt><trkpt lat="43.3300699" lon="12.8989179"><ele>342.3333333333333</ele><time>2026-04-25T10:23:19.338Z</time></trkpt><trkpt lat="43.3300166" lon="12.8988353"><ele>342.0</ele><time>2026-04-25T10:23:20.34Z</time></trkpt><trkpt lat="43.3299608" lon="12.8987552"><ele>341.6666666666667</ele><time>2026-04-25T10:23:21.339Z</time></trkpt><trkpt lat="43.3299071" lon="12.8986818"><ele>341.33333333333337</ele><time>2026-04-25T10:23:22.329Z</time></trkpt><trkpt lat="43.3298562" lon="12.8986138"><ele>341.0</ele><time>2026-04-25T10:23:23.329Z</time></trkpt><trkpt lat="43.3298043" lon="12.8985513"><ele>341.0</ele><time>2026-04-25T10:23:24.329Z</time></trkpt><trkpt lat="43.3297478" lon="12.8984896"><ele>341.0</ele><time>2026-04-25T10:23:25.338Z</time></trkpt><trkpt lat="43.3296892" lon="12.8984328"><ele>341.0</ele><time>2026-04-25T10:23:26.338Z</time></trkpt><trkpt lat="43.3296303" lon="12.8983795"><ele>341.0</ele><time>2026-04-25T10:23:27.337Z</time></trkpt><trkpt lat="43.3295689" lon="12.8983224"><ele>341.0</ele><time>2026-04-25T10:23:28.342Z</time></trkpt><trkpt lat="43.3295027" lon="12.8982662"><ele>341.0</ele><time>2026-04-25T10:23:29.314Z</time></trkpt><trkpt lat="43.3294329" lon="12.8982059"><ele>341.0</ele><time>2026-04-25T10:23:30.336Z</time></trkpt><trkpt lat="43.3293688" lon="12.8981522"><ele>340.8</ele><time>2026-04-25T10:23:31.338Z</time></trkpt><trkpt lat="43.3292828" lon="12.8980856"><ele>340.6</ele><time>2026-04-25T10:23:33.323Z</time></trkpt><trkpt lat="43.3292123" lon="12.8980279"><ele>340.4</ele><time>2026-04-25T10:23:35.328Z</time></trkpt><trkpt lat="43.3291248" lon="12.8979515"><ele>340.2</ele><time>2026-04-25T10:23:37.342Z</time></trkpt><trkpt lat="43.3290158" lon="12.8978562"><ele>340.0</ele><time>2026-04-25T10:23:39.343Z</time></trkpt><trkpt lat="43.3289537" lon="12.8978049"><ele>340.66666666666663</ele><time>2026-04-25T10:23:40.333Z</time></trkpt><trkpt lat="43.3288882" lon="12.8977498"><ele>341.3333333333333</ele><time>2026-04-25T10:23:41.341Z</time></trkpt><trkpt lat="43.3288193" lon="12.897696"><ele>342.0</ele><time>2026-04-25T10:23:42.341Z</time></trkpt><trkpt lat="43.3287494" lon="12.8976377"><ele>342.6666666666667</ele><time>2026-04-25T10:23:43.325Z</time></trkpt><trkpt lat="43.3286774" lon="12.8975779"><ele>343.33333333333337</ele><time>2026-04-25T10:23:44.335Z</time></trkpt><trkpt lat="43.3286021" lon="12.8975163"><ele>344.0</ele><time>2026-04-25T10:23:45.341Z</time></trkpt><trkpt lat="43.3285254" lon="12.8974508"><ele>344.0</ele><time>2026-04-25T10:23:46.341Z</time></trkpt><trkpt lat="43.3284448" lon="12.8973779"><ele>344.0</ele><time>2026-04-25T10:23:47.335Z</time></trkpt><trkpt lat="43.3283602" lon="12.897299"><ele>344.0</ele><time>2026-04-25T10:23:48.315Z</time></trkpt><trkpt lat="43.3282731" lon="12.8972227"><ele>344.0</ele><time>2026-04-25T10:23:49.323Z</time></trkpt><trkpt lat="43.3281825" lon="12.8971467"><ele>344.0</ele><time>2026-04-25T10:23:50.325Z</time></trkpt><trkpt lat="43.3280858" lon="12.8970647"><ele>344.25</ele><time>2026-04-25T10:23:51.322Z</time></trkpt><trkpt lat="43.3279874" lon="12.8969785"><ele>344.5</ele><time>2026-04-25T10:23:52.319Z</time></trkpt><trkpt lat="43.3278877" lon="12.8968848"><ele>344.75</ele><time>2026-04-25T10:23:53.323Z</time></trkpt><trkpt lat="43.3277846" lon="12.896777"><ele>345.0</ele><time>2026-04-25T10:23:54.326Z</time></trkpt><trkpt lat="43.3276817" lon="12.8966549"><ele>345.0</ele><time>2026-04-25T10:23:55.327Z</time></trkpt><trkpt lat="43.3275795" lon="12.8965188"><ele>345.0</ele><time>2026-04-25T10:23:56.323Z</time></trkpt><trkpt lat="43.3274798" lon="12.8963807"><ele>345.0</ele><time>2026-04-25T10:23:57.324Z</time></trkpt><trkpt lat="43.327379" lon="12.896244"><ele>345.0</ele><time>2026-04-25T10:23:58.316Z</time></trkpt><trkpt lat="43.3272702" lon="12.8961088"><ele>345.0</ele><time>2026-04-25T10:23:59.323Z</time></trkpt><trkpt lat="43.3271547" lon="12.8959777"><ele>345.0</ele><time>2026-04-25T10:24:00.322Z</time></trkpt><trkpt lat="43.3270322" lon="12.8958471"><ele>345.0</ele><time>2026-04-25T10:24:01.315Z</time></trkpt><trkpt lat="43.3269028" lon="12.8957159"><ele>345.0</ele><time>2026-04-25T10:24:02.329Z</time></trkpt><trkpt lat="43.3267714" lon="12.8955839"><ele>345.0</ele><time>2026-04-25T10:24:03.317Z</time></trkpt><trkpt lat="43.326637" lon="12.8954473"><ele>345.0</ele><time>2026-04-25T10:24:04.319Z</time></trkpt><trkpt lat="43.3265004" lon="12.8953063"><ele>343.6666666666667</ele><time>2026-04-25T10:24:05.327Z</time></trkpt><trkpt lat="43.3263646" lon="12.8951594"><ele>342.33333333333337</ele><time>2026-04-25T10:24:06.331Z</time></trkpt><trkpt lat="43.3262271" lon="12.8950106"><ele>341.0</ele><time>2026-04-25T10:24:07.326Z</time></trkpt><trkpt lat="43.3260897" lon="12.8948579"><ele>341.0</ele><time>2026-04-25T10:24:08.324Z</time></trkpt><trkpt lat="43.3259541" lon="12.8947062"><ele>341.0</ele><time>2026-04-25T10:24:09.323Z</time></trkpt><trkpt lat="43.3258199" lon="12.8945563"><ele>341.0</ele><time>2026-04-25T10:24:10.32Z</time></trkpt><trkpt lat="43.3256862" lon="12.8944097"><ele>341.0</ele><time>2026-04-25T10:24:11.324Z</time></trkpt><trkpt lat="43.325554" lon="12.8942652"><ele>341.0</ele><time>2026-04-25T10:24:12.319Z</time></trkpt><trkpt lat="43.325424" lon="12.8941216"><ele>341.0</ele><time>2026-04-25T10:24:13.322Z</time></trkpt><trkpt lat="43.3252953" lon="12.8939767"><ele>341.0</ele><time>2026-04-25T10:24:14.319Z</time></trkpt><trkpt lat="43.3251665" lon="12.8938331"><ele>341.0</ele><time>2026-04-25T10:24:15.314Z</time></trkpt><trkpt lat="43.3250394" lon="12.8936918"><ele>341.0</ele><time>2026-04-25T10:24:16.314Z</time></trkpt><trkpt lat="43.3249135" lon="12.8935516"><ele>341.0</ele><time>2026-04-25T10:24:17.318Z</time></trkpt><trkpt lat="43.324789" lon="12.8934153"><ele>341.0</ele><time>2026-04-25T10:24:18.317Z</time></trkpt><trkpt lat="43.3246661" lon="12.8932823"><ele>341.0</ele><time>2026-04-25T10:24:19.315Z</time></trkpt><trkpt lat="43.3245465" lon="12.8931515"><ele>341.0</ele><time>2026-04-25T10:24:20.316Z</time></trkpt><trkpt lat="43.3244261" lon="12.8930215"><ele>341.0</ele><time>2026-04-25T10:24:21.322Z</time></trkpt><trkpt lat="43.3243066" lon="12.8928933"><ele>341.0</ele><time>2026-04-25T10:24:22.315Z</time></trkpt><trkpt lat="43.3241906" lon="12.8927686"><ele>341.0</ele><time>2026-04-25T10:24:23.325Z</time></trkpt><trkpt lat="43.3240772" lon="12.8926484"><ele>341.0</ele><time>2026-04-25T10:24:24.314Z</time></trkpt><trkpt lat="43.3239641" lon="12.8925326"><ele>341.0</ele><time>2026-04-25T10:24:25.318Z</time></trkpt><trkpt lat="43.3238511" lon="12.8924116"><ele>341.0</ele><time>2026-04-25T10:24:26.315Z</time></trkpt><trkpt lat="43.3237381" lon="12.8922879"><ele>340.5</ele><time>2026-04-25T10:24:27.315Z</time></trkpt><trkpt lat="43.3236241" lon="12.8921648"><ele>340.0</ele><time>2026-04-25T10:24:28.319Z</time></trkpt><trkpt lat="43.3235055" lon="12.8920447"><ele>339.5</ele><time>2026-04-25T10:24:29.319Z</time></trkpt><trkpt lat="43.3233858" lon="12.8919262"><ele>339.0</ele><time>2026-04-25T10:24:30.325Z</time></trkpt><trkpt lat="43.3232696" lon="12.8918025"><ele>339.0</ele><time>2026-04-25T10:24:31.323Z</time></trkpt><trkpt lat="43.3231547" lon="12.8916772"><ele>339.0</ele><time>2026-04-25T10:24:32.326Z</time></trkpt><trkpt lat="43.3230413" lon="12.8915562"><ele>339.0</ele><time>2026-04-25T10:24:33.326Z</time></trkpt><trkpt lat="43.3229312" lon="12.8914351"><ele>339.0</ele><time>2026-04-25T10:24:34.319Z</time></trkpt><trkpt lat="43.3228294" lon="12.8913095"><ele>339.0</ele><time>2026-04-25T10:24:35.317Z</time></trkpt><trkpt lat="43.3227395" lon="12.8911692"><ele>339.0</ele><time>2026-04-25T10:24:36.323Z</time></trkpt><trkpt lat="43.3226611" lon="12.891011"><ele>339.0</ele><time>2026-04-25T10:24:37.326Z</time></trkpt><trkpt lat="43.3225967" lon="12.8908495"><ele>339.0</ele><time>2026-04-25T10:24:38.323Z</time></trkpt><trkpt lat="43.3225395" lon="12.8906881"><ele>339.0</ele><time>2026-04-25T10:24:39.316Z</time></trkpt><trkpt lat="43.3224836" lon="12.8905357"><ele>339.0</ele><time>2026-04-25T10:24:40.325Z</time></trkpt><trkpt lat="43.3224275" lon="12.8903861"><ele>339.0</ele><time>2026-04-25T10:24:41.323Z</time></trkpt><trkpt lat="43.3223682" lon="12.8902353"><ele>339.0</ele><time>2026-04-25T10:24:42.326Z</time></trkpt><trkpt lat="43.3223077" lon="12.890082"><ele>339.0</ele><time>2026-04-25T10:24:43.322Z</time></trkpt><trkpt lat="43.3222487" lon="12.8899262"><ele>339.0</ele><time>2026-04-25T10:24:44.322Z</time></trkpt><trkpt lat="43.32219" lon="12.8897673"><ele>339.0</ele><time>2026-04-25T10:24:45.321Z</time></trkpt><trkpt lat="43.3221323" lon="12.889604"><ele>339.0</ele><time>2026-04-25T10:24:46.324Z</time></trkpt><trkpt lat="43.322077" lon="12.8894365"><ele>338.3333333333333</ele><time>2026-04-25T10:24:47.324Z</time></trkpt><trkpt lat="43.3220194" lon="12.8892577"><ele>337.66666666666663</ele><time>2026-04-25T10:24:48.325Z</time></trkpt><trkpt lat="43.3219564" lon="12.8890608"><ele>337.0</ele><time>2026-04-25T10:24:49.323Z</time></trkpt><trkpt lat="43.3218832" lon="12.8888472"><ele>337.0</ele><time>2026-04-25T10:24:50.326Z</time></trkpt><trkpt lat="43.3218074" lon="12.8886217"><ele>337.0</ele><time>2026-04-25T10:24:51.325Z</time></trkpt><trkpt lat="43.3217289" lon="12.8883868"><ele>337.0</ele><time>2026-04-25T10:24:52.327Z</time></trkpt><trkpt lat="43.321649" lon="12.8881478"><ele>337.66666666666663</ele><time>2026-04-25T10:24:53.322Z</time></trkpt><trkpt lat="43.3215666" lon="12.8879222"><ele>338.3333333333333</ele><time>2026-04-25T10:24:54.324Z</time></trkpt><trkpt lat="43.3214907" lon="12.8877112"><ele>339.0</ele><time>2026-04-25T10:24:55.32Z</time></trkpt><trkpt lat="43.3214217" lon="12.8875107"><ele>341.0</ele><time>2026-04-25T10:24:56.315Z</time></trkpt><trkpt lat="43.32136" lon="12.887324"><ele>343.0</ele><time>2026-04-25T10:24:57.325Z</time></trkpt><trkpt lat="43.321305" lon="12.8871436"><ele>345.0</ele><time>2026-04-25T10:24:58.321Z</time></trkpt><trkpt lat="43.321256" lon="12.8869651"><ele>347.0</ele><time>2026-04-25T10:24:59.322Z</time></trkpt><trkpt lat="43.3212071" lon="12.8867784"><ele>346.0</ele><time>2026-04-25T10:25:00.324Z</time></trkpt><trkpt lat="43.3211517" lon="12.8865697"><ele>345.0</ele><time>2026-04-25T10:25:01.315Z</time></trkpt><trkpt lat="43.3210858" lon="12.8863338"><ele>344.0</ele><time>2026-04-25T10:25:02.33Z</time></trkpt><trkpt lat="43.3210119" lon="12.8860585"><ele>345.5</ele><time>2026-04-25T10:25:03.326Z</time></trkpt><trkpt lat="43.3209314" lon="12.8857535"><ele>347.0</ele><time>2026-04-25T10:25:04.324Z</time></trkpt><trkpt lat="43.3208343" lon="12.8854275"><ele>347.0</ele><time>2026-04-25T10:25:05.323Z</time></trkpt><trkpt lat="43.3207302" lon="12.8851061"><ele>347.0</ele><time>2026-04-25T10:25:06.316Z</time></trkpt><trkpt lat="43.3206283" lon="12.8847949"><ele>346.0</ele><time>2026-04-25T10:25:07.327Z</time></trkpt><trkpt lat="43.3205252" lon="12.884489"><ele>345.0</ele><time>2026-04-25T10:25:08.319Z</time></trkpt><trkpt lat="43.320421" lon="12.8841829"><ele>344.5</ele><time>2026-04-25T10:25:09.324Z</time></trkpt><trkpt lat="43.3203162" lon="12.8838801"><ele>344.0</ele><time>2026-04-25T10:25:10.317Z</time></trkpt><trkpt lat="43.3202101" lon="12.8835792"><ele>347.5</ele><time>2026-04-25T10:25:11.322Z</time></trkpt><trkpt lat="43.3201053" lon="12.883279"><ele>351.0</ele><time>2026-04-25T10:25:12.331Z</time></trkpt><trkpt lat="43.3200038" lon="12.8829791"><ele>351.0</ele><time>2026-04-25T10:25:13.317Z</time></trkpt><trkpt lat="43.3199068" lon="12.882679"><ele>351.0</ele><time>2026-04-25T10:25:14.317Z</time></trkpt><trkpt lat="43.3198142" lon="12.8823831"><ele>348.0</ele><time>2026-04-25T10:25:15.322Z</time></trkpt><trkpt lat="43.3197255" lon="12.8820932"><ele>345.0</ele><time>2026-04-25T10:25:16.323Z</time></trkpt><trkpt lat="43.3196392" lon="12.8818036"><ele>347.0</ele><time>2026-04-25T10:25:17.323Z</time></trkpt><trkpt lat="43.3195624" lon="12.8815024"><ele>349.0</ele><time>2026-04-25T10:25:18.315Z</time></trkpt><trkpt lat="43.3195002" lon="12.8811954"><ele>349.0</ele><time>2026-04-25T10:25:19.315Z</time></trkpt><trkpt lat="43.319445" lon="12.8808987"><ele>349.0</ele><time>2026-04-25T10:25:20.315Z</time></trkpt><trkpt lat="43.3193933" lon="12.8806159"><ele>349.0</ele><time>2026-04-25T10:25:21.315Z</time></trkpt><trkpt lat="43.3193432" lon="12.8803487"><ele>349.0</ele><time>2026-04-25T10:25:22.328Z</time></trkpt><trkpt lat="43.3192889" lon="12.8801057"><ele>349.0</ele><time>2026-04-25T10:25:23.322Z</time></trkpt><trkpt lat="43.3192279" lon="12.8798673"><ele>349.0</ele><time>2026-04-25T10:25:24.323Z</time></trkpt><trkpt lat="43.3191344" lon="12.8796347"><ele>350.66666666666663</ele><time>2026-04-25T10:25:25.321Z</time></trkpt><trkpt lat="43.319009" lon="12.8794282"><ele>352.3333333333333</ele><time>2026-04-25T10:25:26.316Z</time></trkpt><trkpt lat="43.3188561" lon="12.879259"><ele>354.0</ele><time>2026-04-25T10:25:27.324Z</time></trkpt><trkpt lat="43.3187108" lon="12.8791121"><ele>354.3333333333333</ele><time>2026-04-25T10:25:28.314Z</time></trkpt><trkpt lat="43.318588" lon="12.8789642"><ele>354.66666666666663</ele><time>2026-04-25T10:25:29.325Z</time></trkpt><trkpt lat="43.3184969" lon="12.8787932"><ele>355.0</ele><time>2026-04-25T10:25:30.315Z</time></trkpt><trkpt lat="43.3184304" lon="12.878586"><ele>355.3333333333333</ele><time>2026-04-25T10:25:31.324Z</time></trkpt><trkpt lat="43.3183774" lon="12.8783316"><ele>355.6666666666667</ele><time>2026-04-25T10:25:32.314Z</time></trkpt><trkpt lat="43.3183243" lon="12.8780479"><ele>356.0</ele><time>2026-04-25T10:25:33.326Z</time></trkpt><trkpt lat="43.3182697" lon="12.8777418"><ele>359.0</ele><time>2026-04-25T10:25:34.326Z</time></trkpt><trkpt lat="43.318217" lon="12.8774387"><ele>362.0</ele><time>2026-04-25T10:25:35.317Z</time></trkpt><trkpt lat="43.3181654" lon="12.8771353"><ele>362.0</ele><time>2026-04-25T10:25:36.323Z</time></trkpt><trkpt lat="43.3181143" lon="12.8768264"><ele>362.0</ele><time>2026-04-25T10:25:37.324Z</time></trkpt><trkpt lat="43.3180672" lon="12.8765307"><ele>360.0</ele><time>2026-04-25T10:25:38.318Z</time></trkpt><trkpt lat="43.3180262" lon="12.8762533"><ele>358.0</ele><time>2026-04-25T10:25:39.325Z</time></trkpt><trkpt lat="43.3180036" lon="12.8759776"><ele>356.0</ele><time>2026-04-25T10:25:40.318Z</time></trkpt><trkpt lat="43.3179997" lon="12.875694"><ele>355.5</ele><time>2026-04-25T10:25:41.314Z</time></trkpt><trkpt lat="43.3180104" lon="12.8753926"><ele>355.0</ele><time>2026-04-25T10:25:42.326Z</time></trkpt><trkpt lat="43.3180241" lon="12.8750719"><ele>357.5</ele><time>2026-04-25T10:25:43.323Z</time></trkpt><trkpt lat="43.3180322" lon="12.8747425"><ele>360.0</ele><time>2026-04-25T10:25:44.321Z</time></trkpt><trkpt lat="43.318029" lon="12.8744017"><ele>360.0</ele><time>2026-04-25T10:25:45.321Z</time></trkpt><trkpt lat="43.318006" lon="12.8740661"><ele>360.0</ele><time>2026-04-25T10:25:46.323Z</time></trkpt><trkpt lat="43.3179667" lon="12.8737496"><ele>360.0</ele><time>2026-04-25T10:25:47.312Z</time></trkpt><trkpt lat="43.3179056" lon="12.873452"><ele>360.0</ele><time>2026-04-25T10:25:48.312Z</time></trkpt><trkpt lat="43.3178286" lon="12.8731824"><ele>360.0</ele><time>2026-04-25T10:25:49.313Z</time></trkpt><trkpt lat="43.317741" lon="12.8729425"><ele>360.0</ele><time>2026-04-25T10:25:50.314Z</time></trkpt><trkpt lat="43.3176481" lon="12.8727353"><ele>360.0</ele><time>2026-04-25T10:25:51.316Z</time></trkpt><trkpt lat="43.317563" lon="12.8725426"><ele>360.0</ele><time>2026-04-25T10:25:52.326Z</time></trkpt><trkpt lat="43.3175009" lon="12.8723406"><ele>360.0</ele><time>2026-04-25T10:25:53.315Z</time></trkpt><trkpt lat="43.3174727" lon="12.8721181"><ele>360.0</ele><time>2026-04-25T10:25:54.324Z</time></trkpt><trkpt lat="43.3174891" lon="12.8718753"><ele>360.0</ele><time>2026-04-25T10:25:55.326Z</time></trkpt><trkpt lat="43.3175373" lon="12.8716388"><ele>361.0</ele><time>2026-04-25T10:25:56.314Z</time></trkpt><trkpt lat="43.3176196" lon="12.8714031"><ele>362.0</ele><time>2026-04-25T10:25:57.314Z</time></trkpt><trkpt lat="43.3176957" lon="12.8711534"><ele>363.0</ele><time>2026-04-25T10:25:58.317Z</time></trkpt><trkpt lat="43.3177445" lon="12.8708829"><ele>363.3333333333333</ele><time>2026-04-25T10:25:59.324Z</time></trkpt><trkpt lat="43.3177666" lon="12.8705902"><ele>363.66666666666663</ele><time>2026-04-25T10:26:00.326Z</time></trkpt><trkpt lat="43.3177719" lon="12.870295"><ele>364.0</ele><time>2026-04-25T10:26:01.327Z</time></trkpt><trkpt lat="43.3177707" lon="12.8700155"><ele>364.0</ele><time>2026-04-25T10:26:02.33Z</time></trkpt><trkpt lat="43.3177809" lon="12.8697526"><ele>364.0</ele><time>2026-04-25T10:26:03.319Z</time></trkpt><trkpt lat="43.3178129" lon="12.8694984"><ele>364.0</ele><time>2026-04-25T10:26:04.325Z</time></trkpt><trkpt lat="43.3178598" lon="12.8692484"><ele>363.3333333333333</ele><time>2026-04-25T10:26:05.316Z</time></trkpt><trkpt lat="43.3179176" lon="12.869003"><ele>362.6666666666667</ele><time>2026-04-25T10:26:06.327Z</time></trkpt><trkpt lat="43.3179645" lon="12.8687529"><ele>362.0</ele><time>2026-04-25T10:26:07.325Z</time></trkpt><trkpt lat="43.3179809" lon="12.868501"><ele>362.0</ele><time>2026-04-25T10:26:08.326Z</time></trkpt><trkpt lat="43.3179641" lon="12.8682534"><ele>362.0</ele><time>2026-04-25T10:26:09.32Z</time></trkpt><trkpt lat="43.3179195" lon="12.868029"><ele>362.0</ele><time>2026-04-25T10:26:10.317Z</time></trkpt><trkpt lat="43.317862" lon="12.8678236"><ele>362.6666666666667</ele><time>2026-04-25T10:26:11.323Z</time></trkpt><trkpt lat="43.3178145" lon="12.8676036"><ele>363.3333333333333</ele><time>2026-04-25T10:26:12.327Z</time></trkpt><trkpt lat="43.3177864" lon="12.8673539"><ele>364.0</ele><time>2026-04-25T10:26:13.319Z</time></trkpt><trkpt lat="43.3177736" lon="12.8670665"><ele>364.3333333333333</ele><time>2026-04-25T10:26:14.318Z</time></trkpt><trkpt lat="43.3177567" lon="12.8667681"><ele>364.6666666666667</ele><time>2026-04-25T10:26:15.324Z</time></trkpt><trkpt lat="43.3177214" lon="12.8664776"><ele>365.0</ele><time>2026-04-25T10:26:16.323Z</time></trkpt><trkpt lat="43.3176578" lon="12.866209"><ele>365.0</ele><time>2026-04-25T10:26:17.32Z</time></trkpt><trkpt lat="43.3175677" lon="12.8659544"><ele>365.0</ele><time>2026-04-25T10:26:18.323Z</time></trkpt><trkpt lat="43.317463" lon="12.8657171"><ele>365.0</ele><time>2026-04-25T10:26:19.322Z</time></trkpt><trkpt lat="43.3173573" lon="12.8654892"><ele>365.25</ele><time>2026-04-25T10:26:20.314Z</time></trkpt><trkpt lat="43.3172618" lon="12.8652908"><ele>365.5</ele><time>2026-04-25T10:26:21.319Z</time></trkpt><trkpt lat="43.3171861" lon="12.8651215"><ele>365.75</ele><time>2026-04-25T10:26:22.325Z</time></trkpt><trkpt lat="43.3171201" lon="12.8649669"><ele>366.0</ele><time>2026-04-25T10:26:23.323Z</time></trkpt><trkpt lat="43.3170601" lon="12.864825"><ele>368.0</ele><time>2026-04-25T10:26:24.316Z</time></trkpt><trkpt lat="43.3170042" lon="12.8646875"><ele>370.0</ele><time>2026-04-25T10:26:25.313Z</time></trkpt><trkpt lat="43.3169472" lon="12.864555"><ele>372.0</ele><time>2026-04-25T10:26:26.321Z</time></trkpt><trkpt lat="43.3168873" lon="12.8644179"><ele>374.0</ele><time>2026-04-25T10:26:27.314Z</time></trkpt><trkpt lat="43.3168265" lon="12.864282"><ele>374.0</ele><time>2026-04-25T10:26:28.312Z</time></trkpt><trkpt lat="43.3167679" lon="12.86415"><ele>374.0</ele><time>2026-04-25T10:26:29.322Z</time></trkpt><trkpt lat="43.3167094" lon="12.8640206"><ele>374.0</ele><time>2026-04-25T10:26:30.323Z</time></trkpt><trkpt lat="43.3166521" lon="12.8639"><ele>374.0</ele><time>2026-04-25T10:26:31.327Z</time></trkpt><trkpt lat="43.3165954" lon="12.8637905"><ele>374.0</ele><time>2026-04-25T10:26:32.328Z</time></trkpt><trkpt lat="43.3165332" lon="12.8636872"><ele>374.0</ele><time>2026-04-25T10:26:33.319Z</time></trkpt><trkpt lat="43.316454" lon="12.8635967"><ele>374.0</ele><time>2026-04-25T10:26:34.323Z</time></trkpt><trkpt lat="43.3163633" lon="12.8635215"><ele>374.0</ele><time>2026-04-25T10:26:35.316Z</time></trkpt><trkpt lat="43.3162696" lon="12.8634691"><ele>374.0</ele><time>2026-04-25T10:26:36.312Z</time></trkpt><trkpt lat="43.3161705" lon="12.8634396"><ele>374.0</ele><time>2026-04-25T10:26:37.317Z</time></trkpt><trkpt lat="43.316073" lon="12.8634213"><ele>374.2</ele><time>2026-04-25T10:26:38.314Z</time></trkpt><trkpt lat="43.3159687" lon="12.8634227"><ele>374.4</ele><time>2026-04-25T10:26:39.314Z</time></trkpt><trkpt lat="43.3158547" lon="12.8634439"><ele>374.6</ele><time>2026-04-25T10:26:40.315Z</time></trkpt><trkpt lat="43.3157413" lon="12.8634722"><ele>374.8</ele><time>2026-04-25T10:26:41.319Z</time></trkpt><trkpt lat="43.3156297" lon="12.863499"><ele>375.0</ele><time>2026-04-25T10:26:42.327Z</time></trkpt><trkpt lat="43.3155154" lon="12.8635201"><ele>375.0</ele><time>2026-04-25T10:26:43.317Z</time></trkpt><trkpt lat="43.3153966" lon="12.8635424"><ele>375.0</ele><time>2026-04-25T10:26:44.321Z</time></trkpt><trkpt lat="43.315278" lon="12.8635633"><ele>375.0</ele><time>2026-04-25T10:26:45.321Z</time></trkpt><trkpt lat="43.3151615" lon="12.8635831"><ele>375.0</ele><time>2026-04-25T10:26:46.321Z</time></trkpt><trkpt lat="43.3150497" lon="12.8636007"><ele>375.0</ele><time>2026-04-25T10:26:47.325Z</time></trkpt><trkpt lat="43.3149382" lon="12.8636146"><ele>375.0</ele><time>2026-04-25T10:26:48.32Z</time></trkpt><trkpt lat="43.3148278" lon="12.8636157"><ele>375.0</ele><time>2026-04-25T10:26:49.319Z</time></trkpt><trkpt lat="43.314722" lon="12.8635997"><ele>375.0</ele><time>2026-04-25T10:26:50.322Z</time></trkpt><trkpt lat="43.3146217" lon="12.863572"><ele>375.0</ele><time>2026-04-25T10:26:51.322Z</time></trkpt><trkpt lat="43.3145253" lon="12.86353"><ele>375.2</ele><time>2026-04-25T10:26:52.321Z</time></trkpt><trkpt lat="43.314433" lon="12.863474"><ele>375.4</ele><time>2026-04-25T10:26:53.32Z</time></trkpt><trkpt lat="43.3143518" lon="12.8634032"><ele>375.6</ele><time>2026-04-25T10:26:54.317Z</time></trkpt><trkpt lat="43.3142747" lon="12.8633231"><ele>375.8</ele><time>2026-04-25T10:26:55.313Z</time></trkpt><trkpt lat="43.3142064" lon="12.86323"><ele>376.0</ele><time>2026-04-25T10:26:56.319Z</time></trkpt><trkpt lat="43.314151" lon="12.8631297"><ele>376.0</ele><time>2026-04-25T10:26:57.313Z</time></trkpt><trkpt lat="43.3141084" lon="12.8630283"><ele>376.0</ele><time>2026-04-25T10:26:58.321Z</time></trkpt><trkpt lat="43.3140744" lon="12.8629211"><ele>376.0</ele><time>2026-04-25T10:26:59.322Z</time></trkpt><trkpt lat="43.3140468" lon="12.8628043"><ele>376.0</ele><time>2026-04-25T10:27:00.32Z</time></trkpt><trkpt lat="43.3140275" lon="12.8626916"><ele>376.0</ele><time>2026-04-25T10:27:01.317Z</time></trkpt><trkpt lat="43.3140144" lon="12.8625895"><ele>376.0</ele><time>2026-04-25T10:27:02.315Z</time></trkpt><trkpt lat="43.3140003" lon="12.8624944"><ele>376.0</ele><time>2026-04-25T10:27:03.325Z</time></trkpt><trkpt lat="43.3139897" lon="12.8624027"><ele>376.0</ele><time>2026-04-25T10:27:04.315Z</time></trkpt><trkpt lat="43.313978" lon="12.8622929"><ele>376.0</ele><time>2026-04-25T10:27:05.324Z</time></trkpt><trkpt lat="43.3139584" lon="12.8621408"><ele>376.0</ele><time>2026-04-25T10:27:06.324Z</time></trkpt><trkpt lat="43.3139222" lon="12.8619445"><ele>376.0</ele><time>2026-04-25T10:27:07.318Z</time></trkpt><trkpt lat="43.3138625" lon="12.861718"><ele>376.0</ele><time>2026-04-25T10:27:08.323Z</time></trkpt><trkpt lat="43.3137927" lon="12.8614952"><ele>376.0</ele><time>2026-04-25T10:27:09.324Z</time></trkpt><trkpt lat="43.3137013" lon="12.8612707"><ele>376.0</ele><time>2026-04-25T10:27:10.313Z</time></trkpt><trkpt lat="43.3135931" lon="12.8610381"><ele>376.3333333333333</ele><time>2026-04-25T10:27:11.321Z</time></trkpt><trkpt lat="43.3134788" lon="12.8608259"><ele>376.6666666666667</ele><time>2026-04-25T10:27:12.328Z</time></trkpt><trkpt lat="43.313371" lon="12.8606408"><ele>377.0</ele><time>2026-04-25T10:27:13.324Z</time></trkpt><trkpt lat="43.3132701" lon="12.8604719"><ele>377.0</ele><time>2026-04-25T10:27:14.32Z</time></trkpt><trkpt lat="43.3131847" lon="12.8603165"><ele>377.0</ele><time>2026-04-25T10:27:15.318Z</time></trkpt><trkpt lat="43.3131133" lon="12.8601554"><ele>377.0</ele><time>2026-04-25T10:27:16.316Z</time></trkpt><trkpt lat="43.3130509" lon="12.8599753"><ele>377.0</ele><time>2026-04-25T10:27:17.321Z</time></trkpt><trkpt lat="43.3129788" lon="12.8597912"><ele>376.33333333333337</ele><time>2026-04-25T10:27:18.321Z</time></trkpt><trkpt lat="43.3128814" lon="12.8596285"><ele>375.6666666666667</ele><time>2026-04-25T10:27:19.323Z</time></trkpt><trkpt lat="43.3127555" lon="12.8594912"><ele>375.0</ele><time>2026-04-25T10:27:20.313Z</time></trkpt><trkpt lat="43.3126106" lon="12.8593707"><ele>375.3333333333333</ele><time>2026-04-25T10:27:21.323Z</time></trkpt><trkpt lat="43.3124538" lon="12.8592513"><ele>375.66666666666663</ele><time>2026-04-25T10:27:22.318Z</time></trkpt><trkpt lat="43.3122967" lon="12.8591196"><ele>376.0</ele><time>2026-04-25T10:27:23.32Z</time></trkpt><trkpt lat="43.3121388" lon="12.8589679"><ele>376.0</ele><time>2026-04-25T10:27:24.322Z</time></trkpt><trkpt lat="43.3119763" lon="12.8587934"><ele>376.0</ele><time>2026-04-25T10:27:25.322Z</time></trkpt><trkpt lat="43.3118115" lon="12.8586044"><ele>376.0</ele><time>2026-04-25T10:27:26.32Z</time></trkpt><trkpt lat="43.3116472" lon="12.8584109"><ele>377.5</ele><time>2026-04-25T10:27:27.322Z</time></trkpt><trkpt lat="43.3114704" lon="12.8582002"><ele>379.0</ele><time>2026-04-25T10:27:28.32Z</time></trkpt><trkpt lat="43.3112925" lon="12.8579898"><ele>379.0</ele><time>2026-04-25T10:27:29.309Z</time></trkpt><trkpt lat="43.3111224" lon="12.857804"><ele>379.0</ele><time>2026-04-25T10:27:30.325Z</time></trkpt><trkpt lat="43.3109596" lon="12.8576408"><ele>379.0</ele><time>2026-04-25T10:27:31.317Z</time></trkpt><trkpt lat="43.3108085" lon="12.8574811"><ele>380.0</ele><time>2026-04-25T10:27:32.324Z</time></trkpt><trkpt lat="43.3106682" lon="12.8573131"><ele>381.0</ele><time>2026-04-25T10:27:33.321Z</time></trkpt><trkpt lat="43.3105378" lon="12.8571439"><ele>382.0</ele><time>2026-04-25T10:27:34.318Z</time></trkpt><trkpt lat="43.3104299" lon="12.8569744"><ele>382.75</ele><time>2026-04-25T10:27:35.318Z</time></trkpt><trkpt lat="43.3103495" lon="12.8568129"><ele>383.5</ele><time>2026-04-25T10:27:36.318Z</time></trkpt><trkpt lat="43.3102967" lon="12.8566516"><ele>384.25</ele><time>2026-04-25T10:27:37.324Z</time></trkpt><trkpt lat="43.3102784" lon="12.8564723"><ele>385.0</ele><time>2026-04-25T10:27:38.316Z</time></trkpt><trkpt lat="43.3102903" lon="12.8562562"><ele>385.0</ele><time>2026-04-25T10:27:39.313Z</time></trkpt><trkpt lat="43.3103052" lon="12.8560173"><ele>385.0</ele><time>2026-04-25T10:27:40.314Z</time></trkpt><trkpt lat="43.3102916" lon="12.8557758"><ele>385.0</ele><time>2026-04-25T10:27:41.316Z</time></trkpt><trkpt lat="43.3102588" lon="12.8555309"><ele>386.33333333333337</ele><time>2026-04-25T10:27:42.323Z</time></trkpt><trkpt lat="43.3102077" lon="12.855275"><ele>387.66666666666663</ele><time>2026-04-25T10:27:43.321Z</time></trkpt><trkpt lat="43.3101501" lon="12.8550002"><ele>389.0</ele><time>2026-04-25T10:27:44.324Z</time></trkpt><trkpt lat="43.3100928" lon="12.8547114"><ele>389.0</ele><time>2026-04-25T10:27:45.315Z</time></trkpt><trkpt lat="43.310037" lon="12.8544192"><ele>389.0</ele><time>2026-04-25T10:27:46.322Z</time></trkpt><trkpt lat="43.3099793" lon="12.8541223"><ele>389.0</ele><time>2026-04-25T10:27:47.324Z</time></trkpt><trkpt lat="43.3099208" lon="12.8538168"><ele>390.5</ele><time>2026-04-25T10:27:48.314Z</time></trkpt><trkpt lat="43.3098625" lon="12.8535047"><ele>392.0</ele><time>2026-04-25T10:27:49.322Z</time></trkpt><trkpt lat="43.3098023" lon="12.8531902"><ele>391.5</ele><time>2026-04-25T10:27:50.313Z</time></trkpt><trkpt lat="43.3097395" lon="12.8528707"><ele>391.0</ele><time>2026-04-25T10:27:51.324Z</time></trkpt><trkpt lat="43.3096762" lon="12.8525472"><ele>390.5</ele><time>2026-04-25T10:27:52.326Z</time></trkpt><trkpt lat="43.3096142" lon="12.8522249"><ele>390.0</ele><time>2026-04-25T10:27:53.322Z</time></trkpt><trkpt lat="43.3095523" lon="12.8519142"><ele>390.5</ele><time>2026-04-25T10:27:54.322Z</time></trkpt><trkpt lat="43.3094933" lon="12.8516096"><ele>391.0</ele><time>2026-04-25T10:27:55.322Z</time></trkpt><trkpt lat="43.3094344" lon="12.8513035"><ele>391.0</ele><time>2026-04-25T10:27:56.324Z</time></trkpt><trkpt lat="43.3093723" lon="12.8509961"><ele>391.0</ele><time>2026-04-25T10:27:57.324Z</time></trkpt><trkpt lat="43.3093061" lon="12.8506947"><ele>392.0</ele><time>2026-04-25T10:27:58.313Z</time></trkpt><trkpt lat="43.3092329" lon="12.8503888"><ele>393.0</ele><time>2026-04-25T10:27:59.317Z</time></trkpt><trkpt lat="43.309154" lon="12.8500862"><ele>396.0</ele><time>2026-04-25T10:28:00.319Z</time></trkpt><trkpt lat="43.3090672" lon="12.8497885"><ele>399.0</ele><time>2026-04-25T10:28:01.322Z</time></trkpt><trkpt lat="43.3089729" lon="12.8494974"><ele>396.5</ele><time>2026-04-25T10:28:02.329Z</time></trkpt><trkpt lat="43.3088707" lon="12.8492154"><ele>394.0</ele><time>2026-04-25T10:28:03.315Z</time></trkpt><trkpt lat="43.3087661" lon="12.8489454"><ele>394.0</ele><time>2026-04-25T10:28:04.322Z</time></trkpt><trkpt lat="43.3086613" lon="12.8486895"><ele>394.0</ele><time>2026-04-25T10:28:05.321Z</time></trkpt><trkpt lat="43.3085552" lon="12.8484475"><ele>394.0</ele><time>2026-04-25T10:28:06.316Z</time></trkpt><trkpt lat="43.3084456" lon="12.8482222"><ele>396.0</ele><time>2026-04-25T10:28:07.323Z</time></trkpt><trkpt lat="43.3083291" lon="12.8480155"><ele>398.0</ele><time>2026-04-25T10:28:08.325Z</time></trkpt><trkpt lat="43.3082086" lon="12.8478198"><ele>400.0</ele><time>2026-04-25T10:28:09.324Z</time></trkpt><trkpt lat="43.3080805" lon="12.8476198"><ele>399.0</ele><time>2026-04-25T10:28:10.317Z</time></trkpt><trkpt lat="43.3079438" lon="12.8473991"><ele>398.0</ele><time>2026-04-25T10:28:11.32Z</time></trkpt><trkpt lat="43.3078035" lon="12.8471706"><ele>397.0</ele><time>2026-04-25T10:28:12.323Z</time></trkpt><trkpt lat="43.3076613" lon="12.8469433"><ele>398.6666666666667</ele><time>2026-04-25T10:28:13.321Z</time></trkpt><trkpt lat="43.3075229" lon="12.8467173"><ele>400.33333333333337</ele><time>2026-04-25T10:28:14.318Z</time></trkpt><trkpt lat="43.3073896" lon="12.8464923"><ele>402.0</ele><time>2026-04-25T10:28:15.312Z</time></trkpt><trkpt lat="43.3072596" lon="12.8462576"><ele>402.0</ele><time>2026-04-25T10:28:16.321Z</time></trkpt><trkpt lat="43.3071319" lon="12.8460215"><ele>402.0</ele><time>2026-04-25T10:28:17.312Z</time></trkpt><trkpt lat="43.3070014" lon="12.8457857"><ele>402.0</ele><time>2026-04-25T10:28:18.313Z</time></trkpt><trkpt lat="43.3068606" lon="12.8455576"><ele>402.0</ele><time>2026-04-25T10:28:19.315Z</time></trkpt><trkpt lat="43.3067117" lon="12.8453378"><ele>402.0</ele><time>2026-04-25T10:28:20.314Z</time></trkpt><trkpt lat="43.306557" lon="12.8451201"><ele>402.0</ele><time>2026-04-25T10:28:21.313Z</time></trkpt><trkpt lat="43.3063969" lon="12.8449018"><ele>402.0</ele><time>2026-04-25T10:28:22.324Z</time></trkpt><trkpt lat="43.3062358" lon="12.844678"><ele>402.0</ele><time>2026-04-25T10:28:23.314Z</time></trkpt><trkpt lat="43.3060733" lon="12.8444553"><ele>402.33333333333337</ele><time>2026-04-25T10:28:24.316Z</time></trkpt><trkpt lat="43.305915" lon="12.8442396"><ele>402.6666666666667</ele><time>2026-04-25T10:28:25.322Z</time></trkpt><trkpt lat="43.3057614" lon="12.8440305"><ele>403.0</ele><time>2026-04-25T10:28:26.319Z</time></trkpt><trkpt lat="43.3056113" lon="12.84382"><ele>403.0</ele><time>2026-04-25T10:28:27.313Z</time></trkpt><trkpt lat="43.3054605" lon="12.8436128"><ele>403.0</ele><time>2026-04-25T10:28:28.323Z</time></trkpt><trkpt lat="43.3053049" lon="12.8434171"><ele>403.0</ele><time>2026-04-25T10:28:29.321Z</time></trkpt><trkpt lat="43.3051404" lon="12.8432373"><ele>403.0</ele><time>2026-04-25T10:28:30.323Z</time></trkpt><trkpt lat="43.3049657" lon="12.8430796"><ele>403.0</ele><time>2026-04-25T10:28:31.324Z</time></trkpt><trkpt lat="43.3047852" lon="12.8429397"><ele>403.0</ele><time>2026-04-25T10:28:32.315Z</time></trkpt><trkpt lat="43.3045998" lon="12.8428167"><ele>402.6666666666667</ele><time>2026-04-25T10:28:33.316Z</time></trkpt><trkpt lat="43.304408" lon="12.8427091"><ele>402.33333333333337</ele><time>2026-04-25T10:28:34.318Z</time></trkpt><trkpt lat="43.3042152" lon="12.842619"><ele>402.0</ele><time>2026-04-25T10:28:35.322Z</time></trkpt><trkpt lat="43.3040318" lon="12.8425451"><ele>401.33333333333337</ele><time>2026-04-25T10:28:36.322Z</time></trkpt><trkpt lat="43.3038629" lon="12.8424751"><ele>400.6666666666667</ele><time>2026-04-25T10:28:37.324Z</time></trkpt><trkpt lat="43.3037008" lon="12.8423938"><ele>400.0</ele><time>2026-04-25T10:28:38.316Z</time></trkpt><trkpt lat="43.3035517" lon="12.8422944"><ele>400.0</ele><time>2026-04-25T10:28:39.318Z</time></trkpt><trkpt lat="43.3034169" lon="12.8421777"><ele>400.0</ele><time>2026-04-25T10:28:40.32Z</time></trkpt><trkpt lat="43.3033015" lon="12.8420528"><ele>400.0</ele><time>2026-04-25T10:28:41.324Z</time></trkpt><trkpt lat="43.303204" lon="12.8419068"><ele>402.33333333333337</ele><time>2026-04-25T10:28:42.322Z</time></trkpt><trkpt lat="43.3031132" lon="12.8417365"><ele>404.66666666666663</ele><time>2026-04-25T10:28:43.321Z</time></trkpt><trkpt lat="43.30302" lon="12.8415447"><ele>407.0</ele><time>2026-04-25T10:28:44.323Z</time></trkpt><trkpt lat="43.3029173" lon="12.8413416"><ele>407.0</ele><time>2026-04-25T10:28:45.324Z</time></trkpt><trkpt lat="43.3028108" lon="12.8411341"><ele>407.0</ele><time>2026-04-25T10:28:46.322Z</time></trkpt><trkpt lat="43.3027014" lon="12.8409229"><ele>407.0</ele><time>2026-04-25T10:28:47.325Z</time></trkpt><trkpt lat="43.3025907" lon="12.8407095"><ele>408.3333333333333</ele><time>2026-04-25T10:28:48.323Z</time></trkpt><trkpt lat="43.3024787" lon="12.840499"><ele>409.66666666666663</ele><time>2026-04-25T10:28:49.324Z</time></trkpt><trkpt lat="43.3023652" lon="12.8402946"><ele>411.0</ele><time>2026-04-25T10:28:50.326Z</time></trkpt><trkpt lat="43.302253" lon="12.8401063"><ele>412.66666666666663</ele><time>2026-04-25T10:28:51.323Z</time></trkpt><trkpt lat="43.3021458" lon="12.839932"><ele>414.3333333333333</ele><time>2026-04-25T10:28:52.316Z</time></trkpt><trkpt lat="43.3020388" lon="12.8397768"><ele>416.0</ele><time>2026-04-25T10:28:53.323Z</time></trkpt><trkpt lat="43.3019278" lon="12.8396369"><ele>416.0</ele><time>2026-04-25T10:28:54.323Z</time></trkpt><trkpt lat="43.3018032" lon="12.8395117"><ele>416.0</ele><time>2026-04-25T10:28:55.325Z</time></trkpt><trkpt lat="43.3016685" lon="12.8394027"><ele>416.0</ele><time>2026-04-25T10:28:56.327Z</time></trkpt><trkpt lat="43.3015359" lon="12.8393107"><ele>417.5</ele><time>2026-04-25T10:28:57.327Z</time></trkpt><trkpt lat="43.3014052" lon="12.8392258"><ele>419.0</ele><time>2026-04-25T10:28:58.325Z</time></trkpt><trkpt lat="43.3012787" lon="12.8391473"><ele>420.5</ele><time>2026-04-25T10:28:59.315Z</time></trkpt><trkpt lat="43.3011572" lon="12.8390797"><ele>422.0</ele><time>2026-04-25T10:29:00.329Z</time></trkpt><trkpt lat="43.3010454" lon="12.8390163"><ele>422.0</ele><time>2026-04-25T10:29:01.328Z</time></trkpt><trkpt lat="43.3009446" lon="12.8389582"><ele>422.0</ele><time>2026-04-25T10:29:02.33Z</time></trkpt><trkpt lat="43.3008545" lon="12.8389025"><ele>422.0</ele><time>2026-04-25T10:29:03.325Z</time></trkpt><trkpt lat="43.3007737" lon="12.8388484"><ele>422.0</ele><time>2026-04-25T10:29:04.318Z</time></trkpt><trkpt lat="43.3007013" lon="12.8387819"><ele>422.0</ele><time>2026-04-25T10:29:05.326Z</time></trkpt><trkpt lat="43.3006366" lon="12.8386994"><ele>422.0</ele><time>2026-04-25T10:29:06.328Z</time></trkpt><trkpt lat="43.3005884" lon="12.8385804"><ele>422.0</ele><time>2026-04-25T10:29:07.317Z</time></trkpt><trkpt lat="43.3005564" lon="12.8384286"><ele>422.0</ele><time>2026-04-25T10:29:08.315Z</time></trkpt><trkpt lat="43.3005292" lon="12.8382547"><ele>422.0</ele><time>2026-04-25T10:29:09.314Z</time></trkpt><trkpt lat="43.3005055" lon="12.8380867"><ele>421.20000000000005</ele><time>2026-04-25T10:29:10.316Z</time></trkpt><trkpt lat="43.3004802" lon="12.8379329"><ele>420.4</ele><time>2026-04-25T10:29:11.326Z</time></trkpt><trkpt lat="43.3004446" lon="12.8377911"><ele>419.6</ele><time>2026-04-25T10:29:12.313Z</time></trkpt><trkpt lat="43.3004" lon="12.8376516"><ele>418.79999999999995</ele><time>2026-04-25T10:29:13.32Z</time></trkpt><trkpt lat="43.3003543" lon="12.8375125"><ele>418.0</ele><time>2026-04-25T10:29:14.319Z</time></trkpt><trkpt lat="43.3003088" lon="12.8373764"><ele>418.0</ele><time>2026-04-25T10:29:15.324Z</time></trkpt><trkpt lat="43.3002701" lon="12.8372475"><ele>418.0</ele><time>2026-04-25T10:29:16.326Z</time></trkpt><trkpt lat="43.3002442" lon="12.8371173"><ele>418.0</ele><time>2026-04-25T10:29:17.328Z</time></trkpt><trkpt lat="43.3002327" lon="12.8369769"><ele>418.0</ele><time>2026-04-25T10:29:18.324Z</time></trkpt><trkpt lat="43.3002398" lon="12.8368162"><ele>418.0</ele><time>2026-04-25T10:29:19.324Z</time></trkpt><trkpt lat="43.3002569" lon="12.8366284"><ele>418.6666666666667</ele><time>2026-04-25T10:29:20.315Z</time></trkpt><trkpt lat="43.3002821" lon="12.8364176"><ele>419.33333333333337</ele><time>2026-04-25T10:29:21.322Z</time></trkpt><trkpt lat="43.3003136" lon="12.836183"><ele>420.0</ele><time>2026-04-25T10:29:22.327Z</time></trkpt><trkpt lat="43.3003534" lon="12.8359059"><ele>420.5</ele><time>2026-04-25T10:29:23.327Z</time></trkpt><trkpt lat="43.3004014" lon="12.8355737"><ele>421.0</ele><time>2026-04-25T10:29:24.324Z</time></trkpt><trkpt lat="43.3004489" lon="12.8351957"><ele>422.0</ele><time>2026-04-25T10:29:25.326Z</time></trkpt><trkpt lat="43.3004989" lon="12.8348123"><ele>423.0</ele><time>2026-04-25T10:29:26.33Z</time></trkpt><trkpt lat="43.30054" lon="12.8344459"><ele>424.5</ele><time>2026-04-25T10:29:27.328Z</time></trkpt><trkpt lat="43.3005652" lon="12.8341082"><ele>426.0</ele><time>2026-04-25T10:29:28.327Z</time></trkpt><trkpt lat="43.3005677" lon="12.8338094"><ele>426.0</ele><time>2026-04-25T10:29:29.321Z</time></trkpt><trkpt lat="43.3005272" lon="12.8335493"><ele>426.0</ele><time>2026-04-25T10:29:30.321Z</time></trkpt><trkpt lat="43.3004526" lon="12.8332844"><ele>426.0</ele><time>2026-04-25T10:29:31.321Z</time></trkpt><trkpt lat="43.3003533" lon="12.8330081"><ele>427.66666666666663</ele><time>2026-04-25T10:29:32.326Z</time></trkpt><trkpt lat="43.3002395" lon="12.8327394"><ele>429.3333333333333</ele><time>2026-04-25T10:29:33.325Z</time></trkpt><trkpt lat="43.3001416" lon="12.8325107"><ele>431.0</ele><time>2026-04-25T10:29:34.329Z</time></trkpt><trkpt lat="43.3000713" lon="12.8323166"><ele>433.0</ele><time>2026-04-25T10:29:35.317Z</time></trkpt><trkpt lat="43.3000356" lon="12.8321352"><ele>435.0</ele><time>2026-04-25T10:29:36.326Z</time></trkpt><trkpt lat="43.3000468" lon="12.8319643"><ele>437.0</ele><time>2026-04-25T10:29:37.323Z</time></trkpt><trkpt lat="43.3000984" lon="12.8318007"><ele>439.0</ele><time>2026-04-25T10:29:38.323Z</time></trkpt><trkpt lat="43.3001823" lon="12.8316841"><ele>439.0</ele><time>2026-04-25T10:29:39.32Z</time></trkpt><trkpt lat="43.300308" lon="12.8316286"><ele>439.0</ele><time>2026-04-25T10:29:40.325Z</time></trkpt><trkpt lat="43.3004454" lon="12.8316309"><ele>439.0</ele><time>2026-04-25T10:29:41.33Z</time></trkpt><trkpt lat="43.3005756" lon="12.8316922"><ele>439.0</ele><time>2026-04-25T10:29:42.328Z</time></trkpt><trkpt lat="43.3006991" lon="12.831791"><ele>442.0</ele><time>2026-04-25T10:29:43.327Z</time></trkpt><trkpt lat="43.3008134" lon="12.8318721"><ele>445.0</ele><time>2026-04-25T10:29:44.315Z</time></trkpt><trkpt lat="43.3009156" lon="12.8319128"><ele>448.0</ele><time>2026-04-25T10:29:45.317Z</time></trkpt><trkpt lat="43.3010095" lon="12.8319126"><ele>451.0</ele><time>2026-04-25T10:29:46.328Z</time></trkpt><trkpt lat="43.301102" lon="12.8318805"><ele>454.0</ele><time>2026-04-25T10:29:47.325Z</time></trkpt><trkpt lat="43.3011962" lon="12.831819"><ele>453.5</ele><time>2026-04-25T10:29:48.325Z</time></trkpt><trkpt lat="43.3012937" lon="12.8317262"><ele>453.0</ele><time>2026-04-25T10:29:49.321Z</time></trkpt><trkpt lat="43.3013791" lon="12.8315944"><ele>452.5</ele><time>2026-04-25T10:29:50.324Z</time></trkpt><trkpt lat="43.3014427" lon="12.8314172"><ele>452.0</ele><time>2026-04-25T10:29:51.331Z</time></trkpt><trkpt lat="43.3014901" lon="12.8312141"><ele>452.5</ele><time>2026-04-25T10:29:52.328Z</time></trkpt><trkpt lat="43.301517" lon="12.8310337"><ele>453.0</ele><time>2026-04-25T10:29:53.318Z</time></trkpt><trkpt lat="43.3015132" lon="12.830887"><ele>453.5</ele><time>2026-04-25T10:29:54.334Z</time></trkpt><trkpt lat="43.3014702" lon="12.8307487"><ele>454.0</ele><time>2026-04-25T10:29:55.317Z</time></trkpt><trkpt lat="43.3013735" lon="12.8306055"><ele>454.0</ele><time>2026-04-25T10:29:56.332Z</time></trkpt><trkpt lat="43.3012292" lon="12.8304394"><ele>454.0</ele><time>2026-04-25T10:29:57.324Z</time></trkpt><trkpt lat="43.3010876" lon="12.8302744"><ele>454.0</ele><time>2026-04-25T10:29:58.321Z</time></trkpt><trkpt lat="43.3009697" lon="12.8301185"><ele>456.25</ele><time>2026-04-25T10:29:59.33Z</time></trkpt><trkpt lat="43.3008839" lon="12.8299654"><ele>458.5</ele><time>2026-04-25T10:30:00.325Z</time></trkpt><trkpt lat="43.300836" lon="12.8297815"><ele>460.75</ele><time>2026-04-25T10:30:01.323Z</time></trkpt><trkpt lat="43.3008266" lon="12.8295636"><ele>463.0</ele><time>2026-04-25T10:30:02.326Z</time></trkpt><trkpt lat="43.3008446" lon="12.8293242"><ele>465.33333333333337</ele><time>2026-04-25T10:30:03.314Z</time></trkpt><trkpt lat="43.3008862" lon="12.8290834"><ele>467.66666666666663</ele><time>2026-04-25T10:30:04.317Z</time></trkpt><trkpt lat="43.300937" lon="12.8288484"><ele>470.0</ele><time>2026-04-25T10:30:05.314Z</time></trkpt><trkpt lat="43.3009965" lon="12.8286397"><ele>468.75</ele><time>2026-04-25T10:30:06.318Z</time></trkpt><trkpt lat="43.3010623" lon="12.8284606"><ele>467.5</ele><time>2026-04-25T10:30:07.329Z</time></trkpt><trkpt lat="43.3011497" lon="12.8283089"><ele>466.25</ele><time>2026-04-25T10:30:08.329Z</time></trkpt><trkpt lat="43.3012444" lon="12.8281719"><ele>465.0</ele><time>2026-04-25T10:30:09.314Z</time></trkpt><trkpt lat="43.3013981" lon="12.8280251"><ele>473.66666666666663</ele><time>2026-04-25T10:30:10.33Z</time></trkpt><trkpt lat="43.3015466" lon="12.8278897"><ele>482.3333333333333</ele><time>2026-04-25T10:30:11.323Z</time></trkpt><trkpt lat="43.3016949" lon="12.8277694"><ele>491.0</ele><time>2026-04-25T10:30:12.317Z</time></trkpt><trkpt lat="43.3018496" lon="12.8276633"><ele>492.0</ele><time>2026-04-25T10:30:13.326Z</time></trkpt><trkpt lat="43.3020048" lon="12.827566"><ele>493.0</ele><time>2026-04-25T10:30:14.327Z</time></trkpt><trkpt lat="43.3021593" lon="12.827467"><ele>494.0</ele><time>2026-04-25T10:30:15.326Z</time></trkpt><trkpt lat="43.3023122" lon="12.8273804"><ele>494.0</ele><time>2026-04-25T10:30:16.326Z</time></trkpt><trkpt lat="43.3024522" lon="12.8273096"><ele>494.0</ele><time>2026-04-25T10:30:17.32Z</time></trkpt><trkpt lat="43.3025715" lon="12.8272414"><ele>494.0</ele><time>2026-04-25T10:30:18.326Z</time></trkpt><trkpt lat="43.3026733" lon="12.8271537"><ele>494.0</ele><time>2026-04-25T10:30:19.326Z</time></trkpt><trkpt lat="43.3027506" lon="12.8270531"><ele>494.0</ele><time>2026-04-25T10:30:20.319Z</time></trkpt><trkpt lat="43.302813" lon="12.8269671"><ele>494.0</ele><time>2026-04-25T10:30:21.316Z</time></trkpt><trkpt lat="43.3028801" lon="12.8269241"><ele>494.0</ele><time>2026-04-25T10:30:22.329Z</time></trkpt><trkpt lat="43.3029699" lon="12.8269175"><ele>494.0</ele><time>2026-04-25T10:30:23.327Z</time></trkpt><trkpt lat="43.3030865" lon="12.826932"><ele>494.0</ele><time>2026-04-25T10:30:24.316Z</time></trkpt><trkpt lat="43.303221" lon="12.8269465"><ele>494.66666666666663</ele><time>2026-04-25T10:30:25.324Z</time></trkpt><trkpt lat="43.3033684" lon="12.8269329"><ele>495.33333333333337</ele><time>2026-04-25T10:30:26.316Z</time></trkpt><trkpt lat="43.3035182" lon="12.8268813"><ele>496.0</ele><time>2026-04-25T10:30:27.316Z</time></trkpt><trkpt lat="43.3036626" lon="12.8267782"><ele>496.0</ele><time>2026-04-25T10:30:28.323Z</time></trkpt><trkpt lat="43.3037929" lon="12.8266286"><ele>496.0</ele><time>2026-04-25T10:30:29.328Z</time></trkpt><trkpt lat="43.3039131" lon="12.8264469"><ele>496.0</ele><time>2026-04-25T10:30:30.32Z</time></trkpt><trkpt lat="43.3040216" lon="12.8262705"><ele>499.33333333333337</ele><time>2026-04-25T10:30:31.324Z</time></trkpt><trkpt lat="43.3041431" lon="12.8261116"><ele>502.66666666666663</ele><time>2026-04-25T10:30:32.317Z</time></trkpt><trkpt lat="43.3042912" lon="12.8259715"><ele>506.0</ele><time>2026-04-25T10:30:33.321Z</time></trkpt><trkpt lat="43.3044585" lon="12.8258418"><ele>506.0</ele><time>2026-04-25T10:30:34.321Z</time></trkpt><trkpt lat="43.3046181" lon="12.8257303"><ele>506.0</ele><time>2026-04-25T10:30:35.322Z</time></trkpt><trkpt lat="43.3047597" lon="12.8256247"><ele>506.0</ele><time>2026-04-25T10:30:36.324Z</time></trkpt><trkpt lat="43.3048701" lon="12.8255207"><ele>508.75</ele><time>2026-04-25T10:30:37.322Z</time></trkpt><trkpt lat="43.3049594" lon="12.825413"><ele>511.5</ele><time>2026-04-25T10:30:38.316Z</time></trkpt><trkpt lat="43.3050424" lon="12.8252918"><ele>514.25</ele><time>2026-04-25T10:30:39.314Z</time></trkpt><trkpt lat="43.3051274" lon="12.8251657"><ele>517.0</ele><time>2026-04-25T10:30:40.324Z</time></trkpt><trkpt lat="43.3052241" lon="12.8250656"><ele>517.0</ele><time>2026-04-25T10:30:41.314Z</time></trkpt><trkpt lat="43.305349" lon="12.8249934"><ele>517.0</ele><time>2026-04-25T10:30:42.328Z</time></trkpt><trkpt lat="43.3055056" lon="12.8249254"><ele>517.0</ele><time>2026-04-25T10:30:43.317Z</time></trkpt><trkpt lat="43.3056844" lon="12.8248607"><ele>517.6666666666667</ele><time>2026-04-25T10:30:44.318Z</time></trkpt><trkpt lat="43.3058734" lon="12.8247979"><ele>518.3333333333334</ele><time>2026-04-25T10:30:45.319Z</time></trkpt><trkpt lat="43.3060903" lon="12.8247024"><ele>519.0</ele><time>2026-04-25T10:30:46.319Z</time></trkpt><trkpt lat="43.3063456" lon="12.8245994"><ele>516.5</ele><time>2026-04-25T10:30:47.318Z</time></trkpt><trkpt lat="43.3066041" lon="12.8244966"><ele>514.0</ele><time>2026-04-25T10:30:48.321Z</time></trkpt><trkpt lat="43.3068474" lon="12.8243897"><ele>514.5</ele><time>2026-04-25T10:30:49.327Z</time></trkpt><trkpt lat="43.3070692" lon="12.824293"><ele>515.0</ele><time>2026-04-25T10:30:50.327Z</time></trkpt><trkpt lat="43.3072838" lon="12.824208"><ele>510.3333333333333</ele><time>2026-04-25T10:30:51.321Z</time></trkpt><trkpt lat="43.3074998" lon="12.8241593"><ele>505.66666666666663</ele><time>2026-04-25T10:30:52.326Z</time></trkpt><trkpt lat="43.3077137" lon="12.8241521"><ele>501.0</ele><time>2026-04-25T10:30:53.317Z</time></trkpt><trkpt lat="43.3079198" lon="12.8241794"><ele>503.0</ele><time>2026-04-25T10:30:54.327Z</time></trkpt><trkpt lat="43.3081199" lon="12.8242254"><ele>505.0</ele><time>2026-04-25T10:30:55.316Z</time></trkpt><trkpt lat="43.3083105" lon="12.8242916"><ele>507.0</ele><time>2026-04-25T10:30:56.325Z</time></trkpt><trkpt lat="43.3084941" lon="12.8243798"><ele>507.0</ele><time>2026-04-25T10:30:57.32Z</time></trkpt><trkpt lat="43.3086683" lon="12.8244965"><ele>507.0</ele><time>2026-04-25T10:30:58.317Z</time></trkpt><trkpt lat="43.3088367" lon="12.8246368"><ele>507.0</ele><time>2026-04-25T10:30:59.316Z</time></trkpt><trkpt lat="43.3090038" lon="12.8247962"><ele>504.0</ele><time>2026-04-25T10:31:00.327Z</time></trkpt><trkpt lat="43.3091611" lon="12.8249759"><ele>501.0</ele><time>2026-04-25T10:31:01.327Z</time></trkpt><trkpt lat="43.3093031" lon="12.8251832"><ele>498.0</ele><time>2026-04-25T10:31:02.327Z</time></trkpt><trkpt lat="43.3094235" lon="12.825413"><ele>498.0</ele><time>2026-04-25T10:31:03.324Z</time></trkpt><trkpt lat="43.3095215" lon="12.8256672"><ele>498.0</ele><time>2026-04-25T10:31:04.326Z</time></trkpt><trkpt lat="43.3096037" lon="12.825928"><ele>498.0</ele><time>2026-04-25T10:31:05.326Z</time></trkpt><trkpt lat="43.3096769" lon="12.8261944"><ele>497.0</ele><time>2026-04-25T10:31:06.325Z</time></trkpt><trkpt lat="43.309734" lon="12.826453"><ele>496.0</ele><time>2026-04-25T10:31:07.324Z</time></trkpt><trkpt lat="43.3097845" lon="12.8267049"><ele>495.0</ele><time>2026-04-25T10:31:08.32Z</time></trkpt><trkpt lat="43.3098332" lon="12.8269434"><ele>486.33333333333337</ele><time>2026-04-25T10:31:09.322Z</time></trkpt><trkpt lat="43.3098803" lon="12.8271676"><ele>477.6666666666667</ele><time>2026-04-25T10:31:10.319Z</time></trkpt><trkpt lat="43.3099277" lon="12.8273702"><ele>469.0</ele><time>2026-04-25T10:31:11.316Z</time></trkpt><trkpt lat="43.3099615" lon="12.8275386"><ele>469.6</ele><time>2026-04-25T10:31:12.324Z</time></trkpt><trkpt lat="43.3099932" lon="12.8276754"><ele>470.2</ele><time>2026-04-25T10:31:13.328Z</time></trkpt><trkpt lat="43.3100125" lon="12.8277732"><ele>470.80000000000007</ele><time>2026-04-25T10:31:14.328Z</time></trkpt><trkpt lat="43.3100652" lon="12.8278745"><ele>471.40000000000003</ele><time>2026-04-25T10:31:16.32Z</time></trkpt><trkpt lat="43.3101439" lon="12.8278516"><ele>472.0</ele><time>2026-04-25T10:31:18.328Z</time></trkpt><trkpt lat="43.3102666" lon="12.8277224"><ele>471.40000000000003</ele><time>2026-04-25T10:31:20.321Z</time></trkpt><trkpt lat="43.3103541" lon="12.8276193"><ele>470.80000000000007</ele><time>2026-04-25T10:31:21.33Z</time></trkpt><trkpt lat="43.3104427" lon="12.8275171"><ele>470.2</ele><time>2026-04-25T10:31:22.329Z</time></trkpt><trkpt lat="43.310523" lon="12.8274299"><ele>469.6</ele><time>2026-04-25T10:31:23.323Z</time></trkpt><trkpt lat="43.3105987" lon="12.8273649"><ele>469.0</ele><time>2026-04-25T10:31:24.318Z</time></trkpt><trkpt lat="43.3106589" lon="12.8273316"><ele>468.4</ele><time>2026-04-25T10:31:25.325Z</time></trkpt><trkpt lat="43.3107223" lon="12.8273442"><ele>467.79999999999995</ele><time>2026-04-25T10:31:27.327Z</time></trkpt><trkpt lat="43.3107216" lon="12.8271914"><ele>467.20000000000005</ele><time>2026-04-25T10:31:30.325Z</time></trkpt><trkpt lat="43.3107021" lon="12.8270682"><ele>466.6</ele><time>2026-04-25T10:31:31.326Z</time></trkpt><trkpt lat="43.3106741" lon="12.8269033"><ele>466.0</ele><time>2026-04-25T10:31:32.32Z</time></trkpt><trkpt lat="43.3106449" lon="12.8267155"><ele>466.75</ele><time>2026-04-25T10:31:33.333Z</time></trkpt><trkpt lat="43.3106145" lon="12.8265394"><ele>467.5</ele><time>2026-04-25T10:31:34.316Z</time></trkpt><trkpt lat="43.310593" lon="12.8263767"><ele>468.25</ele><time>2026-04-25T10:31:35.323Z</time></trkpt><trkpt lat="43.3105786" lon="12.8262372"><ele>469.0</ele><time>2026-04-25T10:31:36.319Z</time></trkpt><trkpt lat="43.3105733" lon="12.8260969"><ele>469.6</ele><time>2026-04-25T10:31:37.325Z</time></trkpt><trkpt lat="43.3105799" lon="12.8259634"><ele>470.2</ele><time>2026-04-25T10:31:38.318Z</time></trkpt><trkpt lat="43.3106061" lon="12.8258465"><ele>470.80000000000007</ele><time>2026-04-25T10:31:39.324Z</time></trkpt><trkpt lat="43.3106398" lon="12.8257386"><ele>471.40000000000003</ele><time>2026-04-25T10:31:40.32Z</time></trkpt><trkpt lat="43.310669" lon="12.825641"><ele>472.0</ele><time>2026-04-25T10:31:41.326Z</time></trkpt><trkpt lat="43.3107117" lon="12.8255017"><ele>472.0</ele><time>2026-04-25T10:31:43.322Z</time></trkpt><trkpt lat="43.3106783" lon="12.825384"><ele>472.00000000000006</ele><time>2026-04-25T10:31:45.326Z</time></trkpt><trkpt lat="43.3106263" lon="12.8252673"><ele>472.00000000000006</ele><time>2026-04-25T10:31:47.328Z</time></trkpt><trkpt lat="43.3106587" lon="12.8251019"><ele>472.0</ele><time>2026-04-25T10:31:49.327Z</time></trkpt><trkpt lat="43.3107316" lon="12.8249974"><ele>472.0</ele><time>2026-04-25T10:31:50.32Z</time></trkpt><trkpt lat="43.3107925" lon="12.8248985"><ele>472.00000000000006</ele><time>2026-04-25T10:31:51.329Z</time></trkpt><trkpt lat="43.310864" lon="12.8248078"><ele>472.0</ele><time>2026-04-25T10:31:52.33Z</time></trkpt><trkpt lat="43.3109012" lon="12.8246971"><ele>472.0</ele><time>2026-04-25T10:31:53.328Z</time></trkpt><trkpt lat="43.3109183" lon="12.8245843"><ele>472.0</ele><time>2026-04-25T10:31:54.325Z</time></trkpt><trkpt lat="43.3109182" lon="12.8244878"><ele>472.00000000000006</ele><time>2026-04-25T10:31:55.327Z</time></trkpt><trkpt lat="43.3108478" lon="12.8243813"><ele>472.0</ele><time>2026-04-25T10:31:57.325Z</time></trkpt><trkpt lat="43.3107794" lon="12.8243744"><ele>472.0</ele><time>2026-04-25T10:31:58.321Z</time></trkpt><trkpt lat="43.3106804" lon="12.8244069"><ele>472.00000000000006</ele><time>2026-04-25T10:31:59.314Z</time></trkpt><trkpt lat="43.3105648" lon="12.824449"><ele>472.00000000000006</ele><time>2026-04-25T10:32:00.319Z</time></trkpt><trkpt lat="43.3104482" lon="12.8244835"><ele>472.0</ele><time>2026-04-25T10:32:01.328Z</time></trkpt><trkpt lat="43.3103455" lon="12.8244898"><ele>472.0</ele><time>2026-04-25T10:32:02.329Z</time></trkpt><trkpt lat="43.3102481" lon="12.8244541"><ele>471.75</ele><time>2026-04-25T10:32:03.326Z</time></trkpt><trkpt lat="43.3101539" lon="12.8243888"><ele>471.5</ele><time>2026-04-25T10:32:04.323Z</time></trkpt><trkpt lat="43.3100696" lon="12.8242882"><ele>471.25</ele><time>2026-04-25T10:32:05.326Z</time></trkpt><trkpt lat="43.3099957" lon="12.8241425"><ele>471.0</ele><time>2026-04-25T10:32:06.318Z</time></trkpt><trkpt lat="43.3099178" lon="12.8239813"><ele>472.75</ele><time>2026-04-25T10:32:07.327Z</time></trkpt><trkpt lat="43.3098444" lon="12.8238103"><ele>474.5</ele><time>2026-04-25T10:32:08.325Z</time></trkpt><trkpt lat="43.309774" lon="12.8236477"><ele>476.25</ele><time>2026-04-25T10:32:09.331Z</time></trkpt><trkpt lat="43.3096991" lon="12.8235104"><ele>478.0</ele><time>2026-04-25T10:32:10.314Z</time></trkpt><trkpt lat="43.3096048" lon="12.8234371"><ele>481.0</ele><time>2026-04-25T10:32:11.326Z</time></trkpt><trkpt lat="43.3094806" lon="12.8234236"><ele>484.0</ele><time>2026-04-25T10:32:12.325Z</time></trkpt><trkpt lat="43.3093482" lon="12.8234302"><ele>487.0</ele><time>2026-04-25T10:32:13.331Z</time></trkpt><trkpt lat="43.3092245" lon="12.8234326"><ele>490.0</ele><time>2026-04-25T10:32:14.318Z</time></trkpt><trkpt lat="43.3091017" lon="12.8234101"><ele>490.0</ele><time>2026-04-25T10:32:15.329Z</time></trkpt><trkpt lat="43.3089802" lon="12.8233528"><ele>490.0</ele><time>2026-04-25T10:32:16.325Z</time></trkpt><trkpt lat="43.308859" lon="12.8232533"><ele>490.0</ele><time>2026-04-25T10:32:17.319Z</time></trkpt><trkpt lat="43.3087431" lon="12.8231298"><ele>490.0</ele><time>2026-04-25T10:32:18.321Z</time></trkpt><trkpt lat="43.3086229" lon="12.8230258"><ele>491.0</ele><time>2026-04-25T10:32:19.328Z</time></trkpt><trkpt lat="43.3084836" lon="12.8229567"><ele>492.0</ele><time>2026-04-25T10:32:20.321Z</time></trkpt><trkpt lat="43.3083291" lon="12.8229254"><ele>493.0</ele><time>2026-04-25T10:32:21.325Z</time></trkpt><trkpt lat="43.3081695" lon="12.8229323"><ele>497.6666666666667</ele><time>2026-04-25T10:32:22.324Z</time></trkpt><trkpt lat="43.3080195" lon="12.8229966"><ele>502.33333333333337</ele><time>2026-04-25T10:32:23.33Z</time></trkpt><trkpt lat="43.3078877" lon="12.8231067"><ele>507.0</ele><time>2026-04-25T10:32:24.326Z</time></trkpt><trkpt lat="43.3077557" lon="12.823255"><ele>507.0</ele><time>2026-04-25T10:32:25.315Z</time></trkpt><trkpt lat="43.3076069" lon="12.8234108"><ele>507.0</ele><time>2026-04-25T10:32:26.324Z</time></trkpt><trkpt lat="43.3074495" lon="12.823568"><ele>507.0</ele><time>2026-04-25T10:32:27.325Z</time></trkpt><trkpt lat="43.3072937" lon="12.8237227"><ele>509.0</ele><time>2026-04-25T10:32:28.324Z</time></trkpt><trkpt lat="43.3071548" lon="12.823861"><ele>511.0</ele><time>2026-04-25T10:32:29.317Z</time></trkpt><trkpt lat="43.3070317" lon="12.8239759"><ele>513.0</ele><time>2026-04-25T10:32:30.328Z</time></trkpt><trkpt lat="43.3069179" lon="12.8240504"><ele>515.0</ele><time>2026-04-25T10:32:31.327Z</time></trkpt><trkpt lat="43.3067984" lon="12.8240892"><ele>515.0</ele><time>2026-04-25T10:32:32.326Z</time></trkpt><trkpt lat="43.3066624" lon="12.8240976"><ele>515.0</ele><time>2026-04-25T10:32:33.323Z</time></trkpt><trkpt lat="43.3065149" lon="12.824094"><ele>515.0</ele><time>2026-04-25T10:32:34.326Z</time></trkpt><trkpt lat="43.3063642" lon="12.8241104"><ele>515.0</ele><time>2026-04-25T10:32:35.326Z</time></trkpt><trkpt lat="43.3062282" lon="12.8241406"><ele>516.0</ele><time>2026-04-25T10:32:36.323Z</time></trkpt><trkpt lat="43.3061087" lon="12.824213"><ele>517.0</ele><time>2026-04-25T10:32:37.327Z</time></trkpt><trkpt lat="43.3059974" lon="12.8243159"><ele>518.0</ele><time>2026-04-25T10:32:38.325Z</time></trkpt><trkpt lat="43.3058943" lon="12.8244408"><ele>519.0</ele><time>2026-04-25T10:32:39.324Z</time></trkpt><trkpt lat="43.3058063" lon="12.8245541"><ele>519.0</ele><time>2026-04-25T10:32:40.327Z</time></trkpt><trkpt lat="43.3057273" lon="12.8246355"><ele>519.0</ele><time>2026-04-25T10:32:41.325Z</time></trkpt><trkpt lat="43.3056519" lon="12.8246661"><ele>519.0</ele><time>2026-04-25T10:32:42.326Z</time></trkpt><trkpt lat="43.3055604" lon="12.8246685"><ele>519.0</ele><time>2026-04-25T10:32:43.324Z</time></trkpt><trkpt lat="43.3054539" lon="12.8246546"><ele>519.0</ele><time>2026-04-25T10:32:44.327Z</time></trkpt><trkpt lat="43.3053378" lon="12.8246387"><ele>518.5</ele><time>2026-04-25T10:32:45.326Z</time></trkpt><trkpt lat="43.3052175" lon="12.824604"><ele>518.0</ele><time>2026-04-25T10:32:46.318Z</time></trkpt><trkpt lat="43.3050895" lon="12.8245511"><ele>517.5</ele><time>2026-04-25T10:32:47.318Z</time></trkpt><trkpt lat="43.3049608" lon="12.8244925"><ele>517.0</ele><time>2026-04-25T10:32:48.325Z</time></trkpt><trkpt lat="43.3048243" lon="12.8244338"><ele>517.75</ele><time>2026-04-25T10:32:49.323Z</time></trkpt><trkpt lat="43.3046835" lon="12.8243746"><ele>518.5</ele><time>2026-04-25T10:32:50.327Z</time></trkpt><trkpt lat="43.3045547" lon="12.824314"><ele>519.25</ele><time>2026-04-25T10:32:51.329Z</time></trkpt><trkpt lat="43.3044484" lon="12.8242595"><ele>520.0</ele><time>2026-04-25T10:32:52.327Z</time></trkpt><trkpt lat="43.3043623" lon="12.8242081"><ele>520.0</ele><time>2026-04-25T10:32:53.326Z</time></trkpt><trkpt lat="43.3042952" lon="12.8241523"><ele>520.0</ele><time>2026-04-25T10:32:54.327Z</time></trkpt><trkpt lat="43.3042517" lon="12.8240747"><ele>520.0</ele><time>2026-04-25T10:32:55.315Z</time></trkpt><trkpt lat="43.3042355" lon="12.8239851"><ele>520.0</ele><time>2026-04-25T10:32:56.327Z</time></trkpt><trkpt lat="43.304255" lon="12.8238922"><ele>520.0</ele><time>2026-04-25T10:32:57.325Z</time></trkpt><trkpt lat="43.3043057" lon="12.8238093"><ele>520.0</ele><time>2026-04-25T10:32:58.319Z</time></trkpt><trkpt lat="43.3043787" lon="12.8237397"><ele>520.0</ele><time>2026-04-25T10:32:59.315Z</time></trkpt><trkpt lat="43.3044711" lon="12.8236831"><ele>520.0</ele><time>2026-04-25T10:33:00.327Z</time></trkpt><trkpt lat="43.3045768" lon="12.8236412"><ele>520.0</ele><time>2026-04-25T10:33:01.318Z</time></trkpt><trkpt lat="43.3046829" lon="12.8236045"><ele>520.0</ele><time>2026-04-25T10:33:02.32Z</time></trkpt><trkpt lat="43.3047765" lon="12.823559"><ele>520.0</ele><time>2026-04-25T10:33:03.324Z</time></trkpt><trkpt lat="43.304864" lon="12.8234979"><ele>523.4</ele><time>2026-04-25T10:33:04.324Z</time></trkpt><trkpt lat="43.3049587" lon="12.8234188"><ele>526.8</ele><time>2026-04-25T10:33:05.321Z</time></trkpt><trkpt lat="43.3050512" lon="12.8233232"><ele>530.2</ele><time>2026-04-25T10:33:06.326Z</time></trkpt><trkpt lat="43.3051377" lon="12.8232261"><ele>533.6</ele><time>2026-04-25T10:33:07.317Z</time></trkpt><trkpt lat="43.3051974" lon="12.8231325"><ele>537.0</ele><time>2026-04-25T10:33:08.329Z</time></trkpt><trkpt lat="43.305227" lon="12.8230338"><ele>537.0</ele><time>2026-04-25T10:33:09.326Z</time></trkpt><trkpt lat="43.3052316" lon="12.8229175"><ele>537.0</ele><time>2026-04-25T10:33:10.327Z</time></trkpt><trkpt lat="43.3052113" lon="12.8227911"><ele>537.0</ele><time>2026-04-25T10:33:11.318Z</time></trkpt><trkpt lat="43.3051614" lon="12.8226702"><ele>537.0</ele><time>2026-04-25T10:33:12.32Z</time></trkpt><trkpt lat="43.3050902" lon="12.8225456"><ele>537.0</ele><time>2026-04-25T10:33:13.32Z</time></trkpt><trkpt lat="43.3050135" lon="12.8224148"><ele>538.0</ele><time>2026-04-25T10:33:14.326Z</time></trkpt><trkpt lat="43.3049465" lon="12.8222863"><ele>539.0</ele><time>2026-04-25T10:33:15.324Z</time></trkpt><trkpt lat="43.3048894" lon="12.8221737"><ele>540.0</ele><time>2026-04-25T10:33:16.325Z</time></trkpt><trkpt lat="43.3048439" lon="12.8220591"><ele>541.0</ele><time>2026-04-25T10:33:17.327Z</time></trkpt><trkpt lat="43.3048061" lon="12.8219333"><ele>542.0</ele><time>2026-04-25T10:33:18.328Z</time></trkpt><trkpt lat="43.304779" lon="12.8218068"><ele>544.0</ele><time>2026-04-25T10:33:19.33Z</time></trkpt><trkpt lat="43.3047621" lon="12.8216907"><ele>546.0</ele><time>2026-04-25T10:33:20.326Z</time></trkpt><trkpt lat="43.3047624" lon="12.8216028"><ele>548.0</ele><time>2026-04-25T10:33:21.317Z</time></trkpt><trkpt lat="43.3048358" lon="12.8215309"><ele>550.0</ele><time>2026-04-25T10:33:23.331Z</time></trkpt><trkpt lat="43.3049465" lon="12.8216001"><ele>552.0</ele><time>2026-04-25T10:33:25.327Z</time></trkpt><trkpt lat="43.3049994" lon="12.8217085"><ele>550.0</ele><time>2026-04-25T10:33:26.324Z</time></trkpt><trkpt lat="43.3050522" lon="12.8218706"><ele>548.0</ele><time>2026-04-25T10:33:27.324Z</time></trkpt><trkpt lat="43.3051023" lon="12.822021"><ele>546.0</ele><time>2026-04-25T10:33:28.321Z</time></trkpt><trkpt lat="43.3051472" lon="12.8221354"><ele>544.0</ele><time>2026-04-25T10:33:29.329Z</time></trkpt><trkpt lat="43.3051961" lon="12.8222211"><ele>542.0</ele><time>2026-04-25T10:33:30.323Z</time></trkpt><trkpt lat="43.3052558" lon="12.8222752"><ele>542.0</ele><time>2026-04-25T10:33:31.326Z</time></trkpt><trkpt lat="43.3053244" lon="12.8222951"><ele>542.0</ele><time>2026-04-25T10:33:32.329Z</time></trkpt><trkpt lat="43.3054189" lon="12.8222059"><ele>542.0</ele><time>2026-04-25T10:33:34.325Z</time></trkpt><trkpt lat="43.3054355" lon="12.8221124"><ele>542.0</ele><time>2026-04-25T10:33:35.33Z</time></trkpt><trkpt lat="43.3054364" lon="12.8220212"><ele>542.0</ele><time>2026-04-25T10:33:36.327Z</time></trkpt><trkpt lat="43.305434" lon="12.8219325"><ele>542.0</ele><time>2026-04-25T10:33:37.327Z</time></trkpt><trkpt lat="43.3054332" lon="12.8218421"><ele>544.5</ele><time>2026-04-25T10:33:38.319Z</time></trkpt><trkpt lat="43.3054368" lon="12.8217336"><ele>547.0</ele><time>2026-04-25T10:33:39.33Z</time></trkpt><trkpt lat="43.3054484" lon="12.8215858"><ele>549.5</ele><time>2026-04-25T10:33:40.327Z</time></trkpt><trkpt lat="43.3054622" lon="12.8213968"><ele>552.0</ele><time>2026-04-25T10:33:41.328Z</time></trkpt><trkpt lat="43.3054688" lon="12.8212058"><ele>552.0</ele><time>2026-04-25T10:33:42.329Z</time></trkpt><trkpt lat="43.3054707" lon="12.8210417"><ele>552.0</ele><time>2026-04-25T10:33:43.329Z</time></trkpt><trkpt lat="43.3054638" lon="12.8209004"><ele>552.0</ele><time>2026-04-25T10:33:44.321Z</time></trkpt><trkpt lat="43.3054483" lon="12.8207722"><ele>552.0</ele><time>2026-04-25T10:33:45.327Z</time></trkpt><trkpt lat="43.3054173" lon="12.8206527"><ele>552.0</ele><time>2026-04-25T10:33:46.33Z</time></trkpt><trkpt lat="43.3053653" lon="12.8205487"><ele>554.6</ele><time>2026-04-25T10:33:47.318Z</time></trkpt><trkpt lat="43.3052876" lon="12.8204649"><ele>557.2</ele><time>2026-04-25T10:33:48.329Z</time></trkpt><trkpt lat="43.3051936" lon="12.8203892"><ele>559.8</ele><time>2026-04-25T10:33:49.323Z</time></trkpt><trkpt lat="43.3050891" lon="12.8203302"><ele>562.4</ele><time>2026-04-25T10:33:50.325Z</time></trkpt><trkpt lat="43.3049742" lon="12.8202858"><ele>565.0</ele><time>2026-04-25T10:33:51.327Z</time></trkpt><trkpt lat="43.3048464" lon="12.8202448"><ele>563.25</ele><time>2026-04-25T10:33:52.318Z</time></trkpt><trkpt lat="43.3047225" lon="12.8202014"><ele>561.5</ele><time>2026-04-25T10:33:53.326Z</time></trkpt><trkpt lat="43.3046074" lon="12.8201725"><ele>559.75</ele><time>2026-04-25T10:33:54.319Z</time></trkpt><trkpt lat="43.3044915" lon="12.8201638"><ele>558.0</ele><time>2026-04-25T10:33:55.318Z</time></trkpt><trkpt lat="43.3043753" lon="12.8201631"><ele>563.4</ele><time>2026-04-25T10:33:56.315Z</time></trkpt><trkpt lat="43.3042765" lon="12.820142"><ele>568.8</ele><time>2026-04-25T10:33:57.322Z</time></trkpt><trkpt lat="43.3041963" lon="12.820094"><ele>574.2</ele><time>2026-04-25T10:33:58.318Z</time></trkpt><trkpt lat="43.3041274" lon="12.820015"><ele>579.6</ele><time>2026-04-25T10:33:59.323Z</time></trkpt><trkpt lat="43.3040605" lon="12.8199085"><ele>585.0</ele><time>2026-04-25T10:34:00.325Z</time></trkpt><trkpt lat="43.3039915" lon="12.8197827"><ele>585.0</ele><time>2026-04-25T10:34:01.324Z</time></trkpt><trkpt lat="43.3039184" lon="12.8196627"><ele>585.0</ele><time>2026-04-25T10:34:02.316Z</time></trkpt><trkpt lat="43.3038409" lon="12.8195628"><ele>585.0</ele><time>2026-04-25T10:34:03.321Z</time></trkpt><trkpt lat="43.3037591" lon="12.8194997"><ele>585.0</ele><time>2026-04-25T10:34:04.321Z</time></trkpt><trkpt lat="43.3036751" lon="12.8194794"><ele>585.0</ele><time>2026-04-25T10:34:05.326Z</time></trkpt><trkpt lat="43.3036014" lon="12.819503"><ele>586.4</ele><time>2026-04-25T10:34:06.324Z</time></trkpt><trkpt lat="43.303537" lon="12.8195559"><ele>587.8</ele><time>2026-04-25T10:34:07.325Z</time></trkpt><trkpt lat="43.3034757" lon="12.8196368"><ele>589.2</ele><time>2026-04-25T10:34:08.314Z</time></trkpt><trkpt lat="43.3034145" lon="12.8197539"><ele>590.6</ele><time>2026-04-25T10:34:09.313Z</time></trkpt><trkpt lat="43.3033453" lon="12.8198869"><ele>592.0</ele><time>2026-04-25T10:34:10.324Z</time></trkpt><trkpt lat="43.303257" lon="12.820053"><ele>589.0</ele><time>2026-04-25T10:34:11.325Z</time></trkpt><trkpt lat="43.3031762" lon="12.8201974"><ele>586.0</ele><time>2026-04-25T10:34:12.325Z</time></trkpt><trkpt lat="43.3031018" lon="12.8202989"><ele>583.0</ele><time>2026-04-25T10:34:13.325Z</time></trkpt><trkpt lat="43.3030342" lon="12.8203437"><ele>580.0</ele><time>2026-04-25T10:34:14.326Z</time></trkpt><trkpt lat="43.3029514" lon="12.8203389"><ele>577.0</ele><time>2026-04-25T10:34:15.321Z</time></trkpt><trkpt lat="43.3028521" lon="12.8202794"><ele>577.0</ele><time>2026-04-25T10:34:16.319Z</time></trkpt><trkpt lat="43.3027361" lon="12.8202161"><ele>577.0</ele><time>2026-04-25T10:34:17.326Z</time></trkpt><trkpt lat="43.3026046" lon="12.8201601"><ele>577.0</ele><time>2026-04-25T10:34:18.33Z</time></trkpt><trkpt lat="43.3024553" lon="12.8201167"><ele>577.0</ele><time>2026-04-25T10:34:19.328Z</time></trkpt><trkpt lat="43.3022924" lon="12.8200763"><ele>583.0</ele><time>2026-04-25T10:34:20.326Z</time></trkpt><trkpt lat="43.302131" lon="12.8200423"><ele>589.0</ele><time>2026-04-25T10:34:21.321Z</time></trkpt><trkpt lat="43.3019869" lon="12.8200138"><ele>595.0</ele><time>2026-04-25T10:34:22.327Z</time></trkpt><trkpt lat="43.3018651" lon="12.8199844"><ele>601.0</ele><time>2026-04-25T10:34:23.327Z</time></trkpt><trkpt lat="43.3017677" lon="12.8199528"><ele>601.0</ele><time>2026-04-25T10:34:24.32Z</time></trkpt><trkpt lat="43.301692" lon="12.8199074"><ele>601.0</ele><time>2026-04-25T10:34:25.328Z</time></trkpt><trkpt lat="43.301638" lon="12.8198409"><ele>601.0</ele><time>2026-04-25T10:34:26.329Z</time></trkpt><trkpt lat="43.3016154" lon="12.8197452"><ele>601.0</ele><time>2026-04-25T10:34:27.326Z</time></trkpt><trkpt lat="43.3016201" lon="12.8196332"><ele>601.0</ele><time>2026-04-25T10:34:28.325Z</time></trkpt><trkpt lat="43.3016437" lon="12.8195244"><ele>601.0</ele><time>2026-04-25T10:34:29.326Z</time></trkpt><trkpt lat="43.301692" lon="12.8194233"><ele>601.0</ele><time>2026-04-25T10:34:30.324Z</time></trkpt><trkpt lat="43.3017554" lon="12.8193271"><ele>601.0</ele><time>2026-04-25T10:34:31.318Z</time></trkpt><trkpt lat="43.3018218" lon="12.8192155"><ele>601.0</ele><time>2026-04-25T10:34:32.316Z</time></trkpt><trkpt lat="43.3018897" lon="12.8191002"><ele>601.0</ele><time>2026-04-25T10:34:33.328Z</time></trkpt><trkpt lat="43.3019614" lon="12.8189863"><ele>601.0</ele><time>2026-04-25T10:34:34.325Z</time></trkpt><trkpt lat="43.3020378" lon="12.8188564"><ele>601.6</ele><time>2026-04-25T10:34:35.326Z</time></trkpt><trkpt lat="43.3021139" lon="12.8187137"><ele>602.2</ele><time>2026-04-25T10:34:36.324Z</time></trkpt><trkpt lat="43.3021787" lon="12.8185779"><ele>602.8</ele><time>2026-04-25T10:34:37.32Z</time></trkpt><trkpt lat="43.3022113" lon="12.8184566"><ele>603.4</ele><time>2026-04-25T10:34:38.326Z</time></trkpt><trkpt lat="43.3022117" lon="12.8183459"><ele>604.0</ele><time>2026-04-25T10:34:39.319Z</time></trkpt><trkpt lat="43.3021849" lon="12.8182555"><ele>605.6</ele><time>2026-04-25T10:34:40.327Z</time></trkpt><trkpt lat="43.3021462" lon="12.8181831"><ele>607.2</ele><time>2026-04-25T10:34:41.328Z</time></trkpt><trkpt lat="43.3020651" lon="12.818048"><ele>608.8000000000001</ele><time>2026-04-25T10:34:43.326Z</time></trkpt><trkpt lat="43.302024" lon="12.8179609"><ele>610.4</ele><time>2026-04-25T10:34:44.324Z</time></trkpt><trkpt lat="43.3019701" lon="12.817854"><ele>612.0</ele><time>2026-04-25T10:34:45.324Z</time></trkpt><trkpt lat="43.3019024" lon="12.817718"><ele>614.5</ele><time>2026-04-25T10:34:46.319Z</time></trkpt><trkpt lat="43.3018349" lon="12.8175652"><ele>617.0</ele><time>2026-04-25T10:34:47.323Z</time></trkpt><trkpt lat="43.3017781" lon="12.8174031"><ele>619.5</ele><time>2026-04-25T10:34:48.322Z</time></trkpt><trkpt lat="43.3017471" lon="12.8172142"><ele>622.0</ele><time>2026-04-25T10:34:49.318Z</time></trkpt><trkpt lat="43.301731" lon="12.817012"><ele>624.5</ele><time>2026-04-25T10:34:50.323Z</time></trkpt><trkpt lat="43.3017238" lon="12.8168092"><ele>627.0</ele><time>2026-04-25T10:34:51.323Z</time></trkpt><trkpt lat="43.3017115" lon="12.8166221"><ele>629.5</ele><time>2026-04-25T10:34:52.323Z</time></trkpt><trkpt lat="43.3016954" lon="12.8164594"><ele>632.0</ele><time>2026-04-25T10:34:53.316Z</time></trkpt><trkpt lat="43.3016665" lon="12.8163233"><ele>632.0</ele><time>2026-04-25T10:34:54.324Z</time></trkpt><trkpt lat="43.3016178" lon="12.8162038"><ele>632.0</ele><time>2026-04-25T10:34:55.319Z</time></trkpt><trkpt lat="43.3015448" lon="12.8160884"><ele>632.0</ele><time>2026-04-25T10:34:56.311Z</time></trkpt><trkpt lat="43.3014501" lon="12.815972"><ele>632.0</ele><time>2026-04-25T10:34:57.323Z</time></trkpt><trkpt lat="43.3013488" lon="12.8158561"><ele>630.0</ele><time>2026-04-25T10:34:58.323Z</time></trkpt><trkpt lat="43.3012626" lon="12.8157387"><ele>628.0</ele><time>2026-04-25T10:34:59.324Z</time></trkpt><trkpt lat="43.301177" lon="12.8156022"><ele>626.0</ele><time>2026-04-25T10:35:00.325Z</time></trkpt><trkpt lat="43.3010974" lon="12.8154523"><ele>624.0</ele><time>2026-04-25T10:35:01.323Z</time></trkpt><trkpt lat="43.3010375" lon="12.8153077"><ele>624.0</ele><time>2026-04-25T10:35:02.328Z</time></trkpt><trkpt lat="43.3009966" lon="12.8151815"><ele>624.0</ele><time>2026-04-25T10:35:03.315Z</time></trkpt><trkpt lat="43.3009594" lon="12.8150586"><ele>624.0</ele><time>2026-04-25T10:35:04.314Z</time></trkpt><trkpt lat="43.3009205" lon="12.8149152"><ele>624.0</ele><time>2026-04-25T10:35:05.315Z</time></trkpt><trkpt lat="43.3008765" lon="12.8147513"><ele>624.0</ele><time>2026-04-25T10:35:06.321Z</time></trkpt><trkpt lat="43.3008429" lon="12.8145666"><ele>628.5</ele><time>2026-04-25T10:35:07.324Z</time></trkpt><trkpt lat="43.3008157" lon="12.8143835"><ele>633.0</ele><time>2026-04-25T10:35:08.328Z</time></trkpt><trkpt lat="43.3007844" lon="12.8142225"><ele>637.5</ele><time>2026-04-25T10:35:09.316Z</time></trkpt><trkpt lat="43.30075" lon="12.8140769"><ele>642.0</ele><time>2026-04-25T10:35:10.324Z</time></trkpt><trkpt lat="43.3007145" lon="12.8139347"><ele>640.75</ele><time>2026-04-25T10:35:11.323Z</time></trkpt><trkpt lat="43.300669" lon="12.8137797"><ele>639.5</ele><time>2026-04-25T10:35:12.326Z</time></trkpt><trkpt lat="43.3006028" lon="12.8135997"><ele>638.25</ele><time>2026-04-25T10:35:13.323Z</time></trkpt><trkpt lat="43.300516" lon="12.8134056"><ele>637.0</ele><time>2026-04-25T10:35:14.318Z</time></trkpt><trkpt lat="43.3004246" lon="12.8132234"><ele>637.0</ele><time>2026-04-25T10:35:15.324Z</time></trkpt><trkpt lat="43.3003348" lon="12.813048"><ele>637.0</ele><time>2026-04-25T10:35:16.325Z</time></trkpt><trkpt lat="43.3002415" lon="12.8128702"><ele>637.0</ele><time>2026-04-25T10:35:17.325Z</time></trkpt><trkpt lat="43.3001451" lon="12.8126835"><ele>645.3333333333334</ele><time>2026-04-25T10:35:18.324Z</time></trkpt><trkpt lat="43.3000458" lon="12.8124926"><ele>653.6666666666666</ele><time>2026-04-25T10:35:19.323Z</time></trkpt><trkpt lat="43.2999461" lon="12.8123082"><ele>662.0</ele><time>2026-04-25T10:35:20.326Z</time></trkpt><trkpt lat="43.2998565" lon="12.8121396"><ele>662.0</ele><time>2026-04-25T10:35:21.32Z</time></trkpt><trkpt lat="43.2997752" lon="12.8119735"><ele>662.0</ele><time>2026-04-25T10:35:22.329Z</time></trkpt><trkpt lat="43.299705" lon="12.8118044"><ele>662.0</ele><time>2026-04-25T10:35:23.317Z</time></trkpt><trkpt lat="43.2996495" lon="12.8116456"><ele>662.0</ele><time>2026-04-25T10:35:24.319Z</time></trkpt><trkpt lat="43.2996133" lon="12.8115"><ele>666.4000000000001</ele><time>2026-04-25T10:35:25.326Z</time></trkpt><trkpt lat="43.2995964" lon="12.8113663"><ele>670.8000000000001</ele><time>2026-04-25T10:35:26.326Z</time></trkpt><trkpt lat="43.2996139" lon="12.8112613"><ele>675.2</ele><time>2026-04-25T10:35:27.317Z</time></trkpt><trkpt lat="43.2996681" lon="12.8111687"><ele>679.6</ele><time>2026-04-25T10:35:28.328Z</time></trkpt><trkpt lat="43.2997583" lon="12.8110983"><ele>684.0</ele><time>2026-04-25T10:35:29.326Z</time></trkpt><trkpt lat="43.2998676" lon="12.8110352"><ele>680.75</ele><time>2026-04-25T10:35:30.328Z</time></trkpt><trkpt lat="43.2999925" lon="12.8109757"><ele>677.5</ele><time>2026-04-25T10:35:31.325Z</time></trkpt><trkpt lat="43.3001289" lon="12.8109091"><ele>674.25</ele><time>2026-04-25T10:35:32.318Z</time></trkpt><trkpt lat="43.3002635" lon="12.8108414"><ele>671.0</ele><time>2026-04-25T10:35:33.326Z</time></trkpt><trkpt lat="43.3003796" lon="12.8107655"><ele>671.0</ele><time>2026-04-25T10:35:34.325Z</time></trkpt><trkpt lat="43.3004742" lon="12.8106774"><ele>671.0</ele><time>2026-04-25T10:35:35.324Z</time></trkpt><trkpt lat="43.3005534" lon="12.8105744"><ele>671.0</ele><time>2026-04-25T10:35:36.314Z</time></trkpt><trkpt lat="43.3006309" lon="12.8104468"><ele>671.0</ele><time>2026-04-25T10:35:37.325Z</time></trkpt><trkpt lat="43.3007181" lon="12.8103063"><ele>674.5999999999999</ele><time>2026-04-25T10:35:38.317Z</time></trkpt><trkpt lat="43.3008023" lon="12.8101799"><ele>678.2</ele><time>2026-04-25T10:35:39.317Z</time></trkpt><trkpt lat="43.3008674" lon="12.8100713"><ele>681.8</ele><time>2026-04-25T10:35:40.314Z</time></trkpt><trkpt lat="43.3009016" lon="12.8099724"><ele>685.4000000000001</ele><time>2026-04-25T10:35:41.319Z</time></trkpt><trkpt lat="43.3009114" lon="12.8098617"><ele>689.0</ele><time>2026-04-25T10:35:42.329Z</time></trkpt><trkpt lat="43.3009167" lon="12.8097175"><ele>689.0</ele><time>2026-04-25T10:35:43.323Z</time></trkpt><trkpt lat="43.3009316" lon="12.80954"><ele>689.0</ele><time>2026-04-25T10:35:44.318Z</time></trkpt><trkpt lat="43.3009631" lon="12.80933"><ele>689.0</ele><time>2026-04-25T10:35:45.316Z</time></trkpt><trkpt lat="43.3010032" lon="12.8090888"><ele>686.6666666666666</ele><time>2026-04-25T10:35:46.319Z</time></trkpt><trkpt lat="43.3010425" lon="12.80883"><ele>684.3333333333334</ele><time>2026-04-25T10:35:47.315Z</time></trkpt><trkpt lat="43.3010712" lon="12.8085605"><ele>682.0</ele><time>2026-04-25T10:35:48.316Z</time></trkpt><trkpt lat="43.3010892" lon="12.808305"><ele>682.0</ele><time>2026-04-25T10:35:49.317Z</time></trkpt><trkpt lat="43.3011022" lon="12.8080707"><ele>682.0</ele><time>2026-04-25T10:35:50.313Z</time></trkpt><trkpt lat="43.3011093" lon="12.8078586"><ele>682.0</ele><time>2026-04-25T10:35:51.322Z</time></trkpt><trkpt lat="43.3011109" lon="12.8076462"><ele>682.0</ele><time>2026-04-25T10:35:52.316Z</time></trkpt><trkpt lat="43.3011109" lon="12.8074271"><ele>682.0</ele><time>2026-04-25T10:35:53.322Z</time></trkpt><trkpt lat="43.3011109" lon="12.8072047"><ele>682.0</ele><time>2026-04-25T10:35:54.324Z</time></trkpt><trkpt lat="43.3011129" lon="12.8069818"><ele>684.6666666666667</ele><time>2026-04-25T10:35:55.315Z</time></trkpt><trkpt lat="43.3011133" lon="12.8067566"><ele>687.3333333333334</ele><time>2026-04-25T10:35:56.323Z</time></trkpt><trkpt lat="43.3011082" lon="12.8065336"><ele>690.0</ele><time>2026-04-25T10:35:57.324Z</time></trkpt><trkpt lat="43.3010972" lon="12.80632"><ele>690.0</ele><time>2026-04-25T10:35:58.323Z</time></trkpt><trkpt lat="43.3010807" lon="12.806116"><ele>690.0</ele><time>2026-04-25T10:35:59.316Z</time></trkpt><trkpt lat="43.3010545" lon="12.8059072"><ele>690.0</ele><time>2026-04-25T10:36:00.315Z</time></trkpt><trkpt lat="43.3010183" lon="12.805703"><ele>693.3333333333334</ele><time>2026-04-25T10:36:01.313Z</time></trkpt><trkpt lat="43.3009749" lon="12.805504"><ele>696.6666666666667</ele><time>2026-04-25T10:36:02.32Z</time></trkpt><trkpt lat="43.3009265" lon="12.8052991"><ele>700.0</ele><time>2026-04-25T10:36:03.32Z</time></trkpt><trkpt lat="43.3008751" lon="12.8050849"><ele>706.0</ele><time>2026-04-25T10:36:04.321Z</time></trkpt><trkpt lat="43.3008175" lon="12.8048817"><ele>712.0</ele><time>2026-04-25T10:36:05.314Z</time></trkpt><trkpt lat="43.3007573" lon="12.8046911"><ele>718.0</ele><time>2026-04-25T10:36:06.322Z</time></trkpt><trkpt lat="43.3006867" lon="12.8045025"><ele>711.3333333333334</ele><time>2026-04-25T10:36:07.315Z</time></trkpt><trkpt lat="43.3006121" lon="12.8043186"><ele>704.6666666666666</ele><time>2026-04-25T10:36:08.324Z</time></trkpt><trkpt lat="43.3005353" lon="12.8041396"><ele>698.0</ele><time>2026-04-25T10:36:09.318Z</time></trkpt><trkpt lat="43.30046" lon="12.8039692"><ele>698.0</ele><time>2026-04-25T10:36:10.315Z</time></trkpt><trkpt lat="43.3003778" lon="12.803799"><ele>698.0</ele><time>2026-04-25T10:36:11.323Z</time></trkpt><trkpt lat="43.3002872" lon="12.8036306"><ele>698.0</ele><time>2026-04-25T10:36:12.326Z</time></trkpt><trkpt lat="43.3001901" lon="12.8034633"><ele>706.6666666666666</ele><time>2026-04-25T10:36:13.317Z</time></trkpt><trkpt lat="43.3000899" lon="12.8032936"><ele>715.3333333333334</ele><time>2026-04-25T10:36:14.327Z</time></trkpt><trkpt lat="43.2999865" lon="12.8031316"><ele>724.0</ele><time>2026-04-25T10:36:15.326Z</time></trkpt><trkpt lat="43.2998796" lon="12.8029853"><ele>724.0</ele><time>2026-04-25T10:36:16.315Z</time></trkpt><trkpt lat="43.2997666" lon="12.8028472"><ele>724.0</ele><time>2026-04-25T10:36:17.316Z</time></trkpt><trkpt lat="43.2996488" lon="12.8027075"><ele>724.0</ele><time>2026-04-25T10:36:18.323Z</time></trkpt><trkpt lat="43.2995427" lon="12.8025699"><ele>724.25</ele><time>2026-04-25T10:36:19.327Z</time></trkpt><trkpt lat="43.2994489" lon="12.8024355"><ele>724.5</ele><time>2026-04-25T10:36:20.324Z</time></trkpt><trkpt lat="43.2993718" lon="12.8022951"><ele>724.75</ele><time>2026-04-25T10:36:21.327Z</time></trkpt><trkpt lat="43.2993151" lon="12.8021416"><ele>725.0</ele><time>2026-04-25T10:36:22.315Z</time></trkpt><trkpt lat="43.2992705" lon="12.8019752"><ele>728.0</ele><time>2026-04-25T10:36:23.318Z</time></trkpt><trkpt lat="43.2992344" lon="12.8018052"><ele>731.0</ele><time>2026-04-25T10:36:24.317Z</time></trkpt><trkpt lat="43.2992046" lon="12.8016507"><ele>734.0</ele><time>2026-04-25T10:36:25.328Z</time></trkpt><trkpt lat="43.2991808" lon="12.8015266"><ele>737.0</ele><time>2026-04-25T10:36:26.329Z</time></trkpt><trkpt lat="43.2991647" lon="12.8014344"><ele>740.0</ele><time>2026-04-25T10:36:27.324Z</time></trkpt><trkpt lat="43.2991299" lon="12.8013263"><ele>740.0</ele><time>2026-04-25T10:36:29.326Z</time></trkpt><trkpt lat="43.2990495" lon="12.8012952"><ele>740.0</ele><time>2026-04-25T10:36:31.328Z</time></trkpt><trkpt lat="43.2989826" lon="12.8012814"><ele>740.0</ele><time>2026-04-25T10:36:32.324Z</time></trkpt><trkpt lat="43.2989089" lon="12.8012624"><ele>740.0</ele><time>2026-04-25T10:36:33.326Z</time></trkpt><trkpt lat="43.2988389" lon="12.8012258"><ele>740.0</ele><time>2026-04-25T10:36:34.322Z</time></trkpt><trkpt lat="43.2987793" lon="12.8011631"><ele>740.0</ele><time>2026-04-25T10:36:35.325Z</time></trkpt><trkpt lat="43.2987294" lon="12.8010794"><ele>741.0</ele><time>2026-04-25T10:36:36.318Z</time></trkpt><trkpt lat="43.2986865" lon="12.8009916"><ele>742.0</ele><time>2026-04-25T10:36:37.327Z</time></trkpt><trkpt lat="43.2986424" lon="12.8009046"><ele>743.0</ele><time>2026-04-25T10:36:38.317Z</time></trkpt><trkpt lat="43.2985952" lon="12.8008137"><ele>744.0</ele><time>2026-04-25T10:36:39.325Z</time></trkpt><trkpt lat="43.2985474" lon="12.8007329"><ele>745.0</ele><time>2026-04-25T10:36:40.324Z</time></trkpt><trkpt lat="43.2984951" lon="12.8006555"><ele>746.0</ele><time>2026-04-25T10:36:41.325Z</time></trkpt><trkpt lat="43.2984382" lon="12.8005862"><ele>746.0</ele><time>2026-04-25T10:36:42.329Z</time></trkpt><trkpt lat="43.2983806" lon="12.8005251"><ele>746.0</ele><time>2026-04-25T10:36:43.326Z</time></trkpt><trkpt lat="43.2983255" lon="12.8004582"><ele>746.0</ele><time>2026-04-25T10:36:44.326Z</time></trkpt><trkpt lat="43.2982677" lon="12.8003845"><ele>746.0</ele><time>2026-04-25T10:36:45.324Z</time></trkpt><trkpt lat="43.2982083" lon="12.8003048"><ele>746.0</ele><time>2026-04-25T10:36:46.323Z</time></trkpt><trkpt lat="43.298148" lon="12.8002217"><ele>746.0</ele><time>2026-04-25T10:36:47.326Z</time></trkpt><trkpt lat="43.2980845" lon="12.8001347"><ele>750.0</ele><time>2026-04-25T10:36:48.328Z</time></trkpt><trkpt lat="43.2980172" lon="12.8000446"><ele>754.0</ele><time>2026-04-25T10:36:49.327Z</time></trkpt><trkpt lat="43.2979492" lon="12.7999586"><ele>758.0</ele><time>2026-04-25T10:36:50.329Z</time></trkpt><trkpt lat="43.2978839" lon="12.7998802"><ele>762.0</ele><time>2026-04-25T10:36:51.327Z</time></trkpt><trkpt lat="43.2978234" lon="12.7997977"><ele>766.0000000000001</ele><time>2026-04-25T10:36:52.324Z</time></trkpt><trkpt lat="43.2977631" lon="12.7997152"><ele>770.0</ele><time>2026-04-25T10:36:53.327Z</time></trkpt><trkpt lat="43.2977015" lon="12.7996335"><ele>770.0000000000001</ele><time>2026-04-25T10:36:54.325Z</time></trkpt><trkpt lat="43.2976431" lon="12.7995492"><ele>770.0</ele><time>2026-04-25T10:36:55.327Z</time></trkpt><trkpt lat="43.2975844" lon="12.7994693"><ele>770.0</ele><time>2026-04-25T10:36:56.324Z</time></trkpt><trkpt lat="43.2975241" lon="12.7993985"><ele>770.0</ele><time>2026-04-25T10:36:57.325Z</time></trkpt><trkpt lat="43.297469" lon="12.799334"><ele>770.0000000000001</ele><time>2026-04-25T10:36:58.326Z</time></trkpt><trkpt lat="43.2974229" lon="12.7992624"><ele>770.0</ele><time>2026-04-25T10:36:59.318Z</time></trkpt><trkpt lat="43.297382" lon="12.7991798"><ele>772.1666666666667</ele><time>2026-04-25T10:37:00.325Z</time></trkpt><trkpt lat="43.2973499" lon="12.7990895"><ele>774.3333333333334</ele><time>2026-04-25T10:37:01.321Z</time></trkpt><trkpt lat="43.2973214" lon="12.7990071"><ele>776.5</ele><time>2026-04-25T10:37:02.329Z</time></trkpt><trkpt lat="43.2972549" lon="12.7989015"><ele>778.6666666666667</ele><time>2026-04-25T10:37:04.319Z</time></trkpt><trkpt lat="43.2971382" lon="12.7988393"><ele>780.8333333333334</ele><time>2026-04-25T10:37:06.323Z</time></trkpt><trkpt lat="43.2970705" lon="12.7988195"><ele>783.0</ele><time>2026-04-25T10:37:07.324Z</time></trkpt><trkpt lat="43.2970069" lon="12.7988015"><ele>783.0</ele><time>2026-04-25T10:37:08.323Z</time></trkpt><trkpt lat="43.2969437" lon="12.7987814"><ele>783.0</ele><time>2026-04-25T10:37:09.324Z</time></trkpt><trkpt lat="43.2968511" lon="12.7987868"><ele>783.0</ele><time>2026-04-25T10:37:11.327Z</time></trkpt><trkpt lat="43.2968354" lon="12.7988929"><ele>783.0</ele><time>2026-04-25T10:37:13.325Z</time></trkpt><trkpt lat="43.2969102" lon="12.7990307"><ele>783.0</ele><time>2026-04-25T10:37:15.327Z</time></trkpt><trkpt lat="43.2969474" lon="12.7991708"><ele>783.0</ele><time>2026-04-25T10:37:17.33Z</time></trkpt><trkpt lat="43.296885" lon="12.7992273"><ele>783.0</ele><time>2026-04-25T10:37:20.317Z</time></trkpt><trkpt lat="43.2968025" lon="12.7991759"><ele>783.0</ele><time>2026-04-25T10:37:22.328Z</time></trkpt><trkpt lat="43.2967413" lon="12.7991396"><ele>783.0</ele><time>2026-04-25T10:37:23.325Z</time></trkpt><trkpt lat="43.2966737" lon="12.7990898"><ele>783.0</ele><time>2026-04-25T10:37:24.326Z</time></trkpt><trkpt lat="43.2966022" lon="12.7990409"><ele>783.0</ele><time>2026-04-25T10:37:25.325Z</time></trkpt><trkpt lat="43.2965312" lon="12.7989919"><ele>783.0</ele><time>2026-04-25T10:37:26.316Z</time></trkpt><trkpt lat="43.2964648" lon="12.7989359"><ele>783.0</ele><time>2026-04-25T10:37:27.322Z</time></trkpt><trkpt lat="43.296408" lon="12.7988749"><ele>783.0</ele><time>2026-04-25T10:37:28.319Z</time></trkpt><trkpt lat="43.2963628" lon="12.7988039"><ele>783.0</ele><time>2026-04-25T10:37:29.325Z</time></trkpt><trkpt lat="43.2963309" lon="12.7987263"><ele>783.0</ele><time>2026-04-25T10:37:30.322Z</time></trkpt><trkpt lat="43.2962857" lon="12.7985961"><ele>783.0</ele><time>2026-04-25T10:37:32.325Z</time></trkpt><trkpt lat="43.2962291" lon="12.7985369"><ele>787.8</ele><time>2026-04-25T10:37:34.323Z</time></trkpt><trkpt lat="43.2961319" lon="12.7985289"><ele>792.5999999999999</ele><time>2026-04-25T10:37:36.325Z</time></trkpt><trkpt lat="43.2960684" lon="12.7985315"><ele>797.4000000000001</ele><time>2026-04-25T10:37:37.331Z</time></trkpt><trkpt lat="43.2959514" lon="12.7985646"><ele>802.2</ele><time>2026-04-25T10:37:39.315Z</time></trkpt><trkpt lat="43.2958474" lon="12.7986346"><ele>807.0</ele><time>2026-04-25T10:37:41.317Z</time></trkpt><trkpt lat="43.2957458" lon="12.798716"><ele>807.0</ele><time>2026-04-25T10:37:43.317Z</time></trkpt><trkpt lat="43.2956909" lon="12.7987628"><ele>807.0</ele><time>2026-04-25T10:37:44.316Z</time></trkpt><trkpt lat="43.2955901" lon="12.7988598"><ele>807.0</ele><time>2026-04-25T10:37:46.323Z</time></trkpt><trkpt lat="43.2955376" lon="12.7989116"><ele>807.0</ele><time>2026-04-25T10:37:47.326Z</time></trkpt><trkpt lat="43.2954851" lon="12.79896"><ele>807.0</ele><time>2026-04-25T10:37:48.329Z</time></trkpt><trkpt lat="43.2953847" lon="12.7990653"><ele>807.0</ele><time>2026-04-25T10:37:50.327Z</time></trkpt><trkpt lat="43.2953378" lon="12.7991242"><ele>806.0000000000001</ele><time>2026-04-25T10:37:51.327Z</time></trkpt><trkpt lat="43.2952902" lon="12.7991814"><ele>805.0</ele><time>2026-04-25T10:37:52.327Z</time></trkpt><trkpt lat="43.2952389" lon="12.7992328"><ele>804.0</ele><time>2026-04-25T10:37:53.323Z</time></trkpt><trkpt lat="43.2951797" lon="12.7992896"><ele>803.0</ele><time>2026-04-25T10:37:54.316Z</time></trkpt><trkpt lat="43.2951146" lon="12.7993474"><ele>802.0</ele><time>2026-04-25T10:37:55.327Z</time></trkpt><trkpt lat="43.2950464" lon="12.7994063"><ele>801.0000000000001</ele><time>2026-04-25T10:37:56.33Z</time></trkpt><trkpt lat="43.2949775" lon="12.7994719"><ele>800.0</ele><time>2026-04-25T10:37:57.327Z</time></trkpt><trkpt lat="43.2949078" lon="12.7995494"><ele>801.3333333333334</ele><time>2026-04-25T10:37:58.324Z</time></trkpt><trkpt lat="43.2948367" lon="12.7996278"><ele>802.6666666666667</ele><time>2026-04-25T10:37:59.316Z</time></trkpt><trkpt lat="43.2947658" lon="12.7997014"><ele>804.0</ele><time>2026-04-25T10:38:00.326Z</time></trkpt><trkpt lat="43.2946977" lon="12.7997629"><ele>805.3333333333333</ele><time>2026-04-25T10:38:01.328Z</time></trkpt><trkpt lat="43.2946321" lon="12.7998157"><ele>806.6666666666666</ele><time>2026-04-25T10:38:02.325Z</time></trkpt><trkpt lat="43.2945641" lon="12.7998697"><ele>808.0</ele><time>2026-04-25T10:38:03.32Z</time></trkpt><trkpt lat="43.2944934" lon="12.7999189"><ele>808.0</ele><time>2026-04-25T10:38:04.326Z</time></trkpt><trkpt lat="43.2944271" lon="12.79996"><ele>808.0</ele><time>2026-04-25T10:38:05.32Z</time></trkpt><trkpt lat="43.2943192" lon="12.8000047"><ele>808.0</ele><time>2026-04-25T10:38:07.327Z</time></trkpt><trkpt lat="43.2942296" lon="12.8000059"><ele>808.0</ele><time>2026-04-25T10:38:09.331Z</time></trkpt><trkpt lat="43.2941074" lon="12.7999361"><ele>808.0</ele><time>2026-04-25T10:38:11.328Z</time></trkpt><trkpt lat="43.2940258" lon="12.7998914"><ele>807.9999999999999</ele><time>2026-04-25T10:38:12.328Z</time></trkpt><trkpt lat="43.2939422" lon="12.7998384"><ele>808.0</ele><time>2026-04-25T10:38:13.317Z</time></trkpt><trkpt lat="43.2938626" lon="12.7997776"><ele>808.0</ele><time>2026-04-25T10:38:14.325Z</time></trkpt><trkpt lat="43.2937877" lon="12.7997238"><ele>808.0</ele><time>2026-04-25T10:38:15.326Z</time></trkpt><trkpt lat="43.293714" lon="12.7996731"><ele>807.9999999999999</ele><time>2026-04-25T10:38:16.32Z</time></trkpt><trkpt lat="43.2936395" lon="12.7996174"><ele>808.0</ele><time>2026-04-25T10:38:17.327Z</time></trkpt><trkpt lat="43.2935665" lon="12.799557"><ele>806.4285714285714</ele><time>2026-04-25T10:38:18.33Z</time></trkpt><trkpt lat="43.2935004" lon="12.7994973"><ele>804.8571428571429</ele><time>2026-04-25T10:38:19.325Z</time></trkpt><trkpt lat="43.2934378" lon="12.7994406"><ele>803.2857142857142</ele><time>2026-04-25T10:38:20.325Z</time></trkpt><trkpt lat="43.2933803" lon="12.7993912"><ele>801.7142857142858</ele><time>2026-04-25T10:38:21.324Z</time></trkpt><trkpt lat="43.2933219" lon="12.7993549"><ele>800.1428571428572</ele><time>2026-04-25T10:38:22.323Z</time></trkpt><trkpt lat="43.2932587" lon="12.7993247"><ele>798.5714285714286</ele><time>2026-04-25T10:38:23.325Z</time></trkpt><trkpt lat="43.2931956" lon="12.7992957"><ele>797.0</ele><time>2026-04-25T10:38:24.325Z</time></trkpt><trkpt lat="43.29314" lon="12.7992522"><ele>801.6</ele><time>2026-04-25T10:38:25.324Z</time></trkpt><trkpt lat="43.2930676" lon="12.799133"><ele>806.2</ele><time>2026-04-25T10:38:27.322Z</time></trkpt><trkpt lat="43.2929911" lon="12.7990641"><ele>810.8</ele><time>2026-04-25T10:38:29.316Z</time></trkpt><trkpt lat="43.2928952" lon="12.7990558"><ele>815.4</ele><time>2026-04-25T10:38:31.325Z</time></trkpt><trkpt lat="43.2927785" lon="12.7990928"><ele>820.0</ele><time>2026-04-25T10:38:33.328Z</time></trkpt><trkpt lat="43.2927116" lon="12.7991244"><ele>820.0</ele><time>2026-04-25T10:38:34.323Z</time></trkpt><trkpt lat="43.2926449" lon="12.7991407"><ele>820.0</ele><time>2026-04-25T10:38:35.317Z</time></trkpt><trkpt lat="43.2925792" lon="12.7991453"><ele>820.0</ele><time>2026-04-25T10:38:36.321Z</time></trkpt><trkpt lat="43.2925132" lon="12.7991367"><ele>820.0</ele><time>2026-04-25T10:38:37.325Z</time></trkpt><trkpt lat="43.2924483" lon="12.7991158"><ele>820.0</ele><time>2026-04-25T10:38:38.317Z</time></trkpt><trkpt lat="43.2923804" lon="12.7990825"><ele>820.0</ele><time>2026-04-25T10:38:39.317Z</time></trkpt><trkpt lat="43.2923126" lon="12.7990505"><ele>820.0</ele><time>2026-04-25T10:38:40.324Z</time></trkpt><trkpt lat="43.292247" lon="12.7990228"><ele>824.9999999999999</ele><time>2026-04-25T10:38:41.32Z</time></trkpt><trkpt lat="43.2921788" lon="12.7990053"><ele>830.0</ele><time>2026-04-25T10:38:42.317Z</time></trkpt><trkpt lat="43.2921099" lon="12.7989816"><ele>835.0</ele><time>2026-04-25T10:38:43.316Z</time></trkpt><trkpt lat="43.2920348" lon="12.7989509"><ele>840.0</ele><time>2026-04-25T10:38:44.32Z</time></trkpt><trkpt lat="43.2919668" lon="12.7989269"><ele>844.9999999999999</ele><time>2026-04-25T10:38:45.323Z</time></trkpt><trkpt lat="43.2919034" lon="12.7989034"><ele>850.0</ele><time>2026-04-25T10:38:46.316Z</time></trkpt><trkpt lat="43.2917882" lon="12.7988558"><ele>850.0</ele><time>2026-04-25T10:38:48.317Z</time></trkpt><trkpt lat="43.2917376" lon="12.798803"><ele>850.0</ele><time>2026-04-25T10:38:49.326Z</time></trkpt><trkpt lat="43.2916969" lon="12.798724"><ele>850.0</ele><time>2026-04-25T10:38:50.324Z</time></trkpt><trkpt lat="43.2916598" lon="12.7986323"><ele>850.0</ele><time>2026-04-25T10:38:51.325Z</time></trkpt><trkpt lat="43.2916267" lon="12.7985329"><ele>850.0</ele><time>2026-04-25T10:38:52.325Z</time></trkpt><trkpt lat="43.2916042" lon="12.7984288"><ele>850.0</ele><time>2026-04-25T10:38:53.315Z</time></trkpt><trkpt lat="43.2915964" lon="12.7983199"><ele>850.0</ele><time>2026-04-25T10:38:54.321Z</time></trkpt><trkpt lat="43.2916047" lon="12.7982197"><ele>845.4</ele><time>2026-04-25T10:38:55.325Z</time></trkpt><trkpt lat="43.2916319" lon="12.7981281"><ele>840.8</ele><time>2026-04-25T10:38:56.322Z</time></trkpt><trkpt lat="43.2916624" lon="12.7980461"><ele>836.2</ele><time>2026-04-25T10:38:57.322Z</time></trkpt><trkpt lat="43.2916957" lon="12.7978939"><ele>831.6</ele><time>2026-04-25T10:38:59.32Z</time></trkpt><trkpt lat="43.2916832" lon="12.7977346"><ele>827.0</ele><time>2026-04-25T10:39:01.317Z</time></trkpt><trkpt lat="43.2916284" lon="12.7975942"><ele>825.1666666666667</ele><time>2026-04-25T10:39:03.315Z</time></trkpt><trkpt lat="43.2915821" lon="12.7975231"><ele>823.3333333333334</ele><time>2026-04-25T10:39:04.323Z</time></trkpt><trkpt lat="43.2915298" lon="12.7974496"><ele>821.5</ele><time>2026-04-25T10:39:05.319Z</time></trkpt><trkpt lat="43.2914874" lon="12.7973821"><ele>819.6666666666667</ele><time>2026-04-25T10:39:06.325Z</time></trkpt><trkpt lat="43.2914195" lon="12.7972411"><ele>817.8333333333334</ele><time>2026-04-25T10:39:08.318Z</time></trkpt><trkpt lat="43.2913933" lon="12.797152"><ele>816.0</ele><time>2026-04-25T10:39:09.324Z</time></trkpt><trkpt lat="43.2913807" lon="12.7970535"><ele>818.5</ele><time>2026-04-25T10:39:10.32Z</time></trkpt><trkpt lat="43.291378" lon="12.7969665"><ele>821.0</ele><time>2026-04-25T10:39:11.318Z</time></trkpt><trkpt lat="43.291397" lon="12.7968797"><ele>823.5</ele><time>2026-04-25T10:39:12.324Z</time></trkpt><trkpt lat="43.2914358" lon="12.7967879"><ele>826.0</ele><time>2026-04-25T10:39:13.322Z</time></trkpt><trkpt lat="43.2914887" lon="12.7967"><ele>828.5</ele><time>2026-04-25T10:39:14.317Z</time></trkpt><trkpt lat="43.2915571" lon="12.7966225"><ele>831.0</ele><time>2026-04-25T10:39:15.322Z</time></trkpt><trkpt lat="43.2916256" lon="12.7965485"><ele>830.9999999999999</ele><time>2026-04-25T10:39:16.323Z</time></trkpt><trkpt lat="43.2916812" lon="12.796475"><ele>831.0</ele><time>2026-04-25T10:39:17.322Z</time></trkpt><trkpt lat="43.2917265" lon="12.7964027"><ele>831.0</ele><time>2026-04-25T10:39:18.321Z</time></trkpt><trkpt lat="43.2917658" lon="12.7963298"><ele>831.0</ele><time>2026-04-25T10:39:19.322Z</time></trkpt><trkpt lat="43.291793" lon="12.7962472"><ele>831.0</ele><time>2026-04-25T10:39:20.32Z</time></trkpt><trkpt lat="43.29182" lon="12.7961507"><ele>830.9999999999999</ele><time>2026-04-25T10:39:21.318Z</time></trkpt><trkpt lat="43.2918578" lon="12.7960556"><ele>831.0</ele><time>2026-04-25T10:39:22.326Z</time></trkpt><trkpt lat="43.291902" lon="12.7959642"><ele>834.2857142857142</ele><time>2026-04-25T10:39:23.323Z</time></trkpt><trkpt lat="43.2919451" lon="12.7958757"><ele>837.5714285714286</ele><time>2026-04-25T10:39:24.314Z</time></trkpt><trkpt lat="43.2919933" lon="12.7957896"><ele>840.8571428571429</ele><time>2026-04-25T10:39:25.326Z</time></trkpt><trkpt lat="43.2920386" lon="12.7957086"><ele>844.1428571428571</ele><time>2026-04-25T10:39:26.322Z</time></trkpt><trkpt lat="43.2920833" lon="12.795636"><ele>847.4285714285714</ele><time>2026-04-25T10:39:27.32Z</time></trkpt><trkpt lat="43.2921257" lon="12.7955642"><ele>850.7142857142857</ele><time>2026-04-25T10:39:28.317Z</time></trkpt><trkpt lat="43.2921696" lon="12.7954952"><ele>854.0</ele><time>2026-04-25T10:39:29.318Z</time></trkpt><trkpt lat="43.2922123" lon="12.7954224"><ele>854.0</ele><time>2026-04-25T10:39:30.315Z</time></trkpt><trkpt lat="43.292247" lon="12.7953372"><ele>854.0</ele><time>2026-04-25T10:39:31.315Z</time></trkpt><trkpt lat="43.2922685" lon="12.7952417"><ele>854.0</ele><time>2026-04-25T10:39:32.329Z</time></trkpt><trkpt lat="43.2922844" lon="12.7951498"><ele>854.0</ele><time>2026-04-25T10:39:33.32Z</time></trkpt><trkpt lat="43.2922996" lon="12.7950571"><ele>854.0</ele><time>2026-04-25T10:39:34.325Z</time></trkpt><trkpt lat="43.292315" lon="12.7949612"><ele>854.0</ele><time>2026-04-25T10:39:35.316Z</time></trkpt><trkpt lat="43.2923185" lon="12.7948647"><ele>854.0</ele><time>2026-04-25T10:39:36.315Z</time></trkpt><trkpt lat="43.2923138" lon="12.7947663"><ele>856.2857142857143</ele><time>2026-04-25T10:39:37.326Z</time></trkpt><trkpt lat="43.2923042" lon="12.7946689"><ele>858.5714285714286</ele><time>2026-04-25T10:39:38.315Z</time></trkpt><trkpt lat="43.2922951" lon="12.7945789"><ele>860.8571428571429</ele><time>2026-04-25T10:39:39.316Z</time></trkpt><trkpt lat="43.2922773" lon="12.7944918"><ele>863.1428571428571</ele><time>2026-04-25T10:39:40.325Z</time></trkpt><trkpt lat="43.292252" lon="12.7944109"><ele>865.4285714285714</ele><time>2026-04-25T10:39:41.324Z</time></trkpt><trkpt lat="43.2922223" lon="12.7943279"><ele>867.7142857142858</ele><time>2026-04-25T10:39:42.327Z</time></trkpt><trkpt lat="43.2921919" lon="12.7942282"><ele>870.0</ele><time>2026-04-25T10:39:43.327Z</time></trkpt><trkpt lat="43.2921688" lon="12.7941085"><ele>870.0</ele><time>2026-04-25T10:39:44.322Z</time></trkpt><trkpt lat="43.2921505" lon="12.793979"><ele>870.0</ele><time>2026-04-25T10:39:45.319Z</time></trkpt><trkpt lat="43.2921277" lon="12.7938563"><ele>870.0</ele><time>2026-04-25T10:39:46.315Z</time></trkpt><trkpt lat="43.2921061" lon="12.793746"><ele>870.0</ele><time>2026-04-25T10:39:47.317Z</time></trkpt><trkpt lat="43.292086" lon="12.7936426"><ele>870.0</ele><time>2026-04-25T10:39:48.316Z</time></trkpt><trkpt lat="43.2920897" lon="12.7934801"><ele>871.6</ele><time>2026-04-25T10:39:50.316Z</time></trkpt><trkpt lat="43.2921436" lon="12.7933346"><ele>873.2</ele><time>2026-04-25T10:39:52.323Z</time></trkpt><trkpt lat="43.2921876" lon="12.793249"><ele>874.8</ele><time>2026-04-25T10:39:53.313Z</time></trkpt><trkpt lat="43.2922398" lon="12.7931701"><ele>876.4</ele><time>2026-04-25T10:39:54.323Z</time></trkpt><trkpt lat="43.2923054" lon="12.7930445"><ele>878.0</ele><time>2026-04-25T10:39:56.324Z</time></trkpt><trkpt lat="43.292348" lon="12.7929141"><ele>873.4285714285714</ele><time>2026-04-25T10:39:58.313Z</time></trkpt><trkpt lat="43.2923799" lon="12.7928279"><ele>868.8571428571429</ele><time>2026-04-25T10:39:59.327Z</time></trkpt><trkpt lat="43.2924158" lon="12.7927469"><ele>864.2857142857142</ele><time>2026-04-25T10:40:00.316Z</time></trkpt><trkpt lat="43.2924588" lon="12.7926597"><ele>859.7142857142858</ele><time>2026-04-25T10:40:01.325Z</time></trkpt><trkpt lat="43.2925098" lon="12.792584"><ele>855.1428571428572</ele><time>2026-04-25T10:40:02.322Z</time></trkpt><trkpt lat="43.2925695" lon="12.7925158"><ele>850.5714285714286</ele><time>2026-04-25T10:40:03.321Z</time></trkpt><trkpt lat="43.2926361" lon="12.7924598"><ele>846.0</ele><time>2026-04-25T10:40:04.326Z</time></trkpt><trkpt lat="43.2927045" lon="12.792419"><ele>846.0</ele><time>2026-04-25T10:40:05.33Z</time></trkpt><trkpt lat="43.2927733" lon="12.7923868"><ele>846.0</ele><time>2026-04-25T10:40:06.316Z</time></trkpt><trkpt lat="43.2928374" lon="12.7923622"><ele>846.0</ele><time>2026-04-25T10:40:07.329Z</time></trkpt><trkpt lat="43.2929029" lon="12.7923438"><ele>846.0</ele><time>2026-04-25T10:40:08.324Z</time></trkpt><trkpt lat="43.2930192" lon="12.7923138"><ele>846.0</ele><time>2026-04-25T10:40:10.323Z</time></trkpt><trkpt lat="43.2930942" lon="12.792221"><ele>846.0</ele><time>2026-04-25T10:40:12.326Z</time></trkpt><trkpt lat="43.2931219" lon="12.7921432"><ele>848.8333333333334</ele><time>2026-04-25T10:40:13.323Z</time></trkpt><trkpt lat="43.2931368" lon="12.7919915"><ele>851.6666666666667</ele><time>2026-04-25T10:40:15.323Z</time></trkpt><trkpt lat="43.2931191" lon="12.7918983"><ele>854.5</ele><time>2026-04-25T10:40:16.326Z</time></trkpt><trkpt lat="43.2930829" lon="12.7918097"><ele>857.3333333333334</ele><time>2026-04-25T10:40:17.324Z</time></trkpt><trkpt lat="43.2930353" lon="12.7917217"><ele>860.1666666666667</ele><time>2026-04-25T10:40:18.321Z</time></trkpt><trkpt lat="43.2929786" lon="12.7916346"><ele>863.0</ele><time>2026-04-25T10:40:19.327Z</time></trkpt><trkpt lat="43.2929287" lon="12.7915575"><ele>863.0000000000001</ele><time>2026-04-25T10:40:20.323Z</time></trkpt><trkpt lat="43.2928946" lon="12.7914832"><ele>863.0</ele><time>2026-04-25T10:40:21.324Z</time></trkpt><trkpt lat="43.2928756" lon="12.7913061"><ele>863.0</ele><time>2026-04-25T10:40:23.319Z</time></trkpt><trkpt lat="43.2928718" lon="12.7912007"><ele>863.0</ele><time>2026-04-25T10:40:24.325Z</time></trkpt><trkpt lat="43.2928685" lon="12.7910875"><ele>863.0000000000001</ele><time>2026-04-25T10:40:25.327Z</time></trkpt><trkpt lat="43.2928615" lon="12.7909929"><ele>863.0</ele><time>2026-04-25T10:40:26.325Z</time></trkpt><trkpt lat="43.2928126" lon="12.7908373"><ele>861.8333333333334</ele><time>2026-04-25T10:40:28.326Z</time></trkpt><trkpt lat="43.2927784" lon="12.7907639"><ele>860.6666666666667</ele><time>2026-04-25T10:40:29.322Z</time></trkpt><trkpt lat="43.2927446" lon="12.7906907"><ele>859.5</ele><time>2026-04-25T10:40:30.325Z</time></trkpt><trkpt lat="43.2927028" lon="12.7906127"><ele>858.3333333333333</ele><time>2026-04-25T10:40:31.32Z</time></trkpt><trkpt lat="43.2926552" lon="12.7905368"><ele>857.1666666666666</ele><time>2026-04-25T10:40:32.332Z</time></trkpt><trkpt lat="43.2926158" lon="12.7904657"><ele>856.0</ele><time>2026-04-25T10:40:33.316Z</time></trkpt><trkpt lat="43.2925438" lon="12.7903232"><ele>855.9999999999999</ele><time>2026-04-25T10:40:35.324Z</time></trkpt><trkpt lat="43.2925088" lon="12.7902372"><ele>856.0</ele><time>2026-04-25T10:40:36.322Z</time></trkpt><trkpt lat="43.2924793" lon="12.7901506"><ele>856.0</ele><time>2026-04-25T10:40:37.317Z</time></trkpt><trkpt lat="43.2924531" lon="12.7900709"><ele>856.0</ele><time>2026-04-25T10:40:38.317Z</time></trkpt><trkpt lat="43.2924297" lon="12.7899068"><ele>855.9999999999999</ele><time>2026-04-25T10:40:40.322Z</time></trkpt><trkpt lat="43.2924273" lon="12.789815"><ele>856.0</ele><time>2026-04-25T10:40:41.316Z</time></trkpt><trkpt lat="43.2924204" lon="12.7897221"><ele>856.0</ele><time>2026-04-25T10:40:42.326Z</time></trkpt><trkpt lat="43.2924065" lon="12.7896352"><ele>855.9999999999999</ele><time>2026-04-25T10:40:43.324Z</time></trkpt><trkpt lat="43.2923644" lon="12.7894739"><ele>855.9999999999999</ele><time>2026-04-25T10:40:45.323Z</time></trkpt><trkpt lat="43.2923356" lon="12.7893965"><ele>856.0</ele><time>2026-04-25T10:40:46.324Z</time></trkpt><trkpt lat="43.2922713" lon="12.7892849"><ele>856.0</ele><time>2026-04-25T10:40:48.315Z</time></trkpt><trkpt lat="43.2921728" lon="12.7892057"><ele>855.9999999999999</ele><time>2026-04-25T10:40:50.323Z</time></trkpt><trkpt lat="43.2921068" lon="12.7891737"><ele>856.0</ele><time>2026-04-25T10:40:51.324Z</time></trkpt><trkpt lat="43.2920351" lon="12.7891324"><ele>856.0</ele><time>2026-04-25T10:40:52.325Z</time></trkpt><trkpt lat="43.2919702" lon="12.7890788"><ele>856.0</ele><time>2026-04-25T10:40:53.316Z</time></trkpt><trkpt lat="43.2919091" lon="12.7890138"><ele>855.9999999999999</ele><time>2026-04-25T10:40:54.319Z</time></trkpt><trkpt lat="43.2918524" lon="12.7889306"><ele>856.0</ele><time>2026-04-25T10:40:55.322Z</time></trkpt><trkpt lat="43.2918014" lon="12.7888431"><ele>855.9999999999999</ele><time>2026-04-25T10:40:56.324Z</time></trkpt><trkpt lat="43.2917522" lon="12.788753"><ele>856.0</ele><time>2026-04-25T10:40:57.325Z</time></trkpt><trkpt lat="43.2917051" lon="12.7886628"><ele>856.0</ele><time>2026-04-25T10:40:58.322Z</time></trkpt><trkpt lat="43.2916581" lon="12.788572"><ele>856.0</ele><time>2026-04-25T10:40:59.319Z</time></trkpt><trkpt lat="43.2916119" lon="12.7884757"><ele>855.9999999999999</ele><time>2026-04-25T10:41:00.319Z</time></trkpt><trkpt lat="43.2915698" lon="12.7883814"><ele>856.0</ele><time>2026-04-25T10:41:01.326Z</time></trkpt><trkpt lat="43.2915318" lon="12.7882951"><ele>852.9999999999999</ele><time>2026-04-25T10:41:02.324Z</time></trkpt><trkpt lat="43.2914973" lon="12.788209"><ele>850.0</ele><time>2026-04-25T10:41:03.324Z</time></trkpt><trkpt lat="43.2914706" lon="12.788125"><ele>847.0</ele><time>2026-04-25T10:41:04.323Z</time></trkpt><trkpt lat="43.2914501" lon="12.787962"><ele>844.0</ele><time>2026-04-25T10:41:06.322Z</time></trkpt><trkpt lat="43.2914502" lon="12.7878709"><ele>840.9999999999999</ele><time>2026-04-25T10:41:07.32Z</time></trkpt><trkpt lat="43.2914408" lon="12.7877015"><ele>838.0</ele><time>2026-04-25T10:41:09.318Z</time></trkpt><trkpt lat="43.291437" lon="12.7876132"><ele>837.9999999999999</ele><time>2026-04-25T10:41:10.321Z</time></trkpt><trkpt lat="43.2914507" lon="12.7875233"><ele>838.0</ele><time>2026-04-25T10:41:11.322Z</time></trkpt><trkpt lat="43.2914803" lon="12.7874334"><ele>838.0</ele><time>2026-04-25T10:41:12.323Z</time></trkpt><trkpt lat="43.29152" lon="12.7873456"><ele>838.0</ele><time>2026-04-25T10:41:13.318Z</time></trkpt><trkpt lat="43.2915641" lon="12.7872673"><ele>838.0</ele><time>2026-04-25T10:41:14.322Z</time></trkpt><trkpt lat="43.2916086" lon="12.787197"><ele>837.9999999999999</ele><time>2026-04-25T10:41:15.315Z</time></trkpt><trkpt lat="43.291658" lon="12.7871343"><ele>838.0</ele><time>2026-04-25T10:41:16.323Z</time></trkpt><trkpt lat="43.2917116" lon="12.7870814"><ele>838.0</ele><time>2026-04-25T10:41:17.321Z</time></trkpt><trkpt lat="43.2917667" lon="12.7870296"><ele>838.0</ele><time>2026-04-25T10:41:18.315Z</time></trkpt><trkpt lat="43.2918174" lon="12.7869737"><ele>838.0</ele><time>2026-04-25T10:41:19.325Z</time></trkpt><trkpt lat="43.2918796" lon="12.7868399"><ele>838.0</ele><time>2026-04-25T10:41:21.324Z</time></trkpt><trkpt lat="43.2918673" lon="12.786652"><ele>838.0</ele><time>2026-04-25T10:41:23.327Z</time></trkpt><trkpt lat="43.2918595" lon="12.7865347"><ele>841.8333333333333</ele><time>2026-04-25T10:41:24.316Z</time></trkpt><trkpt lat="43.2918546" lon="12.7864151"><ele>845.6666666666666</ele><time>2026-04-25T10:41:25.316Z</time></trkpt><trkpt lat="43.2918559" lon="12.7862967"><ele>849.5</ele><time>2026-04-25T10:41:26.324Z</time></trkpt><trkpt lat="43.2918671" lon="12.7861879"><ele>853.3333333333333</ele><time>2026-04-25T10:41:27.324Z</time></trkpt><trkpt lat="43.2918813" lon="12.7860794"><ele>857.1666666666666</ele><time>2026-04-25T10:41:28.323Z</time></trkpt><trkpt lat="43.2918959" lon="12.7859729"><ele>861.0</ele><time>2026-04-25T10:41:29.318Z</time></trkpt><trkpt lat="43.2919033" lon="12.7858721"><ele>863.3333333333334</ele><time>2026-04-25T10:41:30.325Z</time></trkpt><trkpt lat="43.2919069" lon="12.7857768"><ele>865.6666666666667</ele><time>2026-04-25T10:41:31.325Z</time></trkpt><trkpt lat="43.2919161" lon="12.7856771"><ele>868.0</ele><time>2026-04-25T10:41:32.327Z</time></trkpt><trkpt lat="43.291928" lon="12.7855834"><ele>870.3333333333334</ele><time>2026-04-25T10:41:33.323Z</time></trkpt><trkpt lat="43.2919495" lon="12.7854413"><ele>872.6666666666667</ele><time>2026-04-25T10:41:35.324Z</time></trkpt><trkpt lat="43.292026" lon="12.7853224"><ele>875.0</ele><time>2026-04-25T10:41:37.315Z</time></trkpt><trkpt lat="43.2920783" lon="12.7852639"><ele>875.0000000000001</ele><time>2026-04-25T10:41:38.316Z</time></trkpt><trkpt lat="43.2921337" lon="12.7852054"><ele>875.0</ele><time>2026-04-25T10:41:39.317Z</time></trkpt><trkpt lat="43.292193" lon="12.7851434"><ele>875.0</ele><time>2026-04-25T10:41:40.319Z</time></trkpt><trkpt lat="43.2922632" lon="12.785085"><ele>875.0</ele><time>2026-04-25T10:41:41.322Z</time></trkpt><trkpt lat="43.2923435" lon="12.7850305"><ele>875.0000000000001</ele><time>2026-04-25T10:41:42.317Z</time></trkpt><trkpt lat="43.2924185" lon="12.7849836"><ele>875.0</ele><time>2026-04-25T10:41:43.321Z</time></trkpt><trkpt lat="43.2924819" lon="12.7849411"><ele>874.5000000000001</ele><time>2026-04-25T10:41:44.323Z</time></trkpt><trkpt lat="43.2925451" lon="12.7849007"><ele>874.0</ele><time>2026-04-25T10:41:45.325Z</time></trkpt><trkpt lat="43.2926191" lon="12.7848696"><ele>873.5</ele><time>2026-04-25T10:41:46.329Z</time></trkpt><trkpt lat="43.2926939" lon="12.7848435"><ele>873.0</ele><time>2026-04-25T10:41:47.321Z</time></trkpt><trkpt lat="43.2927617" lon="12.7848152"><ele>872.5000000000001</ele><time>2026-04-25T10:41:48.323Z</time></trkpt><trkpt lat="43.2928232" lon="12.784782"><ele>872.0</ele><time>2026-04-25T10:41:49.329Z</time></trkpt><trkpt lat="43.2929273" lon="12.7846974"><ele>872.0</ele><time>2026-04-25T10:41:51.318Z</time></trkpt><trkpt lat="43.2930126" lon="12.784581"><ele>872.0</ele><time>2026-04-25T10:41:53.317Z</time></trkpt><trkpt lat="43.2930552" lon="12.7845106"><ele>872.0</ele><time>2026-04-25T10:41:54.324Z</time></trkpt><trkpt lat="43.2930914" lon="12.7844354"><ele>872.0</ele><time>2026-04-25T10:41:55.325Z</time></trkpt><trkpt lat="43.2931174" lon="12.7843539"><ele>872.0</ele><time>2026-04-25T10:41:56.321Z</time></trkpt><trkpt lat="43.2931479" lon="12.7841694"><ele>870.4000000000001</ele><time>2026-04-25T10:41:58.317Z</time></trkpt><trkpt lat="43.2931595" lon="12.7840494"><ele>868.8000000000001</ele><time>2026-04-25T10:41:59.325Z</time></trkpt><trkpt lat="43.2931753" lon="12.7839234"><ele>867.2</ele><time>2026-04-25T10:42:00.33Z</time></trkpt><trkpt lat="43.2931935" lon="12.7837932"><ele>865.6</ele><time>2026-04-25T10:42:01.327Z</time></trkpt><trkpt lat="43.2932056" lon="12.7836624"><ele>864.0</ele><time>2026-04-25T10:42:02.33Z</time></trkpt><trkpt lat="43.2932119" lon="12.7835336"><ele>864.3333333333334</ele><time>2026-04-25T10:42:03.325Z</time></trkpt><trkpt lat="43.2932196" lon="12.7834113"><ele>864.6666666666667</ele><time>2026-04-25T10:42:04.328Z</time></trkpt><trkpt lat="43.2932312" lon="12.7832931"><ele>865.0</ele><time>2026-04-25T10:42:05.33Z</time></trkpt><trkpt lat="43.2932436" lon="12.7831772"><ele>865.3333333333334</ele><time>2026-04-25T10:42:06.326Z</time></trkpt><trkpt lat="43.2932567" lon="12.78307"><ele>865.6666666666667</ele><time>2026-04-25T10:42:07.323Z</time></trkpt><trkpt lat="43.2932715" lon="12.7829629"><ele>866.0</ele><time>2026-04-25T10:42:08.325Z</time></trkpt><trkpt lat="43.2932886" lon="12.7828511"><ele>866.0000000000001</ele><time>2026-04-25T10:42:09.327Z</time></trkpt><trkpt lat="43.293305" lon="12.7827438"><ele>866.0</ele><time>2026-04-25T10:42:10.328Z</time></trkpt><trkpt lat="43.2933262" lon="12.7826466"><ele>866.0</ele><time>2026-04-25T10:42:11.327Z</time></trkpt><trkpt lat="43.293351" lon="12.7825513"><ele>866.0</ele><time>2026-04-25T10:42:12.323Z</time></trkpt><trkpt lat="43.2933758" lon="12.7824564"><ele>866.0000000000001</ele><time>2026-04-25T10:42:13.324Z</time></trkpt><trkpt lat="43.2934064" lon="12.7823577"><ele>866.0</ele><time>2026-04-25T10:42:14.33Z</time></trkpt><trkpt lat="43.2934411" lon="12.7822617"><ele>865.7142857142857</ele><time>2026-04-25T10:42:15.331Z</time></trkpt><trkpt lat="43.2934738" lon="12.7821746"><ele>865.4285714285714</ele><time>2026-04-25T10:42:16.326Z</time></trkpt><trkpt lat="43.2935043" lon="12.7820904"><ele>865.1428571428571</ele><time>2026-04-25T10:42:17.327Z</time></trkpt><trkpt lat="43.2935358" lon="12.7820077"><ele>864.8571428571429</ele><time>2026-04-25T10:42:18.327Z</time></trkpt><trkpt lat="43.2935703" lon="12.7819254"><ele>864.5714285714286</ele><time>2026-04-25T10:42:19.325Z</time></trkpt><trkpt lat="43.293618" lon="12.7818377"><ele>864.2857142857142</ele><time>2026-04-25T10:42:20.326Z</time></trkpt><trkpt lat="43.2936786" lon="12.781761"><ele>864.0</ele><time>2026-04-25T10:42:21.327Z</time></trkpt><trkpt lat="43.2937347" lon="12.7816966"><ele>864.0</ele><time>2026-04-25T10:42:22.327Z</time></trkpt><trkpt lat="43.2938211" lon="12.7816038"><ele>864.0000000000001</ele><time>2026-04-25T10:42:24.327Z</time></trkpt><trkpt lat="43.2938828" lon="12.7814781"><ele>864.0000000000001</ele><time>2026-04-25T10:42:26.326Z</time></trkpt><trkpt lat="43.2939207" lon="12.7813936"><ele>864.0</ele><time>2026-04-25T10:42:27.324Z</time></trkpt><trkpt lat="43.2939643" lon="12.7812987"><ele>864.0</ele><time>2026-04-25T10:42:28.327Z</time></trkpt><trkpt lat="43.2940118" lon="12.7811889"><ele>860.8333333333334</ele><time>2026-04-25T10:42:29.323Z</time></trkpt><trkpt lat="43.2940517" lon="12.7810788"><ele>857.6666666666667</ele><time>2026-04-25T10:42:30.322Z</time></trkpt><trkpt lat="43.2940908" lon="12.780969"><ele>854.5</ele><time>2026-04-25T10:42:31.33Z</time></trkpt><trkpt lat="43.2941369" lon="12.7808653"><ele>851.3333333333334</ele><time>2026-04-25T10:42:32.326Z</time></trkpt><trkpt lat="43.294191" lon="12.7807709"><ele>848.1666666666667</ele><time>2026-04-25T10:42:33.325Z</time></trkpt><trkpt lat="43.2942471" lon="12.7806789"><ele>845.0</ele><time>2026-04-25T10:42:34.325Z</time></trkpt><trkpt lat="43.2942991" lon="12.7805796"><ele>845.0000000000001</ele><time>2026-04-25T10:42:35.326Z</time></trkpt><trkpt lat="43.2943436" lon="12.7804701"><ele>845.0</ele><time>2026-04-25T10:42:36.329Z</time></trkpt><trkpt lat="43.2943869" lon="12.7803585"><ele>845.0</ele><time>2026-04-25T10:42:37.318Z</time></trkpt><trkpt lat="43.2944267" lon="12.7802456"><ele>845.0</ele><time>2026-04-25T10:42:38.328Z</time></trkpt><trkpt lat="43.2944591" lon="12.7801379"><ele>845.0000000000001</ele><time>2026-04-25T10:42:39.326Z</time></trkpt><trkpt lat="43.2944906" lon="12.7800259"><ele>845.0</ele><time>2026-04-25T10:42:40.323Z</time></trkpt><trkpt lat="43.2945247" lon="12.7799138"><ele>846.2</ele><time>2026-04-25T10:42:41.325Z</time></trkpt><trkpt lat="43.2945621" lon="12.7797983"><ele>847.4</ele><time>2026-04-25T10:42:42.324Z</time></trkpt><trkpt lat="43.2946077" lon="12.779677"><ele>848.5999999999999</ele><time>2026-04-25T10:42:43.325Z</time></trkpt><trkpt lat="43.2946623" lon="12.7795517"><ele>849.8</ele><time>2026-04-25T10:42:44.328Z</time></trkpt><trkpt lat="43.2947216" lon="12.7794188"><ele>851.0</ele><time>2026-04-25T10:42:45.322Z</time></trkpt><trkpt lat="43.2947818" lon="12.7792859"><ele>845.5999999999999</ele><time>2026-04-25T10:42:46.326Z</time></trkpt><trkpt lat="43.2948344" lon="12.7791598"><ele>840.2</ele><time>2026-04-25T10:42:47.327Z</time></trkpt><trkpt lat="43.2948837" lon="12.7790354"><ele>834.8</ele><time>2026-04-25T10:42:48.328Z</time></trkpt><trkpt lat="43.2949316" lon="12.7789084"><ele>829.4000000000001</ele><time>2026-04-25T10:42:49.325Z</time></trkpt><trkpt lat="43.294977" lon="12.7787871"><ele>824.0</ele><time>2026-04-25T10:42:50.323Z</time></trkpt><trkpt lat="43.29502" lon="12.7786726"><ele>824.0</ele><time>2026-04-25T10:42:51.316Z</time></trkpt><trkpt lat="43.2950631" lon="12.7785682"><ele>824.0</ele><time>2026-04-25T10:42:52.33Z</time></trkpt><trkpt lat="43.2951134" lon="12.7784704"><ele>824.0</ele><time>2026-04-25T10:42:53.328Z</time></trkpt><trkpt lat="43.2951735" lon="12.7783759"><ele>824.0</ele><time>2026-04-25T10:42:54.324Z</time></trkpt><trkpt lat="43.2952405" lon="12.7782848"><ele>824.0</ele><time>2026-04-25T10:42:55.325Z</time></trkpt><trkpt lat="43.2953071" lon="12.7781954"><ele>824.8333333333334</ele><time>2026-04-25T10:42:56.328Z</time></trkpt><trkpt lat="43.2953693" lon="12.7781036"><ele>825.6666666666667</ele><time>2026-04-25T10:42:57.329Z</time></trkpt><trkpt lat="43.2954309" lon="12.7780137"><ele>826.5</ele><time>2026-04-25T10:42:58.322Z</time></trkpt><trkpt lat="43.2954896" lon="12.7779232"><ele>827.3333333333333</ele><time>2026-04-25T10:42:59.328Z</time></trkpt><trkpt lat="43.2955458" lon="12.777835"><ele>828.1666666666666</ele><time>2026-04-25T10:43:00.323Z</time></trkpt><trkpt lat="43.2955988" lon="12.7777477"><ele>829.0</ele><time>2026-04-25T10:43:01.331Z</time></trkpt><trkpt lat="43.295649" lon="12.7776656"><ele>826.8333333333333</ele><time>2026-04-25T10:43:02.32Z</time></trkpt><trkpt lat="43.2956935" lon="12.7775903"><ele>824.6666666666666</ele><time>2026-04-25T10:43:03.33Z</time></trkpt><trkpt lat="43.295748" lon="12.777491"><ele>822.5</ele><time>2026-04-25T10:43:05.323Z</time></trkpt><trkpt lat="43.2957491" lon="12.7773795"><ele>820.3333333333333</ele><time>2026-04-25T10:43:08.325Z</time></trkpt><trkpt lat="43.2956889" lon="12.7772798"><ele>818.1666666666666</ele><time>2026-04-25T10:43:10.327Z</time></trkpt><trkpt lat="43.295646" lon="12.7772119"><ele>816.0</ele><time>2026-04-25T10:43:11.322Z</time></trkpt><trkpt lat="43.2956014" lon="12.7771418"><ele>818.4</ele><time>2026-04-25T10:43:12.32Z</time></trkpt><trkpt lat="43.2954963" lon="12.7770512"><ele>820.8</ele><time>2026-04-25T10:43:14.33Z</time></trkpt><trkpt lat="43.2954241" lon="12.7770059"><ele>823.1999999999999</ele><time>2026-04-25T10:43:15.323Z</time></trkpt><trkpt lat="43.2953379" lon="12.7769464"><ele>825.5999999999999</ele><time>2026-04-25T10:43:16.32Z</time></trkpt><trkpt lat="43.2952525" lon="12.7768754"><ele>828.0</ele><time>2026-04-25T10:43:17.33Z</time></trkpt><trkpt lat="43.2951754" lon="12.7767831"><ele>828.0</ele><time>2026-04-25T10:43:18.329Z</time></trkpt><trkpt lat="43.2950967" lon="12.77667"><ele>828.0</ele><time>2026-04-25T10:43:19.328Z</time></trkpt><trkpt lat="43.295018" lon="12.7765614"><ele>828.0</ele><time>2026-04-25T10:43:20.327Z</time></trkpt><trkpt lat="43.2949427" lon="12.7764774"><ele>828.0</ele><time>2026-04-25T10:43:21.329Z</time></trkpt><trkpt lat="43.2948727" lon="12.7764154"><ele>828.0</ele><time>2026-04-25T10:43:22.321Z</time></trkpt><trkpt lat="43.2948161" lon="12.7763663"><ele>832.8</ele><time>2026-04-25T10:43:23.329Z</time></trkpt><trkpt lat="43.2947335" lon="12.7763338"><ele>837.5999999999999</ele><time>2026-04-25T10:43:25.328Z</time></trkpt><trkpt lat="43.2946502" lon="12.7763883"><ele>842.4000000000001</ele><time>2026-04-25T10:43:27.326Z</time></trkpt><trkpt lat="43.2945839" lon="12.7765259"><ele>847.2</ele><time>2026-04-25T10:43:29.323Z</time></trkpt><trkpt lat="43.2945497" lon="12.7766133"><ele>852.0</ele><time>2026-04-25T10:43:30.327Z</time></trkpt><trkpt lat="43.2945171" lon="12.7767135"><ele>852.0</ele><time>2026-04-25T10:43:31.334Z</time></trkpt><trkpt lat="43.2944891" lon="12.7768217"><ele>852.0</ele><time>2026-04-25T10:43:32.332Z</time></trkpt><trkpt lat="43.2944664" lon="12.7769308"><ele>852.0</ele><time>2026-04-25T10:43:33.32Z</time></trkpt><trkpt lat="43.2944522" lon="12.7770332"><ele>852.0</ele><time>2026-04-25T10:43:34.328Z</time></trkpt><trkpt lat="43.2944355" lon="12.777124"><ele>852.0</ele><time>2026-04-25T10:43:35.319Z</time></trkpt><trkpt lat="43.2944119" lon="12.7772191"><ele>852.0</ele><time>2026-04-25T10:43:36.326Z</time></trkpt><trkpt lat="43.2943748" lon="12.7773192"><ele>852.4000000000001</ele><time>2026-04-25T10:43:37.327Z</time></trkpt><trkpt lat="43.294327" lon="12.7774193"><ele>852.8000000000001</ele><time>2026-04-25T10:43:38.319Z</time></trkpt><trkpt lat="43.2942764" lon="12.7775263"><ele>853.2</ele><time>2026-04-25T10:43:39.331Z</time></trkpt><trkpt lat="43.2942275" lon="12.7776311"><ele>853.6</ele><time>2026-04-25T10:43:40.317Z</time></trkpt><trkpt lat="43.2941758" lon="12.777735"><ele>854.0</ele><time>2026-04-25T10:43:41.327Z</time></trkpt><trkpt lat="43.2941257" lon="12.777836"><ele>854.1666666666667</ele><time>2026-04-25T10:43:42.329Z</time></trkpt><trkpt lat="43.2940801" lon="12.7779307"><ele>854.3333333333334</ele><time>2026-04-25T10:43:43.327Z</time></trkpt><trkpt lat="43.2940351" lon="12.7780133"><ele>854.5</ele><time>2026-04-25T10:43:44.328Z</time></trkpt><trkpt lat="43.2939911" lon="12.7780823"><ele>854.6666666666667</ele><time>2026-04-25T10:43:45.326Z</time></trkpt><trkpt lat="43.2939436" lon="12.7781541"><ele>854.8333333333334</ele><time>2026-04-25T10:43:46.329Z</time></trkpt><trkpt lat="43.2938937" lon="12.7782397"><ele>855.0</ele><time>2026-04-25T10:43:47.328Z</time></trkpt><trkpt lat="43.293844" lon="12.7783423"><ele>860.6</ele><time>2026-04-25T10:43:48.328Z</time></trkpt><trkpt lat="43.2937918" lon="12.7784639"><ele>866.2</ele><time>2026-04-25T10:43:49.329Z</time></trkpt><trkpt lat="43.2937459" lon="12.7785888"><ele>871.8</ele><time>2026-04-25T10:43:50.324Z</time></trkpt><trkpt lat="43.2937107" lon="12.7787169"><ele>877.4</ele><time>2026-04-25T10:43:51.328Z</time></trkpt><trkpt lat="43.2936865" lon="12.7788375"><ele>883.0</ele><time>2026-04-25T10:43:52.33Z</time></trkpt><trkpt lat="43.293671" lon="12.7789458"><ele>882.9999999999999</ele><time>2026-04-25T10:43:53.328Z</time></trkpt><trkpt lat="43.2936565" lon="12.7790401"><ele>883.0</ele><time>2026-04-25T10:43:54.327Z</time></trkpt><trkpt lat="43.2936402" lon="12.7791238"><ele>883.0</ele><time>2026-04-25T10:43:55.329Z</time></trkpt><trkpt lat="43.2936251" lon="12.7792157"><ele>883.0</ele><time>2026-04-25T10:43:56.329Z</time></trkpt><trkpt lat="43.293605" lon="12.7793142"><ele>882.9999999999999</ele><time>2026-04-25T10:43:57.325Z</time></trkpt><trkpt lat="43.293578" lon="12.7794079"><ele>883.0</ele><time>2026-04-25T10:43:58.325Z</time></trkpt><trkpt lat="43.2935237" lon="12.7795337"><ele>882.9999999999999</ele><time>2026-04-25T10:44:00.328Z</time></trkpt><trkpt lat="43.2934431" lon="12.779556"><ele>883.0</ele><time>2026-04-25T10:44:02.333Z</time></trkpt><trkpt lat="43.293379" lon="12.7795578"><ele>883.0</ele><time>2026-04-25T10:44:03.321Z</time></trkpt><trkpt lat="43.2932967" lon="12.779542"><ele>883.0</ele><time>2026-04-25T10:44:04.328Z</time></trkpt><trkpt lat="43.2932073" lon="12.779519"><ele>882.9999999999999</ele><time>2026-04-25T10:44:05.325Z</time></trkpt><trkpt lat="43.2931182" lon="12.7794975"><ele>883.0</ele><time>2026-04-25T10:44:06.328Z</time></trkpt><trkpt lat="43.2930394" lon="12.7794788"><ele>882.9999999999999</ele><time>2026-04-25T10:44:07.331Z</time></trkpt><trkpt lat="43.2929704" lon="12.7794544"><ele>883.0</ele><time>2026-04-25T10:44:08.328Z</time></trkpt><trkpt lat="43.2928933" lon="12.7794174"><ele>883.0</ele><time>2026-04-25T10:44:09.331Z</time></trkpt><trkpt lat="43.2928089" lon="12.7793782"><ele>883.0</ele><time>2026-04-25T10:44:10.327Z</time></trkpt><trkpt lat="43.2927202" lon="12.7793396"><ele>882.9999999999999</ele><time>2026-04-25T10:44:11.327Z</time></trkpt><trkpt lat="43.2926315" lon="12.7793091"><ele>883.0</ele><time>2026-04-25T10:44:12.331Z</time></trkpt><trkpt lat="43.2925398" lon="12.7792876"><ele>883.8333333333333</ele><time>2026-04-25T10:44:13.324Z</time></trkpt><trkpt lat="43.2924465" lon="12.7792719"><ele>884.6666666666666</ele><time>2026-04-25T10:44:14.326Z</time></trkpt><trkpt lat="43.2923533" lon="12.7792588"><ele>885.5</ele><time>2026-04-25T10:44:15.327Z</time></trkpt><trkpt lat="43.2922628" lon="12.7792455"><ele>886.3333333333333</ele><time>2026-04-25T10:44:16.324Z</time></trkpt><trkpt lat="43.2921762" lon="12.7792372"><ele>887.1666666666666</ele><time>2026-04-25T10:44:17.327Z</time></trkpt><trkpt lat="43.2920951" lon="12.7792398"><ele>888.0</ele><time>2026-04-25T10:44:18.322Z</time></trkpt><trkpt lat="43.2920176" lon="12.7792579"><ele>888.0</ele><time>2026-04-25T10:44:19.327Z</time></trkpt><trkpt lat="43.2919432" lon="12.7792869"><ele>888.0</ele><time>2026-04-25T10:44:20.323Z</time></trkpt><trkpt lat="43.2918707" lon="12.7793158"><ele>888.0</ele><time>2026-04-25T10:44:21.329Z</time></trkpt><trkpt lat="43.2918007" lon="12.7793445"><ele>888.0</ele><time>2026-04-25T10:44:22.328Z</time></trkpt><trkpt lat="43.2917386" lon="12.7793863"><ele>888.0</ele><time>2026-04-25T10:44:23.324Z</time></trkpt><trkpt lat="43.2916929" lon="12.7794502"><ele>888.0</ele><time>2026-04-25T10:44:24.317Z</time></trkpt><trkpt lat="43.2916664" lon="12.7795388"><ele>888.0</ele><time>2026-04-25T10:44:25.325Z</time></trkpt><trkpt lat="43.2916523" lon="12.7796418"><ele>889.8333333333334</ele><time>2026-04-25T10:44:26.321Z</time></trkpt><trkpt lat="43.2916439" lon="12.7797463"><ele>891.6666666666667</ele><time>2026-04-25T10:44:27.327Z</time></trkpt><trkpt lat="43.2916315" lon="12.7798509"><ele>893.5</ele><time>2026-04-25T10:44:28.328Z</time></trkpt><trkpt lat="43.2916123" lon="12.779958"><ele>895.3333333333334</ele><time>2026-04-25T10:44:29.326Z</time></trkpt><trkpt lat="43.2915891" lon="12.780064"><ele>897.1666666666667</ele><time>2026-04-25T10:44:30.329Z</time></trkpt><trkpt lat="43.2915698" lon="12.7801681"><ele>899.0</ele><time>2026-04-25T10:44:31.329Z</time></trkpt><trkpt lat="43.291552" lon="12.7802678"><ele>900.6</ele><time>2026-04-25T10:44:32.329Z</time></trkpt><trkpt lat="43.29153" lon="12.7803539"><ele>902.2</ele><time>2026-04-25T10:44:33.329Z</time></trkpt><trkpt lat="43.2914681" lon="12.7804748"><ele>903.8000000000001</ele><time>2026-04-25T10:44:35.329Z</time></trkpt><trkpt lat="43.2913836" lon="12.7805639"><ele>905.4000000000001</ele><time>2026-04-25T10:44:37.327Z</time></trkpt><trkpt lat="43.2912876" lon="12.7806747"><ele>907.0</ele><time>2026-04-25T10:44:39.328Z</time></trkpt><trkpt lat="43.2912376" lon="12.7807356"><ele>908.0000000000001</ele><time>2026-04-25T10:44:40.327Z</time></trkpt><trkpt lat="43.291179" lon="12.7807839"><ele>909.0</ele><time>2026-04-25T10:44:41.326Z</time></trkpt><trkpt lat="43.2911067" lon="12.7808262"><ele>910.0000000000001</ele><time>2026-04-25T10:44:42.323Z</time></trkpt><trkpt lat="43.2910272" lon="12.7808577"><ele>911.0000000000001</ele><time>2026-04-25T10:44:43.324Z</time></trkpt><trkpt lat="43.2909528" lon="12.7808745"><ele>912.0</ele><time>2026-04-25T10:44:44.325Z</time></trkpt><trkpt lat="43.2908868" lon="12.7808728"><ele>913.0000000000001</ele><time>2026-04-25T10:44:45.329Z</time></trkpt><trkpt lat="43.2908247" lon="12.7808399"><ele>914.0000000000001</ele><time>2026-04-25T10:44:46.327Z</time></trkpt><trkpt lat="43.2907701" lon="12.7807661"><ele>914.0000000000001</ele><time>2026-04-25T10:44:47.326Z</time></trkpt><trkpt lat="43.2907166" lon="12.7806818"><ele>914.0</ele><time>2026-04-25T10:44:48.328Z</time></trkpt><trkpt lat="43.2906574" lon="12.7806091"><ele>914.0</ele><time>2026-04-25T10:44:49.321Z</time></trkpt><trkpt lat="43.2905855" lon="12.7805494"><ele>914.0</ele><time>2026-04-25T10:44:50.317Z</time></trkpt><trkpt lat="43.2905013" lon="12.7804896"><ele>914.0000000000001</ele><time>2026-04-25T10:44:51.317Z</time></trkpt><trkpt lat="43.2904134" lon="12.7804146"><ele>914.0</ele><time>2026-04-25T10:44:52.321Z</time></trkpt><trkpt lat="43.2903318" lon="12.780333"><ele>917.6</ele><time>2026-04-25T10:44:53.324Z</time></trkpt><trkpt lat="43.2902639" lon="12.7802412"><ele>921.2</ele><time>2026-04-25T10:44:54.326Z</time></trkpt><trkpt lat="43.2902101" lon="12.7801336"><ele>924.8000000000001</ele><time>2026-04-25T10:44:55.326Z</time></trkpt><trkpt lat="43.2901639" lon="12.7800257"><ele>928.4000000000001</ele><time>2026-04-25T10:44:56.317Z</time></trkpt><trkpt lat="43.2901122" lon="12.779931"><ele>932.0</ele><time>2026-04-25T10:44:57.325Z</time></trkpt><trkpt lat="43.2900505" lon="12.7798498"><ele>932.0</ele><time>2026-04-25T10:44:58.323Z</time></trkpt><trkpt lat="43.2899784" lon="12.7797642"><ele>932.0</ele><time>2026-04-25T10:44:59.326Z</time></trkpt><trkpt lat="43.2899005" lon="12.7796629"><ele>932.0</ele><time>2026-04-25T10:45:00.323Z</time></trkpt><trkpt lat="43.2898222" lon="12.7795568"><ele>932.0</ele><time>2026-04-25T10:45:01.326Z</time></trkpt><trkpt lat="43.2897582" lon="12.779479"><ele>932.0</ele><time>2026-04-25T10:45:02.321Z</time></trkpt><trkpt lat="43.2896916" lon="12.7794295"><ele>934.8333333333334</ele><time>2026-04-25T10:45:03.318Z</time></trkpt><trkpt lat="43.2896053" lon="12.7793845"><ele>937.6666666666667</ele><time>2026-04-25T10:45:04.316Z</time></trkpt><trkpt lat="43.2895142" lon="12.779333"><ele>940.5</ele><time>2026-04-25T10:45:05.322Z</time></trkpt><trkpt lat="43.2894399" lon="12.7792708"><ele>943.3333333333333</ele><time>2026-04-25T10:45:06.326Z</time></trkpt><trkpt lat="43.2893824" lon="12.779191"><ele>946.1666666666666</ele><time>2026-04-25T10:45:07.327Z</time></trkpt><trkpt lat="43.2893319" lon="12.7791021"><ele>949.0</ele><time>2026-04-25T10:45:08.323Z</time></trkpt><trkpt lat="43.2892812" lon="12.7790246"><ele>949.0</ele><time>2026-04-25T10:45:09.328Z</time></trkpt><trkpt lat="43.2892215" lon="12.7789623"><ele>949.0000000000001</ele><time>2026-04-25T10:45:10.315Z</time></trkpt><trkpt lat="43.2891501" lon="12.7789057"><ele>949.0000000000001</ele><time>2026-04-25T10:45:11.328Z</time></trkpt><trkpt lat="43.2890597" lon="12.7788434"><ele>949.0</ele><time>2026-04-25T10:45:12.329Z</time></trkpt><trkpt lat="43.2889543" lon="12.7787621"><ele>949.0</ele><time>2026-04-25T10:45:13.325Z</time></trkpt><trkpt lat="43.2888659" lon="12.7786762"><ele>951.8000000000001</ele><time>2026-04-25T10:45:14.317Z</time></trkpt><trkpt lat="43.2888035" lon="12.7786026"><ele>954.6000000000001</ele><time>2026-04-25T10:45:15.323Z</time></trkpt><trkpt lat="43.2887166" lon="12.7785455"><ele>957.4</ele><time>2026-04-25T10:45:17.324Z</time></trkpt><trkpt lat="43.2885815" lon="12.7785982"><ele>960.2</ele><time>2026-04-25T10:45:19.318Z</time></trkpt><trkpt lat="43.2884867" lon="12.7786261"><ele>963.0</ele><time>2026-04-25T10:45:20.329Z</time></trkpt><trkpt lat="43.2883843" lon="12.7786405"><ele>963.0</ele><time>2026-04-25T10:45:21.325Z</time></trkpt><trkpt lat="43.2882795" lon="12.7786345"><ele>963.0</ele><time>2026-04-25T10:45:22.329Z</time></trkpt><trkpt lat="43.2881628" lon="12.7786195"><ele>963.0</ele><time>2026-04-25T10:45:23.322Z</time></trkpt><trkpt lat="43.2880277" lon="12.7786101"><ele>963.0</ele><time>2026-04-25T10:45:24.326Z</time></trkpt><trkpt lat="43.2878845" lon="12.7786051"><ele>961.5</ele><time>2026-04-25T10:45:25.327Z</time></trkpt><trkpt lat="43.2877473" lon="12.7785993"><ele>960.0</ele><time>2026-04-25T10:45:26.315Z</time></trkpt><trkpt lat="43.2876201" lon="12.7785835"><ele>958.5</ele><time>2026-04-25T10:45:27.327Z</time></trkpt><trkpt lat="43.2874863" lon="12.7785534"><ele>957.0</ele><time>2026-04-25T10:45:28.326Z</time></trkpt><trkpt lat="43.2873504" lon="12.7785138"><ele>957.4000000000001</ele><time>2026-04-25T10:45:29.326Z</time></trkpt><trkpt lat="43.287242" lon="12.7784788"><ele>957.8000000000001</ele><time>2026-04-25T10:45:30.329Z</time></trkpt><trkpt lat="43.2871559" lon="12.7784526"><ele>958.2</ele><time>2026-04-25T10:45:31.328Z</time></trkpt><trkpt lat="43.2870859" lon="12.7784419"><ele>958.6</ele><time>2026-04-25T10:45:32.329Z</time></trkpt><trkpt lat="43.2869653" lon="12.7784776"><ele>959.0</ele><time>2026-04-25T10:45:34.326Z</time></trkpt><trkpt lat="43.2868912" lon="12.7785242"><ele>963.4000000000001</ele><time>2026-04-25T10:45:35.321Z</time></trkpt><trkpt lat="43.2868031" lon="12.778567"><ele>967.8000000000001</ele><time>2026-04-25T10:45:36.323Z</time></trkpt><trkpt lat="43.2867129" lon="12.7785796"><ele>972.1999999999999</ele><time>2026-04-25T10:45:37.319Z</time></trkpt><trkpt lat="43.286605" lon="12.7785699"><ele>976.5999999999999</ele><time>2026-04-25T10:45:38.315Z</time></trkpt><trkpt lat="43.2864748" lon="12.7785494"><ele>981.0</ele><time>2026-04-25T10:45:39.326Z</time></trkpt><trkpt lat="43.2863365" lon="12.7785345"><ele>981.1999999999999</ele><time>2026-04-25T10:45:40.326Z</time></trkpt><trkpt lat="43.2862131" lon="12.7785176"><ele>981.3999999999999</ele><time>2026-04-25T10:45:41.325Z</time></trkpt><trkpt lat="43.2861126" lon="12.778498"><ele>981.6</ele><time>2026-04-25T10:45:42.33Z</time></trkpt><trkpt lat="43.286028" lon="12.7784876"><ele>981.8</ele><time>2026-04-25T10:45:43.32Z</time></trkpt><trkpt lat="43.285945" lon="12.7785015"><ele>982.0</ele><time>2026-04-25T10:45:44.328Z</time></trkpt><trkpt lat="43.2858458" lon="12.7785403"><ele>982.0</ele><time>2026-04-25T10:45:45.323Z</time></trkpt><trkpt lat="43.2857285" lon="12.7785814"><ele>982.0</ele><time>2026-04-25T10:45:46.325Z</time></trkpt><trkpt lat="43.2856136" lon="12.7786159"><ele>982.0</ele><time>2026-04-25T10:45:47.327Z</time></trkpt><trkpt lat="43.2854967" lon="12.7786375"><ele>982.0</ele><time>2026-04-25T10:45:48.327Z</time></trkpt><trkpt lat="43.2853737" lon="12.7786356"><ele>980.75</ele><time>2026-04-25T10:45:49.326Z</time></trkpt><trkpt lat="43.2852482" lon="12.7786191"><ele>979.5</ele><time>2026-04-25T10:45:50.325Z</time></trkpt><trkpt lat="43.2851281" lon="12.7786033"><ele>978.25</ele><time>2026-04-25T10:45:51.328Z</time></trkpt><trkpt lat="43.2850101" lon="12.7785921"><ele>977.0</ele><time>2026-04-25T10:45:52.329Z</time></trkpt><trkpt lat="43.2848949" lon="12.7785792"><ele>977.0</ele><time>2026-04-25T10:45:53.326Z</time></trkpt><trkpt lat="43.2847857" lon="12.7785613"><ele>977.0</ele><time>2026-04-25T10:45:54.323Z</time></trkpt><trkpt lat="43.284681" lon="12.7785305"><ele>977.0</ele><time>2026-04-25T10:45:55.326Z</time></trkpt><trkpt lat="43.2845795" lon="12.7784835"><ele>977.0</ele><time>2026-04-25T10:45:56.317Z</time></trkpt><trkpt lat="43.2844797" lon="12.7784366"><ele>977.0</ele><time>2026-04-25T10:45:57.32Z</time></trkpt><trkpt lat="43.284373" lon="12.7784003"><ele>974.75</ele><time>2026-04-25T10:45:58.329Z</time></trkpt><trkpt lat="43.2842601" lon="12.7783692"><ele>972.5</ele><time>2026-04-25T10:45:59.326Z</time></trkpt><trkpt lat="43.2841415" lon="12.7783276"><ele>970.25</ele><time>2026-04-25T10:46:00.328Z</time></trkpt><trkpt lat="43.2840196" lon="12.7782813"><ele>968.0</ele><time>2026-04-25T10:46:01.326Z</time></trkpt><trkpt lat="43.2838973" lon="12.7782337"><ele>968.0</ele><time>2026-04-25T10:46:02.325Z</time></trkpt><trkpt lat="43.2837843" lon="12.7781863"><ele>968.0</ele><time>2026-04-25T10:46:03.324Z</time></trkpt><trkpt lat="43.2836825" lon="12.7781436"><ele>968.0</ele><time>2026-04-25T10:46:04.322Z</time></trkpt><trkpt lat="43.2835871" lon="12.7781047"><ele>968.0</ele><time>2026-04-25T10:46:05.323Z</time></trkpt><trkpt lat="43.2834999" lon="12.7780666"><ele>968.0</ele><time>2026-04-25T10:46:06.322Z</time></trkpt><trkpt lat="43.2834233" lon="12.7780315"><ele>968.0000000000001</ele><time>2026-04-25T10:46:07.325Z</time></trkpt><trkpt lat="43.2833611" lon="12.7780015"><ele>968.0</ele><time>2026-04-25T10:46:08.33Z</time></trkpt><trkpt lat="43.2832961" lon="12.7779629"><ele>968.0</ele><time>2026-04-25T10:46:10.324Z</time></trkpt><trkpt lat="43.283234" lon="12.7779969"><ele>968.0</ele><time>2026-04-25T10:46:13.319Z</time></trkpt><trkpt lat="43.2831217" lon="12.7780353"><ele>968.0000000000001</ele><time>2026-04-25T10:46:15.322Z</time></trkpt><trkpt lat="43.2830483" lon="12.7780263"><ele>968.0</ele><time>2026-04-25T10:46:16.327Z</time></trkpt><trkpt lat="43.2829701" lon="12.7780309"><ele>968.5999999999999</ele><time>2026-04-25T10:46:17.325Z</time></trkpt><trkpt lat="43.2828777" lon="12.7780546"><ele>969.1999999999999</ele><time>2026-04-25T10:46:18.324Z</time></trkpt><trkpt lat="43.2827774" lon="12.778086"><ele>969.8</ele><time>2026-04-25T10:46:19.318Z</time></trkpt><trkpt lat="43.2826787" lon="12.7781148"><ele>970.4</ele><time>2026-04-25T10:46:20.318Z</time></trkpt><trkpt lat="43.2825772" lon="12.7781433"><ele>971.0</ele><time>2026-04-25T10:46:21.329Z</time></trkpt><trkpt lat="43.2824683" lon="12.7781738"><ele>971.0</ele><time>2026-04-25T10:46:22.324Z</time></trkpt><trkpt lat="43.2823586" lon="12.7782127"><ele>970.9999999999999</ele><time>2026-04-25T10:46:23.328Z</time></trkpt><trkpt lat="43.2822615" lon="12.7782577"><ele>970.9999999999999</ele><time>2026-04-25T10:46:24.326Z</time></trkpt><trkpt lat="43.2821886" lon="12.7782962"><ele>971.0</ele><time>2026-04-25T10:46:25.32Z</time></trkpt><trkpt lat="43.2821076" lon="12.7783329"><ele>971.0</ele><time>2026-04-25T10:46:27.327Z</time></trkpt><trkpt lat="43.2820731" lon="12.7784194"><ele>971.0</ele><time>2026-04-25T10:46:31.33Z</time></trkpt><trkpt lat="43.2821562" lon="12.7783662"><ele>970.9999999999999</ele><time>2026-04-25T10:46:39.329Z</time></trkpt><trkpt lat="43.2822128" lon="12.7783098"><ele>970.9999999999999</ele><time>2026-04-25T10:46:40.328Z</time></trkpt><trkpt lat="43.2822875" lon="12.7782482"><ele>971.0</ele><time>2026-04-25T10:46:41.334Z</time></trkpt><trkpt lat="43.2823845" lon="12.7781915"><ele>971.0</ele><time>2026-04-25T10:46:42.331Z</time></trkpt><trkpt lat="43.2824963" lon="12.7781429"><ele>960.0</ele><time>2026-04-25T10:46:43.319Z</time></trkpt><trkpt lat="43.2843927" lon="12.778517"><ele>960.0</ele><time>2026-04-25T10:47:18.331Z</time></trkpt><trkpt lat="43.2844327" lon="12.7784372"><ele>960.0</ele><time>2026-04-25T10:47:22.34Z</time></trkpt><trkpt lat="43.2843597" lon="12.7783883"><ele>960.0</ele><time>2026-04-25T10:47:24.334Z</time></trkpt><trkpt lat="43.2842935" lon="12.7783621"><ele>960.0</ele><time>2026-04-25T10:47:25.324Z</time></trkpt><trkpt lat="43.2842025" lon="12.7783273"><ele>960.0</ele><time>2026-04-25T10:47:26.343Z</time></trkpt><trkpt lat="43.2840934" lon="12.7782829"><ele>960.0</ele><time>2026-04-25T10:47:27.338Z</time></trkpt><trkpt lat="43.2839775" lon="12.7782365"><ele>961.6</ele><time>2026-04-25T10:47:28.317Z</time></trkpt><trkpt lat="43.283866" lon="12.7781942"><ele>963.2</ele><time>2026-04-25T10:47:29.321Z</time></trkpt><trkpt lat="43.2837635" lon="12.7781508"><ele>964.8</ele><time>2026-04-25T10:47:30.326Z</time></trkpt><trkpt lat="43.2836653" lon="12.7781109"><ele>966.4</ele><time>2026-04-25T10:47:31.328Z</time></trkpt><trkpt lat="43.2835715" lon="12.7780653"><ele>968.0</ele><time>2026-04-25T10:47:32.326Z</time></trkpt><trkpt lat="43.2834815" lon="12.7780266"><ele>968.0000000000001</ele><time>2026-04-25T10:47:33.324Z</time></trkpt><trkpt lat="43.2834026" lon="12.777998"><ele>968.0</ele><time>2026-04-25T10:47:34.324Z</time></trkpt><trkpt lat="43.2833373" lon="12.7779711"><ele>968.0</ele><time>2026-04-25T10:47:35.32Z</time></trkpt><trkpt lat="43.2832329" lon="12.7778845"><ele>968.0</ele><time>2026-04-25T10:47:37.322Z</time></trkpt><trkpt lat="43.2831661" lon="12.7778309"><ele>968.0000000000001</ele><time>2026-04-25T10:47:38.327Z</time></trkpt><trkpt lat="43.2830849" lon="12.777784"><ele>968.0</ele><time>2026-04-25T10:47:39.323Z</time></trkpt><trkpt lat="43.2829933" lon="12.7777385"><ele>968.5999999999999</ele><time>2026-04-25T10:47:40.312Z</time></trkpt><trkpt lat="43.2829022" lon="12.7776899"><ele>969.1999999999999</ele><time>2026-04-25T10:47:41.325Z</time></trkpt><trkpt lat="43.2828146" lon="12.7776385"><ele>969.8</ele><time>2026-04-25T10:47:42.327Z</time></trkpt><trkpt lat="43.2827275" lon="12.7775812"><ele>970.4</ele><time>2026-04-25T10:47:43.33Z</time></trkpt><trkpt lat="43.2826373" lon="12.7775238"><ele>971.0</ele><time>2026-04-25T10:47:44.328Z</time></trkpt><trkpt lat="43.2825467" lon="12.7774686"><ele>967.1999999999999</ele><time>2026-04-25T10:47:45.332Z</time></trkpt><trkpt lat="43.2824545" lon="12.7774154"><ele>963.3999999999999</ele><time>2026-04-25T10:47:46.317Z</time></trkpt><trkpt lat="43.2823617" lon="12.7773634"><ele>959.6</ele><time>2026-04-25T10:47:47.325Z</time></trkpt><trkpt lat="43.2822676" lon="12.7773138"><ele>955.8</ele><time>2026-04-25T10:47:48.327Z</time></trkpt><trkpt lat="43.2821722" lon="12.7772683"><ele>952.0</ele><time>2026-04-25T10:47:49.329Z</time></trkpt><trkpt lat="43.2820753" lon="12.7772288"><ele>951.0</ele><time>2026-04-25T10:47:50.323Z</time></trkpt><trkpt lat="43.2819765" lon="12.7771948"><ele>950.0</ele><time>2026-04-25T10:47:51.324Z</time></trkpt><trkpt lat="43.2818769" lon="12.7771637"><ele>949.0</ele><time>2026-04-25T10:47:52.329Z</time></trkpt><trkpt lat="43.2817777" lon="12.7771348"><ele>948.0</ele><time>2026-04-25T10:47:53.317Z</time></trkpt><trkpt lat="43.2816766" lon="12.777115"><ele>947.0</ele><time>2026-04-25T10:47:54.316Z</time></trkpt><trkpt lat="43.2815745" lon="12.7771066"><ele>947.0</ele><time>2026-04-25T10:47:55.318Z</time></trkpt><trkpt lat="43.2814747" lon="12.777107"><ele>947.0</ele><time>2026-04-25T10:47:56.323Z</time></trkpt><trkpt lat="43.2813796" lon="12.7771132"><ele>947.0</ele><time>2026-04-25T10:47:57.317Z</time></trkpt><trkpt lat="43.2812941" lon="12.7771242"><ele>947.0</ele><time>2026-04-25T10:47:58.327Z</time></trkpt><trkpt lat="43.2812187" lon="12.7771358"><ele>947.0</ele><time>2026-04-25T10:47:59.326Z</time></trkpt><trkpt lat="43.2811134" lon="12.7771092"><ele>945.8333333333334</ele><time>2026-04-25T10:48:01.323Z</time></trkpt><trkpt lat="43.281105" lon="12.776995"><ele>944.6666666666667</ele><time>2026-04-25T10:48:03.32Z</time></trkpt><trkpt lat="43.281188" lon="12.7768886"><ele>943.5</ele><time>2026-04-25T10:48:05.328Z</time></trkpt><trkpt lat="43.2812456" lon="12.7768442"><ele>942.3333333333333</ele><time>2026-04-25T10:48:06.322Z</time></trkpt><trkpt lat="43.281304" lon="12.7767949"><ele>941.1666666666666</ele><time>2026-04-25T10:48:07.321Z</time></trkpt><trkpt lat="43.2813665" lon="12.7767458"><ele>940.0</ele><time>2026-04-25T10:48:08.318Z</time></trkpt><trkpt lat="43.2814311" lon="12.7766965"><ele>937.3333333333333</ele><time>2026-04-25T10:48:09.326Z</time></trkpt><trkpt lat="43.2814945" lon="12.7766445"><ele>934.6666666666666</ele><time>2026-04-25T10:48:10.324Z</time></trkpt><trkpt lat="43.2815569" lon="12.776586"><ele>932.0</ele><time>2026-04-25T10:48:11.325Z</time></trkpt><trkpt lat="43.2816213" lon="12.7765246"><ele>929.3333333333333</ele><time>2026-04-25T10:48:12.328Z</time></trkpt><trkpt lat="43.2816889" lon="12.7764655"><ele>926.6666666666666</ele><time>2026-04-25T10:48:13.324Z</time></trkpt><trkpt lat="43.2817614" lon="12.7764113"><ele>924.0</ele><time>2026-04-25T10:48:14.326Z</time></trkpt><trkpt lat="43.2818378" lon="12.7763667"><ele>924.0</ele><time>2026-04-25T10:48:15.324Z</time></trkpt><trkpt lat="43.2819195" lon="12.7763292"><ele>924.0</ele><time>2026-04-25T10:48:16.327Z</time></trkpt><trkpt lat="43.2820035" lon="12.7763002"><ele>924.0</ele><time>2026-04-25T10:48:17.328Z</time></trkpt><trkpt lat="43.282087" lon="12.7762791"><ele>924.0</ele><time>2026-04-25T10:48:18.318Z</time></trkpt><trkpt lat="43.2821598" lon="12.7762636"><ele>924.0</ele><time>2026-04-25T10:48:19.322Z</time></trkpt><trkpt lat="43.2822497" lon="12.7762013"><ele>924.0</ele><time>2026-04-25T10:48:21.326Z</time></trkpt><trkpt lat="43.2822338" lon="12.7760928"><ele>924.0</ele><time>2026-04-25T10:48:23.319Z</time></trkpt><trkpt lat="43.2821178" lon="12.7760386"><ele>924.0000000000001</ele><time>2026-04-25T10:48:25.321Z</time></trkpt><trkpt lat="43.2820324" lon="12.776034"><ele>924.0000000000001</ele><time>2026-04-25T10:48:26.328Z</time></trkpt><trkpt lat="43.2819311" lon="12.7760302"><ele>924.0</ele><time>2026-04-25T10:48:27.327Z</time></trkpt><trkpt lat="43.2818181" lon="12.7760228"><ele>924.0</ele><time>2026-04-25T10:48:28.324Z</time></trkpt><trkpt lat="43.2817034" lon="12.7760123"><ele>920.6</ele><time>2026-04-25T10:48:29.326Z</time></trkpt><trkpt lat="43.2815933" lon="12.7759984"><ele>917.2</ele><time>2026-04-25T10:48:30.319Z</time></trkpt><trkpt lat="43.2814859" lon="12.7759909"><ele>913.8000000000001</ele><time>2026-04-25T10:48:31.326Z</time></trkpt><trkpt lat="43.2813841" lon="12.7759886"><ele>910.4000000000001</ele><time>2026-04-25T10:48:32.322Z</time></trkpt><trkpt lat="43.2812831" lon="12.7759886"><ele>907.0</ele><time>2026-04-25T10:48:33.324Z</time></trkpt><trkpt lat="43.2811828" lon="12.7759886"><ele>905.0</ele><time>2026-04-25T10:48:34.323Z</time></trkpt><trkpt lat="43.2810826" lon="12.7759855"><ele>903.0</ele><time>2026-04-25T10:48:35.323Z</time></trkpt><trkpt lat="43.280981" lon="12.7759888"><ele>901.0</ele><time>2026-04-25T10:48:36.32Z</time></trkpt><trkpt lat="43.2808775" lon="12.7759904"><ele>899.0</ele><time>2026-04-25T10:48:37.327Z</time></trkpt><trkpt lat="43.2807726" lon="12.7759902"><ele>897.0</ele><time>2026-04-25T10:48:38.327Z</time></trkpt><trkpt lat="43.2806691" lon="12.7759882"><ele>894.6</ele><time>2026-04-25T10:48:39.326Z</time></trkpt><trkpt lat="43.2805636" lon="12.7759845"><ele>892.2</ele><time>2026-04-25T10:48:40.326Z</time></trkpt><trkpt lat="43.2804576" lon="12.7759831"><ele>889.8</ele><time>2026-04-25T10:48:41.327Z</time></trkpt><trkpt lat="43.2803515" lon="12.7759852"><ele>887.4</ele><time>2026-04-25T10:48:42.323Z</time></trkpt><trkpt lat="43.2802445" lon="12.7759832"><ele>885.0</ele><time>2026-04-25T10:48:43.318Z</time></trkpt><trkpt lat="43.2801366" lon="12.7759841"><ele>885.0</ele><time>2026-04-25T10:48:44.323Z</time></trkpt><trkpt lat="43.2800301" lon="12.7759841"><ele>885.0</ele><time>2026-04-25T10:48:45.326Z</time></trkpt><trkpt lat="43.2799224" lon="12.7759867"><ele>885.0</ele><time>2026-04-25T10:48:46.329Z</time></trkpt><trkpt lat="43.2798146" lon="12.7759896"><ele>885.0</ele><time>2026-04-25T10:48:47.315Z</time></trkpt><trkpt lat="43.2797059" lon="12.7759898"><ele>885.0</ele><time>2026-04-25T10:48:48.321Z</time></trkpt><trkpt lat="43.2796004" lon="12.7759889"><ele>883.2</ele><time>2026-04-25T10:48:49.32Z</time></trkpt><trkpt lat="43.2794971" lon="12.7759849"><ele>881.4</ele><time>2026-04-25T10:48:50.328Z</time></trkpt><trkpt lat="43.2793945" lon="12.775978"><ele>879.5999999999999</ele><time>2026-04-25T10:48:51.32Z</time></trkpt><trkpt lat="43.2792932" lon="12.7759688"><ele>877.8</ele><time>2026-04-25T10:48:52.33Z</time></trkpt><trkpt lat="43.2791935" lon="12.7759637"><ele>876.0</ele><time>2026-04-25T10:48:53.317Z</time></trkpt><trkpt lat="43.2790943" lon="12.7759552"><ele>876.0</ele><time>2026-04-25T10:48:54.327Z</time></trkpt><trkpt lat="43.2789947" lon="12.7759505"><ele>875.9999999999999</ele><time>2026-04-25T10:48:55.326Z</time></trkpt><trkpt lat="43.278896" lon="12.7759457"><ele>875.9999999999999</ele><time>2026-04-25T10:48:56.328Z</time></trkpt><trkpt lat="43.2787981" lon="12.775938"><ele>876.0</ele><time>2026-04-25T10:48:57.321Z</time></trkpt><trkpt lat="43.2787008" lon="12.7759316"><ele>876.0</ele><time>2026-04-25T10:48:58.326Z</time></trkpt><trkpt lat="43.2786044" lon="12.7759318"><ele>876.4</ele><time>2026-04-25T10:48:59.326Z</time></trkpt><trkpt lat="43.2785081" lon="12.7759389"><ele>876.8</ele><time>2026-04-25T10:49:00.332Z</time></trkpt><trkpt lat="43.2784109" lon="12.7759633"><ele>877.1999999999999</ele><time>2026-04-25T10:49:01.32Z</time></trkpt><trkpt lat="43.2783132" lon="12.7760053"><ele>877.5999999999999</ele><time>2026-04-25T10:49:02.324Z</time></trkpt><trkpt lat="43.2782147" lon="12.7760563"><ele>878.0</ele><time>2026-04-25T10:49:03.321Z</time></trkpt><trkpt lat="43.2781158" lon="12.776117"><ele>873.8</ele><time>2026-04-25T10:49:04.328Z</time></trkpt><trkpt lat="43.2780151" lon="12.7761797"><ele>869.5999999999999</ele><time>2026-04-25T10:49:05.328Z</time></trkpt><trkpt lat="43.2779153" lon="12.7762411"><ele>865.4000000000001</ele><time>2026-04-25T10:49:06.324Z</time></trkpt><trkpt lat="43.2778146" lon="12.7763007"><ele>861.2</ele><time>2026-04-25T10:49:07.325Z</time></trkpt><trkpt lat="43.2777134" lon="12.7763601"><ele>857.0</ele><time>2026-04-25T10:49:08.327Z</time></trkpt><trkpt lat="43.2776117" lon="12.7764171"><ele>857.0</ele><time>2026-04-25T10:49:09.327Z</time></trkpt><trkpt lat="43.2775114" lon="12.7764721"><ele>857.0</ele><time>2026-04-25T10:49:10.322Z</time></trkpt><trkpt lat="43.2774126" lon="12.7765296"><ele>857.0</ele><time>2026-04-25T10:49:11.327Z</time></trkpt><trkpt lat="43.2773159" lon="12.7765861"><ele>857.0</ele><time>2026-04-25T10:49:12.318Z</time></trkpt><trkpt lat="43.2772216" lon="12.7766458"><ele>857.0</ele><time>2026-04-25T10:49:13.324Z</time></trkpt><trkpt lat="43.2771274" lon="12.7767031"><ele>856.2</ele><time>2026-04-25T10:49:14.323Z</time></trkpt><trkpt lat="43.2770349" lon="12.7767609"><ele>855.4000000000001</ele><time>2026-04-25T10:49:15.327Z</time></trkpt><trkpt lat="43.2769465" lon="12.7768265"><ele>854.5999999999999</ele><time>2026-04-25T10:49:16.324Z</time></trkpt><trkpt lat="43.2768607" lon="12.776898"><ele>853.8</ele><time>2026-04-25T10:49:17.327Z</time></trkpt><trkpt lat="43.2767781" lon="12.7769725"><ele>853.0</ele><time>2026-04-25T10:49:18.321Z</time></trkpt><trkpt lat="43.2767008" lon="12.7770542"><ele>852.9999999999999</ele><time>2026-04-25T10:49:19.322Z</time></trkpt><trkpt lat="43.2766285" lon="12.7771364"><ele>853.0</ele><time>2026-04-25T10:49:20.323Z</time></trkpt><trkpt lat="43.2765629" lon="12.7772091"><ele>853.0</ele><time>2026-04-25T10:49:21.322Z</time></trkpt><trkpt lat="43.2765037" lon="12.7772608"><ele>853.0</ele><time>2026-04-25T10:49:22.316Z</time></trkpt><trkpt lat="43.2764142" lon="12.7772438"><ele>852.9999999999999</ele><time>2026-04-25T10:49:24.326Z</time></trkpt><trkpt lat="43.2764222" lon="12.7771101"><ele>853.0</ele><time>2026-04-25T10:49:26.323Z</time></trkpt><trkpt lat="43.2765179" lon="12.7769811"><ele>852.9999999999999</ele><time>2026-04-25T10:49:28.317Z</time></trkpt><trkpt lat="43.2765682" lon="12.7769092"><ele>853.0</ele><time>2026-04-25T10:49:29.323Z</time></trkpt><trkpt lat="43.2766135" lon="12.776831"><ele>853.0</ele><time>2026-04-25T10:49:30.326Z</time></trkpt><trkpt lat="43.2766523" lon="12.7767462"><ele>853.0</ele><time>2026-04-25T10:49:31.325Z</time></trkpt><trkpt lat="43.2766869" lon="12.7766549"><ele>852.9999999999999</ele><time>2026-04-25T10:49:32.33Z</time></trkpt><trkpt lat="43.2767191" lon="12.7765585"><ele>853.0</ele><time>2026-04-25T10:49:33.324Z</time></trkpt><trkpt lat="43.2767548" lon="12.7764581"><ele>849.9999999999999</ele><time>2026-04-25T10:49:34.325Z</time></trkpt><trkpt lat="43.2767892" lon="12.7763521"><ele>847.0</ele><time>2026-04-25T10:49:35.325Z</time></trkpt><trkpt lat="43.2768224" lon="12.7762426"><ele>844.0</ele><time>2026-04-25T10:49:36.325Z</time></trkpt><trkpt lat="43.276856" lon="12.7761289"><ele>841.0</ele><time>2026-04-25T10:49:37.324Z</time></trkpt><trkpt lat="43.2768963" lon="12.7760159"><ele>837.9999999999999</ele><time>2026-04-25T10:49:38.325Z</time></trkpt><trkpt lat="43.276939" lon="12.7759005"><ele>835.0</ele><time>2026-04-25T10:49:39.322Z</time></trkpt><trkpt lat="43.2769827" lon="12.775784"><ele>831.2</ele><time>2026-04-25T10:49:40.312Z</time></trkpt><trkpt lat="43.2770276" lon="12.775668"><ele>827.4</ele><time>2026-04-25T10:49:41.318Z</time></trkpt><trkpt lat="43.277073" lon="12.7755513"><ele>823.5999999999999</ele><time>2026-04-25T10:49:42.317Z</time></trkpt><trkpt lat="43.2771174" lon="12.7754356"><ele>819.8</ele><time>2026-04-25T10:49:43.324Z</time></trkpt><trkpt lat="43.2771612" lon="12.7753214"><ele>816.0</ele><time>2026-04-25T10:49:44.325Z</time></trkpt><trkpt lat="43.2772067" lon="12.775211"><ele>816.3333333333334</ele><time>2026-04-25T10:49:45.326Z</time></trkpt><trkpt lat="43.2772543" lon="12.7751054"><ele>816.6666666666667</ele><time>2026-04-25T10:49:46.32Z</time></trkpt><trkpt lat="43.2773042" lon="12.775002"><ele>817.0</ele><time>2026-04-25T10:49:47.319Z</time></trkpt><trkpt lat="43.2773555" lon="12.7749028"><ele>817.3333333333334</ele><time>2026-04-25T10:49:48.321Z</time></trkpt><trkpt lat="43.277408" lon="12.774806"><ele>817.6666666666667</ele><time>2026-04-25T10:49:49.322Z</time></trkpt><trkpt lat="43.2774636" lon="12.7747098"><ele>818.0</ele><time>2026-04-25T10:49:50.327Z</time></trkpt><trkpt lat="43.2775193" lon="12.7746139"><ele>818.0</ele><time>2026-04-25T10:49:51.325Z</time></trkpt><trkpt lat="43.2775767" lon="12.774521"><ele>818.0</ele><time>2026-04-25T10:49:52.331Z</time></trkpt><trkpt lat="43.2776355" lon="12.7744263"><ele>818.0</ele><time>2026-04-25T10:49:53.327Z</time></trkpt><trkpt lat="43.277694" lon="12.7743309"><ele>818.0</ele><time>2026-04-25T10:49:54.326Z</time></trkpt><trkpt lat="43.2777527" lon="12.7742319"><ele>818.0</ele><time>2026-04-25T10:49:55.322Z</time></trkpt><trkpt lat="43.277812" lon="12.7741313"><ele>817.5999999999999</ele><time>2026-04-25T10:49:56.316Z</time></trkpt><trkpt lat="43.2778713" lon="12.7740312"><ele>817.1999999999999</ele><time>2026-04-25T10:49:57.322Z</time></trkpt><trkpt lat="43.2779314" lon="12.7739283"><ele>816.8</ele><time>2026-04-25T10:49:58.327Z</time></trkpt><trkpt lat="43.277992" lon="12.7738234"><ele>816.4</ele><time>2026-04-25T10:49:59.327Z</time></trkpt><trkpt lat="43.2780554" lon="12.7737242"><ele>816.0</ele><time>2026-04-25T10:50:00.325Z</time></trkpt><trkpt lat="43.2781216" lon="12.7736351"><ele>816.0</ele><time>2026-04-25T10:50:01.324Z</time></trkpt><trkpt lat="43.2781905" lon="12.7735658"><ele>816.0</ele><time>2026-04-25T10:50:02.321Z</time></trkpt><trkpt lat="43.2782587" lon="12.7735184"><ele>816.0</ele><time>2026-04-25T10:50:03.319Z</time></trkpt><trkpt lat="43.2783204" lon="12.7734858"><ele>816.0</ele><time>2026-04-25T10:50:04.322Z</time></trkpt><trkpt lat="43.2783785" lon="12.7733825"><ele>816.0</ele><time>2026-04-25T10:50:06.327Z</time></trkpt><trkpt lat="43.2783335" lon="12.7732799"><ele>816.0</ele><time>2026-04-25T10:50:08.317Z</time></trkpt><trkpt lat="43.278213" lon="12.7733023"><ele>812.8</ele><time>2026-04-25T10:50:10.323Z</time></trkpt><trkpt lat="43.2781286" lon="12.7733569"><ele>809.5999999999999</ele><time>2026-04-25T10:50:11.323Z</time></trkpt><trkpt lat="43.2780238" lon="12.7734246"><ele>806.4</ele><time>2026-04-25T10:50:12.325Z</time></trkpt><trkpt lat="43.2779097" lon="12.7734855"><ele>803.2</ele><time>2026-04-25T10:50:13.321Z</time></trkpt><trkpt lat="43.2778014" lon="12.7735419"><ele>800.0</ele><time>2026-04-25T10:50:14.32Z</time></trkpt><trkpt lat="43.2776982" lon="12.7735993"><ele>800.0</ele><time>2026-04-25T10:50:15.326Z</time></trkpt><trkpt lat="43.2776002" lon="12.7736497"><ele>800.0</ele><time>2026-04-25T10:50:16.318Z</time></trkpt><trkpt lat="43.2775013" lon="12.7736928"><ele>800.0</ele><time>2026-04-25T10:50:17.323Z</time></trkpt><trkpt lat="43.2774042" lon="12.7737379"><ele>800.0</ele><time>2026-04-25T10:50:18.326Z</time></trkpt><trkpt lat="43.2773061" lon="12.773786"><ele>800.0</ele><time>2026-04-25T10:50:19.325Z</time></trkpt><trkpt lat="43.2772111" lon="12.7738343"><ele>796.2</ele><time>2026-04-25T10:50:20.322Z</time></trkpt><trkpt lat="43.27712" lon="12.7738867"><ele>792.4</ele><time>2026-04-25T10:50:21.317Z</time></trkpt><trkpt lat="43.277033" lon="12.7739487"><ele>788.5999999999999</ele><time>2026-04-25T10:50:22.318Z</time></trkpt><trkpt lat="43.2769532" lon="12.7740137"><ele>784.8</ele><time>2026-04-25T10:50:23.321Z</time></trkpt><trkpt lat="43.2768841" lon="12.7740715"><ele>781.0</ele><time>2026-04-25T10:50:24.326Z</time></trkpt><trkpt lat="43.2767811" lon="12.7741129"><ele>781.0</ele><time>2026-04-25T10:50:26.323Z</time></trkpt><trkpt lat="43.2767473" lon="12.7740152"><ele>781.0</ele><time>2026-04-25T10:50:28.319Z</time></trkpt><trkpt lat="43.2767815" lon="12.7739383"><ele>781.0</ele><time>2026-04-25T10:50:29.315Z</time></trkpt><trkpt lat="43.2768471" lon="12.7738614"><ele>781.0</ele><time>2026-04-25T10:50:30.324Z</time></trkpt><trkpt lat="43.276931" lon="12.7737706"><ele>781.0</ele><time>2026-04-25T10:50:31.327Z</time></trkpt><trkpt lat="43.2770328" lon="12.7736622"><ele>781.0</ele><time>2026-04-25T10:50:32.317Z</time></trkpt><trkpt lat="43.2771472" lon="12.7735336"><ele>781.0</ele><time>2026-04-25T10:50:33.323Z</time></trkpt><trkpt lat="43.2772718" lon="12.7733979"><ele>781.0</ele><time>2026-04-25T10:50:34.327Z</time></trkpt><trkpt lat="43.2774023" lon="12.7732572"><ele>781.3333333333333</ele><time>2026-04-25T10:50:35.328Z</time></trkpt><trkpt lat="43.2775417" lon="12.7730971"><ele>781.6666666666667</ele><time>2026-04-25T10:50:36.326Z</time></trkpt><trkpt lat="43.277687" lon="12.7729266"><ele>782.0</ele><time>2026-04-25T10:50:37.325Z</time></trkpt><trkpt lat="43.2778359" lon="12.7727564"><ele>779.6666666666667</ele><time>2026-04-25T10:50:38.329Z</time></trkpt><trkpt lat="43.2779778" lon="12.7725882"><ele>777.3333333333333</ele><time>2026-04-25T10:50:39.329Z</time></trkpt><trkpt lat="43.2781151" lon="12.772426"><ele>775.0</ele><time>2026-04-25T10:50:40.325Z</time></trkpt><trkpt lat="43.2782468" lon="12.7722707"><ele>775.0</ele><time>2026-04-25T10:50:41.32Z</time></trkpt><trkpt lat="43.2783743" lon="12.7721232"><ele>775.0</ele><time>2026-04-25T10:50:42.33Z</time></trkpt><trkpt lat="43.2784985" lon="12.7719805"><ele>775.0</ele><time>2026-04-25T10:50:43.325Z</time></trkpt><trkpt lat="43.2786241" lon="12.7718491"><ele>772.6666666666666</ele><time>2026-04-25T10:50:44.32Z</time></trkpt><trkpt lat="43.2787584" lon="12.7717283"><ele>770.3333333333333</ele><time>2026-04-25T10:50:45.327Z</time></trkpt><trkpt lat="43.2789032" lon="12.7716197"><ele>768.0</ele><time>2026-04-25T10:50:46.327Z</time></trkpt><trkpt lat="43.2790549" lon="12.7715129"><ele>768.0</ele><time>2026-04-25T10:50:47.326Z</time></trkpt><trkpt lat="43.279206" lon="12.7714051"><ele>768.0</ele><time>2026-04-25T10:50:48.324Z</time></trkpt><trkpt lat="43.2793511" lon="12.7713"><ele>768.0</ele><time>2026-04-25T10:50:49.326Z</time></trkpt><trkpt lat="43.2794927" lon="12.7711901"><ele>768.0</ele><time>2026-04-25T10:50:50.326Z</time></trkpt><trkpt lat="43.2796321" lon="12.7710843"><ele>768.0</ele><time>2026-04-25T10:50:51.326Z</time></trkpt><trkpt lat="43.2797724" lon="12.7709743"><ele>768.0</ele><time>2026-04-25T10:50:52.321Z</time></trkpt><trkpt lat="43.279914" lon="12.7708667"><ele>764.6666666666666</ele><time>2026-04-25T10:50:53.328Z</time></trkpt><trkpt lat="43.280052" lon="12.7707591"><ele>761.3333333333333</ele><time>2026-04-25T10:50:54.325Z</time></trkpt><trkpt lat="43.2801828" lon="12.7706551"><ele>758.0</ele><time>2026-04-25T10:50:55.326Z</time></trkpt><trkpt lat="43.2803063" lon="12.7705514"><ele>758.0</ele><time>2026-04-25T10:50:56.326Z</time></trkpt><trkpt lat="43.280419" lon="12.7704486"><ele>758.0</ele><time>2026-04-25T10:50:57.318Z</time></trkpt><trkpt lat="43.280524" lon="12.7703422"><ele>758.0</ele><time>2026-04-25T10:50:58.321Z</time></trkpt><trkpt lat="43.2806171" lon="12.7702221"><ele>758.0</ele><time>2026-04-25T10:50:59.324Z</time></trkpt><trkpt lat="43.2807049" lon="12.7700831"><ele>754.0</ele><time>2026-04-25T10:51:00.325Z</time></trkpt><trkpt lat="43.2807974" lon="12.7699247"><ele>750.0</ele><time>2026-04-25T10:51:01.327Z</time></trkpt><trkpt lat="43.2809039" lon="12.7697465"><ele>746.0</ele><time>2026-04-25T10:51:02.331Z</time></trkpt><trkpt lat="43.2810183" lon="12.769555"><ele>746.0</ele><time>2026-04-25T10:51:03.319Z</time></trkpt><trkpt lat="43.2811343" lon="12.7693596"><ele>746.0</ele><time>2026-04-25T10:51:04.329Z</time></trkpt><trkpt lat="43.2812496" lon="12.7691693"><ele>746.0</ele><time>2026-04-25T10:51:05.327Z</time></trkpt><trkpt lat="43.2813653" lon="12.768985"><ele>744.6666666666666</ele><time>2026-04-25T10:51:06.326Z</time></trkpt><trkpt lat="43.2814782" lon="12.7688077"><ele>743.3333333333334</ele><time>2026-04-25T10:51:07.325Z</time></trkpt><trkpt lat="43.2815851" lon="12.7686392"><ele>742.0</ele><time>2026-04-25T10:51:08.321Z</time></trkpt><trkpt lat="43.2816853" lon="12.768486"><ele>738.5</ele><time>2026-04-25T10:51:09.328Z</time></trkpt><trkpt lat="43.2817774" lon="12.7683555"><ele>735.0</ele><time>2026-04-25T10:51:10.328Z</time></trkpt><trkpt lat="43.2818584" lon="12.7682376"><ele>731.5</ele><time>2026-04-25T10:51:11.325Z</time></trkpt><trkpt lat="43.2819347" lon="12.7681296"><ele>728.0</ele><time>2026-04-25T10:51:12.331Z</time></trkpt><trkpt lat="43.2820139" lon="12.7680356"><ele>728.0</ele><time>2026-04-25T10:51:13.326Z</time></trkpt><trkpt lat="43.2820998" lon="12.7679531"><ele>728.0</ele><time>2026-04-25T10:51:14.33Z</time></trkpt><trkpt lat="43.2821925" lon="12.7678839"><ele>728.0</ele><time>2026-04-25T10:51:15.322Z</time></trkpt><trkpt lat="43.282289" lon="12.7678317"><ele>728.0</ele><time>2026-04-25T10:51:16.32Z</time></trkpt><trkpt lat="43.2823763" lon="12.7677926"><ele>728.0</ele><time>2026-04-25T10:51:17.321Z</time></trkpt><trkpt lat="43.2824488" lon="12.7677686"><ele>727.6666666666666</ele><time>2026-04-25T10:51:18.32Z</time></trkpt><trkpt lat="43.2825552" lon="12.7677678"><ele>727.3333333333333</ele><time>2026-04-25T10:51:20.327Z</time></trkpt><trkpt lat="43.282577" lon="12.7676574"><ele>727.0</ele><time>2026-04-25T10:51:24.325Z</time></trkpt><trkpt lat="43.2825549" lon="12.7675474"><ele>726.6666666666666</ele><time>2026-04-25T10:51:26.319Z</time></trkpt><trkpt lat="43.2825314" lon="12.7674569"><ele>726.3333333333334</ele><time>2026-04-25T10:51:28.327Z</time></trkpt><trkpt lat="43.2824718" lon="12.7674061"><ele>726.0</ele><time>2026-04-25T10:51:31.32Z</time></trkpt><trkpt lat="43.2824142" lon="12.7674428"><ele>716.0</ele><time>2026-04-25T10:51:34.316Z</time></trkpt></trkseg><trkseg><trkpt lat="43.2824906" lon="12.7675974"><ele>716.0</ele><time>2026-04-25T11:07:16.334Z</time></trkpt><trkpt lat="43.28256" lon="12.7675107"><ele>716.0</ele><time>2026-04-25T11:07:38.33Z</time></trkpt><trkpt lat="43.2825661" lon="12.7674023"><ele>716.0</ele><time>2026-04-25T11:07:40.324Z</time></trkpt><trkpt lat="43.2825686" lon="12.7672914"><ele>716.0</ele><time>2026-04-25T11:07:42.329Z</time></trkpt><trkpt lat="43.2825659" lon="12.7671761"><ele>716.0</ele><time>2026-04-25T11:07:44.336Z</time></trkpt><trkpt lat="43.2825306" lon="12.767069"><ele>716.0</ele><time>2026-04-25T11:07:46.336Z</time></trkpt><trkpt lat="43.2824413" lon="12.7670168"><ele>716.0</ele><time>2026-04-25T11:07:48.34Z</time></trkpt><trkpt lat="43.2823262" lon="12.7670304"><ele>716.0</ele><time>2026-04-25T11:07:50.333Z</time></trkpt><trkpt lat="43.2822562" lon="12.7670521"><ele>716.0</ele><time>2026-04-25T11:07:51.328Z</time></trkpt><trkpt lat="43.2821832" lon="12.7670771"><ele>716.0</ele><time>2026-04-25T11:07:52.339Z</time></trkpt><trkpt lat="43.28211" lon="12.767103"><ele>716.0</ele><time>2026-04-25T11:07:53.335Z</time></trkpt><trkpt lat="43.2820317" lon="12.7671304"><ele>716.0</ele><time>2026-04-25T11:07:54.328Z</time></trkpt><trkpt lat="43.281945" lon="12.7671583"><ele>716.1999999999999</ele><time>2026-04-25T11:07:55.328Z</time></trkpt><trkpt lat="43.2818518" lon="12.7671794"><ele>716.4</ele><time>2026-04-25T11:07:56.332Z</time></trkpt><trkpt lat="43.28176" lon="12.7672003"><ele>716.6</ele><time>2026-04-25T11:07:57.328Z</time></trkpt><trkpt lat="43.281667" lon="12.7672272"><ele>716.8</ele><time>2026-04-25T11:07:58.334Z</time></trkpt><trkpt lat="43.2815752" lon="12.7672611"><ele>717.0</ele><time>2026-04-25T11:07:59.333Z</time></trkpt><trkpt lat="43.2814908" lon="12.7672995"><ele>716.6666666666666</ele><time>2026-04-25T11:08:00.341Z</time></trkpt><trkpt lat="43.2814161" lon="12.7673431"><ele>716.3333333333334</ele><time>2026-04-25T11:08:01.344Z</time></trkpt><trkpt lat="43.2813479" lon="12.7673946"><ele>716.0</ele><time>2026-04-25T11:08:02.346Z</time></trkpt><trkpt lat="43.2812819" lon="12.7674628"><ele>715.6666666666667</ele><time>2026-04-25T11:08:03.331Z</time></trkpt><trkpt lat="43.2812139" lon="12.7675498"><ele>715.3333333333334</ele><time>2026-04-25T11:08:04.337Z</time></trkpt><trkpt lat="43.2811432" lon="12.767645"><ele>715.0</ele><time>2026-04-25T11:08:05.334Z</time></trkpt><trkpt lat="43.2810683" lon="12.7677471"><ele>715.0</ele><time>2026-04-25T11:08:06.338Z</time></trkpt><trkpt lat="43.2809913" lon="12.7678518"><ele>715.0</ele><time>2026-04-25T11:08:07.345Z</time></trkpt><trkpt lat="43.2809145" lon="12.767955"><ele>715.0</ele><time>2026-04-25T11:08:08.343Z</time></trkpt><trkpt lat="43.2808389" lon="12.7680548"><ele>715.0</ele><time>2026-04-25T11:08:09.337Z</time></trkpt><trkpt lat="43.2807603" lon="12.7681508"><ele>715.0</ele><time>2026-04-25T11:08:10.332Z</time></trkpt><trkpt lat="43.2806819" lon="12.7682378"><ele>715.0</ele><time>2026-04-25T11:08:11.342Z</time></trkpt><trkpt lat="43.2806082" lon="12.7683152"><ele>715.0</ele><time>2026-04-25T11:08:12.342Z</time></trkpt><trkpt lat="43.2805323" lon="12.7683907"><ele>715.0</ele><time>2026-04-25T11:08:13.334Z</time></trkpt><trkpt lat="43.2804465" lon="12.7684708"><ele>715.0</ele><time>2026-04-25T11:08:14.335Z</time></trkpt><trkpt lat="43.2803513" lon="12.7685504"><ele>715.0</ele><time>2026-04-25T11:08:15.329Z</time></trkpt><trkpt lat="43.280245" lon="12.7686248"><ele>715.5</ele><time>2026-04-25T11:08:16.34Z</time></trkpt><trkpt lat="43.2801327" lon="12.7686933"><ele>716.0</ele><time>2026-04-25T11:08:17.334Z</time></trkpt><trkpt lat="43.2800212" lon="12.7687612"><ele>716.5</ele><time>2026-04-25T11:08:18.331Z</time></trkpt><trkpt lat="43.2799171" lon="12.7688272"><ele>717.0</ele><time>2026-04-25T11:08:19.334Z</time></trkpt><trkpt lat="43.2798093" lon="12.7688935"><ele>715.25</ele><time>2026-04-25T11:08:20.333Z</time></trkpt><trkpt lat="43.2796916" lon="12.7689594"><ele>713.5</ele><time>2026-04-25T11:08:21.333Z</time></trkpt><trkpt lat="43.2795695" lon="12.7690239"><ele>711.75</ele><time>2026-04-25T11:08:22.337Z</time></trkpt><trkpt lat="43.279446" lon="12.7690788"><ele>710.0</ele><time>2026-04-25T11:08:23.327Z</time></trkpt><trkpt lat="43.2793129" lon="12.7691284"><ele>710.0</ele><time>2026-04-25T11:08:24.331Z</time></trkpt><trkpt lat="43.279182" lon="12.7691681"><ele>710.0</ele><time>2026-04-25T11:08:25.33Z</time></trkpt><trkpt lat="43.2790613" lon="12.7691982"><ele>710.0</ele><time>2026-04-25T11:08:26.332Z</time></trkpt><trkpt lat="43.2789446" lon="12.7692281"><ele>710.0</ele><time>2026-04-25T11:08:27.331Z</time></trkpt><trkpt lat="43.2788322" lon="12.7692619"><ele>711.2</ele><time>2026-04-25T11:08:28.329Z</time></trkpt><trkpt lat="43.2787252" lon="12.7692945"><ele>712.4</ele><time>2026-04-25T11:08:29.333Z</time></trkpt><trkpt lat="43.2786197" lon="12.769321"><ele>713.5999999999999</ele><time>2026-04-25T11:08:30.32Z</time></trkpt><trkpt lat="43.2785071" lon="12.7693454"><ele>714.8</ele><time>2026-04-25T11:08:31.321Z</time></trkpt><trkpt lat="43.278395" lon="12.7693742"><ele>716.0</ele><time>2026-04-25T11:08:32.333Z</time></trkpt><trkpt lat="43.278289" lon="12.7694086"><ele>716.0</ele><time>2026-04-25T11:08:33.334Z</time></trkpt><trkpt lat="43.2781886" lon="12.7694542"><ele>716.0</ele><time>2026-04-25T11:08:34.335Z</time></trkpt><trkpt lat="43.2780908" lon="12.7695192"><ele>716.0</ele><time>2026-04-25T11:08:35.337Z</time></trkpt><trkpt lat="43.2779889" lon="12.7695959"><ele>716.0</ele><time>2026-04-25T11:08:36.328Z</time></trkpt><trkpt lat="43.2778844" lon="12.7696831"><ele>713.0</ele><time>2026-04-25T11:08:37.335Z</time></trkpt><trkpt lat="43.2777845" lon="12.7697782"><ele>710.0</ele><time>2026-04-25T11:08:38.335Z</time></trkpt><trkpt lat="43.2776897" lon="12.7698781"><ele>707.0</ele><time>2026-04-25T11:08:39.324Z</time></trkpt><trkpt lat="43.2775963" lon="12.7699756"><ele>704.0</ele><time>2026-04-25T11:08:40.339Z</time></trkpt><trkpt lat="43.2775065" lon="12.7700688"><ele>704.0</ele><time>2026-04-25T11:08:41.337Z</time></trkpt><trkpt lat="43.2774115" lon="12.7701554"><ele>704.0</ele><time>2026-04-25T11:08:42.338Z</time></trkpt><trkpt lat="43.2773077" lon="12.7702349"><ele>704.0</ele><time>2026-04-25T11:08:43.333Z</time></trkpt><trkpt lat="43.2771969" lon="12.770311"><ele>704.0</ele><time>2026-04-25T11:08:44.334Z</time></trkpt><trkpt lat="43.2770824" lon="12.7703826"><ele>706.25</ele><time>2026-04-25T11:08:45.333Z</time></trkpt><trkpt lat="43.2769656" lon="12.770447"><ele>708.5</ele><time>2026-04-25T11:08:46.334Z</time></trkpt><trkpt lat="43.2768489" lon="12.7705055"><ele>710.75</ele><time>2026-04-25T11:08:47.333Z</time></trkpt><trkpt lat="43.2767357" lon="12.7705632"><ele>713.0</ele><time>2026-04-25T11:08:48.324Z</time></trkpt><trkpt lat="43.2766266" lon="12.7706237"><ele>713.0</ele><time>2026-04-25T11:08:49.322Z</time></trkpt><trkpt lat="43.2765194" lon="12.7706902"><ele>713.0</ele><time>2026-04-25T11:08:50.321Z</time></trkpt><trkpt lat="43.2764118" lon="12.7707582"><ele>713.0</ele><time>2026-04-25T11:08:51.321Z</time></trkpt><trkpt lat="43.2763052" lon="12.7708242"><ele>713.0</ele><time>2026-04-25T11:08:52.325Z</time></trkpt><trkpt lat="43.2762014" lon="12.7708866"><ele>713.4</ele><time>2026-04-25T11:08:53.32Z</time></trkpt><trkpt lat="43.2760996" lon="12.7709458"><ele>713.8</ele><time>2026-04-25T11:08:54.322Z</time></trkpt><trkpt lat="43.2759955" lon="12.7709982"><ele>714.2</ele><time>2026-04-25T11:08:55.331Z</time></trkpt><trkpt lat="43.275893" lon="12.7710408"><ele>714.6</ele><time>2026-04-25T11:08:56.333Z</time></trkpt><trkpt lat="43.2757945" lon="12.7710775"><ele>715.0</ele><time>2026-04-25T11:08:57.332Z</time></trkpt><trkpt lat="43.2757072" lon="12.771119"><ele>715.0</ele><time>2026-04-25T11:08:58.33Z</time></trkpt><trkpt lat="43.2756346" lon="12.7711774"><ele>715.0</ele><time>2026-04-25T11:08:59.33Z</time></trkpt><trkpt lat="43.2755735" lon="12.771255"><ele>715.0</ele><time>2026-04-25T11:09:00.315Z</time></trkpt><trkpt lat="43.2755161" lon="12.7713448"><ele>715.0</ele><time>2026-04-25T11:09:01.33Z</time></trkpt><trkpt lat="43.2754585" lon="12.7714382"><ele>715.0</ele><time>2026-04-25T11:09:02.332Z</time></trkpt><trkpt lat="43.2753951" lon="12.7715302"><ele>715.0</ele><time>2026-04-25T11:09:03.33Z</time></trkpt><trkpt lat="43.275321" lon="12.771622"><ele>713.4</ele><time>2026-04-25T11:09:04.324Z</time></trkpt><trkpt lat="43.2752398" lon="12.7717206"><ele>711.8</ele><time>2026-04-25T11:09:05.33Z</time></trkpt><trkpt lat="43.2751632" lon="12.7718261"><ele>710.2</ele><time>2026-04-25T11:09:06.323Z</time></trkpt><trkpt lat="43.2750941" lon="12.7719368"><ele>708.6</ele><time>2026-04-25T11:09:07.323Z</time></trkpt><trkpt lat="43.275034" lon="12.7720547"><ele>707.0</ele><time>2026-04-25T11:09:08.329Z</time></trkpt><trkpt lat="43.2749786" lon="12.7721775"><ele>707.0</ele><time>2026-04-25T11:09:09.328Z</time></trkpt><trkpt lat="43.2749259" lon="12.7723009"><ele>707.0</ele><time>2026-04-25T11:09:10.326Z</time></trkpt><trkpt lat="43.2748764" lon="12.7724284"><ele>707.0</ele><time>2026-04-25T11:09:11.332Z</time></trkpt><trkpt lat="43.2748353" lon="12.7725561"><ele>707.0</ele><time>2026-04-25T11:09:12.333Z</time></trkpt><trkpt lat="43.2747998" lon="12.772686"><ele>707.0</ele><time>2026-04-25T11:09:13.329Z</time></trkpt><trkpt lat="43.2747644" lon="12.7728167"><ele>705.6</ele><time>2026-04-25T11:09:14.331Z</time></trkpt><trkpt lat="43.2747194" lon="12.7729366"><ele>704.2</ele><time>2026-04-25T11:09:15.327Z</time></trkpt><trkpt lat="43.2746607" lon="12.773043"><ele>702.8</ele><time>2026-04-25T11:09:16.325Z</time></trkpt><trkpt lat="43.2745906" lon="12.7731352"><ele>701.4</ele><time>2026-04-25T11:09:17.331Z</time></trkpt><trkpt lat="43.2745162" lon="12.773221"><ele>700.0</ele><time>2026-04-25T11:09:18.329Z</time></trkpt><trkpt lat="43.2744447" lon="12.7732996"><ele>700.0</ele><time>2026-04-25T11:09:19.323Z</time></trkpt><trkpt lat="43.2743835" lon="12.7733711"><ele>700.0</ele><time>2026-04-25T11:09:20.33Z</time></trkpt><trkpt lat="43.2743327" lon="12.7734413"><ele>700.0</ele><time>2026-04-25T11:09:21.33Z</time></trkpt><trkpt lat="43.2742909" lon="12.7735234"><ele>700.0</ele><time>2026-04-25T11:09:22.334Z</time></trkpt><trkpt lat="43.274254" lon="12.7736171"><ele>700.0</ele><time>2026-04-25T11:09:23.33Z</time></trkpt><trkpt lat="43.2742115" lon="12.7737064"><ele>700.0</ele><time>2026-04-25T11:09:24.321Z</time></trkpt><trkpt lat="43.2741513" lon="12.7737761"><ele>702.6</ele><time>2026-04-25T11:09:25.332Z</time></trkpt><trkpt lat="43.2740726" lon="12.773826"><ele>705.2</ele><time>2026-04-25T11:09:26.322Z</time></trkpt><trkpt lat="43.2739796" lon="12.7738628"><ele>707.8</ele><time>2026-04-25T11:09:27.33Z</time></trkpt><trkpt lat="43.2738776" lon="12.7738859"><ele>710.4</ele><time>2026-04-25T11:09:28.328Z</time></trkpt><trkpt lat="43.2737803" lon="12.7738982"><ele>713.0</ele><time>2026-04-25T11:09:29.326Z</time></trkpt><trkpt lat="43.2736894" lon="12.7738978"><ele>713.0</ele><time>2026-04-25T11:09:30.328Z</time></trkpt><trkpt lat="43.2736107" lon="12.7738868"><ele>713.0</ele><time>2026-04-25T11:09:31.328Z</time></trkpt><trkpt lat="43.2735418" lon="12.7738585"><ele>713.0</ele><time>2026-04-25T11:09:32.326Z</time></trkpt><trkpt lat="43.2734747" lon="12.773813"><ele>713.0</ele><time>2026-04-25T11:09:33.325Z</time></trkpt><trkpt lat="43.2734146" lon="12.7737613"><ele>713.0</ele><time>2026-04-25T11:09:34.32Z</time></trkpt><trkpt lat="43.2733058" lon="12.7736911"><ele>713.0</ele><time>2026-04-25T11:09:36.318Z</time></trkpt><trkpt lat="43.2732312" lon="12.773683"><ele>713.0</ele><time>2026-04-25T11:09:37.328Z</time></trkpt><trkpt lat="43.2731384" lon="12.7736787"><ele>713.0</ele><time>2026-04-25T11:09:38.329Z</time></trkpt><trkpt lat="43.2730356" lon="12.7736741"><ele>713.0</ele><time>2026-04-25T11:09:39.33Z</time></trkpt><trkpt lat="43.2729302" lon="12.773664"><ele>713.0</ele><time>2026-04-25T11:09:40.33Z</time></trkpt><trkpt lat="43.2728223" lon="12.773649"><ele>713.0</ele><time>2026-04-25T11:09:41.331Z</time></trkpt><trkpt lat="43.2727184" lon="12.7736304"><ele>711.8</ele><time>2026-04-25T11:09:42.328Z</time></trkpt><trkpt lat="43.2726131" lon="12.7736137"><ele>710.5999999999999</ele><time>2026-04-25T11:09:43.331Z</time></trkpt><trkpt lat="43.272512" lon="12.7735991"><ele>709.4000000000001</ele><time>2026-04-25T11:09:44.329Z</time></trkpt><trkpt lat="43.2724138" lon="12.7735837"><ele>708.2</ele><time>2026-04-25T11:09:45.319Z</time></trkpt><trkpt lat="43.2723134" lon="12.7735738"><ele>707.0</ele><time>2026-04-25T11:09:46.33Z</time></trkpt><trkpt lat="43.2722118" lon="12.7735693"><ele>706.2</ele><time>2026-04-25T11:09:47.33Z</time></trkpt><trkpt lat="43.2721127" lon="12.7735687"><ele>705.4000000000001</ele><time>2026-04-25T11:09:48.331Z</time></trkpt><trkpt lat="43.2720157" lon="12.7735626"><ele>704.5999999999999</ele><time>2026-04-25T11:09:49.331Z</time></trkpt><trkpt lat="43.271917" lon="12.7735512"><ele>703.8</ele><time>2026-04-25T11:09:50.329Z</time></trkpt><trkpt lat="43.2718174" lon="12.7735318"><ele>703.0</ele><time>2026-04-25T11:09:51.33Z</time></trkpt><trkpt lat="43.271721" lon="12.7734934"><ele>698.2</ele><time>2026-04-25T11:09:52.33Z</time></trkpt><trkpt lat="43.2716292" lon="12.7734344"><ele>693.4</ele><time>2026-04-25T11:09:53.327Z</time></trkpt><trkpt lat="43.271542" lon="12.7733666"><ele>688.6</ele><time>2026-04-25T11:09:54.33Z</time></trkpt><trkpt lat="43.2714533" lon="12.773305"><ele>683.8000000000001</ele><time>2026-04-25T11:09:55.329Z</time></trkpt><trkpt lat="43.2713604" lon="12.7732479"><ele>679.0</ele><time>2026-04-25T11:09:56.319Z</time></trkpt><trkpt lat="43.2712654" lon="12.7731913"><ele>679.0</ele><time>2026-04-25T11:09:57.33Z</time></trkpt><trkpt lat="43.2711696" lon="12.7731397"><ele>679.0</ele><time>2026-04-25T11:09:58.33Z</time></trkpt><trkpt lat="43.2710713" lon="12.7730922"><ele>679.0</ele><time>2026-04-25T11:09:59.334Z</time></trkpt><trkpt lat="43.2709719" lon="12.7730467"><ele>679.0</ele><time>2026-04-25T11:10:00.334Z</time></trkpt><trkpt lat="43.270874" lon="12.7730006"><ele>679.0</ele><time>2026-04-25T11:10:01.33Z</time></trkpt><trkpt lat="43.2707724" lon="12.7729474"><ele>679.0</ele><time>2026-04-25T11:10:02.323Z</time></trkpt><trkpt lat="43.2706631" lon="12.7728868"><ele>679.0</ele><time>2026-04-25T11:10:03.327Z</time></trkpt><trkpt lat="43.2705506" lon="12.7728192"><ele>679.0</ele><time>2026-04-25T11:10:04.333Z</time></trkpt><trkpt lat="43.2704405" lon="12.7727444"><ele>679.0</ele><time>2026-04-25T11:10:05.322Z</time></trkpt><trkpt lat="43.2703301" lon="12.7726729"><ele>674.0</ele><time>2026-04-25T11:10:06.327Z</time></trkpt><trkpt lat="43.2702201" lon="12.7726"><ele>669.0</ele><time>2026-04-25T11:10:07.328Z</time></trkpt><trkpt lat="43.2701127" lon="12.7725258"><ele>664.0</ele><time>2026-04-25T11:10:08.327Z</time></trkpt><trkpt lat="43.270007" lon="12.7724545"><ele>659.0</ele><time>2026-04-25T11:10:09.329Z</time></trkpt><trkpt lat="43.2699019" lon="12.7723847"><ele>659.0</ele><time>2026-04-25T11:10:10.333Z</time></trkpt><trkpt lat="43.2697985" lon="12.7723157"><ele>659.0</ele><time>2026-04-25T11:10:11.335Z</time></trkpt><trkpt lat="43.2696973" lon="12.7722472"><ele>659.0</ele><time>2026-04-25T11:10:12.335Z</time></trkpt><trkpt lat="43.2695993" lon="12.7721765"><ele>659.0</ele><time>2026-04-25T11:10:13.332Z</time></trkpt><trkpt lat="43.2695062" lon="12.7720972"><ele>659.0</ele><time>2026-04-25T11:10:14.333Z</time></trkpt><trkpt lat="43.2694165" lon="12.772008"><ele>660.5</ele><time>2026-04-25T11:10:15.333Z</time></trkpt><trkpt lat="43.2693265" lon="12.7719165"><ele>662.0</ele><time>2026-04-25T11:10:16.329Z</time></trkpt><trkpt lat="43.2692373" lon="12.7718266"><ele>663.5</ele><time>2026-04-25T11:10:17.334Z</time></trkpt><trkpt lat="43.2691428" lon="12.7717368"><ele>665.0</ele><time>2026-04-25T11:10:18.331Z</time></trkpt><trkpt lat="43.2690399" lon="12.7716451"><ele>659.75</ele><time>2026-04-25T11:10:19.331Z</time></trkpt><trkpt lat="43.2689338" lon="12.7715587"><ele>654.5</ele><time>2026-04-25T11:10:20.333Z</time></trkpt><trkpt lat="43.2688285" lon="12.7714763"><ele>649.25</ele><time>2026-04-25T11:10:21.334Z</time></trkpt><trkpt lat="43.2687248" lon="12.7713972"><ele>644.0</ele><time>2026-04-25T11:10:22.33Z</time></trkpt><trkpt lat="43.2686253" lon="12.7713219"><ele>644.0</ele><time>2026-04-25T11:10:23.327Z</time></trkpt><trkpt lat="43.2685287" lon="12.7712481"><ele>644.0</ele><time>2026-04-25T11:10:24.329Z</time></trkpt><trkpt lat="43.2684363" lon="12.7711704"><ele>644.0</ele><time>2026-04-25T11:10:25.334Z</time></trkpt><trkpt lat="43.2683495" lon="12.7710879"><ele>644.0</ele><time>2026-04-25T11:10:26.333Z</time></trkpt><trkpt lat="43.268269" lon="12.7709994"><ele>644.0</ele><time>2026-04-25T11:10:27.329Z</time></trkpt><trkpt lat="43.2681937" lon="12.7709093"><ele>641.5</ele><time>2026-04-25T11:10:28.332Z</time></trkpt><trkpt lat="43.268128" lon="12.7708226"><ele>639.0</ele><time>2026-04-25T11:10:29.334Z</time></trkpt><trkpt lat="43.2680734" lon="12.7707397"><ele>636.5</ele><time>2026-04-25T11:10:30.319Z</time></trkpt><trkpt lat="43.2680294" lon="12.7706676"><ele>634.0</ele><time>2026-04-25T11:10:31.328Z</time></trkpt><trkpt lat="43.2679589" lon="12.7705896"><ele>631.5</ele><time>2026-04-25T11:10:33.333Z</time></trkpt><trkpt lat="43.267886" lon="12.7706144"><ele>629.0</ele><time>2026-04-25T11:10:35.325Z</time></trkpt><trkpt lat="43.2678026" lon="12.7707364"><ele>628.1666666666666</ele><time>2026-04-25T11:10:37.332Z</time></trkpt><trkpt lat="43.2677497" lon="12.7708051"><ele>627.3333333333333</ele><time>2026-04-25T11:10:38.327Z</time></trkpt><trkpt lat="43.2676826" lon="12.7708621"><ele>626.5</ele><time>2026-04-25T11:10:39.334Z</time></trkpt><trkpt lat="43.2676057" lon="12.7709079"><ele>625.6666666666666</ele><time>2026-04-25T11:10:40.333Z</time></trkpt><trkpt lat="43.2675365" lon="12.770967"><ele>624.8333333333334</ele><time>2026-04-25T11:10:41.327Z</time></trkpt><trkpt lat="43.2674839" lon="12.7710375"><ele>624.0</ele><time>2026-04-25T11:10:42.339Z</time></trkpt><trkpt lat="43.2674391" lon="12.7711265"><ele>624.0</ele><time>2026-04-25T11:10:43.335Z</time></trkpt><trkpt lat="43.267402" lon="12.7712271"><ele>624.0</ele><time>2026-04-25T11:10:44.333Z</time></trkpt><trkpt lat="43.2673661" lon="12.7713358"><ele>624.0</ele><time>2026-04-25T11:10:45.324Z</time></trkpt><trkpt lat="43.2673259" lon="12.7714447"><ele>624.0</ele><time>2026-04-25T11:10:46.327Z</time></trkpt><trkpt lat="43.2672818" lon="12.7715524"><ele>624.0</ele><time>2026-04-25T11:10:47.335Z</time></trkpt><trkpt lat="43.2672292" lon="12.7716557"><ele>624.0</ele><time>2026-04-25T11:10:48.333Z</time></trkpt><trkpt lat="43.267168" lon="12.7717507"><ele>621.0</ele><time>2026-04-25T11:10:49.334Z</time></trkpt><trkpt lat="43.2670997" lon="12.7718363"><ele>618.0</ele><time>2026-04-25T11:10:50.339Z</time></trkpt><trkpt lat="43.2670246" lon="12.7719111"><ele>615.0</ele><time>2026-04-25T11:10:51.333Z</time></trkpt><trkpt lat="43.2669439" lon="12.7719726"><ele>612.0</ele><time>2026-04-25T11:10:52.335Z</time></trkpt><trkpt lat="43.2668629" lon="12.7720265"><ele>609.0</ele><time>2026-04-25T11:10:53.334Z</time></trkpt><trkpt lat="43.2667804" lon="12.772067"><ele>609.0</ele><time>2026-04-25T11:10:54.33Z</time></trkpt><trkpt lat="43.2666979" lon="12.7720978"><ele>609.0</ele><time>2026-04-25T11:10:55.333Z</time></trkpt><trkpt lat="43.2666224" lon="12.7721241"><ele>609.0</ele><time>2026-04-25T11:10:56.335Z</time></trkpt><trkpt lat="43.2665529" lon="12.7721476"><ele>609.0</ele><time>2026-04-25T11:10:57.32Z</time></trkpt><trkpt lat="43.2664927" lon="12.7721729"><ele>609.0</ele><time>2026-04-25T11:10:58.335Z</time></trkpt><trkpt lat="43.2664105" lon="12.7722782"><ele>609.0</ele><time>2026-04-25T11:11:00.329Z</time></trkpt><trkpt lat="43.266394" lon="12.7723746"><ele>604.4</ele><time>2026-04-25T11:11:01.33Z</time></trkpt><trkpt lat="43.2663863" lon="12.7724957"><ele>599.8</ele><time>2026-04-25T11:11:02.326Z</time></trkpt><trkpt lat="43.2663903" lon="12.7726381"><ele>595.2</ele><time>2026-04-25T11:11:03.333Z</time></trkpt><trkpt lat="43.2664039" lon="12.7727991"><ele>590.6</ele><time>2026-04-25T11:11:04.33Z</time></trkpt><trkpt lat="43.2664155" lon="12.7729661"><ele>586.0</ele><time>2026-04-25T11:11:05.333Z</time></trkpt><trkpt lat="43.2664214" lon="12.7731354"><ele>585.25</ele><time>2026-04-25T11:11:06.334Z</time></trkpt><trkpt lat="43.2664234" lon="12.7733051"><ele>584.5</ele><time>2026-04-25T11:11:07.325Z</time></trkpt><trkpt lat="43.2664235" lon="12.7734695"><ele>583.75</ele><time>2026-04-25T11:11:08.33Z</time></trkpt><trkpt lat="43.2664213" lon="12.7736221"><ele>583.0</ele><time>2026-04-25T11:11:09.334Z</time></trkpt><trkpt lat="43.2664121" lon="12.7737705"><ele>582.0</ele><time>2026-04-25T11:11:10.333Z</time></trkpt><trkpt lat="43.2663938" lon="12.7739155"><ele>581.0</ele><time>2026-04-25T11:11:11.331Z</time></trkpt><trkpt lat="43.2663754" lon="12.7740646"><ele>580.0</ele><time>2026-04-25T11:11:12.334Z</time></trkpt><trkpt lat="43.2663546" lon="12.7742126"><ele>579.0</ele><time>2026-04-25T11:11:13.333Z</time></trkpt><trkpt lat="43.2663303" lon="12.7743576"><ele>578.0</ele><time>2026-04-25T11:11:14.334Z</time></trkpt><trkpt lat="43.2663081" lon="12.7744947"><ele>577.0</ele><time>2026-04-25T11:11:15.324Z</time></trkpt><trkpt lat="43.2662872" lon="12.7746254"><ele>576.0</ele><time>2026-04-25T11:11:16.329Z</time></trkpt><trkpt lat="43.2662692" lon="12.774751"><ele>575.0</ele><time>2026-04-25T11:11:17.325Z</time></trkpt><trkpt lat="43.2662558" lon="12.7748773"><ele>574.0</ele><time>2026-04-25T11:11:18.332Z</time></trkpt><trkpt lat="43.2662477" lon="12.7750033"><ele>573.0</ele><time>2026-04-25T11:11:19.324Z</time></trkpt><trkpt lat="43.2662408" lon="12.775129"><ele>571.6666666666666</ele><time>2026-04-25T11:11:20.333Z</time></trkpt><trkpt lat="43.2662327" lon="12.7752575"><ele>570.3333333333334</ele><time>2026-04-25T11:11:21.329Z</time></trkpt><trkpt lat="43.266223" lon="12.7753868"><ele>569.0</ele><time>2026-04-25T11:11:22.335Z</time></trkpt><trkpt lat="43.2662162" lon="12.7755066"><ele>567.6666666666667</ele><time>2026-04-25T11:11:23.331Z</time></trkpt><trkpt lat="43.2662168" lon="12.7756195"><ele>566.3333333333334</ele><time>2026-04-25T11:11:24.327Z</time></trkpt><trkpt lat="43.2662268" lon="12.77573"><ele>565.0</ele><time>2026-04-25T11:11:25.337Z</time></trkpt><trkpt lat="43.2662435" lon="12.7758329"><ele>565.0</ele><time>2026-04-25T11:11:26.327Z</time></trkpt><trkpt lat="43.2662614" lon="12.7759257"><ele>565.0</ele><time>2026-04-25T11:11:27.332Z</time></trkpt><trkpt lat="43.2662874" lon="12.7760536"><ele>565.0</ele><time>2026-04-25T11:11:29.332Z</time></trkpt><trkpt lat="43.2662146" lon="12.7760961"><ele>565.0</ele><time>2026-04-25T11:11:33.326Z</time></trkpt><trkpt lat="43.2661607" lon="12.776"><ele>565.0</ele><time>2026-04-25T11:11:35.325Z</time></trkpt><trkpt lat="43.2660861" lon="12.7758431"><ele>565.0</ele><time>2026-04-25T11:11:37.331Z</time></trkpt><trkpt lat="43.2660409" lon="12.7757501"><ele>565.0</ele><time>2026-04-25T11:11:38.33Z</time></trkpt><trkpt lat="43.2659937" lon="12.7756587"><ele>565.0</ele><time>2026-04-25T11:11:39.33Z</time></trkpt><trkpt lat="43.2659428" lon="12.7755687"><ele>565.0</ele><time>2026-04-25T11:11:40.33Z</time></trkpt><trkpt lat="43.2658961" lon="12.7754665"><ele>565.0</ele><time>2026-04-25T11:11:41.337Z</time></trkpt><trkpt lat="43.2658486" lon="12.7753499"><ele>565.0</ele><time>2026-04-25T11:11:42.33Z</time></trkpt><trkpt lat="43.2658014" lon="12.7752296"><ele>566.6</ele><time>2026-04-25T11:11:43.327Z</time></trkpt><trkpt lat="43.2657547" lon="12.7751147"><ele>568.2</ele><time>2026-04-25T11:11:44.332Z</time></trkpt><trkpt lat="43.2657094" lon="12.7750026"><ele>569.8</ele><time>2026-04-25T11:11:45.333Z</time></trkpt><trkpt lat="43.2656661" lon="12.7748907"><ele>571.4</ele><time>2026-04-25T11:11:46.331Z</time></trkpt><trkpt lat="43.2656221" lon="12.7747824"><ele>573.0</ele><time>2026-04-25T11:11:47.331Z</time></trkpt><trkpt lat="43.2655791" lon="12.774675"><ele>567.0</ele><time>2026-04-25T11:11:48.329Z</time></trkpt><trkpt lat="43.265541" lon="12.7745583"><ele>561.0</ele><time>2026-04-25T11:11:49.331Z</time></trkpt><trkpt lat="43.2655065" lon="12.7744346"><ele>555.0</ele><time>2026-04-25T11:11:50.332Z</time></trkpt><trkpt lat="43.265471" lon="12.7743068"><ele>549.0</ele><time>2026-04-25T11:11:51.333Z</time></trkpt><trkpt lat="43.2654328" lon="12.7741824"><ele>543.0</ele><time>2026-04-25T11:11:52.337Z</time></trkpt><trkpt lat="43.2653882" lon="12.7740624"><ele>543.0</ele><time>2026-04-25T11:11:53.332Z</time></trkpt><trkpt lat="43.2653422" lon="12.7739391"><ele>543.0</ele><time>2026-04-25T11:11:54.332Z</time></trkpt><trkpt lat="43.2652945" lon="12.7738161"><ele>543.0</ele><time>2026-04-25T11:11:55.328Z</time></trkpt><trkpt lat="43.2652462" lon="12.7736944"><ele>543.0</ele><time>2026-04-25T11:11:56.332Z</time></trkpt><trkpt lat="43.2651992" lon="12.7735751"><ele>543.0</ele><time>2026-04-25T11:11:57.325Z</time></trkpt><trkpt lat="43.2651516" lon="12.7734576"><ele>544.1999999999999</ele><time>2026-04-25T11:11:58.333Z</time></trkpt><trkpt lat="43.265101" lon="12.7733444"><ele>545.4</ele><time>2026-04-25T11:11:59.333Z</time></trkpt><trkpt lat="43.2650475" lon="12.7732305"><ele>546.5999999999999</ele><time>2026-04-25T11:12:00.331Z</time></trkpt><trkpt lat="43.264992" lon="12.7731122"><ele>547.8</ele><time>2026-04-25T11:12:01.324Z</time></trkpt><trkpt lat="43.2649304" lon="12.7729969"><ele>549.0</ele><time>2026-04-25T11:12:02.334Z</time></trkpt><trkpt lat="43.2648662" lon="12.7728795"><ele>549.0</ele><time>2026-04-25T11:12:03.334Z</time></trkpt><trkpt lat="43.2647986" lon="12.77276"><ele>549.0</ele><time>2026-04-25T11:12:04.335Z</time></trkpt><trkpt lat="43.264727" lon="12.7726367"><ele>549.0</ele><time>2026-04-25T11:12:05.328Z</time></trkpt><trkpt lat="43.2646566" lon="12.7725196"><ele>549.0</ele><time>2026-04-25T11:12:06.33Z</time></trkpt><trkpt lat="43.2645896" lon="12.772414"><ele>549.0</ele><time>2026-04-25T11:12:07.334Z</time></trkpt><trkpt lat="43.2645262" lon="12.772321"><ele>544.6666666666666</ele><time>2026-04-25T11:12:08.327Z</time></trkpt><trkpt lat="43.2644663" lon="12.7722383"><ele>540.3333333333334</ele><time>2026-04-25T11:12:09.328Z</time></trkpt><trkpt lat="43.2644128" lon="12.7721577"><ele>536.0</ele><time>2026-04-25T11:12:10.33Z</time></trkpt><trkpt lat="43.2643636" lon="12.7720793"><ele>531.6666666666667</ele><time>2026-04-25T11:12:11.334Z</time></trkpt><trkpt lat="43.2643205" lon="12.7720029"><ele>527.3333333333334</ele><time>2026-04-25T11:12:12.333Z</time></trkpt><trkpt lat="43.264251" lon="12.7718833"><ele>523.0</ele><time>2026-04-25T11:12:14.334Z</time></trkpt><trkpt lat="43.264166" lon="12.7718794"><ele>523.0</ele><time>2026-04-25T11:12:17.332Z</time></trkpt><trkpt lat="43.2641619" lon="12.7719993"><ele>523.0</ele><time>2026-04-25T11:12:19.334Z</time></trkpt><trkpt lat="43.2641931" lon="12.7720927"><ele>523.0</ele><time>2026-04-25T11:12:20.321Z</time></trkpt><trkpt lat="43.2642433" lon="12.7722201"><ele>523.0</ele><time>2026-04-25T11:12:21.329Z</time></trkpt><trkpt lat="43.2643011" lon="12.7723858"><ele>523.0</ele><time>2026-04-25T11:12:22.33Z</time></trkpt><trkpt lat="43.2643589" lon="12.7725764"><ele>520.0</ele><time>2026-04-25T11:12:23.331Z</time></trkpt><trkpt lat="43.2644117" lon="12.7727815"><ele>517.0</ele><time>2026-04-25T11:12:24.333Z</time></trkpt><trkpt lat="43.2644566" lon="12.7729873"><ele>514.0</ele><time>2026-04-25T11:12:25.322Z</time></trkpt><trkpt lat="43.2644897" lon="12.7731879"><ele>514.0</ele><time>2026-04-25T11:12:26.333Z</time></trkpt><trkpt lat="43.2645128" lon="12.7733811"><ele>514.0</ele><time>2026-04-25T11:12:27.328Z</time></trkpt><trkpt lat="43.2645319" lon="12.7735672"><ele>514.0</ele><time>2026-04-25T11:12:28.334Z</time></trkpt><trkpt lat="43.2645474" lon="12.7737487"><ele>514.0</ele><time>2026-04-25T11:12:29.328Z</time></trkpt><trkpt lat="43.2645599" lon="12.7739284"><ele>513.25</ele><time>2026-04-25T11:12:30.331Z</time></trkpt><trkpt lat="43.2645706" lon="12.7741051"><ele>512.5</ele><time>2026-04-25T11:12:31.324Z</time></trkpt><trkpt lat="43.2645755" lon="12.7742755"><ele>511.75</ele><time>2026-04-25T11:12:32.333Z</time></trkpt><trkpt lat="43.2645732" lon="12.7744393"><ele>511.0</ele><time>2026-04-25T11:12:33.33Z</time></trkpt><trkpt lat="43.2645639" lon="12.7746011"><ele>511.0</ele><time>2026-04-25T11:12:34.321Z</time></trkpt><trkpt lat="43.2645515" lon="12.7747579"><ele>511.0</ele><time>2026-04-25T11:12:35.33Z</time></trkpt><trkpt lat="43.2645434" lon="12.774907"><ele>511.0</ele><time>2026-04-25T11:12:36.322Z</time></trkpt><trkpt lat="43.2645462" lon="12.7750421"><ele>511.0</ele><time>2026-04-25T11:12:37.332Z</time></trkpt><trkpt lat="43.2645502" lon="12.7751597"><ele>511.0</ele><time>2026-04-25T11:12:38.337Z</time></trkpt><trkpt lat="43.2645496" lon="12.7752467"><ele>511.00000000000006</ele><time>2026-04-25T11:12:39.333Z</time></trkpt><trkpt lat="43.2644989" lon="12.7753245"><ele>511.0</ele><time>2026-04-25T11:12:41.337Z</time></trkpt><trkpt lat="43.2644254" lon="12.7752703"><ele>511.0</ele><time>2026-04-25T11:12:43.333Z</time></trkpt><trkpt lat="43.2643908" lon="12.77513"><ele>511.0</ele><time>2026-04-25T11:12:45.332Z</time></trkpt><trkpt lat="43.264387" lon="12.7750394"><ele>511.00000000000006</ele><time>2026-04-25T11:12:46.333Z</time></trkpt><trkpt lat="43.2643833" lon="12.7749357"><ele>511.0</ele><time>2026-04-25T11:12:47.331Z</time></trkpt><trkpt lat="43.264372" lon="12.774822"><ele>511.0</ele><time>2026-04-25T11:12:48.332Z</time></trkpt><trkpt lat="43.2643475" lon="12.7746879"><ele>511.0</ele><time>2026-04-25T11:12:49.334Z</time></trkpt><trkpt lat="43.2643086" lon="12.7745281"><ele>511.0</ele><time>2026-04-25T11:12:50.332Z</time></trkpt><trkpt lat="43.2642571" lon="12.7743565"><ele>511.0</ele><time>2026-04-25T11:12:51.328Z</time></trkpt><trkpt lat="43.2641929" lon="12.774189"><ele>510.75</ele><time>2026-04-25T11:12:52.33Z</time></trkpt><trkpt lat="43.2641254" lon="12.7740351"><ele>510.5</ele><time>2026-04-25T11:12:53.33Z</time></trkpt><trkpt lat="43.2640551" lon="12.7739068"><ele>510.25</ele><time>2026-04-25T11:12:54.322Z</time></trkpt><trkpt lat="43.2639802" lon="12.7737923"><ele>510.0</ele><time>2026-04-25T11:12:55.32Z</time></trkpt><trkpt lat="43.2638894" lon="12.7736827"><ele>509.75</ele><time>2026-04-25T11:12:56.328Z</time></trkpt><trkpt lat="43.2637838" lon="12.7735698"><ele>509.5</ele><time>2026-04-25T11:12:57.336Z</time></trkpt><trkpt lat="43.2636724" lon="12.773456"><ele>509.25</ele><time>2026-04-25T11:12:58.33Z</time></trkpt><trkpt lat="43.2635662" lon="12.7733317"><ele>509.0</ele><time>2026-04-25T11:12:59.331Z</time></trkpt><trkpt lat="43.2634662" lon="12.7732054"><ele>506.0</ele><time>2026-04-25T11:13:00.331Z</time></trkpt><trkpt lat="43.2633761" lon="12.7730716"><ele>503.0</ele><time>2026-04-25T11:13:01.332Z</time></trkpt><trkpt lat="43.2632943" lon="12.7729333"><ele>500.0</ele><time>2026-04-25T11:13:02.335Z</time></trkpt><trkpt lat="43.2632209" lon="12.7727878"><ele>497.0</ele><time>2026-04-25T11:13:03.328Z</time></trkpt><trkpt lat="43.2631569" lon="12.7726282"><ele>497.25</ele><time>2026-04-25T11:13:04.326Z</time></trkpt><trkpt lat="43.2631032" lon="12.7724561"><ele>497.5</ele><time>2026-04-25T11:13:05.331Z</time></trkpt><trkpt lat="43.2630586" lon="12.7722791"><ele>497.75</ele><time>2026-04-25T11:13:06.331Z</time></trkpt><trkpt lat="43.2630194" lon="12.7721117"><ele>498.0</ele><time>2026-04-25T11:13:07.331Z</time></trkpt><trkpt lat="43.2629731" lon="12.77196"><ele>495.75</ele><time>2026-04-25T11:13:08.329Z</time></trkpt><trkpt lat="43.2629081" lon="12.7718286"><ele>493.5</ele><time>2026-04-25T11:13:09.33Z</time></trkpt><trkpt lat="43.2628167" lon="12.7717117"><ele>491.25</ele><time>2026-04-25T11:13:10.323Z</time></trkpt><trkpt lat="43.2627055" lon="12.7715897"><ele>489.0</ele><time>2026-04-25T11:13:11.331Z</time></trkpt><trkpt lat="43.2625951" lon="12.7714531"><ele>489.0</ele><time>2026-04-25T11:13:12.328Z</time></trkpt><trkpt lat="43.2624903" lon="12.771317"><ele>489.0</ele><time>2026-04-25T11:13:13.328Z</time></trkpt><trkpt lat="43.2623999" lon="12.7711956"><ele>489.0</ele><time>2026-04-25T11:13:14.33Z</time></trkpt><trkpt lat="43.2623187" lon="12.7710871"><ele>489.0</ele><time>2026-04-25T11:13:15.332Z</time></trkpt><trkpt lat="43.2622426" lon="12.770969"><ele>493.75</ele><time>2026-04-25T11:13:16.331Z</time></trkpt><trkpt lat="43.2621791" lon="12.7708265"><ele>498.5</ele><time>2026-04-25T11:13:17.329Z</time></trkpt><trkpt lat="43.2621336" lon="12.7706701"><ele>503.25</ele><time>2026-04-25T11:13:18.327Z</time></trkpt><trkpt lat="43.2621116" lon="12.7705112"><ele>508.0</ele><time>2026-04-25T11:13:19.324Z</time></trkpt><trkpt lat="43.2620957" lon="12.7703548"><ele>508.0</ele><time>2026-04-25T11:13:20.325Z</time></trkpt><trkpt lat="43.2620722" lon="12.7701994"><ele>508.0</ele><time>2026-04-25T11:13:21.324Z</time></trkpt><trkpt lat="43.2620336" lon="12.7700455"><ele>508.0</ele><time>2026-04-25T11:13:22.327Z</time></trkpt><trkpt lat="43.2619787" lon="12.7698975"><ele>508.0</ele><time>2026-04-25T11:13:23.332Z</time></trkpt><trkpt lat="43.2619098" lon="12.7697557"><ele>503.25</ele><time>2026-04-25T11:13:24.329Z</time></trkpt><trkpt lat="43.2618349" lon="12.7696236"><ele>498.5</ele><time>2026-04-25T11:13:25.328Z</time></trkpt><trkpt lat="43.2617531" lon="12.769504"><ele>493.75</ele><time>2026-04-25T11:13:26.324Z</time></trkpt><trkpt lat="43.2616782" lon="12.7693923"><ele>489.0</ele><time>2026-04-25T11:13:27.328Z</time></trkpt><trkpt lat="43.2616185" lon="12.7692857"><ele>486.6</ele><time>2026-04-25T11:13:28.33Z</time></trkpt><trkpt lat="43.2615748" lon="12.7691848"><ele>484.2</ele><time>2026-04-25T11:13:29.332Z</time></trkpt><trkpt lat="43.261539" lon="12.7690721"><ele>481.80000000000007</ele><time>2026-04-25T11:13:30.331Z</time></trkpt><trkpt lat="43.2615115" lon="12.7689369"><ele>479.40000000000003</ele><time>2026-04-25T11:13:31.325Z</time></trkpt><trkpt lat="43.2614946" lon="12.7687795"><ele>477.0</ele><time>2026-04-25T11:13:32.33Z</time></trkpt><trkpt lat="43.2614851" lon="12.768615"><ele>475.0</ele><time>2026-04-25T11:13:33.335Z</time></trkpt><trkpt lat="43.2614782" lon="12.7684525"><ele>473.0</ele><time>2026-04-25T11:13:34.336Z</time></trkpt><trkpt lat="43.2614688" lon="12.7682927"><ele>471.0</ele><time>2026-04-25T11:13:35.335Z</time></trkpt><trkpt lat="43.2614608" lon="12.7681374"><ele>469.0</ele><time>2026-04-25T11:13:36.325Z</time></trkpt><trkpt lat="43.2614522" lon="12.7679855"><ele>468.2</ele><time>2026-04-25T11:13:37.332Z</time></trkpt><trkpt lat="43.2614462" lon="12.7678413"><ele>467.4</ele><time>2026-04-25T11:13:38.325Z</time></trkpt><trkpt lat="43.2614444" lon="12.7677014"><ele>466.6</ele><time>2026-04-25T11:13:39.331Z</time></trkpt><trkpt lat="43.2614446" lon="12.7675704"><ele>465.8</ele><time>2026-04-25T11:13:40.335Z</time></trkpt><trkpt lat="43.2614444" lon="12.7674557"><ele>465.0</ele><time>2026-04-25T11:13:41.336Z</time></trkpt><trkpt lat="43.2614434" lon="12.7673654"><ele>465.0</ele><time>2026-04-25T11:13:42.335Z</time></trkpt><trkpt lat="43.2614042" lon="12.7672392"><ele>465.0</ele><time>2026-04-25T11:13:44.332Z</time></trkpt><trkpt lat="43.2612744" lon="12.7671915"><ele>465.0</ele><time>2026-04-25T11:13:46.324Z</time></trkpt><trkpt lat="43.2611943" lon="12.7671987"><ele>465.0</ele><time>2026-04-25T11:13:47.33Z</time></trkpt><trkpt lat="43.2611246" lon="12.7672188"><ele>465.0</ele><time>2026-04-25T11:13:48.334Z</time></trkpt><trkpt lat="43.2610147" lon="12.7672321"><ele>465.0</ele><time>2026-04-25T11:13:50.327Z</time></trkpt><trkpt lat="43.2609329" lon="12.7672295"><ele>465.0</ele><time>2026-04-25T11:13:52.329Z</time></trkpt><trkpt lat="43.2608631" lon="12.7672206"><ele>465.0</ele><time>2026-04-25T11:13:54.331Z</time></trkpt><trkpt lat="43.2607776" lon="12.7672154"><ele>465.0</ele><time>2026-04-25T11:13:56.334Z</time></trkpt><trkpt lat="43.2606706" lon="12.7672031"><ele>465.0</ele><time>2026-04-25T11:13:58.324Z</time></trkpt><trkpt lat="43.2605495" lon="12.7671941"><ele>464.6</ele><time>2026-04-25T11:14:00.328Z</time></trkpt><trkpt lat="43.260436" lon="12.7671928"><ele>464.2</ele><time>2026-04-25T11:14:02.332Z</time></trkpt><trkpt lat="43.2603407" lon="12.7671967"><ele>463.79999999999995</ele><time>2026-04-25T11:14:04.332Z</time></trkpt><trkpt lat="43.2602505" lon="12.767212"><ele>463.4</ele><time>2026-04-25T11:14:06.338Z</time></trkpt><trkpt lat="43.260175" lon="12.7672355"><ele>463.0</ele><time>2026-04-25T11:14:08.332Z</time></trkpt><trkpt lat="43.2600965" lon="12.7672356"><ele>463.0</ele><time>2026-04-25T11:14:10.327Z</time></trkpt><trkpt lat="43.2600137" lon="12.767172"><ele>462.99999999999994</ele><time>2026-04-25T11:14:12.326Z</time></trkpt><trkpt lat="43.2599652" lon="12.7670442"><ele>462.99999999999994</ele><time>2026-04-25T11:14:14.332Z</time></trkpt><trkpt lat="43.2599441" lon="12.7668753"><ele>463.0</ele><time>2026-04-25T11:14:16.333Z</time></trkpt><trkpt lat="43.2599221" lon="12.7667912"><ele>463.0</ele><time>2026-04-25T11:14:17.333Z</time></trkpt><trkpt lat="43.2598873" lon="12.7666902"><ele>462.0</ele><time>2026-04-25T11:14:18.327Z</time></trkpt><trkpt lat="43.2598345" lon="12.7665643"><ele>461.0</ele><time>2026-04-25T11:14:19.331Z</time></trkpt><trkpt lat="43.2597737" lon="12.7664087"><ele>460.0</ele><time>2026-04-25T11:14:20.332Z</time></trkpt><trkpt lat="43.2597096" lon="12.7662337"><ele>459.0</ele><time>2026-04-25T11:14:21.333Z</time></trkpt><trkpt lat="43.2596469" lon="12.7660489"><ele>455.33333333333337</ele><time>2026-04-25T11:14:22.329Z</time></trkpt><trkpt lat="43.2595859" lon="12.7658537"><ele>451.6666666666667</ele><time>2026-04-25T11:14:23.335Z</time></trkpt><trkpt lat="43.2595278" lon="12.7656589"><ele>448.0</ele><time>2026-04-25T11:14:24.328Z</time></trkpt><trkpt lat="43.2594745" lon="12.7654739"><ele>448.0</ele><time>2026-04-25T11:14:25.332Z</time></trkpt><trkpt lat="43.2594236" lon="12.7653012"><ele>448.0</ele><time>2026-04-25T11:14:26.33Z</time></trkpt><trkpt lat="43.2593756" lon="12.7651394"><ele>448.0</ele><time>2026-04-25T11:14:27.332Z</time></trkpt><trkpt lat="43.2593309" lon="12.7649774"><ele>448.0</ele><time>2026-04-25T11:14:28.328Z</time></trkpt><trkpt lat="43.2592885" lon="12.7648112"><ele>447.25</ele><time>2026-04-25T11:14:29.336Z</time></trkpt><trkpt lat="43.2592533" lon="12.7646445"><ele>446.5</ele><time>2026-04-25T11:14:30.335Z</time></trkpt><trkpt lat="43.2592241" lon="12.7644827"><ele>445.75</ele><time>2026-04-25T11:14:31.337Z</time></trkpt><trkpt lat="43.2591978" lon="12.7643289"><ele>445.0</ele><time>2026-04-25T11:14:32.328Z</time></trkpt><trkpt lat="43.2591723" lon="12.7641817"><ele>444.83333333333337</ele><time>2026-04-25T11:14:33.33Z</time></trkpt><trkpt lat="43.2591498" lon="12.7640486"><ele>444.6666666666667</ele><time>2026-04-25T11:14:34.322Z</time></trkpt><trkpt lat="43.2591311" lon="12.7639358"><ele>444.5</ele><time>2026-04-25T11:14:35.337Z</time></trkpt><trkpt lat="43.2591148" lon="12.7638385"><ele>444.33333333333337</ele><time>2026-04-25T11:14:36.331Z</time></trkpt><trkpt lat="43.2591028" lon="12.7637498"><ele>444.1666666666667</ele><time>2026-04-25T11:14:37.334Z</time></trkpt><trkpt lat="43.2590873" lon="12.7636607"><ele>444.0</ele><time>2026-04-25T11:14:38.337Z</time></trkpt><trkpt lat="43.2590735" lon="12.7635729"><ele>443.6</ele><time>2026-04-25T11:14:39.336Z</time></trkpt><trkpt lat="43.259057" lon="12.7634439"><ele>443.2</ele><time>2026-04-25T11:14:41.338Z</time></trkpt><trkpt lat="43.2590199" lon="12.7633658"><ele>442.80000000000007</ele><time>2026-04-25T11:14:48.336Z</time></trkpt><trkpt lat="43.25886" lon="12.7633822"><ele>442.40000000000003</ele><time>2026-04-25T11:14:50.326Z</time></trkpt><trkpt lat="43.2587453" lon="12.7634224"><ele>442.0</ele><time>2026-04-25T11:14:51.335Z</time></trkpt><trkpt lat="43.258621" lon="12.7634746"><ele>441.75</ele><time>2026-04-25T11:14:52.327Z</time></trkpt><trkpt lat="43.2584844" lon="12.7635307"><ele>441.5</ele><time>2026-04-25T11:14:53.333Z</time></trkpt><trkpt lat="43.2583409" lon="12.7635935"><ele>441.25</ele><time>2026-04-25T11:14:54.335Z</time></trkpt><trkpt lat="43.2581973" lon="12.7636523"><ele>441.0</ele><time>2026-04-25T11:14:55.331Z</time></trkpt><trkpt lat="43.2580469" lon="12.7637122"><ele>440.33333333333337</ele><time>2026-04-25T11:14:56.331Z</time></trkpt><trkpt lat="43.2578873" lon="12.763777"><ele>439.6666666666667</ele><time>2026-04-25T11:14:57.334Z</time></trkpt><trkpt lat="43.2577227" lon="12.7638445"><ele>439.0</ele><time>2026-04-25T11:14:58.332Z</time></trkpt><trkpt lat="43.2575597" lon="12.7639116"><ele>439.0</ele><time>2026-04-25T11:14:59.329Z</time></trkpt><trkpt lat="43.2574006" lon="12.7639797"><ele>439.0</ele><time>2026-04-25T11:15:00.332Z</time></trkpt><trkpt lat="43.2572405" lon="12.7640523"><ele>439.0</ele><time>2026-04-25T11:15:01.33Z</time></trkpt><trkpt lat="43.257079" lon="12.764128"><ele>438.33333333333337</ele><time>2026-04-25T11:15:02.322Z</time></trkpt><trkpt lat="43.2569171" lon="12.7642067"><ele>437.66666666666663</ele><time>2026-04-25T11:15:03.328Z</time></trkpt><trkpt lat="43.2567565" lon="12.7642862"><ele>437.0</ele><time>2026-04-25T11:15:04.331Z</time></trkpt><trkpt lat="43.2565988" lon="12.764373"><ele>436.66666666666663</ele><time>2026-04-25T11:15:05.33Z</time></trkpt><trkpt lat="43.2564403" lon="12.7644674"><ele>436.33333333333337</ele><time>2026-04-25T11:15:06.328Z</time></trkpt><trkpt lat="43.2562816" lon="12.7645626"><ele>436.0</ele><time>2026-04-25T11:15:07.331Z</time></trkpt><trkpt lat="43.2561232" lon="12.7646588"><ele>436.0</ele><time>2026-04-25T11:15:08.335Z</time></trkpt><trkpt lat="43.2559647" lon="12.7647591"><ele>436.0</ele><time>2026-04-25T11:15:09.326Z</time></trkpt><trkpt lat="43.2558068" lon="12.7648593"><ele>436.0</ele><time>2026-04-25T11:15:10.335Z</time></trkpt><trkpt lat="43.2556502" lon="12.76496"><ele>436.33333333333337</ele><time>2026-04-25T11:15:11.328Z</time></trkpt><trkpt lat="43.2554966" lon="12.7650633"><ele>436.66666666666663</ele><time>2026-04-25T11:15:12.341Z</time></trkpt><trkpt lat="43.2553463" lon="12.7651671"><ele>437.0</ele><time>2026-04-25T11:15:13.328Z</time></trkpt><trkpt lat="43.2551989" lon="12.7652695"><ele>437.3333333333333</ele><time>2026-04-25T11:15:14.333Z</time></trkpt><trkpt lat="43.2550554" lon="12.7653667"><ele>437.66666666666663</ele><time>2026-04-25T11:15:15.327Z</time></trkpt><trkpt lat="43.2549198" lon="12.7654594"><ele>438.0</ele><time>2026-04-25T11:15:16.334Z</time></trkpt><trkpt lat="43.2547887" lon="12.765546"><ele>437.75</ele><time>2026-04-25T11:15:17.327Z</time></trkpt><trkpt lat="43.2546635" lon="12.7656237"><ele>437.5</ele><time>2026-04-25T11:15:18.322Z</time></trkpt><trkpt lat="43.254548" lon="12.7656871"><ele>437.25</ele><time>2026-04-25T11:15:19.327Z</time></trkpt><trkpt lat="43.2544477" lon="12.7657338"><ele>437.0</ele><time>2026-04-25T11:15:20.322Z</time></trkpt><trkpt lat="43.2543661" lon="12.7657706"><ele>437.0</ele><time>2026-04-25T11:15:21.333Z</time></trkpt><trkpt lat="43.2543072" lon="12.7658177"><ele>437.00000000000006</ele><time>2026-04-25T11:15:22.343Z</time></trkpt><trkpt lat="43.2542645" lon="12.7659733"><ele>437.00000000000006</ele><time>2026-04-25T11:15:24.334Z</time></trkpt><trkpt lat="43.2542737" lon="12.7660929"><ele>437.0</ele><time>2026-04-25T11:15:25.322Z</time></trkpt><trkpt lat="43.2542854" lon="12.7662485"><ele>437.0</ele><time>2026-04-25T11:15:26.325Z</time></trkpt><trkpt lat="43.2542844" lon="12.7664313"><ele>437.25</ele><time>2026-04-25T11:15:27.334Z</time></trkpt><trkpt lat="43.2542703" lon="12.7666212"><ele>437.5</ele><time>2026-04-25T11:15:28.327Z</time></trkpt><trkpt lat="43.2542489" lon="12.7667992"><ele>437.75</ele><time>2026-04-25T11:15:29.333Z</time></trkpt><trkpt lat="43.2542296" lon="12.766956"><ele>438.0</ele><time>2026-04-25T11:15:30.327Z</time></trkpt><trkpt lat="43.2542013" lon="12.7670883"><ele>438.2</ele><time>2026-04-25T11:15:31.333Z</time></trkpt><trkpt lat="43.2541836" lon="12.7672006"><ele>438.4</ele><time>2026-04-25T11:15:32.336Z</time></trkpt><trkpt lat="43.2541903" lon="12.7673116"><ele>438.59999999999997</ele><time>2026-04-25T11:15:33.329Z</time></trkpt><trkpt lat="43.2542353" lon="12.7674156"><ele>438.79999999999995</ele><time>2026-04-25T11:15:34.331Z</time></trkpt><trkpt lat="43.254323" lon="12.7675232"><ele>439.0</ele><time>2026-04-25T11:15:35.329Z</time></trkpt><trkpt lat="43.2544316" lon="12.7676042"><ele>439.0</ele><time>2026-04-25T11:15:36.333Z</time></trkpt><trkpt lat="43.2545256" lon="12.7676741"><ele>439.0</ele><time>2026-04-25T11:15:37.331Z</time></trkpt><trkpt lat="43.2545983" lon="12.7677382"><ele>439.0</ele><time>2026-04-25T11:15:38.333Z</time></trkpt><trkpt lat="43.2546672" lon="12.7678299"><ele>439.0</ele><time>2026-04-25T11:15:40.333Z</time></trkpt><trkpt lat="43.2546485" lon="12.7679978"><ele>439.0</ele><time>2026-04-25T11:15:42.336Z</time></trkpt><trkpt lat="43.2546337" lon="12.7681329"><ele>440.0</ele><time>2026-04-25T11:15:43.336Z</time></trkpt><trkpt lat="43.2546178" lon="12.7683042"><ele>441.0</ele><time>2026-04-25T11:15:44.323Z</time></trkpt><trkpt lat="43.2546095" lon="12.7684852"><ele>442.0</ele><time>2026-04-25T11:15:45.331Z</time></trkpt><trkpt lat="43.254609" lon="12.7686553"><ele>443.0</ele><time>2026-04-25T11:15:46.335Z</time></trkpt><trkpt lat="43.2546163" lon="12.7688058"><ele>444.0</ele><time>2026-04-25T11:15:47.332Z</time></trkpt><trkpt lat="43.254636" lon="12.7689424"><ele>444.99999999999994</ele><time>2026-04-25T11:15:48.327Z</time></trkpt><trkpt lat="43.2546746" lon="12.7690708"><ele>445.99999999999994</ele><time>2026-04-25T11:15:49.333Z</time></trkpt><trkpt lat="43.2547336" lon="12.7691815"><ele>447.0</ele><time>2026-04-25T11:15:50.328Z</time></trkpt><trkpt lat="43.2548062" lon="12.7692782"><ele>448.0</ele><time>2026-04-25T11:15:51.331Z</time></trkpt><trkpt lat="43.2548883" lon="12.76937"><ele>450.5</ele><time>2026-04-25T11:15:52.329Z</time></trkpt><trkpt lat="43.2549753" lon="12.769462"><ele>453.0</ele><time>2026-04-25T11:15:53.334Z</time></trkpt><trkpt lat="43.2550724" lon="12.7695634"><ele>455.5</ele><time>2026-04-25T11:15:54.329Z</time></trkpt><trkpt lat="43.2551717" lon="12.7696778"><ele>458.0</ele><time>2026-04-25T11:15:55.336Z</time></trkpt><trkpt lat="43.2552743" lon="12.7697945"><ele>458.0</ele><time>2026-04-25T11:15:56.333Z</time></trkpt><trkpt lat="43.2553824" lon="12.7699132"><ele>458.0</ele><time>2026-04-25T11:15:57.332Z</time></trkpt><trkpt lat="43.2554933" lon="12.770032"><ele>458.0</ele><time>2026-04-25T11:15:58.333Z</time></trkpt><trkpt lat="43.2556048" lon="12.7701429"><ele>458.0</ele><time>2026-04-25T11:15:59.331Z</time></trkpt><trkpt lat="43.2557149" lon="12.7702458"><ele>458.4</ele><time>2026-04-25T11:16:00.337Z</time></trkpt><trkpt lat="43.2558215" lon="12.7703417"><ele>458.79999999999995</ele><time>2026-04-25T11:16:01.331Z</time></trkpt><trkpt lat="43.2559162" lon="12.7704317"><ele>459.2</ele><time>2026-04-25T11:16:02.335Z</time></trkpt><trkpt lat="43.2559967" lon="12.7705163"><ele>459.6</ele><time>2026-04-25T11:16:03.337Z</time></trkpt><trkpt lat="43.2560567" lon="12.7706087"><ele>460.0</ele><time>2026-04-25T11:16:04.331Z</time></trkpt><trkpt lat="43.256092" lon="12.7707162"><ele>460.0</ele><time>2026-04-25T11:16:05.34Z</time></trkpt><trkpt lat="43.2561078" lon="12.7708397"><ele>460.0</ele><time>2026-04-25T11:16:06.341Z</time></trkpt><trkpt lat="43.2561207" lon="12.770973"><ele>460.0</ele><time>2026-04-25T11:16:07.337Z</time></trkpt><trkpt lat="43.2561425" lon="12.7711053"><ele>460.0</ele><time>2026-04-25T11:16:08.333Z</time></trkpt><trkpt lat="43.2561768" lon="12.7712293"><ele>460.0</ele><time>2026-04-25T11:16:09.328Z</time></trkpt><trkpt lat="43.2562232" lon="12.7713365"><ele>458.8</ele><time>2026-04-25T11:16:10.337Z</time></trkpt><trkpt lat="43.2562883" lon="12.771424"><ele>457.6</ele><time>2026-04-25T11:16:11.326Z</time></trkpt><trkpt lat="43.2563742" lon="12.7714941"><ele>456.4</ele><time>2026-04-25T11:16:12.336Z</time></trkpt><trkpt lat="43.2564631" lon="12.7715583"><ele>455.2</ele><time>2026-04-25T11:16:13.333Z</time></trkpt><trkpt lat="43.2565463" lon="12.7716266"><ele>454.0</ele><time>2026-04-25T11:16:14.331Z</time></trkpt><trkpt lat="43.2566208" lon="12.7717038"><ele>454.00000000000006</ele><time>2026-04-25T11:16:15.326Z</time></trkpt><trkpt lat="43.2566802" lon="12.7717991"><ele>454.0</ele><time>2026-04-25T11:16:16.328Z</time></trkpt><trkpt lat="43.2567239" lon="12.7718962"><ele>454.0</ele><time>2026-04-25T11:16:17.329Z</time></trkpt><trkpt lat="43.2567404" lon="12.7720045"><ele>454.0</ele><time>2026-04-25T11:16:18.328Z</time></trkpt><trkpt lat="43.2567253" lon="12.7721131"><ele>454.00000000000006</ele><time>2026-04-25T11:16:19.335Z</time></trkpt><trkpt lat="43.2566801" lon="12.7722309"><ele>454.0</ele><time>2026-04-25T11:16:20.33Z</time></trkpt><trkpt lat="43.2566118" lon="12.7723686"><ele>454.5</ele><time>2026-04-25T11:16:21.336Z</time></trkpt><trkpt lat="43.256544" lon="12.7725273"><ele>455.0</ele><time>2026-04-25T11:16:22.339Z</time></trkpt><trkpt lat="43.256484" lon="12.772708"><ele>455.5</ele><time>2026-04-25T11:16:23.326Z</time></trkpt><trkpt lat="43.2564344" lon="12.772907"><ele>456.0</ele><time>2026-04-25T11:16:24.33Z</time></trkpt><trkpt lat="43.2563915" lon="12.7731226"><ele>465.33333333333337</ele><time>2026-04-25T11:16:25.327Z</time></trkpt><trkpt lat="43.2563441" lon="12.7733428"><ele>474.6666666666667</ele><time>2026-04-25T11:16:26.333Z</time></trkpt><trkpt lat="43.2562894" lon="12.7735641"><ele>484.0</ele><time>2026-04-25T11:16:27.34Z</time></trkpt><trkpt lat="43.2562311" lon="12.7737856"><ele>484.0</ele><time>2026-04-25T11:16:28.334Z</time></trkpt><trkpt lat="43.2561767" lon="12.7740012"><ele>484.0</ele><time>2026-04-25T11:16:29.33Z</time></trkpt><trkpt lat="43.2561351" lon="12.7742164"><ele>484.0</ele><time>2026-04-25T11:16:30.332Z</time></trkpt><trkpt lat="43.2561041" lon="12.7744363"><ele>482.0</ele><time>2026-04-25T11:16:31.333Z</time></trkpt><trkpt lat="43.2560799" lon="12.7746593"><ele>480.0</ele><time>2026-04-25T11:16:32.323Z</time></trkpt><trkpt lat="43.256053" lon="12.7748876"><ele>478.0</ele><time>2026-04-25T11:16:33.332Z</time></trkpt><trkpt lat="43.2560288" lon="12.7751123"><ele>479.0</ele><time>2026-04-25T11:16:34.329Z</time></trkpt><trkpt lat="43.2560042" lon="12.775329"><ele>480.0</ele><time>2026-04-25T11:16:35.333Z</time></trkpt><trkpt lat="43.255985" lon="12.7755331"><ele>481.0</ele><time>2026-04-25T11:16:36.329Z</time></trkpt><trkpt lat="43.2559765" lon="12.775721"><ele>482.0</ele><time>2026-04-25T11:16:37.33Z</time></trkpt><trkpt lat="43.2559813" lon="12.7758798"><ele>483.20000000000005</ele><time>2026-04-25T11:16:38.329Z</time></trkpt><trkpt lat="43.2559971" lon="12.7760209"><ele>484.40000000000003</ele><time>2026-04-25T11:16:39.323Z</time></trkpt><trkpt lat="43.2560277" lon="12.7761545"><ele>485.59999999999997</ele><time>2026-04-25T11:16:40.329Z</time></trkpt><trkpt lat="43.2560768" lon="12.7762915"><ele>486.79999999999995</ele><time>2026-04-25T11:16:41.326Z</time></trkpt><trkpt lat="43.2561289" lon="12.7764246"><ele>488.0</ele><time>2026-04-25T11:16:42.322Z</time></trkpt><trkpt lat="43.2561719" lon="12.7765655"><ele>488.0</ele><time>2026-04-25T11:16:43.329Z</time></trkpt><trkpt lat="43.2562048" lon="12.7767309"><ele>488.0</ele><time>2026-04-25T11:16:44.323Z</time></trkpt><trkpt lat="43.2562415" lon="12.7769144"><ele>488.0</ele><time>2026-04-25T11:16:45.325Z</time></trkpt><trkpt lat="43.2562808" lon="12.7771145"><ele>488.0</ele><time>2026-04-25T11:16:46.333Z</time></trkpt><trkpt lat="43.2563192" lon="12.7773176"><ele>488.25</ele><time>2026-04-25T11:16:47.333Z</time></trkpt><trkpt lat="43.2563528" lon="12.7775069"><ele>488.5</ele><time>2026-04-25T11:16:48.327Z</time></trkpt><trkpt lat="43.2563706" lon="12.7776814"><ele>488.75</ele><time>2026-04-25T11:16:49.325Z</time></trkpt><trkpt lat="43.2563731" lon="12.7778481"><ele>489.0</ele><time>2026-04-25T11:16:50.329Z</time></trkpt><trkpt lat="43.2563544" lon="12.7780057"><ele>489.0</ele><time>2026-04-25T11:16:51.33Z</time></trkpt><trkpt lat="43.2563113" lon="12.7781662"><ele>489.0</ele><time>2026-04-25T11:16:52.332Z</time></trkpt><trkpt lat="43.25626" lon="12.7783358"><ele>489.0</ele><time>2026-04-25T11:16:53.327Z</time></trkpt><trkpt lat="43.256208" lon="12.7784966"><ele>489.0</ele><time>2026-04-25T11:16:54.321Z</time></trkpt><trkpt lat="43.2561584" lon="12.7786464"><ele>488.79999999999995</ele><time>2026-04-25T11:16:55.324Z</time></trkpt><trkpt lat="43.2561098" lon="12.778784"><ele>488.59999999999997</ele><time>2026-04-25T11:16:56.322Z</time></trkpt><trkpt lat="43.2560678" lon="12.7789113"><ele>488.4</ele><time>2026-04-25T11:16:57.327Z</time></trkpt><trkpt lat="43.2560414" lon="12.779045"><ele>488.2</ele><time>2026-04-25T11:16:58.332Z</time></trkpt><trkpt lat="43.2560336" lon="12.779199"><ele>488.0</ele><time>2026-04-25T11:16:59.33Z</time></trkpt><trkpt lat="43.2560392" lon="12.7793753"><ele>488.0</ele><time>2026-04-25T11:17:00.326Z</time></trkpt><trkpt lat="43.2560489" lon="12.7795662"><ele>488.0</ele><time>2026-04-25T11:17:01.317Z</time></trkpt><trkpt lat="43.2560549" lon="12.7797565"><ele>488.0</ele><time>2026-04-25T11:17:02.333Z</time></trkpt><trkpt lat="43.256058" lon="12.7799401"><ele>488.0</ele><time>2026-04-25T11:17:03.332Z</time></trkpt><trkpt lat="43.2560563" lon="12.7801135"><ele>488.4</ele><time>2026-04-25T11:17:04.328Z</time></trkpt><trkpt lat="43.2560555" lon="12.7802695"><ele>488.79999999999995</ele><time>2026-04-25T11:17:05.316Z</time></trkpt><trkpt lat="43.2560557" lon="12.780415"><ele>489.2</ele><time>2026-04-25T11:17:06.319Z</time></trkpt><trkpt lat="43.2560483" lon="12.7805543"><ele>489.6</ele><time>2026-04-25T11:17:07.329Z</time></trkpt><trkpt lat="43.2560308" lon="12.7806944"><ele>490.0</ele><time>2026-04-25T11:17:08.332Z</time></trkpt><trkpt lat="43.2560067" lon="12.7808389"><ele>490.0</ele><time>2026-04-25T11:17:09.319Z</time></trkpt><trkpt lat="43.2559893" lon="12.7809849"><ele>490.0</ele><time>2026-04-25T11:17:10.323Z</time></trkpt><trkpt lat="43.2559832" lon="12.7811219"><ele>490.0</ele><time>2026-04-25T11:17:11.333Z</time></trkpt><trkpt lat="43.2559847" lon="12.7812499"><ele>490.0</ele><time>2026-04-25T11:17:12.331Z</time></trkpt><trkpt lat="43.2559919" lon="12.7813624"><ele>490.0</ele><time>2026-04-25T11:17:13.328Z</time></trkpt><trkpt lat="43.2560024" lon="12.7814578"><ele>490.50000000000006</ele><time>2026-04-25T11:17:14.319Z</time></trkpt><trkpt lat="43.2560193" lon="12.7815569"><ele>491.0</ele><time>2026-04-25T11:17:15.325Z</time></trkpt><trkpt lat="43.2560337" lon="12.7816547"><ele>491.5</ele><time>2026-04-25T11:17:16.326Z</time></trkpt><trkpt lat="43.2560433" lon="12.7817932"><ele>492.0</ele><time>2026-04-25T11:17:18.329Z</time></trkpt><trkpt lat="43.2560026" lon="12.7818865"><ele>492.50000000000006</ele><time>2026-04-25T11:17:21.326Z</time></trkpt><trkpt lat="43.2559854" lon="12.7817871"><ele>493.0</ele><time>2026-04-25T11:17:33.327Z</time></trkpt><trkpt lat="43.2559425" lon="12.7816259"><ele>493.00000000000006</ele><time>2026-04-25T11:17:35.326Z</time></trkpt><trkpt lat="43.2559185" lon="12.7815338"><ele>493.0</ele><time>2026-04-25T11:17:36.329Z</time></trkpt><trkpt lat="43.2558953" lon="12.7814271"><ele>493.0</ele><time>2026-04-25T11:17:37.324Z</time></trkpt><trkpt lat="43.255871" lon="12.7813113"><ele>493.0</ele><time>2026-04-25T11:17:38.328Z</time></trkpt><trkpt lat="43.2558502" lon="12.7811878"><ele>493.00000000000006</ele><time>2026-04-25T11:17:39.324Z</time></trkpt><trkpt lat="43.2558284" lon="12.7810604"><ele>493.0</ele><time>2026-04-25T11:17:40.326Z</time></trkpt><trkpt lat="43.2558055" lon="12.7809334"><ele>492.4</ele><time>2026-04-25T11:17:41.329Z</time></trkpt><trkpt lat="43.2557819" lon="12.7808037"><ele>491.79999999999995</ele><time>2026-04-25T11:17:42.32Z</time></trkpt><trkpt lat="43.2557533" lon="12.7806681"><ele>491.2</ele><time>2026-04-25T11:17:43.321Z</time></trkpt><trkpt lat="43.2557198" lon="12.7805296"><ele>490.6</ele><time>2026-04-25T11:17:44.317Z</time></trkpt><trkpt lat="43.2556866" lon="12.7803883"><ele>490.0</ele><time>2026-04-25T11:17:45.322Z</time></trkpt><trkpt lat="43.2556503" lon="12.7802427"><ele>498.4</ele><time>2026-04-25T11:17:46.327Z</time></trkpt><trkpt lat="43.2556168" lon="12.7800966"><ele>506.8</ele><time>2026-04-25T11:17:47.326Z</time></trkpt><trkpt lat="43.2555875" lon="12.7799563"><ele>515.2</ele><time>2026-04-25T11:17:48.326Z</time></trkpt><trkpt lat="43.2555617" lon="12.7798232"><ele>523.6</ele><time>2026-04-25T11:17:49.321Z</time></trkpt><trkpt lat="43.2555369" lon="12.7797005"><ele>532.0</ele><time>2026-04-25T11:17:50.325Z</time></trkpt><trkpt lat="43.2555108" lon="12.7795883"><ele>532.0</ele><time>2026-04-25T11:17:51.322Z</time></trkpt><trkpt lat="43.2554804" lon="12.7794813"><ele>532.0</ele><time>2026-04-25T11:17:52.33Z</time></trkpt><trkpt lat="43.2554436" lon="12.7793677"><ele>532.0</ele><time>2026-04-25T11:17:53.327Z</time></trkpt><trkpt lat="43.2554057" lon="12.7792401"><ele>532.0</ele><time>2026-04-25T11:17:54.327Z</time></trkpt><trkpt lat="43.2553729" lon="12.7791088"><ele>532.0</ele><time>2026-04-25T11:17:55.325Z</time></trkpt><trkpt lat="43.2553428" lon="12.7789886"><ele>532.0</ele><time>2026-04-25T11:17:56.32Z</time></trkpt><trkpt lat="43.2553124" lon="12.7788778"><ele>532.0</ele><time>2026-04-25T11:17:57.328Z</time></trkpt><trkpt lat="43.2552909" lon="12.7787665"><ele>532.0</ele><time>2026-04-25T11:17:58.329Z</time></trkpt><trkpt lat="43.255277" lon="12.7786525"><ele>532.0</ele><time>2026-04-25T11:17:59.327Z</time></trkpt><trkpt lat="43.255262" lon="12.7785433"><ele>532.0</ele><time>2026-04-25T11:18:00.326Z</time></trkpt><trkpt lat="43.2552451" lon="12.778432"><ele>532.0</ele><time>2026-04-25T11:18:01.333Z</time></trkpt><trkpt lat="43.2552213" lon="12.7783272"><ele>532.3333333333334</ele><time>2026-04-25T11:18:02.333Z</time></trkpt><trkpt lat="43.2551961" lon="12.7782418"><ele>532.6666666666667</ele><time>2026-04-25T11:18:03.326Z</time></trkpt><trkpt lat="43.2551488" lon="12.7780914"><ele>533.0</ele><time>2026-04-25T11:18:05.333Z</time></trkpt><trkpt lat="43.2551158" lon="12.7780061"><ele>533.3333333333334</ele><time>2026-04-25T11:18:06.329Z</time></trkpt><trkpt lat="43.2550781" lon="12.7779163"><ele>533.6666666666666</ele><time>2026-04-25T11:18:07.336Z</time></trkpt><trkpt lat="43.2550346" lon="12.7778228"><ele>534.0</ele><time>2026-04-25T11:18:08.326Z</time></trkpt><trkpt lat="43.2549932" lon="12.7777284"><ele>533.1666666666666</ele><time>2026-04-25T11:18:09.326Z</time></trkpt><trkpt lat="43.2549521" lon="12.7776324"><ele>532.3333333333334</ele><time>2026-04-25T11:18:10.333Z</time></trkpt><trkpt lat="43.2549097" lon="12.7775353"><ele>531.5</ele><time>2026-04-25T11:18:11.327Z</time></trkpt><trkpt lat="43.2548692" lon="12.7774373"><ele>530.6666666666667</ele><time>2026-04-25T11:18:12.335Z</time></trkpt><trkpt lat="43.2548331" lon="12.7773399"><ele>529.8333333333334</ele><time>2026-04-25T11:18:13.331Z</time></trkpt><trkpt lat="43.2547967" lon="12.7772416"><ele>529.0</ele><time>2026-04-25T11:18:14.329Z</time></trkpt><trkpt lat="43.2547601" lon="12.7771408"><ele>531.1666666666667</ele><time>2026-04-25T11:18:15.331Z</time></trkpt><trkpt lat="43.2547231" lon="12.7770367"><ele>533.3333333333334</ele><time>2026-04-25T11:18:16.331Z</time></trkpt><trkpt lat="43.2546826" lon="12.7769312"><ele>535.5</ele><time>2026-04-25T11:18:17.331Z</time></trkpt><trkpt lat="43.2546399" lon="12.7768223"><ele>537.6666666666666</ele><time>2026-04-25T11:18:18.326Z</time></trkpt><trkpt lat="43.2545969" lon="12.7767087"><ele>539.8333333333333</ele><time>2026-04-25T11:18:19.326Z</time></trkpt><trkpt lat="43.254553" lon="12.7765938"><ele>542.0</ele><time>2026-04-25T11:18:20.331Z</time></trkpt><trkpt lat="43.2545101" lon="12.77648"><ele>542.0</ele><time>2026-04-25T11:18:21.329Z</time></trkpt><trkpt lat="43.2544688" lon="12.7763668"><ele>542.0</ele><time>2026-04-25T11:18:22.333Z</time></trkpt><trkpt lat="43.25443" lon="12.7762536"><ele>542.0</ele><time>2026-04-25T11:18:23.323Z</time></trkpt><trkpt lat="43.2543948" lon="12.7761373"><ele>542.0</ele><time>2026-04-25T11:18:24.33Z</time></trkpt><trkpt lat="43.2543687" lon="12.7760215"><ele>542.0</ele><time>2026-04-25T11:18:25.328Z</time></trkpt><trkpt lat="43.2543543" lon="12.7759025"><ele>541.6666666666666</ele><time>2026-04-25T11:18:26.326Z</time></trkpt><trkpt lat="43.2543478" lon="12.7757792"><ele>541.3333333333333</ele><time>2026-04-25T11:18:27.324Z</time></trkpt><trkpt lat="43.2543401" lon="12.7756506"><ele>541.0</ele><time>2026-04-25T11:18:28.33Z</time></trkpt><trkpt lat="43.2543257" lon="12.7755259"><ele>540.6666666666666</ele><time>2026-04-25T11:18:29.327Z</time></trkpt><trkpt lat="43.2543032" lon="12.7754106"><ele>540.3333333333334</ele><time>2026-04-25T11:18:30.331Z</time></trkpt><trkpt lat="43.2542754" lon="12.7752994"><ele>540.0</ele><time>2026-04-25T11:18:31.331Z</time></trkpt><trkpt lat="43.2542446" lon="12.7751878"><ele>539.4</ele><time>2026-04-25T11:18:32.334Z</time></trkpt><trkpt lat="43.254214" lon="12.7750755"><ele>538.8</ele><time>2026-04-25T11:18:33.332Z</time></trkpt><trkpt lat="43.2541845" lon="12.7749583"><ele>538.2</ele><time>2026-04-25T11:18:34.327Z</time></trkpt><trkpt lat="43.2541539" lon="12.7748355"><ele>537.6</ele><time>2026-04-25T11:18:35.322Z</time></trkpt><trkpt lat="43.254118" lon="12.7747163"><ele>537.0</ele><time>2026-04-25T11:18:36.323Z</time></trkpt><trkpt lat="43.2540714" lon="12.7746085"><ele>537.0</ele><time>2026-04-25T11:18:37.332Z</time></trkpt><trkpt lat="43.2540158" lon="12.774521"><ele>537.0</ele><time>2026-04-25T11:18:38.331Z</time></trkpt><trkpt lat="43.2539562" lon="12.77445"><ele>537.0</ele><time>2026-04-25T11:18:39.335Z</time></trkpt><trkpt lat="43.2539029" lon="12.774382"><ele>537.0</ele><time>2026-04-25T11:18:40.334Z</time></trkpt><trkpt lat="43.2538565" lon="12.7743045"><ele>537.0</ele><time>2026-04-25T11:18:41.327Z</time></trkpt><trkpt lat="43.2538178" lon="12.7742125"><ele>537.0</ele><time>2026-04-25T11:18:42.334Z</time></trkpt><trkpt lat="43.2537912" lon="12.7741165"><ele>538.8000000000001</ele><time>2026-04-25T11:18:43.324Z</time></trkpt><trkpt lat="43.2537755" lon="12.774027"><ele>540.6</ele><time>2026-04-25T11:18:44.333Z</time></trkpt><trkpt lat="43.2537651" lon="12.7738806"><ele>542.4000000000001</ele><time>2026-04-25T11:18:46.324Z</time></trkpt><trkpt lat="43.2537115" lon="12.7738069"><ele>544.2</ele><time>2026-04-25T11:18:49.321Z</time></trkpt><trkpt lat="43.2536447" lon="12.7738986"><ele>546.0</ele><time>2026-04-25T11:18:52.338Z</time></trkpt><trkpt lat="43.2536156" lon="12.7740985"><ele>546.0</ele><time>2026-04-25T11:18:54.324Z</time></trkpt><trkpt lat="43.2535939" lon="12.7742439"><ele>546.0</ele><time>2026-04-25T11:18:55.333Z</time></trkpt><trkpt lat="43.2535604" lon="12.7744083"><ele>546.0</ele><time>2026-04-25T11:18:56.333Z</time></trkpt><trkpt lat="43.2535228" lon="12.7745787"><ele>546.0</ele><time>2026-04-25T11:18:57.336Z</time></trkpt><trkpt lat="43.2534828" lon="12.7747507"><ele>546.75</ele><time>2026-04-25T11:18:58.331Z</time></trkpt><trkpt lat="43.2534423" lon="12.7749334"><ele>547.5</ele><time>2026-04-25T11:18:59.326Z</time></trkpt><trkpt lat="43.2533999" lon="12.7751219"><ele>548.25</ele><time>2026-04-25T11:19:00.338Z</time></trkpt><trkpt lat="43.2533609" lon="12.7753087"><ele>549.0</ele><time>2026-04-25T11:19:01.326Z</time></trkpt><trkpt lat="43.2533255" lon="12.7754992"><ele>550.5</ele><time>2026-04-25T11:19:02.33Z</time></trkpt><trkpt lat="43.2532933" lon="12.7756922"><ele>552.0</ele><time>2026-04-25T11:19:03.329Z</time></trkpt><trkpt lat="43.2532623" lon="12.7758877"><ele>553.5</ele><time>2026-04-25T11:19:04.332Z</time></trkpt><trkpt lat="43.2532359" lon="12.7760793"><ele>555.0</ele><time>2026-04-25T11:19:05.335Z</time></trkpt><trkpt lat="43.2532112" lon="12.7762563"><ele>556.25</ele><time>2026-04-25T11:19:06.334Z</time></trkpt><trkpt lat="43.2531882" lon="12.7764128"><ele>557.5</ele><time>2026-04-25T11:19:07.332Z</time></trkpt><trkpt lat="43.2531694" lon="12.7765669"><ele>558.75</ele><time>2026-04-25T11:19:08.33Z</time></trkpt><trkpt lat="43.2531531" lon="12.7767247"><ele>560.0</ele><time>2026-04-25T11:19:09.329Z</time></trkpt><trkpt lat="43.2531404" lon="12.7768887"><ele>561.5</ele><time>2026-04-25T11:19:10.329Z</time></trkpt><trkpt lat="43.2531306" lon="12.7770579"><ele>563.0</ele><time>2026-04-25T11:19:11.332Z</time></trkpt><trkpt lat="43.2531247" lon="12.7772359"><ele>564.5</ele><time>2026-04-25T11:19:12.335Z</time></trkpt><trkpt lat="43.2531221" lon="12.7774157"><ele>566.0</ele><time>2026-04-25T11:19:13.329Z</time></trkpt><trkpt lat="43.2531252" lon="12.7775994"><ele>568.0</ele><time>2026-04-25T11:19:14.332Z</time></trkpt><trkpt lat="43.2531319" lon="12.7777861"><ele>570.0</ele><time>2026-04-25T11:19:15.33Z</time></trkpt><trkpt lat="43.2531369" lon="12.7779757"><ele>572.0</ele><time>2026-04-25T11:19:16.33Z</time></trkpt><trkpt lat="43.2531362" lon="12.7781538"><ele>574.0</ele><time>2026-04-25T11:19:17.329Z</time></trkpt><trkpt lat="43.2531239" lon="12.7783098"><ele>575.4</ele><time>2026-04-25T11:19:18.324Z</time></trkpt><trkpt lat="43.2530996" lon="12.7784487"><ele>576.8</ele><time>2026-04-25T11:19:19.333Z</time></trkpt><trkpt lat="43.2530615" lon="12.7785776"><ele>578.2</ele><time>2026-04-25T11:19:20.33Z</time></trkpt><trkpt lat="43.2530105" lon="12.7787038"><ele>579.6</ele><time>2026-04-25T11:19:21.331Z</time></trkpt><trkpt lat="43.2529515" lon="12.7788312"><ele>581.0</ele><time>2026-04-25T11:19:22.327Z</time></trkpt><trkpt lat="43.2528928" lon="12.7789618"><ele>582.0</ele><time>2026-04-25T11:19:23.322Z</time></trkpt><trkpt lat="43.2528401" lon="12.7790974"><ele>583.0</ele><time>2026-04-25T11:19:24.328Z</time></trkpt><trkpt lat="43.2527919" lon="12.7792334"><ele>584.0</ele><time>2026-04-25T11:19:25.33Z</time></trkpt><trkpt lat="43.2527537" lon="12.779366"><ele>585.0</ele><time>2026-04-25T11:19:26.329Z</time></trkpt><trkpt lat="43.2527225" lon="12.7794955"><ele>586.0</ele><time>2026-04-25T11:19:27.32Z</time></trkpt><trkpt lat="43.2526992" lon="12.7796271"><ele>587.0</ele><time>2026-04-25T11:19:28.329Z</time></trkpt><trkpt lat="43.2526838" lon="12.7797661"><ele>588.0</ele><time>2026-04-25T11:19:29.325Z</time></trkpt><trkpt lat="43.2526751" lon="12.7799312"><ele>589.0</ele><time>2026-04-25T11:19:30.335Z</time></trkpt><trkpt lat="43.2526689" lon="12.7801288"><ele>590.0</ele><time>2026-04-25T11:19:31.335Z</time></trkpt><trkpt lat="43.2526633" lon="12.780345"><ele>591.75</ele><time>2026-04-25T11:19:32.331Z</time></trkpt><trkpt lat="43.2526559" lon="12.7805451"><ele>593.5</ele><time>2026-04-25T11:19:33.336Z</time></trkpt><trkpt lat="43.252641" lon="12.7807287"><ele>595.25</ele><time>2026-04-25T11:19:34.326Z</time></trkpt><trkpt lat="43.2526157" lon="12.7809156"><ele>597.0</ele><time>2026-04-25T11:19:35.332Z</time></trkpt><trkpt lat="43.2525834" lon="12.781104"><ele>600.25</ele><time>2026-04-25T11:19:36.329Z</time></trkpt><trkpt lat="43.2525514" lon="12.7812974"><ele>603.5</ele><time>2026-04-25T11:19:37.336Z</time></trkpt><trkpt lat="43.2525264" lon="12.7814918"><ele>606.75</ele><time>2026-04-25T11:19:38.333Z</time></trkpt><trkpt lat="43.2525051" lon="12.781684"><ele>610.0</ele><time>2026-04-25T11:19:39.332Z</time></trkpt><trkpt lat="43.2524857" lon="12.7818625"><ele>613.0</ele><time>2026-04-25T11:19:40.325Z</time></trkpt><trkpt lat="43.2524636" lon="12.7820178"><ele>616.0</ele><time>2026-04-25T11:19:41.329Z</time></trkpt><trkpt lat="43.252436" lon="12.7821594"><ele>619.0</ele><time>2026-04-25T11:19:42.325Z</time></trkpt><trkpt lat="43.2523955" lon="12.7823028"><ele>622.0</ele><time>2026-04-25T11:19:43.333Z</time></trkpt><trkpt lat="43.252347" lon="12.7824567"><ele>622.0</ele><time>2026-04-25T11:19:44.333Z</time></trkpt><trkpt lat="43.2523016" lon="12.7826142"><ele>622.0</ele><time>2026-04-25T11:19:45.332Z</time></trkpt><trkpt lat="43.2522687" lon="12.7827628"><ele>622.0</ele><time>2026-04-25T11:19:46.331Z</time></trkpt><trkpt lat="43.2522442" lon="12.7828968"><ele>622.0</ele><time>2026-04-25T11:19:47.333Z</time></trkpt><trkpt lat="43.2522193" lon="12.7830057"><ele>622.0</ele><time>2026-04-25T11:19:48.334Z</time></trkpt><trkpt lat="43.2521821" lon="12.7830859"><ele>627.0</ele><time>2026-04-25T11:19:49.333Z</time></trkpt><trkpt lat="43.2520935" lon="12.7831652"><ele>632.0</ele><time>2026-04-25T11:19:51.327Z</time></trkpt><trkpt lat="43.2520019" lon="12.7830809"><ele>637.0</ele><time>2026-04-25T11:20:04.333Z</time></trkpt><trkpt lat="43.2519653" lon="12.7830001"><ele>642.0</ele><time>2026-04-25T11:20:05.33Z</time></trkpt><trkpt lat="43.2519231" lon="12.7829038"><ele>647.0</ele><time>2026-04-25T11:20:06.326Z</time></trkpt><trkpt lat="43.2518763" lon="12.7828084"><ele>647.0</ele><time>2026-04-25T11:20:07.332Z</time></trkpt><trkpt lat="43.2518275" lon="12.7827198"><ele>647.0</ele><time>2026-04-25T11:20:08.333Z</time></trkpt><trkpt lat="43.2517801" lon="12.7826366"><ele>647.0</ele><time>2026-04-25T11:20:09.321Z</time></trkpt><trkpt lat="43.2517322" lon="12.782554"><ele>647.0</ele><time>2026-04-25T11:20:10.323Z</time></trkpt><trkpt lat="43.2516807" lon="12.7824716"><ele>647.0</ele><time>2026-04-25T11:20:11.332Z</time></trkpt><trkpt lat="43.2516287" lon="12.782392"><ele>647.0</ele><time>2026-04-25T11:20:12.337Z</time></trkpt><trkpt lat="43.2515792" lon="12.782316"><ele>644.6666666666666</ele><time>2026-04-25T11:20:13.323Z</time></trkpt><trkpt lat="43.2515381" lon="12.7822468"><ele>642.3333333333333</ele><time>2026-04-25T11:20:14.331Z</time></trkpt><trkpt lat="43.2514702" lon="12.782142"><ele>640.0</ele><time>2026-04-25T11:20:16.331Z</time></trkpt><trkpt lat="43.2514255" lon="12.7820808"><ele>637.6666666666666</ele><time>2026-04-25T11:20:18.331Z</time></trkpt><trkpt lat="43.2514594" lon="12.7821641"><ele>635.3333333333334</ele><time>2026-04-25T11:20:34.331Z</time></trkpt><trkpt lat="43.2515673" lon="12.7822848"><ele>633.0</ele><time>2026-04-25T11:20:36.334Z</time></trkpt><trkpt lat="43.2516195" lon="12.7823632"><ele>633.0</ele><time>2026-04-25T11:20:37.338Z</time></trkpt><trkpt lat="43.2516707" lon="12.782449"><ele>633.0</ele><time>2026-04-25T11:20:38.334Z</time></trkpt><trkpt lat="43.2517266" lon="12.7825395"><ele>633.0</ele><time>2026-04-25T11:20:39.329Z</time></trkpt><trkpt lat="43.2517815" lon="12.7826303"><ele>633.0</ele><time>2026-04-25T11:20:40.331Z</time></trkpt><trkpt lat="43.2518348" lon="12.7827212"><ele>633.0</ele><time>2026-04-25T11:20:41.331Z</time></trkpt><trkpt lat="43.2518845" lon="12.7828104"><ele>633.0</ele><time>2026-04-25T11:20:42.335Z</time></trkpt><trkpt lat="43.25193" lon="12.7828991"><ele>635.3333333333334</ele><time>2026-04-25T11:20:43.322Z</time></trkpt><trkpt lat="43.2519691" lon="12.782982"><ele>637.6666666666666</ele><time>2026-04-25T11:20:44.325Z</time></trkpt><trkpt lat="43.2520211" lon="12.783103"><ele>640.0</ele><time>2026-04-25T11:20:46.325Z</time></trkpt><trkpt lat="43.2520378" lon="12.7831926"><ele>642.3333333333333</ele><time>2026-04-25T11:20:48.323Z</time></trkpt><trkpt lat="43.2520389" lon="12.7832921"><ele>644.6666666666666</ele><time>2026-04-25T11:20:50.332Z</time></trkpt><trkpt lat="43.2520375" lon="12.7834154"><ele>647.0</ele><time>2026-04-25T11:20:52.333Z</time></trkpt><trkpt lat="43.2520413" lon="12.7835695"><ele>649.4000000000001</ele><time>2026-04-25T11:20:54.325Z</time></trkpt><trkpt lat="43.2520456" lon="12.7837236"><ele>651.8000000000001</ele><time>2026-04-25T11:20:56.328Z</time></trkpt><trkpt lat="43.2520385" lon="12.7838577"><ele>654.2</ele><time>2026-04-25T11:20:58.33Z</time></trkpt><trkpt lat="43.2519934" lon="12.7839822"><ele>656.6</ele><time>2026-04-25T11:21:00.332Z</time></trkpt><trkpt lat="43.2519283" lon="12.7841293"><ele>659.0</ele><time>2026-04-25T11:21:02.332Z</time></trkpt><trkpt lat="43.2518947" lon="12.7842224"><ele>659.0</ele><time>2026-04-25T11:21:03.327Z</time></trkpt><trkpt lat="43.2518596" lon="12.7843233"><ele>659.0</ele><time>2026-04-25T11:21:04.327Z</time></trkpt><trkpt lat="43.251821" lon="12.7844289"><ele>659.0</ele><time>2026-04-25T11:21:05.33Z</time></trkpt><trkpt lat="43.2517748" lon="12.7845318"><ele>659.0</ele><time>2026-04-25T11:21:06.323Z</time></trkpt><trkpt lat="43.2517215" lon="12.7846319"><ele>659.0</ele><time>2026-04-25T11:21:07.329Z</time></trkpt><trkpt lat="43.2516686" lon="12.7847297"><ele>659.0</ele><time>2026-04-25T11:21:08.323Z</time></trkpt><trkpt lat="43.2516186" lon="12.784828"><ele>657.5</ele><time>2026-04-25T11:21:09.331Z</time></trkpt><trkpt lat="43.2515697" lon="12.7849278"><ele>656.0</ele><time>2026-04-25T11:21:10.329Z</time></trkpt><trkpt lat="43.2515217" lon="12.7850217"><ele>654.5</ele><time>2026-04-25T11:21:11.332Z</time></trkpt><trkpt lat="43.2514713" lon="12.7851126"><ele>653.0</ele><time>2026-04-25T11:21:12.323Z</time></trkpt><trkpt lat="43.2514237" lon="12.7852036"><ele>651.5</ele><time>2026-04-25T11:21:13.318Z</time></trkpt><trkpt lat="43.2513752" lon="12.7852966"><ele>650.0</ele><time>2026-04-25T11:21:14.328Z</time></trkpt><trkpt lat="43.2513269" lon="12.7853904"><ele>656.6666666666666</ele><time>2026-04-25T11:21:15.329Z</time></trkpt><trkpt lat="43.2512767" lon="12.7854849"><ele>663.3333333333333</ele><time>2026-04-25T11:21:16.326Z</time></trkpt><trkpt lat="43.2512282" lon="12.7855768"><ele>670.0</ele><time>2026-04-25T11:21:17.328Z</time></trkpt><trkpt lat="43.2511828" lon="12.7856619"><ele>676.6666666666666</ele><time>2026-04-25T11:21:18.329Z</time></trkpt><trkpt lat="43.251135" lon="12.7857452"><ele>683.3333333333334</ele><time>2026-04-25T11:21:19.327Z</time></trkpt><trkpt lat="43.2510874" lon="12.7858314"><ele>690.0</ele><time>2026-04-25T11:21:20.328Z</time></trkpt><trkpt lat="43.2510426" lon="12.7859209"><ele>687.6666666666666</ele><time>2026-04-25T11:21:21.32Z</time></trkpt><trkpt lat="43.2509956" lon="12.7860138"><ele>685.3333333333334</ele><time>2026-04-25T11:21:22.32Z</time></trkpt><trkpt lat="43.2509469" lon="12.7861096"><ele>683.0</ele><time>2026-04-25T11:21:23.329Z</time></trkpt><trkpt lat="43.250895" lon="12.7862005"><ele>680.6666666666667</ele><time>2026-04-25T11:21:24.324Z</time></trkpt><trkpt lat="43.2508414" lon="12.7862823"><ele>678.3333333333334</ele><time>2026-04-25T11:21:25.328Z</time></trkpt><trkpt lat="43.2507872" lon="12.786356"><ele>676.0</ele><time>2026-04-25T11:21:26.319Z</time></trkpt><trkpt lat="43.2507329" lon="12.7864202"><ele>676.0</ele><time>2026-04-25T11:21:27.325Z</time></trkpt><trkpt lat="43.250674" lon="12.7864743"><ele>676.0</ele><time>2026-04-25T11:21:28.326Z</time></trkpt><trkpt lat="43.2506121" lon="12.7865213"><ele>676.0</ele><time>2026-04-25T11:21:29.327Z</time></trkpt><trkpt lat="43.2505516" lon="12.7865692"><ele>676.0</ele><time>2026-04-25T11:21:30.331Z</time></trkpt><trkpt lat="43.2504901" lon="12.7866169"><ele>676.0</ele><time>2026-04-25T11:21:31.328Z</time></trkpt><trkpt lat="43.2504305" lon="12.7866645"><ele>676.0</ele><time>2026-04-25T11:21:32.33Z</time></trkpt><trkpt lat="43.2503738" lon="12.7867125"><ele>676.0</ele><time>2026-04-25T11:21:33.332Z</time></trkpt><trkpt lat="43.2503091" lon="12.7867679"><ele>679.0</ele><time>2026-04-25T11:21:34.33Z</time></trkpt><trkpt lat="43.2502459" lon="12.7868302"><ele>682.0</ele><time>2026-04-25T11:21:35.33Z</time></trkpt><trkpt lat="43.2501976" lon="12.7868981"><ele>685.0</ele><time>2026-04-25T11:21:36.333Z</time></trkpt><trkpt lat="43.2501571" lon="12.7869775"><ele>688.0</ele><time>2026-04-25T11:21:37.337Z</time></trkpt><trkpt lat="43.2501161" lon="12.7870678"><ele>691.0</ele><time>2026-04-25T11:21:38.334Z</time></trkpt><trkpt lat="43.2500773" lon="12.7871428"><ele>694.0</ele><time>2026-04-25T11:21:39.325Z</time></trkpt><trkpt lat="43.2499962" lon="12.787225"><ele>694.0</ele><time>2026-04-25T11:21:41.325Z</time></trkpt><trkpt lat="43.2499478" lon="12.7873362"><ele>694.0</ele><time>2026-04-25T11:21:44.331Z</time></trkpt><trkpt lat="43.2499257" lon="12.7875024"><ele>694.0</ele><time>2026-04-25T11:21:46.332Z</time></trkpt><trkpt lat="43.2499304" lon="12.7875948"><ele>694.0</ele><time>2026-04-25T11:21:47.33Z</time></trkpt><trkpt lat="43.2499466" lon="12.7876927"><ele>694.0</ele><time>2026-04-25T11:21:48.331Z</time></trkpt><trkpt lat="43.2499746" lon="12.7877945"><ele>694.0</ele><time>2026-04-25T11:21:49.331Z</time></trkpt><trkpt lat="43.2500118" lon="12.7878962"><ele>697.1666666666667</ele><time>2026-04-25T11:21:50.325Z</time></trkpt><trkpt lat="43.2500542" lon="12.7879817"><ele>700.3333333333334</ele><time>2026-04-25T11:21:51.333Z</time></trkpt><trkpt lat="43.2501551" lon="12.7880824"><ele>703.5</ele><time>2026-04-25T11:21:53.332Z</time></trkpt><trkpt lat="43.2502067" lon="12.7881425"><ele>706.6666666666666</ele><time>2026-04-25T11:21:54.327Z</time></trkpt><trkpt lat="43.2502554" lon="12.7882126"><ele>709.8333333333333</ele><time>2026-04-25T11:21:55.327Z</time></trkpt><trkpt lat="43.2503069" lon="12.7882774"><ele>713.0</ele><time>2026-04-25T11:21:56.328Z</time></trkpt><trkpt lat="43.2503915" lon="12.7883854"><ele>713.0</ele><time>2026-04-25T11:21:58.33Z</time></trkpt><trkpt lat="43.2504708" lon="12.7884882"><ele>713.0</ele><time>2026-04-25T11:22:00.323Z</time></trkpt><trkpt lat="43.2505248" lon="12.7886085"><ele>713.0</ele><time>2026-04-25T11:22:02.332Z</time></trkpt><trkpt lat="43.2504645" lon="12.7887367"><ele>713.0</ele><time>2026-04-25T11:22:04.333Z</time></trkpt><trkpt lat="43.2504302" lon="12.788879"><ele>713.0</ele><time>2026-04-25T11:22:06.33Z</time></trkpt><trkpt lat="43.2504689" lon="12.7890051"><ele>716.0</ele><time>2026-04-25T11:22:08.333Z</time></trkpt><trkpt lat="43.2505529" lon="12.789125"><ele>719.0</ele><time>2026-04-25T11:22:10.327Z</time></trkpt><trkpt lat="43.2506068" lon="12.7891771"><ele>722.0</ele><time>2026-04-25T11:22:11.33Z</time></trkpt><trkpt lat="43.2506642" lon="12.7892231"><ele>725.0</ele><time>2026-04-25T11:22:12.327Z</time></trkpt><trkpt lat="43.2507245" lon="12.7892735"><ele>728.0</ele><time>2026-04-25T11:22:13.332Z</time></trkpt><trkpt lat="43.250784" lon="12.7893252"><ele>731.0</ele><time>2026-04-25T11:22:14.328Z</time></trkpt><trkpt lat="43.2508411" lon="12.7893694"><ele>735.5</ele><time>2026-04-25T11:22:15.331Z</time></trkpt><trkpt lat="43.2508991" lon="12.7894102"><ele>740.0</ele><time>2026-04-25T11:22:16.326Z</time></trkpt><trkpt lat="43.2510111" lon="12.7894792"><ele>744.5</ele><time>2026-04-25T11:22:18.332Z</time></trkpt><trkpt lat="43.2510726" lon="12.7895155"><ele>749.0</ele><time>2026-04-25T11:22:19.331Z</time></trkpt><trkpt lat="43.251135" lon="12.7895546"><ele>753.5</ele><time>2026-04-25T11:22:20.329Z</time></trkpt><trkpt lat="43.2512032" lon="12.7895975"><ele>758.0</ele><time>2026-04-25T11:22:21.33Z</time></trkpt><trkpt lat="43.2512769" lon="12.7896518"><ele>758.0000000000001</ele><time>2026-04-25T11:22:22.331Z</time></trkpt><trkpt lat="43.2513411" lon="12.7897092"><ele>758.0</ele><time>2026-04-25T11:22:23.329Z</time></trkpt><trkpt lat="43.2513989" lon="12.7897637"><ele>758.0</ele><time>2026-04-25T11:22:24.331Z</time></trkpt><trkpt lat="43.2514546" lon="12.7898173"><ele>758.0</ele><time>2026-04-25T11:22:25.331Z</time></trkpt><trkpt lat="43.2515169" lon="12.7898746"><ele>758.0</ele><time>2026-04-25T11:22:26.331Z</time></trkpt><trkpt lat="43.2515779" lon="12.789934"><ele>758.0000000000001</ele><time>2026-04-25T11:22:27.328Z</time></trkpt><trkpt lat="43.2516367" lon="12.7899931"><ele>758.0</ele><time>2026-04-25T11:22:28.32Z</time></trkpt><trkpt lat="43.2516973" lon="12.7900561"><ele>759.2857142857143</ele><time>2026-04-25T11:22:29.33Z</time></trkpt><trkpt lat="43.2517547" lon="12.7901194"><ele>760.5714285714286</ele><time>2026-04-25T11:22:30.33Z</time></trkpt><trkpt lat="43.2518061" lon="12.7901828"><ele>761.8571428571429</ele><time>2026-04-25T11:22:31.328Z</time></trkpt><trkpt lat="43.2518563" lon="12.7902411"><ele>763.1428571428571</ele><time>2026-04-25T11:22:32.332Z</time></trkpt><trkpt lat="43.2519057" lon="12.7902959"><ele>764.4285714285714</ele><time>2026-04-25T11:22:33.329Z</time></trkpt><trkpt lat="43.2519528" lon="12.7903566"><ele>765.7142857142858</ele><time>2026-04-25T11:22:34.327Z</time></trkpt><trkpt lat="43.2520021" lon="12.7904251"><ele>767.0</ele><time>2026-04-25T11:22:35.33Z</time></trkpt><trkpt lat="43.2520558" lon="12.7905005"><ele>767.0</ele><time>2026-04-25T11:22:36.33Z</time></trkpt><trkpt lat="43.2521127" lon="12.7905809"><ele>767.0</ele><time>2026-04-25T11:22:37.327Z</time></trkpt><trkpt lat="43.252167" lon="12.7906635"><ele>767.0</ele><time>2026-04-25T11:22:38.327Z</time></trkpt><trkpt lat="43.2522186" lon="12.7907469"><ele>767.0</ele><time>2026-04-25T11:22:39.331Z</time></trkpt><trkpt lat="43.2522698" lon="12.790828"><ele>767.0</ele><time>2026-04-25T11:22:40.327Z</time></trkpt><trkpt lat="43.2523247" lon="12.7909014"><ele>767.0</ele><time>2026-04-25T11:22:41.321Z</time></trkpt><trkpt lat="43.2523769" lon="12.7909709"><ele>764.6666666666666</ele><time>2026-04-25T11:22:42.331Z</time></trkpt><trkpt lat="43.2524272" lon="12.7910403"><ele>762.3333333333333</ele><time>2026-04-25T11:22:43.327Z</time></trkpt><trkpt lat="43.2524743" lon="12.7911142"><ele>760.0</ele><time>2026-04-25T11:22:44.32Z</time></trkpt><trkpt lat="43.2525179" lon="12.7911903"><ele>757.6666666666666</ele><time>2026-04-25T11:22:45.326Z</time></trkpt><trkpt lat="43.2525559" lon="12.7912631"><ele>755.3333333333334</ele><time>2026-04-25T11:22:46.327Z</time></trkpt><trkpt lat="43.2526253" lon="12.7913857"><ele>753.0</ele><time>2026-04-25T11:22:48.329Z</time></trkpt><trkpt lat="43.252664" lon="12.7914936"><ele>753.0</ele><time>2026-04-25T11:22:50.329Z</time></trkpt><trkpt lat="43.2527198" lon="12.7916172"><ele>753.0</ele><time>2026-04-25T11:22:52.333Z</time></trkpt><trkpt lat="43.2527698" lon="12.7917185"><ele>753.0</ele><time>2026-04-25T11:22:54.324Z</time></trkpt><trkpt lat="43.2528336" lon="12.7918524"><ele>753.0</ele><time>2026-04-25T11:22:56.328Z</time></trkpt><trkpt lat="43.2528625" lon="12.7919323"><ele>753.0</ele><time>2026-04-25T11:22:57.328Z</time></trkpt><trkpt lat="43.2528911" lon="12.7920156"><ele>753.0</ele><time>2026-04-25T11:22:58.325Z</time></trkpt><trkpt lat="43.2529156" lon="12.7921042"><ele>756.1666666666666</ele><time>2026-04-25T11:22:59.329Z</time></trkpt><trkpt lat="43.2529392" lon="12.7922041"><ele>759.3333333333333</ele><time>2026-04-25T11:23:00.328Z</time></trkpt><trkpt lat="43.2529673" lon="12.7923165"><ele>762.5</ele><time>2026-04-25T11:23:01.331Z</time></trkpt><trkpt lat="43.2529977" lon="12.7924339"><ele>765.6666666666666</ele><time>2026-04-25T11:23:02.33Z</time></trkpt><trkpt lat="43.2530266" lon="12.7925562"><ele>768.8333333333333</ele><time>2026-04-25T11:23:03.326Z</time></trkpt><trkpt lat="43.2530482" lon="12.7926761"><ele>772.0</ele><time>2026-04-25T11:23:04.331Z</time></trkpt><trkpt lat="43.2530602" lon="12.7927912"><ele>775.0</ele><time>2026-04-25T11:23:05.328Z</time></trkpt><trkpt lat="43.2530644" lon="12.7928953"><ele>778.0</ele><time>2026-04-25T11:23:06.328Z</time></trkpt><trkpt lat="43.2530662" lon="12.7929839"><ele>781.0</ele><time>2026-04-25T11:23:07.328Z</time></trkpt><trkpt lat="43.2530579" lon="12.7931417"><ele>784.0</ele><time>2026-04-25T11:23:09.329Z</time></trkpt><trkpt lat="43.2530404" lon="12.7933047"><ele>787.0</ele><time>2026-04-25T11:23:11.326Z</time></trkpt><trkpt lat="43.2530106" lon="12.7934708"><ele>787.0</ele><time>2026-04-25T11:23:13.327Z</time></trkpt><trkpt lat="43.2529801" lon="12.7936095"><ele>787.0</ele><time>2026-04-25T11:23:15.319Z</time></trkpt><trkpt lat="43.2529067" lon="12.7936169"><ele>787.0</ele><time>2026-04-25T11:23:18.329Z</time></trkpt><trkpt lat="43.2528466" lon="12.7935047"><ele>787.0</ele><time>2026-04-25T11:23:20.329Z</time></trkpt><trkpt lat="43.2528151" lon="12.7934019"><ele>787.0</ele><time>2026-04-25T11:23:21.321Z</time></trkpt><trkpt lat="43.2527707" lon="12.7932711"><ele>787.0</ele><time>2026-04-25T11:23:22.33Z</time></trkpt><trkpt lat="43.2527249" lon="12.7931389"><ele>787.0</ele><time>2026-04-25T11:23:23.328Z</time></trkpt><trkpt lat="43.2526719" lon="12.7930064"><ele>787.0</ele><time>2026-04-25T11:23:24.33Z</time></trkpt><trkpt lat="43.2526032" lon="12.7928589"><ele>787.0</ele><time>2026-04-25T11:23:25.325Z</time></trkpt><trkpt lat="43.2525106" lon="12.792694"><ele>790.0</ele><time>2026-04-25T11:23:26.321Z</time></trkpt><trkpt lat="43.2524152" lon="12.7925357"><ele>793.0</ele><time>2026-04-25T11:23:27.329Z</time></trkpt><trkpt lat="43.2523248" lon="12.792393"><ele>796.0</ele><time>2026-04-25T11:23:28.329Z</time></trkpt><trkpt lat="43.2522367" lon="12.7922626"><ele>799.0</ele><time>2026-04-25T11:23:29.329Z</time></trkpt><trkpt lat="43.2521487" lon="12.7921431"><ele>799.0</ele><time>2026-04-25T11:23:30.329Z</time></trkpt><trkpt lat="43.2520571" lon="12.79203"><ele>799.0</ele><time>2026-04-25T11:23:31.323Z</time></trkpt><trkpt lat="43.2519588" lon="12.7919263"><ele>799.0</ele><time>2026-04-25T11:23:32.331Z</time></trkpt><trkpt lat="43.2518596" lon="12.7918273"><ele>799.0</ele><time>2026-04-25T11:23:33.326Z</time></trkpt><trkpt lat="43.2517528" lon="12.7917364"><ele>798.5</ele><time>2026-04-25T11:23:34.331Z</time></trkpt><trkpt lat="43.251639" lon="12.791653"><ele>798.0</ele><time>2026-04-25T11:23:35.323Z</time></trkpt><trkpt lat="43.2515253" lon="12.7915764"><ele>797.5</ele><time>2026-04-25T11:23:36.334Z</time></trkpt><trkpt lat="43.2514154" lon="12.7914973"><ele>797.0</ele><time>2026-04-25T11:23:37.327Z</time></trkpt><trkpt lat="43.2513084" lon="12.7914173"><ele>797.0</ele><time>2026-04-25T11:23:38.337Z</time></trkpt><trkpt lat="43.2512047" lon="12.7913417"><ele>797.0</ele><time>2026-04-25T11:23:39.336Z</time></trkpt><trkpt lat="43.2511035" lon="12.7912693"><ele>797.0</ele><time>2026-04-25T11:23:40.324Z</time></trkpt><trkpt lat="43.2510044" lon="12.7912022"><ele>797.0</ele><time>2026-04-25T11:23:41.332Z</time></trkpt><trkpt lat="43.2509081" lon="12.791137"><ele>797.0</ele><time>2026-04-25T11:23:42.328Z</time></trkpt><trkpt lat="43.2508169" lon="12.7910759"><ele>797.0</ele><time>2026-04-25T11:23:43.327Z</time></trkpt><trkpt lat="43.2507324" lon="12.7910181"><ele>797.0</ele><time>2026-04-25T11:23:44.325Z</time></trkpt><trkpt lat="43.2506466" lon="12.7909665"><ele>797.0</ele><time>2026-04-25T11:23:45.329Z</time></trkpt><trkpt lat="43.250554" lon="12.7909256"><ele>797.0</ele><time>2026-04-25T11:23:46.33Z</time></trkpt><trkpt lat="43.2504515" lon="12.7908982"><ele>797.0</ele><time>2026-04-25T11:23:47.337Z</time></trkpt><trkpt lat="43.2503399" lon="12.7908842"><ele>791.75</ele><time>2026-04-25T11:23:48.331Z</time></trkpt><trkpt lat="43.2502195" lon="12.7908731"><ele>786.5</ele><time>2026-04-25T11:23:49.324Z</time></trkpt><trkpt lat="43.2500905" lon="12.7908645"><ele>781.25</ele><time>2026-04-25T11:23:50.332Z</time></trkpt><trkpt lat="43.2499532" lon="12.7908602"><ele>776.0</ele><time>2026-04-25T11:23:51.334Z</time></trkpt><trkpt lat="43.2498204" lon="12.7908564"><ele>774.25</ele><time>2026-04-25T11:23:52.331Z</time></trkpt><trkpt lat="43.2496911" lon="12.7908497"><ele>772.5</ele><time>2026-04-25T11:23:53.328Z</time></trkpt><trkpt lat="43.24956" lon="12.7908393"><ele>770.75</ele><time>2026-04-25T11:23:54.33Z</time></trkpt><trkpt lat="43.249424" lon="12.7908253"><ele>769.0</ele><time>2026-04-25T11:23:55.322Z</time></trkpt><trkpt lat="43.2492809" lon="12.7908054"><ele>769.0</ele><time>2026-04-25T11:23:56.328Z</time></trkpt><trkpt lat="43.2491369" lon="12.7907765"><ele>769.0</ele><time>2026-04-25T11:23:57.326Z</time></trkpt><trkpt lat="43.249" lon="12.7907405"><ele>769.0</ele><time>2026-04-25T11:23:58.329Z</time></trkpt><trkpt lat="43.2488693" lon="12.7907038"><ele>769.0</ele><time>2026-04-25T11:23:59.33Z</time></trkpt><trkpt lat="43.2487473" lon="12.7906701"><ele>768.2</ele><time>2026-04-25T11:24:00.331Z</time></trkpt><trkpt lat="43.2486326" lon="12.7906418"><ele>767.4000000000001</ele><time>2026-04-25T11:24:01.326Z</time></trkpt><trkpt lat="43.2485241" lon="12.7906139"><ele>766.6</ele><time>2026-04-25T11:24:02.333Z</time></trkpt><trkpt lat="43.2484262" lon="12.790589"><ele>765.8</ele><time>2026-04-25T11:24:03.331Z</time></trkpt><trkpt lat="43.2483334" lon="12.7905697"><ele>765.0</ele><time>2026-04-25T11:24:04.329Z</time></trkpt><trkpt lat="43.2482478" lon="12.7905524"><ele>765.0</ele><time>2026-04-25T11:24:05.331Z</time></trkpt><trkpt lat="43.2481708" lon="12.7905367"><ele>765.0</ele><time>2026-04-25T11:24:06.33Z</time></trkpt><trkpt lat="43.2481055" lon="12.7905225"><ele>765.0</ele><time>2026-04-25T11:24:07.332Z</time></trkpt><trkpt lat="43.2480074" lon="12.7905054"><ele>765.0</ele><time>2026-04-25T11:24:09.33Z</time></trkpt><trkpt lat="43.2479319" lon="12.7905337"><ele>765.0</ele><time>2026-04-25T11:24:12.332Z</time></trkpt><trkpt lat="43.2479456" lon="12.7906269"><ele>765.0</ele><time>2026-04-25T11:24:20.326Z</time></trkpt><trkpt lat="43.2481134" lon="12.7906692"><ele>765.0</ele><time>2026-04-25T11:24:22.327Z</time></trkpt><trkpt lat="43.248252" lon="12.7907073"><ele>765.0</ele><time>2026-04-25T11:24:23.327Z</time></trkpt><trkpt lat="43.248403" lon="12.7907488"><ele>765.0</ele><time>2026-04-25T11:24:24.326Z</time></trkpt><trkpt lat="43.2485726" lon="12.7907977"><ele>765.0</ele><time>2026-04-25T11:24:25.332Z</time></trkpt><trkpt lat="43.2487669" lon="12.7908592"><ele>765.0</ele><time>2026-04-25T11:24:26.32Z</time></trkpt><trkpt lat="43.2489774" lon="12.790933"><ele>765.0</ele><time>2026-04-25T11:24:27.323Z</time></trkpt><trkpt lat="43.2491953" lon="12.7910076"><ele>774.3333333333333</ele><time>2026-04-25T11:24:28.322Z</time></trkpt><trkpt lat="43.2494072" lon="12.7910707"><ele>783.6666666666666</ele><time>2026-04-25T11:24:29.329Z</time></trkpt><trkpt lat="43.2495968" lon="12.7911261"><ele>793.0</ele><time>2026-04-25T11:24:30.331Z</time></trkpt><trkpt lat="43.2497484" lon="12.7911784"><ele>793.5</ele><time>2026-04-25T11:24:31.332Z</time></trkpt><trkpt lat="43.2498832" lon="12.7912336"><ele>794.0</ele><time>2026-04-25T11:24:32.331Z</time></trkpt><trkpt lat="43.2500093" lon="12.7912844"><ele>794.5</ele><time>2026-04-25T11:24:33.332Z</time></trkpt><trkpt lat="43.2501348" lon="12.7913425"><ele>795.0</ele><time>2026-04-25T11:24:34.332Z</time></trkpt><trkpt lat="43.2502598" lon="12.7914164"><ele>795.0</ele><time>2026-04-25T11:24:35.333Z</time></trkpt><trkpt lat="43.2503809" lon="12.7914995"><ele>795.0</ele><time>2026-04-25T11:24:36.323Z</time></trkpt><trkpt lat="43.2504954" lon="12.7915878"><ele>795.0</ele><time>2026-04-25T11:24:37.322Z</time></trkpt><trkpt lat="43.2506015" lon="12.7916747"><ele>795.0</ele><time>2026-04-25T11:24:38.324Z</time></trkpt><trkpt lat="43.2507028" lon="12.7917608"><ele>798.25</ele><time>2026-04-25T11:24:39.331Z</time></trkpt><trkpt lat="43.2507998" lon="12.7918467"><ele>801.5</ele><time>2026-04-25T11:24:40.322Z</time></trkpt><trkpt lat="43.2508931" lon="12.7919365"><ele>804.75</ele><time>2026-04-25T11:24:41.33Z</time></trkpt><trkpt lat="43.2509839" lon="12.7920339"><ele>808.0</ele><time>2026-04-25T11:24:42.334Z</time></trkpt><trkpt lat="43.2510717" lon="12.7921489"><ele>808.0</ele><time>2026-04-25T11:24:43.328Z</time></trkpt><trkpt lat="43.2511591" lon="12.7922876"><ele>808.0</ele><time>2026-04-25T11:24:44.334Z</time></trkpt><trkpt lat="43.2512478" lon="12.7924471"><ele>808.0</ele><time>2026-04-25T11:24:45.322Z</time></trkpt><trkpt lat="43.2513385" lon="12.7926168"><ele>808.0</ele><time>2026-04-25T11:24:46.325Z</time></trkpt><trkpt lat="43.2514366" lon="12.7927899"><ele>809.6666666666666</ele><time>2026-04-25T11:24:47.322Z</time></trkpt><trkpt lat="43.2515394" lon="12.7929647"><ele>811.3333333333333</ele><time>2026-04-25T11:24:48.323Z</time></trkpt><trkpt lat="43.2516446" lon="12.7931417"><ele>813.0</ele><time>2026-04-25T11:24:49.33Z</time></trkpt><trkpt lat="43.2517468" lon="12.7933129"><ele>813.0</ele><time>2026-04-25T11:24:50.326Z</time></trkpt><trkpt lat="43.2518402" lon="12.7934702"><ele>813.0</ele><time>2026-04-25T11:24:51.326Z</time></trkpt><trkpt lat="43.2519206" lon="12.7936097"><ele>813.0</ele><time>2026-04-25T11:24:52.328Z</time></trkpt><trkpt lat="43.2519871" lon="12.7937359"><ele>813.0</ele><time>2026-04-25T11:24:53.335Z</time></trkpt><trkpt lat="43.2520292" lon="12.7938517"><ele>815.3333333333334</ele><time>2026-04-25T11:24:54.331Z</time></trkpt><trkpt lat="43.2520416" lon="12.7939583"><ele>817.6666666666667</ele><time>2026-04-25T11:24:55.321Z</time></trkpt><trkpt lat="43.2520068" lon="12.7940457"><ele>820.0</ele><time>2026-04-25T11:24:56.325Z</time></trkpt><trkpt lat="43.2519303" lon="12.7940965"><ele>822.3333333333334</ele><time>2026-04-25T11:24:57.318Z</time></trkpt><trkpt lat="43.251844" lon="12.7940878"><ele>824.6666666666667</ele><time>2026-04-25T11:24:58.332Z</time></trkpt><trkpt lat="43.2517597" lon="12.7940032"><ele>827.0</ele><time>2026-04-25T11:24:59.321Z</time></trkpt><trkpt lat="43.2516666" lon="12.7938758"><ele>827.0</ele><time>2026-04-25T11:25:00.332Z</time></trkpt><trkpt lat="43.2515615" lon="12.7937537"><ele>827.0</ele><time>2026-04-25T11:25:01.334Z</time></trkpt><trkpt lat="43.2514364" lon="12.7936691"><ele>827.0</ele><time>2026-04-25T11:25:02.338Z</time></trkpt><trkpt lat="43.2512916" lon="12.7936269"><ele>827.0</ele><time>2026-04-25T11:25:03.33Z</time></trkpt><trkpt lat="43.2511382" lon="12.7936141"><ele>833.3333333333334</ele><time>2026-04-25T11:25:04.328Z</time></trkpt><trkpt lat="43.2509859" lon="12.7936181"><ele>839.6666666666667</ele><time>2026-04-25T11:25:05.325Z</time></trkpt><trkpt lat="43.2508289" lon="12.7936304"><ele>846.0</ele><time>2026-04-25T11:25:06.332Z</time></trkpt><trkpt lat="43.25066" lon="12.7936382"><ele>849.3333333333333</ele><time>2026-04-25T11:25:07.331Z</time></trkpt><trkpt lat="43.250483" lon="12.7936422"><ele>852.6666666666666</ele><time>2026-04-25T11:25:08.33Z</time></trkpt><trkpt lat="43.2503058" lon="12.7936498"><ele>856.0</ele><time>2026-04-25T11:25:09.33Z</time></trkpt><trkpt lat="43.2501303" lon="12.7936536"><ele>856.0</ele><time>2026-04-25T11:25:10.33Z</time></trkpt><trkpt lat="43.2499521" lon="12.7936594"><ele>856.0</ele><time>2026-04-25T11:25:11.332Z</time></trkpt><trkpt lat="43.2497724" lon="12.7936713"><ele>856.0</ele><time>2026-04-25T11:25:12.332Z</time></trkpt><trkpt lat="43.2495905" lon="12.7936966"><ele>857.3333333333333</ele><time>2026-04-25T11:25:13.321Z</time></trkpt><trkpt lat="43.2494102" lon="12.7937384"><ele>858.6666666666667</ele><time>2026-04-25T11:25:14.329Z</time></trkpt><trkpt lat="43.2492439" lon="12.7937864"><ele>860.0</ele><time>2026-04-25T11:25:15.334Z</time></trkpt><trkpt lat="43.2490873" lon="12.7938346"><ele>859.0</ele><time>2026-04-25T11:25:16.332Z</time></trkpt><trkpt lat="43.2489385" lon="12.7938791"><ele>858.0</ele><time>2026-04-25T11:25:17.332Z</time></trkpt><trkpt lat="43.248802" lon="12.7939203"><ele>857.0</ele><time>2026-04-25T11:25:18.322Z</time></trkpt><trkpt lat="43.2486896" lon="12.7939602"><ele>856.0</ele><time>2026-04-25T11:25:19.328Z</time></trkpt><trkpt lat="43.2485995" lon="12.7939995"><ele>855.9999999999999</ele><time>2026-04-25T11:25:20.329Z</time></trkpt><trkpt lat="43.2485297" lon="12.7940506"><ele>856.0</ele><time>2026-04-25T11:25:21.332Z</time></trkpt><trkpt lat="43.2484948" lon="12.7941299"><ele>856.0</ele><time>2026-04-25T11:25:22.334Z</time></trkpt><trkpt lat="43.2485055" lon="12.7942312"><ele>856.0</ele><time>2026-04-25T11:25:23.33Z</time></trkpt><trkpt lat="43.2485588" lon="12.7943221"><ele>855.9999999999999</ele><time>2026-04-25T11:25:24.334Z</time></trkpt><trkpt lat="43.2486567" lon="12.7943834"><ele>856.0</ele><time>2026-04-25T11:25:25.33Z</time></trkpt><trkpt lat="43.2487823" lon="12.7944122"><ele>864.0</ele><time>2026-04-25T11:25:26.328Z</time></trkpt><trkpt lat="43.2489296" lon="12.7944297"><ele>872.0</ele><time>2026-04-25T11:25:27.33Z</time></trkpt><trkpt lat="43.2490866" lon="12.7944496"><ele>880.0</ele><time>2026-04-25T11:25:28.33Z</time></trkpt><trkpt lat="43.2492482" lon="12.7944896"><ele>880.0</ele><time>2026-04-25T11:25:29.329Z</time></trkpt><trkpt lat="43.249416" lon="12.7945569"><ele>880.0</ele><time>2026-04-25T11:25:30.331Z</time></trkpt><trkpt lat="43.2495864" lon="12.794647"><ele>880.0</ele><time>2026-04-25T11:25:31.334Z</time></trkpt><trkpt lat="43.2497566" lon="12.7947523"><ele>878.6666666666666</ele><time>2026-04-25T11:25:32.337Z</time></trkpt><trkpt lat="43.2499277" lon="12.7948721"><ele>877.3333333333333</ele><time>2026-04-25T11:25:33.333Z</time></trkpt><trkpt lat="43.2501016" lon="12.7950047"><ele>876.0</ele><time>2026-04-25T11:25:34.331Z</time></trkpt><trkpt lat="43.2502728" lon="12.7951449"><ele>878.3333333333333</ele><time>2026-04-25T11:25:35.326Z</time></trkpt><trkpt lat="43.2504364" lon="12.7952902"><ele>880.6666666666666</ele><time>2026-04-25T11:25:36.331Z</time></trkpt><trkpt lat="43.2505858" lon="12.7954395"><ele>883.0</ele><time>2026-04-25T11:25:37.325Z</time></trkpt><trkpt lat="43.250719" lon="12.7955865"><ele>883.0</ele><time>2026-04-25T11:25:38.33Z</time></trkpt><trkpt lat="43.2508336" lon="12.7957281"><ele>883.0</ele><time>2026-04-25T11:25:39.336Z</time></trkpt><trkpt lat="43.2509301" lon="12.7958598"><ele>883.0</ele><time>2026-04-25T11:25:40.324Z</time></trkpt><trkpt lat="43.2510045" lon="12.7959983"><ele>883.0</ele><time>2026-04-25T11:25:41.327Z</time></trkpt><trkpt lat="43.2510509" lon="12.7961598"><ele>889.0</ele><time>2026-04-25T11:25:42.333Z</time></trkpt><trkpt lat="43.251079" lon="12.7963512"><ele>895.0</ele><time>2026-04-25T11:25:43.335Z</time></trkpt><trkpt lat="43.2511102" lon="12.7965655"><ele>901.0</ele><time>2026-04-25T11:25:44.334Z</time></trkpt><trkpt lat="43.2511546" lon="12.7967926"><ele>907.6666666666666</ele><time>2026-04-25T11:25:45.33Z</time></trkpt><trkpt lat="43.2512127" lon="12.7970232"><ele>914.3333333333333</ele><time>2026-04-25T11:25:46.327Z</time></trkpt><trkpt lat="43.2512881" lon="12.7972408"><ele>921.0</ele><time>2026-04-25T11:25:47.328Z</time></trkpt><trkpt lat="43.2513835" lon="12.7974411"><ele>918.0</ele><time>2026-04-25T11:25:48.333Z</time></trkpt><trkpt lat="43.2515023" lon="12.7976218"><ele>915.0</ele><time>2026-04-25T11:25:49.332Z</time></trkpt><trkpt lat="43.2516394" lon="12.7977847"><ele>912.0</ele><time>2026-04-25T11:25:50.331Z</time></trkpt><trkpt lat="43.2517814" lon="12.79793"><ele>912.0</ele><time>2026-04-25T11:25:51.331Z</time></trkpt><trkpt lat="43.2519127" lon="12.7980608"><ele>912.0</ele><time>2026-04-25T11:25:52.324Z</time></trkpt><trkpt lat="43.2520318" lon="12.7981846"><ele>912.0</ele><time>2026-04-25T11:25:53.325Z</time></trkpt><trkpt lat="43.252137" lon="12.7983129"><ele>912.0</ele><time>2026-04-25T11:25:54.324Z</time></trkpt><trkpt lat="43.2522268" lon="12.7984573"><ele>912.0</ele><time>2026-04-25T11:25:55.326Z</time></trkpt><trkpt lat="43.2522862" lon="12.7986183"><ele>912.0</ele><time>2026-04-25T11:25:56.324Z</time></trkpt><trkpt lat="43.2523114" lon="12.7987965"><ele>912.0</ele><time>2026-04-25T11:25:57.329Z</time></trkpt><trkpt lat="43.2523011" lon="12.7989944"><ele>918.3333333333333</ele><time>2026-04-25T11:25:58.331Z</time></trkpt><trkpt lat="43.252264" lon="12.7992168"><ele>924.6666666666666</ele><time>2026-04-25T11:25:59.322Z</time></trkpt><trkpt lat="43.2522219" lon="12.7994573"><ele>931.0</ele><time>2026-04-25T11:26:00.329Z</time></trkpt><trkpt lat="43.2521824" lon="12.7996965"><ele>934.6666666666666</ele><time>2026-04-25T11:26:01.327Z</time></trkpt><trkpt lat="43.2521541" lon="12.7999268"><ele>938.3333333333333</ele><time>2026-04-25T11:26:02.327Z</time></trkpt><trkpt lat="43.2521456" lon="12.8001587"><ele>942.0</ele><time>2026-04-25T11:26:03.329Z</time></trkpt><trkpt lat="43.252155" lon="12.800398"><ele>944.3333333333333</ele><time>2026-04-25T11:26:04.331Z</time></trkpt><trkpt lat="43.2521703" lon="12.8006476"><ele>946.6666666666666</ele><time>2026-04-25T11:26:05.329Z</time></trkpt><trkpt lat="43.2521865" lon="12.8009009"><ele>949.0</ele><time>2026-04-25T11:26:06.331Z</time></trkpt><trkpt lat="43.2522015" lon="12.8011544"><ele>949.6666666666666</ele><time>2026-04-25T11:26:07.336Z</time></trkpt><trkpt lat="43.2522149" lon="12.801401"><ele>950.3333333333333</ele><time>2026-04-25T11:26:08.332Z</time></trkpt><trkpt lat="43.2522298" lon="12.8016391"><ele>951.0</ele><time>2026-04-25T11:26:09.329Z</time></trkpt><trkpt lat="43.2522525" lon="12.8018701"><ele>938.6666666666667</ele><time>2026-04-25T11:26:10.328Z</time></trkpt><trkpt lat="43.25229" lon="12.8020975"><ele>926.3333333333334</ele><time>2026-04-25T11:26:11.329Z</time></trkpt><trkpt lat="43.2523401" lon="12.8023214"><ele>914.0</ele><time>2026-04-25T11:26:12.32Z</time></trkpt><trkpt lat="43.2523971" lon="12.8025457"><ele>919.6666666666667</ele><time>2026-04-25T11:26:13.32Z</time></trkpt><trkpt lat="43.2524572" lon="12.8027705"><ele>925.3333333333333</ele><time>2026-04-25T11:26:14.325Z</time></trkpt><trkpt lat="43.2525157" lon="12.8029956"><ele>931.0</ele><time>2026-04-25T11:26:15.323Z</time></trkpt><trkpt lat="43.252574" lon="12.8032222"><ele>931.0</ele><time>2026-04-25T11:26:16.329Z</time></trkpt><trkpt lat="43.2526292" lon="12.803449"><ele>931.0</ele><time>2026-04-25T11:26:17.325Z</time></trkpt><trkpt lat="43.2526837" lon="12.8036778"><ele>931.0</ele><time>2026-04-25T11:26:18.325Z</time></trkpt><trkpt lat="43.2527392" lon="12.8039057"><ele>938.0</ele><time>2026-04-25T11:26:19.323Z</time></trkpt><trkpt lat="43.252799" lon="12.8041312"><ele>945.0</ele><time>2026-04-25T11:26:20.324Z</time></trkpt><trkpt lat="43.2528648" lon="12.8043531"><ele>952.0</ele><time>2026-04-25T11:26:21.324Z</time></trkpt><trkpt lat="43.2529357" lon="12.8045739"><ele>952.3333333333333</ele><time>2026-04-25T11:26:22.333Z</time></trkpt><trkpt lat="43.2530116" lon="12.8047907"><ele>952.6666666666667</ele><time>2026-04-25T11:26:23.328Z</time></trkpt><trkpt lat="43.2530949" lon="12.8050048"><ele>953.0</ele><time>2026-04-25T11:26:24.326Z</time></trkpt><trkpt lat="43.2531843" lon="12.8052174"><ele>953.0</ele><time>2026-04-25T11:26:25.327Z</time></trkpt><trkpt lat="43.2532771" lon="12.8054286"><ele>953.0</ele><time>2026-04-25T11:26:26.319Z</time></trkpt><trkpt lat="43.2533745" lon="12.8056399"><ele>953.0</ele><time>2026-04-25T11:26:27.329Z</time></trkpt><trkpt lat="43.2534779" lon="12.8058451"><ele>962.6666666666667</ele><time>2026-04-25T11:26:28.326Z</time></trkpt><trkpt lat="43.2535865" lon="12.8060328"><ele>972.3333333333333</ele><time>2026-04-25T11:26:29.33Z</time></trkpt><trkpt lat="43.2536952" lon="12.8061994"><ele>982.0</ele><time>2026-04-25T11:26:30.329Z</time></trkpt><trkpt lat="43.2538127" lon="12.8063557"><ele>982.0</ele><time>2026-04-25T11:26:31.331Z</time></trkpt><trkpt lat="43.2539431" lon="12.806511"><ele>982.0</ele><time>2026-04-25T11:26:32.327Z</time></trkpt><trkpt lat="43.2540819" lon="12.8066715"><ele>982.0</ele><time>2026-04-25T11:26:33.331Z</time></trkpt><trkpt lat="43.2542248" lon="12.8068365"><ele>978.3333333333333</ele><time>2026-04-25T11:26:34.321Z</time></trkpt><trkpt lat="43.254371" lon="12.807005"><ele>974.6666666666667</ele><time>2026-04-25T11:26:35.326Z</time></trkpt><trkpt lat="43.2545191" lon="12.8071737"><ele>971.0</ele><time>2026-04-25T11:26:36.324Z</time></trkpt><trkpt lat="43.2546701" lon="12.80734"><ele>973.6666666666667</ele><time>2026-04-25T11:26:37.322Z</time></trkpt><trkpt lat="43.2548244" lon="12.8075027"><ele>976.3333333333333</ele><time>2026-04-25T11:26:38.323Z</time></trkpt><trkpt lat="43.2549772" lon="12.8076609"><ele>979.0</ele><time>2026-04-25T11:26:39.324Z</time></trkpt><trkpt lat="43.2551298" lon="12.8078167"><ele>979.0</ele><time>2026-04-25T11:26:40.332Z</time></trkpt><trkpt lat="43.2552851" lon="12.8079727"><ele>979.0</ele><time>2026-04-25T11:26:41.33Z</time></trkpt><trkpt lat="43.2554461" lon="12.8081309"><ele>979.0</ele><time>2026-04-25T11:26:42.333Z</time></trkpt><trkpt lat="43.2556115" lon="12.8082903"><ele>980.0</ele><time>2026-04-25T11:26:43.322Z</time></trkpt><trkpt lat="43.2557812" lon="12.8084526"><ele>981.0</ele><time>2026-04-25T11:26:44.329Z</time></trkpt><trkpt lat="43.2559512" lon="12.8086157"><ele>982.0</ele><time>2026-04-25T11:26:45.319Z</time></trkpt><trkpt lat="43.2561256" lon="12.8087794"><ele>982.0</ele><time>2026-04-25T11:26:46.324Z</time></trkpt><trkpt lat="43.2563038" lon="12.8089423"><ele>982.0</ele><time>2026-04-25T11:26:47.331Z</time></trkpt><trkpt lat="43.2564849" lon="12.809101"><ele>982.0</ele><time>2026-04-25T11:26:48.332Z</time></trkpt><trkpt lat="43.2566697" lon="12.8092557"><ele>987.0</ele><time>2026-04-25T11:26:49.329Z</time></trkpt><trkpt lat="43.2568549" lon="12.8094067"><ele>992.0</ele><time>2026-04-25T11:26:50.327Z</time></trkpt><trkpt lat="43.2570373" lon="12.8095521"><ele>997.0</ele><time>2026-04-25T11:26:51.331Z</time></trkpt><trkpt lat="43.2572122" lon="12.8096917"><ele>995.3333333333333</ele><time>2026-04-25T11:26:52.334Z</time></trkpt><trkpt lat="43.2573817" lon="12.809827"><ele>993.6666666666667</ele><time>2026-04-25T11:26:53.332Z</time></trkpt><trkpt lat="43.2575483" lon="12.809958"><ele>992.0</ele><time>2026-04-25T11:26:54.321Z</time></trkpt><trkpt lat="43.2577054" lon="12.8100794"><ele>993.5</ele><time>2026-04-25T11:26:55.332Z</time></trkpt><trkpt lat="43.2578466" lon="12.8101897"><ele>995.0</ele><time>2026-04-25T11:26:56.333Z</time></trkpt><trkpt lat="43.257972" lon="12.8102966"><ele>996.5</ele><time>2026-04-25T11:26:57.334Z</time></trkpt><trkpt lat="43.2580821" lon="12.8104096"><ele>998.0</ele><time>2026-04-25T11:26:58.331Z</time></trkpt><trkpt lat="43.2581766" lon="12.8105376"><ele>998.0</ele><time>2026-04-25T11:26:59.327Z</time></trkpt><trkpt lat="43.25826" lon="12.8106863"><ele>998.0</ele><time>2026-04-25T11:27:00.335Z</time></trkpt><trkpt lat="43.2583328" lon="12.8108552"><ele>998.0</ele><time>2026-04-25T11:27:01.324Z</time></trkpt><trkpt lat="43.2583944" lon="12.8110424"><ele>998.0</ele><time>2026-04-25T11:27:02.331Z</time></trkpt><trkpt lat="43.2584404" lon="12.8112403"><ele>998.75</ele><time>2026-04-25T11:27:03.328Z</time></trkpt><trkpt lat="43.2584658" lon="12.8114407"><ele>999.5</ele><time>2026-04-25T11:27:04.331Z</time></trkpt><trkpt lat="43.2584678" lon="12.8116398"><ele>1000.25</ele><time>2026-04-25T11:27:05.334Z</time></trkpt><trkpt lat="43.2584626" lon="12.8118423"><ele>1001.0</ele><time>2026-04-25T11:27:06.338Z</time></trkpt><trkpt lat="43.2584672" lon="12.8120495"><ele>1002.6666666666667</ele><time>2026-04-25T11:27:07.332Z</time></trkpt><trkpt lat="43.2584899" lon="12.8122617"><ele>1004.3333333333333</ele><time>2026-04-25T11:27:08.332Z</time></trkpt><trkpt lat="43.2585258" lon="12.8124847"><ele>1006.0</ele><time>2026-04-25T11:27:09.336Z</time></trkpt><trkpt lat="43.2585695" lon="12.8127194"><ele>1008.3333333333333</ele><time>2026-04-25T11:27:10.323Z</time></trkpt><trkpt lat="43.2586173" lon="12.8129642"><ele>1010.6666666666667</ele><time>2026-04-25T11:27:11.331Z</time></trkpt><trkpt lat="43.2586642" lon="12.8132078"><ele>1013.0</ele><time>2026-04-25T11:27:12.326Z</time></trkpt><trkpt lat="43.2587106" lon="12.8134423"><ele>1012.0</ele><time>2026-04-25T11:27:13.331Z</time></trkpt><trkpt lat="43.2587548" lon="12.8136616"><ele>1011.0</ele><time>2026-04-25T11:27:14.333Z</time></trkpt><trkpt lat="43.2587951" lon="12.8138682"><ele>1010.0</ele><time>2026-04-25T11:27:15.325Z</time></trkpt><trkpt lat="43.2588331" lon="12.8140643"><ele>1010.0</ele><time>2026-04-25T11:27:16.33Z</time></trkpt><trkpt lat="43.2588656" lon="12.8142489"><ele>1010.0</ele><time>2026-04-25T11:27:17.333Z</time></trkpt><trkpt lat="43.2588804" lon="12.8144201"><ele>1010.0</ele><time>2026-04-25T11:27:18.322Z</time></trkpt><trkpt lat="43.2588677" lon="12.8145801"><ele>1010.0</ele><time>2026-04-25T11:27:19.327Z</time></trkpt><trkpt lat="43.2588233" lon="12.8147261"><ele>1008.5</ele><time>2026-04-25T11:27:20.332Z</time></trkpt><trkpt lat="43.2587525" lon="12.8148609"><ele>1007.0</ele><time>2026-04-25T11:27:21.328Z</time></trkpt><trkpt lat="43.2586645" lon="12.8149884"><ele>1005.5</ele><time>2026-04-25T11:27:22.331Z</time></trkpt><trkpt lat="43.2585626" lon="12.8151081"><ele>1004.0</ele><time>2026-04-25T11:27:23.322Z</time></trkpt><trkpt lat="43.2584469" lon="12.8152158"><ele>1003.75</ele><time>2026-04-25T11:27:24.333Z</time></trkpt><trkpt lat="43.2583205" lon="12.8153023"><ele>1003.5</ele><time>2026-04-25T11:27:25.334Z</time></trkpt><trkpt lat="43.2581884" lon="12.8153561"><ele>1003.25</ele><time>2026-04-25T11:27:26.326Z</time></trkpt><trkpt lat="43.258052" lon="12.8153749"><ele>1003.0</ele><time>2026-04-25T11:27:27.337Z</time></trkpt><trkpt lat="43.257913" lon="12.8153636"><ele>1003.0</ele><time>2026-04-25T11:27:28.329Z</time></trkpt><trkpt lat="43.2577718" lon="12.8153407"><ele>1003.0</ele><time>2026-04-25T11:27:29.335Z</time></trkpt><trkpt lat="43.2576388" lon="12.8153166"><ele>1003.0</ele><time>2026-04-25T11:27:30.324Z</time></trkpt><trkpt lat="43.2575146" lon="12.8152943"><ele>1003.0</ele><time>2026-04-25T11:27:31.342Z</time></trkpt><trkpt lat="43.2574003" lon="12.8152721"><ele>1003.0</ele><time>2026-04-25T11:27:32.331Z</time></trkpt><trkpt lat="43.2572885" lon="12.8152479"><ele>1003.0</ele><time>2026-04-25T11:27:33.333Z</time></trkpt><trkpt lat="43.2571783" lon="12.8152202"><ele>1003.0</ele><time>2026-04-25T11:27:34.321Z</time></trkpt><trkpt lat="43.2570694" lon="12.8151895"><ele>1003.0</ele><time>2026-04-25T11:27:35.336Z</time></trkpt><trkpt lat="43.2569662" lon="12.8151614"><ele>1003.0</ele><time>2026-04-25T11:27:36.329Z</time></trkpt><trkpt lat="43.2568691" lon="12.815141"><ele>1003.3333333333333</ele><time>2026-04-25T11:27:37.336Z</time></trkpt><trkpt lat="43.2567789" lon="12.8151315"><ele>1003.6666666666666</ele><time>2026-04-25T11:27:38.322Z</time></trkpt><trkpt lat="43.2566928" lon="12.815132"><ele>1004.0</ele><time>2026-04-25T11:27:39.329Z</time></trkpt><trkpt lat="43.2566103" lon="12.8151419"><ele>1004.3333333333333</ele><time>2026-04-25T11:27:40.33Z</time></trkpt><trkpt lat="43.2565321" lon="12.815165"><ele>1004.6666666666666</ele><time>2026-04-25T11:27:41.327Z</time></trkpt><trkpt lat="43.2564616" lon="12.8152069"><ele>1005.0</ele><time>2026-04-25T11:27:42.328Z</time></trkpt><trkpt lat="43.2563995" lon="12.8152736"><ele>1006.4</ele><time>2026-04-25T11:27:43.334Z</time></trkpt><trkpt lat="43.2563532" lon="12.8153684"><ele>1007.8</ele><time>2026-04-25T11:27:44.33Z</time></trkpt><trkpt lat="43.2563237" lon="12.8154863"><ele>1009.2</ele><time>2026-04-25T11:27:45.336Z</time></trkpt><trkpt lat="43.2563055" lon="12.8156212"><ele>1010.6</ele><time>2026-04-25T11:27:46.325Z</time></trkpt><trkpt lat="43.2562935" lon="12.815765"><ele>1012.0</ele><time>2026-04-25T11:27:47.331Z</time></trkpt><trkpt lat="43.256284" lon="12.8159164"><ele>1015.0</ele><time>2026-04-25T11:27:48.333Z</time></trkpt><trkpt lat="43.256281" lon="12.8160812"><ele>1018.0</ele><time>2026-04-25T11:27:49.324Z</time></trkpt><trkpt lat="43.2562814" lon="12.8162584"><ele>1021.0</ele><time>2026-04-25T11:27:50.326Z</time></trkpt><trkpt lat="43.2562802" lon="12.8164437"><ele>1024.0</ele><time>2026-04-25T11:27:51.326Z</time></trkpt><trkpt lat="43.2562773" lon="12.8166307"><ele>1024.0</ele><time>2026-04-25T11:27:52.325Z</time></trkpt><trkpt lat="43.2562718" lon="12.8168119"><ele>1024.0</ele><time>2026-04-25T11:27:53.334Z</time></trkpt><trkpt lat="43.2562665" lon="12.8169787"><ele>1024.0</ele><time>2026-04-25T11:27:54.332Z</time></trkpt><trkpt lat="43.2562693" lon="12.817127"><ele>1024.0</ele><time>2026-04-25T11:27:55.325Z</time></trkpt><trkpt lat="43.2562816" lon="12.817259"><ele>1026.2</ele><time>2026-04-25T11:27:56.33Z</time></trkpt><trkpt lat="43.2563068" lon="12.8173789"><ele>1028.4</ele><time>2026-04-25T11:27:57.325Z</time></trkpt><trkpt lat="43.2563531" lon="12.8174845"><ele>1030.6</ele><time>2026-04-25T11:27:58.329Z</time></trkpt><trkpt lat="43.2564236" lon="12.8175746"><ele>1032.8</ele><time>2026-04-25T11:27:59.332Z</time></trkpt><trkpt lat="43.256513" lon="12.8176561"><ele>1035.0</ele><time>2026-04-25T11:28:00.325Z</time></trkpt><trkpt lat="43.2566095" lon="12.8177395"><ele>1036.3333333333333</ele><time>2026-04-25T11:28:01.339Z</time></trkpt><trkpt lat="43.25672" lon="12.8178303"><ele>1037.6666666666665</ele><time>2026-04-25T11:28:02.33Z</time></trkpt><trkpt lat="43.2568562" lon="12.8179352"><ele>1039.0</ele><time>2026-04-25T11:28:03.324Z</time></trkpt><trkpt lat="43.2570102" lon="12.8180536"><ele>1039.0</ele><time>2026-04-25T11:28:04.322Z</time></trkpt><trkpt lat="43.2571683" lon="12.818183"><ele>1039.0</ele><time>2026-04-25T11:28:05.331Z</time></trkpt><trkpt lat="43.2573194" lon="12.8183115"><ele>1039.0</ele><time>2026-04-25T11:28:06.333Z</time></trkpt><trkpt lat="43.2574629" lon="12.8184285"><ele>1042.5</ele><time>2026-04-25T11:28:07.341Z</time></trkpt><trkpt lat="43.2575934" lon="12.8185331"><ele>1046.0</ele><time>2026-04-25T11:28:08.326Z</time></trkpt><trkpt lat="43.2577117" lon="12.8186318"><ele>1049.5</ele><time>2026-04-25T11:28:09.334Z</time></trkpt><trkpt lat="43.2578211" lon="12.8187207"><ele>1053.0</ele><time>2026-04-25T11:28:10.324Z</time></trkpt><trkpt lat="43.257926" lon="12.8188078"><ele>1053.0</ele><time>2026-04-25T11:28:11.335Z</time></trkpt><trkpt lat="43.2580227" lon="12.8188997"><ele>1053.0</ele><time>2026-04-25T11:28:12.331Z</time></trkpt><trkpt lat="43.2581093" lon="12.8190105"><ele>1053.0</ele><time>2026-04-25T11:28:13.326Z</time></trkpt><trkpt lat="43.2581803" lon="12.8191425"><ele>1053.0</ele><time>2026-04-25T11:28:14.332Z</time></trkpt><trkpt lat="43.2582257" lon="12.8192976"><ele>1049.25</ele><time>2026-04-25T11:28:15.334Z</time></trkpt><trkpt lat="43.2582327" lon="12.8194652"><ele>1045.5</ele><time>2026-04-25T11:28:16.328Z</time></trkpt><trkpt lat="43.2582023" lon="12.8196352"><ele>1041.75</ele><time>2026-04-25T11:28:17.332Z</time></trkpt><trkpt lat="43.2581431" lon="12.8197852"><ele>1038.0</ele><time>2026-04-25T11:28:18.325Z</time></trkpt><trkpt lat="43.2580579" lon="12.8199135"><ele>1045.5</ele><time>2026-04-25T11:28:19.331Z</time></trkpt><trkpt lat="43.2579657" lon="12.8200289"><ele>1053.0</ele><time>2026-04-25T11:28:20.325Z</time></trkpt><trkpt lat="43.2578869" lon="12.8201469"><ele>1060.5</ele><time>2026-04-25T11:28:21.334Z</time></trkpt><trkpt lat="43.2578284" lon="12.8202695"><ele>1068.0</ele><time>2026-04-25T11:28:22.329Z</time></trkpt><trkpt lat="43.2577974" lon="12.8204046"><ele>1071.25</ele><time>2026-04-25T11:28:23.328Z</time></trkpt><trkpt lat="43.2578158" lon="12.8205461"><ele>1074.5</ele><time>2026-04-25T11:28:24.324Z</time></trkpt><trkpt lat="43.2578794" lon="12.8206749"><ele>1077.75</ele><time>2026-04-25T11:28:25.324Z</time></trkpt><trkpt lat="43.2579711" lon="12.8207925"><ele>1081.0</ele><time>2026-04-25T11:28:26.329Z</time></trkpt><trkpt lat="43.2580795" lon="12.8209052"><ele>1081.75</ele><time>2026-04-25T11:28:27.328Z</time></trkpt><trkpt lat="43.2581903" lon="12.8210088"><ele>1082.5</ele><time>2026-04-25T11:28:28.33Z</time></trkpt><trkpt lat="43.258304" lon="12.8211043"><ele>1083.25</ele><time>2026-04-25T11:28:29.322Z</time></trkpt><trkpt lat="43.2584217" lon="12.821191"><ele>1084.0</ele><time>2026-04-25T11:28:30.325Z</time></trkpt><trkpt lat="43.2585413" lon="12.821274"><ele>1084.0</ele><time>2026-04-25T11:28:31.332Z</time></trkpt><trkpt lat="43.2586623" lon="12.8213579"><ele>1084.0</ele><time>2026-04-25T11:28:32.333Z</time></trkpt><trkpt lat="43.2587866" lon="12.8214419"><ele>1084.0</ele><time>2026-04-25T11:28:33.323Z</time></trkpt><trkpt lat="43.2589084" lon="12.8215211"><ele>1084.0</ele><time>2026-04-25T11:28:34.324Z</time></trkpt><trkpt lat="43.2590167" lon="12.8215899"><ele>1082.8</ele><time>2026-04-25T11:28:35.323Z</time></trkpt><trkpt lat="43.2591061" lon="12.8216584"><ele>1081.6000000000001</ele><time>2026-04-25T11:28:36.338Z</time></trkpt><trkpt lat="43.2591736" lon="12.821736"><ele>1080.4</ele><time>2026-04-25T11:28:37.335Z</time></trkpt><trkpt lat="43.2592251" lon="12.8218269"><ele>1079.2</ele><time>2026-04-25T11:28:38.333Z</time></trkpt><trkpt lat="43.2592641" lon="12.8219318"><ele>1078.0</ele><time>2026-04-25T11:28:39.331Z</time></trkpt><trkpt lat="43.2592906" lon="12.8220557"><ele>1078.0</ele><time>2026-04-25T11:28:40.325Z</time></trkpt><trkpt lat="43.2593177" lon="12.8222065"><ele>1078.0</ele><time>2026-04-25T11:28:41.329Z</time></trkpt><trkpt lat="43.2593398" lon="12.8223637"><ele>1078.0</ele><time>2026-04-25T11:28:42.328Z</time></trkpt><trkpt lat="43.2593565" lon="12.8225007"><ele>1078.0</ele><time>2026-04-25T11:28:43.331Z</time></trkpt><trkpt lat="43.2593643" lon="12.8226249"><ele>1078.0</ele><time>2026-04-25T11:28:44.334Z</time></trkpt><trkpt lat="43.2593615" lon="12.8227487"><ele>1079.0</ele><time>2026-04-25T11:28:45.329Z</time></trkpt><trkpt lat="43.259353" lon="12.8228746"><ele>1080.0</ele><time>2026-04-25T11:28:46.328Z</time></trkpt><trkpt lat="43.2593385" lon="12.8230059"><ele>1081.0</ele><time>2026-04-25T11:28:47.33Z</time></trkpt><trkpt lat="43.2593173" lon="12.8231375"><ele>1082.0</ele><time>2026-04-25T11:28:48.328Z</time></trkpt><trkpt lat="43.2592914" lon="12.8232713"><ele>1083.0</ele><time>2026-04-25T11:28:49.328Z</time></trkpt><trkpt lat="43.2592626" lon="12.8234015"><ele>1082.0</ele><time>2026-04-25T11:28:50.33Z</time></trkpt><trkpt lat="43.2592325" lon="12.8235312"><ele>1081.0</ele><time>2026-04-25T11:28:51.329Z</time></trkpt><trkpt lat="43.259195" lon="12.823656"><ele>1080.0</ele><time>2026-04-25T11:28:52.333Z</time></trkpt><trkpt lat="43.2591509" lon="12.823777"><ele>1079.0</ele><time>2026-04-25T11:28:53.329Z</time></trkpt><trkpt lat="43.2590996" lon="12.8238927"><ele>1078.0</ele><time>2026-04-25T11:28:54.325Z</time></trkpt><trkpt lat="43.2590472" lon="12.8240107"><ele>1078.0</ele><time>2026-04-25T11:28:55.328Z</time></trkpt><trkpt lat="43.2589998" lon="12.8241288"><ele>1078.0</ele><time>2026-04-25T11:28:56.326Z</time></trkpt><trkpt lat="43.258957" lon="12.8242439"><ele>1078.0</ele><time>2026-04-25T11:28:57.328Z</time></trkpt><trkpt lat="43.2589119" lon="12.8243475"><ele>1078.0</ele><time>2026-04-25T11:28:58.33Z</time></trkpt><trkpt lat="43.2588561" lon="12.824434"><ele>1078.0</ele><time>2026-04-25T11:28:59.328Z</time></trkpt><trkpt lat="43.2587818" lon="12.8245027"><ele>1083.0</ele><time>2026-04-25T11:29:00.33Z</time></trkpt><trkpt lat="43.2586981" lon="12.8245519"><ele>1088.0</ele><time>2026-04-25T11:29:01.334Z</time></trkpt><trkpt lat="43.2586194" lon="12.8245925"><ele>1093.0</ele><time>2026-04-25T11:29:02.333Z</time></trkpt><trkpt lat="43.2585486" lon="12.8246424"><ele>1098.0</ele><time>2026-04-25T11:29:03.325Z</time></trkpt><trkpt lat="43.2584967" lon="12.824711"><ele>1103.0</ele><time>2026-04-25T11:29:04.33Z</time></trkpt><trkpt lat="43.2584703" lon="12.8248045"><ele>1108.0</ele><time>2026-04-25T11:29:05.329Z</time></trkpt><trkpt lat="43.2584576" lon="12.8249206"><ele>1108.0</ele><time>2026-04-25T11:29:06.325Z</time></trkpt><trkpt lat="43.2584612" lon="12.8250553"><ele>1108.0</ele><time>2026-04-25T11:29:07.329Z</time></trkpt><trkpt lat="43.2584696" lon="12.8252045"><ele>1108.0</ele><time>2026-04-25T11:29:08.332Z</time></trkpt><trkpt lat="43.2584715" lon="12.8253608"><ele>1108.0</ele><time>2026-04-25T11:29:09.323Z</time></trkpt><trkpt lat="43.2584667" lon="12.8255117"><ele>1108.0</ele><time>2026-04-25T11:29:10.33Z</time></trkpt><trkpt lat="43.2584625" lon="12.8256621"><ele>1108.8</ele><time>2026-04-25T11:29:11.317Z</time></trkpt><trkpt lat="43.2584622" lon="12.8258184"><ele>1109.6</ele><time>2026-04-25T11:29:12.328Z</time></trkpt><trkpt lat="43.2584706" lon="12.8259728"><ele>1110.4</ele><time>2026-04-25T11:29:13.325Z</time></trkpt><trkpt lat="43.2584894" lon="12.8261211"><ele>1111.2</ele><time>2026-04-25T11:29:14.329Z</time></trkpt><trkpt lat="43.2585158" lon="12.8262697"><ele>1112.0</ele><time>2026-04-25T11:29:15.328Z</time></trkpt><trkpt lat="43.258539" lon="12.8264251"><ele>1116.0</ele><time>2026-04-25T11:29:16.329Z</time></trkpt><trkpt lat="43.2585772" lon="12.8265776"><ele>1120.0</ele><time>2026-04-25T11:29:17.323Z</time></trkpt><trkpt lat="43.258633" lon="12.8267321"><ele>1124.0</ele><time>2026-04-25T11:29:18.329Z</time></trkpt><trkpt lat="43.258699" lon="12.8268909"><ele>1128.0</ele><time>2026-04-25T11:29:19.334Z</time></trkpt><trkpt lat="43.2587718" lon="12.8270512"><ele>1127.75</ele><time>2026-04-25T11:29:20.323Z</time></trkpt><trkpt lat="43.2588457" lon="12.8272135"><ele>1127.5</ele><time>2026-04-25T11:29:21.327Z</time></trkpt><trkpt lat="43.2589216" lon="12.8273733"><ele>1127.25</ele><time>2026-04-25T11:29:22.328Z</time></trkpt><trkpt lat="43.2590002" lon="12.8275326"><ele>1127.0</ele><time>2026-04-25T11:29:23.329Z</time></trkpt><trkpt lat="43.2590727" lon="12.8276896"><ele>1127.0</ele><time>2026-04-25T11:29:24.331Z</time></trkpt><trkpt lat="43.2591362" lon="12.8278414"><ele>1127.0</ele><time>2026-04-25T11:29:25.329Z</time></trkpt><trkpt lat="43.2591951" lon="12.8279919"><ele>1127.0</ele><time>2026-04-25T11:29:26.326Z</time></trkpt><trkpt lat="43.2592557" lon="12.8281468"><ele>1127.0</ele><time>2026-04-25T11:29:27.318Z</time></trkpt><trkpt lat="43.2593194" lon="12.8283048"><ele>1127.0</ele><time>2026-04-25T11:29:28.326Z</time></trkpt><trkpt lat="43.2593865" lon="12.8284617"><ele>1127.0</ele><time>2026-04-25T11:29:29.322Z</time></trkpt><trkpt lat="43.2594531" lon="12.8286193"><ele>1127.0</ele><time>2026-04-25T11:29:30.329Z</time></trkpt><trkpt lat="43.259513" lon="12.8287792"><ele>1127.0</ele><time>2026-04-25T11:29:31.329Z</time></trkpt><trkpt lat="43.2595684" lon="12.8289385"><ele>1127.25</ele><time>2026-04-25T11:29:32.324Z</time></trkpt><trkpt lat="43.2596221" lon="12.8291025"><ele>1127.5</ele><time>2026-04-25T11:29:33.325Z</time></trkpt><trkpt lat="43.2596772" lon="12.8292655"><ele>1127.75</ele><time>2026-04-25T11:29:34.329Z</time></trkpt><trkpt lat="43.2597322" lon="12.8294267"><ele>1128.0</ele><time>2026-04-25T11:29:35.331Z</time></trkpt><trkpt lat="43.2597865" lon="12.8295869"><ele>1128.0</ele><time>2026-04-25T11:29:36.325Z</time></trkpt><trkpt lat="43.2598391" lon="12.8297487"><ele>1128.0</ele><time>2026-04-25T11:29:37.333Z</time></trkpt><trkpt lat="43.2598857" lon="12.8299032"><ele>1128.0</ele><time>2026-04-25T11:29:38.322Z</time></trkpt><trkpt lat="43.259925" lon="12.8300482"><ele>1128.0</ele><time>2026-04-25T11:29:39.329Z</time></trkpt><trkpt lat="43.2599577" lon="12.8301856"><ele>1130.2</ele><time>2026-04-25T11:29:40.326Z</time></trkpt><trkpt lat="43.25999" lon="12.8303193"><ele>1132.4</ele><time>2026-04-25T11:29:41.325Z</time></trkpt><trkpt lat="43.260028" lon="12.8304558"><ele>1134.6000000000001</ele><time>2026-04-25T11:29:42.324Z</time></trkpt><trkpt lat="43.2600643" lon="12.830585"><ele>1136.8</ele><time>2026-04-25T11:29:43.328Z</time></trkpt><trkpt lat="43.260093" lon="12.8306886"><ele>1139.0</ele><time>2026-04-25T11:29:44.325Z</time></trkpt><trkpt lat="43.2601148" lon="12.8307713"><ele>1139.0</ele><time>2026-04-25T11:29:45.322Z</time></trkpt><trkpt lat="43.2601256" lon="12.8309218"><ele>1139.0</ele><time>2026-04-25T11:29:47.33Z</time></trkpt><trkpt lat="43.2600514" lon="12.8310524"><ele>1139.0</ele><time>2026-04-25T11:29:49.329Z</time></trkpt><trkpt lat="43.2599898" lon="12.8311131"><ele>1139.0</ele><time>2026-04-25T11:29:50.329Z</time></trkpt><trkpt lat="43.2599224" lon="12.8311708"><ele>1139.0</ele><time>2026-04-25T11:29:51.325Z</time></trkpt><trkpt lat="43.2598518" lon="12.8312259"><ele>1143.1666666666667</ele><time>2026-04-25T11:29:52.332Z</time></trkpt><trkpt lat="43.2597822" lon="12.8312876"><ele>1147.3333333333335</ele><time>2026-04-25T11:29:53.322Z</time></trkpt><trkpt lat="43.2597182" lon="12.8313614"><ele>1151.5</ele><time>2026-04-25T11:29:54.326Z</time></trkpt><trkpt lat="43.2596643" lon="12.8314451"><ele>1155.6666666666667</ele><time>2026-04-25T11:29:55.334Z</time></trkpt><trkpt lat="43.259618" lon="12.8315326"><ele>1159.8333333333333</ele><time>2026-04-25T11:29:56.323Z</time></trkpt><trkpt lat="43.2595712" lon="12.8316123"><ele>1164.0</ele><time>2026-04-25T11:29:57.321Z</time></trkpt><trkpt lat="43.2595136" lon="12.8316838"><ele>1164.0</ele><time>2026-04-25T11:29:58.333Z</time></trkpt><trkpt lat="43.2594443" lon="12.8317465"><ele>1164.0</ele><time>2026-04-25T11:29:59.331Z</time></trkpt><trkpt lat="43.2593675" lon="12.8317974"><ele>1164.0</ele><time>2026-04-25T11:30:00.333Z</time></trkpt><trkpt lat="43.2592842" lon="12.8318428"><ele>1164.0</ele><time>2026-04-25T11:30:01.318Z</time></trkpt><trkpt lat="43.2591909" lon="12.831886"><ele>1164.0</ele><time>2026-04-25T11:30:02.333Z</time></trkpt><trkpt lat="43.2590914" lon="12.8319266"><ele>1160.0</ele><time>2026-04-25T11:30:03.331Z</time></trkpt><trkpt lat="43.25899" lon="12.8319642"><ele>1156.0</ele><time>2026-04-25T11:30:04.332Z</time></trkpt><trkpt lat="43.2588878" lon="12.8320026"><ele>1152.0</ele><time>2026-04-25T11:30:05.324Z</time></trkpt><trkpt lat="43.2587852" lon="12.8320452"><ele>1148.0</ele><time>2026-04-25T11:30:06.326Z</time></trkpt><trkpt lat="43.2586875" lon="12.8320887"><ele>1144.0</ele><time>2026-04-25T11:30:07.322Z</time></trkpt><trkpt lat="43.2585924" lon="12.8321318"><ele>1144.0</ele><time>2026-04-25T11:30:08.322Z</time></trkpt><trkpt lat="43.2584977" lon="12.8321673"><ele>1144.0</ele><time>2026-04-25T11:30:09.329Z</time></trkpt><trkpt lat="43.2584022" lon="12.8321965"><ele>1144.0</ele><time>2026-04-25T11:30:10.333Z</time></trkpt><trkpt lat="43.2583017" lon="12.8322253"><ele>1144.0</ele><time>2026-04-25T11:30:11.335Z</time></trkpt><trkpt lat="43.258196" lon="12.8322514"><ele>1144.0</ele><time>2026-04-25T11:30:12.333Z</time></trkpt><trkpt lat="43.2580916" lon="12.8322629"><ele>1145.3333333333333</ele><time>2026-04-25T11:30:13.338Z</time></trkpt><trkpt lat="43.2579955" lon="12.8322683"><ele>1146.6666666666665</ele><time>2026-04-25T11:30:14.335Z</time></trkpt><trkpt lat="43.2579048" lon="12.8322584"><ele>1148.0</ele><time>2026-04-25T11:30:15.33Z</time></trkpt><trkpt lat="43.2578296" lon="12.8322314"><ele>1149.3333333333333</ele><time>2026-04-25T11:30:16.334Z</time></trkpt><trkpt lat="43.2577632" lon="12.8322019"><ele>1150.6666666666667</ele><time>2026-04-25T11:30:17.338Z</time></trkpt><trkpt lat="43.2576523" lon="12.8321687"><ele>1152.0</ele><time>2026-04-25T11:30:19.335Z</time></trkpt><trkpt lat="43.2575295" lon="12.832203"><ele>1152.0</ele><time>2026-04-25T11:30:21.33Z</time></trkpt><trkpt lat="43.2574646" lon="12.8322604"><ele>1152.0</ele><time>2026-04-25T11:30:22.336Z</time></trkpt><trkpt lat="43.2574023" lon="12.832324"><ele>1152.0</ele><time>2026-04-25T11:30:23.332Z</time></trkpt><trkpt lat="43.2573314" lon="12.8323831"><ele>1152.0</ele><time>2026-04-25T11:30:24.326Z</time></trkpt><trkpt lat="43.2572602" lon="12.8324304"><ele>1152.0</ele><time>2026-04-25T11:30:25.333Z</time></trkpt><trkpt lat="43.2571835" lon="12.8324684"><ele>1152.0</ele><time>2026-04-25T11:30:26.333Z</time></trkpt><trkpt lat="43.2570947" lon="12.8324904"><ele>1153.75</ele><time>2026-04-25T11:30:27.334Z</time></trkpt><trkpt lat="43.2569931" lon="12.8324955"><ele>1155.5</ele><time>2026-04-25T11:30:28.322Z</time></trkpt><trkpt lat="43.2568826" lon="12.8324947"><ele>1157.25</ele><time>2026-04-25T11:30:29.333Z</time></trkpt><trkpt lat="43.2567632" lon="12.8324897"><ele>1159.0</ele><time>2026-04-25T11:30:30.332Z</time></trkpt><trkpt lat="43.2566366" lon="12.8324851"><ele>1159.0</ele><time>2026-04-25T11:30:31.333Z</time></trkpt><trkpt lat="43.2565077" lon="12.8324807"><ele>1159.0</ele><time>2026-04-25T11:30:32.325Z</time></trkpt><trkpt lat="43.2563765" lon="12.8324808"><ele>1159.0</ele><time>2026-04-25T11:30:33.326Z</time></trkpt><trkpt lat="43.2562612" lon="12.8324828"><ele>1159.0</ele><time>2026-04-25T11:30:34.331Z</time></trkpt><trkpt lat="43.2561706" lon="12.8324888"><ele>1159.6666666666665</ele><time>2026-04-25T11:30:35.328Z</time></trkpt><trkpt lat="43.2560994" lon="12.8325031"><ele>1160.3333333333333</ele><time>2026-04-25T11:30:36.322Z</time></trkpt><trkpt lat="43.2560285" lon="12.832513"><ele>1161.0</ele><time>2026-04-25T11:30:37.33Z</time></trkpt><trkpt lat="43.2559556" lon="12.8325191"><ele>1161.6666666666667</ele><time>2026-04-25T11:30:38.323Z</time></trkpt><trkpt lat="43.2558752" lon="12.8325208"><ele>1162.3333333333335</ele><time>2026-04-25T11:30:39.319Z</time></trkpt><trkpt lat="43.2557885" lon="12.8325238"><ele>1163.0</ele><time>2026-04-25T11:30:40.326Z</time></trkpt><trkpt lat="43.2556925" lon="12.8325286"><ele>1162.8</ele><time>2026-04-25T11:30:41.335Z</time></trkpt><trkpt lat="43.2555907" lon="12.8325342"><ele>1162.6</ele><time>2026-04-25T11:30:42.337Z</time></trkpt><trkpt lat="43.2554821" lon="12.8325384"><ele>1162.4</ele><time>2026-04-25T11:30:43.322Z</time></trkpt><trkpt lat="43.2553708" lon="12.8325407"><ele>1162.2</ele><time>2026-04-25T11:30:44.331Z</time></trkpt><trkpt lat="43.2552627" lon="12.8325473"><ele>1162.0</ele><time>2026-04-25T11:30:45.332Z</time></trkpt><trkpt lat="43.2551511" lon="12.8325522"><ele>1162.0</ele><time>2026-04-25T11:30:46.331Z</time></trkpt><trkpt lat="43.2550332" lon="12.8325502"><ele>1162.0</ele><time>2026-04-25T11:30:47.333Z</time></trkpt><trkpt lat="43.2549197" lon="12.8325392"><ele>1162.0</ele><time>2026-04-25T11:30:48.331Z</time></trkpt><trkpt lat="43.2548046" lon="12.8325309"><ele>1162.0</ele><time>2026-04-25T11:30:49.334Z</time></trkpt><trkpt lat="43.2546847" lon="12.8325274"><ele>1162.5</ele><time>2026-04-25T11:30:50.329Z</time></trkpt><trkpt lat="43.2545632" lon="12.8325262"><ele>1163.0</ele><time>2026-04-25T11:30:51.335Z</time></trkpt><trkpt lat="43.254437" lon="12.8325301"><ele>1163.5</ele><time>2026-04-25T11:30:52.337Z</time></trkpt><trkpt lat="43.2543056" lon="12.8325354"><ele>1164.0</ele><time>2026-04-25T11:30:53.325Z</time></trkpt><trkpt lat="43.2541791" lon="12.8325367"><ele>1164.0</ele><time>2026-04-25T11:30:54.326Z</time></trkpt><trkpt lat="43.2540595" lon="12.8325418"><ele>1164.0</ele><time>2026-04-25T11:30:55.325Z</time></trkpt><trkpt lat="43.2539427" lon="12.8325504"><ele>1164.0</ele><time>2026-04-25T11:30:56.324Z</time></trkpt><trkpt lat="43.2538294" lon="12.8325645"><ele>1164.0</ele><time>2026-04-25T11:30:57.332Z</time></trkpt><trkpt lat="43.2537195" lon="12.8325976"><ele>1161.5</ele><time>2026-04-25T11:30:58.335Z</time></trkpt><trkpt lat="43.2536104" lon="12.8326542"><ele>1159.0</ele><time>2026-04-25T11:30:59.327Z</time></trkpt><trkpt lat="43.2534961" lon="12.8327335"><ele>1156.5</ele><time>2026-04-25T11:31:00.322Z</time></trkpt><trkpt lat="43.2533869" lon="12.8328183"><ele>1154.0</ele><time>2026-04-25T11:31:01.334Z</time></trkpt><trkpt lat="43.2532847" lon="12.8329028"><ele>1154.0</ele><time>2026-04-25T11:31:02.32Z</time></trkpt><trkpt lat="43.2531921" lon="12.8329767"><ele>1154.0</ele><time>2026-04-25T11:31:03.33Z</time></trkpt><trkpt lat="43.2531077" lon="12.8330387"><ele>1154.0</ele><time>2026-04-25T11:31:04.323Z</time></trkpt><trkpt lat="43.2530239" lon="12.8330867"><ele>1154.0</ele><time>2026-04-25T11:31:05.33Z</time></trkpt><trkpt lat="43.2529382" lon="12.8331257"><ele>1154.0</ele><time>2026-04-25T11:31:06.328Z</time></trkpt><trkpt lat="43.2528524" lon="12.8331612"><ele>1153.3333333333335</ele><time>2026-04-25T11:31:07.329Z</time></trkpt><trkpt lat="43.2527651" lon="12.8331965"><ele>1152.6666666666667</ele><time>2026-04-25T11:31:08.33Z</time></trkpt><trkpt lat="43.2526739" lon="12.8332303"><ele>1152.0</ele><time>2026-04-25T11:31:09.323Z</time></trkpt><trkpt lat="43.2525856" lon="12.8332685"><ele>1151.3333333333333</ele><time>2026-04-25T11:31:10.333Z</time></trkpt><trkpt lat="43.2525044" lon="12.8333183"><ele>1150.6666666666665</ele><time>2026-04-25T11:31:11.327Z</time></trkpt><trkpt lat="43.2524383" lon="12.8333853"><ele>1150.0</ele><time>2026-04-25T11:31:12.326Z</time></trkpt><trkpt lat="43.2523909" lon="12.8334789"><ele>1150.0</ele><time>2026-04-25T11:31:13.332Z</time></trkpt><trkpt lat="43.2523402" lon="12.8335649"><ele>1150.0</ele><time>2026-04-25T11:31:14.332Z</time></trkpt><trkpt lat="43.2522757" lon="12.8336325"><ele>1150.0</ele><time>2026-04-25T11:31:15.335Z</time></trkpt><trkpt lat="43.2521989" lon="12.8336812"><ele>1150.0</ele><time>2026-04-25T11:31:16.326Z</time></trkpt><trkpt lat="43.2521058" lon="12.833715"><ele>1150.0</ele><time>2026-04-25T11:31:17.325Z</time></trkpt><trkpt lat="43.2520009" lon="12.8337366"><ele>1150.0</ele><time>2026-04-25T11:31:18.323Z</time></trkpt><trkpt lat="43.2518914" lon="12.8337409"><ele>1153.75</ele><time>2026-04-25T11:31:19.324Z</time></trkpt><trkpt lat="43.2517707" lon="12.8337387"><ele>1157.5</ele><time>2026-04-25T11:31:20.326Z</time></trkpt><trkpt lat="43.2516485" lon="12.8337418"><ele>1161.25</ele><time>2026-04-25T11:31:21.335Z</time></trkpt><trkpt lat="43.2515409" lon="12.8337499"><ele>1165.0</ele><time>2026-04-25T11:31:22.334Z</time></trkpt><trkpt lat="43.2514385" lon="12.8337615"><ele>1167.6</ele><time>2026-04-25T11:31:23.325Z</time></trkpt><trkpt lat="43.2513428" lon="12.8337749"><ele>1170.2</ele><time>2026-04-25T11:31:24.333Z</time></trkpt><trkpt lat="43.2512521" lon="12.8337956"><ele>1172.8</ele><time>2026-04-25T11:31:25.333Z</time></trkpt><trkpt lat="43.2511627" lon="12.8338345"><ele>1175.4</ele><time>2026-04-25T11:31:26.334Z</time></trkpt><trkpt lat="43.2510769" lon="12.8338941"><ele>1178.0</ele><time>2026-04-25T11:31:27.326Z</time></trkpt><trkpt lat="43.2509866" lon="12.8339626"><ele>1178.0</ele><time>2026-04-25T11:31:28.335Z</time></trkpt><trkpt lat="43.2508962" lon="12.8340398"><ele>1178.0</ele><time>2026-04-25T11:31:29.33Z</time></trkpt><trkpt lat="43.2508014" lon="12.8341118"><ele>1178.0</ele><time>2026-04-25T11:31:30.32Z</time></trkpt><trkpt lat="43.2507024" lon="12.8341734"><ele>1178.0</ele><time>2026-04-25T11:31:31.325Z</time></trkpt><trkpt lat="43.2506007" lon="12.834216"><ele>1178.0</ele><time>2026-04-25T11:31:32.33Z</time></trkpt><trkpt lat="43.2504954" lon="12.8342328"><ele>1179.6</ele><time>2026-04-25T11:31:33.334Z</time></trkpt><trkpt lat="43.2503916" lon="12.8342269"><ele>1181.1999999999998</ele><time>2026-04-25T11:31:34.328Z</time></trkpt><trkpt lat="43.2502949" lon="12.8342137"><ele>1182.8</ele><time>2026-04-25T11:31:35.328Z</time></trkpt><trkpt lat="43.2502004" lon="12.8342016"><ele>1184.3999999999999</ele><time>2026-04-25T11:31:36.322Z</time></trkpt><trkpt lat="43.2501037" lon="12.8341825"><ele>1186.0</ele><time>2026-04-25T11:31:37.322Z</time></trkpt><trkpt lat="43.2499965" lon="12.8341535"><ele>1186.0</ele><time>2026-04-25T11:31:38.324Z</time></trkpt><trkpt lat="43.2498893" lon="12.8341151"><ele>1186.0</ele><time>2026-04-25T11:31:39.331Z</time></trkpt><trkpt lat="43.2497889" lon="12.8340647"><ele>1186.0</ele><time>2026-04-25T11:31:40.336Z</time></trkpt><trkpt lat="43.2496952" lon="12.8340064"><ele>1186.0</ele><time>2026-04-25T11:31:41.328Z</time></trkpt><trkpt lat="43.2496107" lon="12.8339379"><ele>1186.0</ele><time>2026-04-25T11:31:42.329Z</time></trkpt><trkpt lat="43.2495286" lon="12.8338609"><ele>1187.3999999999999</ele><time>2026-04-25T11:31:43.335Z</time></trkpt><trkpt lat="43.2494465" lon="12.8337847"><ele>1188.8</ele><time>2026-04-25T11:31:44.332Z</time></trkpt><trkpt lat="43.249361" lon="12.8337294"><ele>1190.1999999999998</ele><time>2026-04-25T11:31:45.324Z</time></trkpt><trkpt lat="43.249268" lon="12.8337005"><ele>1191.6</ele><time>2026-04-25T11:31:46.333Z</time></trkpt><trkpt lat="43.2491635" lon="12.8336891"><ele>1193.0</ele><time>2026-04-25T11:31:47.323Z</time></trkpt><trkpt lat="43.2490479" lon="12.8336797"><ele>1195.25</ele><time>2026-04-25T11:31:48.334Z</time></trkpt><trkpt lat="43.2489316" lon="12.8336667"><ele>1197.5</ele><time>2026-04-25T11:31:49.335Z</time></trkpt><trkpt lat="43.2488148" lon="12.8336469"><ele>1199.75</ele><time>2026-04-25T11:31:50.327Z</time></trkpt><trkpt lat="43.2486957" lon="12.8336179"><ele>1202.0</ele><time>2026-04-25T11:31:51.33Z</time></trkpt><trkpt lat="43.2485755" lon="12.8335821"><ele>1202.0</ele><time>2026-04-25T11:31:52.34Z</time></trkpt><trkpt lat="43.2484563" lon="12.8335451"><ele>1202.0</ele><time>2026-04-25T11:31:53.332Z</time></trkpt><trkpt lat="43.2483348" lon="12.8335109"><ele>1202.0</ele><time>2026-04-25T11:31:54.332Z</time></trkpt><trkpt lat="43.2482125" lon="12.8334868"><ele>1202.0</ele><time>2026-04-25T11:31:55.333Z</time></trkpt><trkpt lat="43.2480871" lon="12.8334737"><ele>1203.5</ele><time>2026-04-25T11:31:56.333Z</time></trkpt><trkpt lat="43.2479564" lon="12.8334677"><ele>1205.0</ele><time>2026-04-25T11:31:57.33Z</time></trkpt><trkpt lat="43.2478214" lon="12.83347"><ele>1206.5</ele><time>2026-04-25T11:31:58.325Z</time></trkpt><trkpt lat="43.2476857" lon="12.8334777"><ele>1208.0</ele><time>2026-04-25T11:31:59.336Z</time></trkpt><trkpt lat="43.2475498" lon="12.8334866"><ele>1208.0</ele><time>2026-04-25T11:32:00.323Z</time></trkpt><trkpt lat="43.2474047" lon="12.8334872"><ele>1208.0</ele><time>2026-04-25T11:32:01.329Z</time></trkpt><trkpt lat="43.2472644" lon="12.8334776"><ele>1208.0</ele><time>2026-04-25T11:32:02.322Z</time></trkpt><trkpt lat="43.2471355" lon="12.8334756"><ele>1208.0</ele><time>2026-04-25T11:32:03.331Z</time></trkpt><trkpt lat="43.247006" lon="12.8334923"><ele>1210.5</ele><time>2026-04-25T11:32:04.33Z</time></trkpt><trkpt lat="43.2468737" lon="12.8335247"><ele>1213.0</ele><time>2026-04-25T11:32:05.332Z</time></trkpt><trkpt lat="43.2467473" lon="12.8335678"><ele>1215.5</ele><time>2026-04-25T11:32:06.333Z</time></trkpt><trkpt lat="43.2466294" lon="12.8336119"><ele>1218.0</ele><time>2026-04-25T11:32:07.331Z</time></trkpt><trkpt lat="43.2465159" lon="12.8336496"><ele>1221.5</ele><time>2026-04-25T11:32:08.332Z</time></trkpt><trkpt lat="43.2464032" lon="12.8336694"><ele>1225.0</ele><time>2026-04-25T11:32:09.334Z</time></trkpt><trkpt lat="43.2462845" lon="12.8336712"><ele>1228.5</ele><time>2026-04-25T11:32:10.328Z</time></trkpt><trkpt lat="43.2461668" lon="12.8336551"><ele>1232.0</ele><time>2026-04-25T11:32:11.335Z</time></trkpt><trkpt lat="43.2460566" lon="12.8336349"><ele>1232.0</ele><time>2026-04-25T11:32:12.331Z</time></trkpt><trkpt lat="43.2459467" lon="12.8336258"><ele>1232.0</ele><time>2026-04-25T11:32:13.335Z</time></trkpt><trkpt lat="43.245837" lon="12.8336484"><ele>1232.0</ele><time>2026-04-25T11:32:14.332Z</time></trkpt><trkpt lat="43.245737" lon="12.8337081"><ele>1232.0</ele><time>2026-04-25T11:32:15.334Z</time></trkpt><trkpt lat="43.2456405" lon="12.833801"><ele>1232.0</ele><time>2026-04-25T11:32:16.325Z</time></trkpt><trkpt lat="43.2455475" lon="12.8339162"><ele>1232.5</ele><time>2026-04-25T11:32:17.323Z</time></trkpt><trkpt lat="43.2454578" lon="12.8340613"><ele>1233.0</ele><time>2026-04-25T11:32:18.331Z</time></trkpt><trkpt lat="43.245365" lon="12.8342107"><ele>1233.5</ele><time>2026-04-25T11:32:19.331Z</time></trkpt><trkpt lat="43.2452608" lon="12.8343552"><ele>1234.0</ele><time>2026-04-25T11:32:20.324Z</time></trkpt><trkpt lat="43.2451477" lon="12.8344853"><ele>1234.0</ele><time>2026-04-25T11:32:21.333Z</time></trkpt><trkpt lat="43.2450318" lon="12.8345969"><ele>1234.0</ele><time>2026-04-25T11:32:22.328Z</time></trkpt><trkpt lat="43.2449136" lon="12.8346883"><ele>1234.0</ele><time>2026-04-25T11:32:23.332Z</time></trkpt><trkpt lat="43.2447894" lon="12.8347596"><ele>1234.0</ele><time>2026-04-25T11:32:24.331Z</time></trkpt><trkpt lat="43.244672" lon="12.8348226"><ele>1236.25</ele><time>2026-04-25T11:32:25.334Z</time></trkpt><trkpt lat="43.2445607" lon="12.834882"><ele>1238.5</ele><time>2026-04-25T11:32:26.332Z</time></trkpt><trkpt lat="43.2444557" lon="12.8349429"><ele>1240.75</ele><time>2026-04-25T11:32:27.332Z</time></trkpt><trkpt lat="43.2443449" lon="12.8349995"><ele>1243.0</ele><time>2026-04-25T11:32:28.326Z</time></trkpt><trkpt lat="43.2442253" lon="12.835052"><ele>1243.0</ele><time>2026-04-25T11:32:29.332Z</time></trkpt><trkpt lat="43.2440944" lon="12.8351053"><ele>1243.0</ele><time>2026-04-25T11:32:30.333Z</time></trkpt><trkpt lat="43.2439562" lon="12.8351546"><ele>1243.0</ele><time>2026-04-25T11:32:31.334Z</time></trkpt><trkpt lat="43.2438156" lon="12.8351992"><ele>1243.0</ele><time>2026-04-25T11:32:32.329Z</time></trkpt><trkpt lat="43.2436827" lon="12.8352506"><ele>1245.0</ele><time>2026-04-25T11:32:33.33Z</time></trkpt><trkpt lat="43.2435565" lon="12.8353209"><ele>1247.0</ele><time>2026-04-25T11:32:34.331Z</time></trkpt><trkpt lat="43.2434315" lon="12.8354144"><ele>1249.0</ele><time>2026-04-25T11:32:35.333Z</time></trkpt><trkpt lat="43.2433096" lon="12.8355315"><ele>1251.0</ele><time>2026-04-25T11:32:36.326Z</time></trkpt><trkpt lat="43.2431913" lon="12.8356673"><ele>1251.75</ele><time>2026-04-25T11:32:37.332Z</time></trkpt><trkpt lat="43.2430784" lon="12.8358111"><ele>1252.5</ele><time>2026-04-25T11:32:38.323Z</time></trkpt><trkpt lat="43.2429879" lon="12.8359518"><ele>1253.25</ele><time>2026-04-25T11:32:39.334Z</time></trkpt><trkpt lat="43.2429104" lon="12.8360614"><ele>1254.0</ele><time>2026-04-25T11:32:40.336Z</time></trkpt><trkpt lat="43.2428422" lon="12.8361269"><ele>1254.0</ele><time>2026-04-25T11:32:41.338Z</time></trkpt><trkpt lat="43.2427728" lon="12.8361542"><ele>1254.0</ele><time>2026-04-25T11:32:42.336Z</time></trkpt><trkpt lat="43.2426995" lon="12.8361494"><ele>1254.0</ele><time>2026-04-25T11:32:43.334Z</time></trkpt><trkpt lat="43.2426186" lon="12.836117"><ele>1254.0</ele><time>2026-04-25T11:32:44.332Z</time></trkpt><trkpt lat="43.2425374" lon="12.8360661"><ele>1254.0</ele><time>2026-04-25T11:32:45.33Z</time></trkpt><trkpt lat="43.2424561" lon="12.8360032"><ele>1254.0</ele><time>2026-04-25T11:32:46.332Z</time></trkpt><trkpt lat="43.2423724" lon="12.8359328"><ele>1249.6000000000001</ele><time>2026-04-25T11:32:47.332Z</time></trkpt><trkpt lat="43.2422901" lon="12.8358553"><ele>1245.2</ele><time>2026-04-25T11:32:48.336Z</time></trkpt><trkpt lat="43.2422075" lon="12.8357665"><ele>1240.8000000000002</ele><time>2026-04-25T11:32:49.338Z</time></trkpt><trkpt lat="43.2421254" lon="12.8356715"><ele>1236.4</ele><time>2026-04-25T11:32:50.327Z</time></trkpt><trkpt lat="43.2420429" lon="12.8355715"><ele>1232.0</ele><time>2026-04-25T11:32:51.338Z</time></trkpt><trkpt lat="43.2419624" lon="12.8354628"><ele>1232.0</ele><time>2026-04-25T11:32:52.331Z</time></trkpt><trkpt lat="43.2418818" lon="12.8353449"><ele>1232.0</ele><time>2026-04-25T11:32:53.334Z</time></trkpt><trkpt lat="43.2417946" lon="12.8352252"><ele>1232.0</ele><time>2026-04-25T11:32:54.336Z</time></trkpt><trkpt lat="43.2417016" lon="12.8351069"><ele>1232.0</ele><time>2026-04-25T11:32:55.339Z</time></trkpt><trkpt lat="43.2416084" lon="12.8349909"><ele>1230.5</ele><time>2026-04-25T11:32:56.332Z</time></trkpt><trkpt lat="43.2415103" lon="12.8348738"><ele>1229.0</ele><time>2026-04-25T11:32:57.337Z</time></trkpt><trkpt lat="43.2414065" lon="12.8347504"><ele>1227.5</ele><time>2026-04-25T11:32:58.336Z</time></trkpt><trkpt lat="43.2412907" lon="12.8346146"><ele>1226.0</ele><time>2026-04-25T11:32:59.335Z</time></trkpt><trkpt lat="43.2411679" lon="12.8344739"><ele>1226.0</ele><time>2026-04-25T11:33:00.332Z</time></trkpt><trkpt lat="43.2410523" lon="12.8343473"><ele>1226.0</ele><time>2026-04-25T11:33:01.327Z</time></trkpt><trkpt lat="43.2409416" lon="12.8342401"><ele>1226.0</ele><time>2026-04-25T11:33:02.335Z</time></trkpt><trkpt lat="43.24083" lon="12.8341526"><ele>1226.0</ele><time>2026-04-25T11:33:03.324Z</time></trkpt><trkpt lat="43.2407128" lon="12.8340802"><ele>1231.5</ele><time>2026-04-25T11:33:04.332Z</time></trkpt><trkpt lat="43.2405922" lon="12.8340223"><ele>1237.0</ele><time>2026-04-25T11:33:05.332Z</time></trkpt><trkpt lat="43.2404771" lon="12.8339794"><ele>1242.5</ele><time>2026-04-25T11:33:06.331Z</time></trkpt><trkpt lat="43.240362" lon="12.8339527"><ele>1248.0</ele><time>2026-04-25T11:33:07.335Z</time></trkpt><trkpt lat="43.2402478" lon="12.8339271"><ele>1248.0</ele><time>2026-04-25T11:33:08.336Z</time></trkpt><trkpt lat="43.2401339" lon="12.8338939"><ele>1248.0</ele><time>2026-04-25T11:33:09.335Z</time></trkpt><trkpt lat="43.24002" lon="12.8338491"><ele>1248.0</ele><time>2026-04-25T11:33:10.326Z</time></trkpt><trkpt lat="43.2399064" lon="12.8337899"><ele>1248.0</ele><time>2026-04-25T11:33:11.332Z</time></trkpt><trkpt lat="43.2397936" lon="12.8337177"><ele>1243.5</ele><time>2026-04-25T11:33:12.33Z</time></trkpt><trkpt lat="43.2396763" lon="12.8336415"><ele>1239.0</ele><time>2026-04-25T11:33:13.338Z</time></trkpt><trkpt lat="43.2395515" lon="12.8335695"><ele>1234.5</ele><time>2026-04-25T11:33:14.334Z</time></trkpt><trkpt lat="43.2394202" lon="12.8335011"><ele>1230.0</ele><time>2026-04-25T11:33:15.335Z</time></trkpt><trkpt lat="43.2392868" lon="12.8334351"><ele>1236.5</ele><time>2026-04-25T11:33:16.334Z</time></trkpt><trkpt lat="43.2391567" lon="12.8333766"><ele>1243.0</ele><time>2026-04-25T11:33:17.335Z</time></trkpt><trkpt lat="43.2390326" lon="12.8333243"><ele>1249.5</ele><time>2026-04-25T11:33:18.332Z</time></trkpt><trkpt lat="43.2389108" lon="12.8332728"><ele>1256.0</ele><time>2026-04-25T11:33:19.335Z</time></trkpt><trkpt lat="43.2387917" lon="12.8332207"><ele>1256.0</ele><time>2026-04-25T11:33:20.329Z</time></trkpt><trkpt lat="43.2386732" lon="12.8331676"><ele>1256.0</ele><time>2026-04-25T11:33:21.325Z</time></trkpt><trkpt lat="43.2385564" lon="12.8331148"><ele>1256.0</ele><time>2026-04-25T11:33:22.333Z</time></trkpt><trkpt lat="43.2384428" lon="12.8330661"><ele>1256.0</ele><time>2026-04-25T11:33:23.336Z</time></trkpt><trkpt lat="43.2383341" lon="12.833023"><ele>1256.0</ele><time>2026-04-25T11:33:24.338Z</time></trkpt><trkpt lat="43.2382303" lon="12.8329818"><ele>1256.0</ele><time>2026-04-25T11:33:25.336Z</time></trkpt><trkpt lat="43.2381308" lon="12.8329398"><ele>1256.0</ele><time>2026-04-25T11:33:26.336Z</time></trkpt><trkpt lat="43.2380352" lon="12.8328993"><ele>1256.0</ele><time>2026-04-25T11:33:27.327Z</time></trkpt><trkpt lat="43.2379409" lon="12.8328616"><ele>1256.0</ele><time>2026-04-25T11:33:28.337Z</time></trkpt><trkpt lat="43.2378459" lon="12.8328224"><ele>1258.2</ele><time>2026-04-25T11:33:29.337Z</time></trkpt><trkpt lat="43.2377451" lon="12.8327784"><ele>1260.3999999999999</ele><time>2026-04-25T11:33:30.333Z</time></trkpt><trkpt lat="43.2376422" lon="12.8327296"><ele>1262.6</ele><time>2026-04-25T11:33:31.333Z</time></trkpt><trkpt lat="43.2375409" lon="12.8326776"><ele>1264.8</ele><time>2026-04-25T11:33:32.335Z</time></trkpt><trkpt lat="43.2374405" lon="12.8326266"><ele>1267.0</ele><time>2026-04-25T11:33:33.334Z</time></trkpt><trkpt lat="43.2373425" lon="12.8325816"><ele>1264.0</ele><time>2026-04-25T11:33:34.334Z</time></trkpt><trkpt lat="43.2372473" lon="12.8325432"><ele>1261.0</ele><time>2026-04-25T11:33:35.329Z</time></trkpt><trkpt lat="43.237152" lon="12.8325081"><ele>1258.0</ele><time>2026-04-25T11:33:36.336Z</time></trkpt><trkpt lat="43.2370577" lon="12.8324787"><ele>1255.0</ele><time>2026-04-25T11:33:37.338Z</time></trkpt><trkpt lat="43.2369622" lon="12.8324567"><ele>1252.0</ele><time>2026-04-25T11:33:38.327Z</time></trkpt><trkpt lat="43.2368653" lon="12.8324427"><ele>1252.0</ele><time>2026-04-25T11:33:39.339Z</time></trkpt><trkpt lat="43.236768" lon="12.8324378"><ele>1252.0</ele><time>2026-04-25T11:33:40.338Z</time></trkpt><trkpt lat="43.2366722" lon="12.8324427"><ele>1252.0</ele><time>2026-04-25T11:33:41.329Z</time></trkpt><trkpt lat="43.2365769" lon="12.8324556"><ele>1252.0</ele><time>2026-04-25T11:33:42.334Z</time></trkpt><trkpt lat="43.2364806" lon="12.8324705"><ele>1252.0</ele><time>2026-04-25T11:33:43.336Z</time></trkpt><trkpt lat="43.2363859" lon="12.8324839"><ele>1251.0</ele><time>2026-04-25T11:33:44.336Z</time></trkpt><trkpt lat="43.236291" lon="12.8324955"><ele>1250.0</ele><time>2026-04-25T11:33:45.337Z</time></trkpt><trkpt lat="43.2361966" lon="12.8325082"><ele>1249.0</ele><time>2026-04-25T11:33:46.327Z</time></trkpt><trkpt lat="43.2360995" lon="12.8325228"><ele>1248.0</ele><time>2026-04-25T11:33:47.338Z</time></trkpt><trkpt lat="43.2359989" lon="12.8325397"><ele>1247.0</ele><time>2026-04-25T11:33:48.337Z</time></trkpt><trkpt lat="43.2358981" lon="12.8325579"><ele>1247.0</ele><time>2026-04-25T11:33:49.332Z</time></trkpt><trkpt lat="43.2357959" lon="12.8325759"><ele>1247.0</ele><time>2026-04-25T11:33:50.329Z</time></trkpt><trkpt lat="43.2356927" lon="12.8325944"><ele>1247.0</ele><time>2026-04-25T11:33:51.332Z</time></trkpt><trkpt lat="43.2355877" lon="12.8326124"><ele>1247.0</ele><time>2026-04-25T11:33:52.345Z</time></trkpt><trkpt lat="43.2354827" lon="12.8326291"><ele>1247.0</ele><time>2026-04-25T11:33:53.336Z</time></trkpt><trkpt lat="43.2353778" lon="12.832644"><ele>1241.2</ele><time>2026-04-25T11:33:54.33Z</time></trkpt><trkpt lat="43.2352717" lon="12.832655"><ele>1235.4</ele><time>2026-04-25T11:33:55.337Z</time></trkpt><trkpt lat="43.2351661" lon="12.8326655"><ele>1229.6</ele><time>2026-04-25T11:33:56.335Z</time></trkpt><trkpt lat="43.2350607" lon="12.8326804"><ele>1223.8</ele><time>2026-04-25T11:33:57.335Z</time></trkpt><trkpt lat="43.2349558" lon="12.8326967"><ele>1218.0</ele><time>2026-04-25T11:33:58.328Z</time></trkpt><trkpt lat="43.2348494" lon="12.8327112"><ele>1219.2</ele><time>2026-04-25T11:33:59.336Z</time></trkpt><trkpt lat="43.2347424" lon="12.8327232"><ele>1220.4</ele><time>2026-04-25T11:34:00.338Z</time></trkpt><trkpt lat="43.2346358" lon="12.8327362"><ele>1221.6000000000001</ele><time>2026-04-25T11:34:01.337Z</time></trkpt><trkpt lat="43.2345285" lon="12.8327502"><ele>1222.8</ele><time>2026-04-25T11:34:02.343Z</time></trkpt><trkpt lat="43.2344204" lon="12.8327649"><ele>1224.0</ele><time>2026-04-25T11:34:03.334Z</time></trkpt><trkpt lat="43.2343122" lon="12.8327807"><ele>1224.0</ele><time>2026-04-25T11:34:04.336Z</time></trkpt><trkpt lat="43.2342099" lon="12.8327951"><ele>1224.0</ele><time>2026-04-25T11:34:05.331Z</time></trkpt><trkpt lat="43.2341148" lon="12.8328188"><ele>1224.0</ele><time>2026-04-25T11:34:06.338Z</time></trkpt><trkpt lat="43.2340271" lon="12.8328647"><ele>1224.0</ele><time>2026-04-25T11:34:07.342Z</time></trkpt><trkpt lat="43.2339484" lon="12.8329421"><ele>1224.0</ele><time>2026-04-25T11:34:08.326Z</time></trkpt><trkpt lat="43.2338809" lon="12.8330492"><ele>1227.2</ele><time>2026-04-25T11:34:09.331Z</time></trkpt><trkpt lat="43.2338221" lon="12.833176"><ele>1230.4</ele><time>2026-04-25T11:34:10.33Z</time></trkpt><trkpt lat="43.2337616" lon="12.8333012"><ele>1233.6</ele><time>2026-04-25T11:34:11.338Z</time></trkpt><trkpt lat="43.2336925" lon="12.8334073"><ele>1236.8</ele><time>2026-04-25T11:34:12.327Z</time></trkpt><trkpt lat="43.2336134" lon="12.8335033"><ele>1240.0</ele><time>2026-04-25T11:34:13.335Z</time></trkpt><trkpt lat="43.2335269" lon="12.8335885"><ele>1236.4</ele><time>2026-04-25T11:34:14.338Z</time></trkpt><trkpt lat="43.2334333" lon="12.8336674"><ele>1232.8</ele><time>2026-04-25T11:34:15.324Z</time></trkpt><trkpt lat="43.2333437" lon="12.8337508"><ele>1229.2</ele><time>2026-04-25T11:34:16.33Z</time></trkpt><trkpt lat="43.2332572" lon="12.8338371"><ele>1225.6</ele><time>2026-04-25T11:34:17.333Z</time></trkpt><trkpt lat="43.2331758" lon="12.833923"><ele>1222.0</ele><time>2026-04-25T11:34:18.336Z</time></trkpt><trkpt lat="43.2330994" lon="12.8340076"><ele>1222.0</ele><time>2026-04-25T11:34:19.329Z</time></trkpt><trkpt lat="43.2330267" lon="12.8340927"><ele>1222.0</ele><time>2026-04-25T11:34:20.334Z</time></trkpt><trkpt lat="43.2329576" lon="12.8341756"><ele>1222.0</ele><time>2026-04-25T11:34:21.334Z</time></trkpt><trkpt lat="43.2328918" lon="12.8342547"><ele>1222.0</ele><time>2026-04-25T11:34:22.334Z</time></trkpt><trkpt lat="43.2328221" lon="12.8343324"><ele>1222.0</ele><time>2026-04-25T11:34:23.331Z</time></trkpt><trkpt lat="43.2327407" lon="12.8344067"><ele>1211.75</ele><time>2026-04-25T11:34:24.334Z</time></trkpt><trkpt lat="43.2326471" lon="12.8344736"><ele>1201.5</ele><time>2026-04-25T11:34:25.325Z</time></trkpt><trkpt lat="43.2325406" lon="12.834531"><ele>1191.25</ele><time>2026-04-25T11:34:26.32Z</time></trkpt><trkpt lat="43.232431" lon="12.83459"><ele>1181.0</ele><time>2026-04-25T11:34:27.323Z</time></trkpt><trkpt lat="43.2323266" lon="12.8346573"><ele>1188.5</ele><time>2026-04-25T11:34:28.333Z</time></trkpt><trkpt lat="43.2322273" lon="12.8347319"><ele>1196.0</ele><time>2026-04-25T11:34:29.332Z</time></trkpt><trkpt lat="43.2321351" lon="12.8348149"><ele>1203.5</ele><time>2026-04-25T11:34:30.326Z</time></trkpt><trkpt lat="43.232047" lon="12.8349088"><ele>1211.0</ele><time>2026-04-25T11:34:31.331Z</time></trkpt><trkpt lat="43.2319632" lon="12.8350167"><ele>1205.0</ele><time>2026-04-25T11:34:32.337Z</time></trkpt><trkpt lat="43.2318911" lon="12.8351386"><ele>1199.0</ele><time>2026-04-25T11:34:33.335Z</time></trkpt><trkpt lat="43.2318317" lon="12.8352684"><ele>1193.0</ele><time>2026-04-25T11:34:34.336Z</time></trkpt><trkpt lat="43.2317795" lon="12.8354048"><ele>1187.0</ele><time>2026-04-25T11:34:35.322Z</time></trkpt><trkpt lat="43.2317316" lon="12.8355496"><ele>1187.0</ele><time>2026-04-25T11:34:36.333Z</time></trkpt><trkpt lat="43.2316832" lon="12.8356973"><ele>1187.0</ele><time>2026-04-25T11:34:37.334Z</time></trkpt><trkpt lat="43.2316361" lon="12.835856"><ele>1187.0</ele><time>2026-04-25T11:34:38.325Z</time></trkpt><trkpt lat="43.23159" lon="12.8360142"><ele>1187.0</ele><time>2026-04-25T11:34:39.329Z</time></trkpt><trkpt lat="43.2315434" lon="12.8361665"><ele>1181.75</ele><time>2026-04-25T11:34:40.332Z</time></trkpt><trkpt lat="43.2314994" lon="12.8363164"><ele>1176.5</ele><time>2026-04-25T11:34:41.323Z</time></trkpt><trkpt lat="43.2314575" lon="12.836464"><ele>1171.25</ele><time>2026-04-25T11:34:42.336Z</time></trkpt><trkpt lat="43.2314192" lon="12.8366136"><ele>1166.0</ele><time>2026-04-25T11:34:43.329Z</time></trkpt><trkpt lat="43.2313803" lon="12.8367622"><ele>1169.0</ele><time>2026-04-25T11:34:44.331Z</time></trkpt><trkpt lat="43.2313359" lon="12.8369011"><ele>1172.0</ele><time>2026-04-25T11:34:45.33Z</time></trkpt><trkpt lat="43.2312894" lon="12.8370282"><ele>1175.0</ele><time>2026-04-25T11:34:46.327Z</time></trkpt><trkpt lat="43.2312403" lon="12.8371525"><ele>1178.0</ele><time>2026-04-25T11:34:47.333Z</time></trkpt><trkpt lat="43.2311877" lon="12.8372743"><ele>1181.0</ele><time>2026-04-25T11:34:48.321Z</time></trkpt><trkpt lat="43.2311293" lon="12.8373951"><ele>1181.0</ele><time>2026-04-25T11:34:49.324Z</time></trkpt><trkpt lat="43.2310687" lon="12.8375137"><ele>1181.0</ele><time>2026-04-25T11:34:50.319Z</time></trkpt><trkpt lat="43.2310033" lon="12.8376251"><ele>1181.0</ele><time>2026-04-25T11:34:51.328Z</time></trkpt><trkpt lat="43.2309359" lon="12.8377318"><ele>1181.0</ele><time>2026-04-25T11:34:52.332Z</time></trkpt><trkpt lat="43.230869" lon="12.8378339"><ele>1181.0</ele><time>2026-04-25T11:34:53.323Z</time></trkpt><trkpt lat="43.2307984" lon="12.8379369"><ele>1181.2</ele><time>2026-04-25T11:34:54.323Z</time></trkpt><trkpt lat="43.2307255" lon="12.8380397"><ele>1181.3999999999999</ele><time>2026-04-25T11:34:55.33Z</time></trkpt><trkpt lat="43.2306533" lon="12.8381426"><ele>1181.6</ele><time>2026-04-25T11:34:56.326Z</time></trkpt><trkpt lat="43.2305837" lon="12.8382476"><ele>1181.8</ele><time>2026-04-25T11:34:57.331Z</time></trkpt><trkpt lat="43.2305181" lon="12.8383556"><ele>1182.0</ele><time>2026-04-25T11:34:58.331Z</time></trkpt><trkpt lat="43.2304568" lon="12.8384657"><ele>1174.8</ele><time>2026-04-25T11:34:59.327Z</time></trkpt><trkpt lat="43.2303961" lon="12.8385782"><ele>1167.6</ele><time>2026-04-25T11:35:00.332Z</time></trkpt><trkpt lat="43.2303339" lon="12.8386892"><ele>1160.3999999999999</ele><time>2026-04-25T11:35:01.326Z</time></trkpt><trkpt lat="43.2302669" lon="12.8388006"><ele>1153.2</ele><time>2026-04-25T11:35:02.337Z</time></trkpt><trkpt lat="43.2301955" lon="12.8389083"><ele>1146.0</ele><time>2026-04-25T11:35:03.326Z</time></trkpt><trkpt lat="43.2301215" lon="12.8390104"><ele>1146.0</ele><time>2026-04-25T11:35:04.33Z</time></trkpt><trkpt lat="43.2300457" lon="12.8391009"><ele>1146.0</ele><time>2026-04-25T11:35:05.334Z</time></trkpt><trkpt lat="43.2299659" lon="12.8391785"><ele>1146.0</ele><time>2026-04-25T11:35:06.333Z</time></trkpt><trkpt lat="43.2298842" lon="12.8392416"><ele>1146.0</ele><time>2026-04-25T11:35:07.322Z</time></trkpt><trkpt lat="43.2297966" lon="12.8392904"><ele>1146.0</ele><time>2026-04-25T11:35:08.332Z</time></trkpt><trkpt lat="43.2297039" lon="12.8393243"><ele>1144.2</ele><time>2026-04-25T11:35:09.33Z</time></trkpt><trkpt lat="43.2296095" lon="12.8393506"><ele>1142.3999999999999</ele><time>2026-04-25T11:35:10.332Z</time></trkpt><trkpt lat="43.2295173" lon="12.8393797"><ele>1140.6</ele><time>2026-04-25T11:35:11.333Z</time></trkpt><trkpt lat="43.2294272" lon="12.8394132"><ele>1138.8</ele><time>2026-04-25T11:35:12.334Z</time></trkpt><trkpt lat="43.2293437" lon="12.839454"><ele>1137.0</ele><time>2026-04-25T11:35:13.333Z</time></trkpt><trkpt lat="43.2292644" lon="12.8395049"><ele>1137.0</ele><time>2026-04-25T11:35:14.323Z</time></trkpt><trkpt lat="43.2291941" lon="12.839572"><ele>1137.0</ele><time>2026-04-25T11:35:15.327Z</time></trkpt><trkpt lat="43.229133" lon="12.8396648"><ele>1137.0</ele><time>2026-04-25T11:35:16.336Z</time></trkpt><trkpt lat="43.2290827" lon="12.8397795"><ele>1137.0</ele><time>2026-04-25T11:35:17.335Z</time></trkpt><trkpt lat="43.2290412" lon="12.8399177"><ele>1137.0</ele><time>2026-04-25T11:35:18.333Z</time></trkpt><trkpt lat="43.2290016" lon="12.8400646"><ele>1140.5</ele><time>2026-04-25T11:35:19.325Z</time></trkpt><trkpt lat="43.2289581" lon="12.8402096"><ele>1144.0</ele><time>2026-04-25T11:35:20.328Z</time></trkpt><trkpt lat="43.2289072" lon="12.8403504"><ele>1147.5</ele><time>2026-04-25T11:35:21.323Z</time></trkpt><trkpt lat="43.2288528" lon="12.8404904"><ele>1151.0</ele><time>2026-04-25T11:35:22.327Z</time></trkpt><trkpt lat="43.2288005" lon="12.8406272"><ele>1151.0</ele><time>2026-04-25T11:35:23.33Z</time></trkpt><trkpt lat="43.22875" lon="12.8407582"><ele>1151.0</ele><time>2026-04-25T11:35:24.33Z</time></trkpt><trkpt lat="43.2287056" lon="12.8408913"><ele>1151.0</ele><time>2026-04-25T11:35:25.328Z</time></trkpt><trkpt lat="43.2286641" lon="12.8410332"><ele>1151.0</ele><time>2026-04-25T11:35:26.329Z</time></trkpt><trkpt lat="43.228622" lon="12.8411789"><ele>1151.0</ele><time>2026-04-25T11:35:27.329Z</time></trkpt><trkpt lat="43.2285795" lon="12.8413298"><ele>1146.0</ele><time>2026-04-25T11:35:28.333Z</time></trkpt><trkpt lat="43.2285383" lon="12.8414841"><ele>1141.0</ele><time>2026-04-25T11:35:29.328Z</time></trkpt><trkpt lat="43.2284956" lon="12.8416406"><ele>1136.0</ele><time>2026-04-25T11:35:30.339Z</time></trkpt><trkpt lat="43.228445" lon="12.841795"><ele>1131.0</ele><time>2026-04-25T11:35:31.325Z</time></trkpt><trkpt lat="43.2283901" lon="12.8419496"><ele>1127.3999999999999</ele><time>2026-04-25T11:35:32.335Z</time></trkpt><trkpt lat="43.2283409" lon="12.8420989"><ele>1123.8</ele><time>2026-04-25T11:35:33.326Z</time></trkpt><trkpt lat="43.2282954" lon="12.8422461"><ele>1120.1999999999998</ele><time>2026-04-25T11:35:34.332Z</time></trkpt><trkpt lat="43.2282574" lon="12.8423844"><ele>1116.6</ele><time>2026-04-25T11:35:35.332Z</time></trkpt><trkpt lat="43.2282247" lon="12.8425084"><ele>1113.0</ele><time>2026-04-25T11:35:36.322Z</time></trkpt><trkpt lat="43.2281948" lon="12.8426218"><ele>1109.5</ele><time>2026-04-25T11:35:37.333Z</time></trkpt><trkpt lat="43.2281646" lon="12.8427255"><ele>1106.0</ele><time>2026-04-25T11:35:38.334Z</time></trkpt><trkpt lat="43.2281343" lon="12.8428227"><ele>1102.5</ele><time>2026-04-25T11:35:39.331Z</time></trkpt><trkpt lat="43.2281044" lon="12.8429092"><ele>1099.0</ele><time>2026-04-25T11:35:40.325Z</time></trkpt><trkpt lat="43.2280809" lon="12.8430516"><ele>1095.5</ele><time>2026-04-25T11:35:42.331Z</time></trkpt><trkpt lat="43.228139" lon="12.843087"><ele>1092.0</ele><time>2026-04-25T11:35:44.325Z</time></trkpt><trkpt lat="43.2282343" lon="12.842999"><ele>1092.0</ele><time>2026-04-25T11:35:46.324Z</time></trkpt><trkpt lat="43.2282897" lon="12.8428893"><ele>1092.0</ele><time>2026-04-25T11:35:47.322Z</time></trkpt><trkpt lat="43.2283507" lon="12.8427614"><ele>1092.0</ele><time>2026-04-25T11:35:48.327Z</time></trkpt><trkpt lat="43.2284178" lon="12.8426379"><ele>1092.0</ele><time>2026-04-25T11:35:49.328Z</time></trkpt><trkpt lat="43.2284938" lon="12.8425276"><ele>1092.0</ele><time>2026-04-25T11:35:50.333Z</time></trkpt><trkpt lat="43.2285747" lon="12.8424262"><ele>1097.25</ele><time>2026-04-25T11:35:51.338Z</time></trkpt><trkpt lat="43.2286577" lon="12.8423269"><ele>1102.5</ele><time>2026-04-25T11:35:52.325Z</time></trkpt><trkpt lat="43.2287409" lon="12.8422289"><ele>1107.75</ele><time>2026-04-25T11:35:53.329Z</time></trkpt><trkpt lat="43.2288281" lon="12.8421275"><ele>1113.0</ele><time>2026-04-25T11:35:54.328Z</time></trkpt><trkpt lat="43.2289187" lon="12.8420285"><ele>1107.5</ele><time>2026-04-25T11:35:55.33Z</time></trkpt><trkpt lat="43.2290071" lon="12.8419314"><ele>1102.0</ele><time>2026-04-25T11:35:56.328Z</time></trkpt><trkpt lat="43.2290933" lon="12.8418301"><ele>1096.5</ele><time>2026-04-25T11:35:57.325Z</time></trkpt><trkpt lat="43.2291764" lon="12.8417233"><ele>1091.0</ele><time>2026-04-25T11:35:58.332Z</time></trkpt><trkpt lat="43.2292572" lon="12.8416096"><ele>1091.0</ele><time>2026-04-25T11:35:59.33Z</time></trkpt><trkpt lat="43.2293386" lon="12.8414951"><ele>1091.0</ele><time>2026-04-25T11:36:00.328Z</time></trkpt><trkpt lat="43.2294197" lon="12.8413879"><ele>1091.0</ele><time>2026-04-25T11:36:01.331Z</time></trkpt><trkpt lat="43.2295011" lon="12.841283"><ele>1091.0</ele><time>2026-04-25T11:36:02.327Z</time></trkpt><trkpt lat="43.2295821" lon="12.8411787"><ele>1091.0</ele><time>2026-04-25T11:36:03.322Z</time></trkpt><trkpt lat="43.2296604" lon="12.8410784"><ele>1091.0</ele><time>2026-04-25T11:36:04.333Z</time></trkpt><trkpt lat="43.2297378" lon="12.8409868"><ele>1091.0</ele><time>2026-04-25T11:36:05.332Z</time></trkpt><trkpt lat="43.2298161" lon="12.8409099"><ele>1091.0</ele><time>2026-04-25T11:36:06.32Z</time></trkpt><trkpt lat="43.2299073" lon="12.8408546"><ele>1091.0</ele><time>2026-04-25T11:36:07.332Z</time></trkpt><trkpt lat="43.2300195" lon="12.8408274"><ele>1087.0</ele><time>2026-04-25T11:36:08.326Z</time></trkpt><trkpt lat="43.2301392" lon="12.8408162"><ele>1083.0</ele><time>2026-04-25T11:36:09.333Z</time></trkpt><trkpt lat="43.2302594" lon="12.8408196"><ele>1079.0</ele><time>2026-04-25T11:36:10.328Z</time></trkpt><trkpt lat="43.2303749" lon="12.8408256"><ele>1075.0</ele><time>2026-04-25T11:36:11.329Z</time></trkpt><trkpt lat="43.2304863" lon="12.8408296"><ele>1075.0</ele><time>2026-04-25T11:36:12.328Z</time></trkpt><trkpt lat="43.2305929" lon="12.8408213"><ele>1075.0</ele><time>2026-04-25T11:36:13.326Z</time></trkpt><trkpt lat="43.2306964" lon="12.8408116"><ele>1075.0</ele><time>2026-04-25T11:36:14.33Z</time></trkpt><trkpt lat="43.230796" lon="12.8407989"><ele>1075.0</ele><time>2026-04-25T11:36:15.324Z</time></trkpt><trkpt lat="43.2308914" lon="12.8407669"><ele>1075.0</ele><time>2026-04-25T11:36:16.335Z</time></trkpt><trkpt lat="43.230985" lon="12.8407174"><ele>1071.0</ele><time>2026-04-25T11:36:17.328Z</time></trkpt><trkpt lat="43.2310747" lon="12.8406479"><ele>1067.0</ele><time>2026-04-25T11:36:18.334Z</time></trkpt><trkpt lat="43.2311635" lon="12.8405679"><ele>1063.0</ele><time>2026-04-25T11:36:19.334Z</time></trkpt><trkpt lat="43.2312515" lon="12.8404815"><ele>1059.0</ele><time>2026-04-25T11:36:20.332Z</time></trkpt><trkpt lat="43.2313449" lon="12.8403947"><ele>1055.0</ele><time>2026-04-25T11:36:21.332Z</time></trkpt><trkpt lat="43.231436" lon="12.8403003"><ele>1054.2</ele><time>2026-04-25T11:36:22.322Z</time></trkpt><trkpt lat="43.231528" lon="12.8402127"><ele>1053.4</ele><time>2026-04-25T11:36:23.322Z</time></trkpt><trkpt lat="43.2316188" lon="12.840129"><ele>1052.6</ele><time>2026-04-25T11:36:24.328Z</time></trkpt><trkpt lat="43.2317111" lon="12.8400491"><ele>1051.8</ele><time>2026-04-25T11:36:25.329Z</time></trkpt><trkpt lat="43.2318019" lon="12.8399638"><ele>1051.0</ele><time>2026-04-25T11:36:26.333Z</time></trkpt><trkpt lat="43.2318871" lon="12.8398789"><ele>1051.0</ele><time>2026-04-25T11:36:27.337Z</time></trkpt><trkpt lat="43.231974" lon="12.8397819"><ele>1051.0</ele><time>2026-04-25T11:36:28.328Z</time></trkpt><trkpt lat="43.2320593" lon="12.8396717"><ele>1051.0</ele><time>2026-04-25T11:36:29.33Z</time></trkpt><trkpt lat="43.232142" lon="12.8395602"><ele>1051.0</ele><time>2026-04-25T11:36:30.329Z</time></trkpt><trkpt lat="43.2322298" lon="12.8394557"><ele>1047.5</ele><time>2026-04-25T11:36:31.334Z</time></trkpt><trkpt lat="43.2323212" lon="12.8393594"><ele>1044.0</ele><time>2026-04-25T11:36:32.331Z</time></trkpt><trkpt lat="43.2324226" lon="12.8392763"><ele>1040.5</ele><time>2026-04-25T11:36:33.333Z</time></trkpt><trkpt lat="43.2325233" lon="12.8392053"><ele>1037.0</ele><time>2026-04-25T11:36:34.336Z</time></trkpt><trkpt lat="43.2326276" lon="12.8391425"><ele>1037.0</ele><time>2026-04-25T11:36:35.335Z</time></trkpt><trkpt lat="43.2327284" lon="12.839086"><ele>1037.0</ele><time>2026-04-25T11:36:36.335Z</time></trkpt><trkpt lat="43.2328234" lon="12.8390308"><ele>1037.0</ele><time>2026-04-25T11:36:37.337Z</time></trkpt><trkpt lat="43.2329161" lon="12.8389694"><ele>1037.0</ele><time>2026-04-25T11:36:38.329Z</time></trkpt><trkpt lat="43.2330126" lon="12.8388939"><ele>1037.0</ele><time>2026-04-25T11:36:39.322Z</time></trkpt><trkpt lat="43.2331101" lon="12.8388192"><ele>1029.6</ele><time>2026-04-25T11:36:40.321Z</time></trkpt><trkpt lat="43.2332103" lon="12.8387449"><ele>1022.2</ele><time>2026-04-25T11:36:41.332Z</time></trkpt><trkpt lat="43.2333072" lon="12.8386754"><ele>1014.8</ele><time>2026-04-25T11:36:42.331Z</time></trkpt><trkpt lat="43.2334049" lon="12.8386068"><ele>1007.4</ele><time>2026-04-25T11:36:43.323Z</time></trkpt><trkpt lat="43.2335029" lon="12.8385404"><ele>1000.0</ele><time>2026-04-25T11:36:44.329Z</time></trkpt><trkpt lat="43.2335938" lon="12.8384801"><ele>1006.3333333333333</ele><time>2026-04-25T11:36:45.329Z</time></trkpt><trkpt lat="43.2336744" lon="12.838431"><ele>1012.6666666666666</ele><time>2026-04-25T11:36:46.335Z</time></trkpt><trkpt lat="43.2337381" lon="12.8383971"><ele>1019.0</ele><time>2026-04-25T11:36:47.321Z</time></trkpt><trkpt lat="43.2338216" lon="12.8383545"><ele>1025.3333333333333</ele><time>2026-04-25T11:36:49.326Z</time></trkpt><trkpt lat="43.2338828" lon="12.8383214"><ele>1031.6666666666667</ele><time>2026-04-25T11:36:52.331Z</time></trkpt><trkpt lat="43.2339522" lon="12.8383041"><ele>1038.0</ele><time>2026-04-25T11:37:03.335Z</time></trkpt><trkpt lat="43.2338512" lon="12.8383259"><ele>1038.0</ele><time>2026-04-25T11:37:18.328Z</time></trkpt><trkpt lat="43.2337851" lon="12.8383711"><ele>1038.0</ele><time>2026-04-25T11:37:19.327Z</time></trkpt><trkpt lat="43.2337019" lon="12.8384195"><ele>1038.0</ele><time>2026-04-25T11:37:20.342Z</time></trkpt><trkpt lat="43.2336208" lon="12.8384749"><ele>1038.0</ele><time>2026-04-25T11:37:21.334Z</time></trkpt><trkpt lat="43.2335414" lon="12.8385294"><ele>1038.0</ele><time>2026-04-25T11:37:22.342Z</time></trkpt><trkpt lat="43.2334569" lon="12.8385809"><ele>1038.0</ele><time>2026-04-25T11:37:23.341Z</time></trkpt><trkpt lat="43.233369" lon="12.8386378"><ele>1037.8333333333333</ele><time>2026-04-25T11:37:24.331Z</time></trkpt><trkpt lat="43.2332876" lon="12.8386932"><ele>1037.6666666666667</ele><time>2026-04-25T11:37:25.345Z</time></trkpt><trkpt lat="43.2332241" lon="12.8387385"><ele>1037.5</ele><time>2026-04-25T11:37:26.339Z</time></trkpt><trkpt lat="43.23315" lon="12.8387903"><ele>1037.3333333333335</ele><time>2026-04-25T11:37:37.33Z</time></trkpt><trkpt lat="43.2330513" lon="12.8388713"><ele>1037.1666666666667</ele><time>2026-04-25T11:37:39.344Z</time></trkpt><trkpt lat="43.2329886" lon="12.8389216"><ele>1037.0</ele><time>2026-04-25T11:37:40.323Z</time></trkpt><trkpt lat="43.2329177" lon="12.8389728"><ele>1037.0</ele><time>2026-04-25T11:37:41.333Z</time></trkpt><trkpt lat="43.2328456" lon="12.8390246"><ele>1037.0</ele><time>2026-04-25T11:37:42.342Z</time></trkpt><trkpt lat="43.2327709" lon="12.83907"><ele>1037.0</ele><time>2026-04-25T11:37:43.339Z</time></trkpt><trkpt lat="43.2326987" lon="12.8391121"><ele>1037.0</ele><time>2026-04-25T11:37:44.336Z</time></trkpt><trkpt lat="43.2326273" lon="12.8391544"><ele>1037.0</ele><time>2026-04-25T11:37:45.332Z</time></trkpt><trkpt lat="43.2325566" lon="12.8391986"><ele>1037.0</ele><time>2026-04-25T11:37:46.333Z</time></trkpt><trkpt lat="43.2324892" lon="12.8392445"><ele>1037.0</ele><time>2026-04-25T11:37:47.33Z</time></trkpt><trkpt lat="43.2324227" lon="12.8392948"><ele>1037.0</ele><time>2026-04-25T11:37:48.34Z</time></trkpt><trkpt lat="43.2323581" lon="12.8393502"><ele>1037.0</ele><time>2026-04-25T11:37:49.334Z</time></trkpt><trkpt lat="43.2322921" lon="12.8394101"><ele>1037.0</ele><time>2026-04-25T11:37:50.339Z</time></trkpt><trkpt lat="43.2322263" lon="12.8394732"><ele>1037.0</ele><time>2026-04-25T11:37:51.346Z</time></trkpt><trkpt lat="43.2321612" lon="12.8395425"><ele>1037.0</ele><time>2026-04-25T11:37:52.337Z</time></trkpt><trkpt lat="43.232094" lon="12.8396164"><ele>1039.3333333333335</ele><time>2026-04-25T11:37:53.332Z</time></trkpt><trkpt lat="43.2320242" lon="12.8396936"><ele>1041.6666666666667</ele><time>2026-04-25T11:37:54.339Z</time></trkpt><trkpt lat="43.2319532" lon="12.8397705"><ele>1044.0</ele><time>2026-04-25T11:37:55.331Z</time></trkpt><trkpt lat="43.231881" lon="12.8398453"><ele>1046.3333333333333</ele><time>2026-04-25T11:37:56.339Z</time></trkpt><trkpt lat="43.2318086" lon="12.8399147"><ele>1048.6666666666665</ele><time>2026-04-25T11:37:57.343Z</time></trkpt><trkpt lat="43.2317369" lon="12.8399814"><ele>1051.0</ele><time>2026-04-25T11:37:58.332Z</time></trkpt><trkpt lat="43.2316603" lon="12.84005"><ele>1051.0</ele><time>2026-04-25T11:37:59.339Z</time></trkpt><trkpt lat="43.2315792" lon="12.8401164"><ele>1051.0</ele><time>2026-04-25T11:38:00.336Z</time></trkpt><trkpt lat="43.2314964" lon="12.8401861"><ele>1051.0</ele><time>2026-04-25T11:38:01.334Z</time></trkpt><trkpt lat="43.2314122" lon="12.8402575"><ele>1051.0</ele><time>2026-04-25T11:38:02.329Z</time></trkpt><trkpt lat="43.2313209" lon="12.8403278"><ele>1051.0</ele><time>2026-04-25T11:38:03.33Z</time></trkpt><trkpt lat="43.231225" lon="12.840399"><ele>1051.8</ele><time>2026-04-25T11:38:04.323Z</time></trkpt><trkpt lat="43.2311379" lon="12.8404732"><ele>1052.6</ele><time>2026-04-25T11:38:05.33Z</time></trkpt><trkpt lat="43.2310546" lon="12.8405362"><ele>1053.4</ele><time>2026-04-25T11:38:06.327Z</time></trkpt><trkpt lat="43.2309744" lon="12.8405982"><ele>1054.2</ele><time>2026-04-25T11:38:07.329Z</time></trkpt><trkpt lat="43.230889" lon="12.8406563"><ele>1055.0</ele><time>2026-04-25T11:38:08.328Z</time></trkpt><trkpt lat="43.2307936" lon="12.8407066"><ele>1055.0</ele><time>2026-04-25T11:38:09.327Z</time></trkpt><trkpt lat="43.2306968" lon="12.8407405"><ele>1055.0</ele><time>2026-04-25T11:38:10.329Z</time></trkpt><trkpt lat="43.2305975" lon="12.840758"><ele>1055.0</ele><time>2026-04-25T11:38:11.329Z</time></trkpt><trkpt lat="43.2305015" lon="12.8407591"><ele>1055.0</ele><time>2026-04-25T11:38:12.329Z</time></trkpt><trkpt lat="43.2304155" lon="12.8407497"><ele>1055.0</ele><time>2026-04-25T11:38:13.328Z</time></trkpt><trkpt lat="43.2303312" lon="12.8407329"><ele>1058.3333333333335</ele><time>2026-04-25T11:38:14.327Z</time></trkpt><trkpt lat="43.2302482" lon="12.8407203"><ele>1061.6666666666667</ele><time>2026-04-25T11:38:15.327Z</time></trkpt><trkpt lat="43.2301762" lon="12.8407175"><ele>1065.0</ele><time>2026-04-25T11:38:16.332Z</time></trkpt><trkpt lat="43.2301004" lon="12.840723"><ele>1068.3333333333333</ele><time>2026-04-25T11:38:17.336Z</time></trkpt><trkpt lat="43.2300174" lon="12.8407352"><ele>1071.6666666666665</ele><time>2026-04-25T11:38:18.334Z</time></trkpt><trkpt lat="43.2299364" lon="12.8407604"><ele>1075.0</ele><time>2026-04-25T11:38:19.329Z</time></trkpt><trkpt lat="43.2298584" lon="12.8407987"><ele>1077.6666666666665</ele><time>2026-04-25T11:38:20.328Z</time></trkpt><trkpt lat="43.2297848" lon="12.8408505"><ele>1080.3333333333333</ele><time>2026-04-25T11:38:21.338Z</time></trkpt><trkpt lat="43.2297182" lon="12.8409245"><ele>1083.0</ele><time>2026-04-25T11:38:22.332Z</time></trkpt><trkpt lat="43.2296571" lon="12.8410144"><ele>1085.6666666666667</ele><time>2026-04-25T11:38:23.324Z</time></trkpt><trkpt lat="43.2295972" lon="12.8411027"><ele>1088.3333333333335</ele><time>2026-04-25T11:38:24.325Z</time></trkpt><trkpt lat="43.2295342" lon="12.8411936"><ele>1091.0</ele><time>2026-04-25T11:38:25.33Z</time></trkpt><trkpt lat="43.2294701" lon="12.841283"><ele>1091.0</ele><time>2026-04-25T11:38:26.33Z</time></trkpt><trkpt lat="43.2294104" lon="12.8413637"><ele>1091.0</ele><time>2026-04-25T11:38:27.325Z</time></trkpt><trkpt lat="43.2293654" lon="12.8414283"><ele>1091.0</ele><time>2026-04-25T11:38:28.332Z</time></trkpt><trkpt lat="43.2293329" lon="12.8415448"><ele>1091.0</ele><time>2026-04-25T11:38:30.324Z</time></trkpt><trkpt lat="43.2292904" lon="12.841688"><ele>1091.0</ele><time>2026-04-25T11:38:32.328Z</time></trkpt><trkpt lat="43.2292338" lon="12.8418388"><ele>1087.5714285714284</ele><time>2026-04-25T11:38:34.33Z</time></trkpt><trkpt lat="43.2291997" lon="12.8419167"><ele>1084.142857142857</ele><time>2026-04-25T11:38:35.329Z</time></trkpt><trkpt lat="43.2291623" lon="12.8419983"><ele>1080.7142857142858</ele><time>2026-04-25T11:38:36.326Z</time></trkpt><trkpt lat="43.2291268" lon="12.8420871"><ele>1077.2857142857142</ele><time>2026-04-25T11:38:37.328Z</time></trkpt><trkpt lat="43.2290964" lon="12.8421796"><ele>1073.857142857143</ele><time>2026-04-25T11:38:38.328Z</time></trkpt><trkpt lat="43.2290687" lon="12.8422719"><ele>1070.4285714285713</ele><time>2026-04-25T11:38:39.322Z</time></trkpt><trkpt lat="43.2290436" lon="12.8423697"><ele>1067.0</ele><time>2026-04-25T11:38:40.332Z</time></trkpt><trkpt lat="43.2290153" lon="12.8424689"><ele>1067.0</ele><time>2026-04-25T11:38:41.323Z</time></trkpt><trkpt lat="43.2289873" lon="12.8425767"><ele>1067.0</ele><time>2026-04-25T11:38:42.324Z</time></trkpt><trkpt lat="43.2289599" lon="12.8426914"><ele>1067.0</ele><time>2026-04-25T11:38:43.325Z</time></trkpt><trkpt lat="43.2289353" lon="12.8428071"><ele>1067.0</ele><time>2026-04-25T11:38:44.331Z</time></trkpt><trkpt lat="43.2289158" lon="12.8429234"><ele>1067.0</ele><time>2026-04-25T11:38:45.324Z</time></trkpt><trkpt lat="43.2288985" lon="12.8430499"><ele>1067.0</ele><time>2026-04-25T11:38:46.329Z</time></trkpt><trkpt lat="43.228883" lon="12.8431822"><ele>1070.6</ele><time>2026-04-25T11:38:47.333Z</time></trkpt><trkpt lat="43.228866" lon="12.8433135"><ele>1074.2</ele><time>2026-04-25T11:38:48.329Z</time></trkpt><trkpt lat="43.228854" lon="12.8434464"><ele>1077.8</ele><time>2026-04-25T11:38:49.32Z</time></trkpt><trkpt lat="43.2288516" lon="12.8435805"><ele>1081.4</ele><time>2026-04-25T11:38:50.332Z</time></trkpt><trkpt lat="43.2288586" lon="12.8437134"><ele>1085.0</ele><time>2026-04-25T11:38:51.327Z</time></trkpt><trkpt lat="43.2288712" lon="12.8438383"><ele>1085.0</ele><time>2026-04-25T11:38:52.333Z</time></trkpt><trkpt lat="43.2288903" lon="12.8439585"><ele>1085.0</ele><time>2026-04-25T11:38:53.33Z</time></trkpt><trkpt lat="43.2289142" lon="12.8440789"><ele>1085.0</ele><time>2026-04-25T11:38:54.327Z</time></trkpt><trkpt lat="43.2289438" lon="12.8441952"><ele>1085.0</ele><time>2026-04-25T11:38:55.332Z</time></trkpt><trkpt lat="43.2289838" lon="12.8443085"><ele>1085.0</ele><time>2026-04-25T11:38:56.332Z</time></trkpt><trkpt lat="43.2290343" lon="12.8444181"><ele>1076.2</ele><time>2026-04-25T11:38:57.331Z</time></trkpt><trkpt lat="43.2290848" lon="12.84453"><ele>1067.4</ele><time>2026-04-25T11:38:58.327Z</time></trkpt><trkpt lat="43.2291354" lon="12.8446535"><ele>1058.6</ele><time>2026-04-25T11:38:59.328Z</time></trkpt><trkpt lat="43.229187" lon="12.8447862"><ele>1049.8</ele><time>2026-04-25T11:39:00.329Z</time></trkpt><trkpt lat="43.2292335" lon="12.8449133"><ele>1041.0</ele><time>2026-04-25T11:39:01.328Z</time></trkpt><trkpt lat="43.2292841" lon="12.8450287"><ele>1041.1666666666667</ele><time>2026-04-25T11:39:02.328Z</time></trkpt><trkpt lat="43.2293367" lon="12.8451353"><ele>1041.3333333333333</ele><time>2026-04-25T11:39:03.327Z</time></trkpt><trkpt lat="43.2293914" lon="12.8452333"><ele>1041.5</ele><time>2026-04-25T11:39:04.326Z</time></trkpt><trkpt lat="43.2294444" lon="12.8453198"><ele>1041.6666666666665</ele><time>2026-04-25T11:39:05.319Z</time></trkpt><trkpt lat="43.2294964" lon="12.8454042"><ele>1041.8333333333333</ele><time>2026-04-25T11:39:06.332Z</time></trkpt><trkpt lat="43.2295451" lon="12.8454866"><ele>1042.0</ele><time>2026-04-25T11:39:07.329Z</time></trkpt><trkpt lat="43.2295924" lon="12.8455616"><ele>1042.0</ele><time>2026-04-25T11:39:08.328Z</time></trkpt><trkpt lat="43.2296721" lon="12.8456756"><ele>1042.0</ele><time>2026-04-25T11:39:10.326Z</time></trkpt><trkpt lat="43.2296872" lon="12.8457831"><ele>1042.0</ele><time>2026-04-25T11:39:12.326Z</time></trkpt><trkpt lat="43.2296293" lon="12.8459524"><ele>1042.0</ele><time>2026-04-25T11:39:14.332Z</time></trkpt><trkpt lat="43.2295821" lon="12.8460765"><ele>1042.0</ele><time>2026-04-25T11:39:15.328Z</time></trkpt><trkpt lat="43.2295418" lon="12.8461949"><ele>1039.6</ele><time>2026-04-25T11:39:16.334Z</time></trkpt><trkpt lat="43.2295026" lon="12.8463147"><ele>1037.2</ele><time>2026-04-25T11:39:17.333Z</time></trkpt><trkpt lat="43.2294738" lon="12.8464364"><ele>1034.8</ele><time>2026-04-25T11:39:18.327Z</time></trkpt><trkpt lat="43.2294537" lon="12.8465555"><ele>1032.4</ele><time>2026-04-25T11:39:19.329Z</time></trkpt><trkpt lat="43.2294282" lon="12.8466736"><ele>1030.0</ele><time>2026-04-25T11:39:20.331Z</time></trkpt><trkpt lat="43.2293989" lon="12.8467879"><ele>1024.3333333333333</ele><time>2026-04-25T11:39:21.333Z</time></trkpt><trkpt lat="43.2293638" lon="12.846896"><ele>1018.6666666666666</ele><time>2026-04-25T11:39:22.337Z</time></trkpt><trkpt lat="43.2293263" lon="12.8469981"><ele>1013.0</ele><time>2026-04-25T11:39:23.33Z</time></trkpt><trkpt lat="43.2292932" lon="12.847096"><ele>1007.3333333333333</ele><time>2026-04-25T11:39:24.334Z</time></trkpt><trkpt lat="43.2292539" lon="12.8471852"><ele>1001.6666666666666</ele><time>2026-04-25T11:39:25.331Z</time></trkpt><trkpt lat="43.2292096" lon="12.8472621"><ele>996.0</ele><time>2026-04-25T11:39:26.332Z</time></trkpt><trkpt lat="43.2291572" lon="12.8473291"><ele>996.0</ele><time>2026-04-25T11:39:27.337Z</time></trkpt><trkpt lat="43.2290938" lon="12.847385"><ele>996.0</ele><time>2026-04-25T11:39:28.335Z</time></trkpt><trkpt lat="43.2290247" lon="12.8474348"><ele>996.0</ele><time>2026-04-25T11:39:29.336Z</time></trkpt><trkpt lat="43.2289557" lon="12.8474916"><ele>996.0</ele><time>2026-04-25T11:39:30.33Z</time></trkpt><trkpt lat="43.2288882" lon="12.8475544"><ele>996.0</ele><time>2026-04-25T11:39:31.33Z</time></trkpt><trkpt lat="43.2288228" lon="12.8476215"><ele>996.0</ele><time>2026-04-25T11:39:32.334Z</time></trkpt><trkpt lat="43.2287572" lon="12.8476864"><ele>994.5</ele><time>2026-04-25T11:39:33.327Z</time></trkpt><trkpt lat="43.2286913" lon="12.8477487"><ele>993.0</ele><time>2026-04-25T11:39:34.331Z</time></trkpt><trkpt lat="43.2286267" lon="12.8478122"><ele>991.5</ele><time>2026-04-25T11:39:35.326Z</time></trkpt><trkpt lat="43.2285632" lon="12.847873"><ele>990.0</ele><time>2026-04-25T11:39:36.325Z</time></trkpt><trkpt lat="43.2284983" lon="12.847931"><ele>988.5</ele><time>2026-04-25T11:39:37.324Z</time></trkpt><trkpt lat="43.228429" lon="12.8479928"><ele>987.0</ele><time>2026-04-25T11:39:38.326Z</time></trkpt><trkpt lat="43.228357" lon="12.8480571"><ele>987.0</ele><time>2026-04-25T11:39:39.333Z</time></trkpt><trkpt lat="43.2282855" lon="12.8481196"><ele>987.0</ele><time>2026-04-25T11:39:40.327Z</time></trkpt><trkpt lat="43.2282136" lon="12.8481768"><ele>987.0</ele><time>2026-04-25T11:39:41.331Z</time></trkpt><trkpt lat="43.2281405" lon="12.8482294"><ele>987.0</ele><time>2026-04-25T11:39:42.333Z</time></trkpt><trkpt lat="43.2280656" lon="12.8482806"><ele>987.0</ele><time>2026-04-25T11:39:43.337Z</time></trkpt><trkpt lat="43.227986" lon="12.8483319"><ele>987.0</ele><time>2026-04-25T11:39:44.337Z</time></trkpt><trkpt lat="43.2279057" lon="12.8483756"><ele>987.8333333333334</ele><time>2026-04-25T11:39:45.334Z</time></trkpt><trkpt lat="43.2278235" lon="12.8484094"><ele>988.6666666666667</ele><time>2026-04-25T11:39:46.334Z</time></trkpt><trkpt lat="43.2277407" lon="12.8484378"><ele>989.5</ele><time>2026-04-25T11:39:47.325Z</time></trkpt><trkpt lat="43.2276579" lon="12.8484599"><ele>990.3333333333334</ele><time>2026-04-25T11:39:48.335Z</time></trkpt><trkpt lat="43.2275736" lon="12.8484826"><ele>991.1666666666667</ele><time>2026-04-25T11:39:49.327Z</time></trkpt><trkpt lat="43.2274867" lon="12.8485082"><ele>992.0</ele><time>2026-04-25T11:39:50.332Z</time></trkpt><trkpt lat="43.2274006" lon="12.8485313"><ele>984.2</ele><time>2026-04-25T11:39:51.336Z</time></trkpt><trkpt lat="43.2273167" lon="12.8485548"><ele>976.4000000000001</ele><time>2026-04-25T11:39:52.339Z</time></trkpt><trkpt lat="43.2272328" lon="12.8485813"><ele>968.5999999999999</ele><time>2026-04-25T11:39:53.333Z</time></trkpt><trkpt lat="43.2271444" lon="12.8486098"><ele>960.8</ele><time>2026-04-25T11:39:54.334Z</time></trkpt><trkpt lat="43.2270512" lon="12.8486439"><ele>953.0</ele><time>2026-04-25T11:39:55.335Z</time></trkpt><trkpt lat="43.2269548" lon="12.8486811"><ele>953.0</ele><time>2026-04-25T11:39:56.335Z</time></trkpt><trkpt lat="43.2268525" lon="12.8487197"><ele>953.0</ele><time>2026-04-25T11:39:57.333Z</time></trkpt><trkpt lat="43.2267488" lon="12.8487561"><ele>953.0</ele><time>2026-04-25T11:39:58.325Z</time></trkpt><trkpt lat="43.2266436" lon="12.8487911"><ele>953.0</ele><time>2026-04-25T11:39:59.334Z</time></trkpt><trkpt lat="43.2265382" lon="12.8488255"><ele>953.0</ele><time>2026-04-25T11:40:00.334Z</time></trkpt><trkpt lat="43.226437" lon="12.8488614"><ele>953.0</ele><time>2026-04-25T11:40:01.327Z</time></trkpt><trkpt lat="43.2263361" lon="12.8488954"><ele>953.0</ele><time>2026-04-25T11:40:02.333Z</time></trkpt><trkpt lat="43.2262385" lon="12.8489253"><ele>953.0</ele><time>2026-04-25T11:40:03.334Z</time></trkpt><trkpt lat="43.2261443" lon="12.8489475"><ele>953.0</ele><time>2026-04-25T11:40:04.322Z</time></trkpt><trkpt lat="43.2260535" lon="12.8489684"><ele>953.0</ele><time>2026-04-25T11:40:05.33Z</time></trkpt><trkpt lat="43.2259666" lon="12.8489857"><ele>953.0000000000001</ele><time>2026-04-25T11:40:06.331Z</time></trkpt><trkpt lat="43.225876" lon="12.8489965"><ele>953.0</ele><time>2026-04-25T11:40:07.331Z</time></trkpt><trkpt lat="43.2257845" lon="12.849"><ele>953.0</ele><time>2026-04-25T11:40:08.336Z</time></trkpt><trkpt lat="43.2256982" lon="12.8490015"><ele>953.0</ele><time>2026-04-25T11:40:09.337Z</time></trkpt><trkpt lat="43.2256133" lon="12.8490066"><ele>953.0000000000001</ele><time>2026-04-25T11:40:10.327Z</time></trkpt><trkpt lat="43.2255247" lon="12.8490188"><ele>953.0</ele><time>2026-04-25T11:40:11.326Z</time></trkpt><trkpt lat="43.2254336" lon="12.8490407"><ele>953.1666666666667</ele><time>2026-04-25T11:40:12.339Z</time></trkpt><trkpt lat="43.2253478" lon="12.8490713"><ele>953.3333333333334</ele><time>2026-04-25T11:40:13.334Z</time></trkpt><trkpt lat="43.2252683" lon="12.8491141"><ele>953.5</ele><time>2026-04-25T11:40:14.331Z</time></trkpt><trkpt lat="43.2251894" lon="12.8491601"><ele>953.6666666666667</ele><time>2026-04-25T11:40:15.334Z</time></trkpt><trkpt lat="43.2251091" lon="12.8492087"><ele>953.8333333333334</ele><time>2026-04-25T11:40:16.326Z</time></trkpt><trkpt lat="43.2250266" lon="12.8492531"><ele>954.0</ele><time>2026-04-25T11:40:17.334Z</time></trkpt><trkpt lat="43.2249422" lon="12.8492839"><ele>950.6666666666666</ele><time>2026-04-25T11:40:18.332Z</time></trkpt><trkpt lat="43.2248549" lon="12.8493011"><ele>947.3333333333333</ele><time>2026-04-25T11:40:19.323Z</time></trkpt><trkpt lat="43.2247656" lon="12.8493037"><ele>944.0</ele><time>2026-04-25T11:40:20.334Z</time></trkpt><trkpt lat="43.2246839" lon="12.8492969"><ele>940.6666666666666</ele><time>2026-04-25T11:40:21.334Z</time></trkpt><trkpt lat="43.2246105" lon="12.8492717"><ele>937.3333333333333</ele><time>2026-04-25T11:40:22.334Z</time></trkpt><trkpt lat="43.2245426" lon="12.8492234"><ele>934.0</ele><time>2026-04-25T11:40:23.338Z</time></trkpt><trkpt lat="43.2244804" lon="12.8491549"><ele>933.9999999999999</ele><time>2026-04-25T11:40:24.335Z</time></trkpt><trkpt lat="43.2244285" lon="12.8490811"><ele>934.0</ele><time>2026-04-25T11:40:25.334Z</time></trkpt><trkpt lat="43.2243718" lon="12.8490186"><ele>934.0</ele><time>2026-04-25T11:40:26.332Z</time></trkpt><trkpt lat="43.2243088" lon="12.848966"><ele>934.0</ele><time>2026-04-25T11:40:27.335Z</time></trkpt><trkpt lat="43.2242383" lon="12.8489247"><ele>933.9999999999999</ele><time>2026-04-25T11:40:28.325Z</time></trkpt><trkpt lat="43.2241603" lon="12.8488864"><ele>934.0</ele><time>2026-04-25T11:40:29.332Z</time></trkpt><trkpt lat="43.2240768" lon="12.8488472"><ele>934.0</ele><time>2026-04-25T11:40:30.333Z</time></trkpt><trkpt lat="43.2239902" lon="12.8488095"><ele>934.0000000000001</ele><time>2026-04-25T11:40:31.334Z</time></trkpt><trkpt lat="43.2239" lon="12.8487817"><ele>934.0000000000001</ele><time>2026-04-25T11:40:32.335Z</time></trkpt><trkpt lat="43.2238108" lon="12.8487664"><ele>934.0</ele><time>2026-04-25T11:40:33.334Z</time></trkpt><trkpt lat="43.2237213" lon="12.8487632"><ele>934.0</ele><time>2026-04-25T11:40:34.334Z</time></trkpt><trkpt lat="43.2236314" lon="12.8487648"><ele>928.3333333333333</ele><time>2026-04-25T11:40:35.333Z</time></trkpt><trkpt lat="43.2235413" lon="12.8487564"><ele>922.6666666666666</ele><time>2026-04-25T11:40:36.331Z</time></trkpt><trkpt lat="43.2234556" lon="12.848737"><ele>917.0</ele><time>2026-04-25T11:40:37.332Z</time></trkpt><trkpt lat="43.223378" lon="12.8487122"><ele>911.3333333333333</ele><time>2026-04-25T11:40:38.333Z</time></trkpt><trkpt lat="43.2233123" lon="12.8486845"><ele>905.6666666666666</ele><time>2026-04-25T11:40:39.32Z</time></trkpt><trkpt lat="43.2232239" lon="12.8486347"><ele>900.0</ele><time>2026-04-25T11:40:41.328Z</time></trkpt><trkpt lat="43.2231635" lon="12.8486993"><ele>900.0</ele><time>2026-04-25T11:40:44.335Z</time></trkpt><trkpt lat="43.2232604" lon="12.848784"><ele>900.0</ele><time>2026-04-25T11:40:47.326Z</time></trkpt><trkpt lat="43.2233267" lon="12.8488209"><ele>900.0</ele><time>2026-04-25T11:40:48.33Z</time></trkpt><trkpt lat="43.2233942" lon="12.848868"><ele>900.0</ele><time>2026-04-25T11:40:49.334Z</time></trkpt><trkpt lat="43.2234568" lon="12.8489212"><ele>900.0</ele><time>2026-04-25T11:40:50.323Z</time></trkpt><trkpt lat="43.2235203" lon="12.8489754"><ele>900.0</ele><time>2026-04-25T11:40:51.334Z</time></trkpt><trkpt lat="43.2235881" lon="12.8490276"><ele>900.0</ele><time>2026-04-25T11:40:52.324Z</time></trkpt><trkpt lat="43.2236568" lon="12.8490755"><ele>900.0</ele><time>2026-04-25T11:40:53.323Z</time></trkpt><trkpt lat="43.2237226" lon="12.8491227"><ele>900.0</ele><time>2026-04-25T11:40:54.334Z</time></trkpt><trkpt lat="43.2237745" lon="12.8491746"><ele>900.0</ele><time>2026-04-25T11:40:55.325Z</time></trkpt><trkpt lat="43.2238225" lon="12.8492924"><ele>900.0</ele><time>2026-04-25T11:40:57.323Z</time></trkpt><trkpt lat="43.223777" lon="12.8493623"><ele>900.0</ele><time>2026-04-25T11:40:59.323Z</time></trkpt><trkpt lat="43.2236773" lon="12.8493015"><ele>900.0</ele><time>2026-04-25T11:41:01.336Z</time></trkpt><trkpt lat="43.2236107" lon="12.8492418"><ele>900.0</ele><time>2026-04-25T11:41:02.327Z</time></trkpt><trkpt lat="43.2235334" lon="12.8491933"><ele>900.0</ele><time>2026-04-25T11:41:03.322Z</time></trkpt><trkpt lat="43.2234464" lon="12.8491623"><ele>900.0</ele><time>2026-04-25T11:41:04.334Z</time></trkpt><trkpt lat="43.2233582" lon="12.8491423"><ele>900.0</ele><time>2026-04-25T11:41:05.332Z</time></trkpt><trkpt lat="43.2232813" lon="12.8491234"><ele>900.0</ele><time>2026-04-25T11:41:06.321Z</time></trkpt><trkpt lat="43.2232144" lon="12.8490953"><ele>900.0</ele><time>2026-04-25T11:41:07.336Z</time></trkpt><trkpt lat="43.2231523" lon="12.8490584"><ele>900.0</ele><time>2026-04-25T11:41:08.327Z</time></trkpt><trkpt lat="43.2230858" lon="12.8490134"><ele>900.0</ele><time>2026-04-25T11:41:09.332Z</time></trkpt><trkpt lat="43.2230208" lon="12.8489539"><ele>900.0</ele><time>2026-04-25T11:41:10.327Z</time></trkpt><trkpt lat="43.22296" lon="12.8488924"><ele>900.0</ele><time>2026-04-25T11:41:11.325Z</time></trkpt><trkpt lat="43.2229058" lon="12.8488366"><ele>900.0</ele><time>2026-04-25T11:41:12.327Z</time></trkpt><trkpt lat="43.2228012" lon="12.8487843"><ele>901.1666666666666</ele><time>2026-04-25T11:41:14.331Z</time></trkpt><trkpt lat="43.2227034" lon="12.8488358"><ele>902.3333333333333</ele><time>2026-04-25T11:41:16.33Z</time></trkpt><trkpt lat="43.2226453" lon="12.8488963"><ele>903.5</ele><time>2026-04-25T11:41:17.334Z</time></trkpt><trkpt lat="43.2225877" lon="12.8489852"><ele>904.6666666666666</ele><time>2026-04-25T11:41:18.331Z</time></trkpt><trkpt lat="43.2225328" lon="12.8490608"><ele>905.8333333333333</ele><time>2026-04-25T11:41:19.329Z</time></trkpt><trkpt lat="43.222473" lon="12.8491267"><ele>907.0</ele><time>2026-04-25T11:41:20.327Z</time></trkpt><trkpt lat="43.2224046" lon="12.8491988"><ele>906.9999999999999</ele><time>2026-04-25T11:41:21.324Z</time></trkpt><trkpt lat="43.2223401" lon="12.8492736"><ele>907.0</ele><time>2026-04-25T11:41:22.318Z</time></trkpt><trkpt lat="43.2222838" lon="12.8493552"><ele>907.0</ele><time>2026-04-25T11:41:23.33Z</time></trkpt><trkpt lat="43.2222396" lon="12.8494426"><ele>907.0</ele><time>2026-04-25T11:41:24.33Z</time></trkpt><trkpt lat="43.2222057" lon="12.8495335"><ele>906.9999999999999</ele><time>2026-04-25T11:41:25.33Z</time></trkpt><trkpt lat="43.222193" lon="12.8496246"><ele>907.0</ele><time>2026-04-25T11:41:26.327Z</time></trkpt><trkpt lat="43.2222046" lon="12.8497287"><ele>902.3333333333333</ele><time>2026-04-25T11:41:27.322Z</time></trkpt><trkpt lat="43.2222248" lon="12.8498309"><ele>897.6666666666666</ele><time>2026-04-25T11:41:28.322Z</time></trkpt><trkpt lat="43.2222383" lon="12.8499222"><ele>893.0</ele><time>2026-04-25T11:41:29.323Z</time></trkpt><trkpt lat="43.2221862" lon="12.8500791"><ele>888.3333333333333</ele><time>2026-04-25T11:41:31.335Z</time></trkpt><trkpt lat="43.222141" lon="12.85016"><ele>883.6666666666666</ele><time>2026-04-25T11:41:32.327Z</time></trkpt><trkpt lat="43.2220881" lon="12.8502322"><ele>879.0</ele><time>2026-04-25T11:41:33.333Z</time></trkpt><trkpt lat="43.2220214" lon="12.8502909"><ele>870.4000000000001</ele><time>2026-04-25T11:41:34.326Z</time></trkpt><trkpt lat="43.2219427" lon="12.850337"><ele>861.8000000000001</ele><time>2026-04-25T11:41:35.325Z</time></trkpt><trkpt lat="43.2218582" lon="12.8503638"><ele>853.2</ele><time>2026-04-25T11:41:36.336Z</time></trkpt><trkpt lat="43.2217693" lon="12.8503856"><ele>844.5999999999999</ele><time>2026-04-25T11:41:37.332Z</time></trkpt><trkpt lat="43.2216753" lon="12.8504049"><ele>836.0</ele><time>2026-04-25T11:41:38.325Z</time></trkpt><trkpt lat="43.2215832" lon="12.8504151"><ele>836.0</ele><time>2026-04-25T11:41:39.335Z</time></trkpt><trkpt lat="43.221484" lon="12.8504241"><ele>836.0</ele><time>2026-04-25T11:41:40.326Z</time></trkpt><trkpt lat="43.2213829" lon="12.8504262"><ele>836.0</ele><time>2026-04-25T11:41:41.335Z</time></trkpt><trkpt lat="43.2212878" lon="12.8504214"><ele>836.0</ele><time>2026-04-25T11:41:42.327Z</time></trkpt><trkpt lat="43.2212031" lon="12.8504082"><ele>836.0</ele><time>2026-04-25T11:41:43.335Z</time></trkpt><trkpt lat="43.2211277" lon="12.8503892"><ele>833.0</ele><time>2026-04-25T11:41:44.332Z</time></trkpt><trkpt lat="43.2210504" lon="12.8503755"><ele>830.0</ele><time>2026-04-25T11:41:45.33Z</time></trkpt><trkpt lat="43.2209806" lon="12.8503608"><ele>827.0</ele><time>2026-04-25T11:41:46.336Z</time></trkpt><trkpt lat="43.2208723" lon="12.850314"><ele>824.0</ele><time>2026-04-25T11:41:48.326Z</time></trkpt><trkpt lat="43.2207751" lon="12.8501907"><ele>821.0</ele><time>2026-04-25T11:41:50.332Z</time></trkpt><trkpt lat="43.2207242" lon="12.8501209"><ele>825.3333333333334</ele><time>2026-04-25T11:41:51.337Z</time></trkpt><trkpt lat="43.2206725" lon="12.8500568"><ele>829.6666666666667</ele><time>2026-04-25T11:41:52.337Z</time></trkpt><trkpt lat="43.2206165" lon="12.8499965"><ele>834.0</ele><time>2026-04-25T11:41:53.334Z</time></trkpt><trkpt lat="43.2205459" lon="12.8499517"><ele>838.3333333333333</ele><time>2026-04-25T11:41:54.332Z</time></trkpt><trkpt lat="43.2204616" lon="12.849923"><ele>842.6666666666666</ele><time>2026-04-25T11:41:55.334Z</time></trkpt><trkpt lat="43.2203692" lon="12.8499065"><ele>847.0</ele><time>2026-04-25T11:41:56.324Z</time></trkpt><trkpt lat="43.22027" lon="12.8499"><ele>846.9999999999999</ele><time>2026-04-25T11:41:57.322Z</time></trkpt><trkpt lat="43.2201716" lon="12.8499012"><ele>847.0</ele><time>2026-04-25T11:41:58.329Z</time></trkpt><trkpt lat="43.2200833" lon="12.8499095"><ele>847.0</ele><time>2026-04-25T11:41:59.335Z</time></trkpt><trkpt lat="43.2200041" lon="12.8499166"><ele>847.0</ele><time>2026-04-25T11:42:00.328Z</time></trkpt><trkpt lat="43.2199338" lon="12.8499166"><ele>846.9999999999999</ele><time>2026-04-25T11:42:01.33Z</time></trkpt><trkpt lat="43.2198692" lon="12.8499199"><ele>847.0</ele><time>2026-04-25T11:42:02.328Z</time></trkpt><trkpt lat="43.2198003" lon="12.8499345"><ele>844.6666666666666</ele><time>2026-04-25T11:42:03.324Z</time></trkpt><trkpt lat="43.2197378" lon="12.84998"><ele>842.3333333333333</ele><time>2026-04-25T11:42:04.33Z</time></trkpt><trkpt lat="43.2196862" lon="12.8500595"><ele>840.0</ele><time>2026-04-25T11:42:05.328Z</time></trkpt><trkpt lat="43.2196382" lon="12.8501502"><ele>837.6666666666667</ele><time>2026-04-25T11:42:06.328Z</time></trkpt><trkpt lat="43.2195898" lon="12.8502499"><ele>835.3333333333334</ele><time>2026-04-25T11:42:07.324Z</time></trkpt><trkpt lat="43.2195465" lon="12.8503598"><ele>833.0</ele><time>2026-04-25T11:42:08.325Z</time></trkpt><trkpt lat="43.219517" lon="12.8504589"><ele>833.0</ele><time>2026-04-25T11:42:09.33Z</time></trkpt><trkpt lat="43.219497" lon="12.8505549"><ele>833.0</ele><time>2026-04-25T11:42:10.326Z</time></trkpt><trkpt lat="43.2194756" lon="12.8506499"><ele>833.0</ele><time>2026-04-25T11:42:11.321Z</time></trkpt><trkpt lat="43.2194468" lon="12.8507475"><ele>833.0</ele><time>2026-04-25T11:42:12.329Z</time></trkpt><trkpt lat="43.2194015" lon="12.8508275"><ele>833.0</ele><time>2026-04-25T11:42:13.334Z</time></trkpt><trkpt lat="43.2193402" lon="12.8508929"><ele>833.0</ele><time>2026-04-25T11:42:14.329Z</time></trkpt><trkpt lat="43.2192883" lon="12.8509568"><ele>833.0</ele><time>2026-04-25T11:42:15.333Z</time></trkpt><trkpt lat="43.2192525" lon="12.8510296"><ele>827.5000000000001</ele><time>2026-04-25T11:42:16.331Z</time></trkpt><trkpt lat="43.2192357" lon="12.8511261"><ele>822.0</ele><time>2026-04-25T11:42:17.326Z</time></trkpt><trkpt lat="43.219223" lon="12.8512516"><ele>816.5</ele><time>2026-04-25T11:42:18.33Z</time></trkpt><trkpt lat="43.2192042" lon="12.8513697"><ele>811.0</ele><time>2026-04-25T11:42:19.333Z</time></trkpt><trkpt lat="43.219174" lon="12.8514689"><ele>805.5000000000001</ele><time>2026-04-25T11:42:20.33Z</time></trkpt><trkpt lat="43.2191215" lon="12.8515517"><ele>800.0</ele><time>2026-04-25T11:42:21.33Z</time></trkpt><trkpt lat="43.2190552" lon="12.8516163"><ele>797.6666666666667</ele><time>2026-04-25T11:42:22.334Z</time></trkpt><trkpt lat="43.2189765" lon="12.8516736"><ele>795.3333333333334</ele><time>2026-04-25T11:42:23.334Z</time></trkpt><trkpt lat="43.218892" lon="12.851725"><ele>793.0</ele><time>2026-04-25T11:42:24.327Z</time></trkpt><trkpt lat="43.2188082" lon="12.8517716"><ele>790.6666666666667</ele><time>2026-04-25T11:42:25.332Z</time></trkpt><trkpt lat="43.2187274" lon="12.8518161"><ele>788.3333333333334</ele><time>2026-04-25T11:42:26.334Z</time></trkpt><trkpt lat="43.2186495" lon="12.8518667"><ele>786.0</ele><time>2026-04-25T11:42:27.335Z</time></trkpt><trkpt lat="43.2185725" lon="12.8519273"><ele>786.0</ele><time>2026-04-25T11:42:28.327Z</time></trkpt><trkpt lat="43.2184934" lon="12.8519931"><ele>786.0</ele><time>2026-04-25T11:42:29.331Z</time></trkpt><trkpt lat="43.2184134" lon="12.852058"><ele>786.0</ele><time>2026-04-25T11:42:30.327Z</time></trkpt><trkpt lat="43.2183312" lon="12.8521172"><ele>786.0</ele><time>2026-04-25T11:42:31.333Z</time></trkpt><trkpt lat="43.2182497" lon="12.8521753"><ele>786.0</ele><time>2026-04-25T11:42:32.333Z</time></trkpt><trkpt lat="43.2181728" lon="12.8522389"><ele>786.1428571428572</ele><time>2026-04-25T11:42:33.33Z</time></trkpt><trkpt lat="43.2181023" lon="12.8523032"><ele>786.2857142857143</ele><time>2026-04-25T11:42:34.331Z</time></trkpt><trkpt lat="43.2180326" lon="12.8523593"><ele>786.4285714285714</ele><time>2026-04-25T11:42:35.33Z</time></trkpt><trkpt lat="43.2179632" lon="12.8523975"><ele>786.5714285714287</ele><time>2026-04-25T11:42:36.334Z</time></trkpt><trkpt lat="43.2178984" lon="12.8524154"><ele>786.7142857142857</ele><time>2026-04-25T11:42:37.336Z</time></trkpt><trkpt lat="43.2178337" lon="12.8524143"><ele>786.8571428571429</ele><time>2026-04-25T11:42:38.333Z</time></trkpt><trkpt lat="43.2177649" lon="12.8524033"><ele>787.0</ele><time>2026-04-25T11:42:39.33Z</time></trkpt><trkpt lat="43.2176952" lon="12.8523973"><ele>786.9999999999999</ele><time>2026-04-25T11:42:40.336Z</time></trkpt><trkpt lat="43.2176267" lon="12.8524074"><ele>787.0</ele><time>2026-04-25T11:42:41.335Z</time></trkpt><trkpt lat="43.2175596" lon="12.8524389"><ele>787.0</ele><time>2026-04-25T11:42:42.325Z</time></trkpt><trkpt lat="43.2174876" lon="12.852492"><ele>787.0</ele><time>2026-04-25T11:42:43.335Z</time></trkpt><trkpt lat="43.217419" lon="12.8525541"><ele>786.9999999999999</ele><time>2026-04-25T11:42:44.333Z</time></trkpt><trkpt lat="43.2173539" lon="12.8526128"><ele>787.0</ele><time>2026-04-25T11:42:45.335Z</time></trkpt><trkpt lat="43.2172879" lon="12.8526612"><ele>781.0</ele><time>2026-04-25T11:42:46.33Z</time></trkpt><trkpt lat="43.21721" lon="12.8526998"><ele>775.0</ele><time>2026-04-25T11:42:47.33Z</time></trkpt><trkpt lat="43.2171236" lon="12.8527219"><ele>769.0</ele><time>2026-04-25T11:42:48.335Z</time></trkpt><trkpt lat="43.2170237" lon="12.852731"><ele>763.0</ele><time>2026-04-25T11:42:49.328Z</time></trkpt><trkpt lat="43.2169099" lon="12.8527335"><ele>757.0</ele><time>2026-04-25T11:42:50.335Z</time></trkpt><trkpt lat="43.2167886" lon="12.8527367"><ele>757.0</ele><time>2026-04-25T11:42:51.332Z</time></trkpt><trkpt lat="43.216665" lon="12.8527434"><ele>757.0</ele><time>2026-04-25T11:42:52.336Z</time></trkpt><trkpt lat="43.2165447" lon="12.8527556"><ele>757.0</ele><time>2026-04-25T11:42:53.334Z</time></trkpt><trkpt lat="43.2164293" lon="12.8527677"><ele>757.0</ele><time>2026-04-25T11:42:54.327Z</time></trkpt><trkpt lat="43.2163201" lon="12.8527761"><ele>754.4000000000001</ele><time>2026-04-25T11:42:55.329Z</time></trkpt><trkpt lat="43.2162172" lon="12.8527786"><ele>751.8000000000001</ele><time>2026-04-25T11:42:56.335Z</time></trkpt><trkpt lat="43.2161166" lon="12.8527716"><ele>749.2</ele><time>2026-04-25T11:42:57.335Z</time></trkpt><trkpt lat="43.2160191" lon="12.8527494"><ele>746.6</ele><time>2026-04-25T11:42:58.335Z</time></trkpt><trkpt lat="43.2159273" lon="12.852714"><ele>744.0</ele><time>2026-04-25T11:42:59.327Z</time></trkpt><trkpt lat="43.2158422" lon="12.852661"><ele>745.0</ele><time>2026-04-25T11:43:00.336Z</time></trkpt><trkpt lat="43.2157676" lon="12.8525973"><ele>746.0</ele><time>2026-04-25T11:43:01.337Z</time></trkpt><trkpt lat="43.2157061" lon="12.8525283"><ele>747.0</ele><time>2026-04-25T11:43:02.328Z</time></trkpt><trkpt lat="43.2156511" lon="12.852472"><ele>748.0</ele><time>2026-04-25T11:43:03.331Z</time></trkpt><trkpt lat="43.2155904" lon="12.8524461"><ele>749.0</ele><time>2026-04-25T11:43:04.334Z</time></trkpt><trkpt lat="43.2155153" lon="12.852448"><ele>750.0</ele><time>2026-04-25T11:43:05.337Z</time></trkpt><trkpt lat="43.2154322" lon="12.8524505"><ele>750.0</ele><time>2026-04-25T11:43:06.335Z</time></trkpt><trkpt lat="43.2153445" lon="12.8524499"><ele>750.0</ele><time>2026-04-25T11:43:07.328Z</time></trkpt><trkpt lat="43.2152533" lon="12.8524444"><ele>750.0</ele><time>2026-04-25T11:43:08.333Z</time></trkpt><trkpt lat="43.2151592" lon="12.8524444"><ele>750.0</ele><time>2026-04-25T11:43:09.327Z</time></trkpt><trkpt lat="43.2150641" lon="12.8524675"><ele>750.0</ele><time>2026-04-25T11:43:10.339Z</time></trkpt><trkpt lat="43.2149695" lon="12.8525107"><ele>750.0</ele><time>2026-04-25T11:43:11.332Z</time></trkpt><trkpt lat="43.2148852" lon="12.8525612"><ele>750.0</ele><time>2026-04-25T11:43:12.332Z</time></trkpt><trkpt lat="43.2148147" lon="12.8526078"><ele>750.0</ele><time>2026-04-25T11:43:13.333Z</time></trkpt><trkpt lat="43.2147516" lon="12.8526422"><ele>750.0</ele><time>2026-04-25T11:43:14.326Z</time></trkpt><trkpt lat="43.2146874" lon="12.8526591"><ele>750.0</ele><time>2026-04-25T11:43:15.334Z</time></trkpt><trkpt lat="43.2146155" lon="12.8526631"><ele>750.0</ele><time>2026-04-25T11:43:16.334Z</time></trkpt><trkpt lat="43.2145297" lon="12.8526569"><ele>748.3333333333334</ele><time>2026-04-25T11:43:17.333Z</time></trkpt><trkpt lat="43.2144349" lon="12.8526431"><ele>746.6666666666666</ele><time>2026-04-25T11:43:18.334Z</time></trkpt><trkpt lat="43.2143409" lon="12.8526276"><ele>745.0</ele><time>2026-04-25T11:43:19.333Z</time></trkpt><trkpt lat="43.214255" lon="12.8526077"><ele>743.3333333333333</ele><time>2026-04-25T11:43:20.334Z</time></trkpt><trkpt lat="43.2141825" lon="12.8525797"><ele>741.6666666666666</ele><time>2026-04-25T11:43:21.327Z</time></trkpt><trkpt lat="43.214122" lon="12.8525465"><ele>740.0</ele><time>2026-04-25T11:43:22.333Z</time></trkpt><trkpt lat="43.2140316" lon="12.8525443"><ele>734.6</ele><time>2026-04-25T11:43:24.339Z</time></trkpt><trkpt lat="43.2140356" lon="12.8526489"><ele>729.2</ele><time>2026-04-25T11:43:26.334Z</time></trkpt><trkpt lat="43.2141401" lon="12.8527659"><ele>723.8</ele><time>2026-04-25T11:43:28.333Z</time></trkpt><trkpt lat="43.2142243" lon="12.8528378"><ele>718.4</ele><time>2026-04-25T11:43:29.334Z</time></trkpt><trkpt lat="43.2143143" lon="12.8529143"><ele>713.0</ele><time>2026-04-25T11:43:30.327Z</time></trkpt><trkpt lat="43.2144038" lon="12.8529876"><ele>713.0</ele><time>2026-04-25T11:43:31.337Z</time></trkpt><trkpt lat="43.2144904" lon="12.8530547"><ele>713.0</ele><time>2026-04-25T11:43:32.337Z</time></trkpt><trkpt lat="43.2145703" lon="12.8531152"><ele>713.0</ele><time>2026-04-25T11:43:33.335Z</time></trkpt><trkpt lat="43.2146407" lon="12.8531793"><ele>713.0</ele><time>2026-04-25T11:43:34.334Z</time></trkpt><trkpt lat="43.2146986" lon="12.8532614"><ele>713.0</ele><time>2026-04-25T11:43:35.324Z</time></trkpt><trkpt lat="43.2147394" lon="12.8533636"><ele>713.0</ele><time>2026-04-25T11:43:36.335Z</time></trkpt><trkpt lat="43.2147585" lon="12.8534816"><ele>710.3333333333333</ele><time>2026-04-25T11:43:37.33Z</time></trkpt><trkpt lat="43.2147531" lon="12.8536051"><ele>707.6666666666666</ele><time>2026-04-25T11:43:38.33Z</time></trkpt><trkpt lat="43.2147313" lon="12.8537256"><ele>705.0</ele><time>2026-04-25T11:43:39.338Z</time></trkpt><trkpt lat="43.2147048" lon="12.8538375"><ele>702.3333333333334</ele><time>2026-04-25T11:43:40.335Z</time></trkpt><trkpt lat="43.2146767" lon="12.85394"><ele>699.6666666666667</ele><time>2026-04-25T11:43:41.335Z</time></trkpt><trkpt lat="43.2146421" lon="12.8540336"><ele>697.0</ele><time>2026-04-25T11:43:42.334Z</time></trkpt><trkpt lat="43.2145995" lon="12.8541142"><ele>697.0</ele><time>2026-04-25T11:43:43.333Z</time></trkpt><trkpt lat="43.2145122" lon="12.8542105"><ele>697.0</ele><time>2026-04-25T11:43:45.335Z</time></trkpt><trkpt lat="43.2144896" lon="12.8542924"><ele>697.0</ele><time>2026-04-25T11:43:47.33Z</time></trkpt><trkpt lat="43.2145156" lon="12.8544111"><ele>697.0</ele><time>2026-04-25T11:43:49.326Z</time></trkpt><trkpt lat="43.2145841" lon="12.8545403"><ele>697.0</ele><time>2026-04-25T11:43:51.328Z</time></trkpt><trkpt lat="43.2146917" lon="12.8546569"><ele>696.4000000000001</ele><time>2026-04-25T11:43:53.334Z</time></trkpt><trkpt lat="43.2147683" lon="12.854728"><ele>695.8000000000001</ele><time>2026-04-25T11:43:54.327Z</time></trkpt><trkpt lat="43.2148617" lon="12.8548016"><ele>695.2</ele><time>2026-04-25T11:43:55.327Z</time></trkpt><trkpt lat="43.2149643" lon="12.8548621"><ele>694.6</ele><time>2026-04-25T11:43:56.334Z</time></trkpt><trkpt lat="43.2150692" lon="12.8549235"><ele>694.0</ele><time>2026-04-25T11:43:57.333Z</time></trkpt><trkpt lat="43.215171" lon="12.8549863"><ele>694.0</ele><time>2026-04-25T11:43:58.324Z</time></trkpt><trkpt lat="43.2152618" lon="12.8550508"><ele>694.0</ele><time>2026-04-25T11:43:59.333Z</time></trkpt><trkpt lat="43.2153516" lon="12.8551006"><ele>694.0</ele><time>2026-04-25T11:44:00.322Z</time></trkpt><trkpt lat="43.2154531" lon="12.8551276"><ele>694.0</ele><time>2026-04-25T11:44:01.338Z</time></trkpt><trkpt lat="43.2155566" lon="12.8551497"><ele>694.0</ele><time>2026-04-25T11:44:02.325Z</time></trkpt><trkpt lat="43.2156494" lon="12.8551767"><ele>690.8000000000001</ele><time>2026-04-25T11:44:03.325Z</time></trkpt><trkpt lat="43.2157341" lon="12.8552177"><ele>687.6</ele><time>2026-04-25T11:44:04.336Z</time></trkpt><trkpt lat="43.2158172" lon="12.8552827"><ele>684.4</ele><time>2026-04-25T11:44:05.337Z</time></trkpt><trkpt lat="43.2158992" lon="12.8553838"><ele>681.2</ele><time>2026-04-25T11:44:06.336Z</time></trkpt><trkpt lat="43.2159846" lon="12.8555121"><ele>678.0</ele><time>2026-04-25T11:44:07.356Z</time></trkpt><trkpt lat="43.2160662" lon="12.8556227"><ele>678.0</ele><time>2026-04-25T11:44:08.336Z</time></trkpt><trkpt lat="43.216139" lon="12.8557003"><ele>678.0</ele><time>2026-04-25T11:44:09.329Z</time></trkpt><trkpt lat="43.2161914" lon="12.85576"><ele>678.0</ele><time>2026-04-25T11:44:10.327Z</time></trkpt><trkpt lat="43.2162032" lon="12.8558526"><ele>678.0</ele><time>2026-04-25T11:44:12.337Z</time></trkpt><trkpt lat="43.2160875" lon="12.8558581"><ele>678.0</ele><time>2026-04-25T11:44:14.327Z</time></trkpt><trkpt lat="43.2160074" lon="12.8558278"><ele>678.0</ele><time>2026-04-25T11:44:15.328Z</time></trkpt><trkpt lat="43.2159333" lon="12.8558123"><ele>678.0</ele><time>2026-04-25T11:44:16.336Z</time></trkpt><trkpt lat="43.2158516" lon="12.8558677"><ele>678.0</ele><time>2026-04-25T11:44:18.333Z</time></trkpt><trkpt lat="43.2158893" lon="12.855993"><ele>678.0</ele><time>2026-04-25T11:44:20.335Z</time></trkpt><trkpt lat="43.2159422" lon="12.8560446"><ele>678.0</ele><time>2026-04-25T11:44:21.328Z</time></trkpt><trkpt lat="43.2160042" lon="12.8560841"><ele>678.0</ele><time>2026-04-25T11:44:22.333Z</time></trkpt><trkpt lat="43.2160785" lon="12.8561154"><ele>678.0</ele><time>2026-04-25T11:44:23.325Z</time></trkpt><trkpt lat="43.2161646" lon="12.8561491"><ele>676.2</ele><time>2026-04-25T11:44:24.33Z</time></trkpt><trkpt lat="43.2162539" lon="12.8561908"><ele>674.4</ele><time>2026-04-25T11:44:25.325Z</time></trkpt><trkpt lat="43.2163471" lon="12.8562339"><ele>672.6</ele><time>2026-04-25T11:44:26.331Z</time></trkpt><trkpt lat="43.21644" lon="12.8562741"><ele>670.8000000000001</ele><time>2026-04-25T11:44:27.334Z</time></trkpt><trkpt lat="43.2165271" lon="12.8563099"><ele>669.0</ele><time>2026-04-25T11:44:28.327Z</time></trkpt><trkpt lat="43.2166067" lon="12.8563371"><ele>669.0</ele><time>2026-04-25T11:44:29.328Z</time></trkpt><trkpt lat="43.216681" lon="12.8563644"><ele>669.0</ele><time>2026-04-25T11:44:30.331Z</time></trkpt><trkpt lat="43.2167508" lon="12.856398"><ele>669.0</ele><time>2026-04-25T11:44:31.326Z</time></trkpt><trkpt lat="43.2168189" lon="12.8564442"><ele>669.0</ele><time>2026-04-25T11:44:32.333Z</time></trkpt><trkpt lat="43.2168853" lon="12.8564982"><ele>669.0</ele><time>2026-04-25T11:44:33.324Z</time></trkpt><trkpt lat="43.2169495" lon="12.8565619"><ele>669.0</ele><time>2026-04-25T11:44:34.332Z</time></trkpt><trkpt lat="43.2170146" lon="12.8566272"><ele>669.0</ele><time>2026-04-25T11:44:35.332Z</time></trkpt><trkpt lat="43.2170839" lon="12.8566818"><ele>669.0</ele><time>2026-04-25T11:44:36.333Z</time></trkpt><trkpt lat="43.2171601" lon="12.8567112"><ele>669.0</ele><time>2026-04-25T11:44:37.335Z</time></trkpt><trkpt lat="43.2172358" lon="12.8567128"><ele>669.0</ele><time>2026-04-25T11:44:38.336Z</time></trkpt><trkpt lat="43.2173074" lon="12.8566838"><ele>669.0</ele><time>2026-04-25T11:44:39.333Z</time></trkpt><trkpt lat="43.2173815" lon="12.8566337"><ele>669.0</ele><time>2026-04-25T11:44:40.33Z</time></trkpt><trkpt lat="43.2174544" lon="12.8565738"><ele>668.8000000000001</ele><time>2026-04-25T11:44:41.331Z</time></trkpt><trkpt lat="43.2175278" lon="12.8565169"><ele>668.6</ele><time>2026-04-25T11:44:42.331Z</time></trkpt><trkpt lat="43.2176099" lon="12.8564801"><ele>668.4</ele><time>2026-04-25T11:44:43.334Z</time></trkpt><trkpt lat="43.217705" lon="12.8564804"><ele>668.2</ele><time>2026-04-25T11:44:44.33Z</time></trkpt><trkpt lat="43.2178052" lon="12.8565148"><ele>668.0</ele><time>2026-04-25T11:44:45.331Z</time></trkpt><trkpt lat="43.2179008" lon="12.8565653"><ele>668.0</ele><time>2026-04-25T11:44:46.332Z</time></trkpt><trkpt lat="43.2179924" lon="12.8566179"><ele>668.0</ele><time>2026-04-25T11:44:47.322Z</time></trkpt><trkpt lat="43.2180848" lon="12.8566666"><ele>668.0</ele><time>2026-04-25T11:44:48.333Z</time></trkpt><trkpt lat="43.2181791" lon="12.8567095"><ele>668.0</ele><time>2026-04-25T11:44:49.333Z</time></trkpt><trkpt lat="43.2182765" lon="12.8567452"><ele>668.0</ele><time>2026-04-25T11:44:50.334Z</time></trkpt><trkpt lat="43.2183738" lon="12.8567782"><ele>662.5999999999999</ele><time>2026-04-25T11:44:51.333Z</time></trkpt><trkpt lat="43.2184683" lon="12.8568182"><ele>657.1999999999999</ele><time>2026-04-25T11:44:52.331Z</time></trkpt><trkpt lat="43.2185581" lon="12.8568667"><ele>651.8</ele><time>2026-04-25T11:44:53.332Z</time></trkpt><trkpt lat="43.2186446" lon="12.8569118"><ele>646.4</ele><time>2026-04-25T11:44:54.326Z</time></trkpt><trkpt lat="43.2187315" lon="12.856936"><ele>641.0</ele><time>2026-04-25T11:44:55.336Z</time></trkpt><trkpt lat="43.2188199" lon="12.8569459"><ele>641.0</ele><time>2026-04-25T11:44:56.334Z</time></trkpt><trkpt lat="43.2189096" lon="12.8569515"><ele>641.0</ele><time>2026-04-25T11:44:57.327Z</time></trkpt><trkpt lat="43.2189996" lon="12.8569514"><ele>641.0</ele><time>2026-04-25T11:44:58.329Z</time></trkpt><trkpt lat="43.2190882" lon="12.8569397"><ele>641.0</ele><time>2026-04-25T11:44:59.328Z</time></trkpt><trkpt lat="43.2191754" lon="12.8569118"><ele>641.0</ele><time>2026-04-25T11:45:00.339Z</time></trkpt><trkpt lat="43.2192581" lon="12.8568699"><ele>641.0</ele><time>2026-04-25T11:45:01.336Z</time></trkpt><trkpt lat="43.2193336" lon="12.8568234"><ele>640.6666666666666</ele><time>2026-04-25T11:45:02.329Z</time></trkpt><trkpt lat="43.2194038" lon="12.8567752"><ele>640.3333333333333</ele><time>2026-04-25T11:45:03.328Z</time></trkpt><trkpt lat="43.2194659" lon="12.856733"><ele>640.0</ele><time>2026-04-25T11:45:04.331Z</time></trkpt><trkpt lat="43.2195651" lon="12.8566981"><ele>639.6666666666666</ele><time>2026-04-25T11:45:06.332Z</time></trkpt><trkpt lat="43.2196177" lon="12.8567855"><ele>639.3333333333334</ele><time>2026-04-25T11:45:08.325Z</time></trkpt><trkpt lat="43.2195549" lon="12.8569086"><ele>639.0</ele><time>2026-04-25T11:45:10.333Z</time></trkpt><trkpt lat="43.2194941" lon="12.8569595"><ele>639.0</ele><time>2026-04-25T11:45:11.335Z</time></trkpt><trkpt lat="43.2194214" lon="12.8570209"><ele>639.0</ele><time>2026-04-25T11:45:12.326Z</time></trkpt><trkpt lat="43.2193404" lon="12.8571048"><ele>639.0</ele><time>2026-04-25T11:45:13.332Z</time></trkpt><trkpt lat="43.2192573" lon="12.8572013"><ele>639.0</ele><time>2026-04-25T11:45:14.326Z</time></trkpt><trkpt lat="43.2191768" lon="12.857305"><ele>639.0</ele><time>2026-04-25T11:45:15.329Z</time></trkpt><trkpt lat="43.2190987" lon="12.8574124"><ele>639.0</ele><time>2026-04-25T11:45:16.333Z</time></trkpt><trkpt lat="43.2190224" lon="12.8575192"><ele>639.0</ele><time>2026-04-25T11:45:17.327Z</time></trkpt><trkpt lat="43.2189465" lon="12.8576219"><ele>639.0</ele><time>2026-04-25T11:45:18.332Z</time></trkpt><trkpt lat="43.2188695" lon="12.8577194"><ele>639.0</ele><time>2026-04-25T11:45:19.334Z</time></trkpt><trkpt lat="43.2187916" lon="12.857812"><ele>639.0</ele><time>2026-04-25T11:45:20.327Z</time></trkpt><trkpt lat="43.2187136" lon="12.857902"><ele>636.4</ele><time>2026-04-25T11:45:21.326Z</time></trkpt><trkpt lat="43.2186335" lon="12.8579882"><ele>633.8</ele><time>2026-04-25T11:45:22.331Z</time></trkpt><trkpt lat="43.2185479" lon="12.858069"><ele>631.2</ele><time>2026-04-25T11:45:23.341Z</time></trkpt><trkpt lat="43.2184545" lon="12.8581334"><ele>628.6</ele><time>2026-04-25T11:45:24.333Z</time></trkpt><trkpt lat="43.2183554" lon="12.8581742"><ele>626.0</ele><time>2026-04-25T11:45:25.326Z</time></trkpt><trkpt lat="43.2182577" lon="12.858193"><ele>626.0</ele><time>2026-04-25T11:45:26.326Z</time></trkpt><trkpt lat="43.2181593" lon="12.8581897"><ele>626.0</ele><time>2026-04-25T11:45:27.336Z</time></trkpt><trkpt lat="43.2180603" lon="12.8581704"><ele>626.0</ele><time>2026-04-25T11:45:28.331Z</time></trkpt><trkpt lat="43.2179656" lon="12.858144"><ele>626.0</ele><time>2026-04-25T11:45:29.327Z</time></trkpt><trkpt lat="43.2178745" lon="12.85812"><ele>626.0</ele><time>2026-04-25T11:45:30.328Z</time></trkpt><trkpt lat="43.2178011" lon="12.8581066"><ele>626.2</ele><time>2026-04-25T11:45:31.331Z</time></trkpt><trkpt lat="43.2176997" lon="12.858168"><ele>626.4000000000001</ele><time>2026-04-25T11:45:33.331Z</time></trkpt><trkpt lat="43.2177183" lon="12.85834"><ele>626.6</ele><time>2026-04-25T11:45:35.336Z</time></trkpt><trkpt lat="43.2177714" lon="12.8583976"><ele>626.8000000000001</ele><time>2026-04-25T11:45:36.335Z</time></trkpt><trkpt lat="43.217849" lon="12.8584036"><ele>627.0</ele><time>2026-04-25T11:45:37.338Z</time></trkpt><trkpt lat="43.2179389" lon="12.8583934"><ele>627.0</ele><time>2026-04-25T11:45:38.326Z</time></trkpt><trkpt lat="43.2180404" lon="12.8583924"><ele>627.0</ele><time>2026-04-25T11:45:39.336Z</time></trkpt><trkpt lat="43.2181481" lon="12.858415"><ele>627.0</ele><time>2026-04-25T11:45:40.333Z</time></trkpt><trkpt lat="43.2182575" lon="12.8584691"><ele>627.0</ele><time>2026-04-25T11:45:41.325Z</time></trkpt><trkpt lat="43.2183647" lon="12.8585367"><ele>627.0</ele><time>2026-04-25T11:45:42.338Z</time></trkpt><trkpt lat="43.2184683" lon="12.8585861"><ele>622.4</ele><time>2026-04-25T11:45:43.339Z</time></trkpt><trkpt lat="43.218575" lon="12.8586101"><ele>617.8000000000001</ele><time>2026-04-25T11:45:44.336Z</time></trkpt><trkpt lat="43.2186798" lon="12.8586165"><ele>613.2</ele><time>2026-04-25T11:45:45.335Z</time></trkpt><trkpt lat="43.2187814" lon="12.8586024"><ele>608.6</ele><time>2026-04-25T11:45:46.325Z</time></trkpt><trkpt lat="43.2188813" lon="12.8585599"><ele>604.0</ele><time>2026-04-25T11:45:47.335Z</time></trkpt><trkpt lat="43.2189841" lon="12.8585059"><ele>602.5</ele><time>2026-04-25T11:45:48.334Z</time></trkpt><trkpt lat="43.2190934" lon="12.858453"><ele>601.0</ele><time>2026-04-25T11:45:49.326Z</time></trkpt><trkpt lat="43.219209" lon="12.8584086"><ele>599.5</ele><time>2026-04-25T11:45:50.333Z</time></trkpt><trkpt lat="43.2193272" lon="12.8583753"><ele>598.0</ele><time>2026-04-25T11:45:51.334Z</time></trkpt><trkpt lat="43.2194498" lon="12.8583577"><ele>600.5</ele><time>2026-04-25T11:45:52.332Z</time></trkpt><trkpt lat="43.2195771" lon="12.8583601"><ele>603.0</ele><time>2026-04-25T11:45:53.335Z</time></trkpt><trkpt lat="43.2197062" lon="12.8583761"><ele>605.5</ele><time>2026-04-25T11:45:54.335Z</time></trkpt><trkpt lat="43.2198327" lon="12.8583838"><ele>608.0</ele><time>2026-04-25T11:45:55.331Z</time></trkpt><trkpt lat="43.2199553" lon="12.8583639"><ele>608.0</ele><time>2026-04-25T11:45:56.334Z</time></trkpt><trkpt lat="43.2200737" lon="12.8583196"><ele>608.0</ele><time>2026-04-25T11:45:57.322Z</time></trkpt><trkpt lat="43.2201916" lon="12.8582615"><ele>608.0</ele><time>2026-04-25T11:45:58.33Z</time></trkpt><trkpt lat="43.2203064" lon="12.858196"><ele>608.0</ele><time>2026-04-25T11:45:59.334Z</time></trkpt><trkpt lat="43.2204154" lon="12.8581271"><ele>608.0</ele><time>2026-04-25T11:46:00.335Z</time></trkpt><trkpt lat="43.2205188" lon="12.8580594"><ele>608.0</ele><time>2026-04-25T11:46:01.329Z</time></trkpt><trkpt lat="43.2206224" lon="12.8579985"><ele>608.0</ele><time>2026-04-25T11:46:02.333Z</time></trkpt><trkpt lat="43.2207271" lon="12.8579562"><ele>608.0</ele><time>2026-04-25T11:46:03.331Z</time></trkpt><trkpt lat="43.2208236" lon="12.8579189"><ele>608.0</ele><time>2026-04-25T11:46:04.337Z</time></trkpt><trkpt lat="43.2209123" lon="12.8578615"><ele>609.0</ele><time>2026-04-25T11:46:05.334Z</time></trkpt><trkpt lat="43.2209918" lon="12.8577739"><ele>610.0</ele><time>2026-04-25T11:46:06.335Z</time></trkpt><trkpt lat="43.2210656" lon="12.8576698"><ele>611.0</ele><time>2026-04-25T11:46:07.326Z</time></trkpt><trkpt lat="43.2211393" lon="12.8575753"><ele>612.0</ele><time>2026-04-25T11:46:08.334Z</time></trkpt><trkpt lat="43.2212168" lon="12.8575062"><ele>613.0</ele><time>2026-04-25T11:46:09.331Z</time></trkpt><trkpt lat="43.221292" lon="12.8574916"><ele>613.0</ele><time>2026-04-25T11:46:10.333Z</time></trkpt><trkpt lat="43.2213576" lon="12.8575247"><ele>613.0</ele><time>2026-04-25T11:46:11.328Z</time></trkpt><trkpt lat="43.2214234" lon="12.8575994"><ele>613.0</ele><time>2026-04-25T11:46:12.33Z</time></trkpt><trkpt lat="43.2214915" lon="12.857704"><ele>613.0</ele><time>2026-04-25T11:46:13.333Z</time></trkpt><trkpt lat="43.2215592" lon="12.8578357"><ele>613.0</ele><time>2026-04-25T11:46:14.331Z</time></trkpt><trkpt lat="43.2216072" lon="12.858008"><ele>610.0</ele><time>2026-04-25T11:46:15.335Z</time></trkpt><trkpt lat="43.2216302" lon="12.8581796"><ele>607.0</ele><time>2026-04-25T11:46:16.326Z</time></trkpt><trkpt lat="43.2216391" lon="12.8583358"><ele>604.0</ele><time>2026-04-25T11:46:17.333Z</time></trkpt><trkpt lat="43.2216603" lon="12.8584738"><ele>601.0</ele><time>2026-04-25T11:46:18.336Z</time></trkpt><trkpt lat="43.2217045" lon="12.8585878"><ele>598.0</ele><time>2026-04-25T11:46:19.334Z</time></trkpt><trkpt lat="43.2217641" lon="12.8586824"><ele>597.0</ele><time>2026-04-25T11:46:20.332Z</time></trkpt><trkpt lat="43.2218408" lon="12.8587476"><ele>596.0</ele><time>2026-04-25T11:46:21.334Z</time></trkpt><trkpt lat="43.2219347" lon="12.8587861"><ele>595.0</ele><time>2026-04-25T11:46:22.333Z</time></trkpt><trkpt lat="43.2220447" lon="12.8587985"><ele>594.0</ele><time>2026-04-25T11:46:23.324Z</time></trkpt><trkpt lat="43.2221665" lon="12.8587955"><ele>593.0</ele><time>2026-04-25T11:46:24.332Z</time></trkpt><trkpt lat="43.2222938" lon="12.8587956"><ele>591.25</ele><time>2026-04-25T11:46:25.334Z</time></trkpt><trkpt lat="43.2224152" lon="12.8588135"><ele>589.5</ele><time>2026-04-25T11:46:26.331Z</time></trkpt><trkpt lat="43.2225303" lon="12.8588635"><ele>587.75</ele><time>2026-04-25T11:46:27.333Z</time></trkpt><trkpt lat="43.2226374" lon="12.858945"><ele>586.0</ele><time>2026-04-25T11:46:28.324Z</time></trkpt><trkpt lat="43.2227309" lon="12.8590402"><ele>586.0</ele><time>2026-04-25T11:46:29.332Z</time></trkpt><trkpt lat="43.2228113" lon="12.8591258"><ele>586.0</ele><time>2026-04-25T11:46:30.335Z</time></trkpt><trkpt lat="43.2228814" lon="12.8591951"><ele>586.0</ele><time>2026-04-25T11:46:31.335Z</time></trkpt><trkpt lat="43.2229291" lon="12.8592618"><ele>586.0</ele><time>2026-04-25T11:46:32.322Z</time></trkpt><trkpt lat="43.2229358" lon="12.8593943"><ele>586.0</ele><time>2026-04-25T11:46:34.327Z</time></trkpt><trkpt lat="43.2228385" lon="12.8594437"><ele>585.0</ele><time>2026-04-25T11:46:36.332Z</time></trkpt><trkpt lat="43.2227601" lon="12.8594177"><ele>584.0</ele><time>2026-04-25T11:46:37.328Z</time></trkpt><trkpt lat="43.2226656" lon="12.8594023"><ele>583.0</ele><time>2026-04-25T11:46:38.334Z</time></trkpt><trkpt lat="43.2225679" lon="12.8594157"><ele>582.0</ele><time>2026-04-25T11:46:39.324Z</time></trkpt><trkpt lat="43.2224737" lon="12.8594688"><ele>581.0</ele><time>2026-04-25T11:46:40.333Z</time></trkpt><trkpt lat="43.2223928" lon="12.8595545"><ele>581.0</ele><time>2026-04-25T11:46:41.33Z</time></trkpt><trkpt lat="43.222342" lon="12.8596547"><ele>581.0</ele><time>2026-04-25T11:46:42.33Z</time></trkpt><trkpt lat="43.2223344" lon="12.8597554"><ele>581.0</ele><time>2026-04-25T11:46:43.331Z</time></trkpt><trkpt lat="43.2223661" lon="12.8598415"><ele>581.0</ele><time>2026-04-25T11:46:44.331Z</time></trkpt><trkpt lat="43.2224253" lon="12.8599065"><ele>581.0</ele><time>2026-04-25T11:46:45.332Z</time></trkpt><trkpt lat="43.2225166" lon="12.8599435"><ele>581.0</ele><time>2026-04-25T11:46:46.322Z</time></trkpt><trkpt lat="43.2226406" lon="12.8599533"><ele>581.0</ele><time>2026-04-25T11:46:47.324Z</time></trkpt><trkpt lat="43.2227775" lon="12.8599522"><ele>581.0</ele><time>2026-04-25T11:46:48.329Z</time></trkpt><trkpt lat="43.2229063" lon="12.8599506"><ele>581.0</ele><time>2026-04-25T11:46:49.33Z</time></trkpt><trkpt lat="43.2230256" lon="12.8599531"><ele>581.0</ele><time>2026-04-25T11:46:50.329Z</time></trkpt><trkpt lat="43.2231405" lon="12.8599598"><ele>578.25</ele><time>2026-04-25T11:46:51.331Z</time></trkpt><trkpt lat="43.2232553" lon="12.8599685"><ele>575.5</ele><time>2026-04-25T11:46:52.332Z</time></trkpt><trkpt lat="43.2233715" lon="12.8599784"><ele>572.75</ele><time>2026-04-25T11:46:53.325Z</time></trkpt><trkpt lat="43.2234873" lon="12.859988"><ele>570.0</ele><time>2026-04-25T11:46:54.329Z</time></trkpt><trkpt lat="43.2236035" lon="12.8599905"><ele>570.0</ele><time>2026-04-25T11:46:55.336Z</time></trkpt><trkpt lat="43.2237214" lon="12.859982"><ele>570.0</ele><time>2026-04-25T11:46:56.328Z</time></trkpt><trkpt lat="43.2238393" lon="12.8599644"><ele>570.0</ele><time>2026-04-25T11:46:57.329Z</time></trkpt><trkpt lat="43.223961" lon="12.8599404"><ele>570.0</ele><time>2026-04-25T11:46:58.323Z</time></trkpt><trkpt lat="43.2240921" lon="12.8599082"><ele>568.4</ele><time>2026-04-25T11:46:59.329Z</time></trkpt><trkpt lat="43.2242223" lon="12.8598738"><ele>566.8</ele><time>2026-04-25T11:47:00.333Z</time></trkpt><trkpt lat="43.2243374" lon="12.8598533"><ele>565.2</ele><time>2026-04-25T11:47:01.33Z</time></trkpt><trkpt lat="43.2244377" lon="12.8598727"><ele>563.6</ele><time>2026-04-25T11:47:02.337Z</time></trkpt><trkpt lat="43.2245162" lon="12.8599434"><ele>562.0</ele><time>2026-04-25T11:47:03.335Z</time></trkpt><trkpt lat="43.2245675" lon="12.8600574"><ele>558.75</ele><time>2026-04-25T11:47:04.33Z</time></trkpt><trkpt lat="43.2245989" lon="12.8602034"><ele>555.5</ele><time>2026-04-25T11:47:05.332Z</time></trkpt><trkpt lat="43.2246275" lon="12.8603819"><ele>552.25</ele><time>2026-04-25T11:47:06.334Z</time></trkpt><trkpt lat="43.2246592" lon="12.8605825"><ele>549.0</ele><time>2026-04-25T11:47:07.334Z</time></trkpt><trkpt lat="43.2246933" lon="12.8607918"><ele>547.3333333333334</ele><time>2026-04-25T11:47:08.33Z</time></trkpt><trkpt lat="43.2247279" lon="12.8609983"><ele>545.6666666666667</ele><time>2026-04-25T11:47:09.335Z</time></trkpt><trkpt lat="43.2247639" lon="12.8612031"><ele>544.0</ele><time>2026-04-25T11:47:10.324Z</time></trkpt><trkpt lat="43.2248064" lon="12.8614131"><ele>544.6666666666667</ele><time>2026-04-25T11:47:11.335Z</time></trkpt><trkpt lat="43.2248545" lon="12.8616248"><ele>545.3333333333334</ele><time>2026-04-25T11:47:12.333Z</time></trkpt><trkpt lat="43.2249086" lon="12.8618262"><ele>546.0</ele><time>2026-04-25T11:47:13.332Z</time></trkpt><trkpt lat="43.2249699" lon="12.8620163"><ele>546.0</ele><time>2026-04-25T11:47:14.33Z</time></trkpt><trkpt lat="43.2250321" lon="12.8621994"><ele>546.0</ele><time>2026-04-25T11:47:15.329Z</time></trkpt><trkpt lat="43.2250876" lon="12.8623789"><ele>546.0</ele><time>2026-04-25T11:47:16.324Z</time></trkpt><trkpt lat="43.2251374" lon="12.8625474"><ele>546.0</ele><time>2026-04-25T11:47:17.329Z</time></trkpt><trkpt lat="43.2251833" lon="12.8626949"><ele>546.5</ele><time>2026-04-25T11:47:18.331Z</time></trkpt><trkpt lat="43.2252246" lon="12.8628136"><ele>547.0</ele><time>2026-04-25T11:47:19.327Z</time></trkpt><trkpt lat="43.2252627" lon="12.8629133"><ele>547.5</ele><time>2026-04-25T11:47:20.325Z</time></trkpt><trkpt lat="43.2252994" lon="12.8630119"><ele>548.0</ele><time>2026-04-25T11:47:21.332Z</time></trkpt><trkpt lat="43.225334" lon="12.8631116"><ele>548.5</ele><time>2026-04-25T11:47:22.333Z</time></trkpt><trkpt lat="43.2253702" lon="12.8632065"><ele>549.0</ele><time>2026-04-25T11:47:23.326Z</time></trkpt><trkpt lat="43.2254027" lon="12.8632883"><ele>549.0</ele><time>2026-04-25T11:47:24.332Z</time></trkpt><trkpt lat="43.22544" lon="12.8633983"><ele>549.0</ele><time>2026-04-25T11:47:26.331Z</time></trkpt><trkpt lat="43.2254174" lon="12.8634817"><ele>549.0</ele><time>2026-04-25T11:47:35.324Z</time></trkpt><trkpt lat="43.2253421" lon="12.8635201"><ele>549.0</ele><time>2026-04-25T11:47:37.325Z</time></trkpt><trkpt lat="43.2252759" lon="12.8635244"><ele>549.0</ele><time>2026-04-25T11:47:38.331Z</time></trkpt><trkpt lat="43.2251899" lon="12.8635137"><ele>549.0</ele><time>2026-04-25T11:47:39.331Z</time></trkpt><trkpt lat="43.2250931" lon="12.8635004"><ele>549.4</ele><time>2026-04-25T11:47:40.327Z</time></trkpt><trkpt lat="43.2249979" lon="12.8634926"><ele>549.8</ele><time>2026-04-25T11:47:41.327Z</time></trkpt><trkpt lat="43.2248984" lon="12.8634878"><ele>550.2</ele><time>2026-04-25T11:47:42.324Z</time></trkpt><trkpt lat="43.2247918" lon="12.8634846"><ele>550.6</ele><time>2026-04-25T11:47:43.329Z</time></trkpt><trkpt lat="43.22467" lon="12.8634806"><ele>551.0</ele><time>2026-04-25T11:47:44.333Z</time></trkpt><trkpt lat="43.2245372" lon="12.8634781"><ele>550.0</ele><time>2026-04-25T11:47:45.325Z</time></trkpt><trkpt lat="43.224397" lon="12.863477"><ele>549.0</ele><time>2026-04-25T11:47:46.323Z</time></trkpt><trkpt lat="43.2242497" lon="12.8634758"><ele>548.0</ele><time>2026-04-25T11:47:47.323Z</time></trkpt><trkpt lat="43.224096" lon="12.8634732"><ele>547.0</ele><time>2026-04-25T11:47:48.331Z</time></trkpt><trkpt lat="43.2239419" lon="12.8634705"><ele>545.3333333333334</ele><time>2026-04-25T11:47:49.329Z</time></trkpt><trkpt lat="43.2237895" lon="12.8634684"><ele>543.6666666666666</ele><time>2026-04-25T11:47:50.328Z</time></trkpt><trkpt lat="43.2236378" lon="12.8634696"><ele>542.0</ele><time>2026-04-25T11:47:51.326Z</time></trkpt><trkpt lat="43.2234841" lon="12.8634722"><ele>542.0</ele><time>2026-04-25T11:47:52.328Z</time></trkpt><trkpt lat="43.2233275" lon="12.8634778"><ele>542.0</ele><time>2026-04-25T11:47:53.328Z</time></trkpt><trkpt lat="43.2231696" lon="12.8634856"><ele>542.0</ele><time>2026-04-25T11:47:54.329Z</time></trkpt><trkpt lat="43.2230099" lon="12.8634878"><ele>541.3333333333333</ele><time>2026-04-25T11:47:55.326Z</time></trkpt><trkpt lat="43.2228492" lon="12.8634865"><ele>540.6666666666666</ele><time>2026-04-25T11:47:56.325Z</time></trkpt><trkpt lat="43.2226874" lon="12.8634857"><ele>540.0</ele><time>2026-04-25T11:47:57.323Z</time></trkpt><trkpt lat="43.2225205" lon="12.8634865"><ele>540.0</ele><time>2026-04-25T11:47:58.331Z</time></trkpt><trkpt lat="43.222347" lon="12.8634898"><ele>540.0</ele><time>2026-04-25T11:47:59.33Z</time></trkpt><trkpt lat="43.2221669" lon="12.8634941"><ele>540.0</ele><time>2026-04-25T11:48:00.327Z</time></trkpt><trkpt lat="43.2219818" lon="12.8634961"><ele>539.3333333333334</ele><time>2026-04-25T11:48:01.325Z</time></trkpt><trkpt lat="43.2217931" lon="12.8634947"><ele>538.6666666666667</ele><time>2026-04-25T11:48:02.334Z</time></trkpt><trkpt lat="43.221604" lon="12.8634937"><ele>538.0</ele><time>2026-04-25T11:48:03.331Z</time></trkpt><trkpt lat="43.2214147" lon="12.8634937"><ele>537.6666666666667</ele><time>2026-04-25T11:48:04.329Z</time></trkpt><trkpt lat="43.2212269" lon="12.8634946"><ele>537.3333333333334</ele><time>2026-04-25T11:48:05.328Z</time></trkpt><trkpt lat="43.2210429" lon="12.863496"><ele>537.0</ele><time>2026-04-25T11:48:06.33Z</time></trkpt><trkpt lat="43.2208587" lon="12.8634949"><ele>537.0</ele><time>2026-04-25T11:48:07.331Z</time></trkpt><trkpt lat="43.2206744" lon="12.8634932"><ele>537.0</ele><time>2026-04-25T11:48:08.326Z</time></trkpt><trkpt lat="43.2204893" lon="12.8634889"><ele>537.0</ele><time>2026-04-25T11:48:09.332Z</time></trkpt><trkpt lat="43.2203027" lon="12.8634841"><ele>537.3333333333334</ele><time>2026-04-25T11:48:10.328Z</time></trkpt><trkpt lat="43.2201146" lon="12.8634784"><ele>537.6666666666667</ele><time>2026-04-25T11:48:11.327Z</time></trkpt><trkpt lat="43.2199259" lon="12.8634737"><ele>538.0</ele><time>2026-04-25T11:48:12.327Z</time></trkpt><trkpt lat="43.21974" lon="12.8634706"><ele>538.3333333333334</ele><time>2026-04-25T11:48:13.329Z</time></trkpt><trkpt lat="43.21956" lon="12.8634719"><ele>538.6666666666666</ele><time>2026-04-25T11:48:14.329Z</time></trkpt><trkpt lat="43.2193856" lon="12.8634767"><ele>539.0</ele><time>2026-04-25T11:48:15.33Z</time></trkpt><trkpt lat="43.2192169" lon="12.8634804"><ele>539.0</ele><time>2026-04-25T11:48:16.325Z</time></trkpt><trkpt lat="43.2190537" lon="12.8634774"><ele>539.0</ele><time>2026-04-25T11:48:17.33Z</time></trkpt><trkpt lat="43.218893" lon="12.863471"><ele>539.0</ele><time>2026-04-25T11:48:18.33Z</time></trkpt><trkpt lat="43.218734" lon="12.8634571"><ele>541.0</ele><time>2026-04-25T11:48:19.327Z</time></trkpt><trkpt lat="43.2185752" lon="12.8634319"><ele>543.0</ele><time>2026-04-25T11:48:20.326Z</time></trkpt><trkpt lat="43.2184143" lon="12.863397"><ele>545.0</ele><time>2026-04-25T11:48:21.321Z</time></trkpt><trkpt lat="43.2182497" lon="12.8633549"><ele>543.0</ele><time>2026-04-25T11:48:22.327Z</time></trkpt><trkpt lat="43.2180844" lon="12.863306"><ele>541.0</ele><time>2026-04-25T11:48:23.33Z</time></trkpt><trkpt lat="43.2179213" lon="12.8632507"><ele>539.0</ele><time>2026-04-25T11:48:24.331Z</time></trkpt><trkpt lat="43.2177615" lon="12.8631913"><ele>539.0</ele><time>2026-04-25T11:48:25.321Z</time></trkpt><trkpt lat="43.217603" lon="12.8631328"><ele>539.0</ele><time>2026-04-25T11:48:26.328Z</time></trkpt><trkpt lat="43.2174408" lon="12.8630744"><ele>539.0</ele><time>2026-04-25T11:48:27.32Z</time></trkpt><trkpt lat="43.2172745" lon="12.8630111"><ele>536.0</ele><time>2026-04-25T11:48:28.328Z</time></trkpt><trkpt lat="43.2171025" lon="12.8629449"><ele>533.0</ele><time>2026-04-25T11:48:29.327Z</time></trkpt><trkpt lat="43.2169269" lon="12.8628781"><ele>530.0</ele><time>2026-04-25T11:48:30.331Z</time></trkpt><trkpt lat="43.2167511" lon="12.8628083"><ele>530.0</ele><time>2026-04-25T11:48:31.326Z</time></trkpt><trkpt lat="43.2165771" lon="12.8627342"><ele>530.0</ele><time>2026-04-25T11:48:32.334Z</time></trkpt><trkpt lat="43.2163985" lon="12.8626563"><ele>530.0</ele><time>2026-04-25T11:48:33.33Z</time></trkpt><trkpt lat="43.2162161" lon="12.8625721"><ele>529.6666666666666</ele><time>2026-04-25T11:48:34.331Z</time></trkpt><trkpt lat="43.216033" lon="12.8624816"><ele>529.3333333333334</ele><time>2026-04-25T11:48:35.328Z</time></trkpt><trkpt lat="43.2158498" lon="12.8623857"><ele>529.0</ele><time>2026-04-25T11:48:36.333Z</time></trkpt><trkpt lat="43.2156662" lon="12.8622889"><ele>527.6666666666667</ele><time>2026-04-25T11:48:37.333Z</time></trkpt><trkpt lat="43.2154795" lon="12.8622047"><ele>526.3333333333334</ele><time>2026-04-25T11:48:38.334Z</time></trkpt><trkpt lat="43.2152909" lon="12.8621458"><ele>525.0</ele><time>2026-04-25T11:48:39.327Z</time></trkpt><trkpt lat="43.2151032" lon="12.8621108"><ele>525.0</ele><time>2026-04-25T11:48:40.328Z</time></trkpt><trkpt lat="43.2149127" lon="12.8621035"><ele>525.0</ele><time>2026-04-25T11:48:41.331Z</time></trkpt><trkpt lat="43.2147234" lon="12.8621222"><ele>525.0</ele><time>2026-04-25T11:48:42.323Z</time></trkpt><trkpt lat="43.2145385" lon="12.8621551"><ele>525.3333333333334</ele><time>2026-04-25T11:48:43.324Z</time></trkpt><trkpt lat="43.2143593" lon="12.8621813"><ele>525.6666666666667</ele><time>2026-04-25T11:48:44.333Z</time></trkpt><trkpt lat="43.2141829" lon="12.8621852"><ele>526.0</ele><time>2026-04-25T11:48:45.327Z</time></trkpt><trkpt lat="43.21401" lon="12.8621645"><ele>525.6666666666667</ele><time>2026-04-25T11:48:46.325Z</time></trkpt><trkpt lat="43.2138406" lon="12.8621184"><ele>525.3333333333334</ele><time>2026-04-25T11:48:47.332Z</time></trkpt><trkpt lat="43.213673" lon="12.8620496"><ele>525.0</ele><time>2026-04-25T11:48:48.332Z</time></trkpt><trkpt lat="43.2135087" lon="12.86196"><ele>525.0</ele><time>2026-04-25T11:48:49.33Z</time></trkpt><trkpt lat="43.2133475" lon="12.8618531"><ele>525.0</ele><time>2026-04-25T11:48:50.332Z</time></trkpt><trkpt lat="43.2131843" lon="12.8617491"><ele>525.0</ele><time>2026-04-25T11:48:51.333Z</time></trkpt><trkpt lat="43.2130146" lon="12.8616692"><ele>525.6666666666666</ele><time>2026-04-25T11:48:52.337Z</time></trkpt><trkpt lat="43.2128374" lon="12.861619"><ele>526.3333333333333</ele><time>2026-04-25T11:48:53.326Z</time></trkpt><trkpt lat="43.2126549" lon="12.8615956"><ele>527.0</ele><time>2026-04-25T11:48:54.332Z</time></trkpt><trkpt lat="43.2124668" lon="12.8615865"><ele>525.3333333333333</ele><time>2026-04-25T11:48:55.332Z</time></trkpt><trkpt lat="43.2122718" lon="12.8615856"><ele>523.6666666666666</ele><time>2026-04-25T11:48:56.331Z</time></trkpt><trkpt lat="43.2120714" lon="12.8615859"><ele>522.0</ele><time>2026-04-25T11:48:57.326Z</time></trkpt><trkpt lat="43.211867" lon="12.8615828"><ele>522.0</ele><time>2026-04-25T11:48:58.333Z</time></trkpt><trkpt lat="43.2116631" lon="12.8615788"><ele>522.0</ele><time>2026-04-25T11:48:59.324Z</time></trkpt><trkpt lat="43.2114609" lon="12.8615703"><ele>522.0</ele><time>2026-04-25T11:49:00.331Z</time></trkpt><trkpt lat="43.2112593" lon="12.8615546"><ele>520.6666666666666</ele><time>2026-04-25T11:49:01.34Z</time></trkpt><trkpt lat="43.2110595" lon="12.8615363"><ele>519.3333333333333</ele><time>2026-04-25T11:49:02.332Z</time></trkpt><trkpt lat="43.2108657" lon="12.8615181"><ele>518.0</ele><time>2026-04-25T11:49:03.335Z</time></trkpt><trkpt lat="43.2106774" lon="12.8615077"><ele>518.0</ele><time>2026-04-25T11:49:04.325Z</time></trkpt><trkpt lat="43.2104926" lon="12.8615237"><ele>518.0</ele><time>2026-04-25T11:49:05.336Z</time></trkpt><trkpt lat="43.2103103" lon="12.8615816"><ele>518.0</ele><time>2026-04-25T11:49:06.333Z</time></trkpt><trkpt lat="43.2101285" lon="12.8616851"><ele>517.3333333333333</ele><time>2026-04-25T11:49:07.337Z</time></trkpt><trkpt lat="43.209951" lon="12.8618107"><ele>516.6666666666666</ele><time>2026-04-25T11:49:08.333Z</time></trkpt><trkpt lat="43.2097726" lon="12.8619318"><ele>516.0</ele><time>2026-04-25T11:49:09.336Z</time></trkpt><trkpt lat="43.2095916" lon="12.8620444"><ele>516.0</ele><time>2026-04-25T11:49:10.325Z</time></trkpt><trkpt lat="43.2094088" lon="12.8621537"><ele>516.0</ele><time>2026-04-25T11:49:11.331Z</time></trkpt><trkpt lat="43.2092231" lon="12.8622575"><ele>516.0</ele><time>2026-04-25T11:49:12.337Z</time></trkpt><trkpt lat="43.2090326" lon="12.862355"><ele>515.6666666666666</ele><time>2026-04-25T11:49:13.331Z</time></trkpt><trkpt lat="43.2088357" lon="12.8624493"><ele>515.3333333333333</ele><time>2026-04-25T11:49:14.326Z</time></trkpt><trkpt lat="43.208639" lon="12.862538"><ele>515.0</ele><time>2026-04-25T11:49:15.333Z</time></trkpt><trkpt lat="43.2084484" lon="12.8626216"><ele>514.0</ele><time>2026-04-25T11:49:16.332Z</time></trkpt><trkpt lat="43.2082757" lon="12.8626947"><ele>513.0</ele><time>2026-04-25T11:49:17.334Z</time></trkpt><trkpt lat="43.2081187" lon="12.8627591"><ele>512.0</ele><time>2026-04-25T11:49:18.328Z</time></trkpt><trkpt lat="43.2079719" lon="12.8628215"><ele>512.0</ele><time>2026-04-25T11:49:19.326Z</time></trkpt><trkpt lat="43.2078375" lon="12.8628891"><ele>512.0</ele><time>2026-04-25T11:49:20.333Z</time></trkpt><trkpt lat="43.2077102" lon="12.8629729"><ele>512.0</ele><time>2026-04-25T11:49:21.329Z</time></trkpt><trkpt lat="43.207583" lon="12.8630829"><ele>512.0</ele><time>2026-04-25T11:49:22.335Z</time></trkpt><trkpt lat="43.2074644" lon="12.8632198"><ele>512.0</ele><time>2026-04-25T11:49:23.332Z</time></trkpt><trkpt lat="43.2073631" lon="12.8633716"><ele>512.0</ele><time>2026-04-25T11:49:24.329Z</time></trkpt><trkpt lat="43.2072754" lon="12.8635272"><ele>512.0</ele><time>2026-04-25T11:49:25.332Z</time></trkpt><trkpt lat="43.2071963" lon="12.8636871"><ele>512.0</ele><time>2026-04-25T11:49:26.33Z</time></trkpt><trkpt lat="43.207118" lon="12.8638571"><ele>511.3333333333333</ele><time>2026-04-25T11:49:27.332Z</time></trkpt><trkpt lat="43.2070376" lon="12.8640395"><ele>510.66666666666663</ele><time>2026-04-25T11:49:28.327Z</time></trkpt><trkpt lat="43.2069575" lon="12.8642359"><ele>510.0</ele><time>2026-04-25T11:49:29.329Z</time></trkpt><trkpt lat="43.2068762" lon="12.8644387"><ele>510.0</ele><time>2026-04-25T11:49:30.337Z</time></trkpt><trkpt lat="43.2067913" lon="12.8646375"><ele>510.0</ele><time>2026-04-25T11:49:31.328Z</time></trkpt><trkpt lat="43.2067035" lon="12.8648248"><ele>510.0</ele><time>2026-04-25T11:49:32.327Z</time></trkpt><trkpt lat="43.2066114" lon="12.864995"><ele>511.66666666666663</ele><time>2026-04-25T11:49:33.334Z</time></trkpt><trkpt lat="43.2065091" lon="12.8651491"><ele>513.3333333333333</ele><time>2026-04-25T11:49:34.335Z</time></trkpt><trkpt lat="43.2063874" lon="12.8652681"><ele>515.0</ele><time>2026-04-25T11:49:35.334Z</time></trkpt><trkpt lat="43.2062336" lon="12.8653223"><ele>515.0</ele><time>2026-04-25T11:49:36.333Z</time></trkpt><trkpt lat="43.2060619" lon="12.8653422"><ele>515.0</ele><time>2026-04-25T11:49:37.332Z</time></trkpt><trkpt lat="43.2058824" lon="12.8653436"><ele>515.0</ele><time>2026-04-25T11:49:38.333Z</time></trkpt><trkpt lat="43.2056989" lon="12.8653459"><ele>514.3333333333333</ele><time>2026-04-25T11:49:39.327Z</time></trkpt><trkpt lat="43.2055098" lon="12.865351"><ele>513.6666666666666</ele><time>2026-04-25T11:49:40.334Z</time></trkpt><trkpt lat="43.2053158" lon="12.8653562"><ele>513.0</ele><time>2026-04-25T11:49:41.333Z</time></trkpt><trkpt lat="43.2051205" lon="12.8653615"><ele>513.0</ele><time>2026-04-25T11:49:42.33Z</time></trkpt><trkpt lat="43.2049235" lon="12.8653692"><ele>513.0</ele><time>2026-04-25T11:49:43.332Z</time></trkpt><trkpt lat="43.2047312" lon="12.865375"><ele>513.0</ele><time>2026-04-25T11:49:44.329Z</time></trkpt><trkpt lat="43.2045478" lon="12.865381"><ele>512.6666666666666</ele><time>2026-04-25T11:49:45.329Z</time></trkpt><trkpt lat="43.2043723" lon="12.8653904"><ele>512.3333333333333</ele><time>2026-04-25T11:49:46.331Z</time></trkpt><trkpt lat="43.2042003" lon="12.8654074"><ele>512.0</ele><time>2026-04-25T11:49:47.323Z</time></trkpt><trkpt lat="43.2040284" lon="12.8654356"><ele>511.3333333333333</ele><time>2026-04-25T11:49:48.328Z</time></trkpt><trkpt lat="43.2038554" lon="12.8654784"><ele>510.66666666666663</ele><time>2026-04-25T11:49:49.331Z</time></trkpt><trkpt lat="43.203684" lon="12.865536"><ele>510.0</ele><time>2026-04-25T11:49:50.323Z</time></trkpt><trkpt lat="43.2035135" lon="12.8655991"><ele>510.0</ele><time>2026-04-25T11:49:51.332Z</time></trkpt><trkpt lat="43.2033375" lon="12.8656655"><ele>510.0</ele><time>2026-04-25T11:49:52.326Z</time></trkpt><trkpt lat="43.2031578" lon="12.8657309"><ele>510.0</ele><time>2026-04-25T11:49:53.332Z</time></trkpt><trkpt lat="43.202978" lon="12.8657955"><ele>509.33333333333337</ele><time>2026-04-25T11:49:54.329Z</time></trkpt><trkpt lat="43.2027961" lon="12.8658614"><ele>508.6666666666667</ele><time>2026-04-25T11:49:55.33Z</time></trkpt><trkpt lat="43.2026112" lon="12.8659268"><ele>508.0</ele><time>2026-04-25T11:49:56.33Z</time></trkpt><trkpt lat="43.2024246" lon="12.8659901"><ele>510.0</ele><time>2026-04-25T11:49:57.327Z</time></trkpt><trkpt lat="43.2022357" lon="12.8660519"><ele>512.0</ele><time>2026-04-25T11:49:58.328Z</time></trkpt><trkpt lat="43.2020459" lon="12.8661116"><ele>514.0</ele><time>2026-04-25T11:49:59.33Z</time></trkpt><trkpt lat="43.2018588" lon="12.8661698"><ele>514.0</ele><time>2026-04-25T11:50:00.325Z</time></trkpt><trkpt lat="43.2016734" lon="12.8662244"><ele>514.0</ele><time>2026-04-25T11:50:01.328Z</time></trkpt><trkpt lat="43.2014897" lon="12.8662721"><ele>514.0</ele><time>2026-04-25T11:50:02.338Z</time></trkpt><trkpt lat="43.2013087" lon="12.8663158"><ele>511.33333333333337</ele><time>2026-04-25T11:50:03.326Z</time></trkpt><trkpt lat="43.2011285" lon="12.8663581"><ele>508.66666666666663</ele><time>2026-04-25T11:50:04.329Z</time></trkpt><trkpt lat="43.2009519" lon="12.8663998"><ele>506.0</ele><time>2026-04-25T11:50:05.331Z</time></trkpt><trkpt lat="43.2007793" lon="12.8664431"><ele>505.0</ele><time>2026-04-25T11:50:06.332Z</time></trkpt><trkpt lat="43.2006116" lon="12.8664931"><ele>504.0</ele><time>2026-04-25T11:50:07.331Z</time></trkpt><trkpt lat="43.2004509" lon="12.866557"><ele>503.0</ele><time>2026-04-25T11:50:08.335Z</time></trkpt><trkpt lat="43.2002928" lon="12.8666437"><ele>503.0</ele><time>2026-04-25T11:50:09.332Z</time></trkpt><trkpt lat="43.2001371" lon="12.8667511"><ele>503.0</ele><time>2026-04-25T11:50:10.32Z</time></trkpt><trkpt lat="43.1999864" lon="12.8668747"><ele>503.0</ele><time>2026-04-25T11:50:11.329Z</time></trkpt><trkpt lat="43.1998382" lon="12.8670147"><ele>504.3333333333333</ele><time>2026-04-25T11:50:12.335Z</time></trkpt><trkpt lat="43.1996854" lon="12.8671569"><ele>505.66666666666663</ele><time>2026-04-25T11:50:13.329Z</time></trkpt><trkpt lat="43.1995226" lon="12.8672808"><ele>507.0</ele><time>2026-04-25T11:50:14.328Z</time></trkpt><trkpt lat="43.1993486" lon="12.8673735"><ele>507.0</ele><time>2026-04-25T11:50:15.325Z</time></trkpt><trkpt lat="43.1991688" lon="12.8674405"><ele>507.0</ele><time>2026-04-25T11:50:16.329Z</time></trkpt><trkpt lat="43.1989837" lon="12.8674991"><ele>507.0</ele><time>2026-04-25T11:50:17.329Z</time></trkpt><trkpt lat="43.1987965" lon="12.8675587"><ele>511.33333333333337</ele><time>2026-04-25T11:50:18.327Z</time></trkpt><trkpt lat="43.1986105" lon="12.8676231"><ele>515.6666666666667</ele><time>2026-04-25T11:50:19.329Z</time></trkpt><trkpt lat="43.1984231" lon="12.867693"><ele>520.0</ele><time>2026-04-25T11:50:20.328Z</time></trkpt><trkpt lat="43.1982351" lon="12.8677663"><ele>517.0</ele><time>2026-04-25T11:50:21.33Z</time></trkpt><trkpt lat="43.198046" lon="12.8678412"><ele>514.0</ele><time>2026-04-25T11:50:22.33Z</time></trkpt><trkpt lat="43.1978549" lon="12.8679158"><ele>511.0</ele><time>2026-04-25T11:50:23.33Z</time></trkpt><trkpt lat="43.197663" lon="12.86799"><ele>511.0</ele><time>2026-04-25T11:50:24.328Z</time></trkpt><trkpt lat="43.1974711" lon="12.8680615"><ele>511.0</ele><time>2026-04-25T11:50:25.329Z</time></trkpt><trkpt lat="43.1972789" lon="12.868134"><ele>511.0</ele><time>2026-04-25T11:50:26.327Z</time></trkpt><trkpt lat="43.1970871" lon="12.8682061"><ele>508.33333333333337</ele><time>2026-04-25T11:50:27.327Z</time></trkpt><trkpt lat="43.1968959" lon="12.8682793"><ele>505.66666666666663</ele><time>2026-04-25T11:50:28.325Z</time></trkpt><trkpt lat="43.1967065" lon="12.8683549"><ele>503.0</ele><time>2026-04-25T11:50:29.332Z</time></trkpt><trkpt lat="43.1965185" lon="12.8684341"><ele>505.66666666666663</ele><time>2026-04-25T11:50:30.33Z</time></trkpt><trkpt lat="43.1963322" lon="12.8685143"><ele>508.33333333333337</ele><time>2026-04-25T11:50:31.332Z</time></trkpt><trkpt lat="43.1961462" lon="12.8685957"><ele>511.0</ele><time>2026-04-25T11:50:32.336Z</time></trkpt><trkpt lat="43.1959607" lon="12.8686771"><ele>511.0</ele><time>2026-04-25T11:50:33.332Z</time></trkpt><trkpt lat="43.1957746" lon="12.8687551"><ele>511.0</ele><time>2026-04-25T11:50:34.332Z</time></trkpt><trkpt lat="43.1955886" lon="12.8688292"><ele>511.0</ele><time>2026-04-25T11:50:35.333Z</time></trkpt><trkpt lat="43.1954062" lon="12.8688998"><ele>509.0</ele><time>2026-04-25T11:50:36.328Z</time></trkpt><trkpt lat="43.1952257" lon="12.8689638"><ele>507.0</ele><time>2026-04-25T11:50:37.337Z</time></trkpt><trkpt lat="43.1950468" lon="12.8690198"><ele>505.0</ele><time>2026-04-25T11:50:38.334Z</time></trkpt><trkpt lat="43.1948664" lon="12.8690599"><ele>504.0</ele><time>2026-04-25T11:50:39.333Z</time></trkpt><trkpt lat="43.1946847" lon="12.8690794"><ele>503.0</ele><time>2026-04-25T11:50:40.327Z</time></trkpt><trkpt lat="43.1945042" lon="12.8690842"><ele>502.0</ele><time>2026-04-25T11:50:41.328Z</time></trkpt><trkpt lat="43.1943234" lon="12.8690839"><ele>502.0</ele><time>2026-04-25T11:50:42.336Z</time></trkpt><trkpt lat="43.1941421" lon="12.8690863"><ele>502.0</ele><time>2026-04-25T11:50:43.325Z</time></trkpt><trkpt lat="43.1939598" lon="12.8690958"><ele>502.0</ele><time>2026-04-25T11:50:44.32Z</time></trkpt><trkpt lat="43.1937771" lon="12.8691148"><ele>501.33333333333337</ele><time>2026-04-25T11:50:45.33Z</time></trkpt><trkpt lat="43.1935941" lon="12.8691384"><ele>500.66666666666663</ele><time>2026-04-25T11:50:46.335Z</time></trkpt><trkpt lat="43.1934117" lon="12.8691596"><ele>500.0</ele><time>2026-04-25T11:50:47.325Z</time></trkpt><trkpt lat="43.1932298" lon="12.8691732"><ele>500.3333333333333</ele><time>2026-04-25T11:50:48.328Z</time></trkpt><trkpt lat="43.1930488" lon="12.8691806"><ele>500.66666666666663</ele><time>2026-04-25T11:50:49.326Z</time></trkpt><trkpt lat="43.1928682" lon="12.8691843"><ele>501.0</ele><time>2026-04-25T11:50:50.326Z</time></trkpt><trkpt lat="43.1926902" lon="12.8691855"><ele>501.0</ele><time>2026-04-25T11:50:51.333Z</time></trkpt><trkpt lat="43.1925144" lon="12.8691798"><ele>501.0</ele><time>2026-04-25T11:50:52.334Z</time></trkpt><trkpt lat="43.1923398" lon="12.8691577"><ele>501.0</ele><time>2026-04-25T11:50:53.329Z</time></trkpt><trkpt lat="43.1921692" lon="12.869119"><ele>502.0</ele><time>2026-04-25T11:50:54.324Z</time></trkpt><trkpt lat="43.1920045" lon="12.8690644"><ele>503.0</ele><time>2026-04-25T11:50:55.326Z</time></trkpt><trkpt lat="43.1918496" lon="12.8689993"><ele>504.0</ele><time>2026-04-25T11:50:56.333Z</time></trkpt><trkpt lat="43.1916996" lon="12.8689296"><ele>504.0</ele><time>2026-04-25T11:50:57.333Z</time></trkpt><trkpt lat="43.1915486" lon="12.8688579"><ele>504.0</ele><time>2026-04-25T11:50:58.328Z</time></trkpt><trkpt lat="43.1913945" lon="12.8687922"><ele>504.0</ele><time>2026-04-25T11:50:59.331Z</time></trkpt><trkpt lat="43.1912401" lon="12.868739"><ele>505.66666666666663</ele><time>2026-04-25T11:51:00.333Z</time></trkpt><trkpt lat="43.1910861" lon="12.8687069"><ele>507.3333333333333</ele><time>2026-04-25T11:51:01.333Z</time></trkpt><trkpt lat="43.1909299" lon="12.8687035"><ele>509.0</ele><time>2026-04-25T11:51:02.337Z</time></trkpt><trkpt lat="43.1907675" lon="12.8687343"><ele>507.66666666666663</ele><time>2026-04-25T11:51:03.328Z</time></trkpt><trkpt lat="43.1905997" lon="12.868786"><ele>506.33333333333337</ele><time>2026-04-25T11:51:04.335Z</time></trkpt><trkpt lat="43.1904273" lon="12.8688361"><ele>505.0</ele><time>2026-04-25T11:51:05.335Z</time></trkpt><trkpt lat="43.1902508" lon="12.8688788"><ele>505.0</ele><time>2026-04-25T11:51:06.337Z</time></trkpt><trkpt lat="43.1900749" lon="12.8689183"><ele>505.0</ele><time>2026-04-25T11:51:07.334Z</time></trkpt><trkpt lat="43.1899042" lon="12.8689553"><ele>505.0</ele><time>2026-04-25T11:51:08.332Z</time></trkpt><trkpt lat="43.1897402" lon="12.8689931"><ele>501.0</ele><time>2026-04-25T11:51:09.335Z</time></trkpt><trkpt lat="43.1895792" lon="12.8690448"><ele>497.0</ele><time>2026-04-25T11:51:10.323Z</time></trkpt><trkpt lat="43.1894209" lon="12.8691202"><ele>493.0</ele><time>2026-04-25T11:51:11.328Z</time></trkpt><trkpt lat="43.1892682" lon="12.869223"><ele>493.6666666666667</ele><time>2026-04-25T11:51:12.337Z</time></trkpt><trkpt lat="43.1891204" lon="12.8693432"><ele>494.33333333333337</ele><time>2026-04-25T11:51:13.331Z</time></trkpt><trkpt lat="43.1889745" lon="12.8694676"><ele>495.0</ele><time>2026-04-25T11:51:14.325Z</time></trkpt><trkpt lat="43.1888291" lon="12.8695945"><ele>495.0</ele><time>2026-04-25T11:51:15.326Z</time></trkpt><trkpt lat="43.1886891" lon="12.8697268"><ele>495.0</ele><time>2026-04-25T11:51:16.325Z</time></trkpt><trkpt lat="43.1885555" lon="12.869871"><ele>495.0</ele><time>2026-04-25T11:51:17.329Z</time></trkpt><trkpt lat="43.1884292" lon="12.8700235"><ele>493.33333333333337</ele><time>2026-04-25T11:51:18.325Z</time></trkpt><trkpt lat="43.1883083" lon="12.8701801"><ele>491.6666666666667</ele><time>2026-04-25T11:51:19.33Z</time></trkpt><trkpt lat="43.1881911" lon="12.8703395"><ele>490.0</ele><time>2026-04-25T11:51:20.33Z</time></trkpt><trkpt lat="43.1880831" lon="12.870506"><ele>490.0</ele><time>2026-04-25T11:51:21.334Z</time></trkpt><trkpt lat="43.1879807" lon="12.870676"><ele>490.0</ele><time>2026-04-25T11:51:22.335Z</time></trkpt><trkpt lat="43.1878813" lon="12.8708429"><ele>490.0</ele><time>2026-04-25T11:51:23.331Z</time></trkpt><trkpt lat="43.1877855" lon="12.8710042"><ele>492.6666666666667</ele><time>2026-04-25T11:51:24.331Z</time></trkpt><trkpt lat="43.1876845" lon="12.8711557"><ele>495.33333333333337</ele><time>2026-04-25T11:51:25.332Z</time></trkpt><trkpt lat="43.1875706" lon="12.871293"><ele>498.0</ele><time>2026-04-25T11:51:26.325Z</time></trkpt><trkpt lat="43.1874462" lon="12.8714143"><ele>497.66666666666663</ele><time>2026-04-25T11:51:27.331Z</time></trkpt><trkpt lat="43.1873172" lon="12.8715272"><ele>497.3333333333333</ele><time>2026-04-25T11:51:28.33Z</time></trkpt><trkpt lat="43.1871903" lon="12.871647"><ele>497.0</ele><time>2026-04-25T11:51:29.329Z</time></trkpt><trkpt lat="43.1870731" lon="12.8717839"><ele>497.0</ele><time>2026-04-25T11:51:30.326Z</time></trkpt><trkpt lat="43.1869674" lon="12.8719382"><ele>497.0</ele><time>2026-04-25T11:51:31.327Z</time></trkpt><trkpt lat="43.1868658" lon="12.8720949"><ele>497.0</ele><time>2026-04-25T11:51:32.329Z</time></trkpt><trkpt lat="43.1867563" lon="12.872238"><ele>497.0</ele><time>2026-04-25T11:51:33.335Z</time></trkpt><trkpt lat="43.1866448" lon="12.8723672"><ele>497.0</ele><time>2026-04-25T11:51:34.334Z</time></trkpt><trkpt lat="43.1865336" lon="12.8724854"><ele>497.0</ele><time>2026-04-25T11:51:35.329Z</time></trkpt><trkpt lat="43.1864287" lon="12.8725975"><ele>497.0</ele><time>2026-04-25T11:51:36.331Z</time></trkpt><trkpt lat="43.1863435" lon="12.8727139"><ele>495.25</ele><time>2026-04-25T11:51:37.332Z</time></trkpt><trkpt lat="43.1862886" lon="12.8728516"><ele>493.5</ele><time>2026-04-25T11:51:38.332Z</time></trkpt><trkpt lat="43.1862688" lon="12.8730175"><ele>491.75</ele><time>2026-04-25T11:51:39.336Z</time></trkpt><trkpt lat="43.186276" lon="12.873208"><ele>490.0</ele><time>2026-04-25T11:51:40.323Z</time></trkpt><trkpt lat="43.1863091" lon="12.873399"><ele>489.5</ele><time>2026-04-25T11:51:41.321Z</time></trkpt><trkpt lat="43.1863489" lon="12.8735766"><ele>489.0</ele><time>2026-04-25T11:51:42.331Z</time></trkpt><trkpt lat="43.1863705" lon="12.873745"><ele>488.5</ele><time>2026-04-25T11:51:43.326Z</time></trkpt><trkpt lat="43.1863616" lon="12.87391"><ele>488.0</ele><time>2026-04-25T11:51:44.321Z</time></trkpt><trkpt lat="43.1863164" lon="12.8740761"><ele>488.0</ele><time>2026-04-25T11:51:45.324Z</time></trkpt><trkpt lat="43.1862407" lon="12.8742391"><ele>488.0</ele><time>2026-04-25T11:51:46.323Z</time></trkpt><trkpt lat="43.1861438" lon="12.8744007"><ele>488.0</ele><time>2026-04-25T11:51:47.327Z</time></trkpt><trkpt lat="43.1860332" lon="12.8745429"><ele>488.0</ele><time>2026-04-25T11:51:48.328Z</time></trkpt><trkpt lat="43.1859056" lon="12.8746519"><ele>489.25</ele><time>2026-04-25T11:51:49.322Z</time></trkpt><trkpt lat="43.18577" lon="12.8747416"><ele>490.5</ele><time>2026-04-25T11:51:50.33Z</time></trkpt><trkpt lat="43.1856524" lon="12.8748364"><ele>491.75</ele><time>2026-04-25T11:51:51.327Z</time></trkpt><trkpt lat="43.1855735" lon="12.8749639"><ele>493.0</ele><time>2026-04-25T11:51:52.328Z</time></trkpt><trkpt lat="43.1855284" lon="12.8751325"><ele>493.0</ele><time>2026-04-25T11:51:53.333Z</time></trkpt><trkpt lat="43.1855066" lon="12.8753285"><ele>493.0</ele><time>2026-04-25T11:51:54.33Z</time></trkpt><trkpt lat="43.185498" lon="12.8755518"><ele>493.0</ele><time>2026-04-25T11:51:55.326Z</time></trkpt><trkpt lat="43.1854963" lon="12.8757916"><ele>491.0</ele><time>2026-04-25T11:51:56.322Z</time></trkpt><trkpt lat="43.1855075" lon="12.8760312"><ele>489.0</ele><time>2026-04-25T11:51:57.326Z</time></trkpt><trkpt lat="43.1855355" lon="12.8762688"><ele>487.0</ele><time>2026-04-25T11:51:58.328Z</time></trkpt><trkpt lat="43.1855778" lon="12.876504"><ele>487.0</ele><time>2026-04-25T11:51:59.324Z</time></trkpt><trkpt lat="43.1856195" lon="12.8767345"><ele>487.0</ele><time>2026-04-25T11:52:00.329Z</time></trkpt><trkpt lat="43.1856555" lon="12.8769611"><ele>487.0</ele><time>2026-04-25T11:52:01.326Z</time></trkpt><trkpt lat="43.1856829" lon="12.8771797"><ele>488.6666666666667</ele><time>2026-04-25T11:52:02.334Z</time></trkpt><trkpt lat="43.1856991" lon="12.877391"><ele>490.33333333333337</ele><time>2026-04-25T11:52:03.327Z</time></trkpt><trkpt lat="43.1857068" lon="12.8775991"><ele>492.0</ele><time>2026-04-25T11:52:04.332Z</time></trkpt><trkpt lat="43.1857044" lon="12.8778039"><ele>491.75</ele><time>2026-04-25T11:52:05.32Z</time></trkpt><trkpt lat="43.1856927" lon="12.878005"><ele>491.5</ele><time>2026-04-25T11:52:06.331Z</time></trkpt><trkpt lat="43.1856687" lon="12.8781964"><ele>491.25</ele><time>2026-04-25T11:52:07.322Z</time></trkpt><trkpt lat="43.1856244" lon="12.8783716"><ele>491.0</ele><time>2026-04-25T11:52:08.329Z</time></trkpt><trkpt lat="43.1855494" lon="12.8785215"><ele>491.0</ele><time>2026-04-25T11:52:09.328Z</time></trkpt><trkpt lat="43.1854472" lon="12.8786408"><ele>491.0</ele><time>2026-04-25T11:52:10.324Z</time></trkpt><trkpt lat="43.1853092" lon="12.8787128"><ele>491.0</ele><time>2026-04-25T11:52:11.326Z</time></trkpt><trkpt lat="43.1851213" lon="12.878725"><ele>491.0</ele><time>2026-04-25T11:52:12.329Z</time></trkpt><trkpt lat="43.1849268" lon="12.8786943"><ele>491.0</ele><time>2026-04-25T11:52:13.325Z</time></trkpt><trkpt lat="43.1847396" lon="12.8786334"><ele>491.0</ele><time>2026-04-25T11:52:14.324Z</time></trkpt><trkpt lat="43.1845653" lon="12.8785751"><ele>487.66666666666663</ele><time>2026-04-25T11:52:15.331Z</time></trkpt><trkpt lat="43.1844019" lon="12.8785381"><ele>484.33333333333337</ele><time>2026-04-25T11:52:16.328Z</time></trkpt><trkpt lat="43.1842467" lon="12.8785146"><ele>481.0</ele><time>2026-04-25T11:52:17.33Z</time></trkpt><trkpt lat="43.1841031" lon="12.8785037"><ele>480.75</ele><time>2026-04-25T11:52:18.325Z</time></trkpt><trkpt lat="43.1839716" lon="12.8785197"><ele>480.5</ele><time>2026-04-25T11:52:19.328Z</time></trkpt><trkpt lat="43.1838521" lon="12.8785685"><ele>480.25</ele><time>2026-04-25T11:52:20.323Z</time></trkpt><trkpt lat="43.1837429" lon="12.8786495"><ele>480.0</ele><time>2026-04-25T11:52:21.325Z</time></trkpt><trkpt lat="43.1836491" lon="12.8787599"><ele>480.0</ele><time>2026-04-25T11:52:22.332Z</time></trkpt><trkpt lat="43.1835662" lon="12.8788773"><ele>480.0</ele><time>2026-04-25T11:52:23.325Z</time></trkpt><trkpt lat="43.1834904" lon="12.8789842"><ele>480.0</ele><time>2026-04-25T11:52:24.32Z</time></trkpt><trkpt lat="43.1834259" lon="12.8790743"><ele>480.0</ele><time>2026-04-25T11:52:25.325Z</time></trkpt><trkpt lat="43.1833808" lon="12.8791492"><ele>480.0</ele><time>2026-04-25T11:52:26.327Z</time></trkpt><trkpt lat="43.1833502" lon="12.8792569"><ele>479.8</ele><time>2026-04-25T11:52:28.322Z</time></trkpt><trkpt lat="43.1833746" lon="12.8793699"><ele>479.6</ele><time>2026-04-25T11:52:30.324Z</time></trkpt><trkpt lat="43.1834245" lon="12.8794535"><ele>479.4</ele><time>2026-04-25T11:52:31.328Z</time></trkpt><trkpt lat="43.1834989" lon="12.8795389"><ele>479.2</ele><time>2026-04-25T11:52:32.334Z</time></trkpt><trkpt lat="43.1835918" lon="12.8796326"><ele>479.0</ele><time>2026-04-25T11:52:33.326Z</time></trkpt><trkpt lat="43.1836993" lon="12.8797461"><ele>479.0</ele><time>2026-04-25T11:52:34.324Z</time></trkpt><trkpt lat="43.1838169" lon="12.879877"><ele>479.0</ele><time>2026-04-25T11:52:35.326Z</time></trkpt><trkpt lat="43.1839333" lon="12.8800136"><ele>479.0</ele><time>2026-04-25T11:52:36.331Z</time></trkpt><trkpt lat="43.184027" lon="12.8801366"><ele>479.0</ele><time>2026-04-25T11:52:37.331Z</time></trkpt><trkpt lat="43.1841015" lon="12.880236"><ele>479.16666666666663</ele><time>2026-04-25T11:52:38.33Z</time></trkpt><trkpt lat="43.1841573" lon="12.8803198"><ele>479.3333333333333</ele><time>2026-04-25T11:52:39.329Z</time></trkpt><trkpt lat="43.1842207" lon="12.8804304"><ele>479.5</ele><time>2026-04-25T11:52:41.316Z</time></trkpt><trkpt lat="43.184271" lon="12.8804844"><ele>479.66666666666663</ele><time>2026-04-25T12:00:47.322Z</time></trkpt><trkpt lat="43.1843522" lon="12.8805444"><ele>479.8333333333333</ele><time>2026-04-25T12:00:49.33Z</time></trkpt><trkpt lat="43.1844107" lon="12.880613"><ele>480.0</ele><time>2026-04-25T12:00:50.328Z</time></trkpt><trkpt lat="43.1844724" lon="12.8807034"><ele>480.0</ele><time>2026-04-25T12:00:51.33Z</time></trkpt><trkpt lat="43.184534" lon="12.8808049"><ele>480.0</ele><time>2026-04-25T12:00:52.343Z</time></trkpt><trkpt lat="43.184599" lon="12.8809177"><ele>480.0</ele><time>2026-04-25T12:00:53.343Z</time></trkpt><trkpt lat="43.18467" lon="12.8810436"><ele>480.0</ele><time>2026-04-25T12:00:54.344Z</time></trkpt><trkpt lat="43.1847384" lon="12.8811768"><ele>480.0</ele><time>2026-04-25T12:00:55.341Z</time></trkpt><trkpt lat="43.1848021" lon="12.8813163"><ele>481.0</ele><time>2026-04-25T12:00:56.347Z</time></trkpt><trkpt lat="43.1848663" lon="12.8814577"><ele>482.0</ele><time>2026-04-25T12:00:57.344Z</time></trkpt><trkpt lat="43.1849245" lon="12.8816026"><ele>483.0</ele><time>2026-04-25T12:00:58.346Z</time></trkpt><trkpt lat="43.1849696" lon="12.8817532"><ele>484.0</ele><time>2026-04-25T12:00:59.347Z</time></trkpt><trkpt lat="43.184992" lon="12.881921"><ele>484.0</ele><time>2026-04-25T12:01:00.343Z</time></trkpt><trkpt lat="43.1849935" lon="12.882113"><ele>484.0</ele><time>2026-04-25T12:01:01.343Z</time></trkpt><trkpt lat="43.1849822" lon="12.8823194"><ele>484.0</ele><time>2026-04-25T12:01:02.335Z</time></trkpt><trkpt lat="43.1849693" lon="12.8825341"><ele>484.0</ele><time>2026-04-25T12:01:03.345Z</time></trkpt><trkpt lat="43.1849571" lon="12.8827483"><ele>484.25</ele><time>2026-04-25T12:01:04.343Z</time></trkpt><trkpt lat="43.1849455" lon="12.8829555"><ele>484.5</ele><time>2026-04-25T12:01:05.344Z</time></trkpt><trkpt lat="43.1849302" lon="12.8831557"><ele>484.75</ele><time>2026-04-25T12:01:06.346Z</time></trkpt><trkpt lat="43.1848986" lon="12.8833533"><ele>485.0</ele><time>2026-04-25T12:01:07.337Z</time></trkpt><trkpt lat="43.1848418" lon="12.8835471"><ele>485.75</ele><time>2026-04-25T12:01:08.323Z</time></trkpt><trkpt lat="43.1847716" lon="12.8837282"><ele>486.5</ele><time>2026-04-25T12:01:09.346Z</time></trkpt><trkpt lat="43.1847229" lon="12.8839068"><ele>487.25</ele><time>2026-04-25T12:01:10.337Z</time></trkpt><trkpt lat="43.184709" lon="12.8840955"><ele>488.0</ele><time>2026-04-25T12:01:11.345Z</time></trkpt><trkpt lat="43.1847332" lon="12.884294"><ele>489.0</ele><time>2026-04-25T12:01:12.333Z</time></trkpt><trkpt lat="43.1847935" lon="12.8844939"><ele>490.0</ele><time>2026-04-25T12:01:13.331Z</time></trkpt><trkpt lat="43.1848671" lon="12.8846997"><ele>491.0</ele><time>2026-04-25T12:01:14.341Z</time></trkpt><trkpt lat="43.1849439" lon="12.8849205"><ele>488.0</ele><time>2026-04-25T12:01:15.344Z</time></trkpt><trkpt lat="43.1850222" lon="12.8851646"><ele>485.0</ele><time>2026-04-25T12:01:16.347Z</time></trkpt><trkpt lat="43.1850983" lon="12.885421"><ele>482.0</ele><time>2026-04-25T12:01:17.349Z</time></trkpt><trkpt lat="43.1851805" lon="12.8856791"><ele>481.0</ele><time>2026-04-25T12:01:18.346Z</time></trkpt><trkpt lat="43.1852634" lon="12.885942"><ele>480.0</ele><time>2026-04-25T12:01:19.326Z</time></trkpt><trkpt lat="43.1853488" lon="12.8862158"><ele>479.0</ele><time>2026-04-25T12:01:20.343Z</time></trkpt><trkpt lat="43.1854313" lon="12.8864909"><ele>479.0</ele><time>2026-04-25T12:01:21.344Z</time></trkpt><trkpt lat="43.1855106" lon="12.8867542"><ele>479.0</ele><time>2026-04-25T12:01:22.34Z</time></trkpt><trkpt lat="43.1855846" lon="12.8870069"><ele>479.0</ele><time>2026-04-25T12:01:23.335Z</time></trkpt><trkpt lat="43.1856534" lon="12.8872564"><ele>481.0</ele><time>2026-04-25T12:01:24.335Z</time></trkpt><trkpt lat="43.1857125" lon="12.8875024"><ele>483.0</ele><time>2026-04-25T12:01:25.345Z</time></trkpt><trkpt lat="43.1857585" lon="12.8877469"><ele>485.0</ele><time>2026-04-25T12:01:26.345Z</time></trkpt><trkpt lat="43.1857858" lon="12.8879837"><ele>485.0</ele><time>2026-04-25T12:01:27.346Z</time></trkpt><trkpt lat="43.1858025" lon="12.8882007"><ele>485.0</ele><time>2026-04-25T12:01:28.346Z</time></trkpt><trkpt lat="43.18582" lon="12.8883986"><ele>485.0</ele><time>2026-04-25T12:01:29.343Z</time></trkpt><trkpt lat="43.1858561" lon="12.8885749"><ele>485.0</ele><time>2026-04-25T12:01:30.347Z</time></trkpt><trkpt lat="43.1859378" lon="12.8887163"><ele>484.66666666666663</ele><time>2026-04-25T12:01:31.349Z</time></trkpt><trkpt lat="43.1860707" lon="12.8888217"><ele>484.33333333333337</ele><time>2026-04-25T12:01:32.348Z</time></trkpt><trkpt lat="43.1862431" lon="12.8888795"><ele>484.0</ele><time>2026-04-25T12:01:33.344Z</time></trkpt><trkpt lat="43.1864238" lon="12.8888858"><ele>483.33333333333337</ele><time>2026-04-25T12:01:34.345Z</time></trkpt><trkpt lat="43.1866131" lon="12.8888654"><ele>482.66666666666663</ele><time>2026-04-25T12:01:35.34Z</time></trkpt><trkpt lat="43.1868036" lon="12.8888019"><ele>482.0</ele><time>2026-04-25T12:01:36.346Z</time></trkpt><trkpt lat="43.1869862" lon="12.8887203"><ele>482.0</ele><time>2026-04-25T12:01:37.348Z</time></trkpt><trkpt lat="43.187148" lon="12.8886657"><ele>482.0</ele><time>2026-04-25T12:01:38.34Z</time></trkpt><trkpt lat="43.1873021" lon="12.8886596"><ele>482.0</ele><time>2026-04-25T12:01:39.339Z</time></trkpt><trkpt lat="43.1874366" lon="12.8887205"><ele>480.5</ele><time>2026-04-25T12:01:40.32Z</time></trkpt><trkpt lat="43.1875655" lon="12.8888386"><ele>479.0</ele><time>2026-04-25T12:01:41.345Z</time></trkpt><trkpt lat="43.1876676" lon="12.8889705"><ele>477.5</ele><time>2026-04-25T12:01:42.342Z</time></trkpt><trkpt lat="43.1877307" lon="12.8891059"><ele>476.0</ele><time>2026-04-25T12:01:43.334Z</time></trkpt><trkpt lat="43.1877649" lon="12.889244"><ele>481.0</ele><time>2026-04-25T12:01:44.345Z</time></trkpt><trkpt lat="43.1878082" lon="12.8894156"><ele>486.0</ele><time>2026-04-25T12:01:45.342Z</time></trkpt><trkpt lat="43.1878408" lon="12.8895834"><ele>491.0</ele><time>2026-04-25T12:01:46.334Z</time></trkpt><trkpt lat="43.1879468" lon="12.8897814"><ele>496.0</ele><time>2026-04-25T12:01:47.342Z</time></trkpt><trkpt lat="43.188076" lon="12.8900121"><ele>491.0</ele><time>2026-04-25T12:01:48.344Z</time></trkpt><trkpt lat="43.1882048" lon="12.8902315"><ele>486.0</ele><time>2026-04-25T12:01:49.343Z</time></trkpt><trkpt lat="43.1883675" lon="12.8904605"><ele>481.0</ele><time>2026-04-25T12:01:50.34Z</time></trkpt><trkpt lat="43.1885598" lon="12.8906883"><ele>481.0</ele><time>2026-04-25T12:01:51.341Z</time></trkpt><trkpt lat="43.188752" lon="12.8909041"><ele>481.0</ele><time>2026-04-25T12:01:52.348Z</time></trkpt><trkpt lat="43.1889551" lon="12.8911146"><ele>478.0</ele><time>2026-04-25T12:01:53.336Z</time></trkpt><trkpt lat="43.1891527" lon="12.8913194"><ele>475.0</ele><time>2026-04-25T12:01:54.337Z</time></trkpt><trkpt lat="43.1893269" lon="12.8915258"><ele>475.0</ele><time>2026-04-25T12:01:55.344Z</time></trkpt><trkpt lat="43.189476" lon="12.8917414"><ele>475.0</ele><time>2026-04-25T12:01:56.335Z</time></trkpt><trkpt lat="43.1896082" lon="12.8919766"><ele>475.0</ele><time>2026-04-25T12:01:57.342Z</time></trkpt><trkpt lat="43.1897196" lon="12.8922352"><ele>477.0</ele><time>2026-04-25T12:01:58.346Z</time></trkpt><trkpt lat="43.1898246" lon="12.89251"><ele>479.0</ele><time>2026-04-25T12:01:59.348Z</time></trkpt><trkpt lat="43.1899351" lon="12.8927945"><ele>479.0</ele><time>2026-04-25T12:02:00.334Z</time></trkpt><trkpt lat="43.1900358" lon="12.8930789"><ele>479.0</ele><time>2026-04-25T12:02:01.346Z</time></trkpt><trkpt lat="43.1901297" lon="12.8933513"><ele>480.3333333333333</ele><time>2026-04-25T12:02:02.331Z</time></trkpt><trkpt lat="43.190212" lon="12.8936098"><ele>481.66666666666663</ele><time>2026-04-25T12:02:03.344Z</time></trkpt><trkpt lat="43.1902862" lon="12.8938501"><ele>483.0</ele><time>2026-04-25T12:02:04.347Z</time></trkpt><trkpt lat="43.1903542" lon="12.8940653"><ele>483.0</ele><time>2026-04-25T12:02:05.345Z</time></trkpt><trkpt lat="43.1904263" lon="12.8942521"><ele>483.0</ele><time>2026-04-25T12:02:06.329Z</time></trkpt><trkpt lat="43.190531" lon="12.8943981"><ele>483.0</ele><time>2026-04-25T12:02:07.347Z</time></trkpt><trkpt lat="43.1906682" lon="12.8945062"><ele>480.0</ele><time>2026-04-25T12:02:08.35Z</time></trkpt><trkpt lat="43.1908267" lon="12.8945875"><ele>477.0</ele><time>2026-04-25T12:02:09.345Z</time></trkpt><trkpt lat="43.1909827" lon="12.8946691"><ele>474.0</ele><time>2026-04-25T12:02:10.345Z</time></trkpt><trkpt lat="43.1911141" lon="12.8947733"><ele>474.0</ele><time>2026-04-25T12:02:11.345Z</time></trkpt><trkpt lat="43.1912635" lon="12.8949032"><ele>474.0</ele><time>2026-04-25T12:02:12.347Z</time></trkpt><trkpt lat="43.1915243" lon="12.8950881"><ele>475.0</ele><time>2026-04-25T12:02:13.343Z</time></trkpt><trkpt lat="43.1916355" lon="12.8952989"><ele>476.0</ele><time>2026-04-25T12:02:14.335Z</time></trkpt><trkpt lat="43.191728" lon="12.895527"><ele>477.0</ele><time>2026-04-25T12:02:15.343Z</time></trkpt><trkpt lat="43.1918241" lon="12.8957633"><ele>478.0</ele><time>2026-04-25T12:02:16.343Z</time></trkpt><trkpt lat="43.1919274" lon="12.8960034"><ele>479.0</ele><time>2026-04-25T12:02:17.345Z</time></trkpt><trkpt lat="43.1920382" lon="12.8962486"><ele>480.0</ele><time>2026-04-25T12:02:18.342Z</time></trkpt><trkpt lat="43.1921494" lon="12.8964985"><ele>480.0</ele><time>2026-04-25T12:02:19.346Z</time></trkpt><trkpt lat="43.1922753" lon="12.8967432"><ele>480.0</ele><time>2026-04-25T12:02:20.345Z</time></trkpt><trkpt lat="43.1924149" lon="12.8969742"><ele>480.0</ele><time>2026-04-25T12:02:21.343Z</time></trkpt><trkpt lat="43.1925556" lon="12.8971904"><ele>478.33333333333337</ele><time>2026-04-25T12:02:22.342Z</time></trkpt><trkpt lat="43.1926866" lon="12.8974025"><ele>476.6666666666667</ele><time>2026-04-25T12:02:23.347Z</time></trkpt><trkpt lat="43.1928034" lon="12.8976167"><ele>475.0</ele><time>2026-04-25T12:02:24.342Z</time></trkpt><trkpt lat="43.1928301" lon="12.8978122"><ele>474.0</ele><time>2026-04-25T12:02:25.347Z</time></trkpt><trkpt lat="43.1929429" lon="12.8980378"><ele>473.0</ele><time>2026-04-25T12:02:26.345Z</time></trkpt><trkpt lat="43.1930451" lon="12.8982595"><ele>472.0</ele><time>2026-04-25T12:02:27.335Z</time></trkpt><trkpt lat="43.1931505" lon="12.8984787"><ele>471.6666666666667</ele><time>2026-04-25T12:02:28.344Z</time></trkpt><trkpt lat="43.1932586" lon="12.898698"><ele>471.33333333333337</ele><time>2026-04-25T12:02:29.342Z</time></trkpt><trkpt lat="43.1933676" lon="12.8989192"><ele>471.0</ele><time>2026-04-25T12:02:30.339Z</time></trkpt><trkpt lat="43.1934766" lon="12.899142"><ele>471.66666666666663</ele><time>2026-04-25T12:02:31.344Z</time></trkpt><trkpt lat="43.1935846" lon="12.8993649"><ele>472.3333333333333</ele><time>2026-04-25T12:02:32.347Z</time></trkpt><trkpt lat="43.1936973" lon="12.8995877"><ele>473.0</ele><time>2026-04-25T12:02:33.341Z</time></trkpt><trkpt lat="43.1938132" lon="12.8998044"><ele>473.0</ele><time>2026-04-25T12:02:34.334Z</time></trkpt><trkpt lat="43.1939278" lon="12.9000018"><ele>473.0</ele><time>2026-04-25T12:02:35.343Z</time></trkpt><trkpt lat="43.1940427" lon="12.9001838"><ele>473.0</ele><time>2026-04-25T12:02:36.332Z</time></trkpt><trkpt lat="43.1941593" lon="12.900362"><ele>473.3333333333333</ele><time>2026-04-25T12:02:37.344Z</time></trkpt><trkpt lat="43.1942729" lon="12.9005483"><ele>473.66666666666663</ele><time>2026-04-25T12:02:38.335Z</time></trkpt><trkpt lat="43.1943767" lon="12.9007523"><ele>474.0</ele><time>2026-04-25T12:02:39.334Z</time></trkpt><trkpt lat="43.1944716" lon="12.9009641"><ele>474.0</ele><time>2026-04-25T12:02:40.337Z</time></trkpt><trkpt lat="43.194562" lon="12.9011717"><ele>474.0</ele><time>2026-04-25T12:02:41.345Z</time></trkpt><trkpt lat="43.194639" lon="12.9013686"><ele>474.0</ele><time>2026-04-25T12:02:42.337Z</time></trkpt><trkpt lat="43.1946933" lon="12.9015696"><ele>474.0</ele><time>2026-04-25T12:02:43.347Z</time></trkpt><trkpt lat="43.1947157" lon="12.901786"><ele>474.0</ele><time>2026-04-25T12:02:44.326Z</time></trkpt><trkpt lat="43.1947055" lon="12.9020198"><ele>474.0</ele><time>2026-04-25T12:02:45.344Z</time></trkpt><trkpt lat="43.1946743" lon="12.9022662"><ele>474.0</ele><time>2026-04-25T12:02:46.343Z</time></trkpt><trkpt lat="43.1946374" lon="12.9025275"><ele>474.0</ele><time>2026-04-25T12:02:47.342Z</time></trkpt><trkpt lat="43.1946026" lon="12.9028051"><ele>474.0</ele><time>2026-04-25T12:02:48.338Z</time></trkpt><trkpt lat="43.194563" lon="12.9030922"><ele>472.33333333333337</ele><time>2026-04-25T12:02:49.332Z</time></trkpt><trkpt lat="43.1945214" lon="12.9033856"><ele>470.6666666666667</ele><time>2026-04-25T12:02:50.346Z</time></trkpt><trkpt lat="43.1944817" lon="12.9036844"><ele>469.0</ele><time>2026-04-25T12:02:51.33Z</time></trkpt><trkpt lat="43.194445" lon="12.903984"><ele>468.6666666666667</ele><time>2026-04-25T12:02:52.348Z</time></trkpt><trkpt lat="43.1944116" lon="12.9042747"><ele>468.33333333333337</ele><time>2026-04-25T12:02:53.34Z</time></trkpt><trkpt lat="43.1943783" lon="12.9045492"><ele>468.0</ele><time>2026-04-25T12:02:54.33Z</time></trkpt><trkpt lat="43.1943484" lon="12.904811"><ele>468.0</ele><time>2026-04-25T12:02:55.346Z</time></trkpt><trkpt lat="43.1943265" lon="12.9050581"><ele>468.0</ele><time>2026-04-25T12:02:56.345Z</time></trkpt><trkpt lat="43.194319" lon="12.9052989"><ele>468.0</ele><time>2026-04-25T12:02:57.336Z</time></trkpt><trkpt lat="43.1943423" lon="12.9055327"><ele>467.0</ele><time>2026-04-25T12:02:58.348Z</time></trkpt><trkpt lat="43.1944012" lon="12.9057589"><ele>466.0</ele><time>2026-04-25T12:02:59.33Z</time></trkpt><trkpt lat="43.19449" lon="12.9059798"><ele>465.0</ele><time>2026-04-25T12:03:00.34Z</time></trkpt><trkpt lat="43.1945983" lon="12.9061927"><ele>465.33333333333337</ele><time>2026-04-25T12:03:01.334Z</time></trkpt><trkpt lat="43.1947218" lon="12.9064035"><ele>465.6666666666667</ele><time>2026-04-25T12:03:02.344Z</time></trkpt><trkpt lat="43.1948546" lon="12.9066194"><ele>466.0</ele><time>2026-04-25T12:03:03.346Z</time></trkpt><trkpt lat="43.1949849" lon="12.9068393"><ele>466.0</ele><time>2026-04-25T12:03:04.339Z</time></trkpt><trkpt lat="43.1951213" lon="12.9070611"><ele>466.0</ele><time>2026-04-25T12:03:05.338Z</time></trkpt><trkpt lat="43.1952605" lon="12.9072814"><ele>466.0</ele><time>2026-04-25T12:03:06.347Z</time></trkpt><trkpt lat="43.1954014" lon="12.9074925"><ele>464.6666666666667</ele><time>2026-04-25T12:03:07.347Z</time></trkpt><trkpt lat="43.1955364" lon="12.9076916"><ele>463.33333333333337</ele><time>2026-04-25T12:03:08.347Z</time></trkpt><trkpt lat="43.1956616" lon="12.9078728"><ele>462.0</ele><time>2026-04-25T12:03:09.348Z</time></trkpt><trkpt lat="43.1957725" lon="12.9080377"><ele>462.25</ele><time>2026-04-25T12:03:10.347Z</time></trkpt><trkpt lat="43.1958648" lon="12.9081976"><ele>462.5</ele><time>2026-04-25T12:03:11.334Z</time></trkpt><trkpt lat="43.1959331" lon="12.9083659"><ele>462.75</ele><time>2026-04-25T12:03:12.346Z</time></trkpt><trkpt lat="43.195966" lon="12.9085553"><ele>463.0</ele><time>2026-04-25T12:03:13.335Z</time></trkpt><trkpt lat="43.1959547" lon="12.9087587"><ele>463.0</ele><time>2026-04-25T12:03:14.347Z</time></trkpt><trkpt lat="43.1959074" lon="12.9089693"><ele>463.0</ele><time>2026-04-25T12:03:15.34Z</time></trkpt><trkpt lat="43.1958437" lon="12.9091866"><ele>463.0</ele><time>2026-04-25T12:03:16.33Z</time></trkpt><trkpt lat="43.1957759" lon="12.909413"><ele>462.6666666666667</ele><time>2026-04-25T12:03:17.337Z</time></trkpt><trkpt lat="43.1957114" lon="12.9096359"><ele>462.33333333333337</ele><time>2026-04-25T12:03:18.343Z</time></trkpt><trkpt lat="43.1956405" lon="12.909846"><ele>462.0</ele><time>2026-04-25T12:03:19.338Z</time></trkpt><trkpt lat="43.1955442" lon="12.9100347"><ele>465.33333333333337</ele><time>2026-04-25T12:03:20.342Z</time></trkpt><trkpt lat="43.1954143" lon="12.9102049"><ele>468.6666666666667</ele><time>2026-04-25T12:03:21.341Z</time></trkpt><trkpt lat="43.1952646" lon="12.9103579"><ele>472.0</ele><time>2026-04-25T12:03:22.325Z</time></trkpt><trkpt lat="43.1951199" lon="12.9104916"><ele>472.0</ele><time>2026-04-25T12:03:23.342Z</time></trkpt><trkpt lat="43.1949902" lon="12.9106223"><ele>472.0</ele><time>2026-04-25T12:03:24.336Z</time></trkpt><trkpt lat="43.194869" lon="12.9107504"><ele>472.0</ele><time>2026-04-25T12:03:25.325Z</time></trkpt><trkpt lat="43.1947558" lon="12.9108751"><ele>471.0</ele><time>2026-04-25T12:03:26.335Z</time></trkpt><trkpt lat="43.1946488" lon="12.9109899"><ele>470.0</ele><time>2026-04-25T12:03:27.334Z</time></trkpt><trkpt lat="43.1945465" lon="12.911095"><ele>469.0</ele><time>2026-04-25T12:03:28.331Z</time></trkpt><trkpt lat="43.1944479" lon="12.9111936"><ele>468.0</ele><time>2026-04-25T12:03:29.336Z</time></trkpt><trkpt lat="43.194348" lon="12.9112921"><ele>468.0</ele><time>2026-04-25T12:03:30.338Z</time></trkpt><trkpt lat="43.1942426" lon="12.9113978"><ele>468.0</ele><time>2026-04-25T12:03:31.341Z</time></trkpt><trkpt lat="43.1941303" lon="12.9115068"><ele>468.0</ele><time>2026-04-25T12:03:32.33Z</time></trkpt><trkpt lat="43.1940118" lon="12.9116178"><ele>468.0</ele><time>2026-04-25T12:03:33.349Z</time></trkpt><trkpt lat="43.193883" lon="12.9117252"><ele>468.0</ele><time>2026-04-25T12:03:34.336Z</time></trkpt><trkpt lat="43.1937444" lon="12.9118233"><ele>468.0</ele><time>2026-04-25T12:03:35.335Z</time></trkpt><trkpt lat="43.193596" lon="12.9119101"><ele>468.0</ele><time>2026-04-25T12:03:36.347Z</time></trkpt><trkpt lat="43.1934427" lon="12.9120009"><ele>468.0</ele><time>2026-04-25T12:03:37.341Z</time></trkpt><trkpt lat="43.19329" lon="12.9121119"><ele>468.0</ele><time>2026-04-25T12:03:38.335Z</time></trkpt><trkpt lat="43.193144" lon="12.9122535"><ele>468.0</ele><time>2026-04-25T12:03:39.341Z</time></trkpt><trkpt lat="43.1929984" lon="12.9124141"><ele>466.66666666666663</ele><time>2026-04-25T12:03:40.342Z</time></trkpt><trkpt lat="43.1928506" lon="12.9125833"><ele>465.3333333333333</ele><time>2026-04-25T12:03:41.343Z</time></trkpt><trkpt lat="43.1927041" lon="12.9127561"><ele>464.0</ele><time>2026-04-25T12:03:42.324Z</time></trkpt><trkpt lat="43.1925553" lon="12.9129326"><ele>464.0</ele><time>2026-04-25T12:03:43.345Z</time></trkpt><trkpt lat="43.1924022" lon="12.9131144"><ele>464.0</ele><time>2026-04-25T12:03:44.345Z</time></trkpt><trkpt lat="43.1922451" lon="12.9132995"><ele>464.0</ele><time>2026-04-25T12:03:45.342Z</time></trkpt><trkpt lat="43.1920846" lon="12.9134835"><ele>463.3333333333333</ele><time>2026-04-25T12:03:46.333Z</time></trkpt><trkpt lat="43.1919243" lon="12.9136616"><ele>462.66666666666663</ele><time>2026-04-25T12:03:47.342Z</time></trkpt><trkpt lat="43.1917688" lon="12.9138336"><ele>462.0</ele><time>2026-04-25T12:03:48.332Z</time></trkpt><trkpt lat="43.1916096" lon="12.9140054"><ele>461.66666666666663</ele><time>2026-04-25T12:03:49.333Z</time></trkpt><trkpt lat="43.191446" lon="12.9141828"><ele>461.3333333333333</ele><time>2026-04-25T12:03:50.346Z</time></trkpt><trkpt lat="43.1912834" lon="12.9143593"><ele>461.0</ele><time>2026-04-25T12:03:51.343Z</time></trkpt><trkpt lat="43.191125" lon="12.9145318"><ele>462.0</ele><time>2026-04-25T12:03:52.344Z</time></trkpt><trkpt lat="43.1909683" lon="12.9146972"><ele>463.0</ele><time>2026-04-25T12:03:53.343Z</time></trkpt><trkpt lat="43.190809" lon="12.9148565"><ele>464.0</ele><time>2026-04-25T12:03:54.34Z</time></trkpt><trkpt lat="43.1906429" lon="12.9150072"><ele>471.3333333333333</ele><time>2026-04-25T12:03:55.338Z</time></trkpt><trkpt lat="43.1904658" lon="12.9151433"><ele>478.66666666666663</ele><time>2026-04-25T12:03:56.33Z</time></trkpt><trkpt lat="43.1902801" lon="12.9152549"><ele>486.0</ele><time>2026-04-25T12:03:57.34Z</time></trkpt><trkpt lat="43.1900802" lon="12.9153441"><ele>486.0</ele><time>2026-04-25T12:03:58.342Z</time></trkpt><trkpt lat="43.1898737" lon="12.9154167"><ele>486.0</ele><time>2026-04-25T12:03:59.343Z</time></trkpt><trkpt lat="43.1896724" lon="12.9154616"><ele>486.0</ele><time>2026-04-25T12:04:00.334Z</time></trkpt><trkpt lat="43.1894708" lon="12.9154721"><ele>484.66666666666663</ele><time>2026-04-25T12:04:01.334Z</time></trkpt><trkpt lat="43.1892705" lon="12.9154459"><ele>483.3333333333333</ele><time>2026-04-25T12:04:02.334Z</time></trkpt><trkpt lat="43.1890697" lon="12.9154134"><ele>482.0</ele><time>2026-04-25T12:04:03.344Z</time></trkpt><trkpt lat="43.1888672" lon="12.9154095"><ele>479.66666666666663</ele><time>2026-04-25T12:04:04.334Z</time></trkpt><trkpt lat="43.1886627" lon="12.9154364"><ele>477.33333333333337</ele><time>2026-04-25T12:04:05.342Z</time></trkpt><trkpt lat="43.1884555" lon="12.9154822"><ele>475.0</ele><time>2026-04-25T12:04:06.346Z</time></trkpt><trkpt lat="43.1882509" lon="12.915536"><ele>472.33333333333337</ele><time>2026-04-25T12:04:07.337Z</time></trkpt><trkpt lat="43.1880516" lon="12.915586"><ele>469.66666666666663</ele><time>2026-04-25T12:04:08.338Z</time></trkpt><trkpt lat="43.1878656" lon="12.9156331"><ele>467.0</ele><time>2026-04-25T12:04:09.338Z</time></trkpt><trkpt lat="43.1876897" lon="12.9156804"><ele>467.0</ele><time>2026-04-25T12:04:10.34Z</time></trkpt><trkpt lat="43.1875245" lon="12.9157362"><ele>467.0</ele><time>2026-04-25T12:04:11.336Z</time></trkpt><trkpt lat="43.1873697" lon="12.9158062"><ele>467.0</ele><time>2026-04-25T12:04:12.335Z</time></trkpt><trkpt lat="43.187219" lon="12.9158936"><ele>466.3333333333333</ele><time>2026-04-25T12:04:13.341Z</time></trkpt><trkpt lat="43.1870752" lon="12.9160135"><ele>465.66666666666663</ele><time>2026-04-25T12:04:14.333Z</time></trkpt><trkpt lat="43.1869383" lon="12.9161738"><ele>465.0</ele><time>2026-04-25T12:04:15.322Z</time></trkpt><trkpt lat="43.1868045" lon="12.9163553"><ele>465.0</ele><time>2026-04-25T12:04:16.341Z</time></trkpt><trkpt lat="43.1866689" lon="12.9165375"><ele>465.0</ele><time>2026-04-25T12:04:17.345Z</time></trkpt><trkpt lat="43.186531" lon="12.9167132"><ele>465.0</ele><time>2026-04-25T12:04:18.334Z</time></trkpt><trkpt lat="43.1863932" lon="12.9168826"><ele>463.66666666666663</ele><time>2026-04-25T12:04:19.329Z</time></trkpt><trkpt lat="43.1862535" lon="12.9170556"><ele>462.3333333333333</ele><time>2026-04-25T12:04:20.342Z</time></trkpt><trkpt lat="43.1861196" lon="12.9172344"><ele>461.0</ele><time>2026-04-25T12:04:21.339Z</time></trkpt><trkpt lat="43.1859917" lon="12.9174238"><ele>460.3333333333333</ele><time>2026-04-25T12:04:22.343Z</time></trkpt><trkpt lat="43.1858726" lon="12.917624"><ele>459.66666666666663</ele><time>2026-04-25T12:04:23.338Z</time></trkpt><trkpt lat="43.1857622" lon="12.917836"><ele>459.0</ele><time>2026-04-25T12:04:24.345Z</time></trkpt><trkpt lat="43.1856628" lon="12.918059"><ele>459.0</ele><time>2026-04-25T12:04:25.347Z</time></trkpt><trkpt lat="43.1855738" lon="12.91829"><ele>459.0</ele><time>2026-04-25T12:04:26.334Z</time></trkpt><trkpt lat="43.1854894" lon="12.9185284"><ele>459.0</ele><time>2026-04-25T12:04:27.344Z</time></trkpt><trkpt lat="43.1854099" lon="12.9187698"><ele>459.0</ele><time>2026-04-25T12:04:28.331Z</time></trkpt><trkpt lat="43.1853334" lon="12.9190111"><ele>459.0</ele><time>2026-04-25T12:04:29.335Z</time></trkpt><trkpt lat="43.1852629" lon="12.9192545"><ele>459.0</ele><time>2026-04-25T12:04:30.34Z</time></trkpt><trkpt lat="43.1852092" lon="12.9195039"><ele>460.0</ele><time>2026-04-25T12:04:31.351Z</time></trkpt><trkpt lat="43.1851727" lon="12.919758"><ele>461.0</ele><time>2026-04-25T12:04:32.349Z</time></trkpt><trkpt lat="43.1851457" lon="12.9200142"><ele>462.0</ele><time>2026-04-25T12:04:33.347Z</time></trkpt><trkpt lat="43.1851124" lon="12.9202619"><ele>463.66666666666663</ele><time>2026-04-25T12:04:34.334Z</time></trkpt><trkpt lat="43.1850594" lon="12.9205037"><ele>465.3333333333333</ele><time>2026-04-25T12:04:35.343Z</time></trkpt><trkpt lat="43.1849901" lon="12.9207409"><ele>467.0</ele><time>2026-04-25T12:04:36.336Z</time></trkpt><trkpt lat="43.1849032" lon="12.9209629"><ele>464.0</ele><time>2026-04-25T12:04:37.347Z</time></trkpt><trkpt lat="43.1848089" lon="12.9211672"><ele>461.0</ele><time>2026-04-25T12:04:38.345Z</time></trkpt><trkpt lat="43.1847182" lon="12.9213677"><ele>458.0</ele><time>2026-04-25T12:04:39.335Z</time></trkpt><trkpt lat="43.1846367" lon="12.9215679"><ele>458.66666666666663</ele><time>2026-04-25T12:04:40.346Z</time></trkpt><trkpt lat="43.1845551" lon="12.9217681"><ele>459.33333333333337</ele><time>2026-04-25T12:04:41.342Z</time></trkpt><trkpt lat="43.1844775" lon="12.92197"><ele>460.0</ele><time>2026-04-25T12:04:42.326Z</time></trkpt><trkpt lat="43.1844091" lon="12.9221641"><ele>460.0</ele><time>2026-04-25T12:04:43.326Z</time></trkpt><trkpt lat="43.184353" lon="12.9223421"><ele>460.0</ele><time>2026-04-25T12:04:44.335Z</time></trkpt><trkpt lat="43.1843113" lon="12.9225062"><ele>460.0</ele><time>2026-04-25T12:04:45.344Z</time></trkpt><trkpt lat="43.1842773" lon="12.9226547"><ele>460.0</ele><time>2026-04-25T12:04:46.345Z</time></trkpt><trkpt lat="43.1842412" lon="12.922796"><ele>460.0</ele><time>2026-04-25T12:04:47.342Z</time></trkpt><trkpt lat="43.1842044" lon="12.9229367"><ele>460.0</ele><time>2026-04-25T12:04:48.331Z</time></trkpt><trkpt lat="43.1841675" lon="12.9230815"><ele>460.0</ele><time>2026-04-25T12:04:49.323Z</time></trkpt><trkpt lat="43.1841317" lon="12.923229"><ele>460.0</ele><time>2026-04-25T12:04:50.341Z</time></trkpt><trkpt lat="43.184098" lon="12.92338"><ele>460.0</ele><time>2026-04-25T12:04:51.342Z</time></trkpt><trkpt lat="43.1840662" lon="12.9235327"><ele>460.75</ele><time>2026-04-25T12:04:52.336Z</time></trkpt><trkpt lat="43.1840373" lon="12.9236877"><ele>461.5</ele><time>2026-04-25T12:04:53.34Z</time></trkpt><trkpt lat="43.1840086" lon="12.9238458"><ele>462.25</ele><time>2026-04-25T12:04:54.335Z</time></trkpt><trkpt lat="43.1839802" lon="12.9240073"><ele>463.0</ele><time>2026-04-25T12:04:55.33Z</time></trkpt><trkpt lat="43.1839523" lon="12.9241688"><ele>461.0</ele><time>2026-04-25T12:04:56.336Z</time></trkpt><trkpt lat="43.1839263" lon="12.924331"><ele>459.0</ele><time>2026-04-25T12:04:57.347Z</time></trkpt><trkpt lat="43.1839049" lon="12.9245001"><ele>457.0</ele><time>2026-04-25T12:04:58.345Z</time></trkpt><trkpt lat="43.1838917" lon="12.9246758"><ele>455.0</ele><time>2026-04-25T12:04:59.344Z</time></trkpt><trkpt lat="43.1838864" lon="12.9248524"><ele>455.0</ele><time>2026-04-25T12:05:00.345Z</time></trkpt><trkpt lat="43.1838899" lon="12.9250323"><ele>455.0</ele><time>2026-04-25T12:05:01.347Z</time></trkpt><trkpt lat="43.1839022" lon="12.9252173"><ele>455.0</ele><time>2026-04-25T12:05:02.342Z</time></trkpt><trkpt lat="43.1839246" lon="12.9254099"><ele>455.0</ele><time>2026-04-25T12:05:03.349Z</time></trkpt><trkpt lat="43.1839505" lon="12.9256105"><ele>454.66666666666663</ele><time>2026-04-25T12:05:04.334Z</time></trkpt><trkpt lat="43.1839796" lon="12.9258185"><ele>454.33333333333337</ele><time>2026-04-25T12:05:05.345Z</time></trkpt><trkpt lat="43.184005" lon="12.9260323"><ele>454.0</ele><time>2026-04-25T12:05:06.345Z</time></trkpt><trkpt lat="43.1840281" lon="12.9262511"><ele>453.0</ele><time>2026-04-25T12:05:07.348Z</time></trkpt><trkpt lat="43.184051" lon="12.9264761"><ele>452.0</ele><time>2026-04-25T12:05:08.338Z</time></trkpt><trkpt lat="43.1840757" lon="12.9267115"><ele>451.0</ele><time>2026-04-25T12:05:09.331Z</time></trkpt><trkpt lat="43.1841023" lon="12.9269608"><ele>451.0</ele><time>2026-04-25T12:05:10.346Z</time></trkpt><trkpt lat="43.1841309" lon="12.9272197"><ele>451.0</ele><time>2026-04-25T12:05:11.343Z</time></trkpt><trkpt lat="43.1841616" lon="12.9274861"><ele>451.0</ele><time>2026-04-25T12:05:12.337Z</time></trkpt><trkpt lat="43.1841903" lon="12.9277548"><ele>451.0</ele><time>2026-04-25T12:05:13.335Z</time></trkpt><trkpt lat="43.1842171" lon="12.9280302"><ele>451.0</ele><time>2026-04-25T12:05:14.344Z</time></trkpt><trkpt lat="43.1842476" lon="12.9283152"><ele>451.0</ele><time>2026-04-25T12:05:15.348Z</time></trkpt><trkpt lat="43.1842827" lon="12.9286075"><ele>451.0</ele><time>2026-04-25T12:05:16.349Z</time></trkpt><trkpt lat="43.1843191" lon="12.9289067"><ele>451.0</ele><time>2026-04-25T12:05:17.347Z</time></trkpt><trkpt lat="43.1843536" lon="12.9292134"><ele>451.0</ele><time>2026-04-25T12:05:18.348Z</time></trkpt><trkpt lat="43.1843889" lon="12.9295267"><ele>451.5</ele><time>2026-04-25T12:05:19.338Z</time></trkpt><trkpt lat="43.1844247" lon="12.9298452"><ele>452.0</ele><time>2026-04-25T12:05:20.327Z</time></trkpt><trkpt lat="43.1844611" lon="12.9301635"><ele>452.0</ele><time>2026-04-25T12:05:21.336Z</time></trkpt><trkpt lat="43.1844969" lon="12.9304815"><ele>452.0</ele><time>2026-04-25T12:05:22.338Z</time></trkpt><trkpt lat="43.184534" lon="12.9308111"><ele>451.0</ele><time>2026-04-25T12:05:23.348Z</time></trkpt><trkpt lat="43.1845721" lon="12.9311476"><ele>450.0</ele><time>2026-04-25T12:05:24.346Z</time></trkpt><trkpt lat="43.1846138" lon="12.9314754"><ele>450.0</ele><time>2026-04-25T12:05:25.348Z</time></trkpt><trkpt lat="43.1846536" lon="12.9317862"><ele>450.0</ele><time>2026-04-25T12:05:26.333Z</time></trkpt><trkpt lat="43.18469" lon="12.9320827"><ele>450.0</ele><time>2026-04-25T12:05:27.334Z</time></trkpt><trkpt lat="43.1847242" lon="12.9323663"><ele>450.33333333333337</ele><time>2026-04-25T12:05:28.339Z</time></trkpt><trkpt lat="43.1847537" lon="12.9326398"><ele>450.6666666666667</ele><time>2026-04-25T12:05:29.352Z</time></trkpt><trkpt lat="43.1847795" lon="12.9329039"><ele>451.0</ele><time>2026-04-25T12:05:30.342Z</time></trkpt><trkpt lat="43.1848002" lon="12.9331488"><ele>451.0</ele><time>2026-04-25T12:05:31.339Z</time></trkpt><trkpt lat="43.1848148" lon="12.9333837"><ele>451.0</ele><time>2026-04-25T12:05:32.355Z</time></trkpt><trkpt lat="43.184817" lon="12.9336224"><ele>451.0</ele><time>2026-04-25T12:05:33.341Z</time></trkpt><trkpt lat="43.1848058" lon="12.9338717"><ele>451.0</ele><time>2026-04-25T12:05:34.349Z</time></trkpt><trkpt lat="43.1847855" lon="12.9341249"><ele>451.0</ele><time>2026-04-25T12:05:35.34Z</time></trkpt><trkpt lat="43.184758" lon="12.9343802"><ele>451.0</ele><time>2026-04-25T12:05:36.349Z</time></trkpt><trkpt lat="43.1847327" lon="12.9346379"><ele>451.33333333333337</ele><time>2026-04-25T12:05:37.35Z</time></trkpt><trkpt lat="43.1847121" lon="12.9348959"><ele>451.66666666666663</ele><time>2026-04-25T12:05:38.353Z</time></trkpt><trkpt lat="43.1846963" lon="12.9351581"><ele>452.0</ele><time>2026-04-25T12:05:39.341Z</time></trkpt><trkpt lat="43.1846794" lon="12.9354193"><ele>452.0</ele><time>2026-04-25T12:05:40.346Z</time></trkpt><trkpt lat="43.1846649" lon="12.9356724"><ele>452.0</ele><time>2026-04-25T12:05:41.338Z</time></trkpt><trkpt lat="43.1846499" lon="12.935917"><ele>452.0</ele><time>2026-04-25T12:05:42.354Z</time></trkpt><trkpt lat="43.1846385" lon="12.936166"><ele>451.66666666666663</ele><time>2026-04-25T12:05:43.352Z</time></trkpt><trkpt lat="43.1846275" lon="12.9364228"><ele>451.33333333333337</ele><time>2026-04-25T12:05:44.35Z</time></trkpt><trkpt lat="43.184616" lon="12.9366849"><ele>451.0</ele><time>2026-04-25T12:05:45.353Z</time></trkpt><trkpt lat="43.1846062" lon="12.9369522"><ele>450.33333333333337</ele><time>2026-04-25T12:05:46.342Z</time></trkpt><trkpt lat="43.1845998" lon="12.9372254"><ele>449.66666666666663</ele><time>2026-04-25T12:05:47.345Z</time></trkpt><trkpt lat="43.1846001" lon="12.9375028"><ele>449.0</ele><time>2026-04-25T12:05:48.333Z</time></trkpt><trkpt lat="43.1846051" lon="12.9377847"><ele>448.66666666666663</ele><time>2026-04-25T12:05:49.341Z</time></trkpt><trkpt lat="43.184613" lon="12.9380712"><ele>448.33333333333337</ele><time>2026-04-25T12:05:50.351Z</time></trkpt><trkpt lat="43.1846197" lon="12.9383535"><ele>448.0</ele><time>2026-04-25T12:05:51.348Z</time></trkpt><trkpt lat="43.184626" lon="12.938628"><ele>448.0</ele><time>2026-04-25T12:05:52.352Z</time></trkpt><trkpt lat="43.1846286" lon="12.9388947"><ele>448.0</ele><time>2026-04-25T12:05:53.341Z</time></trkpt><trkpt lat="43.1846286" lon="12.9391587"><ele>448.0</ele><time>2026-04-25T12:05:54.351Z</time></trkpt><trkpt lat="43.1846241" lon="12.9394189"><ele>448.33333333333337</ele><time>2026-04-25T12:05:55.344Z</time></trkpt><trkpt lat="43.1846129" lon="12.9396722"><ele>448.66666666666663</ele><time>2026-04-25T12:05:56.347Z</time></trkpt><trkpt lat="43.1845967" lon="12.9399159"><ele>449.0</ele><time>2026-04-25T12:05:57.341Z</time></trkpt><trkpt lat="43.1845775" lon="12.9401471"><ele>449.25</ele><time>2026-04-25T12:05:58.351Z</time></trkpt><trkpt lat="43.1845604" lon="12.940367"><ele>449.5</ele><time>2026-04-25T12:05:59.338Z</time></trkpt><trkpt lat="43.1845457" lon="12.9405728"><ele>449.75</ele><time>2026-04-25T12:06:00.332Z</time></trkpt><trkpt lat="43.1845317" lon="12.94076"><ele>450.0</ele><time>2026-04-25T12:06:01.353Z</time></trkpt><trkpt lat="43.1845199" lon="12.9409284"><ele>449.6666666666667</ele><time>2026-04-25T12:06:02.342Z</time></trkpt><trkpt lat="43.1845114" lon="12.9410779"><ele>449.33333333333337</ele><time>2026-04-25T12:06:03.347Z</time></trkpt><trkpt lat="43.1845059" lon="12.9412084"><ele>449.0</ele><time>2026-04-25T12:06:04.356Z</time></trkpt><trkpt lat="43.1845117" lon="12.9413264"><ele>448.6666666666667</ele><time>2026-04-25T12:06:05.349Z</time></trkpt><trkpt lat="43.1845385" lon="12.9414298"><ele>448.33333333333337</ele><time>2026-04-25T12:06:06.346Z</time></trkpt><trkpt lat="43.1845857" lon="12.9415146"><ele>448.0</ele><time>2026-04-25T12:06:07.342Z</time></trkpt><trkpt lat="43.1846432" lon="12.9415702"><ele>448.0</ele><time>2026-04-25T12:06:08.341Z</time></trkpt><trkpt lat="43.184749" lon="12.9415946"><ele>447.99999999999994</ele><time>2026-04-25T12:06:10.356Z</time></trkpt><trkpt lat="43.1848272" lon="12.9415719"><ele>447.99999999999994</ele><time>2026-04-25T12:06:32.353Z</time></trkpt><trkpt lat="43.1849622" lon="12.9415475"><ele>448.0</ele><time>2026-04-25T12:06:34.349Z</time></trkpt><trkpt lat="43.1850541" lon="12.941519"><ele>448.0</ele><time>2026-04-25T12:06:35.349Z</time></trkpt><trkpt lat="43.1851557" lon="12.941492"><ele>448.0</ele><time>2026-04-25T12:06:36.346Z</time></trkpt><trkpt lat="43.1852735" lon="12.9414714"><ele>448.0</ele><time>2026-04-25T12:06:37.335Z</time></trkpt><trkpt lat="43.1854036" lon="12.9414571"><ele>448.0</ele><time>2026-04-25T12:06:38.351Z</time></trkpt><trkpt lat="43.185534" lon="12.9414433"><ele>448.0</ele><time>2026-04-25T12:06:39.35Z</time></trkpt><trkpt lat="43.1856671" lon="12.941429"><ele>447.75</ele><time>2026-04-25T12:06:40.347Z</time></trkpt><trkpt lat="43.185795" lon="12.9414109"><ele>447.5</ele><time>2026-04-25T12:06:41.348Z</time></trkpt><trkpt lat="43.1859136" lon="12.9413853"><ele>447.25</ele><time>2026-04-25T12:06:42.341Z</time></trkpt><trkpt lat="43.1860243" lon="12.941347"><ele>447.0</ele><time>2026-04-25T12:06:43.345Z</time></trkpt><trkpt lat="43.1861257" lon="12.941286"><ele>447.0</ele><time>2026-04-25T12:06:44.345Z</time></trkpt><trkpt lat="43.1862211" lon="12.9412068"><ele>447.0</ele><time>2026-04-25T12:06:45.343Z</time></trkpt><trkpt lat="43.1863076" lon="12.9411028"><ele>447.0</ele><time>2026-04-25T12:06:46.341Z</time></trkpt><trkpt lat="43.186393" lon="12.9409959"><ele>447.0</ele><time>2026-04-25T12:06:47.342Z</time></trkpt><trkpt lat="43.1864571" lon="12.940816"><ele>447.20000000000005</ele><time>2026-04-25T12:06:48.346Z</time></trkpt><trkpt lat="43.1865312" lon="12.9406917"><ele>447.40000000000003</ele><time>2026-04-25T12:06:49.341Z</time></trkpt><trkpt lat="43.1866061" lon="12.9405853"><ele>447.59999999999997</ele><time>2026-04-25T12:06:50.337Z</time></trkpt><trkpt lat="43.1866849" lon="12.9404993"><ele>447.79999999999995</ele><time>2026-04-25T12:06:51.349Z</time></trkpt><trkpt lat="43.1867616" lon="12.9404346"><ele>448.0</ele><time>2026-04-25T12:06:52.338Z</time></trkpt><trkpt lat="43.1868268" lon="12.9403921"><ele>448.00000000000006</ele><time>2026-04-25T12:06:53.336Z</time></trkpt><trkpt lat="43.1868995" lon="12.9403489"><ele>448.0</ele><time>2026-04-25T12:06:55.338Z</time></trkpt><trkpt lat="43.1869323" lon="12.9402211"><ele>448.0</ele><time>2026-04-25T12:07:01.34Z</time></trkpt><trkpt lat="43.1869206" lon="12.9401218"><ele>448.0</ele><time>2026-04-25T12:07:02.336Z</time></trkpt><trkpt lat="43.1868984" lon="12.9400104"><ele>448.00000000000006</ele><time>2026-04-25T12:07:03.332Z</time></trkpt><trkpt lat="43.1868572" lon="12.939887"><ele>448.0</ele><time>2026-04-25T12:07:04.347Z</time></trkpt><trkpt lat="43.1868011" lon="12.9397384"><ele>448.75</ele><time>2026-04-25T12:07:05.335Z</time></trkpt><trkpt lat="43.1867333" lon="12.9395646"><ele>449.5</ele><time>2026-04-25T12:07:06.332Z</time></trkpt><trkpt lat="43.1866588" lon="12.9393814"><ele>450.25</ele><time>2026-04-25T12:07:07.348Z</time></trkpt><trkpt lat="43.186593" lon="12.9392088"><ele>451.0</ele><time>2026-04-25T12:07:08.341Z</time></trkpt><trkpt lat="43.1865443" lon="12.9390466"><ele>452.5</ele><time>2026-04-25T12:07:09.329Z</time></trkpt><trkpt lat="43.1865172" lon="12.9388897"><ele>454.0</ele><time>2026-04-25T12:07:10.338Z</time></trkpt><trkpt lat="43.1865194" lon="12.9387347"><ele>455.5</ele><time>2026-04-25T12:07:11.331Z</time></trkpt><trkpt lat="43.1865584" lon="12.9385811"><ele>457.0</ele><time>2026-04-25T12:07:12.35Z</time></trkpt><trkpt lat="43.1866378" lon="12.9384312"><ele>457.0</ele><time>2026-04-25T12:07:13.334Z</time></trkpt><trkpt lat="43.1867351" lon="12.9382757"><ele>457.0</ele><time>2026-04-25T12:07:14.331Z</time></trkpt><trkpt lat="43.1868361" lon="12.9380996"><ele>457.0</ele><time>2026-04-25T12:07:15.343Z</time></trkpt><trkpt lat="43.1869364" lon="12.9379029"><ele>457.0</ele><time>2026-04-25T12:07:16.338Z</time></trkpt><trkpt lat="43.1870314" lon="12.9377037"><ele>457.0</ele><time>2026-04-25T12:07:17.346Z</time></trkpt><trkpt lat="43.1871227" lon="12.9375056"><ele>457.0</ele><time>2026-04-25T12:07:18.343Z</time></trkpt><trkpt lat="43.1872147" lon="12.9373041"><ele>458.33333333333337</ele><time>2026-04-25T12:07:19.336Z</time></trkpt><trkpt lat="43.1873022" lon="12.9370888"><ele>459.66666666666663</ele><time>2026-04-25T12:07:20.332Z</time></trkpt><trkpt lat="43.1873838" lon="12.9368587"><ele>461.0</ele><time>2026-04-25T12:07:21.35Z</time></trkpt><trkpt lat="43.1874573" lon="12.9366283"><ele>461.0</ele><time>2026-04-25T12:07:22.338Z</time></trkpt><trkpt lat="43.1875215" lon="12.9364113"><ele>461.0</ele><time>2026-04-25T12:07:23.35Z</time></trkpt><trkpt lat="43.1875806" lon="12.9362116"><ele>461.0</ele><time>2026-04-25T12:07:24.342Z</time></trkpt><trkpt lat="43.1876408" lon="12.936025"><ele>459.75</ele><time>2026-04-25T12:07:25.341Z</time></trkpt><trkpt lat="43.1877098" lon="12.9358494"><ele>458.5</ele><time>2026-04-25T12:07:26.332Z</time></trkpt><trkpt lat="43.1877954" lon="12.9356876"><ele>457.25</ele><time>2026-04-25T12:07:27.348Z</time></trkpt><trkpt lat="43.1878985" lon="12.9355378"><ele>456.0</ele><time>2026-04-25T12:07:28.341Z</time></trkpt><trkpt lat="43.1880107" lon="12.9353998"><ele>456.0</ele><time>2026-04-25T12:07:29.346Z</time></trkpt><trkpt lat="43.188121" lon="12.9352673"><ele>456.0</ele><time>2026-04-25T12:07:30.348Z</time></trkpt><trkpt lat="43.1882256" lon="12.9351457"><ele>456.0</ele><time>2026-04-25T12:07:31.341Z</time></trkpt><trkpt lat="43.1883274" lon="12.935036"><ele>456.0</ele><time>2026-04-25T12:07:32.347Z</time></trkpt><trkpt lat="43.1884323" lon="12.934936"><ele>456.25</ele><time>2026-04-25T12:07:33.34Z</time></trkpt><trkpt lat="43.1885431" lon="12.9348439"><ele>456.5</ele><time>2026-04-25T12:07:34.345Z</time></trkpt><trkpt lat="43.1886628" lon="12.9347556"><ele>456.75</ele><time>2026-04-25T12:07:35.348Z</time></trkpt><trkpt lat="43.1887933" lon="12.9346659"><ele>457.0</ele><time>2026-04-25T12:07:36.347Z</time></trkpt><trkpt lat="43.1889328" lon="12.9345719"><ele>462.0</ele><time>2026-04-25T12:07:37.345Z</time></trkpt><trkpt lat="43.1890767" lon="12.9344732"><ele>467.0</ele><time>2026-04-25T12:07:38.347Z</time></trkpt><trkpt lat="43.1892233" lon="12.9343713"><ele>472.0</ele><time>2026-04-25T12:07:39.345Z</time></trkpt><trkpt lat="43.1893671" lon="12.9342631"><ele>466.6666666666667</ele><time>2026-04-25T12:07:40.338Z</time></trkpt><trkpt lat="43.1895141" lon="12.9341542"><ele>461.33333333333337</ele><time>2026-04-25T12:07:41.33Z</time></trkpt><trkpt lat="43.1896505" lon="12.9340551"><ele>456.0</ele><time>2026-04-25T12:07:42.34Z</time></trkpt><trkpt lat="43.1897741" lon="12.9339698"><ele>457.75</ele><time>2026-04-25T12:07:43.348Z</time></trkpt><trkpt lat="43.189898" lon="12.933905"><ele>459.5</ele><time>2026-04-25T12:07:44.345Z</time></trkpt><trkpt lat="43.190029" lon="12.9338663"><ele>461.25</ele><time>2026-04-25T12:07:45.346Z</time></trkpt><trkpt lat="43.1901632" lon="12.9338299"><ele>463.0</ele><time>2026-04-25T12:07:46.342Z</time></trkpt><trkpt lat="43.1902921" lon="12.9337796"><ele>463.0</ele><time>2026-04-25T12:07:47.332Z</time></trkpt><trkpt lat="43.1904042" lon="12.9337059"><ele>463.0</ele><time>2026-04-25T12:07:48.345Z</time></trkpt><trkpt lat="43.1904986" lon="12.933617"><ele>463.0</ele><time>2026-04-25T12:07:49.345Z</time></trkpt><trkpt lat="43.190572" lon="12.9335073"><ele>463.0</ele><time>2026-04-25T12:07:50.346Z</time></trkpt><trkpt lat="43.190618" lon="12.9333643"><ele>461.79999999999995</ele><time>2026-04-25T12:07:51.343Z</time></trkpt><trkpt lat="43.1906507" lon="12.9332096"><ele>460.59999999999997</ele><time>2026-04-25T12:07:52.347Z</time></trkpt><trkpt lat="43.1906975" lon="12.9330684"><ele>459.40000000000003</ele><time>2026-04-25T12:07:53.327Z</time></trkpt><trkpt lat="43.1907648" lon="12.932952"><ele>458.20000000000005</ele><time>2026-04-25T12:07:54.331Z</time></trkpt><trkpt lat="43.190857" lon="12.9328792"><ele>457.0</ele><time>2026-04-25T12:07:55.342Z</time></trkpt><trkpt lat="43.1909835" lon="12.9328459"><ele>457.0</ele><time>2026-04-25T12:07:56.345Z</time></trkpt><trkpt lat="43.1911276" lon="12.9328264"><ele>457.0</ele><time>2026-04-25T12:07:57.341Z</time></trkpt><trkpt lat="43.1912772" lon="12.9327971"><ele>457.0</ele><time>2026-04-25T12:07:58.327Z</time></trkpt><trkpt lat="43.1914314" lon="12.9327479"><ele>457.33333333333337</ele><time>2026-04-25T12:07:59.343Z</time></trkpt><trkpt lat="43.1915857" lon="12.9326772"><ele>457.66666666666663</ele><time>2026-04-25T12:08:00.336Z</time></trkpt><trkpt lat="43.1917333" lon="12.9325897"><ele>458.0</ele><time>2026-04-25T12:08:01.342Z</time></trkpt><trkpt lat="43.1918785" lon="12.9324896"><ele>458.0</ele><time>2026-04-25T12:08:02.344Z</time></trkpt><trkpt lat="43.1920161" lon="12.932389"><ele>458.0</ele><time>2026-04-25T12:08:03.344Z</time></trkpt><trkpt lat="43.1921524" lon="12.9323027"><ele>458.0</ele><time>2026-04-25T12:08:04.345Z</time></trkpt><trkpt lat="43.1922911" lon="12.9322502"><ele>458.75</ele><time>2026-04-25T12:08:05.329Z</time></trkpt><trkpt lat="43.1924313" lon="12.9322508"><ele>459.5</ele><time>2026-04-25T12:08:06.343Z</time></trkpt><trkpt lat="43.1925751" lon="12.9322984"><ele>460.25</ele><time>2026-04-25T12:08:07.342Z</time></trkpt><trkpt lat="43.1927166" lon="12.9323809"><ele>461.0</ele><time>2026-04-25T12:08:08.341Z</time></trkpt><trkpt lat="43.1928532" lon="12.9324783"><ele>464.3333333333333</ele><time>2026-04-25T12:08:09.344Z</time></trkpt><trkpt lat="43.1929932" lon="12.9325702"><ele>467.66666666666663</ele><time>2026-04-25T12:08:10.332Z</time></trkpt><trkpt lat="43.193143" lon="12.9326357"><ele>471.0</ele><time>2026-04-25T12:08:11.337Z</time></trkpt><trkpt lat="43.1932965" lon="12.9326743"><ele>472.33333333333337</ele><time>2026-04-25T12:08:12.326Z</time></trkpt><trkpt lat="43.1934582" lon="12.9326923"><ele>473.6666666666667</ele><time>2026-04-25T12:08:13.346Z</time></trkpt><trkpt lat="43.19362" lon="12.9326946"><ele>475.0</ele><time>2026-04-25T12:08:14.33Z</time></trkpt><trkpt lat="43.1937794" lon="12.9326836"><ele>475.0</ele><time>2026-04-25T12:08:15.326Z</time></trkpt><trkpt lat="43.1939409" lon="12.932667"><ele>475.0</ele><time>2026-04-25T12:08:16.332Z</time></trkpt><trkpt lat="43.1941012" lon="12.9326473"><ele>475.0</ele><time>2026-04-25T12:08:17.342Z</time></trkpt><trkpt lat="43.194263" lon="12.9326259"><ele>475.6666666666667</ele><time>2026-04-25T12:08:18.342Z</time></trkpt><trkpt lat="43.1944263" lon="12.9326046"><ele>476.33333333333337</ele><time>2026-04-25T12:08:19.34Z</time></trkpt><trkpt lat="43.1945835" lon="12.932576"><ele>477.0</ele><time>2026-04-25T12:08:20.332Z</time></trkpt><trkpt lat="43.1947385" lon="12.9325251"><ele>475.33333333333337</ele><time>2026-04-25T12:08:21.333Z</time></trkpt><trkpt lat="43.194887" lon="12.9324443"><ele>473.6666666666667</ele><time>2026-04-25T12:08:22.332Z</time></trkpt><trkpt lat="43.1950345" lon="12.9323478"><ele>472.0</ele><time>2026-04-25T12:08:23.342Z</time></trkpt><trkpt lat="43.1951806" lon="12.9322468"><ele>472.0</ele><time>2026-04-25T12:08:24.344Z</time></trkpt><trkpt lat="43.195329" lon="12.9321578"><ele>472.0</ele><time>2026-04-25T12:08:25.343Z</time></trkpt><trkpt lat="43.1954798" lon="12.9320794"><ele>472.0</ele><time>2026-04-25T12:08:26.335Z</time></trkpt><trkpt lat="43.195636" lon="12.9320227"><ele>477.0</ele><time>2026-04-25T12:08:27.335Z</time></trkpt><trkpt lat="43.1957963" lon="12.9319915"><ele>482.0</ele><time>2026-04-25T12:08:28.343Z</time></trkpt><trkpt lat="43.1959614" lon="12.9319675"><ele>487.0</ele><time>2026-04-25T12:08:29.339Z</time></trkpt><trkpt lat="43.1961259" lon="12.9319337"><ele>487.0</ele><time>2026-04-25T12:08:30.343Z</time></trkpt><trkpt lat="43.1962847" lon="12.9318759"><ele>487.0</ele><time>2026-04-25T12:08:31.346Z</time></trkpt><trkpt lat="43.1964403" lon="12.931792"><ele>487.0</ele><time>2026-04-25T12:08:32.345Z</time></trkpt><trkpt lat="43.1965912" lon="12.9316929"><ele>486.6666666666667</ele><time>2026-04-25T12:08:33.341Z</time></trkpt><trkpt lat="43.1967387" lon="12.9315954"><ele>486.33333333333337</ele><time>2026-04-25T12:08:34.344Z</time></trkpt><trkpt lat="43.1968805" lon="12.9315223"><ele>486.0</ele><time>2026-04-25T12:08:35.342Z</time></trkpt><trkpt lat="43.1970257" lon="12.9314693"><ele>486.0</ele><time>2026-04-25T12:08:36.337Z</time></trkpt><trkpt lat="43.1971797" lon="12.9314321"><ele>486.0</ele><time>2026-04-25T12:08:37.346Z</time></trkpt><trkpt lat="43.1973373" lon="12.9314005"><ele>486.0</ele><time>2026-04-25T12:08:38.343Z</time></trkpt><trkpt lat="43.1974926" lon="12.9313581"><ele>491.66666666666663</ele><time>2026-04-25T12:08:39.344Z</time></trkpt><trkpt lat="43.1976438" lon="12.9313004"><ele>497.3333333333333</ele><time>2026-04-25T12:08:40.34Z</time></trkpt><trkpt lat="43.1977936" lon="12.9312278"><ele>503.0</ele><time>2026-04-25T12:08:41.322Z</time></trkpt><trkpt lat="43.1979446" lon="12.9311428"><ele>503.0</ele><time>2026-04-25T12:08:42.35Z</time></trkpt><trkpt lat="43.19809" lon="12.9310436"><ele>503.0</ele><time>2026-04-25T12:08:43.331Z</time></trkpt><trkpt lat="43.1982234" lon="12.9309271"><ele>503.0</ele><time>2026-04-25T12:08:44.34Z</time></trkpt><trkpt lat="43.198339" lon="12.9307881"><ele>503.3333333333333</ele><time>2026-04-25T12:08:45.342Z</time></trkpt><trkpt lat="43.1984323" lon="12.9306236"><ele>503.66666666666663</ele><time>2026-04-25T12:08:46.34Z</time></trkpt><trkpt lat="43.1985016" lon="12.930436"><ele>504.0</ele><time>2026-04-25T12:08:47.344Z</time></trkpt><trkpt lat="43.1985701" lon="12.9302515"><ele>504.0</ele><time>2026-04-25T12:08:48.339Z</time></trkpt><trkpt lat="43.19865" lon="12.930077"><ele>504.0</ele><time>2026-04-25T12:08:49.335Z</time></trkpt><trkpt lat="43.1987549" lon="12.929926"><ele>504.0</ele><time>2026-04-25T12:08:50.325Z</time></trkpt><trkpt lat="43.1988788" lon="12.9297951"><ele>503.0</ele><time>2026-04-25T12:08:51.332Z</time></trkpt><trkpt lat="43.1990111" lon="12.9296778"><ele>502.0</ele><time>2026-04-25T12:08:52.346Z</time></trkpt><trkpt lat="43.1991422" lon="12.9295571"><ele>501.0</ele><time>2026-04-25T12:08:53.34Z</time></trkpt><trkpt lat="43.1992574" lon="12.9294373"><ele>501.0</ele><time>2026-04-25T12:08:54.331Z</time></trkpt><trkpt lat="43.1993609" lon="12.9293232"><ele>501.0</ele><time>2026-04-25T12:08:55.34Z</time></trkpt><trkpt lat="43.1994545" lon="12.9292035"><ele>501.0</ele><time>2026-04-25T12:08:56.328Z</time></trkpt><trkpt lat="43.1995419" lon="12.9290704"><ele>501.0</ele><time>2026-04-25T12:08:57.341Z</time></trkpt><trkpt lat="43.199622" lon="12.9289241"><ele>501.0</ele><time>2026-04-25T12:08:58.341Z</time></trkpt><trkpt lat="43.1996984" lon="12.9287766"><ele>501.0</ele><time>2026-04-25T12:08:59.337Z</time></trkpt><trkpt lat="43.1997807" lon="12.9286359"><ele>501.0</ele><time>2026-04-25T12:09:00.331Z</time></trkpt><trkpt lat="43.1998769" lon="12.9285084"><ele>501.0</ele><time>2026-04-25T12:09:01.332Z</time></trkpt><trkpt lat="43.1999878" lon="12.9283921"><ele>501.75</ele><time>2026-04-25T12:09:02.342Z</time></trkpt><trkpt lat="43.2001033" lon="12.9282828"><ele>502.5</ele><time>2026-04-25T12:09:03.343Z</time></trkpt><trkpt lat="43.200218" lon="12.9281886"><ele>503.25</ele><time>2026-04-25T12:09:04.334Z</time></trkpt><trkpt lat="43.2003281" lon="12.9281239"><ele>504.0</ele><time>2026-04-25T12:09:05.343Z</time></trkpt><trkpt lat="43.2004434" lon="12.9281012"><ele>504.0</ele><time>2026-04-25T12:09:06.342Z</time></trkpt><trkpt lat="43.2005671" lon="12.9281291"><ele>504.0</ele><time>2026-04-25T12:09:07.337Z</time></trkpt><trkpt lat="43.2007015" lon="12.9282011"><ele>504.0</ele><time>2026-04-25T12:09:08.335Z</time></trkpt><trkpt lat="43.2008552" lon="12.9282848"><ele>504.0</ele><time>2026-04-25T12:09:09.345Z</time></trkpt><trkpt lat="43.2010181" lon="12.9283613"><ele>507.66666666666663</ele><time>2026-04-25T12:09:10.337Z</time></trkpt><trkpt lat="43.2011872" lon="12.9284334"><ele>511.3333333333333</ele><time>2026-04-25T12:09:11.341Z</time></trkpt><trkpt lat="43.2013594" lon="12.928505"><ele>515.0</ele><time>2026-04-25T12:09:12.339Z</time></trkpt><trkpt lat="43.2015356" lon="12.9285777"><ele>517.6666666666666</ele><time>2026-04-25T12:09:13.342Z</time></trkpt><trkpt lat="43.201713" lon="12.9286456"><ele>520.3333333333334</ele><time>2026-04-25T12:09:14.339Z</time></trkpt><trkpt lat="43.2018914" lon="12.9287019"><ele>523.0</ele><time>2026-04-25T12:09:15.321Z</time></trkpt><trkpt lat="43.2020733" lon="12.92874"><ele>523.0</ele><time>2026-04-25T12:09:16.342Z</time></trkpt><trkpt lat="43.2022601" lon="12.9287717"><ele>523.0</ele><time>2026-04-25T12:09:17.34Z</time></trkpt><trkpt lat="43.2024469" lon="12.9288046"><ele>523.0</ele><time>2026-04-25T12:09:18.339Z</time></trkpt><trkpt lat="43.2026333" lon="12.9288421"><ele>524.6666666666667</ele><time>2026-04-25T12:09:19.329Z</time></trkpt><trkpt lat="43.2028117" lon="12.928878"><ele>526.3333333333334</ele><time>2026-04-25T12:09:20.34Z</time></trkpt><trkpt lat="43.202967" lon="12.9289076"><ele>528.0</ele><time>2026-04-25T12:09:21.342Z</time></trkpt><trkpt lat="43.203098" lon="12.9289361"><ele>529.75</ele><time>2026-04-25T12:09:22.344Z</time></trkpt><trkpt lat="43.2032092" lon="12.9289792"><ele>531.5</ele><time>2026-04-25T12:09:23.341Z</time></trkpt><trkpt lat="43.2033017" lon="12.9290527"><ele>533.25</ele><time>2026-04-25T12:09:24.343Z</time></trkpt><trkpt lat="43.2033718" lon="12.9291672"><ele>535.0</ele><time>2026-04-25T12:09:25.341Z</time></trkpt><trkpt lat="43.2034208" lon="12.9293264"><ele>538.0</ele><time>2026-04-25T12:09:26.342Z</time></trkpt><trkpt lat="43.2034513" lon="12.9295129"><ele>541.0</ele><time>2026-04-25T12:09:27.34Z</time></trkpt><trkpt lat="43.2034825" lon="12.9297213"><ele>544.0</ele><time>2026-04-25T12:09:28.326Z</time></trkpt><trkpt lat="43.2035156" lon="12.9299431"><ele>547.6666666666667</ele><time>2026-04-25T12:09:29.341Z</time></trkpt><trkpt lat="43.203559" lon="12.9301654"><ele>551.3333333333334</ele><time>2026-04-25T12:09:30.344Z</time></trkpt><trkpt lat="43.2036032" lon="12.9303703"><ele>555.0</ele><time>2026-04-25T12:09:31.345Z</time></trkpt><trkpt lat="43.2036447" lon="12.9305527"><ele>555.0</ele><time>2026-04-25T12:09:32.336Z</time></trkpt><trkpt lat="43.2036786" lon="12.9307049"><ele>555.0</ele><time>2026-04-25T12:09:33.341Z</time></trkpt><trkpt lat="43.2036897" lon="12.9308329"><ele>555.0</ele><time>2026-04-25T12:09:34.331Z</time></trkpt><trkpt lat="43.2036622" lon="12.9309316"><ele>555.0</ele><time>2026-04-25T12:09:35.342Z</time></trkpt><trkpt lat="43.2035993" lon="12.9310006"><ele>555.0</ele><time>2026-04-25T12:09:36.342Z</time></trkpt><trkpt lat="43.2035143" lon="12.9310332"><ele>556.4</ele><time>2026-04-25T12:09:37.336Z</time></trkpt><trkpt lat="43.2034105" lon="12.9310312"><ele>557.8</ele><time>2026-04-25T12:09:38.328Z</time></trkpt><trkpt lat="43.2033041" lon="12.9309888"><ele>559.2</ele><time>2026-04-25T12:09:39.345Z</time></trkpt><trkpt lat="43.2032221" lon="12.9308989"><ele>560.6</ele><time>2026-04-25T12:09:40.323Z</time></trkpt><trkpt lat="43.203146" lon="12.9307844"><ele>562.0</ele><time>2026-04-25T12:09:41.329Z</time></trkpt><trkpt lat="43.2030814" lon="12.9306591"><ele>562.0</ele><time>2026-04-25T12:09:42.341Z</time></trkpt><trkpt lat="43.203026" lon="12.930559"><ele>562.0</ele><time>2026-04-25T12:09:43.336Z</time></trkpt><trkpt lat="43.2029683" lon="12.9304975"><ele>562.0</ele><time>2026-04-25T12:09:44.337Z</time></trkpt><trkpt lat="43.2028972" lon="12.9304803"><ele>562.0</ele><time>2026-04-25T12:09:45.33Z</time></trkpt><trkpt lat="43.2027877" lon="12.9304903"><ele>562.0</ele><time>2026-04-25T12:09:46.34Z</time></trkpt><trkpt lat="43.2026909" lon="12.9305254"><ele>562.0</ele><time>2026-04-25T12:09:47.336Z</time></trkpt><trkpt lat="43.202583" lon="12.9305618"><ele>562.0</ele><time>2026-04-25T12:09:48.339Z</time></trkpt><trkpt lat="43.2024441" lon="12.9305819"><ele>562.0</ele><time>2026-04-25T12:09:49.329Z</time></trkpt><trkpt lat="43.2022561" lon="12.9306053"><ele>562.0</ele><time>2026-04-25T12:09:50.332Z</time></trkpt><trkpt lat="43.2021262" lon="12.9306209"><ele>564.0</ele><time>2026-04-25T12:09:51.341Z</time></trkpt><trkpt lat="43.2019535" lon="12.9306456"><ele>566.0</ele><time>2026-04-25T12:09:52.337Z</time></trkpt><trkpt lat="43.2018299" lon="12.9306918"><ele>568.0</ele><time>2026-04-25T12:09:53.339Z</time></trkpt><trkpt lat="43.2016728" lon="12.9307609"><ele>568.0</ele><time>2026-04-25T12:09:54.326Z</time></trkpt><trkpt lat="43.2015091" lon="12.9308546"><ele>568.0</ele><time>2026-04-25T12:09:55.33Z</time></trkpt><trkpt lat="43.2013334" lon="12.9309512"><ele>568.0</ele><time>2026-04-25T12:09:56.334Z</time></trkpt><trkpt lat="43.2011568" lon="12.931052"><ele>571.6666666666667</ele><time>2026-04-25T12:09:57.342Z</time></trkpt><trkpt lat="43.2009734" lon="12.9311572"><ele>575.3333333333334</ele><time>2026-04-25T12:09:58.344Z</time></trkpt><trkpt lat="43.2008022" lon="12.931292"><ele>579.0</ele><time>2026-04-25T12:09:59.342Z</time></trkpt><trkpt lat="43.2006383" lon="12.9314481"><ele>579.0</ele><time>2026-04-25T12:10:00.335Z</time></trkpt><trkpt lat="43.2004708" lon="12.9316108"><ele>579.0</ele><time>2026-04-25T12:10:01.351Z</time></trkpt><trkpt lat="43.2003039" lon="12.9317782"><ele>579.0</ele><time>2026-04-25T12:10:02.345Z</time></trkpt><trkpt lat="43.2001421" lon="12.9319551"><ele>579.3333333333334</ele><time>2026-04-25T12:10:03.339Z</time></trkpt><trkpt lat="43.1999839" lon="12.9321328"><ele>579.6666666666667</ele><time>2026-04-25T12:10:04.333Z</time></trkpt><trkpt lat="43.19983" lon="12.9323131"><ele>580.0</ele><time>2026-04-25T12:10:05.346Z</time></trkpt><trkpt lat="43.1996784" lon="12.9324975"><ele>590.3333333333334</ele><time>2026-04-25T12:10:06.325Z</time></trkpt><trkpt lat="43.1995302" lon="12.9326907"><ele>600.6666666666666</ele><time>2026-04-25T12:10:07.335Z</time></trkpt><trkpt lat="43.1993831" lon="12.9328863"><ele>611.0</ele><time>2026-04-25T12:10:08.335Z</time></trkpt><trkpt lat="43.1992307" lon="12.9330786"><ele>611.0</ele><time>2026-04-25T12:10:09.337Z</time></trkpt><trkpt lat="43.1990717" lon="12.933261"><ele>611.0</ele><time>2026-04-25T12:10:10.343Z</time></trkpt><trkpt lat="43.1989061" lon="12.93343"><ele>611.0</ele><time>2026-04-25T12:10:11.345Z</time></trkpt><trkpt lat="43.1987393" lon="12.9335917"><ele>612.6666666666666</ele><time>2026-04-25T12:10:12.341Z</time></trkpt><trkpt lat="43.198577" lon="12.9337526"><ele>614.3333333333334</ele><time>2026-04-25T12:10:13.341Z</time></trkpt><trkpt lat="43.1984245" lon="12.9339055"><ele>616.0</ele><time>2026-04-25T12:10:14.341Z</time></trkpt><trkpt lat="43.1982897" lon="12.9340408"><ele>614.5</ele><time>2026-04-25T12:10:15.347Z</time></trkpt><trkpt lat="43.198165" lon="12.9341572"><ele>613.0</ele><time>2026-04-25T12:10:16.346Z</time></trkpt><trkpt lat="43.1980523" lon="12.9342537"><ele>611.5</ele><time>2026-04-25T12:10:17.341Z</time></trkpt><trkpt lat="43.1979479" lon="12.9343286"><ele>610.0</ele><time>2026-04-25T12:10:18.337Z</time></trkpt><trkpt lat="43.1978539" lon="12.9343789"><ele>610.0</ele><time>2026-04-25T12:10:19.348Z</time></trkpt><trkpt lat="43.1977928" lon="12.9344359"><ele>610.0</ele><time>2026-04-25T12:10:20.322Z</time></trkpt><trkpt lat="43.1975142" lon="12.9343878"><ele>610.0</ele><time>2026-04-25T12:10:22.323Z</time></trkpt><trkpt lat="43.1975785" lon="12.9344213"><ele>610.0</ele><time>2026-04-25T12:10:23.32Z</time></trkpt><trkpt lat="43.1976482" lon="12.9344195"><ele>610.0</ele><time>2026-04-25T12:10:24.33Z</time></trkpt><trkpt lat="43.197719" lon="12.9343779"><ele>610.0</ele><time>2026-04-25T12:10:25.324Z</time></trkpt><trkpt lat="43.1978" lon="12.9342799"><ele>610.0</ele><time>2026-04-25T12:10:26.325Z</time></trkpt><trkpt lat="43.1978977" lon="12.9341851"><ele>610.0</ele><time>2026-04-25T12:10:27.322Z</time></trkpt><trkpt lat="43.1980213" lon="12.9341104"><ele>610.0</ele><time>2026-04-25T12:10:28.333Z</time></trkpt><trkpt lat="43.1981653" lon="12.934039"><ele>612.0</ele><time>2026-04-25T12:10:29.334Z</time></trkpt><trkpt lat="43.1983223" lon="12.9339659"><ele>614.0</ele><time>2026-04-25T12:10:30.332Z</time></trkpt><trkpt lat="43.198488" lon="12.9338951"><ele>616.0</ele><time>2026-04-25T12:10:31.333Z</time></trkpt><trkpt lat="43.1986568" lon="12.9338221"><ele>616.0</ele><time>2026-04-25T12:10:32.336Z</time></trkpt><trkpt lat="43.1988326" lon="12.9337499"><ele>616.0</ele><time>2026-04-25T12:10:33.334Z</time></trkpt><trkpt lat="43.1990119" lon="12.9336722"><ele>616.0</ele><time>2026-04-25T12:10:34.331Z</time></trkpt><trkpt lat="43.1991942" lon="12.93359"><ele>614.3333333333334</ele><time>2026-04-25T12:10:35.331Z</time></trkpt><trkpt lat="43.1993793" lon="12.9335008"><ele>612.6666666666666</ele><time>2026-04-25T12:10:36.335Z</time></trkpt><trkpt lat="43.1995644" lon="12.9334057"><ele>611.0</ele><time>2026-04-25T12:10:37.333Z</time></trkpt><trkpt lat="43.1997426" lon="12.9333077"><ele>617.3333333333333</ele><time>2026-04-25T12:10:38.334Z</time></trkpt><trkpt lat="43.1999091" lon="12.9332098"><ele>623.6666666666666</ele><time>2026-04-25T12:10:39.326Z</time></trkpt><trkpt lat="43.2000611" lon="12.9331187"><ele>630.0</ele><time>2026-04-25T12:10:40.328Z</time></trkpt><trkpt lat="43.2001976" lon="12.9330369"><ele>630.0</ele><time>2026-04-25T12:10:41.331Z</time></trkpt><trkpt lat="43.2003249" lon="12.9329672"><ele>630.0</ele><time>2026-04-25T12:10:42.333Z</time></trkpt><trkpt lat="43.2004612" lon="12.9329107"><ele>630.0</ele><time>2026-04-25T12:10:43.332Z</time></trkpt><trkpt lat="43.2006018" lon="12.9328685"><ele>630.0</ele><time>2026-04-25T12:10:44.321Z</time></trkpt><trkpt lat="43.2007465" lon="12.9328416"><ele>633.75</ele><time>2026-04-25T12:10:45.331Z</time></trkpt><trkpt lat="43.2008858" lon="12.9328294"><ele>637.5</ele><time>2026-04-25T12:10:46.323Z</time></trkpt><trkpt lat="43.2010211" lon="12.9328364"><ele>641.25</ele><time>2026-04-25T12:10:47.33Z</time></trkpt><trkpt lat="43.2011546" lon="12.9328756"><ele>645.0</ele><time>2026-04-25T12:10:48.333Z</time></trkpt><trkpt lat="43.2012916" lon="12.9329549"><ele>645.0</ele><time>2026-04-25T12:10:49.323Z</time></trkpt><trkpt lat="43.2014104" lon="12.9330633"><ele>645.0</ele><time>2026-04-25T12:10:50.333Z</time></trkpt><trkpt lat="43.20151" lon="12.9331891"><ele>645.0</ele><time>2026-04-25T12:10:51.324Z</time></trkpt><trkpt lat="43.2015961" lon="12.9333341"><ele>645.0</ele><time>2026-04-25T12:10:52.334Z</time></trkpt><trkpt lat="43.2016697" lon="12.9334917"><ele>648.6666666666666</ele><time>2026-04-25T12:10:53.333Z</time></trkpt><trkpt lat="43.2017308" lon="12.933674"><ele>652.3333333333333</ele><time>2026-04-25T12:10:54.328Z</time></trkpt><trkpt lat="43.2017765" lon="12.93388"><ele>656.0</ele><time>2026-04-25T12:10:55.329Z</time></trkpt><trkpt lat="43.2018134" lon="12.9340882"><ele>658.5</ele><time>2026-04-25T12:10:56.327Z</time></trkpt><trkpt lat="43.2018455" lon="12.9342805"><ele>661.0</ele><time>2026-04-25T12:10:57.333Z</time></trkpt><trkpt lat="43.2018695" lon="12.9344506"><ele>663.5</ele><time>2026-04-25T12:10:58.333Z</time></trkpt><trkpt lat="43.2018776" lon="12.9346033"><ele>666.0</ele><time>2026-04-25T12:10:59.322Z</time></trkpt><trkpt lat="43.2018593" lon="12.9347505"><ele>666.0</ele><time>2026-04-25T12:11:00.328Z</time></trkpt><trkpt lat="43.2018197" lon="12.9348997"><ele>666.0</ele><time>2026-04-25T12:11:01.326Z</time></trkpt><trkpt lat="43.2017615" lon="12.935052"><ele>666.0</ele><time>2026-04-25T12:11:02.33Z</time></trkpt><trkpt lat="43.2016869" lon="12.9351939"><ele>666.0</ele><time>2026-04-25T12:11:03.327Z</time></trkpt><trkpt lat="43.2016081" lon="12.9353305"><ele>667.5</ele><time>2026-04-25T12:11:04.326Z</time></trkpt><trkpt lat="43.2015444" lon="12.9354666"><ele>669.0</ele><time>2026-04-25T12:11:05.326Z</time></trkpt><trkpt lat="43.2015274" lon="12.9356137"><ele>670.5</ele><time>2026-04-25T12:11:06.337Z</time></trkpt><trkpt lat="43.2015637" lon="12.9357699"><ele>672.0</ele><time>2026-04-25T12:11:07.328Z</time></trkpt><trkpt lat="43.2016288" lon="12.9359326"><ele>677.3333333333334</ele><time>2026-04-25T12:11:08.329Z</time></trkpt><trkpt lat="43.2017039" lon="12.9361106"><ele>682.6666666666667</ele><time>2026-04-25T12:11:09.321Z</time></trkpt><trkpt lat="43.2017737" lon="12.9363037"><ele>688.0</ele><time>2026-04-25T12:11:10.325Z</time></trkpt><trkpt lat="43.2018482" lon="12.9365113"><ele>696.3333333333334</ele><time>2026-04-25T12:11:11.334Z</time></trkpt><trkpt lat="43.2019319" lon="12.9367217"><ele>704.6666666666666</ele><time>2026-04-25T12:11:12.327Z</time></trkpt><trkpt lat="43.2020245" lon="12.9369257"><ele>713.0</ele><time>2026-04-25T12:11:13.326Z</time></trkpt><trkpt lat="43.2021262" lon="12.9371208"><ele>713.0</ele><time>2026-04-25T12:11:14.32Z</time></trkpt><trkpt lat="43.2022332" lon="12.937301"><ele>713.0</ele><time>2026-04-25T12:11:15.322Z</time></trkpt><trkpt lat="43.2023437" lon="12.9374585"><ele>713.0</ele><time>2026-04-25T12:11:16.32Z</time></trkpt><trkpt lat="43.2024641" lon="12.9376"><ele>711.0</ele><time>2026-04-25T12:11:17.321Z</time></trkpt><trkpt lat="43.202593" lon="12.9377237"><ele>709.0</ele><time>2026-04-25T12:11:18.332Z</time></trkpt><trkpt lat="43.2027351" lon="12.937837"><ele>707.0</ele><time>2026-04-25T12:11:19.321Z</time></trkpt><trkpt lat="43.2028916" lon="12.9379482"><ele>707.0</ele><time>2026-04-25T12:11:20.329Z</time></trkpt><trkpt lat="43.2030468" lon="12.9380611"><ele>707.0</ele><time>2026-04-25T12:11:21.33Z</time></trkpt><trkpt lat="43.2031878" lon="12.9381684"><ele>707.0</ele><time>2026-04-25T12:11:22.331Z</time></trkpt><trkpt lat="43.2033186" lon="12.9382569"><ele>703.25</ele><time>2026-04-25T12:11:23.325Z</time></trkpt><trkpt lat="43.2034393" lon="12.9383127"><ele>699.5</ele><time>2026-04-25T12:11:24.33Z</time></trkpt><trkpt lat="43.2035585" lon="12.9383315"><ele>695.75</ele><time>2026-04-25T12:11:25.333Z</time></trkpt><trkpt lat="43.2036876" lon="12.9383002"><ele>692.0</ele><time>2026-04-25T12:11:26.331Z</time></trkpt><trkpt lat="43.203833" lon="12.9382153"><ele>692.0</ele><time>2026-04-25T12:11:27.332Z</time></trkpt><trkpt lat="43.2039718" lon="12.9380988"><ele>692.0</ele><time>2026-04-25T12:11:28.319Z</time></trkpt><trkpt lat="43.2040873" lon="12.9379632"><ele>692.0</ele><time>2026-04-25T12:11:29.325Z</time></trkpt><trkpt lat="43.2041856" lon="12.9378101"><ele>690.3333333333333</ele><time>2026-04-25T12:11:30.328Z</time></trkpt><trkpt lat="43.2042836" lon="12.937649"><ele>688.6666666666666</ele><time>2026-04-25T12:11:31.335Z</time></trkpt><trkpt lat="43.2043822" lon="12.9374896"><ele>687.0</ele><time>2026-04-25T12:11:32.322Z</time></trkpt><trkpt lat="43.2044944" lon="12.9373315"><ele>687.0</ele><time>2026-04-25T12:11:33.323Z</time></trkpt><trkpt lat="43.2046184" lon="12.9371803"><ele>687.0</ele><time>2026-04-25T12:11:34.336Z</time></trkpt><trkpt lat="43.204737" lon="12.9370389"><ele>687.0</ele><time>2026-04-25T12:11:35.323Z</time></trkpt><trkpt lat="43.2048518" lon="12.9369109"><ele>690.3333333333334</ele><time>2026-04-25T12:11:36.334Z</time></trkpt><trkpt lat="43.2049748" lon="12.9367953"><ele>693.6666666666667</ele><time>2026-04-25T12:11:37.329Z</time></trkpt><trkpt lat="43.2051084" lon="12.9366938"><ele>697.0</ele><time>2026-04-25T12:11:38.332Z</time></trkpt><trkpt lat="43.2052471" lon="12.9366066"><ele>697.0</ele><time>2026-04-25T12:11:39.333Z</time></trkpt><trkpt lat="43.2053913" lon="12.9365385"><ele>697.0</ele><time>2026-04-25T12:11:40.33Z</time></trkpt><trkpt lat="43.2055265" lon="12.9364922"><ele>697.0</ele><time>2026-04-25T12:11:41.325Z</time></trkpt><trkpt lat="43.2056446" lon="12.9364768"><ele>697.0</ele><time>2026-04-25T12:11:42.329Z</time></trkpt><trkpt lat="43.2057494" lon="12.936476"><ele>699.4000000000001</ele><time>2026-04-25T12:11:43.331Z</time></trkpt><trkpt lat="43.2058399" lon="12.9364463"><ele>701.8000000000001</ele><time>2026-04-25T12:11:44.336Z</time></trkpt><trkpt lat="43.2059142" lon="12.9363771"><ele>704.2</ele><time>2026-04-25T12:11:45.334Z</time></trkpt><trkpt lat="43.2059217" lon="12.936221"><ele>706.6</ele><time>2026-04-25T12:11:46.33Z</time></trkpt><trkpt lat="43.2059255" lon="12.9360387"><ele>709.0</ele><time>2026-04-25T12:11:47.333Z</time></trkpt><trkpt lat="43.2059393" lon="12.935854"><ele>709.0</ele><time>2026-04-25T12:11:48.323Z</time></trkpt><trkpt lat="43.205978" lon="12.9356963"><ele>709.0</ele><time>2026-04-25T12:11:49.328Z</time></trkpt><trkpt lat="43.2060426" lon="12.9355763"><ele>709.0</ele><time>2026-04-25T12:11:50.328Z</time></trkpt><trkpt lat="43.2061334" lon="12.9354941"><ele>709.0</ele><time>2026-04-25T12:11:51.333Z</time></trkpt><trkpt lat="43.2062439" lon="12.9354404"><ele>709.0</ele><time>2026-04-25T12:11:52.33Z</time></trkpt><trkpt lat="43.2063674" lon="12.9353994"><ele>709.0</ele><time>2026-04-25T12:11:53.334Z</time></trkpt><trkpt lat="43.2064972" lon="12.9353594"><ele>709.0</ele><time>2026-04-25T12:11:54.334Z</time></trkpt><trkpt lat="43.2066377" lon="12.9353228"><ele>709.0</ele><time>2026-04-25T12:11:55.33Z</time></trkpt><trkpt lat="43.206783" lon="12.9352955"><ele>719.6666666666667</ele><time>2026-04-25T12:11:56.331Z</time></trkpt><trkpt lat="43.2069327" lon="12.9352812"><ele>730.3333333333334</ele><time>2026-04-25T12:11:57.328Z</time></trkpt><trkpt lat="43.2070845" lon="12.9352754"><ele>741.0</ele><time>2026-04-25T12:11:58.324Z</time></trkpt><trkpt lat="43.2072375" lon="12.9352751"><ele>743.25</ele><time>2026-04-25T12:11:59.323Z</time></trkpt><trkpt lat="43.2073786" lon="12.9352771"><ele>745.5</ele><time>2026-04-25T12:12:00.325Z</time></trkpt><trkpt lat="43.2075023" lon="12.935275"><ele>747.75</ele><time>2026-04-25T12:12:01.335Z</time></trkpt><trkpt lat="43.2076106" lon="12.935265"><ele>750.0</ele><time>2026-04-25T12:12:02.333Z</time></trkpt><trkpt lat="43.2077083" lon="12.9352553"><ele>750.0</ele><time>2026-04-25T12:12:03.336Z</time></trkpt><trkpt lat="43.2077934" lon="12.9352506"><ele>750.0</ele><time>2026-04-25T12:12:04.335Z</time></trkpt><trkpt lat="43.2078578" lon="12.9352495"><ele>750.0</ele><time>2026-04-25T12:12:05.329Z</time></trkpt><trkpt lat="43.2078975" lon="12.9353389"><ele>750.0</ele><time>2026-04-25T12:12:08.33Z</time></trkpt><trkpt lat="43.2078134" lon="12.9353933"><ele>750.0</ele><time>2026-04-25T12:12:10.329Z</time></trkpt><trkpt lat="43.2077364" lon="12.9354227"><ele>750.0</ele><time>2026-04-25T12:12:11.335Z</time></trkpt><trkpt lat="43.207632" lon="12.9354547"><ele>750.0</ele><time>2026-04-25T12:12:12.338Z</time></trkpt><trkpt lat="43.2075172" lon="12.9354923"><ele>750.0</ele><time>2026-04-25T12:12:13.326Z</time></trkpt><trkpt lat="43.2074017" lon="12.9355294"><ele>750.0</ele><time>2026-04-25T12:12:14.328Z</time></trkpt><trkpt lat="43.2072937" lon="12.9355585"><ele>750.0</ele><time>2026-04-25T12:12:15.34Z</time></trkpt><trkpt lat="43.2072007" lon="12.9355781"><ele>750.0</ele><time>2026-04-25T12:12:16.333Z</time></trkpt><trkpt lat="43.2071269" lon="12.935593"><ele>750.0</ele><time>2026-04-25T12:12:17.326Z</time></trkpt><trkpt lat="43.2070591" lon="12.9356465"><ele>750.0</ele><time>2026-04-25T12:12:19.333Z</time></trkpt><trkpt lat="43.207122" lon="12.9357472"><ele>750.0</ele><time>2026-04-25T12:12:22.325Z</time></trkpt><trkpt lat="43.2072555" lon="12.9357558"><ele>750.0</ele><time>2026-04-25T12:12:24.328Z</time></trkpt><trkpt lat="43.2073498" lon="12.9357565"><ele>750.0</ele><time>2026-04-25T12:12:25.333Z</time></trkpt><trkpt lat="43.2074531" lon="12.9357742"><ele>750.0</ele><time>2026-04-25T12:12:26.329Z</time></trkpt><trkpt lat="43.2075594" lon="12.9358135"><ele>750.0</ele><time>2026-04-25T12:12:27.325Z</time></trkpt><trkpt lat="43.2076757" lon="12.9358652"><ele>750.0</ele><time>2026-04-25T12:12:28.325Z</time></trkpt><trkpt lat="43.2077956" lon="12.9359277"><ele>750.0</ele><time>2026-04-25T12:12:29.338Z</time></trkpt><trkpt lat="43.207916" lon="12.9359929"><ele>755.0</ele><time>2026-04-25T12:12:30.327Z</time></trkpt><trkpt lat="43.2080322" lon="12.9360575"><ele>760.0</ele><time>2026-04-25T12:12:31.337Z</time></trkpt><trkpt lat="43.208149" lon="12.9361291"><ele>765.0</ele><time>2026-04-25T12:12:32.33Z</time></trkpt><trkpt lat="43.2082693" lon="12.9362111"><ele>770.0</ele><time>2026-04-25T12:12:33.336Z</time></trkpt><trkpt lat="43.2083918" lon="12.9363044"><ele>770.0</ele><time>2026-04-25T12:12:34.335Z</time></trkpt><trkpt lat="43.2085173" lon="12.9364069"><ele>770.0</ele><time>2026-04-25T12:12:35.338Z</time></trkpt><trkpt lat="43.2086374" lon="12.9365122"><ele>770.0</ele><time>2026-04-25T12:12:36.334Z</time></trkpt><trkpt lat="43.2087502" lon="12.9366196"><ele>770.0</ele><time>2026-04-25T12:12:37.325Z</time></trkpt><trkpt lat="43.2088527" lon="12.9367323"><ele>771.2</ele><time>2026-04-25T12:12:38.33Z</time></trkpt><trkpt lat="43.2089424" lon="12.9368445"><ele>772.4</ele><time>2026-04-25T12:12:39.334Z</time></trkpt><trkpt lat="43.2090195" lon="12.9369489"><ele>773.5999999999999</ele><time>2026-04-25T12:12:40.331Z</time></trkpt><trkpt lat="43.2090912" lon="12.9370489"><ele>774.8</ele><time>2026-04-25T12:12:41.334Z</time></trkpt><trkpt lat="43.2091665" lon="12.9371563"><ele>776.0</ele><time>2026-04-25T12:12:42.337Z</time></trkpt><trkpt lat="43.2092398" lon="12.937272"><ele>776.0</ele><time>2026-04-25T12:12:43.33Z</time></trkpt><trkpt lat="43.2093108" lon="12.9373953"><ele>776.0</ele><time>2026-04-25T12:12:44.334Z</time></trkpt><trkpt lat="43.2093754" lon="12.9375295"><ele>776.0</ele><time>2026-04-25T12:12:45.334Z</time></trkpt><trkpt lat="43.2094324" lon="12.9376753"><ele>776.0</ele><time>2026-04-25T12:12:46.325Z</time></trkpt><trkpt lat="43.2094772" lon="12.9378303"><ele>779.25</ele><time>2026-04-25T12:12:47.333Z</time></trkpt><trkpt lat="43.2095153" lon="12.9379947"><ele>782.5</ele><time>2026-04-25T12:12:48.336Z</time></trkpt><trkpt lat="43.2095501" lon="12.9381732"><ele>785.75</ele><time>2026-04-25T12:12:49.333Z</time></trkpt><trkpt lat="43.2095842" lon="12.9383752"><ele>789.0</ele><time>2026-04-25T12:12:50.327Z</time></trkpt><trkpt lat="43.2096225" lon="12.9385897"><ele>792.25</ele><time>2026-04-25T12:12:51.328Z</time></trkpt><trkpt lat="43.2096588" lon="12.9387861"><ele>795.5</ele><time>2026-04-25T12:12:52.337Z</time></trkpt><trkpt lat="43.2096865" lon="12.93895"><ele>798.75</ele><time>2026-04-25T12:12:53.335Z</time></trkpt><trkpt lat="43.2096998" lon="12.9390922"><ele>802.0</ele><time>2026-04-25T12:12:54.334Z</time></trkpt><trkpt lat="43.209698" lon="12.93923"><ele>806.2</ele><time>2026-04-25T12:12:55.329Z</time></trkpt><trkpt lat="43.209683" lon="12.9393697"><ele>810.4000000000001</ele><time>2026-04-25T12:12:56.335Z</time></trkpt><trkpt lat="43.209665" lon="12.9395091"><ele>814.5999999999999</ele><time>2026-04-25T12:12:57.333Z</time></trkpt><trkpt lat="43.2096531" lon="12.9396528"><ele>818.8</ele><time>2026-04-25T12:12:58.335Z</time></trkpt><trkpt lat="43.2096489" lon="12.9398071"><ele>823.0</ele><time>2026-04-25T12:12:59.332Z</time></trkpt><trkpt lat="43.2096528" lon="12.9399756"><ele>826.25</ele><time>2026-04-25T12:13:00.334Z</time></trkpt><trkpt lat="43.2096621" lon="12.9401555"><ele>829.5</ele><time>2026-04-25T12:13:01.332Z</time></trkpt><trkpt lat="43.2096754" lon="12.9403387"><ele>832.75</ele><time>2026-04-25T12:13:02.337Z</time></trkpt><trkpt lat="43.2096899" lon="12.9405158"><ele>836.0</ele><time>2026-04-25T12:13:03.328Z</time></trkpt><trkpt lat="43.2097028" lon="12.9406809"><ele>836.0</ele><time>2026-04-25T12:13:04.337Z</time></trkpt><trkpt lat="43.2097121" lon="12.9408278"><ele>836.0</ele><time>2026-04-25T12:13:05.333Z</time></trkpt><trkpt lat="43.2097107" lon="12.9409648"><ele>836.0</ele><time>2026-04-25T12:13:06.333Z</time></trkpt><trkpt lat="43.2096976" lon="12.9411038"><ele>836.0</ele><time>2026-04-25T12:13:07.329Z</time></trkpt><trkpt lat="43.2096708" lon="12.9412556"><ele>836.0</ele><time>2026-04-25T12:13:08.331Z</time></trkpt><trkpt lat="43.2096295" lon="12.9414167"><ele>836.0</ele><time>2026-04-25T12:13:09.332Z</time></trkpt><trkpt lat="43.2095779" lon="12.9415818"><ele>836.0</ele><time>2026-04-25T12:13:10.326Z</time></trkpt><trkpt lat="43.2095139" lon="12.941743"><ele>836.0</ele><time>2026-04-25T12:13:11.324Z</time></trkpt><trkpt lat="43.2094464" lon="12.9418996"><ele>836.0</ele><time>2026-04-25T12:13:12.333Z</time></trkpt><trkpt lat="43.2093697" lon="12.9420514"><ele>833.5</ele><time>2026-04-25T12:13:13.33Z</time></trkpt><trkpt lat="43.2092941" lon="12.9422052"><ele>831.0</ele><time>2026-04-25T12:13:14.33Z</time></trkpt><trkpt lat="43.2092212" lon="12.9423613"><ele>828.5</ele><time>2026-04-25T12:13:15.333Z</time></trkpt><trkpt lat="43.2091491" lon="12.9425172"><ele>826.0</ele><time>2026-04-25T12:13:16.328Z</time></trkpt><trkpt lat="43.2090769" lon="12.9426738"><ele>823.0</ele><time>2026-04-25T12:13:17.33Z</time></trkpt><trkpt lat="43.209008" lon="12.9428325"><ele>820.0</ele><time>2026-04-25T12:13:18.33Z</time></trkpt><trkpt lat="43.2089463" lon="12.9429937"><ele>817.0</ele><time>2026-04-25T12:13:19.327Z</time></trkpt><trkpt lat="43.2088906" lon="12.9431589"><ele>814.0</ele><time>2026-04-25T12:13:20.328Z</time></trkpt><trkpt lat="43.2088417" lon="12.943331"><ele>824.8000000000001</ele><time>2026-04-25T12:13:21.327Z</time></trkpt><trkpt lat="43.2088023" lon="12.9435071"><ele>835.6</ele><time>2026-04-25T12:13:22.328Z</time></trkpt><trkpt lat="43.2087759" lon="12.9436687"><ele>846.4</ele><time>2026-04-25T12:13:23.328Z</time></trkpt><trkpt lat="43.2087585" lon="12.9437966"><ele>857.2</ele><time>2026-04-25T12:13:24.325Z</time></trkpt><trkpt lat="43.2087417" lon="12.9438909"><ele>868.0</ele><time>2026-04-25T12:13:25.327Z</time></trkpt><trkpt lat="43.2086872" lon="12.9439663"><ele>868.0</ele><time>2026-04-25T12:13:27.33Z</time></trkpt><trkpt lat="43.2086336" lon="12.9439049"><ele>868.0</ele><time>2026-04-25T12:13:29.324Z</time></trkpt><trkpt lat="43.2086253" lon="12.9437255"><ele>868.0</ele><time>2026-04-25T12:13:31.328Z</time></trkpt><trkpt lat="43.2086328" lon="12.9435889"><ele>868.0</ele><time>2026-04-25T12:13:32.32Z</time></trkpt><trkpt lat="43.2086453" lon="12.9434279"><ele>868.0</ele><time>2026-04-25T12:13:33.328Z</time></trkpt><trkpt lat="43.2086565" lon="12.9432539"><ele>869.5</ele><time>2026-04-25T12:13:34.318Z</time></trkpt><trkpt lat="43.2086628" lon="12.9430664"><ele>871.0</ele><time>2026-04-25T12:13:35.33Z</time></trkpt><trkpt lat="43.2086694" lon="12.942874"><ele>872.5</ele><time>2026-04-25T12:13:36.327Z</time></trkpt><trkpt lat="43.208682" lon="12.9426772"><ele>874.0</ele><time>2026-04-25T12:13:37.325Z</time></trkpt><trkpt lat="43.2087018" lon="12.9424787"><ele>875.25</ele><time>2026-04-25T12:13:38.323Z</time></trkpt><trkpt lat="43.2087264" lon="12.9422912"><ele>876.5</ele><time>2026-04-25T12:13:39.325Z</time></trkpt><trkpt lat="43.2087583" lon="12.9421247"><ele>877.75</ele><time>2026-04-25T12:13:40.324Z</time></trkpt><trkpt lat="43.2087991" lon="12.9419732"><ele>879.0</ele><time>2026-04-25T12:13:41.327Z</time></trkpt><trkpt lat="43.2088422" lon="12.9418346"><ele>879.0</ele><time>2026-04-25T12:13:42.326Z</time></trkpt><trkpt lat="43.2088791" lon="12.9417197"><ele>879.0</ele><time>2026-04-25T12:13:43.331Z</time></trkpt><trkpt lat="43.2089054" lon="12.9416241"><ele>879.0</ele><time>2026-04-25T12:13:44.33Z</time></trkpt><trkpt lat="43.2089" lon="12.9414766"><ele>879.0</ele><time>2026-04-25T12:13:46.327Z</time></trkpt><trkpt lat="43.2088568" lon="12.9414098"><ele>879.0</ele><time>2026-04-25T12:13:47.335Z</time></trkpt><trkpt lat="43.2087853" lon="12.9413506"><ele>879.0</ele><time>2026-04-25T12:13:48.331Z</time></trkpt><trkpt lat="43.2086932" lon="12.941305"><ele>877.75</ele><time>2026-04-25T12:13:49.325Z</time></trkpt><trkpt lat="43.2085812" lon="12.941272"><ele>876.5</ele><time>2026-04-25T12:13:50.331Z</time></trkpt><trkpt lat="43.2084491" lon="12.9412429"><ele>875.25</ele><time>2026-04-25T12:13:51.327Z</time></trkpt><trkpt lat="43.2083003" lon="12.9412147"><ele>874.0</ele><time>2026-04-25T12:13:52.333Z</time></trkpt><trkpt lat="43.2081456" lon="12.9411911"><ele>877.0</ele><time>2026-04-25T12:13:53.336Z</time></trkpt><trkpt lat="43.2079945" lon="12.9411793"><ele>880.0</ele><time>2026-04-25T12:13:54.336Z</time></trkpt><trkpt lat="43.2078496" lon="12.9411749"><ele>883.0</ele><time>2026-04-25T12:13:55.329Z</time></trkpt><trkpt lat="43.207709" lon="12.9411799"><ele>886.0</ele><time>2026-04-25T12:13:56.328Z</time></trkpt><trkpt lat="43.2075727" lon="12.941197"><ele>886.0</ele><time>2026-04-25T12:13:57.335Z</time></trkpt><trkpt lat="43.2074457" lon="12.9412227"><ele>885.9999999999999</ele><time>2026-04-25T12:13:58.327Z</time></trkpt><trkpt lat="43.2073299" lon="12.9412519"><ele>885.9999999999999</ele><time>2026-04-25T12:13:59.336Z</time></trkpt><trkpt lat="43.2072299" lon="12.9412825"><ele>886.0</ele><time>2026-04-25T12:14:00.334Z</time></trkpt><trkpt lat="43.2071421" lon="12.9413175"><ele>886.0</ele><time>2026-04-25T12:14:01.339Z</time></trkpt><trkpt lat="43.2070604" lon="12.9413583"><ele>885.9999999999999</ele><time>2026-04-25T12:14:02.34Z</time></trkpt><trkpt lat="43.2069839" lon="12.9414109"><ele>886.0</ele><time>2026-04-25T12:14:03.338Z</time></trkpt><trkpt lat="43.2069113" lon="12.9414703"><ele>886.0</ele><time>2026-04-25T12:14:04.328Z</time></trkpt><trkpt lat="43.2068406" lon="12.9415331"><ele>886.0</ele><time>2026-04-25T12:14:05.332Z</time></trkpt><trkpt lat="43.206766" lon="12.9415969"><ele>885.9999999999999</ele><time>2026-04-25T12:14:06.339Z</time></trkpt><trkpt lat="43.2066892" lon="12.9416641"><ele>886.0</ele><time>2026-04-25T12:14:07.335Z</time></trkpt><trkpt lat="43.2066128" lon="12.9417406"><ele>888.75</ele><time>2026-04-25T12:14:08.331Z</time></trkpt><trkpt lat="43.2065378" lon="12.9418307"><ele>891.5</ele><time>2026-04-25T12:14:09.332Z</time></trkpt><trkpt lat="43.2064609" lon="12.9419351"><ele>894.25</ele><time>2026-04-25T12:14:10.333Z</time></trkpt><trkpt lat="43.2063765" lon="12.9420481"><ele>897.0</ele><time>2026-04-25T12:14:11.335Z</time></trkpt><trkpt lat="43.2062795" lon="12.9421645"><ele>897.0</ele><time>2026-04-25T12:14:12.332Z</time></trkpt><trkpt lat="43.206172" lon="12.9422808"><ele>897.0</ele><time>2026-04-25T12:14:13.334Z</time></trkpt><trkpt lat="43.2060565" lon="12.9423949"><ele>897.0</ele><time>2026-04-25T12:14:14.333Z</time></trkpt><trkpt lat="43.2059342" lon="12.9425065"><ele>897.0</ele><time>2026-04-25T12:14:15.331Z</time></trkpt><trkpt lat="43.2058099" lon="12.9426165"><ele>900.25</ele><time>2026-04-25T12:14:16.332Z</time></trkpt><trkpt lat="43.2056943" lon="12.94272"><ele>903.5</ele><time>2026-04-25T12:14:17.328Z</time></trkpt><trkpt lat="43.2055931" lon="12.9428133"><ele>906.75</ele><time>2026-04-25T12:14:18.333Z</time></trkpt><trkpt lat="43.2055005" lon="12.9428913"><ele>910.0</ele><time>2026-04-25T12:14:19.332Z</time></trkpt><trkpt lat="43.2054179" lon="12.9429506"><ele>909.9999999999999</ele><time>2026-04-25T12:14:20.333Z</time></trkpt><trkpt lat="43.205351" lon="12.9429949"><ele>910.0</ele><time>2026-04-25T12:14:21.318Z</time></trkpt><trkpt lat="43.2052742" lon="12.9430737"><ele>910.0</ele><time>2026-04-25T12:14:23.332Z</time></trkpt><trkpt lat="43.2053012" lon="12.9431586"><ele>910.0</ele><time>2026-04-25T12:14:25.328Z</time></trkpt><trkpt lat="43.2053959" lon="12.943174"><ele>909.9999999999999</ele><time>2026-04-25T12:14:27.334Z</time></trkpt><trkpt lat="43.2054577" lon="12.9431448"><ele>910.0</ele><time>2026-04-25T12:14:28.332Z</time></trkpt><trkpt lat="43.205544" lon="12.9430965"><ele>910.0</ele><time>2026-04-25T12:14:29.331Z</time></trkpt><trkpt lat="43.2056553" lon="12.9430455"><ele>910.0</ele><time>2026-04-25T12:14:30.335Z</time></trkpt><trkpt lat="43.2057815" lon="12.943013"><ele>910.0</ele><time>2026-04-25T12:14:31.337Z</time></trkpt><trkpt lat="43.2059175" lon="12.9430004"><ele>910.0</ele><time>2026-04-25T12:14:32.336Z</time></trkpt><trkpt lat="43.2060589" lon="12.9429994"><ele>913.25</ele><time>2026-04-25T12:14:33.333Z</time></trkpt><trkpt lat="43.2061992" lon="12.9430073"><ele>916.5</ele><time>2026-04-25T12:14:34.335Z</time></trkpt><trkpt lat="43.2063413" lon="12.9430234"><ele>919.75</ele><time>2026-04-25T12:14:35.323Z</time></trkpt><trkpt lat="43.2064817" lon="12.943047"><ele>923.0</ele><time>2026-04-25T12:14:36.337Z</time></trkpt><trkpt lat="43.2066067" lon="12.9430748"><ele>924.0</ele><time>2026-04-25T12:14:37.334Z</time></trkpt><trkpt lat="43.2067195" lon="12.9431088"><ele>925.0</ele><time>2026-04-25T12:14:38.334Z</time></trkpt><trkpt lat="43.2068351" lon="12.9431523"><ele>926.0</ele><time>2026-04-25T12:14:39.329Z</time></trkpt><trkpt lat="43.2069554" lon="12.9432018"><ele>927.0</ele><time>2026-04-25T12:14:40.331Z</time></trkpt><trkpt lat="43.2070773" lon="12.9432567"><ele>927.0</ele><time>2026-04-25T12:14:41.333Z</time></trkpt><trkpt lat="43.2071891" lon="12.9433092"><ele>927.0</ele><time>2026-04-25T12:14:42.328Z</time></trkpt><trkpt lat="43.2072841" lon="12.9433595"><ele>927.0</ele><time>2026-04-25T12:14:43.333Z</time></trkpt><trkpt lat="43.2073598" lon="12.9434082"><ele>927.0</ele><time>2026-04-25T12:14:44.329Z</time></trkpt><trkpt lat="43.2074156" lon="12.9435022"><ele>927.0</ele><time>2026-04-25T12:14:46.333Z</time></trkpt><trkpt lat="43.2073692" lon="12.9435843"><ele>931.8</ele><time>2026-04-25T12:14:48.334Z</time></trkpt><trkpt lat="43.2072529" lon="12.9436005"><ele>936.6</ele><time>2026-04-25T12:14:50.334Z</time></trkpt><trkpt lat="43.207169" lon="12.9435975"><ele>941.3999999999999</ele><time>2026-04-25T12:14:51.336Z</time></trkpt><trkpt lat="43.2070714" lon="12.9436064"><ele>946.1999999999999</ele><time>2026-04-25T12:14:52.327Z</time></trkpt><trkpt lat="43.2069612" lon="12.9436391"><ele>951.0</ele><time>2026-04-25T12:14:53.334Z</time></trkpt><trkpt lat="43.2068402" lon="12.9436957"><ele>951.0</ele><time>2026-04-25T12:14:54.335Z</time></trkpt><trkpt lat="43.2067107" lon="12.9437692"><ele>951.0</ele><time>2026-04-25T12:14:55.324Z</time></trkpt><trkpt lat="43.2065751" lon="12.9438578"><ele>951.0</ele><time>2026-04-25T12:14:56.336Z</time></trkpt><trkpt lat="43.2064318" lon="12.9439571"><ele>949.0</ele><time>2026-04-25T12:14:57.336Z</time></trkpt><trkpt lat="43.2062791" lon="12.9440654"><ele>947.0</ele><time>2026-04-25T12:14:58.336Z</time></trkpt><trkpt lat="43.2061183" lon="12.9441899"><ele>945.0</ele><time>2026-04-25T12:14:59.338Z</time></trkpt><trkpt lat="43.2059577" lon="12.9443215"><ele>951.6666666666667</ele><time>2026-04-25T12:15:00.339Z</time></trkpt><trkpt lat="43.2057944" lon="12.9444543"><ele>958.3333333333334</ele><time>2026-04-25T12:15:01.333Z</time></trkpt><trkpt lat="43.2056265" lon="12.9445882"><ele>965.0</ele><time>2026-04-25T12:15:02.336Z</time></trkpt><trkpt lat="43.2054573" lon="12.9447163"><ele>965.0</ele><time>2026-04-25T12:15:03.332Z</time></trkpt><trkpt lat="43.2052873" lon="12.9448334"><ele>965.0</ele><time>2026-04-25T12:15:04.331Z</time></trkpt><trkpt lat="43.20512" lon="12.9449357"><ele>965.0</ele><time>2026-04-25T12:15:05.335Z</time></trkpt><trkpt lat="43.2049595" lon="12.9450257"><ele>974.6666666666667</ele><time>2026-04-25T12:15:06.332Z</time></trkpt><trkpt lat="43.2048079" lon="12.9451091"><ele>984.3333333333333</ele><time>2026-04-25T12:15:07.323Z</time></trkpt><trkpt lat="43.2046632" lon="12.9451887"><ele>994.0</ele><time>2026-04-25T12:15:08.332Z</time></trkpt><trkpt lat="43.2045204" lon="12.9452662"><ele>994.0</ele><time>2026-04-25T12:15:09.323Z</time></trkpt><trkpt lat="43.2043718" lon="12.9453419"><ele>994.0</ele><time>2026-04-25T12:15:10.325Z</time></trkpt><trkpt lat="43.2042195" lon="12.9454106"><ele>994.0</ele><time>2026-04-25T12:15:11.332Z</time></trkpt><trkpt lat="43.2040712" lon="12.9454711"><ele>992.8000000000001</ele><time>2026-04-25T12:15:12.335Z</time></trkpt><trkpt lat="43.2039424" lon="12.9455176"><ele>991.6000000000001</ele><time>2026-04-25T12:15:13.334Z</time></trkpt><trkpt lat="43.2038438" lon="12.9455459"><ele>990.4</ele><time>2026-04-25T12:15:14.33Z</time></trkpt><trkpt lat="43.2037672" lon="12.9455588"><ele>989.2</ele><time>2026-04-25T12:15:15.332Z</time></trkpt><trkpt lat="43.2036834" lon="12.9455937"><ele>988.0</ele><time>2026-04-25T12:15:17.338Z</time></trkpt><trkpt lat="43.203696" lon="12.9456972"><ele>988.0</ele><time>2026-04-25T12:15:19.331Z</time></trkpt><trkpt lat="43.2038114" lon="12.9457351"><ele>988.0</ele><time>2026-04-25T12:15:21.334Z</time></trkpt><trkpt lat="43.2039057" lon="12.945722"><ele>988.0</ele><time>2026-04-25T12:15:22.332Z</time></trkpt><trkpt lat="43.2040259" lon="12.9457167"><ele>988.0</ele><time>2026-04-25T12:15:23.329Z</time></trkpt><trkpt lat="43.2041537" lon="12.9457353"><ele>989.5</ele><time>2026-04-25T12:15:24.333Z</time></trkpt><trkpt lat="43.2042898" lon="12.9457707"><ele>991.0</ele><time>2026-04-25T12:15:25.33Z</time></trkpt><trkpt lat="43.2044187" lon="12.9458185"><ele>992.5</ele><time>2026-04-25T12:15:26.332Z</time></trkpt><trkpt lat="43.2045449" lon="12.9458629"><ele>994.0</ele><time>2026-04-25T12:15:27.334Z</time></trkpt><trkpt lat="43.2046788" lon="12.9459017"><ele>998.75</ele><time>2026-04-25T12:15:28.331Z</time></trkpt><trkpt lat="43.2048169" lon="12.9459366"><ele>1003.5</ele><time>2026-04-25T12:15:29.329Z</time></trkpt><trkpt lat="43.2049571" lon="12.9459742"><ele>1008.25</ele><time>2026-04-25T12:15:30.332Z</time></trkpt><trkpt lat="43.2051069" lon="12.9460227"><ele>1013.0</ele><time>2026-04-25T12:15:31.333Z</time></trkpt><trkpt lat="43.205256" lon="12.9460826"><ele>1013.0</ele><time>2026-04-25T12:15:32.332Z</time></trkpt><trkpt lat="43.2054007" lon="12.9461526"><ele>1013.0</ele><time>2026-04-25T12:15:33.333Z</time></trkpt><trkpt lat="43.205529" lon="12.946222"><ele>1013.0</ele><time>2026-04-25T12:15:34.329Z</time></trkpt><trkpt lat="43.2056317" lon="12.9462875"><ele>1013.0</ele><time>2026-04-25T12:15:35.333Z</time></trkpt><trkpt lat="43.2057092" lon="12.9463423"><ele>1013.0000000000001</ele><time>2026-04-25T12:15:36.323Z</time></trkpt><trkpt lat="43.2057763" lon="12.9464436"><ele>1013.0</ele><time>2026-04-25T12:15:38.336Z</time></trkpt><trkpt lat="43.2057401" lon="12.9465359"><ele>1013.0</ele><time>2026-04-25T12:15:40.338Z</time></trkpt><trkpt lat="43.2056344" lon="12.9465621"><ele>1013.0</ele><time>2026-04-25T12:15:42.324Z</time></trkpt><trkpt lat="43.2055679" lon="12.9465555"><ele>1013.0000000000001</ele><time>2026-04-25T12:15:43.34Z</time></trkpt><trkpt lat="43.2054945" lon="12.9465416"><ele>1013.0</ele><time>2026-04-25T12:15:44.339Z</time></trkpt><trkpt lat="43.2054112" lon="12.9465352"><ele>1013.0</ele><time>2026-04-25T12:15:45.332Z</time></trkpt><trkpt lat="43.2053233" lon="12.9465439"><ele>1013.0</ele><time>2026-04-25T12:15:46.337Z</time></trkpt><trkpt lat="43.2052313" lon="12.9465641"><ele>1013.0</ele><time>2026-04-25T12:15:47.336Z</time></trkpt><trkpt lat="43.205135" lon="12.9465907"><ele>1013.0</ele><time>2026-04-25T12:15:48.336Z</time></trkpt><trkpt lat="43.2050291" lon="12.9466188"><ele>1013.0</ele><time>2026-04-25T12:15:49.334Z</time></trkpt><trkpt lat="43.2049258" lon="12.9466448"><ele>1013.0</ele><time>2026-04-25T12:15:50.332Z</time></trkpt><trkpt lat="43.2048425" lon="12.9466654"><ele>1013.0</ele><time>2026-04-25T12:15:51.34Z</time></trkpt><trkpt lat="43.2047417" lon="12.9467183"><ele>1013.0</ele><time>2026-04-25T12:15:53.336Z</time></trkpt><trkpt lat="43.2047486" lon="12.9468276"><ele>1013.0</ele><time>2026-04-25T12:15:56.334Z</time></trkpt><trkpt lat="43.2048509" lon="12.9468638"><ele>1013.0</ele><time>2026-04-25T12:15:58.329Z</time></trkpt><trkpt lat="43.2049314" lon="12.9468708"><ele>1016.2</ele><time>2026-04-25T12:15:59.338Z</time></trkpt><trkpt lat="43.2050232" lon="12.9468862"><ele>1019.4</ele><time>2026-04-25T12:16:00.341Z</time></trkpt><trkpt lat="43.2051158" lon="12.9469211"><ele>1022.6000000000001</ele><time>2026-04-25T12:16:01.327Z</time></trkpt><trkpt lat="43.2052058" lon="12.9469766"><ele>1025.8</ele><time>2026-04-25T12:16:02.342Z</time></trkpt><trkpt lat="43.2052856" lon="12.9470484"><ele>1029.0</ele><time>2026-04-25T12:16:03.338Z</time></trkpt><trkpt lat="43.2053503" lon="12.9471277"><ele>1029.0</ele><time>2026-04-25T12:16:04.338Z</time></trkpt><trkpt lat="43.2053953" lon="12.9472097"><ele>1029.0</ele><time>2026-04-25T12:16:05.339Z</time></trkpt><trkpt lat="43.2054134" lon="12.9472932"><ele>1029.0</ele><time>2026-04-25T12:16:06.34Z</time></trkpt><trkpt lat="43.205406" lon="12.9473806"><ele>1029.0</ele><time>2026-04-25T12:16:07.34Z</time></trkpt><trkpt lat="43.2053771" lon="12.9474732"><ele>1029.0</ele><time>2026-04-25T12:16:08.34Z</time></trkpt><trkpt lat="43.2053276" lon="12.9475838"><ele>1029.0</ele><time>2026-04-25T12:16:09.334Z</time></trkpt><trkpt lat="43.2052727" lon="12.9477169"><ele>1031.5</ele><time>2026-04-25T12:16:10.333Z</time></trkpt><trkpt lat="43.2052269" lon="12.9478722"><ele>1034.0</ele><time>2026-04-25T12:16:11.338Z</time></trkpt><trkpt lat="43.2051902" lon="12.9480408"><ele>1036.5</ele><time>2026-04-25T12:16:12.33Z</time></trkpt><trkpt lat="43.2051606" lon="12.9482164"><ele>1039.0</ele><time>2026-04-25T12:16:13.338Z</time></trkpt><trkpt lat="43.2051314" lon="12.948391"><ele>1040.0</ele><time>2026-04-25T12:16:14.328Z</time></trkpt><trkpt lat="43.2050965" lon="12.9485729"><ele>1041.0</ele><time>2026-04-25T12:16:15.327Z</time></trkpt><trkpt lat="43.2050593" lon="12.9487581"><ele>1042.0</ele><time>2026-04-25T12:16:16.341Z</time></trkpt><trkpt lat="43.2050236" lon="12.9489403"><ele>1043.0</ele><time>2026-04-25T12:16:17.337Z</time></trkpt><trkpt lat="43.2049905" lon="12.949124"><ele>1044.25</ele><time>2026-04-25T12:16:18.335Z</time></trkpt><trkpt lat="43.2049682" lon="12.9493066"><ele>1045.5</ele><time>2026-04-25T12:16:19.326Z</time></trkpt><trkpt lat="43.2049565" lon="12.94948"><ele>1046.75</ele><time>2026-04-25T12:16:20.334Z</time></trkpt><trkpt lat="43.2049481" lon="12.9496344"><ele>1048.0</ele><time>2026-04-25T12:16:21.332Z</time></trkpt><trkpt lat="43.2049335" lon="12.9497738"><ele>1048.0</ele><time>2026-04-25T12:16:22.338Z</time></trkpt><trkpt lat="43.2049082" lon="12.9499073"><ele>1048.0</ele><time>2026-04-25T12:16:23.339Z</time></trkpt><trkpt lat="43.2048704" lon="12.9500451"><ele>1048.0</ele><time>2026-04-25T12:16:24.337Z</time></trkpt><trkpt lat="43.2048246" lon="12.9501854"><ele>1048.0</ele><time>2026-04-25T12:16:25.337Z</time></trkpt><trkpt lat="43.2047867" lon="12.9503281"><ele>1048.0</ele><time>2026-04-25T12:16:26.336Z</time></trkpt><trkpt lat="43.2047651" lon="12.9504788"><ele>1046.2</ele><time>2026-04-25T12:16:27.335Z</time></trkpt><trkpt lat="43.2047562" lon="12.9506368"><ele>1044.4</ele><time>2026-04-25T12:16:28.338Z</time></trkpt><trkpt lat="43.2047438" lon="12.9507983"><ele>1042.6000000000001</ele><time>2026-04-25T12:16:29.334Z</time></trkpt><trkpt lat="43.2047195" lon="12.9509458"><ele>1040.8</ele><time>2026-04-25T12:16:30.342Z</time></trkpt><trkpt lat="43.2046774" lon="12.9510701"><ele>1039.0</ele><time>2026-04-25T12:16:31.329Z</time></trkpt><trkpt lat="43.2046266" lon="12.9511776"><ele>1039.0</ele><time>2026-04-25T12:16:32.34Z</time></trkpt><trkpt lat="43.2045855" lon="12.9512757"><ele>1039.0</ele><time>2026-04-25T12:16:33.339Z</time></trkpt><trkpt lat="43.2045622" lon="12.9513637"><ele>1039.0</ele><time>2026-04-25T12:16:34.334Z</time></trkpt><trkpt lat="43.204554" lon="12.9514573"><ele>1039.0</ele><time>2026-04-25T12:16:35.336Z</time></trkpt><trkpt lat="43.2045603" lon="12.951559"><ele>1039.0</ele><time>2026-04-25T12:16:36.34Z</time></trkpt><trkpt lat="43.2045746" lon="12.9516733"><ele>1039.0</ele><time>2026-04-25T12:16:37.336Z</time></trkpt><trkpt lat="43.2045965" lon="12.9517948"><ele>1039.6666666666665</ele><time>2026-04-25T12:16:38.341Z</time></trkpt><trkpt lat="43.2046274" lon="12.9519062"><ele>1040.3333333333333</ele><time>2026-04-25T12:16:39.343Z</time></trkpt><trkpt lat="43.2046655" lon="12.9520033"><ele>1041.0</ele><time>2026-04-25T12:16:40.34Z</time></trkpt><trkpt lat="43.204711" lon="12.9520836"><ele>1041.6666666666667</ele><time>2026-04-25T12:16:41.337Z</time></trkpt><trkpt lat="43.2047586" lon="12.9521574"><ele>1042.3333333333335</ele><time>2026-04-25T12:16:42.34Z</time></trkpt><trkpt lat="43.2047994" lon="12.9522263"><ele>1043.0</ele><time>2026-04-25T12:16:43.331Z</time></trkpt><trkpt lat="43.2048321" lon="12.9523802"><ele>1043.0</ele><time>2026-04-25T12:16:45.331Z</time></trkpt><trkpt lat="43.2048221" lon="12.9524747"><ele>1043.0</ele><time>2026-04-25T12:16:46.337Z</time></trkpt><trkpt lat="43.204797" lon="12.952573"><ele>1043.0</ele><time>2026-04-25T12:16:47.339Z</time></trkpt><trkpt lat="43.2047677" lon="12.9526647"><ele>1043.0</ele><time>2026-04-25T12:16:48.338Z</time></trkpt><trkpt lat="43.204736" lon="12.9527579"><ele>1043.0</ele><time>2026-04-25T12:16:49.341Z</time></trkpt><trkpt lat="43.2046971" lon="12.9528513"><ele>1043.0</ele><time>2026-04-25T12:16:50.338Z</time></trkpt><trkpt lat="43.20465" lon="12.9529491"><ele>1045.1666666666667</ele><time>2026-04-25T12:16:51.338Z</time></trkpt><trkpt lat="43.2046056" lon="12.9530523"><ele>1047.3333333333335</ele><time>2026-04-25T12:16:52.344Z</time></trkpt><trkpt lat="43.2045748" lon="12.9531604"><ele>1049.5</ele><time>2026-04-25T12:16:53.328Z</time></trkpt><trkpt lat="43.2045528" lon="12.9532793"><ele>1051.6666666666667</ele><time>2026-04-25T12:16:54.337Z</time></trkpt><trkpt lat="43.2045317" lon="12.9534056"><ele>1053.8333333333333</ele><time>2026-04-25T12:16:55.337Z</time></trkpt><trkpt lat="43.204509" lon="12.9535242"><ele>1056.0</ele><time>2026-04-25T12:16:56.34Z</time></trkpt><trkpt lat="43.2044847" lon="12.9536219"><ele>1057.6666666666667</ele><time>2026-04-25T12:16:57.342Z</time></trkpt><trkpt lat="43.2044466" lon="12.9536988"><ele>1059.3333333333333</ele><time>2026-04-25T12:16:58.33Z</time></trkpt><trkpt lat="43.2044044" lon="12.953771"><ele>1061.0</ele><time>2026-04-25T12:16:59.339Z</time></trkpt><trkpt lat="43.204366" lon="12.953851"><ele>1062.6666666666665</ele><time>2026-04-25T12:17:00.338Z</time></trkpt><trkpt lat="43.2043313" lon="12.9539431"><ele>1064.3333333333333</ele><time>2026-04-25T12:17:01.328Z</time></trkpt><trkpt lat="43.2042916" lon="12.9540471"><ele>1066.0</ele><time>2026-04-25T12:17:02.342Z</time></trkpt><trkpt lat="43.2042486" lon="12.9541605"><ele>1067.8</ele><time>2026-04-25T12:17:03.334Z</time></trkpt><trkpt lat="43.2042051" lon="12.9542811"><ele>1069.6</ele><time>2026-04-25T12:17:04.339Z</time></trkpt><trkpt lat="43.2041653" lon="12.9544015"><ele>1071.4</ele><time>2026-04-25T12:17:05.338Z</time></trkpt><trkpt lat="43.2041308" lon="12.9545193"><ele>1073.2</ele><time>2026-04-25T12:17:06.339Z</time></trkpt><trkpt lat="43.2041018" lon="12.9546413"><ele>1075.0</ele><time>2026-04-25T12:17:07.33Z</time></trkpt><trkpt lat="43.2040746" lon="12.9547665"><ele>1075.0</ele><time>2026-04-25T12:17:08.33Z</time></trkpt><trkpt lat="43.2040511" lon="12.9548977"><ele>1075.0</ele><time>2026-04-25T12:17:09.338Z</time></trkpt><trkpt lat="43.2040311" lon="12.9550323"><ele>1075.0</ele><time>2026-04-25T12:17:10.335Z</time></trkpt><trkpt lat="43.2040084" lon="12.9551634"><ele>1075.0</ele><time>2026-04-25T12:17:11.329Z</time></trkpt><trkpt lat="43.2039853" lon="12.9552874"><ele>1075.0</ele><time>2026-04-25T12:17:12.329Z</time></trkpt><trkpt lat="43.2039633" lon="12.955408"><ele>1075.2</ele><time>2026-04-25T12:17:13.338Z</time></trkpt><trkpt lat="43.2039477" lon="12.955527"><ele>1075.4</ele><time>2026-04-25T12:17:14.328Z</time></trkpt><trkpt lat="43.2039382" lon="12.9556463"><ele>1075.6</ele><time>2026-04-25T12:17:15.335Z</time></trkpt><trkpt lat="43.2039318" lon="12.9557685"><ele>1075.8</ele><time>2026-04-25T12:17:16.338Z</time></trkpt><trkpt lat="43.2039246" lon="12.9558942"><ele>1076.0</ele><time>2026-04-25T12:17:17.328Z</time></trkpt><trkpt lat="43.203915" lon="12.9560239"><ele>1076.0</ele><time>2026-04-25T12:17:18.334Z</time></trkpt><trkpt lat="43.2039032" lon="12.9561568"><ele>1076.0</ele><time>2026-04-25T12:17:19.335Z</time></trkpt><trkpt lat="43.2038939" lon="12.9562925"><ele>1076.0</ele><time>2026-04-25T12:17:20.336Z</time></trkpt><trkpt lat="43.2038898" lon="12.9564293"><ele>1076.0</ele><time>2026-04-25T12:17:21.33Z</time></trkpt><trkpt lat="43.2038857" lon="12.9565664"><ele>1076.0</ele><time>2026-04-25T12:17:22.34Z</time></trkpt><trkpt lat="43.203879" lon="12.9567002"><ele>1075.8</ele><time>2026-04-25T12:17:23.328Z</time></trkpt><trkpt lat="43.2038629" lon="12.9568354"><ele>1075.6</ele><time>2026-04-25T12:17:24.337Z</time></trkpt><trkpt lat="43.2038305" lon="12.9569701"><ele>1075.4</ele><time>2026-04-25T12:17:25.328Z</time></trkpt><trkpt lat="43.2037855" lon="12.957106"><ele>1075.2</ele><time>2026-04-25T12:17:26.342Z</time></trkpt><trkpt lat="43.203733" lon="12.9572354"><ele>1075.0</ele><time>2026-04-25T12:17:27.335Z</time></trkpt><trkpt lat="43.2036777" lon="12.9573588"><ele>1075.0</ele><time>2026-04-25T12:17:28.322Z</time></trkpt><trkpt lat="43.2036264" lon="12.957487"><ele>1075.0</ele><time>2026-04-25T12:17:29.339Z</time></trkpt><trkpt lat="43.2035829" lon="12.9576175"><ele>1075.0</ele><time>2026-04-25T12:17:30.333Z</time></trkpt><trkpt lat="43.2035458" lon="12.9577483"><ele>1075.0</ele><time>2026-04-25T12:17:31.337Z</time></trkpt><trkpt lat="43.2035139" lon="12.9578786"><ele>1075.0</ele><time>2026-04-25T12:17:32.342Z</time></trkpt><trkpt lat="43.2034881" lon="12.9580088"><ele>1074.0</ele><time>2026-04-25T12:17:33.335Z</time></trkpt><trkpt lat="43.2034667" lon="12.9581385"><ele>1073.0</ele><time>2026-04-25T12:17:34.334Z</time></trkpt><trkpt lat="43.2034488" lon="12.9582675"><ele>1072.0</ele><time>2026-04-25T12:17:35.335Z</time></trkpt><trkpt lat="43.2034357" lon="12.9583942"><ele>1071.0</ele><time>2026-04-25T12:17:36.339Z</time></trkpt><trkpt lat="43.2034277" lon="12.9585195"><ele>1070.0</ele><time>2026-04-25T12:17:37.336Z</time></trkpt><trkpt lat="43.2034256" lon="12.958643"><ele>1069.8333333333335</ele><time>2026-04-25T12:17:38.338Z</time></trkpt><trkpt lat="43.203423" lon="12.958764"><ele>1069.6666666666667</ele><time>2026-04-25T12:17:39.331Z</time></trkpt><trkpt lat="43.2034197" lon="12.958883"><ele>1069.5</ele><time>2026-04-25T12:17:40.332Z</time></trkpt><trkpt lat="43.2034189" lon="12.9590042"><ele>1069.3333333333333</ele><time>2026-04-25T12:17:41.338Z</time></trkpt><trkpt lat="43.203422" lon="12.9591272"><ele>1069.1666666666665</ele><time>2026-04-25T12:17:42.341Z</time></trkpt><trkpt lat="43.203426" lon="12.9592471"><ele>1069.0</ele><time>2026-04-25T12:17:43.337Z</time></trkpt><trkpt lat="43.2034359" lon="12.9593585"><ele>1069.0</ele><time>2026-04-25T12:17:44.339Z</time></trkpt><trkpt lat="43.2034511" lon="12.9594504"><ele>1069.0</ele><time>2026-04-25T12:17:45.339Z</time></trkpt><trkpt lat="43.2034648" lon="12.9596059"><ele>1069.0</ele><time>2026-04-25T12:17:47.338Z</time></trkpt><trkpt lat="43.2034561" lon="12.9597113"><ele>1069.0</ele><time>2026-04-25T12:17:48.341Z</time></trkpt><trkpt lat="43.203446" lon="12.9598194"><ele>1069.0</ele><time>2026-04-25T12:17:49.336Z</time></trkpt><trkpt lat="43.2034269" lon="12.9599081"><ele>1069.0</ele><time>2026-04-25T12:17:50.341Z</time></trkpt><trkpt lat="43.2033929" lon="12.9599832"><ele>1069.1666666666665</ele><time>2026-04-25T12:17:51.341Z</time></trkpt><trkpt lat="43.2033392" lon="12.9600509"><ele>1069.3333333333333</ele><time>2026-04-25T12:17:52.33Z</time></trkpt><trkpt lat="43.2032648" lon="12.9601109"><ele>1069.5</ele><time>2026-04-25T12:17:53.331Z</time></trkpt><trkpt lat="43.203183" lon="12.9601775"><ele>1069.6666666666667</ele><time>2026-04-25T12:17:54.339Z</time></trkpt><trkpt lat="43.2031013" lon="12.9602503"><ele>1069.8333333333335</ele><time>2026-04-25T12:17:55.337Z</time></trkpt><trkpt lat="43.2030226" lon="12.9603291"><ele>1070.0</ele><time>2026-04-25T12:17:56.332Z</time></trkpt><trkpt lat="43.2029397" lon="12.9604171"><ele>1070.0</ele><time>2026-04-25T12:17:57.337Z</time></trkpt><trkpt lat="43.2028513" lon="12.9605153"><ele>1070.0</ele><time>2026-04-25T12:17:58.327Z</time></trkpt><trkpt lat="43.2027642" lon="12.9606172"><ele>1070.0</ele><time>2026-04-25T12:17:59.336Z</time></trkpt><trkpt lat="43.2026825" lon="12.9607173"><ele>1070.0</ele><time>2026-04-25T12:18:00.341Z</time></trkpt><trkpt lat="43.2026035" lon="12.9608112"><ele>1070.0</ele><time>2026-04-25T12:18:01.33Z</time></trkpt><trkpt lat="43.2025284" lon="12.960904"><ele>1070.6</ele><time>2026-04-25T12:18:02.339Z</time></trkpt><trkpt lat="43.2024561" lon="12.9609947"><ele>1071.2</ele><time>2026-04-25T12:18:03.328Z</time></trkpt><trkpt lat="43.2023884" lon="12.961079"><ele>1071.8</ele><time>2026-04-25T12:18:04.336Z</time></trkpt><trkpt lat="43.2023231" lon="12.961166"><ele>1072.4</ele><time>2026-04-25T12:18:05.34Z</time></trkpt><trkpt lat="43.2022598" lon="12.9612611"><ele>1073.0</ele><time>2026-04-25T12:18:06.336Z</time></trkpt><trkpt lat="43.202197" lon="12.9613547"><ele>1071.2</ele><time>2026-04-25T12:18:07.341Z</time></trkpt><trkpt lat="43.202136" lon="12.96145"><ele>1069.4</ele><time>2026-04-25T12:18:08.338Z</time></trkpt><trkpt lat="43.2020743" lon="12.9615505"><ele>1067.6000000000001</ele><time>2026-04-25T12:18:09.337Z</time></trkpt><trkpt lat="43.202012" lon="12.9616525"><ele>1065.8</ele><time>2026-04-25T12:18:10.34Z</time></trkpt><trkpt lat="43.2019514" lon="12.9617528"><ele>1064.0</ele><time>2026-04-25T12:18:11.337Z</time></trkpt><trkpt lat="43.201893" lon="12.961851"><ele>1064.0</ele><time>2026-04-25T12:18:12.328Z</time></trkpt><trkpt lat="43.2018388" lon="12.961948"><ele>1064.0</ele><time>2026-04-25T12:18:13.329Z</time></trkpt><trkpt lat="43.2017904" lon="12.9620426"><ele>1064.0</ele><time>2026-04-25T12:18:14.335Z</time></trkpt><trkpt lat="43.2017446" lon="12.9621345"><ele>1064.0</ele><time>2026-04-25T12:18:15.33Z</time></trkpt><trkpt lat="43.2017035" lon="12.9622264"><ele>1064.0</ele><time>2026-04-25T12:18:16.337Z</time></trkpt><trkpt lat="43.2016666" lon="12.9623173"><ele>1064.0</ele><time>2026-04-25T12:18:17.339Z</time></trkpt><trkpt lat="43.2016324" lon="12.9624063"><ele>1064.0</ele><time>2026-04-25T12:18:18.333Z</time></trkpt><trkpt lat="43.2016" lon="12.9624964"><ele>1064.0</ele><time>2026-04-25T12:18:19.34Z</time></trkpt><trkpt lat="43.2015656" lon="12.9625847"><ele>1064.0</ele><time>2026-04-25T12:18:20.329Z</time></trkpt><trkpt lat="43.2015277" lon="12.962667"><ele>1064.0</ele><time>2026-04-25T12:18:21.336Z</time></trkpt><trkpt lat="43.2014824" lon="12.9627456"><ele>1064.0</ele><time>2026-04-25T12:18:22.341Z</time></trkpt><trkpt lat="43.201432" lon="12.9628212"><ele>1064.0</ele><time>2026-04-25T12:18:23.34Z</time></trkpt><trkpt lat="43.2013756" lon="12.9628988"><ele>1064.0</ele><time>2026-04-25T12:18:24.339Z</time></trkpt><trkpt lat="43.2013158" lon="12.9629814"><ele>1063.5</ele><time>2026-04-25T12:18:25.342Z</time></trkpt><trkpt lat="43.2012582" lon="12.9630718"><ele>1063.0</ele><time>2026-04-25T12:18:26.338Z</time></trkpt><trkpt lat="43.2012016" lon="12.9631691"><ele>1062.5</ele><time>2026-04-25T12:18:27.339Z</time></trkpt><trkpt lat="43.2011452" lon="12.9632674"><ele>1062.0</ele><time>2026-04-25T12:18:28.338Z</time></trkpt><trkpt lat="43.2010874" lon="12.9633632"><ele>1061.5</ele><time>2026-04-25T12:18:29.339Z</time></trkpt><trkpt lat="43.2010326" lon="12.9634536"><ele>1061.0</ele><time>2026-04-25T12:18:30.34Z</time></trkpt><trkpt lat="43.2009848" lon="12.9635383"><ele>1061.0</ele><time>2026-04-25T12:18:31.334Z</time></trkpt><trkpt lat="43.2009459" lon="12.9636196"><ele>1061.0</ele><time>2026-04-25T12:18:32.338Z</time></trkpt><trkpt lat="43.2009189" lon="12.9636995"><ele>1061.0</ele><time>2026-04-25T12:18:33.338Z</time></trkpt><trkpt lat="43.2008895" lon="12.9638491"><ele>1061.0</ele><time>2026-04-25T12:18:35.328Z</time></trkpt><trkpt lat="43.2008699" lon="12.9639979"><ele>1061.0</ele><time>2026-04-25T12:18:37.334Z</time></trkpt><trkpt lat="43.2008224" lon="12.9641571"><ele>1059.3333333333335</ele><time>2026-04-25T12:18:39.323Z</time></trkpt><trkpt lat="43.2007781" lon="12.9642397"><ele>1057.6666666666667</ele><time>2026-04-25T12:18:40.336Z</time></trkpt><trkpt lat="43.200729" lon="12.964323"><ele>1056.0</ele><time>2026-04-25T12:18:41.338Z</time></trkpt><trkpt lat="43.2006827" lon="12.964408"><ele>1054.3333333333333</ele><time>2026-04-25T12:18:42.341Z</time></trkpt><trkpt lat="43.2006377" lon="12.9644949"><ele>1052.6666666666665</ele><time>2026-04-25T12:18:43.336Z</time></trkpt><trkpt lat="43.2005929" lon="12.9645777"><ele>1051.0</ele><time>2026-04-25T12:18:44.338Z</time></trkpt><trkpt lat="43.2005454" lon="12.964658"><ele>1050.1666666666665</ele><time>2026-04-25T12:18:45.333Z</time></trkpt><trkpt lat="43.2004984" lon="12.9647272"><ele>1049.3333333333333</ele><time>2026-04-25T12:18:46.339Z</time></trkpt><trkpt lat="43.200392" lon="12.9648098"><ele>1048.5</ele><time>2026-04-25T12:18:48.337Z</time></trkpt><trkpt lat="43.2003276" lon="12.9648098"><ele>1047.6666666666667</ele><time>2026-04-25T12:18:49.33Z</time></trkpt><trkpt lat="43.2002618" lon="12.9647807"><ele>1046.8333333333335</ele><time>2026-04-25T12:18:50.335Z</time></trkpt><trkpt lat="43.2002046" lon="12.964734"><ele>1046.0</ele><time>2026-04-25T12:18:51.34Z</time></trkpt><trkpt lat="43.2001138" lon="12.9646342"><ele>1046.0</ele><time>2026-04-25T12:18:53.328Z</time></trkpt><trkpt lat="43.2000447" lon="12.964553"><ele>1046.0</ele><time>2026-04-25T12:18:55.332Z</time></trkpt><trkpt lat="43.1999891" lon="12.9644796"><ele>1046.0</ele><time>2026-04-25T12:19:10.337Z</time></trkpt><trkpt lat="43.199932" lon="12.9643937"><ele>1046.0</ele><time>2026-04-25T12:19:12.329Z</time></trkpt><trkpt lat="43.1998495" lon="12.9642734"><ele>1046.0</ele><time>2026-04-25T12:19:14.338Z</time></trkpt><trkpt lat="43.1998063" lon="12.9642078"><ele>1046.0</ele><time>2026-04-25T12:19:15.339Z</time></trkpt><trkpt lat="43.1997616" lon="12.964142"><ele>1044.3333333333335</ele><time>2026-04-25T12:19:16.335Z</time></trkpt><trkpt lat="43.1997174" lon="12.9640764"><ele>1042.6666666666667</ele><time>2026-04-25T12:19:17.334Z</time></trkpt><trkpt lat="43.1996385" lon="12.9639402"><ele>1041.0</ele><time>2026-04-25T12:19:19.34Z</time></trkpt><trkpt lat="43.1995981" lon="12.9638727"><ele>1039.3333333333333</ele><time>2026-04-25T12:19:20.327Z</time></trkpt><trkpt lat="43.1995574" lon="12.9638023"><ele>1037.6666666666665</ele><time>2026-04-25T12:19:21.326Z</time></trkpt><trkpt lat="43.1995173" lon="12.9637271"><ele>1036.0</ele><time>2026-04-25T12:19:22.333Z</time></trkpt><trkpt lat="43.1994768" lon="12.9636511"><ele>1036.0</ele><time>2026-04-25T12:19:23.339Z</time></trkpt><trkpt lat="43.1994351" lon="12.9635749"><ele>1036.0</ele><time>2026-04-25T12:19:24.34Z</time></trkpt><trkpt lat="43.1993954" lon="12.9634972"><ele>1036.0</ele><time>2026-04-25T12:19:25.334Z</time></trkpt><trkpt lat="43.1993576" lon="12.9634194"><ele>1036.0</ele><time>2026-04-25T12:19:26.336Z</time></trkpt><trkpt lat="43.1993216" lon="12.9633404"><ele>1036.0</ele><time>2026-04-25T12:19:27.329Z</time></trkpt><trkpt lat="43.1992884" lon="12.9632588"><ele>1036.0</ele><time>2026-04-25T12:19:28.338Z</time></trkpt><trkpt lat="43.1992572" lon="12.9631766"><ele>1036.0</ele><time>2026-04-25T12:19:29.338Z</time></trkpt><trkpt lat="43.1992273" lon="12.9630977"><ele>1036.0</ele><time>2026-04-25T12:19:30.339Z</time></trkpt><trkpt lat="43.1991969" lon="12.9630213"><ele>1036.0</ele><time>2026-04-25T12:19:31.338Z</time></trkpt><trkpt lat="43.1991637" lon="12.9629458"><ele>1036.0</ele><time>2026-04-25T12:19:32.345Z</time></trkpt><trkpt lat="43.1991297" lon="12.9628687"><ele>1036.0</ele><time>2026-04-25T12:19:33.341Z</time></trkpt><trkpt lat="43.1990965" lon="12.9627891"><ele>1036.0</ele><time>2026-04-25T12:19:34.342Z</time></trkpt><trkpt lat="43.1990635" lon="12.9627053"><ele>1036.0</ele><time>2026-04-25T12:19:35.341Z</time></trkpt><trkpt lat="43.1990298" lon="12.9626178"><ele>1036.0</ele><time>2026-04-25T12:19:36.339Z</time></trkpt><trkpt lat="43.198997" lon="12.9625299"><ele>1033.7142857142858</ele><time>2026-04-25T12:19:37.339Z</time></trkpt><trkpt lat="43.1989661" lon="12.9624417"><ele>1031.4285714285716</ele><time>2026-04-25T12:19:38.333Z</time></trkpt><trkpt lat="43.1989366" lon="12.9623535"><ele>1029.142857142857</ele><time>2026-04-25T12:19:39.339Z</time></trkpt><trkpt lat="43.1989063" lon="12.9622662"><ele>1026.857142857143</ele><time>2026-04-25T12:19:40.339Z</time></trkpt><trkpt lat="43.1988769" lon="12.9621805"><ele>1024.5714285714287</ele><time>2026-04-25T12:19:41.339Z</time></trkpt><trkpt lat="43.1988482" lon="12.9620943"><ele>1022.2857142857143</ele><time>2026-04-25T12:19:42.333Z</time></trkpt><trkpt lat="43.1988212" lon="12.9620085"><ele>1020.0</ele><time>2026-04-25T12:19:43.335Z</time></trkpt><trkpt lat="43.1987967" lon="12.9619224"><ele>1020.0</ele><time>2026-04-25T12:19:44.339Z</time></trkpt><trkpt lat="43.1987725" lon="12.9618386"><ele>1020.0000000000001</ele><time>2026-04-25T12:19:45.327Z</time></trkpt><trkpt lat="43.1987498" lon="12.9617546"><ele>1020.0</ele><time>2026-04-25T12:19:46.339Z</time></trkpt><trkpt lat="43.1987285" lon="12.9616671"><ele>1020.0</ele><time>2026-04-25T12:19:47.326Z</time></trkpt><trkpt lat="43.1987083" lon="12.9615778"><ele>1020.0000000000001</ele><time>2026-04-25T12:19:48.34Z</time></trkpt><trkpt lat="43.1986917" lon="12.9614922"><ele>1020.0</ele><time>2026-04-25T12:19:49.339Z</time></trkpt><trkpt lat="43.1986635" lon="12.9613394"><ele>1020.0</ele><time>2026-04-25T12:19:51.338Z</time></trkpt><trkpt lat="43.1986514" lon="12.961215"><ele>1019.3333333333334</ele><time>2026-04-25T12:19:53.338Z</time></trkpt><trkpt lat="43.1986493" lon="12.9611101"><ele>1018.6666666666667</ele><time>2026-04-25T12:19:55.325Z</time></trkpt><trkpt lat="43.1986525" lon="12.9610226"><ele>1018.0</ele><time>2026-04-25T12:19:58.331Z</time></trkpt><trkpt lat="43.1986804" lon="12.9609176"><ele>1017.3333333333334</ele><time>2026-04-25T12:21:16.352Z</time></trkpt><trkpt lat="43.1987115" lon="12.9608264"><ele>1016.6666666666667</ele><time>2026-04-25T12:21:18.351Z</time></trkpt><trkpt lat="43.1987745" lon="12.9606725"><ele>1016.0</ele><time>2026-04-25T12:21:20.349Z</time></trkpt><trkpt lat="43.1988159" lon="12.9605933"><ele>1016.0000000000001</ele><time>2026-04-25T12:21:21.349Z</time></trkpt><trkpt lat="43.1988657" lon="12.9605112"><ele>1016.0</ele><time>2026-04-25T12:21:22.341Z</time></trkpt><trkpt lat="43.1989192" lon="12.9604327"><ele>1016.0</ele><time>2026-04-25T12:21:23.348Z</time></trkpt><trkpt lat="43.198968" lon="12.9603624"><ele>1016.0</ele><time>2026-04-25T12:21:24.353Z</time></trkpt><trkpt lat="43.199043" lon="12.9602367"><ele>1016.0000000000001</ele><time>2026-04-25T12:21:26.357Z</time></trkpt><trkpt lat="43.1990648" lon="12.9601226"><ele>1016.0</ele><time>2026-04-25T12:21:28.358Z</time></trkpt><trkpt lat="43.1990144" lon="12.9600197"><ele>1015.1999999999999</ele><time>2026-04-25T12:21:30.34Z</time></trkpt><trkpt lat="43.1989043" lon="12.9599811"><ele>1014.3999999999999</ele><time>2026-04-25T12:21:32.343Z</time></trkpt><trkpt lat="43.1987809" lon="12.9600173"><ele>1013.6</ele><time>2026-04-25T12:21:34.349Z</time></trkpt><trkpt lat="43.1987146" lon="12.9600539"><ele>1012.8</ele><time>2026-04-25T12:21:35.349Z</time></trkpt><trkpt lat="43.1986422" lon="12.960096"><ele>1012.0</ele><time>2026-04-25T12:21:36.337Z</time></trkpt><trkpt lat="43.1985646" lon="12.9601389"><ele>1011.9999999999999</ele><time>2026-04-25T12:21:37.35Z</time></trkpt><trkpt lat="43.1984782" lon="12.9601858"><ele>1012.0</ele><time>2026-04-25T12:21:38.34Z</time></trkpt><trkpt lat="43.1983916" lon="12.9602365"><ele>1012.0</ele><time>2026-04-25T12:21:39.339Z</time></trkpt><trkpt lat="43.198309" lon="12.9602847"><ele>1012.0</ele><time>2026-04-25T12:21:40.338Z</time></trkpt><trkpt lat="43.1982298" lon="12.9603326"><ele>1011.9999999999999</ele><time>2026-04-25T12:21:41.336Z</time></trkpt><trkpt lat="43.1981543" lon="12.9603826"><ele>1012.0</ele><time>2026-04-25T12:21:42.345Z</time></trkpt><trkpt lat="43.1980811" lon="12.9604431"><ele>1009.1666666666666</ele><time>2026-04-25T12:21:43.342Z</time></trkpt><trkpt lat="43.198013" lon="12.9605069"><ele>1006.3333333333333</ele><time>2026-04-25T12:21:44.338Z</time></trkpt><trkpt lat="43.1979493" lon="12.9605696"><ele>1003.5</ele><time>2026-04-25T12:21:45.343Z</time></trkpt><trkpt lat="43.1978923" lon="12.9606316"><ele>1000.6666666666667</ele><time>2026-04-25T12:21:46.329Z</time></trkpt><trkpt lat="43.1978457" lon="12.9607014"><ele>997.8333333333334</ele><time>2026-04-25T12:21:47.337Z</time></trkpt><trkpt lat="43.1978065" lon="12.9607823"><ele>995.0</ele><time>2026-04-25T12:21:48.342Z</time></trkpt><trkpt lat="43.1977671" lon="12.9608717"><ele>995.0000000000001</ele><time>2026-04-25T12:21:49.34Z</time></trkpt><trkpt lat="43.1977233" lon="12.9609609"><ele>995.0</ele><time>2026-04-25T12:21:50.338Z</time></trkpt><trkpt lat="43.1976805" lon="12.9610523"><ele>995.0</ele><time>2026-04-25T12:21:51.338Z</time></trkpt><trkpt lat="43.1976366" lon="12.961148"><ele>995.0</ele><time>2026-04-25T12:21:52.343Z</time></trkpt><trkpt lat="43.1975932" lon="12.961249"><ele>995.0000000000001</ele><time>2026-04-25T12:21:53.335Z</time></trkpt><trkpt lat="43.1975523" lon="12.9613479"><ele>995.0</ele><time>2026-04-25T12:21:54.34Z</time></trkpt><trkpt lat="43.1975156" lon="12.9614443"><ele>995.0000000000001</ele><time>2026-04-25T12:21:55.342Z</time></trkpt><trkpt lat="43.1974869" lon="12.9615406"><ele>995.0</ele><time>2026-04-25T12:21:56.339Z</time></trkpt><trkpt lat="43.1974619" lon="12.9616358"><ele>995.0</ele><time>2026-04-25T12:21:57.341Z</time></trkpt><trkpt lat="43.1974398" lon="12.9617402"><ele>995.0</ele><time>2026-04-25T12:21:58.341Z</time></trkpt><trkpt lat="43.1974197" lon="12.9618541"><ele>995.0000000000001</ele><time>2026-04-25T12:21:59.343Z</time></trkpt><trkpt lat="43.1973951" lon="12.9619735"><ele>995.0</ele><time>2026-04-25T12:22:00.335Z</time></trkpt><trkpt lat="43.1973688" lon="12.9620931"><ele>995.0000000000001</ele><time>2026-04-25T12:22:01.343Z</time></trkpt><trkpt lat="43.1973433" lon="12.9622072"><ele>995.0</ele><time>2026-04-25T12:22:02.343Z</time></trkpt><trkpt lat="43.1973178" lon="12.9623169"><ele>995.0</ele><time>2026-04-25T12:22:03.34Z</time></trkpt><trkpt lat="43.1972905" lon="12.9624265"><ele>995.0</ele><time>2026-04-25T12:22:04.334Z</time></trkpt><trkpt lat="43.197267" lon="12.9625417"><ele>995.0000000000001</ele><time>2026-04-25T12:22:05.326Z</time></trkpt><trkpt lat="43.1972434" lon="12.9626596"><ele>995.0</ele><time>2026-04-25T12:22:06.332Z</time></trkpt><trkpt lat="43.1972209" lon="12.96278"><ele>993.5000000000001</ele><time>2026-04-25T12:22:07.339Z</time></trkpt><trkpt lat="43.1971985" lon="12.9628977"><ele>992.0</ele><time>2026-04-25T12:22:08.34Z</time></trkpt><trkpt lat="43.1971732" lon="12.9630094"><ele>990.5</ele><time>2026-04-25T12:22:09.335Z</time></trkpt><trkpt lat="43.1971485" lon="12.9631134"><ele>989.0</ele><time>2026-04-25T12:22:10.338Z</time></trkpt><trkpt lat="43.1971232" lon="12.9632077"><ele>987.5000000000001</ele><time>2026-04-25T12:22:11.339Z</time></trkpt><trkpt lat="43.1970519" lon="12.96333"><ele>986.0</ele><time>2026-04-25T12:22:13.334Z</time></trkpt><trkpt lat="43.1969469" lon="12.9633528"><ele>986.0000000000001</ele><time>2026-04-25T12:22:15.33Z</time></trkpt><trkpt lat="43.1968806" lon="12.9633376"><ele>986.0</ele><time>2026-04-25T12:22:16.34Z</time></trkpt><trkpt lat="43.196806" lon="12.9633063"><ele>986.0</ele><time>2026-04-25T12:22:17.339Z</time></trkpt><trkpt lat="43.1967251" lon="12.9632486"><ele>986.0</ele><time>2026-04-25T12:22:18.338Z</time></trkpt><trkpt lat="43.1966398" lon="12.9631671"><ele>986.0000000000001</ele><time>2026-04-25T12:22:19.338Z</time></trkpt><trkpt lat="43.1965512" lon="12.9630854"><ele>986.0</ele><time>2026-04-25T12:22:20.337Z</time></trkpt><trkpt lat="43.1964626" lon="12.9630105"><ele>985.0</ele><time>2026-04-25T12:22:21.34Z</time></trkpt><trkpt lat="43.1963727" lon="12.9629343"><ele>983.9999999999999</ele><time>2026-04-25T12:22:22.338Z</time></trkpt><trkpt lat="43.1962789" lon="12.9628601"><ele>982.9999999999999</ele><time>2026-04-25T12:22:23.329Z</time></trkpt><trkpt lat="43.1961856" lon="12.9627938"><ele>982.0</ele><time>2026-04-25T12:22:24.339Z</time></trkpt><trkpt lat="43.1960926" lon="12.9627309"><ele>981.0</ele><time>2026-04-25T12:22:25.33Z</time></trkpt><trkpt lat="43.1960002" lon="12.9626702"><ele>981.0</ele><time>2026-04-25T12:22:26.337Z</time></trkpt><trkpt lat="43.1959095" lon="12.9626126"><ele>980.9999999999999</ele><time>2026-04-25T12:22:27.338Z</time></trkpt><trkpt lat="43.1958188" lon="12.9625598"><ele>980.9999999999999</ele><time>2026-04-25T12:22:28.334Z</time></trkpt><trkpt lat="43.1957278" lon="12.962509"><ele>981.0</ele><time>2026-04-25T12:22:29.338Z</time></trkpt><trkpt lat="43.195639" lon="12.9624589"><ele>981.0</ele><time>2026-04-25T12:22:30.338Z</time></trkpt><trkpt lat="43.1955551" lon="12.9624076"><ele>977.8333333333334</ele><time>2026-04-25T12:22:31.329Z</time></trkpt><trkpt lat="43.1954802" lon="12.9623576"><ele>974.6666666666667</ele><time>2026-04-25T12:22:32.342Z</time></trkpt><trkpt lat="43.195408" lon="12.9623133"><ele>971.5</ele><time>2026-04-25T12:22:33.338Z</time></trkpt><trkpt lat="43.1953321" lon="12.962289"><ele>968.3333333333334</ele><time>2026-04-25T12:22:34.331Z</time></trkpt><trkpt lat="43.1952543" lon="12.9622954"><ele>965.1666666666667</ele><time>2026-04-25T12:22:35.337Z</time></trkpt><trkpt lat="43.1951856" lon="12.9623347"><ele>962.0</ele><time>2026-04-25T12:22:36.343Z</time></trkpt><trkpt lat="43.1951254" lon="12.9624023"><ele>962.0</ele><time>2026-04-25T12:22:37.341Z</time></trkpt><trkpt lat="43.1950651" lon="12.9624888"><ele>962.0</ele><time>2026-04-25T12:22:38.333Z</time></trkpt><trkpt lat="43.1950036" lon="12.9625944"><ele>962.0</ele><time>2026-04-25T12:22:39.335Z</time></trkpt><trkpt lat="43.1949453" lon="12.9627073"><ele>962.0</ele><time>2026-04-25T12:22:40.328Z</time></trkpt><trkpt lat="43.1948967" lon="12.9628221"><ele>962.0</ele><time>2026-04-25T12:22:41.338Z</time></trkpt><trkpt lat="43.1948568" lon="12.9629354"><ele>957.6</ele><time>2026-04-25T12:22:42.343Z</time></trkpt><trkpt lat="43.194817" lon="12.963044"><ele>953.2</ele><time>2026-04-25T12:22:43.341Z</time></trkpt><trkpt lat="43.1947808" lon="12.9631551"><ele>948.8</ele><time>2026-04-25T12:22:44.341Z</time></trkpt><trkpt lat="43.1947493" lon="12.9632704"><ele>944.4</ele><time>2026-04-25T12:22:45.339Z</time></trkpt><trkpt lat="43.1947191" lon="12.9633874"><ele>940.0</ele><time>2026-04-25T12:22:46.342Z</time></trkpt><trkpt lat="43.1946904" lon="12.9635131"><ele>940.0</ele><time>2026-04-25T12:22:47.338Z</time></trkpt><trkpt lat="43.1946638" lon="12.963651"><ele>940.0</ele><time>2026-04-25T12:22:48.34Z</time></trkpt><trkpt lat="43.1946366" lon="12.963792"><ele>940.0</ele><time>2026-04-25T12:22:49.337Z</time></trkpt><trkpt lat="43.1946088" lon="12.9639331"><ele>940.0</ele><time>2026-04-25T12:22:50.341Z</time></trkpt><trkpt lat="43.1945836" lon="12.9640694"><ele>940.0</ele><time>2026-04-25T12:22:51.34Z</time></trkpt><trkpt lat="43.1945631" lon="12.9642059"><ele>939.4</ele><time>2026-04-25T12:22:52.343Z</time></trkpt><trkpt lat="43.194545" lon="12.9643415"><ele>938.8</ele><time>2026-04-25T12:22:53.341Z</time></trkpt><trkpt lat="43.1945238" lon="12.9644878"><ele>938.2</ele><time>2026-04-25T12:22:54.342Z</time></trkpt><trkpt lat="43.1945014" lon="12.9646332"><ele>937.6</ele><time>2026-04-25T12:22:55.329Z</time></trkpt><trkpt lat="43.1944793" lon="12.9647729"><ele>937.0</ele><time>2026-04-25T12:22:56.337Z</time></trkpt><trkpt lat="43.1944578" lon="12.9649119"><ele>936.8</ele><time>2026-04-25T12:22:57.338Z</time></trkpt><trkpt lat="43.1944356" lon="12.9650493"><ele>936.6</ele><time>2026-04-25T12:22:58.334Z</time></trkpt><trkpt lat="43.1944129" lon="12.9651861"><ele>936.3999999999999</ele><time>2026-04-25T12:22:59.337Z</time></trkpt><trkpt lat="43.1943899" lon="12.9653199"><ele>936.1999999999999</ele><time>2026-04-25T12:23:00.325Z</time></trkpt><trkpt lat="43.1943716" lon="12.9654533"><ele>936.0</ele><time>2026-04-25T12:23:01.336Z</time></trkpt><trkpt lat="43.1943539" lon="12.9655851"><ele>936.0</ele><time>2026-04-25T12:23:02.341Z</time></trkpt><trkpt lat="43.1943318" lon="12.9657186"><ele>935.9999999999999</ele><time>2026-04-25T12:23:03.339Z</time></trkpt><trkpt lat="43.1943087" lon="12.9658472"><ele>935.9999999999999</ele><time>2026-04-25T12:23:04.335Z</time></trkpt><trkpt lat="43.1942875" lon="12.9659716"><ele>936.0</ele><time>2026-04-25T12:23:05.335Z</time></trkpt><trkpt lat="43.1942658" lon="12.9660937"><ele>936.0</ele><time>2026-04-25T12:23:06.327Z</time></trkpt><trkpt lat="43.1942443" lon="12.9662146"><ele>936.0</ele><time>2026-04-25T12:23:07.339Z</time></trkpt><trkpt lat="43.1942236" lon="12.9663326"><ele>936.0</ele><time>2026-04-25T12:23:08.341Z</time></trkpt><trkpt lat="43.1942015" lon="12.9664475"><ele>936.0</ele><time>2026-04-25T12:23:09.331Z</time></trkpt><trkpt lat="43.1941805" lon="12.9665616"><ele>936.0</ele><time>2026-04-25T12:23:10.335Z</time></trkpt><trkpt lat="43.1941615" lon="12.9666756"><ele>936.0</ele><time>2026-04-25T12:23:11.341Z</time></trkpt><trkpt lat="43.1941422" lon="12.9667889"><ele>936.0</ele><time>2026-04-25T12:23:12.341Z</time></trkpt><trkpt lat="43.1941178" lon="12.9668993"><ele>935.6666666666666</ele><time>2026-04-25T12:23:13.34Z</time></trkpt><trkpt lat="43.1940877" lon="12.9670051"><ele>935.3333333333333</ele><time>2026-04-25T12:23:14.339Z</time></trkpt><trkpt lat="43.1940548" lon="12.9671075"><ele>935.0</ele><time>2026-04-25T12:23:15.329Z</time></trkpt><trkpt lat="43.19402" lon="12.9672127"><ele>934.6666666666666</ele><time>2026-04-25T12:23:16.34Z</time></trkpt><trkpt lat="43.1939838" lon="12.9673307"><ele>934.3333333333333</ele><time>2026-04-25T12:23:17.334Z</time></trkpt><trkpt lat="43.1939487" lon="12.9674554"><ele>934.0</ele><time>2026-04-25T12:23:18.337Z</time></trkpt><trkpt lat="43.1939156" lon="12.9675807"><ele>930.2</ele><time>2026-04-25T12:23:19.342Z</time></trkpt><trkpt lat="43.1938845" lon="12.9677003"><ele>926.4000000000001</ele><time>2026-04-25T12:23:20.33Z</time></trkpt><trkpt lat="43.1938514" lon="12.9678165"><ele>922.6</ele><time>2026-04-25T12:23:21.335Z</time></trkpt><trkpt lat="43.1938163" lon="12.9679308"><ele>918.8</ele><time>2026-04-25T12:23:22.339Z</time></trkpt><trkpt lat="43.1937794" lon="12.968043"><ele>915.0</ele><time>2026-04-25T12:23:23.339Z</time></trkpt><trkpt lat="43.1937454" lon="12.9681532"><ele>915.0</ele><time>2026-04-25T12:23:24.334Z</time></trkpt><trkpt lat="43.1937128" lon="12.9682601"><ele>915.0</ele><time>2026-04-25T12:23:25.329Z</time></trkpt><trkpt lat="43.1936829" lon="12.9683614"><ele>915.0</ele><time>2026-04-25T12:23:26.329Z</time></trkpt><trkpt lat="43.1936604" lon="12.9684566"><ele>915.0</ele><time>2026-04-25T12:23:27.336Z</time></trkpt><trkpt lat="43.1936468" lon="12.9685489"><ele>915.0</ele><time>2026-04-25T12:23:28.334Z</time></trkpt><trkpt lat="43.1936394" lon="12.9686375"><ele>915.0</ele><time>2026-04-25T12:23:29.338Z</time></trkpt><trkpt lat="43.1936143" lon="12.9687914"><ele>913.6</ele><time>2026-04-25T12:23:31.334Z</time></trkpt><trkpt lat="43.1935426" lon="12.9688808"><ele>912.2</ele><time>2026-04-25T12:23:33.338Z</time></trkpt><trkpt lat="43.1934201" lon="12.9689119"><ele>910.8</ele><time>2026-04-25T12:23:35.339Z</time></trkpt><trkpt lat="43.1932942" lon="12.9688821"><ele>909.4</ele><time>2026-04-25T12:23:37.343Z</time></trkpt><trkpt lat="43.1932275" lon="12.9688425"><ele>908.0</ele><time>2026-04-25T12:23:38.34Z</time></trkpt><trkpt lat="43.1931518" lon="12.9687999"><ele>907.8333333333334</ele><time>2026-04-25T12:23:39.335Z</time></trkpt><trkpt lat="43.1930685" lon="12.9687629"><ele>907.6666666666667</ele><time>2026-04-25T12:23:40.336Z</time></trkpt><trkpt lat="43.1929822" lon="12.9687342"><ele>907.5</ele><time>2026-04-25T12:23:41.338Z</time></trkpt><trkpt lat="43.1928989" lon="12.9687071"><ele>907.3333333333333</ele><time>2026-04-25T12:23:42.325Z</time></trkpt><trkpt lat="43.1928159" lon="12.9686803"><ele>907.1666666666666</ele><time>2026-04-25T12:23:43.336Z</time></trkpt><trkpt lat="43.1927399" lon="12.968659"><ele>907.0</ele><time>2026-04-25T12:23:44.336Z</time></trkpt><trkpt lat="43.1926701" lon="12.9686418"><ele>906.9999999999999</ele><time>2026-04-25T12:23:45.338Z</time></trkpt><trkpt lat="43.192605" lon="12.968623"><ele>907.0</ele><time>2026-04-25T12:23:46.338Z</time></trkpt><trkpt lat="43.1925181" lon="12.9685836"><ele>907.0</ele><time>2026-04-25T12:23:48.337Z</time></trkpt><trkpt lat="43.1924334" lon="12.9685264"><ele>907.0</ele><time>2026-04-25T12:28:04.33Z</time></trkpt><trkpt lat="43.1923729" lon="12.9684999"><ele>906.9999999999999</ele><time>2026-04-25T12:28:05.336Z</time></trkpt><trkpt lat="43.1922954" lon="12.968464"><ele>907.0</ele><time>2026-04-25T12:28:06.329Z</time></trkpt><trkpt lat="43.1922103" lon="12.9684297"><ele>907.0000000000001</ele><time>2026-04-25T12:28:07.326Z</time></trkpt><trkpt lat="43.1921302" lon="12.9684007"><ele>907.0</ele><time>2026-04-25T12:28:08.325Z</time></trkpt><trkpt lat="43.1920563" lon="12.9683813"><ele>907.0000000000001</ele><time>2026-04-25T12:28:09.341Z</time></trkpt><trkpt lat="43.1919813" lon="12.9683761"><ele>907.0000000000001</ele><time>2026-04-25T12:28:10.337Z</time></trkpt><trkpt lat="43.1919096" lon="12.9683804"><ele>907.0</ele><time>2026-04-25T12:28:11.339Z</time></trkpt><trkpt lat="43.1918402" lon="12.9683892"><ele>907.0000000000001</ele><time>2026-04-25T12:28:12.335Z</time></trkpt><trkpt lat="43.1917764" lon="12.9684038"><ele>907.0000000000001</ele><time>2026-04-25T12:28:13.328Z</time></trkpt><trkpt lat="43.1916583" lon="12.9684396"><ele>907.0</ele><time>2026-04-25T12:28:15.337Z</time></trkpt><trkpt lat="43.1915481" lon="12.9684889"><ele>907.0</ele><time>2026-04-25T12:28:17.336Z</time></trkpt><trkpt lat="43.1914435" lon="12.9685816"><ele>907.0</ele><time>2026-04-25T12:28:19.339Z</time></trkpt><trkpt lat="43.1913818" lon="12.9686408"><ele>907.0</ele><time>2026-04-25T12:28:20.329Z</time></trkpt><trkpt lat="43.1913165" lon="12.9687034"><ele>907.0</ele><time>2026-04-25T12:28:21.339Z</time></trkpt><trkpt lat="43.191251" lon="12.9687719"><ele>904.8333333333333</ele><time>2026-04-25T12:28:22.331Z</time></trkpt><trkpt lat="43.1911906" lon="12.968847"><ele>902.6666666666666</ele><time>2026-04-25T12:28:23.326Z</time></trkpt><trkpt lat="43.191136" lon="12.9689256"><ele>900.5</ele><time>2026-04-25T12:28:24.337Z</time></trkpt><trkpt lat="43.1910833" lon="12.9689997"><ele>898.3333333333333</ele><time>2026-04-25T12:28:25.339Z</time></trkpt><trkpt lat="43.1910289" lon="12.9690733"><ele>896.1666666666666</ele><time>2026-04-25T12:28:26.342Z</time></trkpt><trkpt lat="43.1909709" lon="12.9691568"><ele>894.0</ele><time>2026-04-25T12:28:27.339Z</time></trkpt><trkpt lat="43.1909118" lon="12.9692472"><ele>894.0</ele><time>2026-04-25T12:28:28.336Z</time></trkpt><trkpt lat="43.1908479" lon="12.969347"><ele>894.0000000000001</ele><time>2026-04-25T12:28:29.338Z</time></trkpt><trkpt lat="43.1907795" lon="12.9694531"><ele>894.0000000000001</ele><time>2026-04-25T12:28:30.329Z</time></trkpt><trkpt lat="43.1907094" lon="12.9695711"><ele>894.0</ele><time>2026-04-25T12:28:31.332Z</time></trkpt><trkpt lat="43.1906401" lon="12.9696901"><ele>894.0</ele><time>2026-04-25T12:28:32.334Z</time></trkpt><trkpt lat="43.1905733" lon="12.9698023"><ele>888.8333333333334</ele><time>2026-04-25T12:28:33.33Z</time></trkpt><trkpt lat="43.1905108" lon="12.9699045"><ele>883.6666666666667</ele><time>2026-04-25T12:28:34.338Z</time></trkpt><trkpt lat="43.1904491" lon="12.9699993"><ele>878.5</ele><time>2026-04-25T12:28:35.341Z</time></trkpt><trkpt lat="43.1903909" lon="12.9700858"><ele>873.3333333333334</ele><time>2026-04-25T12:28:36.338Z</time></trkpt><trkpt lat="43.190337" lon="12.9701686"><ele>868.1666666666667</ele><time>2026-04-25T12:28:37.33Z</time></trkpt><trkpt lat="43.1902889" lon="12.970254"><ele>863.0</ele><time>2026-04-25T12:28:38.336Z</time></trkpt><trkpt lat="43.1902477" lon="12.9703446"><ele>863.0</ele><time>2026-04-25T12:28:39.342Z</time></trkpt><trkpt lat="43.1902168" lon="12.9704338"><ele>863.0</ele><time>2026-04-25T12:28:40.338Z</time></trkpt><trkpt lat="43.1902006" lon="12.9705955"><ele>863.0</ele><time>2026-04-25T12:28:42.341Z</time></trkpt><trkpt lat="43.1902557" lon="12.9707393"><ele>863.0</ele><time>2026-04-25T12:28:44.326Z</time></trkpt><trkpt lat="43.1903547" lon="12.9708322"><ele>863.0</ele><time>2026-04-25T12:28:46.334Z</time></trkpt><trkpt lat="43.1904598" lon="12.9708747"><ele>860.0000000000001</ele><time>2026-04-25T12:28:48.337Z</time></trkpt><trkpt lat="43.1905262" lon="12.9708989"><ele>857.0</ele><time>2026-04-25T12:28:49.337Z</time></trkpt><trkpt lat="43.1905996" lon="12.9709324"><ele>854.0</ele><time>2026-04-25T12:28:50.338Z</time></trkpt><trkpt lat="43.1906731" lon="12.9709676"><ele>851.0</ele><time>2026-04-25T12:28:51.326Z</time></trkpt><trkpt lat="43.1907481" lon="12.9710014"><ele>848.0000000000001</ele><time>2026-04-25T12:28:52.341Z</time></trkpt><trkpt lat="43.1908289" lon="12.9710273"><ele>845.0</ele><time>2026-04-25T12:28:53.333Z</time></trkpt><trkpt lat="43.1909149" lon="12.9710453"><ele>845.0000000000001</ele><time>2026-04-25T12:28:54.337Z</time></trkpt><trkpt lat="43.191003" lon="12.9710556"><ele>845.0</ele><time>2026-04-25T12:28:55.336Z</time></trkpt><trkpt lat="43.191087" lon="12.9710559"><ele>845.0</ele><time>2026-04-25T12:28:56.331Z</time></trkpt><trkpt lat="43.1911666" lon="12.9710514"><ele>845.0</ele><time>2026-04-25T12:28:57.332Z</time></trkpt><trkpt lat="43.1912412" lon="12.971045"><ele>845.0000000000001</ele><time>2026-04-25T12:28:58.337Z</time></trkpt><trkpt lat="43.1913152" lon="12.9710351"><ele>845.0</ele><time>2026-04-25T12:28:59.321Z</time></trkpt><trkpt lat="43.1913898" lon="12.9710204"><ele>845.0000000000001</ele><time>2026-04-25T12:29:00.333Z</time></trkpt><trkpt lat="43.1914651" lon="12.9710049"><ele>845.0</ele><time>2026-04-25T12:29:01.333Z</time></trkpt><trkpt lat="43.1915382" lon="12.970989"><ele>845.0</ele><time>2026-04-25T12:29:02.338Z</time></trkpt><trkpt lat="43.1916104" lon="12.9709725"><ele>845.0</ele><time>2026-04-25T12:29:03.335Z</time></trkpt><trkpt lat="43.1916854" lon="12.9709551"><ele>845.0000000000001</ele><time>2026-04-25T12:29:04.334Z</time></trkpt><trkpt lat="43.1917645" lon="12.9709407"><ele>845.0</ele><time>2026-04-25T12:29:05.325Z</time></trkpt><trkpt lat="43.1918473" lon="12.9709254"><ele>843.8</ele><time>2026-04-25T12:29:06.332Z</time></trkpt><trkpt lat="43.1919331" lon="12.9709044"><ele>842.6</ele><time>2026-04-25T12:29:07.334Z</time></trkpt><trkpt lat="43.1920228" lon="12.9708764"><ele>841.4000000000001</ele><time>2026-04-25T12:29:08.331Z</time></trkpt><trkpt lat="43.1921131" lon="12.9708501"><ele>840.2</ele><time>2026-04-25T12:29:09.322Z</time></trkpt><trkpt lat="43.1922037" lon="12.9708221"><ele>839.0</ele><time>2026-04-25T12:29:10.322Z</time></trkpt><trkpt lat="43.1922906" lon="12.9707987"><ele>843.2</ele><time>2026-04-25T12:29:11.335Z</time></trkpt><trkpt lat="43.1923787" lon="12.9707782"><ele>847.4000000000001</ele><time>2026-04-25T12:29:12.325Z</time></trkpt><trkpt lat="43.1924666" lon="12.9707582"><ele>851.6</ele><time>2026-04-25T12:29:13.327Z</time></trkpt><trkpt lat="43.1925613" lon="12.9707499"><ele>855.8</ele><time>2026-04-25T12:29:14.325Z</time></trkpt><trkpt lat="43.1926596" lon="12.9707564"><ele>860.0</ele><time>2026-04-25T12:29:15.334Z</time></trkpt><trkpt lat="43.1927553" lon="12.9707709"><ele>860.0</ele><time>2026-04-25T12:29:16.332Z</time></trkpt><trkpt lat="43.1928492" lon="12.9707916"><ele>860.0</ele><time>2026-04-25T12:29:17.334Z</time></trkpt><trkpt lat="43.1929409" lon="12.9708205"><ele>860.0</ele><time>2026-04-25T12:29:18.331Z</time></trkpt><trkpt lat="43.1930335" lon="12.9708427"><ele>860.0</ele><time>2026-04-25T12:29:19.329Z</time></trkpt><trkpt lat="43.1931235" lon="12.9708587"><ele>860.0</ele><time>2026-04-25T12:29:20.326Z</time></trkpt><trkpt lat="43.1932098" lon="12.9708754"><ele>852.2</ele><time>2026-04-25T12:29:21.329Z</time></trkpt><trkpt lat="43.193299" lon="12.9708923"><ele>844.4</ele><time>2026-04-25T12:29:22.334Z</time></trkpt><trkpt lat="43.1933917" lon="12.9709149"><ele>836.5999999999999</ele><time>2026-04-25T12:29:23.327Z</time></trkpt><trkpt lat="43.1934837" lon="12.970942"><ele>828.8</ele><time>2026-04-25T12:29:24.329Z</time></trkpt><trkpt lat="43.1935759" lon="12.9709725"><ele>821.0</ele><time>2026-04-25T12:29:25.33Z</time></trkpt><trkpt lat="43.193665" lon="12.9710129"><ele>821.0000000000001</ele><time>2026-04-25T12:29:26.324Z</time></trkpt><trkpt lat="43.1937496" lon="12.9710596"><ele>821.0</ele><time>2026-04-25T12:29:27.328Z</time></trkpt><trkpt lat="43.1938316" lon="12.9711021"><ele>821.0</ele><time>2026-04-25T12:29:28.332Z</time></trkpt><trkpt lat="43.1939096" lon="12.9711436"><ele>821.0</ele><time>2026-04-25T12:29:29.329Z</time></trkpt><trkpt lat="43.1939861" lon="12.9711861"><ele>821.0000000000001</ele><time>2026-04-25T12:29:30.329Z</time></trkpt><trkpt lat="43.1940637" lon="12.9712272"><ele>821.0</ele><time>2026-04-25T12:29:31.319Z</time></trkpt><trkpt lat="43.1941406" lon="12.9712675"><ele>823.5999999999999</ele><time>2026-04-25T12:29:32.333Z</time></trkpt><trkpt lat="43.1942173" lon="12.9713133"><ele>826.2</ele><time>2026-04-25T12:29:33.333Z</time></trkpt><trkpt lat="43.1942864" lon="12.9713705"><ele>828.8</ele><time>2026-04-25T12:29:34.322Z</time></trkpt><trkpt lat="43.194336" lon="12.9714378"><ele>831.4000000000001</ele><time>2026-04-25T12:29:35.329Z</time></trkpt><trkpt lat="43.194375" lon="12.9715797"><ele>834.0</ele><time>2026-04-25T12:29:37.326Z</time></trkpt><trkpt lat="43.194353" lon="12.9717435"><ele>835.0</ele><time>2026-04-25T12:29:39.329Z</time></trkpt><trkpt lat="43.1943175" lon="12.9718389"><ele>836.0</ele><time>2026-04-25T12:29:40.32Z</time></trkpt><trkpt lat="43.1942808" lon="12.971926"><ele>837.0</ele><time>2026-04-25T12:29:41.33Z</time></trkpt><trkpt lat="43.1942445" lon="12.9719998"><ele>838.0</ele><time>2026-04-25T12:29:42.333Z</time></trkpt><trkpt lat="43.1942045" lon="12.9720758"><ele>839.0</ele><time>2026-04-25T12:29:43.322Z</time></trkpt><trkpt lat="43.1941679" lon="12.972154"><ele>840.0</ele><time>2026-04-25T12:29:44.328Z</time></trkpt><trkpt lat="43.1941313" lon="12.9722305"><ele>841.0</ele><time>2026-04-25T12:29:45.326Z</time></trkpt><trkpt lat="43.1940931" lon="12.9723063"><ele>841.0</ele><time>2026-04-25T12:29:46.323Z</time></trkpt><trkpt lat="43.1940497" lon="12.9723796"><ele>841.0</ele><time>2026-04-25T12:29:47.319Z</time></trkpt><trkpt lat="43.1940024" lon="12.9724505"><ele>841.0</ele><time>2026-04-25T12:29:48.321Z</time></trkpt><trkpt lat="43.1939576" lon="12.9725219"><ele>841.0</ele><time>2026-04-25T12:29:49.327Z</time></trkpt><trkpt lat="43.1939158" lon="12.9725944"><ele>841.0</ele><time>2026-04-25T12:29:50.329Z</time></trkpt><trkpt lat="43.1938747" lon="12.9726701"><ele>841.0</ele><time>2026-04-25T12:29:51.33Z</time></trkpt><trkpt lat="43.193833" lon="12.9727529"><ele>841.0</ele><time>2026-04-25T12:29:52.322Z</time></trkpt><trkpt lat="43.19379" lon="12.9728399"><ele>836.6666666666666</ele><time>2026-04-25T12:29:53.322Z</time></trkpt><trkpt lat="43.1937425" lon="12.9729256"><ele>832.3333333333333</ele><time>2026-04-25T12:29:54.332Z</time></trkpt><trkpt lat="43.1936911" lon="12.9730056"><ele>828.0</ele><time>2026-04-25T12:29:55.329Z</time></trkpt><trkpt lat="43.1936402" lon="12.9730801"><ele>823.6666666666667</ele><time>2026-04-25T12:29:56.331Z</time></trkpt><trkpt lat="43.1935906" lon="12.9731556"><ele>819.3333333333334</ele><time>2026-04-25T12:29:57.329Z</time></trkpt><trkpt lat="43.1935459" lon="12.9732379"><ele>815.0</ele><time>2026-04-25T12:29:58.328Z</time></trkpt><trkpt lat="43.1935015" lon="12.9733263"><ele>818.6666666666667</ele><time>2026-04-25T12:29:59.332Z</time></trkpt><trkpt lat="43.1934498" lon="12.9734152"><ele>822.3333333333334</ele><time>2026-04-25T12:30:00.327Z</time></trkpt><trkpt lat="43.19339" lon="12.9734971"><ele>826.0</ele><time>2026-04-25T12:30:01.325Z</time></trkpt><trkpt lat="43.1933206" lon="12.9735741"><ele>829.6666666666667</ele><time>2026-04-25T12:30:02.327Z</time></trkpt><trkpt lat="43.1932411" lon="12.9736447"><ele>833.3333333333334</ele><time>2026-04-25T12:30:03.325Z</time></trkpt><trkpt lat="43.1931634" lon="12.9737132"><ele>837.0</ele><time>2026-04-25T12:30:04.322Z</time></trkpt><trkpt lat="43.1930849" lon="12.9737853"><ele>831.4000000000001</ele><time>2026-04-25T12:30:05.321Z</time></trkpt><trkpt lat="43.1930086" lon="12.9738638"><ele>825.8000000000001</ele><time>2026-04-25T12:30:06.322Z</time></trkpt><trkpt lat="43.1929379" lon="12.9739504"><ele>820.2</ele><time>2026-04-25T12:30:07.319Z</time></trkpt><trkpt lat="43.1928764" lon="12.9740432"><ele>814.6</ele><time>2026-04-25T12:30:08.319Z</time></trkpt><trkpt lat="43.1928226" lon="12.9741379"><ele>809.0</ele><time>2026-04-25T12:30:09.323Z</time></trkpt><trkpt lat="43.1927706" lon="12.9742334"><ele>809.0000000000001</ele><time>2026-04-25T12:30:10.331Z</time></trkpt><trkpt lat="43.1927215" lon="12.9743306"><ele>809.0</ele><time>2026-04-25T12:30:11.333Z</time></trkpt><trkpt lat="43.1926717" lon="12.9744266"><ele>809.0</ele><time>2026-04-25T12:30:12.322Z</time></trkpt><trkpt lat="43.1926201" lon="12.9745208"><ele>809.0</ele><time>2026-04-25T12:30:13.329Z</time></trkpt><trkpt lat="43.1925686" lon="12.9746179"><ele>809.0000000000001</ele><time>2026-04-25T12:30:14.329Z</time></trkpt><trkpt lat="43.1925207" lon="12.9747131"><ele>809.0</ele><time>2026-04-25T12:30:15.331Z</time></trkpt><trkpt lat="43.1924782" lon="12.9748105"><ele>809.0000000000001</ele><time>2026-04-25T12:30:16.329Z</time></trkpt><trkpt lat="43.1924421" lon="12.9749155"><ele>809.0</ele><time>2026-04-25T12:30:17.332Z</time></trkpt><trkpt lat="43.1924065" lon="12.9750271"><ele>809.0</ele><time>2026-04-25T12:30:18.334Z</time></trkpt><trkpt lat="43.1923702" lon="12.9751369"><ele>809.0</ele><time>2026-04-25T12:30:19.326Z</time></trkpt><trkpt lat="43.1923294" lon="12.9752403"><ele>809.0000000000001</ele><time>2026-04-25T12:30:20.333Z</time></trkpt><trkpt lat="43.1922856" lon="12.9753372"><ele>809.0</ele><time>2026-04-25T12:30:21.326Z</time></trkpt><trkpt lat="43.1922395" lon="12.9754296"><ele>808.4285714285714</ele><time>2026-04-25T12:30:22.327Z</time></trkpt><trkpt lat="43.1921906" lon="12.9755134"><ele>807.8571428571429</ele><time>2026-04-25T12:30:23.33Z</time></trkpt><trkpt lat="43.1921398" lon="12.9755923"><ele>807.2857142857142</ele><time>2026-04-25T12:30:24.33Z</time></trkpt><trkpt lat="43.192092" lon="12.9756672"><ele>806.7142857142858</ele><time>2026-04-25T12:30:25.332Z</time></trkpt><trkpt lat="43.1920492" lon="12.9757427"><ele>806.1428571428571</ele><time>2026-04-25T12:30:26.326Z</time></trkpt><trkpt lat="43.1920117" lon="12.9758203"><ele>805.5714285714286</ele><time>2026-04-25T12:30:27.328Z</time></trkpt><trkpt lat="43.1919726" lon="12.975898"><ele>805.0</ele><time>2026-04-25T12:30:28.327Z</time></trkpt><trkpt lat="43.1919268" lon="12.9759782"><ele>805.0</ele><time>2026-04-25T12:30:29.333Z</time></trkpt><trkpt lat="43.1918787" lon="12.9760542"><ele>805.0</ele><time>2026-04-25T12:30:30.333Z</time></trkpt><trkpt lat="43.1918293" lon="12.9761234"><ele>805.0</ele><time>2026-04-25T12:30:31.328Z</time></trkpt><trkpt lat="43.1917777" lon="12.9761889"><ele>805.0</ele><time>2026-04-25T12:30:32.327Z</time></trkpt><trkpt lat="43.1917221" lon="12.976248"><ele>805.0</ele><time>2026-04-25T12:30:33.326Z</time></trkpt><trkpt lat="43.1916602" lon="12.9762956"><ele>805.0</ele><time>2026-04-25T12:30:34.325Z</time></trkpt><trkpt lat="43.1915962" lon="12.9763437"><ele>805.0</ele><time>2026-04-25T12:30:35.328Z</time></trkpt><trkpt lat="43.1915342" lon="12.9764061"><ele>804.4999999999999</ele><time>2026-04-25T12:30:36.323Z</time></trkpt><trkpt lat="43.1914831" lon="12.9764853"><ele>804.0</ele><time>2026-04-25T12:30:37.326Z</time></trkpt><trkpt lat="43.1914407" lon="12.9765721"><ele>803.5</ele><time>2026-04-25T12:30:38.327Z</time></trkpt><trkpt lat="43.1914004" lon="12.9766627"><ele>803.0</ele><time>2026-04-25T12:30:39.327Z</time></trkpt><trkpt lat="43.1913564" lon="12.9767484"><ele>802.4999999999999</ele><time>2026-04-25T12:30:40.318Z</time></trkpt><trkpt lat="43.1913014" lon="12.9768288"><ele>802.0</ele><time>2026-04-25T12:30:41.33Z</time></trkpt><trkpt lat="43.1912393" lon="12.9769016"><ele>802.0</ele><time>2026-04-25T12:30:42.334Z</time></trkpt><trkpt lat="43.1911736" lon="12.9769635"><ele>802.0</ele><time>2026-04-25T12:30:43.333Z</time></trkpt><trkpt lat="43.1910984" lon="12.9770144"><ele>802.0</ele><time>2026-04-25T12:30:44.329Z</time></trkpt><trkpt lat="43.1910098" lon="12.9770547"><ele>802.0</ele><time>2026-04-25T12:30:45.334Z</time></trkpt><trkpt lat="43.1909138" lon="12.9770937"><ele>802.0</ele><time>2026-04-25T12:30:46.321Z</time></trkpt><trkpt lat="43.1908131" lon="12.9771351"><ele>802.0</ele><time>2026-04-25T12:30:47.325Z</time></trkpt><trkpt lat="43.1907189" lon="12.977178"><ele>802.0</ele><time>2026-04-25T12:30:48.333Z</time></trkpt><trkpt lat="43.1906319" lon="12.9772239"><ele>802.0</ele><time>2026-04-25T12:30:49.331Z</time></trkpt><trkpt lat="43.1905503" lon="12.9772749"><ele>802.0</ele><time>2026-04-25T12:30:50.325Z</time></trkpt><trkpt lat="43.1904719" lon="12.977338"><ele>802.0</ele><time>2026-04-25T12:30:51.33Z</time></trkpt><trkpt lat="43.1903871" lon="12.9774177"><ele>799.5</ele><time>2026-04-25T12:30:52.333Z</time></trkpt><trkpt lat="43.1903008" lon="12.9775142"><ele>797.0</ele><time>2026-04-25T12:30:53.323Z</time></trkpt><trkpt lat="43.1902135" lon="12.9776209"><ele>794.5</ele><time>2026-04-25T12:30:54.33Z</time></trkpt><trkpt lat="43.1901247" lon="12.9777291"><ele>792.0</ele><time>2026-04-25T12:30:55.328Z</time></trkpt><trkpt lat="43.1900324" lon="12.9778408"><ele>792.0</ele><time>2026-04-25T12:30:56.331Z</time></trkpt><trkpt lat="43.1899443" lon="12.9779469"><ele>792.0</ele><time>2026-04-25T12:30:57.322Z</time></trkpt><trkpt lat="43.1898601" lon="12.9780473"><ele>792.0</ele><time>2026-04-25T12:30:58.327Z</time></trkpt><trkpt lat="43.1897779" lon="12.9781406"><ele>792.0</ele><time>2026-04-25T12:30:59.332Z</time></trkpt><trkpt lat="43.1896966" lon="12.9782288"><ele>792.0</ele><time>2026-04-25T12:31:00.323Z</time></trkpt><trkpt lat="43.1896133" lon="12.9783183"><ele>790.6</ele><time>2026-04-25T12:31:01.327Z</time></trkpt><trkpt lat="43.1895289" lon="12.978412"><ele>789.2</ele><time>2026-04-25T12:31:02.329Z</time></trkpt><trkpt lat="43.189446" lon="12.9785078"><ele>787.8</ele><time>2026-04-25T12:31:03.326Z</time></trkpt><trkpt lat="43.1893627" lon="12.9786062"><ele>786.4</ele><time>2026-04-25T12:31:04.327Z</time></trkpt><trkpt lat="43.1892804" lon="12.9787065"><ele>785.0</ele><time>2026-04-25T12:31:05.325Z</time></trkpt><trkpt lat="43.1891999" lon="12.9788084"><ele>785.0</ele><time>2026-04-25T12:31:06.326Z</time></trkpt><trkpt lat="43.1891215" lon="12.9789095"><ele>785.0</ele><time>2026-04-25T12:31:07.323Z</time></trkpt><trkpt lat="43.1890423" lon="12.9790037"><ele>785.0</ele><time>2026-04-25T12:31:08.327Z</time></trkpt><trkpt lat="43.1889571" lon="12.979095"><ele>785.0</ele><time>2026-04-25T12:31:09.329Z</time></trkpt><trkpt lat="43.1888659" lon="12.9791873"><ele>785.0</ele><time>2026-04-25T12:31:10.333Z</time></trkpt><trkpt lat="43.1887799" lon="12.9792797"><ele>784.4</ele><time>2026-04-25T12:31:11.326Z</time></trkpt><trkpt lat="43.1886979" lon="12.9793685"><ele>783.8</ele><time>2026-04-25T12:31:12.335Z</time></trkpt><trkpt lat="43.1886183" lon="12.9794532"><ele>783.2</ele><time>2026-04-25T12:31:13.331Z</time></trkpt><trkpt lat="43.1885361" lon="12.9795407"><ele>782.6</ele><time>2026-04-25T12:31:14.328Z</time></trkpt><trkpt lat="43.188449" lon="12.979636"><ele>782.0</ele><time>2026-04-25T12:31:15.337Z</time></trkpt><trkpt lat="43.1883618" lon="12.9797342"><ele>782.0</ele><time>2026-04-25T12:31:16.332Z</time></trkpt><trkpt lat="43.1882733" lon="12.9798333"><ele>782.0</ele><time>2026-04-25T12:31:17.334Z</time></trkpt><trkpt lat="43.1881843" lon="12.9799305"><ele>782.0</ele><time>2026-04-25T12:31:18.325Z</time></trkpt><trkpt lat="43.1880973" lon="12.9800285"><ele>782.0</ele><time>2026-04-25T12:31:19.332Z</time></trkpt><trkpt lat="43.1880091" lon="12.9801244"><ele>781.75</ele><time>2026-04-25T12:31:20.332Z</time></trkpt><trkpt lat="43.1879193" lon="12.9802143"><ele>781.5</ele><time>2026-04-25T12:31:21.335Z</time></trkpt><trkpt lat="43.1878273" lon="12.9803039"><ele>781.25</ele><time>2026-04-25T12:31:22.336Z</time></trkpt><trkpt lat="43.1877367" lon="12.9803984"><ele>781.0</ele><time>2026-04-25T12:31:23.339Z</time></trkpt><trkpt lat="43.1876459" lon="12.9804915"><ele>781.0</ele><time>2026-04-25T12:31:24.332Z</time></trkpt><trkpt lat="43.1875531" lon="12.9805804"><ele>781.0</ele><time>2026-04-25T12:31:25.332Z</time></trkpt><trkpt lat="43.1874597" lon="12.9806645"><ele>781.0</ele><time>2026-04-25T12:31:26.328Z</time></trkpt><trkpt lat="43.1873685" lon="12.9807468"><ele>781.0</ele><time>2026-04-25T12:31:27.332Z</time></trkpt><trkpt lat="43.1872825" lon="12.9808252"><ele>781.0</ele><time>2026-04-25T12:31:28.331Z</time></trkpt><trkpt lat="43.1871952" lon="12.9809028"><ele>781.8</ele><time>2026-04-25T12:31:29.334Z</time></trkpt><trkpt lat="43.1870997" lon="12.9809823"><ele>782.5999999999999</ele><time>2026-04-25T12:31:30.326Z</time></trkpt><trkpt lat="43.187004" lon="12.981053"><ele>783.4</ele><time>2026-04-25T12:31:31.329Z</time></trkpt><trkpt lat="43.1869142" lon="12.9811125"><ele>784.2</ele><time>2026-04-25T12:31:32.324Z</time></trkpt><trkpt lat="43.1868303" lon="12.9811663"><ele>785.0</ele><time>2026-04-25T12:31:33.326Z</time></trkpt><trkpt lat="43.1867458" lon="12.9812199"><ele>785.0</ele><time>2026-04-25T12:31:34.329Z</time></trkpt><trkpt lat="43.1866573" lon="12.9812812"><ele>785.0</ele><time>2026-04-25T12:31:35.32Z</time></trkpt><trkpt lat="43.1865705" lon="12.9813561"><ele>785.0</ele><time>2026-04-25T12:31:36.327Z</time></trkpt><trkpt lat="43.1864811" lon="12.9814318"><ele>785.0</ele><time>2026-04-25T12:31:37.325Z</time></trkpt><trkpt lat="43.1863934" lon="12.9815107"><ele>785.0</ele><time>2026-04-25T12:31:38.331Z</time></trkpt><trkpt lat="43.1863121" lon="12.9815967"><ele>782.8</ele><time>2026-04-25T12:31:39.328Z</time></trkpt><trkpt lat="43.1862353" lon="12.9816909"><ele>780.6</ele><time>2026-04-25T12:31:40.333Z</time></trkpt><trkpt lat="43.1861608" lon="12.9817867"><ele>778.4000000000001</ele><time>2026-04-25T12:31:41.334Z</time></trkpt><trkpt lat="43.1860925" lon="12.9818847"><ele>776.2</ele><time>2026-04-25T12:31:42.33Z</time></trkpt><trkpt lat="43.1860288" lon="12.9819826"><ele>774.0</ele><time>2026-04-25T12:31:43.33Z</time></trkpt><trkpt lat="43.1859706" lon="12.9820796"><ele>774.0</ele><time>2026-04-25T12:31:44.331Z</time></trkpt><trkpt lat="43.1859144" lon="12.9821813"><ele>774.0</ele><time>2026-04-25T12:31:45.32Z</time></trkpt><trkpt lat="43.1858558" lon="12.9822823"><ele>774.0</ele><time>2026-04-25T12:31:46.331Z</time></trkpt><trkpt lat="43.1857937" lon="12.9823824"><ele>774.0</ele><time>2026-04-25T12:31:47.327Z</time></trkpt><trkpt lat="43.1857292" lon="12.9824757"><ele>774.0</ele><time>2026-04-25T12:31:48.33Z</time></trkpt><trkpt lat="43.1856617" lon="12.9825616"><ele>773.0</ele><time>2026-04-25T12:31:49.332Z</time></trkpt><trkpt lat="43.1855923" lon="12.9826464"><ele>772.0</ele><time>2026-04-25T12:31:50.33Z</time></trkpt><trkpt lat="43.1855093" lon="12.9827368"><ele>771.0</ele><time>2026-04-25T12:31:51.331Z</time></trkpt><trkpt lat="43.1854188" lon="12.9828196"><ele>770.0</ele><time>2026-04-25T12:31:52.335Z</time></trkpt><trkpt lat="43.1853241" lon="12.9828971"><ele>769.0</ele><time>2026-04-25T12:31:53.324Z</time></trkpt><trkpt lat="43.1852308" lon="12.9829598"><ele>769.0</ele><time>2026-04-25T12:31:54.326Z</time></trkpt><trkpt lat="43.1851321" lon="12.9830153"><ele>769.0</ele><time>2026-04-25T12:31:55.332Z</time></trkpt><trkpt lat="43.1850319" lon="12.9830714"><ele>769.0</ele><time>2026-04-25T12:31:56.331Z</time></trkpt><trkpt lat="43.1849358" lon="12.9831308"><ele>769.0</ele><time>2026-04-25T12:31:57.334Z</time></trkpt><trkpt lat="43.1848459" lon="12.9831963"><ele>769.0</ele><time>2026-04-25T12:31:58.332Z</time></trkpt><trkpt lat="43.1847709" lon="12.983258"><ele>761.8000000000001</ele><time>2026-04-25T12:31:59.327Z</time></trkpt><trkpt lat="43.1847171" lon="12.9833069"><ele>754.6</ele><time>2026-04-25T12:32:00.326Z</time></trkpt><trkpt lat="43.1846361" lon="12.9833202"><ele>747.4</ele><time>2026-04-25T12:32:02.337Z</time></trkpt><trkpt lat="43.1846015" lon="12.9832067"><ele>740.2</ele><time>2026-04-25T12:32:04.332Z</time></trkpt><trkpt lat="43.184652" lon="12.983084"><ele>733.0</ele><time>2026-04-25T12:32:06.33Z</time></trkpt><trkpt lat="43.184763" lon="12.9830119"><ele>733.0</ele><time>2026-04-25T12:32:08.333Z</time></trkpt><trkpt lat="43.1848382" lon="12.9829894"><ele>733.0</ele><time>2026-04-25T12:32:09.334Z</time></trkpt><trkpt lat="43.1849222" lon="12.9829534"><ele>733.0</ele><time>2026-04-25T12:32:10.336Z</time></trkpt><trkpt lat="43.1850106" lon="12.9829107"><ele>733.0</ele><time>2026-04-25T12:32:11.328Z</time></trkpt><trkpt lat="43.1850998" lon="12.9828552"><ele>733.0</ele><time>2026-04-25T12:32:12.34Z</time></trkpt><trkpt lat="43.1851822" lon="12.9827875"><ele>734.5999999999999</ele><time>2026-04-25T12:32:13.337Z</time></trkpt><trkpt lat="43.1852541" lon="12.9827017"><ele>736.1999999999999</ele><time>2026-04-25T12:32:14.336Z</time></trkpt><trkpt lat="43.185322" lon="12.9825989"><ele>737.8</ele><time>2026-04-25T12:32:15.334Z</time></trkpt><trkpt lat="43.1853883" lon="12.9824851"><ele>739.4</ele><time>2026-04-25T12:32:16.332Z</time></trkpt><trkpt lat="43.185445" lon="12.9823672"><ele>741.0</ele><time>2026-04-25T12:32:17.332Z</time></trkpt><trkpt lat="43.1854912" lon="12.9822489"><ele>741.0</ele><time>2026-04-25T12:32:18.333Z</time></trkpt><trkpt lat="43.1855274" lon="12.9821212"><ele>741.0</ele><time>2026-04-25T12:32:19.333Z</time></trkpt><trkpt lat="43.1855616" lon="12.9819776"><ele>741.0</ele><time>2026-04-25T12:32:20.327Z</time></trkpt><trkpt lat="43.1855997" lon="12.9818205"><ele>741.0</ele><time>2026-04-25T12:32:21.334Z</time></trkpt><trkpt lat="43.1856411" lon="12.9816629"><ele>743.0</ele><time>2026-04-25T12:32:22.332Z</time></trkpt><trkpt lat="43.1856799" lon="12.9815216"><ele>745.0</ele><time>2026-04-25T12:32:23.333Z</time></trkpt><trkpt lat="43.1857165" lon="12.9814031"><ele>747.0</ele><time>2026-04-25T12:32:24.325Z</time></trkpt><trkpt lat="43.1857534" lon="12.9812974"><ele>749.0</ele><time>2026-04-25T12:32:25.332Z</time></trkpt><trkpt lat="43.1857961" lon="12.9812066"><ele>751.0</ele><time>2026-04-25T12:32:26.331Z</time></trkpt><trkpt lat="43.1858425" lon="12.981122"><ele>753.0</ele><time>2026-04-25T12:32:27.326Z</time></trkpt><trkpt lat="43.1858962" lon="12.9810427"><ele>753.0</ele><time>2026-04-25T12:32:28.33Z</time></trkpt><trkpt lat="43.1859535" lon="12.9809629"><ele>753.0</ele><time>2026-04-25T12:32:29.321Z</time></trkpt><trkpt lat="43.1860101" lon="12.980875"><ele>753.0</ele><time>2026-04-25T12:32:30.327Z</time></trkpt><trkpt lat="43.1860655" lon="12.9807836"><ele>753.0</ele><time>2026-04-25T12:32:31.329Z</time></trkpt><trkpt lat="43.1861215" lon="12.9806976"><ele>753.0</ele><time>2026-04-25T12:32:32.329Z</time></trkpt><trkpt lat="43.1861812" lon="12.9806193"><ele>753.0</ele><time>2026-04-25T12:32:33.322Z</time></trkpt><trkpt lat="43.1862435" lon="12.9805447"><ele>753.6666666666666</ele><time>2026-04-25T12:32:34.327Z</time></trkpt><trkpt lat="43.1863071" lon="12.9804773"><ele>754.3333333333334</ele><time>2026-04-25T12:32:35.327Z</time></trkpt><trkpt lat="43.1863713" lon="12.9804123"><ele>755.0</ele><time>2026-04-25T12:32:36.325Z</time></trkpt><trkpt lat="43.1864407" lon="12.9803423"><ele>755.6666666666667</ele><time>2026-04-25T12:32:37.326Z</time></trkpt><trkpt lat="43.1865136" lon="12.9802631"><ele>756.3333333333334</ele><time>2026-04-25T12:32:38.325Z</time></trkpt><trkpt lat="43.1865899" lon="12.9801832"><ele>757.0</ele><time>2026-04-25T12:32:39.328Z</time></trkpt><trkpt lat="43.1866683" lon="12.9801042"><ele>757.0</ele><time>2026-04-25T12:32:40.333Z</time></trkpt><trkpt lat="43.186746" lon="12.9800201"><ele>757.0</ele><time>2026-04-25T12:32:41.331Z</time></trkpt><trkpt lat="43.186822" lon="12.9799336"><ele>757.0</ele><time>2026-04-25T12:32:42.336Z</time></trkpt><trkpt lat="43.1868967" lon="12.9798529"><ele>757.0</ele><time>2026-04-25T12:32:43.334Z</time></trkpt><trkpt lat="43.1869695" lon="12.9797825"><ele>757.0</ele><time>2026-04-25T12:32:44.331Z</time></trkpt><trkpt lat="43.1870457" lon="12.9797155"><ele>755.8333333333334</ele><time>2026-04-25T12:32:45.331Z</time></trkpt><trkpt lat="43.1871182" lon="12.9796476"><ele>754.6666666666667</ele><time>2026-04-25T12:32:46.324Z</time></trkpt><trkpt lat="43.1871865" lon="12.9795768"><ele>753.5</ele><time>2026-04-25T12:32:47.333Z</time></trkpt><trkpt lat="43.1872548" lon="12.9794994"><ele>752.3333333333334</ele><time>2026-04-25T12:32:48.332Z</time></trkpt><trkpt lat="43.1873221" lon="12.9794179"><ele>751.1666666666666</ele><time>2026-04-25T12:32:49.324Z</time></trkpt><trkpt lat="43.1873903" lon="12.9793351"><ele>750.0</ele><time>2026-04-25T12:32:50.327Z</time></trkpt><trkpt lat="43.1874607" lon="12.9792554"><ele>744.2</ele><time>2026-04-25T12:32:51.331Z</time></trkpt><trkpt lat="43.1875318" lon="12.9791759"><ele>738.4</ele><time>2026-04-25T12:32:52.328Z</time></trkpt><trkpt lat="43.1876012" lon="12.9790918"><ele>732.5999999999999</ele><time>2026-04-25T12:32:53.333Z</time></trkpt><trkpt lat="43.1876674" lon="12.9790021"><ele>726.8</ele><time>2026-04-25T12:32:54.323Z</time></trkpt><trkpt lat="43.1877319" lon="12.9789033"><ele>721.0</ele><time>2026-04-25T12:32:55.322Z</time></trkpt><trkpt lat="43.1877904" lon="12.9788009"><ele>721.0</ele><time>2026-04-25T12:32:56.331Z</time></trkpt><trkpt lat="43.1878431" lon="12.9787003"><ele>721.0</ele><time>2026-04-25T12:32:57.331Z</time></trkpt><trkpt lat="43.1878953" lon="12.978609"><ele>721.0</ele><time>2026-04-25T12:32:58.327Z</time></trkpt><trkpt lat="43.1879466" lon="12.9785204"><ele>721.0</ele><time>2026-04-25T12:32:59.334Z</time></trkpt><trkpt lat="43.1879921" lon="12.978431"><ele>721.0</ele><time>2026-04-25T12:33:00.325Z</time></trkpt><trkpt lat="43.1880323" lon="12.9783374"><ele>721.0</ele><time>2026-04-25T12:33:01.331Z</time></trkpt><trkpt lat="43.1880673" lon="12.9782341"><ele>722.1666666666667</ele><time>2026-04-25T12:33:02.328Z</time></trkpt><trkpt lat="43.1880932" lon="12.9781251"><ele>723.3333333333334</ele><time>2026-04-25T12:33:03.328Z</time></trkpt><trkpt lat="43.1881199" lon="12.9780174"><ele>724.5</ele><time>2026-04-25T12:33:04.328Z</time></trkpt><trkpt lat="43.1881501" lon="12.9779159"><ele>725.6666666666666</ele><time>2026-04-25T12:33:05.324Z</time></trkpt><trkpt lat="43.1881864" lon="12.9778099"><ele>726.8333333333333</ele><time>2026-04-25T12:33:06.327Z</time></trkpt><trkpt lat="43.1882318" lon="12.9777002"><ele>728.0</ele><time>2026-04-25T12:33:07.329Z</time></trkpt><trkpt lat="43.188279" lon="12.9775969"><ele>722.5999999999999</ele><time>2026-04-25T12:33:08.331Z</time></trkpt><trkpt lat="43.188328" lon="12.9775028"><ele>717.1999999999999</ele><time>2026-04-25T12:33:09.326Z</time></trkpt><trkpt lat="43.1883867" lon="12.977416"><ele>711.8</ele><time>2026-04-25T12:33:10.327Z</time></trkpt><trkpt lat="43.1884589" lon="12.9773308"><ele>706.4</ele><time>2026-04-25T12:33:11.322Z</time></trkpt><trkpt lat="43.1885359" lon="12.9772416"><ele>701.0</ele><time>2026-04-25T12:33:12.324Z</time></trkpt><trkpt lat="43.1886179" lon="12.9771508"><ele>701.0</ele><time>2026-04-25T12:33:13.334Z</time></trkpt><trkpt lat="43.1887006" lon="12.9770589"><ele>701.0</ele><time>2026-04-25T12:33:14.333Z</time></trkpt><trkpt lat="43.1887776" lon="12.9769766"><ele>701.0</ele><time>2026-04-25T12:33:15.331Z</time></trkpt><trkpt lat="43.1888527" lon="12.9768981"><ele>701.0</ele><time>2026-04-25T12:33:16.33Z</time></trkpt><trkpt lat="43.1889288" lon="12.9768181"><ele>701.0</ele><time>2026-04-25T12:33:17.329Z</time></trkpt><trkpt lat="43.1890042" lon="12.9767313"><ele>701.1999999999999</ele><time>2026-04-25T12:33:18.332Z</time></trkpt><trkpt lat="43.1890774" lon="12.9766362"><ele>701.4</ele><time>2026-04-25T12:33:19.332Z</time></trkpt><trkpt lat="43.1891439" lon="12.9765414"><ele>701.6</ele><time>2026-04-25T12:33:20.334Z</time></trkpt><trkpt lat="43.1892074" lon="12.9764419"><ele>701.8</ele><time>2026-04-25T12:33:21.333Z</time></trkpt><trkpt lat="43.1892647" lon="12.9763395"><ele>702.0</ele><time>2026-04-25T12:33:22.323Z</time></trkpt><trkpt lat="43.1893224" lon="12.9762419"><ele>702.0</ele><time>2026-04-25T12:33:23.329Z</time></trkpt><trkpt lat="43.1893821" lon="12.9761446"><ele>702.0</ele><time>2026-04-25T12:33:24.325Z</time></trkpt><trkpt lat="43.1894344" lon="12.9760429"><ele>702.0</ele><time>2026-04-25T12:33:25.334Z</time></trkpt><trkpt lat="43.189478" lon="12.9759364"><ele>702.0</ele><time>2026-04-25T12:33:26.331Z</time></trkpt><trkpt lat="43.1895102" lon="12.9758279"><ele>702.0</ele><time>2026-04-25T12:33:27.333Z</time></trkpt><trkpt lat="43.1895338" lon="12.9757136"><ele>702.0</ele><time>2026-04-25T12:33:28.323Z</time></trkpt><trkpt lat="43.1895554" lon="12.9755983"><ele>697.6666666666666</ele><time>2026-04-25T12:33:29.326Z</time></trkpt><trkpt lat="43.1895791" lon="12.9754829"><ele>693.3333333333334</ele><time>2026-04-25T12:33:30.327Z</time></trkpt><trkpt lat="43.1896086" lon="12.9753758"><ele>689.0</ele><time>2026-04-25T12:33:31.326Z</time></trkpt><trkpt lat="43.189648" lon="12.975276"><ele>684.6666666666667</ele><time>2026-04-25T12:33:32.323Z</time></trkpt><trkpt lat="43.1896992" lon="12.9751868"><ele>680.3333333333334</ele><time>2026-04-25T12:33:33.318Z</time></trkpt><trkpt lat="43.1897572" lon="12.9751062"><ele>676.0</ele><time>2026-04-25T12:33:34.328Z</time></trkpt><trkpt lat="43.1898166" lon="12.9750273"><ele>678.8333333333334</ele><time>2026-04-25T12:33:35.328Z</time></trkpt><trkpt lat="43.1898735" lon="12.9749488"><ele>681.6666666666667</ele><time>2026-04-25T12:33:36.32Z</time></trkpt><trkpt lat="43.1899219" lon="12.974873"><ele>684.5</ele><time>2026-04-25T12:33:37.326Z</time></trkpt><trkpt lat="43.1899612" lon="12.974805"><ele>687.3333333333334</ele><time>2026-04-25T12:33:38.324Z</time></trkpt><trkpt lat="43.1899955" lon="12.9746811"><ele>690.1666666666666</ele><time>2026-04-25T12:33:40.329Z</time></trkpt><trkpt lat="43.1899722" lon="12.9745593"><ele>693.0</ele><time>2026-04-25T12:33:42.329Z</time></trkpt><trkpt lat="43.1898664" lon="12.9744981"><ele>687.8333333333334</ele><time>2026-04-25T12:33:44.316Z</time></trkpt><trkpt lat="43.1897922" lon="12.9744801"><ele>682.6666666666666</ele><time>2026-04-25T12:33:45.328Z</time></trkpt><trkpt lat="43.1897115" lon="12.9744623"><ele>677.5</ele><time>2026-04-25T12:33:46.329Z</time></trkpt><trkpt lat="43.189632" lon="12.9744456"><ele>672.3333333333333</ele><time>2026-04-25T12:33:47.328Z</time></trkpt><trkpt lat="43.1895563" lon="12.974426"><ele>667.1666666666666</ele><time>2026-04-25T12:33:48.322Z</time></trkpt><trkpt lat="43.189482" lon="12.9744071"><ele>662.0</ele><time>2026-04-25T12:33:49.326Z</time></trkpt><trkpt lat="43.1894042" lon="12.9743792"><ele>662.0</ele><time>2026-04-25T12:33:50.326Z</time></trkpt><trkpt lat="43.1893154" lon="12.9743387"><ele>662.0</ele><time>2026-04-25T12:33:51.323Z</time></trkpt><trkpt lat="43.1892166" lon="12.9742873"><ele>662.0</ele><time>2026-04-25T12:33:52.328Z</time></trkpt><trkpt lat="43.1891117" lon="12.9742232"><ele>662.0</ele><time>2026-04-25T12:33:53.321Z</time></trkpt><trkpt lat="43.1890094" lon="12.974157"><ele>662.0</ele><time>2026-04-25T12:33:54.324Z</time></trkpt><trkpt lat="43.1889128" lon="12.974101"><ele>660.4000000000001</ele><time>2026-04-25T12:33:55.324Z</time></trkpt><trkpt lat="43.1888213" lon="12.974049"><ele>658.8000000000001</ele><time>2026-04-25T12:33:56.325Z</time></trkpt><trkpt lat="43.1887325" lon="12.9739992"><ele>657.2</ele><time>2026-04-25T12:33:57.324Z</time></trkpt><trkpt lat="43.188648" lon="12.9739534"><ele>655.6</ele><time>2026-04-25T12:33:58.327Z</time></trkpt><trkpt lat="43.1885659" lon="12.973906"><ele>654.0</ele><time>2026-04-25T12:33:59.327Z</time></trkpt><trkpt lat="43.1884874" lon="12.9738587"><ele>654.0</ele><time>2026-04-25T12:34:00.323Z</time></trkpt><trkpt lat="43.1884055" lon="12.9738144"><ele>654.0</ele><time>2026-04-25T12:34:01.321Z</time></trkpt><trkpt lat="43.1883183" lon="12.9737693"><ele>654.0</ele><time>2026-04-25T12:34:02.326Z</time></trkpt><trkpt lat="43.1882273" lon="12.9737193"><ele>654.0</ele><time>2026-04-25T12:34:03.326Z</time></trkpt><trkpt lat="43.1881357" lon="12.9736672"><ele>654.0</ele><time>2026-04-25T12:34:04.321Z</time></trkpt><trkpt lat="43.1880461" lon="12.9736165"><ele>649.4000000000001</ele><time>2026-04-25T12:34:05.323Z</time></trkpt><trkpt lat="43.1879577" lon="12.973569"><ele>644.8000000000001</ele><time>2026-04-25T12:34:06.319Z</time></trkpt><trkpt lat="43.1878738" lon="12.9735214"><ele>640.2</ele><time>2026-04-25T12:34:07.322Z</time></trkpt><trkpt lat="43.1877914" lon="12.9734744"><ele>635.6</ele><time>2026-04-25T12:34:08.318Z</time></trkpt><trkpt lat="43.1877057" lon="12.9734347"><ele>631.0</ele><time>2026-04-25T12:34:09.323Z</time></trkpt><trkpt lat="43.187616" lon="12.9734049"><ele>631.0</ele><time>2026-04-25T12:34:10.329Z</time></trkpt><trkpt lat="43.1875195" lon="12.9733791"><ele>631.0</ele><time>2026-04-25T12:34:11.326Z</time></trkpt><trkpt lat="43.1874183" lon="12.973356"><ele>631.0</ele><time>2026-04-25T12:34:12.321Z</time></trkpt><trkpt lat="43.1873111" lon="12.973335"><ele>631.0</ele><time>2026-04-25T12:34:13.324Z</time></trkpt><trkpt lat="43.1872005" lon="12.9733151"><ele>631.0</ele><time>2026-04-25T12:34:14.324Z</time></trkpt><trkpt lat="43.187091" lon="12.9732964"><ele>637.25</ele><time>2026-04-25T12:34:15.326Z</time></trkpt><trkpt lat="43.1869797" lon="12.9732763"><ele>643.5</ele><time>2026-04-25T12:34:16.321Z</time></trkpt><trkpt lat="43.1868653" lon="12.973252"><ele>649.75</ele><time>2026-04-25T12:34:17.322Z</time></trkpt><trkpt lat="43.1867542" lon="12.9732274"><ele>656.0</ele><time>2026-04-25T12:34:18.321Z</time></trkpt><trkpt lat="43.1866438" lon="12.9732045"><ele>656.0</ele><time>2026-04-25T12:34:19.326Z</time></trkpt><trkpt lat="43.1865377" lon="12.97318"><ele>656.0</ele><time>2026-04-25T12:34:20.317Z</time></trkpt><trkpt lat="43.1864332" lon="12.9731584"><ele>656.0</ele><time>2026-04-25T12:34:21.324Z</time></trkpt><trkpt lat="43.1863307" lon="12.9731372"><ele>656.0</ele><time>2026-04-25T12:34:22.322Z</time></trkpt><trkpt lat="43.1862279" lon="12.9731165"><ele>656.0</ele><time>2026-04-25T12:34:23.332Z</time></trkpt><trkpt lat="43.1861239" lon="12.9730985"><ele>654.8</ele><time>2026-04-25T12:34:24.32Z</time></trkpt><trkpt lat="43.1860193" lon="12.9730896"><ele>653.5999999999999</ele><time>2026-04-25T12:34:25.33Z</time></trkpt><trkpt lat="43.1859132" lon="12.9730887"><ele>652.4</ele><time>2026-04-25T12:34:26.319Z</time></trkpt><trkpt lat="43.1858068" lon="12.973092"><ele>651.2</ele><time>2026-04-25T12:34:27.324Z</time></trkpt><trkpt lat="43.1857044" lon="12.9730975"><ele>650.0</ele><time>2026-04-25T12:34:28.334Z</time></trkpt><trkpt lat="43.1856079" lon="12.9731034"><ele>647.5</ele><time>2026-04-25T12:34:29.332Z</time></trkpt><trkpt lat="43.1855183" lon="12.9731097"><ele>645.0</ele><time>2026-04-25T12:34:30.329Z</time></trkpt><trkpt lat="43.1854302" lon="12.9731076"><ele>642.5</ele><time>2026-04-25T12:34:31.319Z</time></trkpt><trkpt lat="43.1853416" lon="12.9730907"><ele>640.0</ele><time>2026-04-25T12:34:32.332Z</time></trkpt><trkpt lat="43.1852586" lon="12.9730585"><ele>637.5</ele><time>2026-04-25T12:34:33.328Z</time></trkpt><trkpt lat="43.1851836" lon="12.9730147"><ele>635.0</ele><time>2026-04-25T12:34:34.331Z</time></trkpt><trkpt lat="43.1851207" lon="12.972953"><ele>635.0</ele><time>2026-04-25T12:34:35.325Z</time></trkpt><trkpt lat="43.1850733" lon="12.972871"><ele>635.0</ele><time>2026-04-25T12:34:36.327Z</time></trkpt><trkpt lat="43.1850381" lon="12.972762"><ele>635.0</ele><time>2026-04-25T12:34:37.334Z</time></trkpt><trkpt lat="43.1850102" lon="12.9726387"><ele>635.0</ele><time>2026-04-25T12:34:38.334Z</time></trkpt><trkpt lat="43.1849918" lon="12.9725177"><ele>635.0</ele><time>2026-04-25T12:34:39.333Z</time></trkpt><trkpt lat="43.1849802" lon="12.9724011"><ele>635.0</ele><time>2026-04-25T12:34:40.337Z</time></trkpt><trkpt lat="43.1849703" lon="12.9722878"><ele>636.3333333333333</ele><time>2026-04-25T12:34:41.329Z</time></trkpt><trkpt lat="43.1849622" lon="12.9721779"><ele>637.6666666666666</ele><time>2026-04-25T12:34:42.336Z</time></trkpt><trkpt lat="43.184954" lon="12.9720632"><ele>639.0</ele><time>2026-04-25T12:34:43.331Z</time></trkpt><trkpt lat="43.1849414" lon="12.971945"><ele>640.3333333333334</ele><time>2026-04-25T12:34:44.33Z</time></trkpt><trkpt lat="43.1849285" lon="12.9718311"><ele>641.6666666666667</ele><time>2026-04-25T12:34:45.336Z</time></trkpt><trkpt lat="43.1849158" lon="12.9717208"><ele>643.0</ele><time>2026-04-25T12:34:46.335Z</time></trkpt><trkpt lat="43.1849041" lon="12.9716087"><ele>643.0</ele><time>2026-04-25T12:34:47.331Z</time></trkpt><trkpt lat="43.1848936" lon="12.9714958"><ele>643.0</ele><time>2026-04-25T12:34:48.334Z</time></trkpt><trkpt lat="43.1848871" lon="12.9713832"><ele>643.0</ele><time>2026-04-25T12:34:49.335Z</time></trkpt><trkpt lat="43.184882" lon="12.9712674"><ele>643.0</ele><time>2026-04-25T12:34:50.326Z</time></trkpt><trkpt lat="43.1848772" lon="12.9711512"><ele>643.0</ele><time>2026-04-25T12:34:51.332Z</time></trkpt><trkpt lat="43.1848775" lon="12.9710396"><ele>643.0</ele><time>2026-04-25T12:34:52.33Z</time></trkpt><trkpt lat="43.1848825" lon="12.97093"><ele>641.8333333333334</ele><time>2026-04-25T12:34:53.336Z</time></trkpt><trkpt lat="43.184893" lon="12.9708186"><ele>640.6666666666667</ele><time>2026-04-25T12:34:54.336Z</time></trkpt><trkpt lat="43.1849051" lon="12.970701"><ele>639.5</ele><time>2026-04-25T12:34:55.333Z</time></trkpt><trkpt lat="43.1849144" lon="12.9705794"><ele>638.3333333333334</ele><time>2026-04-25T12:34:56.337Z</time></trkpt><trkpt lat="43.1849219" lon="12.9704603"><ele>637.1666666666666</ele><time>2026-04-25T12:34:57.325Z</time></trkpt><trkpt lat="43.1849293" lon="12.9703407"><ele>636.0</ele><time>2026-04-25T12:34:58.335Z</time></trkpt><trkpt lat="43.1849322" lon="12.9702161"><ele>636.0</ele><time>2026-04-25T12:34:59.338Z</time></trkpt><trkpt lat="43.1849357" lon="12.9700877"><ele>636.0</ele><time>2026-04-25T12:35:00.333Z</time></trkpt><trkpt lat="43.184939" lon="12.9699639"><ele>636.0</ele><time>2026-04-25T12:35:01.335Z</time></trkpt><trkpt lat="43.1849411" lon="12.969841"><ele>636.0</ele><time>2026-04-25T12:35:02.332Z</time></trkpt><trkpt lat="43.1849408" lon="12.9697185"><ele>636.0</ele><time>2026-04-25T12:35:03.331Z</time></trkpt><trkpt lat="43.1849401" lon="12.9695963"><ele>634.3333333333334</ele><time>2026-04-25T12:35:04.332Z</time></trkpt><trkpt lat="43.1849441" lon="12.9694764"><ele>632.6666666666666</ele><time>2026-04-25T12:35:05.323Z</time></trkpt><trkpt lat="43.1849533" lon="12.96936"><ele>631.0</ele><time>2026-04-25T12:35:06.33Z</time></trkpt><trkpt lat="43.1849655" lon="12.9692438"><ele>629.3333333333333</ele><time>2026-04-25T12:35:07.33Z</time></trkpt><trkpt lat="43.1849846" lon="12.9691228"><ele>627.6666666666666</ele><time>2026-04-25T12:35:08.338Z</time></trkpt><trkpt lat="43.1850097" lon="12.9689968"><ele>626.0</ele><time>2026-04-25T12:35:09.328Z</time></trkpt><trkpt lat="43.1850393" lon="12.9688652"><ele>623.8</ele><time>2026-04-25T12:35:10.332Z</time></trkpt><trkpt lat="43.1850764" lon="12.9687339"><ele>621.6</ele><time>2026-04-25T12:35:11.338Z</time></trkpt><trkpt lat="43.1851177" lon="12.968605"><ele>619.4</ele><time>2026-04-25T12:35:12.342Z</time></trkpt><trkpt lat="43.1851568" lon="12.9684724"><ele>617.2</ele><time>2026-04-25T12:35:13.335Z</time></trkpt><trkpt lat="43.1851894" lon="12.9683383"><ele>615.0</ele><time>2026-04-25T12:35:14.334Z</time></trkpt><trkpt lat="43.1852182" lon="12.9682087"><ele>612.0</ele><time>2026-04-25T12:35:15.333Z</time></trkpt><trkpt lat="43.1852454" lon="12.9680823"><ele>609.0</ele><time>2026-04-25T12:35:16.331Z</time></trkpt><trkpt lat="43.1852719" lon="12.9679604"><ele>606.0</ele><time>2026-04-25T12:35:17.332Z</time></trkpt><trkpt lat="43.1853044" lon="12.9678458"><ele>603.0</ele><time>2026-04-25T12:35:18.323Z</time></trkpt><trkpt lat="43.1853474" lon="12.9677286"><ele>600.0</ele><time>2026-04-25T12:35:19.335Z</time></trkpt><trkpt lat="43.1854022" lon="12.9676115"><ele>598.0</ele><time>2026-04-25T12:35:20.337Z</time></trkpt><trkpt lat="43.1854634" lon="12.9675021"><ele>596.0</ele><time>2026-04-25T12:35:21.338Z</time></trkpt><trkpt lat="43.1855254" lon="12.9673974"><ele>594.0</ele><time>2026-04-25T12:35:22.338Z</time></trkpt><trkpt lat="43.1855854" lon="12.9672964"><ele>592.0</ele><time>2026-04-25T12:35:23.332Z</time></trkpt><trkpt lat="43.1856422" lon="12.9671996"><ele>590.0</ele><time>2026-04-25T12:35:24.333Z</time></trkpt><trkpt lat="43.1856947" lon="12.9671064"><ele>590.1666666666666</ele><time>2026-04-25T12:35:25.335Z</time></trkpt><trkpt lat="43.1857393" lon="12.9670165"><ele>590.3333333333333</ele><time>2026-04-25T12:35:26.323Z</time></trkpt><trkpt lat="43.1857783" lon="12.966923"><ele>590.5</ele><time>2026-04-25T12:35:27.331Z</time></trkpt><trkpt lat="43.1858095" lon="12.9668241"><ele>590.6666666666666</ele><time>2026-04-25T12:35:28.327Z</time></trkpt><trkpt lat="43.1858313" lon="12.9667186"><ele>590.8333333333334</ele><time>2026-04-25T12:35:29.335Z</time></trkpt><trkpt lat="43.1858508" lon="12.9666057"><ele>591.0</ele><time>2026-04-25T12:35:30.325Z</time></trkpt><trkpt lat="43.185874" lon="12.9664897"><ele>591.0</ele><time>2026-04-25T12:35:31.332Z</time></trkpt><trkpt lat="43.1859056" lon="12.9663767"><ele>591.0</ele><time>2026-04-25T12:35:32.328Z</time></trkpt><trkpt lat="43.1859492" lon="12.9662752"><ele>591.0</ele><time>2026-04-25T12:35:33.329Z</time></trkpt><trkpt lat="43.1860051" lon="12.9661796"><ele>591.0</ele><time>2026-04-25T12:35:34.322Z</time></trkpt><trkpt lat="43.1860772" lon="12.9661023"><ele>591.0</ele><time>2026-04-25T12:35:35.323Z</time></trkpt><trkpt lat="43.1861671" lon="12.9660492"><ele>591.0</ele><time>2026-04-25T12:35:36.329Z</time></trkpt><trkpt lat="43.1862584" lon="12.9659941"><ele>591.0</ele><time>2026-04-25T12:35:37.325Z</time></trkpt><trkpt lat="43.1863292" lon="12.965926"><ele>591.0</ele><time>2026-04-25T12:35:38.324Z</time></trkpt><trkpt lat="43.1863765" lon="12.9658289"><ele>591.0</ele><time>2026-04-25T12:35:39.329Z</time></trkpt><trkpt lat="43.1863952" lon="12.965688"><ele>591.0</ele><time>2026-04-25T12:35:40.332Z</time></trkpt><trkpt lat="43.1863874" lon="12.9654993"><ele>586.3333333333334</ele><time>2026-04-25T12:35:41.324Z</time></trkpt><trkpt lat="43.1863685" lon="12.9652739"><ele>581.6666666666667</ele><time>2026-04-25T12:35:42.336Z</time></trkpt><trkpt lat="43.1863482" lon="12.965044"><ele>577.0</ele><time>2026-04-25T12:35:43.329Z</time></trkpt><trkpt lat="43.1863297" lon="12.9648131"><ele>572.0</ele><time>2026-04-25T12:35:44.332Z</time></trkpt><trkpt lat="43.1863181" lon="12.9645897"><ele>567.0</ele><time>2026-04-25T12:35:45.334Z</time></trkpt><trkpt lat="43.1863107" lon="12.9643778"><ele>562.0</ele><time>2026-04-25T12:35:46.32Z</time></trkpt><trkpt lat="43.1863014" lon="12.9641715"><ele>560.0</ele><time>2026-04-25T12:35:47.324Z</time></trkpt><trkpt lat="43.1862823" lon="12.963971"><ele>558.0</ele><time>2026-04-25T12:35:48.324Z</time></trkpt><trkpt lat="43.186251" lon="12.9637776"><ele>556.0</ele><time>2026-04-25T12:35:49.332Z</time></trkpt><trkpt lat="43.1862087" lon="12.9635883"><ele>554.0</ele><time>2026-04-25T12:35:50.322Z</time></trkpt><trkpt lat="43.1861525" lon="12.9634094"><ele>555.25</ele><time>2026-04-25T12:35:51.334Z</time></trkpt><trkpt lat="43.1860834" lon="12.9632469"><ele>556.5</ele><time>2026-04-25T12:35:52.325Z</time></trkpt><trkpt lat="43.1860094" lon="12.963091"><ele>557.75</ele><time>2026-04-25T12:35:53.325Z</time></trkpt><trkpt lat="43.1859325" lon="12.9629397"><ele>559.0</ele><time>2026-04-25T12:35:54.331Z</time></trkpt><trkpt lat="43.1858515" lon="12.9627971"><ele>559.0</ele><time>2026-04-25T12:35:55.327Z</time></trkpt><trkpt lat="43.185767" lon="12.9626655"><ele>559.0</ele><time>2026-04-25T12:35:56.329Z</time></trkpt><trkpt lat="43.1856812" lon="12.9625451"><ele>559.0</ele><time>2026-04-25T12:35:57.331Z</time></trkpt><trkpt lat="43.185596" lon="12.9624298"><ele>559.0</ele><time>2026-04-25T12:35:58.324Z</time></trkpt><trkpt lat="43.1855134" lon="12.9623159"><ele>551.75</ele><time>2026-04-25T12:35:59.324Z</time></trkpt><trkpt lat="43.1854322" lon="12.9622007"><ele>544.5</ele><time>2026-04-25T12:36:00.328Z</time></trkpt><trkpt lat="43.1853512" lon="12.9620805"><ele>537.25</ele><time>2026-04-25T12:36:01.331Z</time></trkpt><trkpt lat="43.1852753" lon="12.9619523"><ele>530.0</ele><time>2026-04-25T12:36:02.329Z</time></trkpt><trkpt lat="43.1852116" lon="12.9618226"><ele>532.6</ele><time>2026-04-25T12:36:03.333Z</time></trkpt><trkpt lat="43.1851632" lon="12.9616878"><ele>535.2</ele><time>2026-04-25T12:36:04.331Z</time></trkpt><trkpt lat="43.1851378" lon="12.9615451"><ele>537.8</ele><time>2026-04-25T12:36:05.332Z</time></trkpt><trkpt lat="43.1851394" lon="12.9614055"><ele>540.4</ele><time>2026-04-25T12:36:06.334Z</time></trkpt><trkpt lat="43.1851759" lon="12.9612838"><ele>543.0</ele><time>2026-04-25T12:36:07.326Z</time></trkpt><trkpt lat="43.1852545" lon="12.9611662"><ele>543.0</ele><time>2026-04-25T12:36:08.327Z</time></trkpt><trkpt lat="43.1853624" lon="12.9610288"><ele>543.0</ele><time>2026-04-25T12:36:09.331Z</time></trkpt><trkpt lat="43.1854625" lon="12.9608851"><ele>543.0</ele><time>2026-04-25T12:36:10.336Z</time></trkpt><trkpt lat="43.1855591" lon="12.9607527"><ele>543.0</ele><time>2026-04-25T12:36:11.333Z</time></trkpt><trkpt lat="43.1856512" lon="12.9606446"><ele>547.0</ele><time>2026-04-25T12:36:12.324Z</time></trkpt><trkpt lat="43.1857522" lon="12.9605691"><ele>551.0</ele><time>2026-04-25T12:36:13.328Z</time></trkpt><trkpt lat="43.1858614" lon="12.9605398"><ele>555.0</ele><time>2026-04-25T12:36:14.336Z</time></trkpt><trkpt lat="43.1859538" lon="12.960527"><ele>559.0</ele><time>2026-04-25T12:36:15.325Z</time></trkpt><trkpt lat="43.186026" lon="12.9604974"><ele>563.0</ele><time>2026-04-25T12:36:16.334Z</time></trkpt><trkpt lat="43.1860744" lon="12.9604409"><ele>563.0</ele><time>2026-04-25T12:36:17.334Z</time></trkpt><trkpt lat="43.1860115" lon="12.9603253"><ele>563.0</ele><time>2026-04-25T12:36:19.337Z</time></trkpt><trkpt lat="43.1858907" lon="12.960294"><ele>563.0</ele><time>2026-04-25T12:36:20.332Z</time></trkpt><trkpt lat="43.1857439" lon="12.960283"><ele>563.0</ele><time>2026-04-25T12:36:21.338Z</time></trkpt><trkpt lat="43.1855909" lon="12.960283"><ele>556.3333333333333</ele><time>2026-04-25T12:36:22.334Z</time></trkpt><trkpt lat="43.1854382" lon="12.9602875"><ele>549.6666666666666</ele><time>2026-04-25T12:36:23.335Z</time></trkpt><trkpt lat="43.1852865" lon="12.9603026"><ele>543.0</ele><time>2026-04-25T12:36:24.325Z</time></trkpt><trkpt lat="43.1851413" lon="12.9603401"><ele>543.0</ele><time>2026-04-25T12:36:25.336Z</time></trkpt><trkpt lat="43.1849994" lon="12.9603986"><ele>543.0</ele><time>2026-04-25T12:36:26.326Z</time></trkpt><trkpt lat="43.1848746" lon="12.9604772"><ele>543.0</ele><time>2026-04-25T12:36:27.331Z</time></trkpt><trkpt lat="43.1847685" lon="12.9605893"><ele>543.0</ele><time>2026-04-25T12:36:28.323Z</time></trkpt><trkpt lat="43.1846783" lon="12.960733"><ele>530.75</ele><time>2026-04-25T12:36:29.328Z</time></trkpt><trkpt lat="43.1846237" lon="12.9609036"><ele>518.5</ele><time>2026-04-25T12:36:30.333Z</time></trkpt><trkpt lat="43.1845921" lon="12.9610787"><ele>506.25</ele><time>2026-04-25T12:36:31.328Z</time></trkpt><trkpt lat="43.1846084" lon="12.9612524"><ele>494.0</ele><time>2026-04-25T12:36:32.334Z</time></trkpt><trkpt lat="43.1846562" lon="12.9614353"><ele>494.0</ele><time>2026-04-25T12:36:33.328Z</time></trkpt><trkpt lat="43.1847192" lon="12.9616433"><ele>494.0</ele><time>2026-04-25T12:36:34.341Z</time></trkpt><trkpt lat="43.1847937" lon="12.9618786"><ele>494.0</ele><time>2026-04-25T12:36:35.329Z</time></trkpt><trkpt lat="43.1848622" lon="12.9621135"><ele>504.3333333333333</ele><time>2026-04-25T12:36:36.342Z</time></trkpt><trkpt lat="43.1849213" lon="12.9623358"><ele>514.6666666666666</ele><time>2026-04-25T12:36:37.336Z</time></trkpt><trkpt lat="43.1849717" lon="12.9625474"><ele>525.0</ele><time>2026-04-25T12:36:38.34Z</time></trkpt><trkpt lat="43.1850043" lon="12.9627344"><ele>525.0</ele><time>2026-04-25T12:36:39.337Z</time></trkpt><trkpt lat="43.1850098" lon="12.9629052"><ele>525.0</ele><time>2026-04-25T12:36:40.339Z</time></trkpt><trkpt lat="43.1849833" lon="12.9630614"><ele>525.0</ele><time>2026-04-25T12:36:41.33Z</time></trkpt><trkpt lat="43.1849253" lon="12.9631867"><ele>525.0</ele><time>2026-04-25T12:36:42.34Z</time></trkpt><trkpt lat="43.1848482" lon="12.9632667"><ele>525.0</ele><time>2026-04-25T12:36:43.332Z</time></trkpt><trkpt lat="43.1847352" lon="12.9633017"><ele>524.3333333333334</ele><time>2026-04-25T12:36:44.325Z</time></trkpt><trkpt lat="43.1845691" lon="12.9633078"><ele>523.6666666666667</ele><time>2026-04-25T12:36:45.339Z</time></trkpt><trkpt lat="43.1843736" lon="12.9633434"><ele>523.0</ele><time>2026-04-25T12:36:46.337Z</time></trkpt><trkpt lat="43.1841826" lon="12.9634099"><ele>515.3333333333334</ele><time>2026-04-25T12:36:47.332Z</time></trkpt><trkpt lat="43.1840033" lon="12.9634794"><ele>507.66666666666663</ele><time>2026-04-25T12:36:48.335Z</time></trkpt><trkpt lat="43.1838473" lon="12.9635592"><ele>500.0</ele><time>2026-04-25T12:36:49.324Z</time></trkpt><trkpt lat="43.1837206" lon="12.9636452"><ele>500.0</ele><time>2026-04-25T12:36:50.327Z</time></trkpt><trkpt lat="43.1836091" lon="12.9637449"><ele>500.0</ele><time>2026-04-25T12:36:51.329Z</time></trkpt><trkpt lat="43.1835061" lon="12.9638697"><ele>500.0</ele><time>2026-04-25T12:36:52.328Z</time></trkpt><trkpt lat="43.1834117" lon="12.9640244"><ele>500.0</ele><time>2026-04-25T12:36:53.335Z</time></trkpt><trkpt lat="43.1833282" lon="12.9642134"><ele>500.75</ele><time>2026-04-25T12:36:54.336Z</time></trkpt><trkpt lat="43.1832539" lon="12.964412"><ele>501.5</ele><time>2026-04-25T12:36:55.339Z</time></trkpt><trkpt lat="43.1832031" lon="12.9646078"><ele>502.25</ele><time>2026-04-25T12:36:56.34Z</time></trkpt><trkpt lat="43.1831602" lon="12.9647811"><ele>503.0</ele><time>2026-04-25T12:36:57.335Z</time></trkpt><trkpt lat="43.1831176" lon="12.9649313"><ele>501.4</ele><time>2026-04-25T12:36:58.326Z</time></trkpt><trkpt lat="43.1830893" lon="12.9650755"><ele>499.79999999999995</ele><time>2026-04-25T12:36:59.334Z</time></trkpt><trkpt lat="43.1830827" lon="12.965207"><ele>498.2</ele><time>2026-04-25T12:37:00.334Z</time></trkpt><trkpt lat="43.1831177" lon="12.9653229"><ele>496.6</ele><time>2026-04-25T12:37:01.329Z</time></trkpt><trkpt lat="43.1831968" lon="12.9654349"><ele>495.0</ele><time>2026-04-25T12:37:02.327Z</time></trkpt><trkpt lat="43.1832898" lon="12.9655577"><ele>495.0</ele><time>2026-04-25T12:37:03.333Z</time></trkpt><trkpt lat="43.1833579" lon="12.965695"><ele>495.0</ele><time>2026-04-25T12:37:04.327Z</time></trkpt><trkpt lat="43.1833834" lon="12.9658404"><ele>495.0</ele><time>2026-04-25T12:37:05.332Z</time></trkpt><trkpt lat="43.183383" lon="12.9659832"><ele>495.0</ele><time>2026-04-25T12:37:06.327Z</time></trkpt><trkpt lat="43.1833589" lon="12.9661167"><ele>495.0</ele><time>2026-04-25T12:37:07.333Z</time></trkpt><trkpt lat="43.1832901" lon="12.9662306"><ele>487.66666666666663</ele><time>2026-04-25T12:37:08.333Z</time></trkpt><trkpt lat="43.1831559" lon="12.9663282"><ele>480.3333333333333</ele><time>2026-04-25T12:37:09.33Z</time></trkpt><trkpt lat="43.183002" lon="12.9664178"><ele>473.0</ele><time>2026-04-25T12:37:10.33Z</time></trkpt><trkpt lat="43.1828474" lon="12.966496"><ele>473.0</ele><time>2026-04-25T12:37:11.324Z</time></trkpt><trkpt lat="43.1827111" lon="12.9665903"><ele>473.0</ele><time>2026-04-25T12:37:12.329Z</time></trkpt><trkpt lat="43.1825912" lon="12.9667016"><ele>473.0</ele><time>2026-04-25T12:37:13.335Z</time></trkpt><trkpt lat="43.1824872" lon="12.9668262"><ele>473.0</ele><time>2026-04-25T12:37:14.334Z</time></trkpt><trkpt lat="43.1823914" lon="12.9669906"><ele>466.3333333333333</ele><time>2026-04-25T12:37:15.335Z</time></trkpt><trkpt lat="43.1822991" lon="12.9671986"><ele>459.66666666666663</ele><time>2026-04-25T12:37:16.322Z</time></trkpt><trkpt lat="43.1822154" lon="12.9674319"><ele>453.0</ele><time>2026-04-25T12:37:17.338Z</time></trkpt><trkpt lat="43.1821388" lon="12.9676667"><ele>453.0</ele><time>2026-04-25T12:37:18.333Z</time></trkpt><trkpt lat="43.1820752" lon="12.9678941"><ele>453.0</ele><time>2026-04-25T12:37:19.333Z</time></trkpt><trkpt lat="43.1820198" lon="12.9681214"><ele>453.0</ele><time>2026-04-25T12:37:20.338Z</time></trkpt><trkpt lat="43.1819765" lon="12.9683529"><ele>454.33333333333337</ele><time>2026-04-25T12:37:21.335Z</time></trkpt><trkpt lat="43.1819445" lon="12.9685819"><ele>455.6666666666667</ele><time>2026-04-25T12:37:22.334Z</time></trkpt><trkpt lat="43.1819248" lon="12.9688136"><ele>457.0</ele><time>2026-04-25T12:37:23.325Z</time></trkpt><trkpt lat="43.1819135" lon="12.9690461"><ele>456.6666666666667</ele><time>2026-04-25T12:37:24.334Z</time></trkpt><trkpt lat="43.1819068" lon="12.9692857"><ele>456.33333333333337</ele><time>2026-04-25T12:37:25.338Z</time></trkpt><trkpt lat="43.1818935" lon="12.9695219"><ele>456.0</ele><time>2026-04-25T12:37:26.323Z</time></trkpt><trkpt lat="43.1818668" lon="12.9697487"><ele>456.0</ele><time>2026-04-25T12:37:27.33Z</time></trkpt><trkpt lat="43.1818369" lon="12.9699672"><ele>456.0</ele><time>2026-04-25T12:37:28.331Z</time></trkpt><trkpt lat="43.1818107" lon="12.9701738"><ele>456.0</ele><time>2026-04-25T12:37:29.327Z</time></trkpt><trkpt lat="43.1817939" lon="12.970374"><ele>456.5</ele><time>2026-04-25T12:37:30.322Z</time></trkpt><trkpt lat="43.1817818" lon="12.9705677"><ele>457.0</ele><time>2026-04-25T12:37:31.324Z</time></trkpt><trkpt lat="43.1817687" lon="12.9707562"><ele>457.5</ele><time>2026-04-25T12:37:32.328Z</time></trkpt><trkpt lat="43.181753" lon="12.9709397"><ele>458.0</ele><time>2026-04-25T12:37:33.323Z</time></trkpt><trkpt lat="43.181737" lon="12.9711164"><ele>458.0</ele><time>2026-04-25T12:37:34.321Z</time></trkpt><trkpt lat="43.1817243" lon="12.971287"><ele>458.0</ele><time>2026-04-25T12:37:35.33Z</time></trkpt><trkpt lat="43.1817152" lon="12.9714491"><ele>458.0</ele><time>2026-04-25T12:37:36.329Z</time></trkpt><trkpt lat="43.1817114" lon="12.971606"><ele>458.0</ele><time>2026-04-25T12:37:37.322Z</time></trkpt><trkpt lat="43.1817104" lon="12.97176"><ele>457.4</ele><time>2026-04-25T12:37:38.324Z</time></trkpt><trkpt lat="43.1817091" lon="12.9719125"><ele>456.79999999999995</ele><time>2026-04-25T12:37:39.324Z</time></trkpt><trkpt lat="43.1817092" lon="12.972063"><ele>456.2</ele><time>2026-04-25T12:37:40.325Z</time></trkpt><trkpt lat="43.1817107" lon="12.9722111"><ele>455.6</ele><time>2026-04-25T12:37:41.319Z</time></trkpt><trkpt lat="43.1817125" lon="12.9723557"><ele>455.0</ele><time>2026-04-25T12:37:42.324Z</time></trkpt><trkpt lat="43.1817143" lon="12.9724986"><ele>453.8333333333333</ele><time>2026-04-25T12:37:43.327Z</time></trkpt><trkpt lat="43.1817145" lon="12.9726371"><ele>452.66666666666663</ele><time>2026-04-25T12:37:44.321Z</time></trkpt><trkpt lat="43.1817147" lon="12.9727735"><ele>451.5</ele><time>2026-04-25T12:37:45.325Z</time></trkpt><trkpt lat="43.1817163" lon="12.9729009"><ele>450.33333333333337</ele><time>2026-04-25T12:37:46.324Z</time></trkpt><trkpt lat="43.1817166" lon="12.9730117"><ele>449.1666666666667</ele><time>2026-04-25T12:37:47.327Z</time></trkpt><trkpt lat="43.1817174" lon="12.9731092"><ele>448.0</ele><time>2026-04-25T12:37:48.326Z</time></trkpt><trkpt lat="43.1817238" lon="12.9732565"><ele>448.00000000000006</ele><time>2026-04-25T12:37:50.329Z</time></trkpt><trkpt lat="43.1816936" lon="12.9733644"><ele>448.0</ele><time>2026-04-25T12:38:29.329Z</time></trkpt><trkpt lat="43.1816248" lon="12.9733551"><ele>448.0</ele><time>2026-04-25T12:38:32.329Z</time></trkpt><trkpt lat="43.1816105" lon="12.9732338"><ele>448.0</ele><time>2026-04-25T12:38:34.327Z</time></trkpt><trkpt lat="43.1816251" lon="12.9731361"><ele>448.00000000000006</ele><time>2026-04-25T12:38:35.33Z</time></trkpt><trkpt lat="43.1816363" lon="12.9730298"><ele>448.0</ele><time>2026-04-25T12:38:36.326Z</time></trkpt><trkpt lat="43.1816388" lon="12.9729277"><ele>448.0</ele><time>2026-04-25T12:38:37.332Z</time></trkpt><trkpt lat="43.1816407" lon="12.9728134"><ele>447.99999999999994</ele><time>2026-04-25T12:38:38.325Z</time></trkpt><trkpt lat="43.1816448" lon="12.9726731"><ele>447.99999999999994</ele><time>2026-04-25T12:38:39.33Z</time></trkpt><trkpt lat="43.1816486" lon="12.9725194"><ele>448.0</ele><time>2026-04-25T12:38:40.327Z</time></trkpt><trkpt lat="43.1816474" lon="12.9723592"><ele>448.0</ele><time>2026-04-25T12:38:41.33Z</time></trkpt><trkpt lat="43.18164" lon="12.9721992"><ele>449.75</ele><time>2026-04-25T12:38:42.327Z</time></trkpt><trkpt lat="43.1816364" lon="12.9720358"><ele>451.5</ele><time>2026-04-25T12:38:43.342Z</time></trkpt><trkpt lat="43.1816334" lon="12.9718564"><ele>453.25</ele><time>2026-04-25T12:38:44.334Z</time></trkpt><trkpt lat="43.1816332" lon="12.9716683"><ele>455.0</ele><time>2026-04-25T12:38:45.339Z</time></trkpt><trkpt lat="43.1816338" lon="12.971474"><ele>456.0</ele><time>2026-04-25T12:38:46.344Z</time></trkpt><trkpt lat="43.1816349" lon="12.9712702"><ele>457.0</ele><time>2026-04-25T12:38:47.34Z</time></trkpt><trkpt lat="43.1816325" lon="12.971061"><ele>458.0</ele><time>2026-04-25T12:38:48.336Z</time></trkpt><trkpt lat="43.181628" lon="12.9708466"><ele>459.0</ele><time>2026-04-25T12:38:49.331Z</time></trkpt><trkpt lat="43.1816194" lon="12.9706226"><ele>460.0</ele><time>2026-04-25T12:38:50.334Z</time></trkpt><trkpt lat="43.1816092" lon="12.9703943"><ele>461.0</ele><time>2026-04-25T12:38:51.34Z</time></trkpt><trkpt lat="43.1815959" lon="12.9701645"><ele>459.3333333333333</ele><time>2026-04-25T12:38:52.342Z</time></trkpt><trkpt lat="43.1815837" lon="12.9699322"><ele>457.66666666666663</ele><time>2026-04-25T12:38:53.341Z</time></trkpt><trkpt lat="43.1815777" lon="12.9696963"><ele>456.0</ele><time>2026-04-25T12:38:54.34Z</time></trkpt><trkpt lat="43.1815793" lon="12.9694513"><ele>456.0</ele><time>2026-04-25T12:38:55.342Z</time></trkpt><trkpt lat="43.1815852" lon="12.9691957"><ele>456.0</ele><time>2026-04-25T12:38:56.347Z</time></trkpt><trkpt lat="43.1815955" lon="12.9689338"><ele>456.0</ele><time>2026-04-25T12:38:57.345Z</time></trkpt><trkpt lat="43.1816087" lon="12.9686707"><ele>456.33333333333337</ele><time>2026-04-25T12:38:58.347Z</time></trkpt><trkpt lat="43.1816276" lon="12.9684109"><ele>456.6666666666667</ele><time>2026-04-25T12:38:59.345Z</time></trkpt><trkpt lat="43.1816574" lon="12.968156"><ele>457.0</ele><time>2026-04-25T12:39:00.344Z</time></trkpt><trkpt lat="43.181694" lon="12.9679025"><ele>455.6666666666667</ele><time>2026-04-25T12:39:01.347Z</time></trkpt><trkpt lat="43.1817341" lon="12.9676477"><ele>454.33333333333337</ele><time>2026-04-25T12:39:02.345Z</time></trkpt><trkpt lat="43.1817762" lon="12.9673877"><ele>453.0</ele><time>2026-04-25T12:39:03.334Z</time></trkpt><trkpt lat="43.1818193" lon="12.9671265"><ele>452.33333333333337</ele><time>2026-04-25T12:39:04.322Z</time></trkpt><trkpt lat="43.1818685" lon="12.966862"><ele>451.6666666666667</ele><time>2026-04-25T12:39:05.344Z</time></trkpt><trkpt lat="43.1819236" lon="12.9665943"><ele>451.0</ele><time>2026-04-25T12:39:06.344Z</time></trkpt><trkpt lat="43.1819801" lon="12.9663255"><ele>450.33333333333337</ele><time>2026-04-25T12:39:07.33Z</time></trkpt><trkpt lat="43.182036" lon="12.9660555"><ele>449.66666666666663</ele><time>2026-04-25T12:39:08.331Z</time></trkpt><trkpt lat="43.1820926" lon="12.9657831"><ele>449.0</ele><time>2026-04-25T12:39:09.34Z</time></trkpt><trkpt lat="43.182143" lon="12.9655064"><ele>447.66666666666663</ele><time>2026-04-25T12:39:10.342Z</time></trkpt><trkpt lat="43.1821804" lon="12.9652246"><ele>446.33333333333337</ele><time>2026-04-25T12:39:11.347Z</time></trkpt><trkpt lat="43.1822118" lon="12.9649419"><ele>445.0</ele><time>2026-04-25T12:39:12.353Z</time></trkpt><trkpt lat="43.1822384" lon="12.9646615"><ele>445.0</ele><time>2026-04-25T12:39:13.347Z</time></trkpt><trkpt lat="43.1822601" lon="12.9643773"><ele>445.0</ele><time>2026-04-25T12:39:14.335Z</time></trkpt><trkpt lat="43.182276" lon="12.9640922"><ele>445.0</ele><time>2026-04-25T12:39:15.335Z</time></trkpt><trkpt lat="43.1822868" lon="12.9638082"><ele>444.6666666666667</ele><time>2026-04-25T12:39:16.347Z</time></trkpt><trkpt lat="43.182289" lon="12.9635301"><ele>444.33333333333337</ele><time>2026-04-25T12:39:17.346Z</time></trkpt><trkpt lat="43.182287" lon="12.9632652"><ele>444.0</ele><time>2026-04-25T12:39:18.351Z</time></trkpt><trkpt lat="43.1822801" lon="12.9630123"><ele>444.0</ele><time>2026-04-25T12:39:19.349Z</time></trkpt><trkpt lat="43.1822832" lon="12.9627673"><ele>444.0</ele><time>2026-04-25T12:39:20.338Z</time></trkpt><trkpt lat="43.1822966" lon="12.962528"><ele>444.0</ele><time>2026-04-25T12:39:21.339Z</time></trkpt><trkpt lat="43.1823223" lon="12.9622885"><ele>447.0</ele><time>2026-04-25T12:39:22.359Z</time></trkpt><trkpt lat="43.1823596" lon="12.9620451"><ele>450.0</ele><time>2026-04-25T12:39:23.35Z</time></trkpt><trkpt lat="43.1824106" lon="12.9618"><ele>453.0</ele><time>2026-04-25T12:39:24.356Z</time></trkpt><trkpt lat="43.1824778" lon="12.9615504"><ele>453.0</ele><time>2026-04-25T12:39:25.343Z</time></trkpt><trkpt lat="43.1825587" lon="12.9613007"><ele>453.0</ele><time>2026-04-25T12:39:26.342Z</time></trkpt><trkpt lat="43.1826522" lon="12.9610603"><ele>453.0</ele><time>2026-04-25T12:39:27.342Z</time></trkpt><trkpt lat="43.1827549" lon="12.9608257"><ele>451.0</ele><time>2026-04-25T12:39:28.353Z</time></trkpt><trkpt lat="43.1828632" lon="12.9605914"><ele>449.0</ele><time>2026-04-25T12:39:29.339Z</time></trkpt><trkpt lat="43.1829708" lon="12.9603553"><ele>447.0</ele><time>2026-04-25T12:39:30.342Z</time></trkpt><trkpt lat="43.183078" lon="12.960117"><ele>452.0</ele><time>2026-04-25T12:39:31.339Z</time></trkpt><trkpt lat="43.1831829" lon="12.9598795"><ele>457.0</ele><time>2026-04-25T12:39:32.351Z</time></trkpt><trkpt lat="43.1832893" lon="12.9596422"><ele>462.0</ele><time>2026-04-25T12:39:33.348Z</time></trkpt><trkpt lat="43.1833977" lon="12.9594069"><ele>458.0</ele><time>2026-04-25T12:39:34.346Z</time></trkpt><trkpt lat="43.1835073" lon="12.9591726"><ele>454.0</ele><time>2026-04-25T12:39:35.349Z</time></trkpt><trkpt lat="43.1836148" lon="12.9589404"><ele>450.0</ele><time>2026-04-25T12:39:36.343Z</time></trkpt><trkpt lat="43.1837191" lon="12.9587116"><ele>450.0</ele><time>2026-04-25T12:39:37.331Z</time></trkpt><trkpt lat="43.1838213" lon="12.9584841"><ele>450.0</ele><time>2026-04-25T12:39:38.346Z</time></trkpt><trkpt lat="43.1839181" lon="12.9582548"><ele>450.0</ele><time>2026-04-25T12:39:39.339Z</time></trkpt><trkpt lat="43.1840043" lon="12.9580161"><ele>449.66666666666663</ele><time>2026-04-25T12:39:40.339Z</time></trkpt><trkpt lat="43.1840721" lon="12.9577653"><ele>449.3333333333333</ele><time>2026-04-25T12:39:41.336Z</time></trkpt><trkpt lat="43.1841203" lon="12.9575057"><ele>449.0</ele><time>2026-04-25T12:39:42.341Z</time></trkpt><trkpt lat="43.1841536" lon="12.9572441"><ele>449.0</ele><time>2026-04-25T12:39:43.35Z</time></trkpt><trkpt lat="43.1841758" lon="12.9569791"><ele>449.0</ele><time>2026-04-25T12:39:44.352Z</time></trkpt><trkpt lat="43.1841791" lon="12.9567093"><ele>449.0</ele><time>2026-04-25T12:39:45.337Z</time></trkpt><trkpt lat="43.1841668" lon="12.9564381"><ele>449.0</ele><time>2026-04-25T12:39:46.349Z</time></trkpt><trkpt lat="43.184142" lon="12.9561693"><ele>449.0</ele><time>2026-04-25T12:39:47.347Z</time></trkpt><trkpt lat="43.1841064" lon="12.9559061"><ele>449.0</ele><time>2026-04-25T12:39:48.347Z</time></trkpt><trkpt lat="43.1840527" lon="12.9556514"><ele>447.66666666666663</ele><time>2026-04-25T12:39:49.341Z</time></trkpt><trkpt lat="43.1839797" lon="12.9554033"><ele>446.33333333333337</ele><time>2026-04-25T12:39:50.349Z</time></trkpt><trkpt lat="43.1838884" lon="12.9551563"><ele>445.0</ele><time>2026-04-25T12:39:51.341Z</time></trkpt><trkpt lat="43.1837846" lon="12.9549188"><ele>445.0</ele><time>2026-04-25T12:39:52.332Z</time></trkpt><trkpt lat="43.1836737" lon="12.954698"><ele>445.0</ele><time>2026-04-25T12:39:53.347Z</time></trkpt><trkpt lat="43.1835558" lon="12.9545049"><ele>445.0</ele><time>2026-04-25T12:39:54.354Z</time></trkpt><trkpt lat="43.1834299" lon="12.9543359"><ele>445.0</ele><time>2026-04-25T12:39:55.354Z</time></trkpt><trkpt lat="43.1832906" lon="12.9541847"><ele>445.0</ele><time>2026-04-25T12:39:56.341Z</time></trkpt><trkpt lat="43.1831436" lon="12.9540334"><ele>445.0</ele><time>2026-04-25T12:39:57.35Z</time></trkpt><trkpt lat="43.1829925" lon="12.9538796"><ele>445.0</ele><time>2026-04-25T12:39:58.332Z</time></trkpt><trkpt lat="43.1828407" lon="12.9537213"><ele>445.0</ele><time>2026-04-25T12:39:59.348Z</time></trkpt><trkpt lat="43.1826893" lon="12.9535618"><ele>445.0</ele><time>2026-04-25T12:40:00.332Z</time></trkpt><trkpt lat="43.1825376" lon="12.9534035"><ele>445.6666666666667</ele><time>2026-04-25T12:40:01.344Z</time></trkpt><trkpt lat="43.1823886" lon="12.9532489"><ele>446.33333333333337</ele><time>2026-04-25T12:40:02.346Z</time></trkpt><trkpt lat="43.1822425" lon="12.9530995"><ele>447.0</ele><time>2026-04-25T12:40:03.337Z</time></trkpt><trkpt lat="43.182099" lon="12.9529529"><ele>447.0</ele><time>2026-04-25T12:40:04.345Z</time></trkpt><trkpt lat="43.181961" lon="12.9528057"><ele>447.0</ele><time>2026-04-25T12:40:05.346Z</time></trkpt><trkpt lat="43.1818425" lon="12.952644"><ele>447.0</ele><time>2026-04-25T12:40:06.339Z</time></trkpt><trkpt lat="43.1817328" lon="12.9524985"><ele>446.75</ele><time>2026-04-25T12:40:07.349Z</time></trkpt><trkpt lat="43.1816374" lon="12.9523449"><ele>446.5</ele><time>2026-04-25T12:40:08.333Z</time></trkpt><trkpt lat="43.1815626" lon="12.9521792"><ele>446.25</ele><time>2026-04-25T12:40:09.345Z</time></trkpt><trkpt lat="43.1815111" lon="12.9519985"><ele>446.0</ele><time>2026-04-25T12:40:10.344Z</time></trkpt><trkpt lat="43.1814874" lon="12.951789"><ele>446.0</ele><time>2026-04-25T12:40:11.335Z</time></trkpt><trkpt lat="43.181478" lon="12.9515593"><ele>446.0</ele><time>2026-04-25T12:40:12.354Z</time></trkpt><trkpt lat="43.1814719" lon="12.9513249"><ele>446.0</ele><time>2026-04-25T12:40:13.341Z</time></trkpt><trkpt lat="43.1814699" lon="12.9510881"><ele>446.3333333333333</ele><time>2026-04-25T12:40:14.341Z</time></trkpt><trkpt lat="43.1814788" lon="12.9508652"><ele>446.66666666666663</ele><time>2026-04-25T12:40:15.35Z</time></trkpt><trkpt lat="43.1815101" lon="12.9506559"><ele>447.0</ele><time>2026-04-25T12:40:16.352Z</time></trkpt><trkpt lat="43.1815774" lon="12.9504698"><ele>449.0</ele><time>2026-04-25T12:40:17.349Z</time></trkpt><trkpt lat="43.1816699" lon="12.9502854"><ele>451.0</ele><time>2026-04-25T12:40:18.325Z</time></trkpt><trkpt lat="43.1817935" lon="12.9501025"><ele>453.0</ele><time>2026-04-25T12:40:19.338Z</time></trkpt><trkpt lat="43.181924" lon="12.9499177"><ele>453.0</ele><time>2026-04-25T12:40:20.325Z</time></trkpt><trkpt lat="43.1820483" lon="12.9497216"><ele>453.0</ele><time>2026-04-25T12:40:21.334Z</time></trkpt><trkpt lat="43.1821739" lon="12.9495245"><ele>453.0</ele><time>2026-04-25T12:40:22.338Z</time></trkpt><trkpt lat="43.1823" lon="12.9493338"><ele>455.0</ele><time>2026-04-25T12:40:23.331Z</time></trkpt><trkpt lat="43.1824298" lon="12.9491578"><ele>457.0</ele><time>2026-04-25T12:40:24.342Z</time></trkpt><trkpt lat="43.1825627" lon="12.9489915"><ele>459.0</ele><time>2026-04-25T12:40:25.339Z</time></trkpt><trkpt lat="43.1827003" lon="12.9488389"><ele>459.0</ele><time>2026-04-25T12:40:26.333Z</time></trkpt><trkpt lat="43.1828367" lon="12.9487052"><ele>459.0</ele><time>2026-04-25T12:40:27.334Z</time></trkpt><trkpt lat="43.1829721" lon="12.9485835"><ele>459.0</ele><time>2026-04-25T12:40:28.33Z</time></trkpt><trkpt lat="43.1831016" lon="12.9484707"><ele>457.5</ele><time>2026-04-25T12:40:29.333Z</time></trkpt><trkpt lat="43.183221" lon="12.9483649"><ele>456.0</ele><time>2026-04-25T12:40:30.327Z</time></trkpt><trkpt lat="43.1833271" lon="12.9482691"><ele>454.5</ele><time>2026-04-25T12:40:31.333Z</time></trkpt><trkpt lat="43.1834183" lon="12.9481898"><ele>453.0</ele><time>2026-04-25T12:40:32.331Z</time></trkpt><trkpt lat="43.1834976" lon="12.9481242"><ele>453.0</ele><time>2026-04-25T12:40:33.328Z</time></trkpt><trkpt lat="43.18356" lon="12.9480697"><ele>452.99999999999994</ele><time>2026-04-25T12:40:34.329Z</time></trkpt><trkpt lat="43.1836373" lon="12.9479847"><ele>452.99999999999994</ele><time>2026-04-25T12:40:36.329Z</time></trkpt><trkpt lat="43.1836018" lon="12.9478943"><ele>453.0</ele><time>2026-04-25T12:40:39.32Z</time></trkpt><trkpt lat="43.1835273" lon="12.9479275"><ele>453.0</ele><time>2026-04-25T12:40:41.321Z</time></trkpt><trkpt lat="43.1834278" lon="12.9480918"><ele>453.0</ele><time>2026-04-25T12:40:43.332Z</time></trkpt><trkpt lat="43.1833353" lon="12.9482121"><ele>453.0</ele><time>2026-04-25T12:40:44.333Z</time></trkpt><trkpt lat="43.1832146" lon="12.948326"><ele>453.0</ele><time>2026-04-25T12:40:45.331Z</time></trkpt><trkpt lat="43.1830748" lon="12.948444"><ele>453.0</ele><time>2026-04-25T12:40:46.331Z</time></trkpt><trkpt lat="43.1829229" lon="12.9485808"><ele>455.0</ele><time>2026-04-25T12:40:47.332Z</time></trkpt><trkpt lat="43.1827657" lon="12.9487316"><ele>457.0</ele><time>2026-04-25T12:40:48.322Z</time></trkpt><trkpt lat="43.1826028" lon="12.9489022"><ele>459.0</ele><time>2026-04-25T12:40:49.323Z</time></trkpt><trkpt lat="43.1824378" lon="12.9490938"><ele>457.0</ele><time>2026-04-25T12:40:50.333Z</time></trkpt><trkpt lat="43.1822748" lon="12.9493026"><ele>455.0</ele><time>2026-04-25T12:40:51.334Z</time></trkpt><trkpt lat="43.1821186" lon="12.9495259"><ele>453.0</ele><time>2026-04-25T12:40:52.321Z</time></trkpt><trkpt lat="43.181968" lon="12.9497602"><ele>453.0</ele><time>2026-04-25T12:40:53.333Z</time></trkpt><trkpt lat="43.1818272" lon="12.9499829"><ele>453.0</ele><time>2026-04-25T12:40:54.336Z</time></trkpt><trkpt lat="43.1816969" lon="12.9501867"><ele>453.0</ele><time>2026-04-25T12:40:55.327Z</time></trkpt><trkpt lat="43.1815861" lon="12.950374"><ele>451.0</ele><time>2026-04-25T12:40:56.335Z</time></trkpt><trkpt lat="43.1815009" lon="12.9505703"><ele>449.0</ele><time>2026-04-25T12:40:57.333Z</time></trkpt><trkpt lat="43.18145" lon="12.9507883"><ele>447.0</ele><time>2026-04-25T12:40:58.337Z</time></trkpt><trkpt lat="43.1814323" lon="12.9510337"><ele>446.66666666666663</ele><time>2026-04-25T12:40:59.325Z</time></trkpt><trkpt lat="43.1814393" lon="12.9513002"><ele>446.3333333333333</ele><time>2026-04-25T12:41:00.333Z</time></trkpt><trkpt lat="43.1814536" lon="12.9515723"><ele>446.0</ele><time>2026-04-25T12:41:01.325Z</time></trkpt><trkpt lat="43.1814711" lon="12.9518244"><ele>446.0</ele><time>2026-04-25T12:41:02.339Z</time></trkpt><trkpt lat="43.1815021" lon="12.9520546"><ele>446.0</ele><time>2026-04-25T12:41:03.337Z</time></trkpt><trkpt lat="43.1815626" lon="12.9522759"><ele>446.0</ele><time>2026-04-25T12:41:04.333Z</time></trkpt><trkpt lat="43.1816642" lon="12.9524816"><ele>446.3333333333333</ele><time>2026-04-25T12:41:05.336Z</time></trkpt><trkpt lat="43.1817976" lon="12.9526751"><ele>446.66666666666663</ele><time>2026-04-25T12:41:06.337Z</time></trkpt><trkpt lat="43.1819507" lon="12.9528562"><ele>447.0</ele><time>2026-04-25T12:41:07.335Z</time></trkpt><trkpt lat="43.1821162" lon="12.9530326"><ele>447.0</ele><time>2026-04-25T12:41:08.323Z</time></trkpt><trkpt lat="43.182291" lon="12.9532104"><ele>447.0</ele><time>2026-04-25T12:41:09.334Z</time></trkpt><trkpt lat="43.1824719" lon="12.9533912"><ele>447.0</ele><time>2026-04-25T12:41:10.329Z</time></trkpt><trkpt lat="43.1826546" lon="12.9535758"><ele>446.0</ele><time>2026-04-25T12:41:11.334Z</time></trkpt><trkpt lat="43.1828408" lon="12.9537664"><ele>445.0</ele><time>2026-04-25T12:41:12.336Z</time></trkpt><trkpt lat="43.1830227" lon="12.9539576"><ele>445.0</ele><time>2026-04-25T12:41:13.327Z</time></trkpt><trkpt lat="43.1831977" lon="12.9541387"><ele>445.0</ele><time>2026-04-25T12:41:14.328Z</time></trkpt><trkpt lat="43.1833597" lon="12.9543062"><ele>445.0</ele><time>2026-04-25T12:41:15.333Z</time></trkpt><trkpt lat="43.1835019" lon="12.9544695"><ele>445.0</ele><time>2026-04-25T12:41:16.334Z</time></trkpt><trkpt lat="43.1836173" lon="12.9546316"><ele>445.0</ele><time>2026-04-25T12:41:17.334Z</time></trkpt><trkpt lat="43.1837089" lon="12.9547813"><ele>445.0</ele><time>2026-04-25T12:41:18.331Z</time></trkpt><trkpt lat="43.1837766" lon="12.9549194"><ele>445.0</ele><time>2026-04-25T12:41:19.332Z</time></trkpt><trkpt lat="43.1838175" lon="12.9550305"><ele>444.4</ele><time>2026-04-25T12:41:20.332Z</time></trkpt><trkpt lat="43.1838306" lon="12.9551203"><ele>443.8</ele><time>2026-04-25T12:41:21.334Z</time></trkpt><trkpt lat="43.1837617" lon="12.9552505"><ele>443.20000000000005</ele><time>2026-04-25T12:41:23.332Z</time></trkpt><trkpt lat="43.1836801" lon="12.9553024"><ele>442.6</ele><time>2026-04-25T12:41:24.321Z</time></trkpt><trkpt lat="43.1835596" lon="12.9553679"><ele>442.0</ele><time>2026-04-25T12:41:25.336Z</time></trkpt><trkpt lat="43.1834192" lon="12.955445"><ele>442.0</ele><time>2026-04-25T12:41:26.334Z</time></trkpt><trkpt lat="43.1832719" lon="12.955535"><ele>442.0</ele><time>2026-04-25T12:41:27.333Z</time></trkpt><trkpt lat="43.1831259" lon="12.9556304"><ele>442.0</ele><time>2026-04-25T12:41:28.332Z</time></trkpt><trkpt lat="43.1829848" lon="12.9557245"><ele>442.25</ele><time>2026-04-25T12:41:29.333Z</time></trkpt><trkpt lat="43.1828553" lon="12.9558188"><ele>442.5</ele><time>2026-04-25T12:41:30.33Z</time></trkpt><trkpt lat="43.1827342" lon="12.9559041"><ele>442.75</ele><time>2026-04-25T12:41:31.329Z</time></trkpt><trkpt lat="43.1826228" lon="12.9559719"><ele>443.0</ele><time>2026-04-25T12:41:32.339Z</time></trkpt><trkpt lat="43.1825207" lon="12.9560099"><ele>443.0</ele><time>2026-04-25T12:41:33.334Z</time></trkpt><trkpt lat="43.1824217" lon="12.9560138"><ele>442.99999999999994</ele><time>2026-04-25T12:41:34.332Z</time></trkpt><trkpt lat="43.1823215" lon="12.955988"><ele>442.99999999999994</ele><time>2026-04-25T12:41:35.336Z</time></trkpt><trkpt lat="43.1822132" lon="12.9559665"><ele>443.0</ele><time>2026-04-25T12:41:36.334Z</time></trkpt><trkpt lat="43.1821009" lon="12.9559504"><ele>443.0</ele><time>2026-04-25T12:41:37.337Z</time></trkpt><trkpt lat="43.1819935" lon="12.955937"><ele>444.4</ele><time>2026-04-25T12:41:38.337Z</time></trkpt><trkpt lat="43.1818967" lon="12.9559176"><ele>445.79999999999995</ele><time>2026-04-25T12:41:39.336Z</time></trkpt><trkpt lat="43.1818102" lon="12.955889"><ele>447.2</ele><time>2026-04-25T12:41:40.332Z</time></trkpt><trkpt lat="43.1817364" lon="12.9558418"><ele>448.6</ele><time>2026-04-25T12:41:41.324Z</time></trkpt><trkpt lat="43.181668" lon="12.9557609"><ele>450.0</ele><time>2026-04-25T12:41:42.341Z</time></trkpt><trkpt lat="43.181594" lon="12.9556504"><ele>457.75</ele><time>2026-04-25T12:41:43.33Z</time></trkpt><trkpt lat="43.1815099" lon="12.9555257"><ele>465.5</ele><time>2026-04-25T12:41:44.335Z</time></trkpt><trkpt lat="43.1814185" lon="12.9554104"><ele>473.25</ele><time>2026-04-25T12:41:45.334Z</time></trkpt><trkpt lat="43.1813163" lon="12.9553133"><ele>481.0</ele><time>2026-04-25T12:41:46.334Z</time></trkpt><trkpt lat="43.1812053" lon="12.9552345"><ele>481.0</ele><time>2026-04-25T12:41:47.336Z</time></trkpt><trkpt lat="43.1810943" lon="12.9551666"><ele>481.0</ele><time>2026-04-25T12:41:48.332Z</time></trkpt><trkpt lat="43.1809749" lon="12.9551079"><ele>481.0</ele><time>2026-04-25T12:41:49.335Z</time></trkpt><trkpt lat="43.1808433" lon="12.9550547"><ele>481.0</ele><time>2026-04-25T12:41:50.335Z</time></trkpt><trkpt lat="43.1807131" lon="12.9549934"><ele>479.0</ele><time>2026-04-25T12:41:51.331Z</time></trkpt><trkpt lat="43.1805909" lon="12.9549202"><ele>477.0</ele><time>2026-04-25T12:41:52.339Z</time></trkpt><trkpt lat="43.1804798" lon="12.9548431"><ele>475.0</ele><time>2026-04-25T12:41:53.332Z</time></trkpt><trkpt lat="43.1803774" lon="12.954762"><ele>473.0</ele><time>2026-04-25T12:41:54.326Z</time></trkpt><trkpt lat="43.1802801" lon="12.9546717"><ele>473.0</ele><time>2026-04-25T12:41:55.329Z</time></trkpt><trkpt lat="43.1801838" lon="12.9545751"><ele>473.0</ele><time>2026-04-25T12:41:56.331Z</time></trkpt><trkpt lat="43.1800913" lon="12.9544791"><ele>473.0</ele><time>2026-04-25T12:41:57.333Z</time></trkpt><trkpt lat="43.1800038" lon="12.9543673"><ele>473.0</ele><time>2026-04-25T12:41:58.333Z</time></trkpt><trkpt lat="43.1799221" lon="12.9542456"><ele>478.25</ele><time>2026-04-25T12:41:59.333Z</time></trkpt><trkpt lat="43.1798473" lon="12.9541132"><ele>483.5</ele><time>2026-04-25T12:42:00.324Z</time></trkpt><trkpt lat="43.1797744" lon="12.9539728"><ele>488.75</ele><time>2026-04-25T12:42:01.33Z</time></trkpt><trkpt lat="43.1797019" lon="12.9538338"><ele>494.0</ele><time>2026-04-25T12:42:02.331Z</time></trkpt><trkpt lat="43.1796257" lon="12.9536962"><ele>494.0</ele><time>2026-04-25T12:42:03.327Z</time></trkpt><trkpt lat="43.179552" lon="12.9535601"><ele>494.0</ele><time>2026-04-25T12:42:04.324Z</time></trkpt><trkpt lat="43.1794852" lon="12.9534252"><ele>494.0</ele><time>2026-04-25T12:42:05.329Z</time></trkpt><trkpt lat="43.1794116" lon="12.9532869"><ele>494.0</ele><time>2026-04-25T12:42:06.33Z</time></trkpt><trkpt lat="43.1793435" lon="12.9531419"><ele>486.75</ele><time>2026-04-25T12:42:07.331Z</time></trkpt><trkpt lat="43.1792837" lon="12.9529884"><ele>479.5</ele><time>2026-04-25T12:42:08.33Z</time></trkpt><trkpt lat="43.1792253" lon="12.9528251"><ele>472.25</ele><time>2026-04-25T12:42:09.332Z</time></trkpt><trkpt lat="43.1791658" lon="12.9526549"><ele>465.0</ele><time>2026-04-25T12:42:10.332Z</time></trkpt><trkpt lat="43.1791111" lon="12.9524765"><ele>461.5</ele><time>2026-04-25T12:42:11.33Z</time></trkpt><trkpt lat="43.179055" lon="12.9522978"><ele>458.0</ele><time>2026-04-25T12:42:12.33Z</time></trkpt><trkpt lat="43.1790013" lon="12.9521288"><ele>454.5</ele><time>2026-04-25T12:42:13.328Z</time></trkpt><trkpt lat="43.1789526" lon="12.9519759"><ele>451.0</ele><time>2026-04-25T12:42:14.33Z</time></trkpt><trkpt lat="43.1789042" lon="12.9518433"><ele>451.8</ele><time>2026-04-25T12:42:15.335Z</time></trkpt><trkpt lat="43.1788499" lon="12.9517324"><ele>452.6</ele><time>2026-04-25T12:42:16.329Z</time></trkpt><trkpt lat="43.1787808" lon="12.9516375"><ele>453.4</ele><time>2026-04-25T12:42:17.335Z</time></trkpt><trkpt lat="43.1786941" lon="12.9515645"><ele>454.2</ele><time>2026-04-25T12:42:18.331Z</time></trkpt><trkpt lat="43.1785973" lon="12.9515004"><ele>455.0</ele><time>2026-04-25T12:42:19.329Z</time></trkpt><trkpt lat="43.1784914" lon="12.9514491"><ele>455.0</ele><time>2026-04-25T12:42:20.333Z</time></trkpt><trkpt lat="43.1783826" lon="12.9514124"><ele>455.0</ele><time>2026-04-25T12:42:21.332Z</time></trkpt><trkpt lat="43.1782717" lon="12.9514081"><ele>455.0</ele><time>2026-04-25T12:42:22.335Z</time></trkpt><trkpt lat="43.1781482" lon="12.9514212"><ele>455.0</ele><time>2026-04-25T12:42:23.328Z</time></trkpt><trkpt lat="43.1780246" lon="12.9514358"><ele>455.8</ele><time>2026-04-25T12:42:24.334Z</time></trkpt><trkpt lat="43.1779134" lon="12.9514384"><ele>456.6</ele><time>2026-04-25T12:42:25.334Z</time></trkpt><trkpt lat="43.177812" lon="12.9514194"><ele>457.4</ele><time>2026-04-25T12:42:26.334Z</time></trkpt><trkpt lat="43.1777149" lon="12.9513738"><ele>458.2</ele><time>2026-04-25T12:42:27.325Z</time></trkpt><trkpt lat="43.1776234" lon="12.9513013"><ele>459.0</ele><time>2026-04-25T12:42:28.333Z</time></trkpt><trkpt lat="43.1775415" lon="12.9511961"><ele>459.0</ele><time>2026-04-25T12:42:29.33Z</time></trkpt><trkpt lat="43.1774621" lon="12.9510621"><ele>459.0</ele><time>2026-04-25T12:42:30.333Z</time></trkpt><trkpt lat="43.1773875" lon="12.9509105"><ele>459.0</ele><time>2026-04-25T12:42:31.334Z</time></trkpt><trkpt lat="43.1773092" lon="12.9507689"><ele>459.0</ele><time>2026-04-25T12:42:32.334Z</time></trkpt><trkpt lat="43.177224" lon="12.950651"><ele>457.75</ele><time>2026-04-25T12:42:33.323Z</time></trkpt><trkpt lat="43.1771274" lon="12.9505482"><ele>456.5</ele><time>2026-04-25T12:42:34.33Z</time></trkpt><trkpt lat="43.1770241" lon="12.9504499"><ele>455.25</ele><time>2026-04-25T12:42:35.321Z</time></trkpt><trkpt lat="43.1769269" lon="12.9503457"><ele>454.0</ele><time>2026-04-25T12:42:36.334Z</time></trkpt><trkpt lat="43.1768358" lon="12.9502248"><ele>454.0</ele><time>2026-04-25T12:42:37.333Z</time></trkpt><trkpt lat="43.1767503" lon="12.9500879"><ele>454.0</ele><time>2026-04-25T12:42:38.33Z</time></trkpt><trkpt lat="43.176671" lon="12.9499441"><ele>454.0</ele><time>2026-04-25T12:42:39.33Z</time></trkpt><trkpt lat="43.1765991" lon="12.949795"><ele>454.0</ele><time>2026-04-25T12:42:40.322Z</time></trkpt><trkpt lat="43.1765443" lon="12.9496475"><ele>454.1666666666667</ele><time>2026-04-25T12:42:41.332Z</time></trkpt><trkpt lat="43.1765149" lon="12.9494968"><ele>454.33333333333337</ele><time>2026-04-25T12:42:42.335Z</time></trkpt><trkpt lat="43.1765012" lon="12.9493563"><ele>454.5</ele><time>2026-04-25T12:42:43.332Z</time></trkpt><trkpt lat="43.1764909" lon="12.9492348"><ele>454.66666666666663</ele><time>2026-04-25T12:42:44.325Z</time></trkpt><trkpt lat="43.1764781" lon="12.9491427"><ele>454.8333333333333</ele><time>2026-04-25T12:42:45.325Z</time></trkpt><trkpt lat="43.1765093" lon="12.9490551"><ele>455.0</ele><time>2026-04-25T12:42:48.327Z</time></trkpt><trkpt lat="43.1766337" lon="12.949081"><ele>455.0</ele><time>2026-04-25T12:42:50.323Z</time></trkpt><trkpt lat="43.1767265" lon="12.9490999"><ele>455.0</ele><time>2026-04-25T12:42:51.327Z</time></trkpt><trkpt lat="43.1768491" lon="12.9491301"><ele>455.0</ele><time>2026-04-25T12:42:52.33Z</time></trkpt><trkpt lat="43.1769952" lon="12.9491635"><ele>455.0</ele><time>2026-04-25T12:42:53.328Z</time></trkpt><trkpt lat="43.1771513" lon="12.9491998"><ele>453.0</ele><time>2026-04-25T12:42:54.331Z</time></trkpt><trkpt lat="43.1773157" lon="12.9492375"><ele>451.0</ele><time>2026-04-25T12:42:55.329Z</time></trkpt><trkpt lat="43.1774818" lon="12.9492746"><ele>449.0</ele><time>2026-04-25T12:42:56.319Z</time></trkpt><trkpt lat="43.1776388" lon="12.9493082"><ele>448.0</ele><time>2026-04-25T12:42:57.33Z</time></trkpt><trkpt lat="43.1777809" lon="12.9493385"><ele>447.0</ele><time>2026-04-25T12:42:58.326Z</time></trkpt><trkpt lat="43.1779032" lon="12.9493533"><ele>446.0</ele><time>2026-04-25T12:42:59.323Z</time></trkpt><trkpt lat="43.1780071" lon="12.9493275"><ele>445.0</ele><time>2026-04-25T12:43:00.323Z</time></trkpt><trkpt lat="43.1780962" lon="12.9492558"><ele>446.75</ele><time>2026-04-25T12:43:01.315Z</time></trkpt><trkpt lat="43.1781744" lon="12.9491455"><ele>448.5</ele><time>2026-04-25T12:43:02.323Z</time></trkpt><trkpt lat="43.1782515" lon="12.9489959"><ele>450.25</ele><time>2026-04-25T12:43:03.327Z</time></trkpt><trkpt lat="43.1783372" lon="12.9488318"><ele>452.0</ele><time>2026-04-25T12:43:04.329Z</time></trkpt><trkpt lat="43.1784335" lon="12.9486583"><ele>452.0</ele><time>2026-04-25T12:43:05.323Z</time></trkpt><trkpt lat="43.1785365" lon="12.9484698"><ele>452.0</ele><time>2026-04-25T12:43:06.326Z</time></trkpt><trkpt lat="43.1786493" lon="12.9482779"><ele>452.0</ele><time>2026-04-25T12:43:07.331Z</time></trkpt><trkpt lat="43.1787616" lon="12.9480896"><ele>450.0</ele><time>2026-04-25T12:43:08.325Z</time></trkpt><trkpt lat="43.1788681" lon="12.9479122"><ele>448.0</ele><time>2026-04-25T12:43:09.322Z</time></trkpt><trkpt lat="43.1789678" lon="12.9477626"><ele>446.0</ele><time>2026-04-25T12:43:10.328Z</time></trkpt><trkpt lat="43.1790471" lon="12.947624"><ele>444.0</ele><time>2026-04-25T12:43:11.333Z</time></trkpt><trkpt lat="43.1791042" lon="12.9474752"><ele>443.75</ele><time>2026-04-25T12:43:12.324Z</time></trkpt><trkpt lat="43.1791449" lon="12.9472964"><ele>443.5</ele><time>2026-04-25T12:43:13.33Z</time></trkpt><trkpt lat="43.1791741" lon="12.947099"><ele>443.25</ele><time>2026-04-25T12:43:14.332Z</time></trkpt><trkpt lat="43.1792" lon="12.9468883"><ele>443.0</ele><time>2026-04-25T12:43:15.336Z</time></trkpt><trkpt lat="43.1792195" lon="12.9466724"><ele>444.5</ele><time>2026-04-25T12:43:16.326Z</time></trkpt><trkpt lat="43.1792366" lon="12.9464648"><ele>446.0</ele><time>2026-04-25T12:43:17.334Z</time></trkpt><trkpt lat="43.179265" lon="12.9462733"><ele>447.5</ele><time>2026-04-25T12:43:18.327Z</time></trkpt><trkpt lat="43.179318" lon="12.9460782"><ele>449.0</ele><time>2026-04-25T12:43:19.335Z</time></trkpt><trkpt lat="43.1793985" lon="12.9459012"><ele>451.0</ele><time>2026-04-25T12:43:20.329Z</time></trkpt><trkpt lat="43.1795074" lon="12.9457361"><ele>453.0</ele><time>2026-04-25T12:43:21.332Z</time></trkpt><trkpt lat="43.1796408" lon="12.9455734"><ele>455.0</ele><time>2026-04-25T12:43:22.326Z</time></trkpt><trkpt lat="43.1797744" lon="12.9454096"><ele>453.0</ele><time>2026-04-25T12:43:23.335Z</time></trkpt><trkpt lat="43.1798986" lon="12.9452276"><ele>451.0</ele><time>2026-04-25T12:43:24.336Z</time></trkpt><trkpt lat="43.1800128" lon="12.9450318"><ele>449.0</ele><time>2026-04-25T12:43:25.333Z</time></trkpt><trkpt lat="43.1801231" lon="12.9448341"><ele>449.0</ele><time>2026-04-25T12:43:26.334Z</time></trkpt><trkpt lat="43.1802412" lon="12.9446403"><ele>449.0</ele><time>2026-04-25T12:43:27.33Z</time></trkpt><trkpt lat="43.1803668" lon="12.9444574"><ele>449.0</ele><time>2026-04-25T12:43:28.333Z</time></trkpt><trkpt lat="43.1804929" lon="12.9442777"><ele>448.66666666666663</ele><time>2026-04-25T12:43:29.334Z</time></trkpt><trkpt lat="43.1806177" lon="12.9440951"><ele>448.33333333333337</ele><time>2026-04-25T12:43:30.322Z</time></trkpt><trkpt lat="43.1807418" lon="12.9439116"><ele>448.0</ele><time>2026-04-25T12:43:31.333Z</time></trkpt><trkpt lat="43.1808639" lon="12.9437256"><ele>448.0</ele><time>2026-04-25T12:43:32.331Z</time></trkpt><trkpt lat="43.1809864" lon="12.9435383"><ele>448.0</ele><time>2026-04-25T12:43:33.332Z</time></trkpt><trkpt lat="43.1811094" lon="12.943349"><ele>448.0</ele><time>2026-04-25T12:43:34.335Z</time></trkpt><trkpt lat="43.1812331" lon="12.9431608"><ele>447.33333333333337</ele><time>2026-04-25T12:43:35.335Z</time></trkpt><trkpt lat="43.181362" lon="12.9429752"><ele>446.66666666666663</ele><time>2026-04-25T12:43:36.33Z</time></trkpt><trkpt lat="43.1814943" lon="12.9427966"><ele>446.0</ele><time>2026-04-25T12:43:37.328Z</time></trkpt><trkpt lat="43.1816338" lon="12.9426202"><ele>448.0</ele><time>2026-04-25T12:43:38.325Z</time></trkpt><trkpt lat="43.1817727" lon="12.9424493"><ele>450.0</ele><time>2026-04-25T12:43:39.335Z</time></trkpt><trkpt lat="43.1818991" lon="12.9422904"><ele>452.0</ele><time>2026-04-25T12:43:40.328Z</time></trkpt><trkpt lat="43.1820164" lon="12.9421401"><ele>452.0</ele><time>2026-04-25T12:43:41.334Z</time></trkpt><trkpt lat="43.1821267" lon="12.9419981"><ele>452.0</ele><time>2026-04-25T12:43:42.338Z</time></trkpt><trkpt lat="43.1822335" lon="12.9418655"><ele>452.0</ele><time>2026-04-25T12:43:43.336Z</time></trkpt><trkpt lat="43.1823416" lon="12.9417482"><ele>452.0</ele><time>2026-04-25T12:43:44.334Z</time></trkpt><trkpt lat="43.1824587" lon="12.9416379"><ele>451.5</ele><time>2026-04-25T12:43:45.338Z</time></trkpt><trkpt lat="43.1825843" lon="12.9415368"><ele>451.0</ele><time>2026-04-25T12:43:46.335Z</time></trkpt><trkpt lat="43.1827098" lon="12.9414447"><ele>450.5</ele><time>2026-04-25T12:43:47.331Z</time></trkpt><trkpt lat="43.1828286" lon="12.9413613"><ele>450.0</ele><time>2026-04-25T12:43:48.333Z</time></trkpt><trkpt lat="43.1829376" lon="12.9412888"><ele>450.0</ele><time>2026-04-25T12:43:49.33Z</time></trkpt><trkpt lat="43.1830367" lon="12.9412295"><ele>450.0</ele><time>2026-04-25T12:43:50.326Z</time></trkpt><trkpt lat="43.1831224" lon="12.9411847"><ele>450.0</ele><time>2026-04-25T12:43:51.33Z</time></trkpt><trkpt lat="43.1831856" lon="12.9411547"><ele>450.0</ele><time>2026-04-25T12:43:52.337Z</time></trkpt><trkpt lat="43.1832439" lon="12.9410894"><ele>450.0</ele><time>2026-04-25T12:43:54.333Z</time></trkpt><trkpt lat="43.1831767" lon="12.941013"><ele>450.0</ele><time>2026-04-25T12:43:57.333Z</time></trkpt><trkpt lat="43.1831079" lon="12.9410123"><ele>450.0</ele><time>2026-04-25T12:43:58.327Z</time></trkpt><trkpt lat="43.1830292" lon="12.9410056"><ele>450.0</ele><time>2026-04-25T12:43:59.332Z</time></trkpt><trkpt lat="43.1829521" lon="12.9409904"><ele>450.0</ele><time>2026-04-25T12:44:00.327Z</time></trkpt><trkpt lat="43.1828788" lon="12.9409837"><ele>450.0</ele><time>2026-04-25T12:44:01.333Z</time></trkpt><trkpt lat="43.1827977" lon="12.9409862"><ele>450.0</ele><time>2026-04-25T12:44:02.339Z</time></trkpt><trkpt lat="43.1827064" lon="12.9409965"><ele>450.0</ele><time>2026-04-25T12:44:03.326Z</time></trkpt><trkpt lat="43.182608" lon="12.9410208"><ele>450.0</ele><time>2026-04-25T12:44:04.331Z</time></trkpt><trkpt lat="43.1825197" lon="12.9410668"><ele>450.0</ele><time>2026-04-25T12:44:05.33Z</time></trkpt><trkpt lat="43.1824458" lon="12.941118"><ele>450.0</ele><time>2026-04-25T12:44:06.33Z</time></trkpt><trkpt lat="43.182379" lon="12.9411658"><ele>450.0</ele><time>2026-04-25T12:44:07.325Z</time></trkpt><trkpt lat="43.1823034" lon="12.941197"><ele>450.0</ele><time>2026-04-25T12:44:08.328Z</time></trkpt><trkpt lat="43.1822093" lon="12.9412076"><ele>450.0</ele><time>2026-04-25T12:44:09.325Z</time></trkpt><trkpt lat="43.1821012" lon="12.9412121"><ele>452.5</ele><time>2026-04-25T12:44:10.319Z</time></trkpt><trkpt lat="43.181988" lon="12.9412118"><ele>455.0</ele><time>2026-04-25T12:44:11.328Z</time></trkpt><trkpt lat="43.1818735" lon="12.9412117"><ele>457.5</ele><time>2026-04-25T12:44:12.335Z</time></trkpt><trkpt lat="43.1817569" lon="12.9412181"><ele>460.0</ele><time>2026-04-25T12:44:13.332Z</time></trkpt><trkpt lat="43.1816377" lon="12.9412363"><ele>460.0</ele><time>2026-04-25T12:44:14.328Z</time></trkpt><trkpt lat="43.1815195" lon="12.9412642"><ele>460.0</ele><time>2026-04-25T12:44:15.327Z</time></trkpt><trkpt lat="43.1814003" lon="12.9413044"><ele>460.0</ele><time>2026-04-25T12:44:16.333Z</time></trkpt><trkpt lat="43.1812884" lon="12.9413599"><ele>460.0</ele><time>2026-04-25T12:44:17.335Z</time></trkpt><trkpt lat="43.1811912" lon="12.9414198"><ele>461.50000000000006</ele><time>2026-04-25T12:44:18.337Z</time></trkpt><trkpt lat="43.1811069" lon="12.9414708"><ele>463.0</ele><time>2026-04-25T12:44:19.335Z</time></trkpt><trkpt lat="43.1810357" lon="12.9415166"><ele>464.5</ele><time>2026-04-25T12:44:20.331Z</time></trkpt><trkpt lat="43.1809372" lon="12.9415093"><ele>466.0</ele><time>2026-04-25T12:44:22.339Z</time></trkpt><trkpt lat="43.1808847" lon="12.9413984"><ele>467.50000000000006</ele><time>2026-04-25T12:44:24.321Z</time></trkpt><trkpt lat="43.180879" lon="12.9413111"><ele>469.0</ele><time>2026-04-25T12:44:25.322Z</time></trkpt><trkpt lat="43.1808911" lon="12.9411999"><ele>469.0</ele><time>2026-04-25T12:44:26.333Z</time></trkpt><trkpt lat="43.1809171" lon="12.9410804"><ele>469.0</ele><time>2026-04-25T12:44:27.331Z</time></trkpt><trkpt lat="43.1809432" lon="12.9409553"><ele>469.0</ele><time>2026-04-25T12:44:28.331Z</time></trkpt><trkpt lat="43.1809645" lon="12.9408271"><ele>469.0</ele><time>2026-04-25T12:44:29.322Z</time></trkpt><trkpt lat="43.1809797" lon="12.9407001"><ele>469.0</ele><time>2026-04-25T12:44:30.328Z</time></trkpt><trkpt lat="43.1809841" lon="12.9405693"><ele>466.2</ele><time>2026-04-25T12:44:31.335Z</time></trkpt><trkpt lat="43.1809859" lon="12.9404332"><ele>463.4</ele><time>2026-04-25T12:44:32.331Z</time></trkpt><trkpt lat="43.1809864" lon="12.9402947"><ele>460.6</ele><time>2026-04-25T12:44:33.325Z</time></trkpt><trkpt lat="43.1809868" lon="12.9401529"><ele>457.8</ele><time>2026-04-25T12:44:34.319Z</time></trkpt><trkpt lat="43.1809954" lon="12.9400174"><ele>455.0</ele><time>2026-04-25T12:44:35.332Z</time></trkpt><trkpt lat="43.1810165" lon="12.9398909"><ele>453.8</ele><time>2026-04-25T12:44:36.33Z</time></trkpt><trkpt lat="43.1810544" lon="12.9397721"><ele>452.6</ele><time>2026-04-25T12:44:37.324Z</time></trkpt><trkpt lat="43.1811098" lon="12.9396527"><ele>451.4</ele><time>2026-04-25T12:44:38.329Z</time></trkpt><trkpt lat="43.1811815" lon="12.9395436"><ele>450.2</ele><time>2026-04-25T12:44:39.324Z</time></trkpt><trkpt lat="43.1812679" lon="12.9394369"><ele>449.0</ele><time>2026-04-25T12:44:40.321Z</time></trkpt><trkpt lat="43.1813549" lon="12.9393149"><ele>449.0</ele><time>2026-04-25T12:44:41.335Z</time></trkpt><trkpt lat="43.1814344" lon="12.9391754"><ele>449.0</ele><time>2026-04-25T12:44:42.333Z</time></trkpt><trkpt lat="43.1815051" lon="12.9390252"><ele>449.0</ele><time>2026-04-25T12:44:43.333Z</time></trkpt><trkpt lat="43.181571" lon="12.9388813"><ele>449.0</ele><time>2026-04-25T12:44:44.336Z</time></trkpt><trkpt lat="43.1816421" lon="12.9387585"><ele>449.0</ele><time>2026-04-25T12:44:45.325Z</time></trkpt><trkpt lat="43.1817274" lon="12.9386438"><ele>449.0</ele><time>2026-04-25T12:44:46.322Z</time></trkpt><trkpt lat="43.1818234" lon="12.9385355"><ele>449.0</ele><time>2026-04-25T12:44:47.322Z</time></trkpt><trkpt lat="43.1819256" lon="12.9384352"><ele>449.0</ele><time>2026-04-25T12:44:48.327Z</time></trkpt><trkpt lat="43.182022" lon="12.9383399"><ele>451.4</ele><time>2026-04-25T12:44:49.332Z</time></trkpt><trkpt lat="43.1821113" lon="12.9382484"><ele>453.79999999999995</ele><time>2026-04-25T12:44:50.333Z</time></trkpt><trkpt lat="43.1821943" lon="12.9381571"><ele>456.20000000000005</ele><time>2026-04-25T12:44:51.333Z</time></trkpt><trkpt lat="43.1822631" lon="12.9380643"><ele>458.6</ele><time>2026-04-25T12:44:52.322Z</time></trkpt><trkpt lat="43.182314" lon="12.9379637"><ele>461.0</ele><time>2026-04-25T12:44:53.325Z</time></trkpt><trkpt lat="43.1823464" lon="12.9378509"><ele>461.0</ele><time>2026-04-25T12:44:54.323Z</time></trkpt><trkpt lat="43.1823513" lon="12.937716"><ele>461.0</ele><time>2026-04-25T12:44:55.333Z</time></trkpt><trkpt lat="43.1823412" lon="12.9375723"><ele>461.0</ele><time>2026-04-25T12:44:56.334Z</time></trkpt><trkpt lat="43.1823228" lon="12.9374174"><ele>461.0</ele><time>2026-04-25T12:44:57.332Z</time></trkpt><trkpt lat="43.1822994" lon="12.9372596"><ele>461.0</ele><time>2026-04-25T12:44:58.321Z</time></trkpt><trkpt lat="43.1822758" lon="12.9371067"><ele>464.4</ele><time>2026-04-25T12:44:59.32Z</time></trkpt><trkpt lat="43.1822635" lon="12.9369695"><ele>467.8</ele><time>2026-04-25T12:45:00.322Z</time></trkpt><trkpt lat="43.1822615" lon="12.9368459"><ele>471.19999999999993</ele><time>2026-04-25T12:45:01.332Z</time></trkpt><trkpt lat="43.1822681" lon="12.9367253"><ele>474.59999999999997</ele><time>2026-04-25T12:45:02.333Z</time></trkpt><trkpt lat="43.1822933" lon="12.9366053"><ele>478.0</ele><time>2026-04-25T12:45:03.323Z</time></trkpt><trkpt lat="43.1823381" lon="12.9364862"><ele>473.0</ele><time>2026-04-25T12:45:04.322Z</time></trkpt><trkpt lat="43.1823898" lon="12.9363662"><ele>467.99999999999994</ele><time>2026-04-25T12:45:05.324Z</time></trkpt><trkpt lat="43.182447" lon="12.9362466"><ele>462.99999999999994</ele><time>2026-04-25T12:45:06.327Z</time></trkpt><trkpt lat="43.182512" lon="12.9361338"><ele>458.0</ele><time>2026-04-25T12:45:07.324Z</time></trkpt><trkpt lat="43.1825839" lon="12.9360316"><ele>453.0</ele><time>2026-04-25T12:45:08.333Z</time></trkpt><trkpt lat="43.1826548" lon="12.9359321"><ele>455.6666666666667</ele><time>2026-04-25T12:45:09.333Z</time></trkpt><trkpt lat="43.1827204" lon="12.9358339"><ele>458.33333333333337</ele><time>2026-04-25T12:45:10.335Z</time></trkpt><trkpt lat="43.1827752" lon="12.9357379"><ele>461.0</ele><time>2026-04-25T12:45:11.33Z</time></trkpt><trkpt lat="43.1828259" lon="12.9356455"><ele>463.6666666666667</ele><time>2026-04-25T12:45:12.337Z</time></trkpt><trkpt lat="43.1828817" lon="12.9355605"><ele>466.33333333333337</ele><time>2026-04-25T12:45:13.334Z</time></trkpt><trkpt lat="43.1829424" lon="12.9354811"><ele>469.0</ele><time>2026-04-25T12:45:14.337Z</time></trkpt><trkpt lat="43.1830081" lon="12.9353887"><ele>469.00000000000006</ele><time>2026-04-25T12:45:15.338Z</time></trkpt><trkpt lat="43.1830645" lon="12.9352937"><ele>469.0</ele><time>2026-04-25T12:45:16.324Z</time></trkpt><trkpt lat="43.1831034" lon="12.9351867"><ele>469.0</ele><time>2026-04-25T12:45:17.334Z</time></trkpt><trkpt lat="43.1831294" lon="12.9350715"><ele>469.0</ele><time>2026-04-25T12:45:18.316Z</time></trkpt><trkpt lat="43.1831527" lon="12.9349548"><ele>469.00000000000006</ele><time>2026-04-25T12:45:19.33Z</time></trkpt><trkpt lat="43.1831775" lon="12.9348444"><ele>469.0</ele><time>2026-04-25T12:45:20.331Z</time></trkpt><trkpt lat="43.1831961" lon="12.9347338"><ele>469.42857142857144</ele><time>2026-04-25T12:45:21.334Z</time></trkpt><trkpt lat="43.1832051" lon="12.9346261"><ele>469.8571428571429</ele><time>2026-04-25T12:45:22.333Z</time></trkpt><trkpt lat="43.1832035" lon="12.9345248"><ele>470.2857142857143</ele><time>2026-04-25T12:45:23.332Z</time></trkpt><trkpt lat="43.1831844" lon="12.9344314"><ele>470.7142857142857</ele><time>2026-04-25T12:45:24.322Z</time></trkpt><trkpt lat="43.1831464" lon="12.9343486"><ele>471.14285714285717</ele><time>2026-04-25T12:45:25.322Z</time></trkpt><trkpt lat="43.183096" lon="12.9342846"><ele>471.57142857142856</ele><time>2026-04-25T12:45:26.325Z</time></trkpt><trkpt lat="43.1830406" lon="12.9342312"><ele>472.0</ele><time>2026-04-25T12:45:27.33Z</time></trkpt><trkpt lat="43.1829656" lon="12.9341387"><ele>470.0</ele><time>2026-04-25T12:45:29.32Z</time></trkpt><trkpt lat="43.18292" lon="12.934062"><ele>468.00000000000006</ele><time>2026-04-25T12:45:31.329Z</time></trkpt><trkpt lat="43.1828585" lon="12.9339026"><ele>466.00000000000006</ele><time>2026-04-25T12:45:33.327Z</time></trkpt><trkpt lat="43.1828256" lon="12.9338026"><ele>464.0</ele><time>2026-04-25T12:45:34.32Z</time></trkpt><trkpt lat="43.1827924" lon="12.9336919"><ele>462.0</ele><time>2026-04-25T12:45:35.324Z</time></trkpt><trkpt lat="43.1827634" lon="12.9335711"><ele>462.0</ele><time>2026-04-25T12:45:36.322Z</time></trkpt><trkpt lat="43.1827398" lon="12.9334445"><ele>462.00000000000006</ele><time>2026-04-25T12:45:37.331Z</time></trkpt><trkpt lat="43.1827257" lon="12.933311"><ele>462.00000000000006</ele><time>2026-04-25T12:45:38.32Z</time></trkpt><trkpt lat="43.1827197" lon="12.9331673"><ele>462.0</ele><time>2026-04-25T12:45:39.332Z</time></trkpt><trkpt lat="43.1827167" lon="12.933018"><ele>462.0</ele><time>2026-04-25T12:45:40.325Z</time></trkpt><trkpt lat="43.1827107" lon="12.9328681"><ele>461.6</ele><time>2026-04-25T12:45:41.329Z</time></trkpt><trkpt lat="43.1826973" lon="12.9327192"><ele>461.20000000000005</ele><time>2026-04-25T12:45:42.321Z</time></trkpt><trkpt lat="43.1826809" lon="12.9325696"><ele>460.8</ele><time>2026-04-25T12:45:43.333Z</time></trkpt><trkpt lat="43.1826775" lon="12.9324307"><ele>460.4</ele><time>2026-04-25T12:45:44.326Z</time></trkpt><trkpt lat="43.1826903" lon="12.9323015"><ele>460.0</ele><time>2026-04-25T12:45:45.333Z</time></trkpt><trkpt lat="43.1827243" lon="12.9321833"><ele>460.0</ele><time>2026-04-25T12:45:46.325Z</time></trkpt><trkpt lat="43.1827736" lon="12.9320701"><ele>460.0</ele><time>2026-04-25T12:45:47.332Z</time></trkpt><trkpt lat="43.182827" lon="12.9319599"><ele>460.0</ele><time>2026-04-25T12:45:48.323Z</time></trkpt><trkpt lat="43.1828786" lon="12.9318512"><ele>460.0</ele><time>2026-04-25T12:45:49.323Z</time></trkpt><trkpt lat="43.1829217" lon="12.9317342"><ele>460.0</ele><time>2026-04-25T12:45:50.328Z</time></trkpt><trkpt lat="43.1829561" lon="12.9316187"><ele>462.0</ele><time>2026-04-25T12:45:51.329Z</time></trkpt><trkpt lat="43.1829834" lon="12.9315065"><ele>464.0</ele><time>2026-04-25T12:45:52.335Z</time></trkpt><trkpt lat="43.1830104" lon="12.9313845"><ele>466.0</ele><time>2026-04-25T12:45:53.332Z</time></trkpt><trkpt lat="43.1830381" lon="12.9312553"><ele>468.0</ele><time>2026-04-25T12:45:54.323Z</time></trkpt><trkpt lat="43.1830625" lon="12.9311238"><ele>470.0</ele><time>2026-04-25T12:45:55.333Z</time></trkpt><trkpt lat="43.1830809" lon="12.9309955"><ele>470.16666666666663</ele><time>2026-04-25T12:45:56.334Z</time></trkpt><trkpt lat="43.1830916" lon="12.9308723"><ele>470.3333333333333</ele><time>2026-04-25T12:45:57.324Z</time></trkpt><trkpt lat="43.1830972" lon="12.9307579"><ele>470.5</ele><time>2026-04-25T12:45:58.333Z</time></trkpt><trkpt lat="43.1830942" lon="12.9306531"><ele>470.66666666666663</ele><time>2026-04-25T12:45:59.321Z</time></trkpt><trkpt lat="43.1830799" lon="12.9305541"><ele>470.8333333333333</ele><time>2026-04-25T12:46:00.33Z</time></trkpt><trkpt lat="43.1830505" lon="12.9304658"><ele>471.0</ele><time>2026-04-25T12:46:01.322Z</time></trkpt><trkpt lat="43.183013" lon="12.9303934"><ele>471.0</ele><time>2026-04-25T12:46:02.33Z</time></trkpt><trkpt lat="43.1829118" lon="12.9302898"><ele>471.0</ele><time>2026-04-25T12:46:04.319Z</time></trkpt><trkpt lat="43.1828507" lon="12.9302302"><ele>471.0</ele><time>2026-04-25T12:46:05.327Z</time></trkpt><trkpt lat="43.1827856" lon="12.930173"><ele>471.0</ele><time>2026-04-25T12:46:06.326Z</time></trkpt><trkpt lat="43.1827129" lon="12.9301121"><ele>471.0</ele><time>2026-04-25T12:46:07.327Z</time></trkpt><trkpt lat="43.1826347" lon="12.9300451"><ele>468.8</ele><time>2026-04-25T12:46:08.329Z</time></trkpt><trkpt lat="43.1825661" lon="12.9299644"><ele>466.6</ele><time>2026-04-25T12:46:09.325Z</time></trkpt><trkpt lat="43.1825051" lon="12.9298646"><ele>464.4</ele><time>2026-04-25T12:46:10.33Z</time></trkpt><trkpt lat="43.1824515" lon="12.9297529"><ele>462.2</ele><time>2026-04-25T12:46:11.328Z</time></trkpt><trkpt lat="43.1824045" lon="12.9296379"><ele>460.0</ele><time>2026-04-25T12:46:12.331Z</time></trkpt><trkpt lat="43.1823668" lon="12.9295203"><ele>460.00000000000006</ele><time>2026-04-25T12:46:13.322Z</time></trkpt><trkpt lat="43.1823491" lon="12.9294041"><ele>460.0</ele><time>2026-04-25T12:46:14.333Z</time></trkpt><trkpt lat="43.1823556" lon="12.9292899"><ele>460.0</ele><time>2026-04-25T12:46:15.325Z</time></trkpt><trkpt lat="43.1823791" lon="12.9291749"><ele>460.0</ele><time>2026-04-25T12:46:16.326Z</time></trkpt><trkpt lat="43.1824129" lon="12.9290652"><ele>460.00000000000006</ele><time>2026-04-25T12:46:17.331Z</time></trkpt><trkpt lat="43.1824413" lon="12.9289595"><ele>460.0</ele><time>2026-04-25T12:46:18.329Z</time></trkpt><trkpt lat="43.1824584" lon="12.9288563"><ele>459.6666666666667</ele><time>2026-04-25T12:46:19.33Z</time></trkpt><trkpt lat="43.1824632" lon="12.9287466"><ele>459.33333333333337</ele><time>2026-04-25T12:46:20.323Z</time></trkpt><trkpt lat="43.1824546" lon="12.9286331"><ele>459.0</ele><time>2026-04-25T12:46:21.322Z</time></trkpt><trkpt lat="43.182431" lon="12.9285187"><ele>458.66666666666663</ele><time>2026-04-25T12:46:22.333Z</time></trkpt><trkpt lat="43.1824029" lon="12.928406"><ele>458.3333333333333</ele><time>2026-04-25T12:46:23.327Z</time></trkpt><trkpt lat="43.1823695" lon="12.9282965"><ele>458.0</ele><time>2026-04-25T12:46:24.329Z</time></trkpt><trkpt lat="43.1823339" lon="12.9281853"><ele>467.59999999999997</ele><time>2026-04-25T12:46:25.322Z</time></trkpt><trkpt lat="43.1823005" lon="12.9280645"><ele>477.19999999999993</ele><time>2026-04-25T12:46:26.325Z</time></trkpt><trkpt lat="43.1822734" lon="12.9279301"><ele>486.8</ele><time>2026-04-25T12:46:27.323Z</time></trkpt><trkpt lat="43.1822557" lon="12.9277879"><ele>496.4</ele><time>2026-04-25T12:46:28.32Z</time></trkpt><trkpt lat="43.1822431" lon="12.927639"><ele>506.0</ele><time>2026-04-25T12:46:29.328Z</time></trkpt><trkpt lat="43.1822245" lon="12.9274874"><ele>506.0</ele><time>2026-04-25T12:46:30.319Z</time></trkpt><trkpt lat="43.1822" lon="12.9273367"><ele>506.0</ele><time>2026-04-25T12:46:31.326Z</time></trkpt><trkpt lat="43.1821751" lon="12.9271863"><ele>506.0</ele><time>2026-04-25T12:46:32.327Z</time></trkpt><trkpt lat="43.1821503" lon="12.9270345"><ele>506.0</ele><time>2026-04-25T12:46:33.325Z</time></trkpt><trkpt lat="43.182123" lon="12.9268809"><ele>506.0</ele><time>2026-04-25T12:46:34.316Z</time></trkpt><trkpt lat="43.1821002" lon="12.9267316"><ele>506.0</ele><time>2026-04-25T12:46:35.325Z</time></trkpt><trkpt lat="43.182081" lon="12.9265828"><ele>506.0</ele><time>2026-04-25T12:46:36.32Z</time></trkpt><trkpt lat="43.1820603" lon="12.926435"><ele>506.0</ele><time>2026-04-25T12:46:37.325Z</time></trkpt><trkpt lat="43.1820393" lon="12.9262908"><ele>506.0</ele><time>2026-04-25T12:46:38.327Z</time></trkpt><trkpt lat="43.1820198" lon="12.9261476"><ele>504.0</ele><time>2026-04-25T12:46:39.316Z</time></trkpt><trkpt lat="43.1820009" lon="12.9259985"><ele>502.0</ele><time>2026-04-25T12:46:40.321Z</time></trkpt><trkpt lat="43.1819803" lon="12.9258438"><ele>500.0</ele><time>2026-04-25T12:46:41.332Z</time></trkpt><trkpt lat="43.1819608" lon="12.9256881"><ele>498.0</ele><time>2026-04-25T12:46:42.333Z</time></trkpt><trkpt lat="43.18195" lon="12.9255304"><ele>495.4</ele><time>2026-04-25T12:46:43.328Z</time></trkpt><trkpt lat="43.181954" lon="12.9253775"><ele>492.79999999999995</ele><time>2026-04-25T12:46:44.323Z</time></trkpt><trkpt lat="43.1819703" lon="12.9252359"><ele>490.2</ele><time>2026-04-25T12:46:45.318Z</time></trkpt><trkpt lat="43.1819867" lon="12.9251067"><ele>487.6</ele><time>2026-04-25T12:46:46.319Z</time></trkpt><trkpt lat="43.1819993" lon="12.9249823"><ele>485.0</ele><time>2026-04-25T12:46:47.33Z</time></trkpt><trkpt lat="43.1820006" lon="12.9248504"><ele>483.2</ele><time>2026-04-25T12:46:48.324Z</time></trkpt><trkpt lat="43.1819899" lon="12.9247033"><ele>481.4</ele><time>2026-04-25T12:46:49.324Z</time></trkpt><trkpt lat="43.1819755" lon="12.9245451"><ele>479.6</ele><time>2026-04-25T12:46:50.325Z</time></trkpt><trkpt lat="43.1819658" lon="12.9243881"><ele>477.8</ele><time>2026-04-25T12:46:51.329Z</time></trkpt><trkpt lat="43.1819641" lon="12.9242548"><ele>476.0</ele><time>2026-04-25T12:46:52.339Z</time></trkpt><trkpt lat="43.1819677" lon="12.9241489"><ele>473.0</ele><time>2026-04-25T12:46:53.331Z</time></trkpt><trkpt lat="43.181976" lon="12.9240233"><ele>470.0</ele><time>2026-04-25T12:46:55.33Z</time></trkpt><trkpt lat="43.1818967" lon="12.9239353"><ele>467.0</ele><time>2026-04-25T12:47:01.322Z</time></trkpt><trkpt lat="43.1818225" lon="12.923906"><ele>464.0</ele><time>2026-04-25T12:47:02.329Z</time></trkpt><trkpt lat="43.1817273" lon="12.9238709"><ele>461.0</ele><time>2026-04-25T12:47:03.323Z</time></trkpt><trkpt lat="43.1816104" lon="12.9238397"><ele>463.25</ele><time>2026-04-25T12:47:04.322Z</time></trkpt><trkpt lat="43.1814879" lon="12.9238013"><ele>465.5</ele><time>2026-04-25T12:47:05.325Z</time></trkpt><trkpt lat="43.1813668" lon="12.92377"><ele>467.75</ele><time>2026-04-25T12:47:06.317Z</time></trkpt><trkpt lat="43.1812453" lon="12.9237463"><ele>470.0</ele><time>2026-04-25T12:47:07.33Z</time></trkpt><trkpt lat="43.1811228" lon="12.9237221"><ele>470.0</ele><time>2026-04-25T12:47:08.324Z</time></trkpt><trkpt lat="43.1809903" lon="12.9236906"><ele>470.0</ele><time>2026-04-25T12:47:09.331Z</time></trkpt><trkpt lat="43.1808583" lon="12.9236622"><ele>470.0</ele><time>2026-04-25T12:47:10.33Z</time></trkpt><trkpt lat="43.180733" lon="12.9236322"><ele>470.0</ele><time>2026-04-25T12:47:11.337Z</time></trkpt><trkpt lat="43.1806128" lon="12.9236016"><ele>470.8</ele><time>2026-04-25T12:47:12.32Z</time></trkpt><trkpt lat="43.1804942" lon="12.9235812"><ele>471.6</ele><time>2026-04-25T12:47:13.324Z</time></trkpt><trkpt lat="43.1803823" lon="12.9235638"><ele>472.4</ele><time>2026-04-25T12:47:14.333Z</time></trkpt><trkpt lat="43.1802765" lon="12.923559"><ele>473.2</ele><time>2026-04-25T12:47:15.334Z</time></trkpt><trkpt lat="43.1801739" lon="12.9235676"><ele>474.0</ele><time>2026-04-25T12:47:16.327Z</time></trkpt><trkpt lat="43.1800777" lon="12.9235878"><ele>474.0</ele><time>2026-04-25T12:47:17.32Z</time></trkpt><trkpt lat="43.1799854" lon="12.9236137"><ele>474.0</ele><time>2026-04-25T12:47:18.328Z</time></trkpt><trkpt lat="43.1799048" lon="12.923635"><ele>474.0</ele><time>2026-04-25T12:47:19.326Z</time></trkpt><trkpt lat="43.1798034" lon="12.9236768"><ele>474.0</ele><time>2026-04-25T12:47:21.332Z</time></trkpt><trkpt lat="43.1797134" lon="12.9235866"><ele>474.0</ele><time>2026-04-25T12:47:23.326Z</time></trkpt><trkpt lat="43.1796318" lon="12.9234693"><ele>472.75</ele><time>2026-04-25T12:47:24.319Z</time></trkpt><trkpt lat="43.1795419" lon="12.9233456"><ele>471.5</ele><time>2026-04-25T12:47:25.329Z</time></trkpt><trkpt lat="43.1794587" lon="12.9232392"><ele>470.25</ele><time>2026-04-25T12:47:26.328Z</time></trkpt><trkpt lat="43.1793725" lon="12.9231431"><ele>469.0</ele><time>2026-04-25T12:47:27.324Z</time></trkpt><trkpt lat="43.1792869" lon="12.9230462"><ele>469.0</ele><time>2026-04-25T12:47:28.325Z</time></trkpt><trkpt lat="43.1792131" lon="12.9229411"><ele>469.0</ele><time>2026-04-25T12:47:29.322Z</time></trkpt><trkpt lat="43.1791541" lon="12.9228269"><ele>469.0</ele><time>2026-04-25T12:47:30.328Z</time></trkpt><trkpt lat="43.1791143" lon="12.9226999"><ele>469.0</ele><time>2026-04-25T12:47:31.325Z</time></trkpt><trkpt lat="43.1790895" lon="12.922559"><ele>469.0</ele><time>2026-04-25T12:47:32.328Z</time></trkpt><trkpt lat="43.1790747" lon="12.9224153"><ele>468.83333333333337</ele><time>2026-04-25T12:47:33.323Z</time></trkpt><trkpt lat="43.1790628" lon="12.9222865"><ele>468.6666666666667</ele><time>2026-04-25T12:47:34.319Z</time></trkpt><trkpt lat="43.1790525" lon="12.9221856"><ele>468.5</ele><time>2026-04-25T12:47:35.331Z</time></trkpt><trkpt lat="43.1790105" lon="12.9220631"><ele>468.33333333333337</ele><time>2026-04-25T12:47:37.332Z</time></trkpt><trkpt lat="43.1789159" lon="12.9220234"><ele>468.1666666666667</ele><time>2026-04-25T12:47:39.329Z</time></trkpt><trkpt lat="43.1788468" lon="12.9220165"><ele>468.0</ele><time>2026-04-25T12:47:40.32Z</time></trkpt><trkpt lat="43.1787666" lon="12.9220188"><ele>468.0</ele><time>2026-04-25T12:47:41.322Z</time></trkpt><trkpt lat="43.1786753" lon="12.9220186"><ele>467.99999999999994</ele><time>2026-04-25T12:47:42.325Z</time></trkpt><trkpt lat="43.1785763" lon="12.9220213"><ele>467.99999999999994</ele><time>2026-04-25T12:47:43.331Z</time></trkpt><trkpt lat="43.1784707" lon="12.9220281"><ele>468.0</ele><time>2026-04-25T12:47:44.329Z</time></trkpt><trkpt lat="43.1783584" lon="12.9220409"><ele>468.0</ele><time>2026-04-25T12:47:45.33Z</time></trkpt><trkpt lat="43.1782417" lon="12.9220611"><ele>471.4</ele><time>2026-04-25T12:47:46.329Z</time></trkpt><trkpt lat="43.1781342" lon="12.9220779"><ele>474.79999999999995</ele><time>2026-04-25T12:47:47.329Z</time></trkpt><trkpt lat="43.1780274" lon="12.9220803"><ele>478.2</ele><time>2026-04-25T12:47:48.329Z</time></trkpt><trkpt lat="43.1779178" lon="12.9220711"><ele>481.6</ele><time>2026-04-25T12:47:49.329Z</time></trkpt><trkpt lat="43.1778068" lon="12.922045"><ele>485.0</ele><time>2026-04-25T12:47:50.328Z</time></trkpt><trkpt lat="43.1776917" lon="12.9219987"><ele>485.0</ele><time>2026-04-25T12:47:51.328Z</time></trkpt><trkpt lat="43.17757" lon="12.9219353"><ele>485.0</ele><time>2026-04-25T12:47:52.322Z</time></trkpt><trkpt lat="43.1774415" lon="12.921858"><ele>485.0</ele><time>2026-04-25T12:47:53.319Z</time></trkpt><trkpt lat="43.1773077" lon="12.921784"><ele>485.0</ele><time>2026-04-25T12:47:54.323Z</time></trkpt><trkpt lat="43.1771772" lon="12.9217058"><ele>483.75</ele><time>2026-04-25T12:47:55.328Z</time></trkpt><trkpt lat="43.1770525" lon="12.9216334"><ele>482.5</ele><time>2026-04-25T12:47:56.32Z</time></trkpt><trkpt lat="43.1769311" lon="12.921571"><ele>481.25</ele><time>2026-04-25T12:47:57.329Z</time></trkpt><trkpt lat="43.1768096" lon="12.9215167"><ele>480.0</ele><time>2026-04-25T12:47:58.319Z</time></trkpt><trkpt lat="43.1766915" lon="12.9214816"><ele>480.0</ele><time>2026-04-25T12:47:59.326Z</time></trkpt><trkpt lat="43.1765727" lon="12.9214677"><ele>480.0</ele><time>2026-04-25T12:48:00.325Z</time></trkpt><trkpt lat="43.1764498" lon="12.9214628"><ele>480.0</ele><time>2026-04-25T12:48:01.325Z</time></trkpt><trkpt lat="43.1763311" lon="12.9214606"><ele>480.0</ele><time>2026-04-25T12:48:02.331Z</time></trkpt><trkpt lat="43.1762183" lon="12.9214525"><ele>481.6</ele><time>2026-04-25T12:48:03.327Z</time></trkpt><trkpt lat="43.1761072" lon="12.9214366"><ele>483.2</ele><time>2026-04-25T12:48:04.325Z</time></trkpt><trkpt lat="43.1759965" lon="12.9214259"><ele>484.79999999999995</ele><time>2026-04-25T12:48:05.322Z</time></trkpt><trkpt lat="43.1758886" lon="12.9214198"><ele>486.4</ele><time>2026-04-25T12:48:06.323Z</time></trkpt><trkpt lat="43.1757845" lon="12.9214147"><ele>488.0</ele><time>2026-04-25T12:48:07.327Z</time></trkpt><trkpt lat="43.1756814" lon="12.9213971"><ele>489.75</ele><time>2026-04-25T12:48:08.314Z</time></trkpt><trkpt lat="43.1755816" lon="12.9213632"><ele>491.5</ele><time>2026-04-25T12:48:09.322Z</time></trkpt><trkpt lat="43.1754788" lon="12.9213035"><ele>493.25</ele><time>2026-04-25T12:48:10.321Z</time></trkpt><trkpt lat="43.1753723" lon="12.9212312"><ele>495.0</ele><time>2026-04-25T12:48:11.325Z</time></trkpt><trkpt lat="43.1752643" lon="12.9211602"><ele>495.0</ele><time>2026-04-25T12:48:12.322Z</time></trkpt><trkpt lat="43.175157" lon="12.9211009"><ele>495.0</ele><time>2026-04-25T12:48:13.325Z</time></trkpt><trkpt lat="43.1750521" lon="12.9210647"><ele>495.0</ele><time>2026-04-25T12:48:14.318Z</time></trkpt><trkpt lat="43.1749441" lon="12.9210406"><ele>495.0</ele><time>2026-04-25T12:48:15.322Z</time></trkpt><trkpt lat="43.1748271" lon="12.9210233"><ele>498.25</ele><time>2026-04-25T12:48:16.315Z</time></trkpt><trkpt lat="43.1746995" lon="12.92101"><ele>501.5</ele><time>2026-04-25T12:48:17.32Z</time></trkpt><trkpt lat="43.1745701" lon="12.9209928"><ele>504.75</ele><time>2026-04-25T12:48:18.323Z</time></trkpt><trkpt lat="43.1744406" lon="12.9209667"><ele>508.0</ele><time>2026-04-25T12:48:19.324Z</time></trkpt><trkpt lat="43.1743199" lon="12.9209323"><ele>508.0</ele><time>2026-04-25T12:48:20.32Z</time></trkpt><trkpt lat="43.1742059" lon="12.9208995"><ele>508.0</ele><time>2026-04-25T12:48:21.324Z</time></trkpt><trkpt lat="43.174085" lon="12.9208707"><ele>508.0</ele><time>2026-04-25T12:48:22.325Z</time></trkpt><trkpt lat="43.1739549" lon="12.9208454"><ele>508.0</ele><time>2026-04-25T12:48:23.325Z</time></trkpt><trkpt lat="43.1738224" lon="12.9208287"><ele>509.75</ele><time>2026-04-25T12:48:24.324Z</time></trkpt><trkpt lat="43.1736898" lon="12.9208151"><ele>511.5</ele><time>2026-04-25T12:48:25.319Z</time></trkpt><trkpt lat="43.1735586" lon="12.9207965"><ele>513.25</ele><time>2026-04-25T12:48:26.317Z</time></trkpt><trkpt lat="43.1734305" lon="12.9207729"><ele>515.0</ele><time>2026-04-25T12:48:27.322Z</time></trkpt><trkpt lat="43.1733039" lon="12.9207516"><ele>517.0</ele><time>2026-04-25T12:48:28.321Z</time></trkpt><trkpt lat="43.1731767" lon="12.9207367"><ele>519.0</ele><time>2026-04-25T12:48:29.315Z</time></trkpt><trkpt lat="43.1730472" lon="12.9207258"><ele>521.0</ele><time>2026-04-25T12:48:30.325Z</time></trkpt><trkpt lat="43.1729119" lon="12.9207157"><ele>523.0</ele><time>2026-04-25T12:48:31.323Z</time></trkpt><trkpt lat="43.1727759" lon="12.9207051"><ele>523.0</ele><time>2026-04-25T12:48:32.315Z</time></trkpt><trkpt lat="43.1726429" lon="12.9206978"><ele>523.0</ele><time>2026-04-25T12:48:33.323Z</time></trkpt><trkpt lat="43.1725166" lon="12.9206932"><ele>523.0</ele><time>2026-04-25T12:48:34.32Z</time></trkpt><trkpt lat="43.1723959" lon="12.9206856"><ele>523.0</ele><time>2026-04-25T12:48:35.32Z</time></trkpt><trkpt lat="43.1722763" lon="12.9206664"><ele>523.5</ele><time>2026-04-25T12:48:36.319Z</time></trkpt><trkpt lat="43.1721555" lon="12.9206465"><ele>524.0</ele><time>2026-04-25T12:48:37.321Z</time></trkpt><trkpt lat="43.172032" lon="12.920634"><ele>524.5</ele><time>2026-04-25T12:48:38.313Z</time></trkpt><trkpt lat="43.1719045" lon="12.9206293"><ele>525.0</ele><time>2026-04-25T12:48:39.32Z</time></trkpt><trkpt lat="43.1717771" lon="12.9206238"><ele>525.0</ele><time>2026-04-25T12:48:40.322Z</time></trkpt><trkpt lat="43.1716432" lon="12.9206147"><ele>525.0</ele><time>2026-04-25T12:48:41.322Z</time></trkpt><trkpt lat="43.1715028" lon="12.9205966"><ele>525.0</ele><time>2026-04-25T12:48:42.32Z</time></trkpt><trkpt lat="43.1713593" lon="12.9205803"><ele>525.0</ele><time>2026-04-25T12:48:43.319Z</time></trkpt><trkpt lat="43.1712246" lon="12.920567"><ele>526.6</ele><time>2026-04-25T12:48:44.322Z</time></trkpt><trkpt lat="43.1711035" lon="12.9205629"><ele>528.2</ele><time>2026-04-25T12:48:45.314Z</time></trkpt><trkpt lat="43.1709963" lon="12.9205594"><ele>529.8</ele><time>2026-04-25T12:48:46.315Z</time></trkpt><trkpt lat="43.1708987" lon="12.9205453"><ele>531.4</ele><time>2026-04-25T12:48:47.321Z</time></trkpt><trkpt lat="43.1707975" lon="12.9205246"><ele>533.0</ele><time>2026-04-25T12:48:48.311Z</time></trkpt><trkpt lat="43.1706957" lon="12.9204937"><ele>535.6</ele><time>2026-04-25T12:48:49.313Z</time></trkpt><trkpt lat="43.1705979" lon="12.9204542"><ele>538.1999999999999</ele><time>2026-04-25T12:48:50.321Z</time></trkpt><trkpt lat="43.1705069" lon="12.9204077"><ele>540.8</ele><time>2026-04-25T12:48:51.323Z</time></trkpt><trkpt lat="43.1704192" lon="12.92035"><ele>543.4</ele><time>2026-04-25T12:48:52.321Z</time></trkpt><trkpt lat="43.1703312" lon="12.9202795"><ele>546.0</ele><time>2026-04-25T12:48:53.32Z</time></trkpt><trkpt lat="43.1702312" lon="12.9202087"><ele>546.0</ele><time>2026-04-25T12:48:54.323Z</time></trkpt><trkpt lat="43.1701142" lon="12.920142"><ele>546.0</ele><time>2026-04-25T12:48:55.322Z</time></trkpt><trkpt lat="43.1699912" lon="12.9200892"><ele>546.0</ele><time>2026-04-25T12:48:56.318Z</time></trkpt><trkpt lat="43.1698685" lon="12.920049"><ele>546.0</ele><time>2026-04-25T12:48:57.324Z</time></trkpt><trkpt lat="43.1697519" lon="12.9200105"><ele>549.0</ele><time>2026-04-25T12:48:58.316Z</time></trkpt><trkpt lat="43.1696419" lon="12.9199717"><ele>552.0</ele><time>2026-04-25T12:48:59.322Z</time></trkpt><trkpt lat="43.1695428" lon="12.9199434"><ele>555.0</ele><time>2026-04-25T12:49:00.317Z</time></trkpt><trkpt lat="43.1694535" lon="12.9199317"><ele>558.0</ele><time>2026-04-25T12:49:01.317Z</time></trkpt><trkpt lat="43.1693629" lon="12.9199398"><ele>561.0</ele><time>2026-04-25T12:49:02.315Z</time></trkpt><trkpt lat="43.1692563" lon="12.9199556"><ele>561.0</ele><time>2026-04-25T12:49:03.325Z</time></trkpt><trkpt lat="43.1691388" lon="12.9199666"><ele>561.0</ele><time>2026-04-25T12:49:04.318Z</time></trkpt><trkpt lat="43.1690194" lon="12.9199803"><ele>561.0</ele><time>2026-04-25T12:49:05.319Z</time></trkpt><trkpt lat="43.168902" lon="12.9199837"><ele>561.0</ele><time>2026-04-25T12:49:06.319Z</time></trkpt><trkpt lat="43.1687836" lon="12.919982"><ele>565.0</ele><time>2026-04-25T12:49:07.324Z</time></trkpt><trkpt lat="43.1686579" lon="12.9199753"><ele>569.0</ele><time>2026-04-25T12:49:08.319Z</time></trkpt><trkpt lat="43.1685254" lon="12.9199702"><ele>573.0</ele><time>2026-04-25T12:49:09.325Z</time></trkpt><trkpt lat="43.1683885" lon="12.9199679"><ele>577.0</ele><time>2026-04-25T12:49:10.32Z</time></trkpt><trkpt lat="43.168258" lon="12.9199693"><ele>579.0</ele><time>2026-04-25T12:49:11.323Z</time></trkpt><trkpt lat="43.1681392" lon="12.9199717"><ele>581.0</ele><time>2026-04-25T12:49:12.318Z</time></trkpt><trkpt lat="43.1680285" lon="12.9199699"><ele>583.0</ele><time>2026-04-25T12:49:13.318Z</time></trkpt><trkpt lat="43.1679278" lon="12.9199634"><ele>585.0</ele><time>2026-04-25T12:49:14.321Z</time></trkpt><trkpt lat="43.1678365" lon="12.9199553"><ele>587.0</ele><time>2026-04-25T12:49:15.318Z</time></trkpt><trkpt lat="43.1677463" lon="12.9199444"><ele>587.0</ele><time>2026-04-25T12:49:16.322Z</time></trkpt><trkpt lat="43.1676569" lon="12.9199242"><ele>587.0</ele><time>2026-04-25T12:49:17.314Z</time></trkpt><trkpt lat="43.1675616" lon="12.9198956"><ele>587.0</ele><time>2026-04-25T12:49:18.322Z</time></trkpt><trkpt lat="43.167462" lon="12.9198601"><ele>587.0</ele><time>2026-04-25T12:49:19.322Z</time></trkpt><trkpt lat="43.1673562" lon="12.919817"><ele>587.0</ele><time>2026-04-25T12:49:20.324Z</time></trkpt><trkpt lat="43.1672417" lon="12.9197642"><ele>593.0</ele><time>2026-04-25T12:49:21.32Z</time></trkpt><trkpt lat="43.1671203" lon="12.9197079"><ele>599.0</ele><time>2026-04-25T12:49:22.323Z</time></trkpt><trkpt lat="43.1669977" lon="12.919659"><ele>605.0</ele><time>2026-04-25T12:49:23.32Z</time></trkpt><trkpt lat="43.1668785" lon="12.9196245"><ele>611.0</ele><time>2026-04-25T12:49:24.312Z</time></trkpt><trkpt lat="43.166763" lon="12.9195987"><ele>611.0</ele><time>2026-04-25T12:49:25.312Z</time></trkpt><trkpt lat="43.1666604" lon="12.9195737"><ele>611.0</ele><time>2026-04-25T12:49:26.32Z</time></trkpt><trkpt lat="43.1665698" lon="12.919549"><ele>611.0</ele><time>2026-04-25T12:49:27.316Z</time></trkpt><trkpt lat="43.1664789" lon="12.9195136"><ele>611.0</ele><time>2026-04-25T12:49:28.321Z</time></trkpt><trkpt lat="43.1663844" lon="12.9194663"><ele>611.0</ele><time>2026-04-25T12:49:29.313Z</time></trkpt><trkpt lat="43.1662863" lon="12.9194131"><ele>616.0</ele><time>2026-04-25T12:49:30.322Z</time></trkpt><trkpt lat="43.1661886" lon="12.9193651"><ele>621.0</ele><time>2026-04-25T12:49:31.323Z</time></trkpt><trkpt lat="43.166093" lon="12.9193315"><ele>626.0</ele><time>2026-04-25T12:49:32.322Z</time></trkpt><trkpt lat="43.165995" lon="12.9193088"><ele>631.0</ele><time>2026-04-25T12:49:33.324Z</time></trkpt><trkpt lat="43.1658876" lon="12.9192966"><ele>636.0</ele><time>2026-04-25T12:49:34.314Z</time></trkpt><trkpt lat="43.1657772" lon="12.9193004"><ele>640.4</ele><time>2026-04-25T12:49:35.316Z</time></trkpt><trkpt lat="43.1656733" lon="12.9193235"><ele>644.8</ele><time>2026-04-25T12:49:36.318Z</time></trkpt><trkpt lat="43.1655788" lon="12.9193545"><ele>649.1999999999999</ele><time>2026-04-25T12:49:37.321Z</time></trkpt><trkpt lat="43.1654768" lon="12.9193926"><ele>653.6</ele><time>2026-04-25T12:49:38.319Z</time></trkpt><trkpt lat="43.1653601" lon="12.919434"><ele>658.0</ele><time>2026-04-25T12:49:39.32Z</time></trkpt><trkpt lat="43.165237" lon="12.9194773"><ele>658.0</ele><time>2026-04-25T12:49:40.319Z</time></trkpt><trkpt lat="43.1651063" lon="12.9195279"><ele>658.0</ele><time>2026-04-25T12:49:41.312Z</time></trkpt><trkpt lat="43.1649806" lon="12.9195785"><ele>658.0</ele><time>2026-04-25T12:49:42.322Z</time></trkpt><trkpt lat="43.1648734" lon="12.9196225"><ele>658.0</ele><time>2026-04-25T12:49:43.322Z</time></trkpt><trkpt lat="43.1647741" lon="12.9196527"><ele>661.2</ele><time>2026-04-25T12:49:44.321Z</time></trkpt><trkpt lat="43.164675" lon="12.919655"><ele>664.4</ele><time>2026-04-25T12:49:45.312Z</time></trkpt><trkpt lat="43.1645786" lon="12.9196379"><ele>667.6</ele><time>2026-04-25T12:49:46.319Z</time></trkpt><trkpt lat="43.1644982" lon="12.9196102"><ele>670.8000000000001</ele><time>2026-04-25T12:49:47.317Z</time></trkpt><trkpt lat="43.1644419" lon="12.9195657"><ele>674.0</ele><time>2026-04-25T12:49:48.318Z</time></trkpt><trkpt lat="43.1644051" lon="12.9194042"><ele>674.0</ele><time>2026-04-25T12:49:50.312Z</time></trkpt><trkpt lat="43.1644337" lon="12.9193007"><ele>674.0</ele><time>2026-04-25T12:49:51.32Z</time></trkpt><trkpt lat="43.1644823" lon="12.91921"><ele>674.0</ele><time>2026-04-25T12:49:52.32Z</time></trkpt><trkpt lat="43.1645389" lon="12.9191314"><ele>674.0</ele><time>2026-04-25T12:49:53.316Z</time></trkpt><trkpt lat="43.1646161" lon="12.9190707"><ele>674.0</ele><time>2026-04-25T12:49:54.325Z</time></trkpt><trkpt lat="43.1647193" lon="12.9190156"><ele>674.0</ele><time>2026-04-25T12:49:55.313Z</time></trkpt><trkpt lat="43.1648286" lon="12.9189672"><ele>669.0</ele><time>2026-04-25T12:49:56.323Z</time></trkpt><trkpt lat="43.1649307" lon="12.9189257"><ele>664.0</ele><time>2026-04-25T12:49:57.325Z</time></trkpt><trkpt lat="43.165019" lon="12.9188931"><ele>659.0</ele><time>2026-04-25T12:49:58.311Z</time></trkpt><trkpt lat="43.1650885" lon="12.918872"><ele>654.0</ele><time>2026-04-25T12:49:59.32Z</time></trkpt><trkpt lat="43.1651525" lon="12.918849"><ele>649.0</ele><time>2026-04-25T12:50:00.321Z</time></trkpt><trkpt lat="43.1652147" lon="12.9187975"><ele>644.0</ele><time>2026-04-25T12:50:01.322Z</time></trkpt><trkpt lat="43.1652826" lon="12.9187585"><ele>644.0</ele><time>2026-04-25T12:50:02.327Z</time></trkpt><trkpt lat="43.1653728" lon="12.9187325"><ele>644.0</ele><time>2026-04-25T12:50:03.318Z</time></trkpt><trkpt lat="43.1654784" lon="12.9187107"><ele>644.0</ele><time>2026-04-25T12:50:04.316Z</time></trkpt><trkpt lat="43.1655767" lon="12.9186893"><ele>644.0</ele><time>2026-04-25T12:50:05.318Z</time></trkpt><trkpt lat="43.1656602" lon="12.9186615"><ele>644.0</ele><time>2026-04-25T12:50:06.318Z</time></trkpt><trkpt lat="43.1657278" lon="12.9186306"><ele>641.3333333333333</ele><time>2026-04-25T12:50:07.312Z</time></trkpt><trkpt lat="43.1657781" lon="12.9185414"><ele>638.6666666666666</ele><time>2026-04-25T12:50:09.316Z</time></trkpt><trkpt lat="43.165802" lon="12.918381"><ele>636.0</ele><time>2026-04-25T12:50:11.315Z</time></trkpt><trkpt lat="43.1658123" lon="12.9182833"><ele>633.3333333333334</ele><time>2026-04-25T12:50:12.316Z</time></trkpt><trkpt lat="43.1658239" lon="12.9181717"><ele>630.6666666666667</ele><time>2026-04-25T12:50:13.314Z</time></trkpt><trkpt lat="43.1658525" lon="12.9180644"><ele>628.0</ele><time>2026-04-25T12:50:14.324Z</time></trkpt><trkpt lat="43.1658933" lon="12.9179766"><ele>634.5999999999999</ele><time>2026-04-25T12:50:15.323Z</time></trkpt><trkpt lat="43.1659361" lon="12.9179123"><ele>641.1999999999999</ele><time>2026-04-25T12:50:16.322Z</time></trkpt><trkpt lat="43.1660718" lon="12.9178562"><ele>647.8</ele><time>2026-04-25T12:50:18.321Z</time></trkpt><trkpt lat="43.1661675" lon="12.9178661"><ele>654.4</ele><time>2026-04-25T12:50:19.318Z</time></trkpt><trkpt lat="43.166266" lon="12.9179006"><ele>661.0</ele><time>2026-04-25T12:50:20.322Z</time></trkpt><trkpt lat="43.166359" lon="12.9179583"><ele>661.0</ele><time>2026-04-25T12:50:21.319Z</time></trkpt><trkpt lat="43.1664388" lon="12.9180155"><ele>661.0</ele><time>2026-04-25T12:50:22.325Z</time></trkpt><trkpt lat="43.1665046" lon="12.9180562"><ele>661.0</ele><time>2026-04-25T12:50:23.314Z</time></trkpt><trkpt lat="43.16657" lon="12.9180813"><ele>661.0</ele><time>2026-04-25T12:50:24.316Z</time></trkpt><trkpt lat="43.1666461" lon="12.918092"><ele>661.0</ele><time>2026-04-25T12:50:25.319Z</time></trkpt><trkpt lat="43.1667302" lon="12.9180947"><ele>661.0</ele><time>2026-04-25T12:50:26.318Z</time></trkpt><trkpt lat="43.1668159" lon="12.9180904"><ele>659.1999999999999</ele><time>2026-04-25T12:50:27.316Z</time></trkpt><trkpt lat="43.1669032" lon="12.9180791"><ele>657.4</ele><time>2026-04-25T12:50:28.315Z</time></trkpt><trkpt lat="43.1669931" lon="12.9180722"><ele>655.6</ele><time>2026-04-25T12:50:29.318Z</time></trkpt><trkpt lat="43.1670886" lon="12.9180786"><ele>653.8</ele><time>2026-04-25T12:50:30.32Z</time></trkpt><trkpt lat="43.1671868" lon="12.9180913"><ele>652.0</ele><time>2026-04-25T12:50:31.323Z</time></trkpt><trkpt lat="43.1672819" lon="12.9181049"><ele>653.0</ele><time>2026-04-25T12:50:32.314Z</time></trkpt><trkpt lat="43.1673637" lon="12.9181158"><ele>654.0</ele><time>2026-04-25T12:50:33.324Z</time></trkpt><trkpt lat="43.1674377" lon="12.91812"><ele>655.0</ele><time>2026-04-25T12:50:34.318Z</time></trkpt><trkpt lat="43.1675119" lon="12.9181184"><ele>656.0</ele><time>2026-04-25T12:50:35.322Z</time></trkpt><trkpt lat="43.1675882" lon="12.9181025"><ele>657.0</ele><time>2026-04-25T12:50:36.317Z</time></trkpt><trkpt lat="43.1676739" lon="12.9180741"><ele>658.0</ele><time>2026-04-25T12:50:37.314Z</time></trkpt><trkpt lat="43.1677701" lon="12.9180468"><ele>658.0</ele><time>2026-04-25T12:50:38.317Z</time></trkpt><trkpt lat="43.1678717" lon="12.9180262"><ele>658.0</ele><time>2026-04-25T12:50:39.322Z</time></trkpt><trkpt lat="43.1679732" lon="12.9180288"><ele>658.0</ele><time>2026-04-25T12:50:40.323Z</time></trkpt><trkpt lat="43.1680786" lon="12.9180469"><ele>658.0</ele><time>2026-04-25T12:50:41.32Z</time></trkpt><trkpt lat="43.1681814" lon="12.9180602"><ele>658.0</ele><time>2026-04-25T12:50:42.319Z</time></trkpt><trkpt lat="43.1682687" lon="12.9180522"><ele>658.2</ele><time>2026-04-25T12:50:43.323Z</time></trkpt><trkpt lat="43.1683483" lon="12.9180252"><ele>658.4</ele><time>2026-04-25T12:50:44.315Z</time></trkpt><trkpt lat="43.1684206" lon="12.9179764"><ele>658.6</ele><time>2026-04-25T12:50:45.324Z</time></trkpt><trkpt lat="43.1684961" lon="12.9179066"><ele>658.8000000000001</ele><time>2026-04-25T12:50:46.323Z</time></trkpt><trkpt lat="43.1685769" lon="12.9178148"><ele>659.0</ele><time>2026-04-25T12:50:47.315Z</time></trkpt><trkpt lat="43.1686659" lon="12.9177001"><ele>659.0</ele><time>2026-04-25T12:50:48.319Z</time></trkpt><trkpt lat="43.1687527" lon="12.917586"><ele>659.0</ele><time>2026-04-25T12:50:49.324Z</time></trkpt><trkpt lat="43.1688309" lon="12.9174944"><ele>659.0</ele><time>2026-04-25T12:50:50.321Z</time></trkpt><trkpt lat="43.1689021" lon="12.9174133"><ele>659.0</ele><time>2026-04-25T12:50:51.318Z</time></trkpt><trkpt lat="43.168969" lon="12.9173394"><ele>659.0</ele><time>2026-04-25T12:50:52.326Z</time></trkpt><trkpt lat="43.16903" lon="12.9172684"><ele>662.6666666666666</ele><time>2026-04-25T12:50:53.323Z</time></trkpt><trkpt lat="43.1690816" lon="12.917191"><ele>666.3333333333333</ele><time>2026-04-25T12:50:54.324Z</time></trkpt><trkpt lat="43.1691254" lon="12.9171016"><ele>670.0</ele><time>2026-04-25T12:50:55.315Z</time></trkpt><trkpt lat="43.1691567" lon="12.9170039"><ele>673.6666666666666</ele><time>2026-04-25T12:50:56.317Z</time></trkpt><trkpt lat="43.1691835" lon="12.9169104"><ele>677.3333333333334</ele><time>2026-04-25T12:50:57.324Z</time></trkpt><trkpt lat="43.1692394" lon="12.9168004"><ele>681.0</ele><time>2026-04-25T12:50:59.312Z</time></trkpt><trkpt lat="43.1693573" lon="12.9168315"><ele>681.0</ele><time>2026-04-25T12:51:01.323Z</time></trkpt><trkpt lat="43.1694362" lon="12.9169057"><ele>681.0</ele><time>2026-04-25T12:51:02.322Z</time></trkpt><trkpt lat="43.1695267" lon="12.9169772"><ele>681.0</ele><time>2026-04-25T12:51:03.314Z</time></trkpt><trkpt lat="43.1696158" lon="12.917034"><ele>681.0</ele><time>2026-04-25T12:51:04.322Z</time></trkpt><trkpt lat="43.1696983" lon="12.9170777"><ele>681.0</ele><time>2026-04-25T12:51:05.326Z</time></trkpt><trkpt lat="43.1697729" lon="12.9171089"><ele>681.0</ele><time>2026-04-25T12:51:06.325Z</time></trkpt><trkpt lat="43.1698503" lon="12.9171454"><ele>681.0</ele><time>2026-04-25T12:51:07.316Z</time></trkpt><trkpt lat="43.1699365" lon="12.9171841"><ele>681.0</ele><time>2026-04-25T12:51:08.321Z</time></trkpt><trkpt lat="43.1700252" lon="12.917214"><ele>681.0</ele><time>2026-04-25T12:51:09.326Z</time></trkpt><trkpt lat="43.1701161" lon="12.9172368"><ele>681.0</ele><time>2026-04-25T12:51:10.322Z</time></trkpt><trkpt lat="43.1702159" lon="12.9172614"><ele>683.1999999999999</ele><time>2026-04-25T12:51:11.316Z</time></trkpt><trkpt lat="43.1703265" lon="12.9172962"><ele>685.4</ele><time>2026-04-25T12:51:12.317Z</time></trkpt><trkpt lat="43.1704352" lon="12.9173303"><ele>687.6</ele><time>2026-04-25T12:51:13.326Z</time></trkpt><trkpt lat="43.1705231" lon="12.9173554"><ele>689.8</ele><time>2026-04-25T12:51:14.319Z</time></trkpt><trkpt lat="43.1705877" lon="12.9173759"><ele>692.0</ele><time>2026-04-25T12:51:15.325Z</time></trkpt><trkpt lat="43.1706955" lon="12.9173634"><ele>694.4000000000001</ele><time>2026-04-25T12:51:17.324Z</time></trkpt><trkpt lat="43.1707597" lon="12.9173224"><ele>696.8000000000001</ele><time>2026-04-25T12:51:18.323Z</time></trkpt><trkpt lat="43.1708414" lon="12.9172762"><ele>699.2</ele><time>2026-04-25T12:51:19.327Z</time></trkpt><trkpt lat="43.170944" lon="12.9172158"><ele>701.6</ele><time>2026-04-25T12:51:20.32Z</time></trkpt><trkpt lat="43.1710528" lon="12.9171453"><ele>704.0</ele><time>2026-04-25T12:51:21.321Z</time></trkpt><trkpt lat="43.1711617" lon="12.9170722"><ele>704.0</ele><time>2026-04-25T12:51:22.316Z</time></trkpt><trkpt lat="43.1712611" lon="12.9170154"><ele>704.0</ele><time>2026-04-25T12:51:23.319Z</time></trkpt><trkpt lat="43.1713581" lon="12.9169822"><ele>704.0</ele><time>2026-04-25T12:51:24.316Z</time></trkpt><trkpt lat="43.171455" lon="12.9169808"><ele>704.0</ele><time>2026-04-25T12:51:25.323Z</time></trkpt><trkpt lat="43.1715548" lon="12.9170007"><ele>704.0</ele><time>2026-04-25T12:51:26.323Z</time></trkpt><trkpt lat="43.1716557" lon="12.9170297"><ele>704.2</ele><time>2026-04-25T12:51:27.319Z</time></trkpt><trkpt lat="43.1717605" lon="12.9170592"><ele>704.4000000000001</ele><time>2026-04-25T12:51:28.316Z</time></trkpt><trkpt lat="43.1718629" lon="12.9170903"><ele>704.6</ele><time>2026-04-25T12:51:29.324Z</time></trkpt><trkpt lat="43.1719608" lon="12.917124"><ele>704.8</ele><time>2026-04-25T12:51:30.322Z</time></trkpt><trkpt lat="43.1720628" lon="12.9171527"><ele>705.0</ele><time>2026-04-25T12:51:31.324Z</time></trkpt><trkpt lat="43.17216" lon="12.9171743"><ele>705.0</ele><time>2026-04-25T12:51:32.323Z</time></trkpt><trkpt lat="43.172251" lon="12.9171939"><ele>705.0</ele><time>2026-04-25T12:51:33.324Z</time></trkpt><trkpt lat="43.1723435" lon="12.9171941"><ele>705.0</ele><time>2026-04-25T12:51:34.314Z</time></trkpt><trkpt lat="43.1724328" lon="12.9171878"><ele>705.0</ele><time>2026-04-25T12:51:35.321Z</time></trkpt><trkpt lat="43.1725196" lon="12.9171757"><ele>705.0</ele><time>2026-04-25T12:51:36.322Z</time></trkpt><trkpt lat="43.1726082" lon="12.9171574"><ele>706.0</ele><time>2026-04-25T12:51:37.322Z</time></trkpt><trkpt lat="43.1727007" lon="12.9171379"><ele>707.0</ele><time>2026-04-25T12:51:38.329Z</time></trkpt><trkpt lat="43.1728006" lon="12.9171172"><ele>708.0</ele><time>2026-04-25T12:51:39.315Z</time></trkpt><trkpt lat="43.1729088" lon="12.9170982"><ele>709.0</ele><time>2026-04-25T12:51:40.322Z</time></trkpt><trkpt lat="43.1730179" lon="12.9170827"><ele>710.0</ele><time>2026-04-25T12:51:41.325Z</time></trkpt><trkpt lat="43.1731309" lon="12.9170662"><ele>709.25</ele><time>2026-04-25T12:51:42.329Z</time></trkpt><trkpt lat="43.1732475" lon="12.9170505"><ele>708.5</ele><time>2026-04-25T12:51:43.325Z</time></trkpt><trkpt lat="43.1733686" lon="12.917035"><ele>707.75</ele><time>2026-04-25T12:51:44.326Z</time></trkpt><trkpt lat="43.1734893" lon="12.917019"><ele>707.0</ele><time>2026-04-25T12:51:45.326Z</time></trkpt><trkpt lat="43.1736034" lon="12.9170021"><ele>707.0</ele><time>2026-04-25T12:51:46.325Z</time></trkpt><trkpt lat="43.1737121" lon="12.9169854"><ele>707.0</ele><time>2026-04-25T12:51:47.329Z</time></trkpt><trkpt lat="43.173823" lon="12.9169651"><ele>707.0</ele><time>2026-04-25T12:51:48.325Z</time></trkpt><trkpt lat="43.1739315" lon="12.9169385"><ele>707.0</ele><time>2026-04-25T12:51:49.322Z</time></trkpt><trkpt lat="43.174033" lon="12.9169072"><ele>707.0</ele><time>2026-04-25T12:51:50.316Z</time></trkpt><trkpt lat="43.1741316" lon="12.9168731"><ele>706.6</ele><time>2026-04-25T12:51:51.323Z</time></trkpt><trkpt lat="43.1742294" lon="12.9168339"><ele>706.2</ele><time>2026-04-25T12:51:52.326Z</time></trkpt><trkpt lat="43.174325" lon="12.9167901"><ele>705.8</ele><time>2026-04-25T12:51:53.328Z</time></trkpt><trkpt lat="43.1744136" lon="12.9167394"><ele>705.4</ele><time>2026-04-25T12:51:54.327Z</time></trkpt><trkpt lat="43.1744885" lon="12.9166811"><ele>705.0</ele><time>2026-04-25T12:51:55.331Z</time></trkpt><trkpt lat="43.1745422" lon="12.9166202"><ele>713.8</ele><time>2026-04-25T12:51:56.331Z</time></trkpt><trkpt lat="43.1745764" lon="12.9164797"><ele>722.6</ele><time>2026-04-25T12:51:58.339Z</time></trkpt><trkpt lat="43.1745327" lon="12.9163096"><ele>731.4000000000001</ele><time>2026-04-25T12:52:00.327Z</time></trkpt><trkpt lat="43.1744896" lon="12.9162015"><ele>740.2</ele><time>2026-04-25T12:52:01.327Z</time></trkpt><trkpt lat="43.1744373" lon="12.9160854"><ele>749.0</ele><time>2026-04-25T12:52:02.326Z</time></trkpt><trkpt lat="43.1743736" lon="12.9159588"><ele>753.0</ele><time>2026-04-25T12:52:03.33Z</time></trkpt><trkpt lat="43.1743054" lon="12.9158354"><ele>757.0</ele><time>2026-04-25T12:52:04.33Z</time></trkpt><trkpt lat="43.1742421" lon="12.9157287"><ele>761.0</ele><time>2026-04-25T12:52:05.33Z</time></trkpt><trkpt lat="43.1741758" lon="12.915629"><ele>765.0</ele><time>2026-04-25T12:52:06.321Z</time></trkpt><trkpt lat="43.1741057" lon="12.9155369"><ele>769.0</ele><time>2026-04-25T12:52:07.323Z</time></trkpt><trkpt lat="43.1740385" lon="12.9154548"><ele>773.7142857142857</ele><time>2026-04-25T12:52:08.331Z</time></trkpt><trkpt lat="43.1739792" lon="12.9153815"><ele>778.4285714285714</ele><time>2026-04-25T12:52:09.33Z</time></trkpt><trkpt lat="43.1739264" lon="12.9153125"><ele>783.1428571428571</ele><time>2026-04-25T12:52:10.329Z</time></trkpt><trkpt lat="43.173874" lon="12.9152443"><ele>787.8571428571429</ele><time>2026-04-25T12:52:11.326Z</time></trkpt><trkpt lat="43.1738179" lon="12.9151778"><ele>792.5714285714287</ele><time>2026-04-25T12:52:12.329Z</time></trkpt><trkpt lat="43.1737627" lon="12.9151099"><ele>797.2857142857143</ele><time>2026-04-25T12:52:13.331Z</time></trkpt><trkpt lat="43.1737179" lon="12.9150421"><ele>802.0</ele><time>2026-04-25T12:52:14.324Z</time></trkpt><trkpt lat="43.173769" lon="12.9149382"><ele>803.6</ele><time>2026-04-25T12:52:17.321Z</time></trkpt><trkpt lat="43.17388" lon="12.9148282"><ele>805.2</ele><time>2026-04-25T12:52:19.328Z</time></trkpt><trkpt lat="43.1739454" lon="12.914739"><ele>806.8</ele><time>2026-04-25T12:52:20.319Z</time></trkpt><trkpt lat="43.1740132" lon="12.9146317"><ele>808.4</ele><time>2026-04-25T12:52:21.32Z</time></trkpt><trkpt lat="43.174083" lon="12.9145126"><ele>810.0</ele><time>2026-04-25T12:52:22.319Z</time></trkpt><trkpt lat="43.1741626" lon="12.9143857"><ele>807.4</ele><time>2026-04-25T12:52:23.319Z</time></trkpt><trkpt lat="43.1742408" lon="12.91426"><ele>804.8</ele><time>2026-04-25T12:52:24.316Z</time></trkpt><trkpt lat="43.174305" lon="12.9141447"><ele>802.2</ele><time>2026-04-25T12:52:25.323Z</time></trkpt><trkpt lat="43.1743552" lon="12.9140388"><ele>799.6</ele><time>2026-04-25T12:52:26.325Z</time></trkpt><trkpt lat="43.1743996" lon="12.9139389"><ele>797.0</ele><time>2026-04-25T12:52:27.325Z</time></trkpt><trkpt lat="43.1744358" lon="12.9138414"><ele>797.0000000000001</ele><time>2026-04-25T12:52:28.319Z</time></trkpt><trkpt lat="43.1744586" lon="12.9137456"><ele>797.0</ele><time>2026-04-25T12:52:29.329Z</time></trkpt><trkpt lat="43.1744632" lon="12.9136425"><ele>797.0</ele><time>2026-04-25T12:52:30.335Z</time></trkpt><trkpt lat="43.1744565" lon="12.9135258"><ele>797.0</ele><time>2026-04-25T12:52:31.333Z</time></trkpt><trkpt lat="43.1744443" lon="12.9133875"><ele>797.0000000000001</ele><time>2026-04-25T12:52:32.327Z</time></trkpt><trkpt lat="43.1744339" lon="12.9132419"><ele>797.0</ele><time>2026-04-25T12:52:33.334Z</time></trkpt><trkpt lat="43.1744342" lon="12.9131059"><ele>799.5000000000001</ele><time>2026-04-25T12:52:34.329Z</time></trkpt><trkpt lat="43.1744425" lon="12.9129912"><ele>802.0</ele><time>2026-04-25T12:52:35.333Z</time></trkpt><trkpt lat="43.1744653" lon="12.9128947"><ele>804.5</ele><time>2026-04-25T12:52:36.326Z</time></trkpt><trkpt lat="43.1745063" lon="12.9128009"><ele>807.0</ele><time>2026-04-25T12:52:37.338Z</time></trkpt><trkpt lat="43.1745684" lon="12.9127129"><ele>809.5000000000001</ele><time>2026-04-25T12:52:38.325Z</time></trkpt><trkpt lat="43.174635" lon="12.9126207"><ele>812.0</ele><time>2026-04-25T12:52:39.327Z</time></trkpt><trkpt lat="43.1746849" lon="12.9125213"><ele>815.3333333333334</ele><time>2026-04-25T12:52:40.324Z</time></trkpt><trkpt lat="43.174715" lon="12.9124121"><ele>818.6666666666667</ele><time>2026-04-25T12:52:41.322Z</time></trkpt><trkpt lat="43.1747292" lon="12.9122932"><ele>822.0</ele><time>2026-04-25T12:52:42.333Z</time></trkpt><trkpt lat="43.1747436" lon="12.9121793"><ele>825.3333333333333</ele><time>2026-04-25T12:52:43.334Z</time></trkpt><trkpt lat="43.1747654" lon="12.9120909"><ele>828.6666666666666</ele><time>2026-04-25T12:52:44.319Z</time></trkpt><trkpt lat="43.1748367" lon="12.9119691"><ele>832.0</ele><time>2026-04-25T12:52:46.329Z</time></trkpt><trkpt lat="43.1748903" lon="12.9119047"><ele>829.4000000000001</ele><time>2026-04-25T12:52:47.329Z</time></trkpt><trkpt lat="43.1749524" lon="12.9118227"><ele>826.8000000000001</ele><time>2026-04-25T12:52:48.326Z</time></trkpt><trkpt lat="43.1750271" lon="12.9117305"><ele>824.2</ele><time>2026-04-25T12:52:49.327Z</time></trkpt><trkpt lat="43.1751086" lon="12.9116396"><ele>821.6</ele><time>2026-04-25T12:52:50.317Z</time></trkpt><trkpt lat="43.1751944" lon="12.9115504"><ele>819.0</ele><time>2026-04-25T12:52:51.328Z</time></trkpt><trkpt lat="43.1752806" lon="12.9114743"><ele>819.0</ele><time>2026-04-25T12:52:52.328Z</time></trkpt><trkpt lat="43.1753633" lon="12.9114051"><ele>819.0</ele><time>2026-04-25T12:52:53.317Z</time></trkpt><trkpt lat="43.1754398" lon="12.9113443"><ele>819.0</ele><time>2026-04-25T12:52:54.32Z</time></trkpt><trkpt lat="43.175506" lon="12.9112918"><ele>819.0</ele><time>2026-04-25T12:52:55.323Z</time></trkpt><trkpt lat="43.1755592" lon="12.9112377"><ele>819.0</ele><time>2026-04-25T12:52:56.32Z</time></trkpt><trkpt lat="43.1756245" lon="12.9110932"><ele>819.0</ele><time>2026-04-25T12:52:58.328Z</time></trkpt><trkpt lat="43.1756386" lon="12.9109996"><ele>819.0</ele><time>2026-04-25T12:52:59.328Z</time></trkpt><trkpt lat="43.1756423" lon="12.9109021"><ele>819.0</ele><time>2026-04-25T12:53:00.319Z</time></trkpt><trkpt lat="43.1756378" lon="12.9107854"><ele>819.0</ele><time>2026-04-25T12:53:01.325Z</time></trkpt><trkpt lat="43.175627" lon="12.9106567"><ele>819.0</ele><time>2026-04-25T12:53:02.332Z</time></trkpt><trkpt lat="43.1756141" lon="12.9105268"><ele>819.0</ele><time>2026-04-25T12:53:03.331Z</time></trkpt><trkpt lat="43.1755973" lon="12.9104024"><ele>823.5</ele><time>2026-04-25T12:53:04.33Z</time></trkpt><trkpt lat="43.1755789" lon="12.9102797"><ele>828.0</ele><time>2026-04-25T12:53:05.332Z</time></trkpt><trkpt lat="43.1755555" lon="12.9101275"><ele>832.5</ele><time>2026-04-25T12:53:06.332Z</time></trkpt><trkpt lat="43.1755308" lon="12.9099539"><ele>837.0</ele><time>2026-04-25T12:53:07.331Z</time></trkpt><trkpt lat="43.1755108" lon="12.9097807"><ele>839.2</ele><time>2026-04-25T12:53:08.331Z</time></trkpt><trkpt lat="43.1754981" lon="12.9096194"><ele>841.4000000000001</ele><time>2026-04-25T12:53:09.332Z</time></trkpt><trkpt lat="43.1754919" lon="12.9094755"><ele>843.5999999999999</ele><time>2026-04-25T12:53:10.329Z</time></trkpt><trkpt lat="43.1754887" lon="12.9093538"><ele>845.8</ele><time>2026-04-25T12:53:11.328Z</time></trkpt><trkpt lat="43.1754789" lon="12.9092438"><ele>848.0</ele><time>2026-04-25T12:53:12.32Z</time></trkpt><trkpt lat="43.1754687" lon="12.9091537"><ele>848.8</ele><time>2026-04-25T12:53:13.323Z</time></trkpt><trkpt lat="43.1754355" lon="12.9090203"><ele>849.5999999999999</ele><time>2026-04-25T12:53:15.326Z</time></trkpt><trkpt lat="43.1753654" lon="12.9089343"><ele>850.4000000000001</ele><time>2026-04-25T12:53:17.327Z</time></trkpt><trkpt lat="43.1752849" lon="12.9089426"><ele>851.2</ele><time>2026-04-25T12:53:19.329Z</time></trkpt><trkpt lat="43.1752506" lon="12.9090673"><ele>852.0</ele><time>2026-04-25T12:53:21.322Z</time></trkpt><trkpt lat="43.1752543" lon="12.9091713"><ele>851.2</ele><time>2026-04-25T12:53:22.327Z</time></trkpt><trkpt lat="43.1752614" lon="12.9092927"><ele>850.4000000000001</ele><time>2026-04-25T12:53:23.331Z</time></trkpt><trkpt lat="43.1752541" lon="12.909418"><ele>849.5999999999999</ele><time>2026-04-25T12:53:24.33Z</time></trkpt><trkpt lat="43.1752326" lon="12.9095344"><ele>848.8</ele><time>2026-04-25T12:53:25.33Z</time></trkpt><trkpt lat="43.1751895" lon="12.909646"><ele>848.0</ele><time>2026-04-25T12:53:26.323Z</time></trkpt><trkpt lat="43.175134" lon="12.9097655"><ele>848.0</ele><time>2026-04-25T12:53:27.32Z</time></trkpt><trkpt lat="43.1750787" lon="12.9098903"><ele>848.0</ele><time>2026-04-25T12:53:28.321Z</time></trkpt><trkpt lat="43.1750265" lon="12.9100086"><ele>848.0</ele><time>2026-04-25T12:53:29.333Z</time></trkpt><trkpt lat="43.1749755" lon="12.9101055"><ele>848.0</ele><time>2026-04-25T12:53:30.331Z</time></trkpt><trkpt lat="43.1749193" lon="12.9101882"><ele>848.0</ele><time>2026-04-25T12:53:31.326Z</time></trkpt><trkpt lat="43.1748539" lon="12.9102625"><ele>851.5999999999999</ele><time>2026-04-25T12:53:32.336Z</time></trkpt><trkpt lat="43.1747756" lon="12.9103352"><ele>855.1999999999999</ele><time>2026-04-25T12:53:33.33Z</time></trkpt><trkpt lat="43.1746968" lon="12.9104145"><ele>858.8</ele><time>2026-04-25T12:53:34.328Z</time></trkpt><trkpt lat="43.1746256" lon="12.9105062"><ele>862.4</ele><time>2026-04-25T12:53:35.329Z</time></trkpt><trkpt lat="43.1745644" lon="12.9106079"><ele>866.0</ele><time>2026-04-25T12:53:36.321Z</time></trkpt><trkpt lat="43.1745106" lon="12.9107186"><ele>866.0</ele><time>2026-04-25T12:53:37.325Z</time></trkpt><trkpt lat="43.1744598" lon="12.9108168"><ele>865.9999999999999</ele><time>2026-04-25T12:53:38.327Z</time></trkpt><trkpt lat="43.1744005" lon="12.9108843"><ele>865.9999999999999</ele><time>2026-04-25T12:53:39.321Z</time></trkpt><trkpt lat="43.1743253" lon="12.9109274"><ele>866.0</ele><time>2026-04-25T12:53:40.328Z</time></trkpt><trkpt lat="43.1742285" lon="12.910959"><ele>866.0</ele><time>2026-04-25T12:53:41.33Z</time></trkpt><trkpt lat="43.1741195" lon="12.9109956"><ele>869.5</ele><time>2026-04-25T12:53:42.329Z</time></trkpt><trkpt lat="43.1740111" lon="12.9110552"><ele>873.0</ele><time>2026-04-25T12:53:43.329Z</time></trkpt><trkpt lat="43.1739023" lon="12.9111265"><ele>876.5</ele><time>2026-04-25T12:53:44.326Z</time></trkpt><trkpt lat="43.1737952" lon="12.9112004"><ele>880.0</ele><time>2026-04-25T12:53:45.328Z</time></trkpt><trkpt lat="43.1736988" lon="12.911286"><ele>880.0</ele><time>2026-04-25T12:53:46.331Z</time></trkpt><trkpt lat="43.1736177" lon="12.9113884"><ele>880.0</ele><time>2026-04-25T12:53:47.329Z</time></trkpt><trkpt lat="43.1735496" lon="12.9115072"><ele>880.0</ele><time>2026-04-25T12:53:48.318Z</time></trkpt><trkpt lat="43.1734917" lon="12.91163"><ele>880.0</ele><time>2026-04-25T12:53:49.319Z</time></trkpt><trkpt lat="43.1734332" lon="12.9117258"><ele>880.0</ele><time>2026-04-25T12:53:50.324Z</time></trkpt><trkpt lat="43.173368" lon="12.911782"><ele>881.8333333333333</ele><time>2026-04-25T12:53:51.332Z</time></trkpt><trkpt lat="43.1733005" lon="12.9118086"><ele>883.6666666666666</ele><time>2026-04-25T12:53:52.319Z</time></trkpt><trkpt lat="43.1732181" lon="12.9118151"><ele>885.5</ele><time>2026-04-25T12:53:53.324Z</time></trkpt><trkpt lat="43.173125" lon="12.9118297"><ele>887.3333333333333</ele><time>2026-04-25T12:53:54.322Z</time></trkpt><trkpt lat="43.1730391" lon="12.9118679"><ele>889.1666666666666</ele><time>2026-04-25T12:53:55.33Z</time></trkpt><trkpt lat="43.172954" lon="12.9119334"><ele>891.0</ele><time>2026-04-25T12:53:56.328Z</time></trkpt><trkpt lat="43.1728614" lon="12.9120111"><ele>891.0</ele><time>2026-04-25T12:53:57.326Z</time></trkpt><trkpt lat="43.1727853" lon="12.9120934"><ele>890.9999999999999</ele><time>2026-04-25T12:53:58.33Z</time></trkpt><trkpt lat="43.1727287" lon="12.912186"><ele>890.9999999999999</ele><time>2026-04-25T12:53:59.329Z</time></trkpt><trkpt lat="43.172677" lon="12.9122953"><ele>891.0</ele><time>2026-04-25T12:54:00.332Z</time></trkpt><trkpt lat="43.1726224" lon="12.9124106"><ele>891.0</ele><time>2026-04-25T12:54:01.334Z</time></trkpt><trkpt lat="43.1725606" lon="12.9125119"><ele>887.75</ele><time>2026-04-25T12:54:02.334Z</time></trkpt><trkpt lat="43.1724867" lon="12.9126087"><ele>884.5</ele><time>2026-04-25T12:54:03.325Z</time></trkpt><trkpt lat="43.1724003" lon="12.9127105"><ele>881.25</ele><time>2026-04-25T12:54:04.321Z</time></trkpt><trkpt lat="43.17231" lon="12.9128213"><ele>878.0</ele><time>2026-04-25T12:54:05.332Z</time></trkpt><trkpt lat="43.1722171" lon="12.9129355"><ele>885.0</ele><time>2026-04-25T12:54:06.336Z</time></trkpt><trkpt lat="43.1721198" lon="12.913051"><ele>892.0</ele><time>2026-04-25T12:54:07.333Z</time></trkpt><trkpt lat="43.1720257" lon="12.9131678"><ele>899.0</ele><time>2026-04-25T12:54:08.329Z</time></trkpt><trkpt lat="43.1719345" lon="12.9132858"><ele>906.0</ele><time>2026-04-25T12:54:09.332Z</time></trkpt><trkpt lat="43.1718464" lon="12.9133981"><ele>903.0</ele><time>2026-04-25T12:54:10.323Z</time></trkpt><trkpt lat="43.1717551" lon="12.9135051"><ele>899.9999999999999</ele><time>2026-04-25T12:54:11.328Z</time></trkpt><trkpt lat="43.1716649" lon="12.9136083"><ele>896.9999999999999</ele><time>2026-04-25T12:54:12.328Z</time></trkpt><trkpt lat="43.1715835" lon="12.9137028"><ele>894.0</ele><time>2026-04-25T12:54:13.33Z</time></trkpt><trkpt lat="43.171508" lon="12.913782"><ele>891.0</ele><time>2026-04-25T12:54:14.327Z</time></trkpt><trkpt lat="43.1714299" lon="12.9138404"><ele>891.0</ele><time>2026-04-25T12:54:15.321Z</time></trkpt><trkpt lat="43.1713523" lon="12.9138674"><ele>891.0</ele><time>2026-04-25T12:54:16.331Z</time></trkpt><trkpt lat="43.1712721" lon="12.9138781"><ele>891.0</ele><time>2026-04-25T12:54:17.325Z</time></trkpt><trkpt lat="43.1711861" lon="12.9138871"><ele>891.0</ele><time>2026-04-25T12:54:18.331Z</time></trkpt><trkpt lat="43.1710931" lon="12.9138904"><ele>891.0</ele><time>2026-04-25T12:54:19.333Z</time></trkpt><trkpt lat="43.1709986" lon="12.9138732"><ele>891.0</ele><time>2026-04-25T12:54:20.322Z</time></trkpt><trkpt lat="43.1709029" lon="12.9138392"><ele>891.0</ele><time>2026-04-25T12:54:21.327Z</time></trkpt><trkpt lat="43.1708103" lon="12.9138031"><ele>891.0</ele><time>2026-04-25T12:54:22.324Z</time></trkpt><trkpt lat="43.1707297" lon="12.9137632"><ele>891.0</ele><time>2026-04-25T12:54:23.33Z</time></trkpt><trkpt lat="43.1706616" lon="12.9137185"><ele>891.0</ele><time>2026-04-25T12:54:24.324Z</time></trkpt><trkpt lat="43.170593" lon="12.9136699"><ele>891.0</ele><time>2026-04-25T12:54:25.327Z</time></trkpt><trkpt lat="43.1705226" lon="12.9136127"><ele>891.0</ele><time>2026-04-25T12:54:26.32Z</time></trkpt><trkpt lat="43.1704491" lon="12.913547"><ele>887.1999999999999</ele><time>2026-04-25T12:54:27.332Z</time></trkpt><trkpt lat="43.170369" lon="12.9134707"><ele>883.3999999999999</ele><time>2026-04-25T12:54:28.323Z</time></trkpt><trkpt lat="43.1702781" lon="12.913392"><ele>879.6</ele><time>2026-04-25T12:54:29.326Z</time></trkpt><trkpt lat="43.1701774" lon="12.9133223"><ele>875.8</ele><time>2026-04-25T12:54:30.326Z</time></trkpt><trkpt lat="43.1700713" lon="12.9132588"><ele>872.0</ele><time>2026-04-25T12:54:31.331Z</time></trkpt><trkpt lat="43.1699638" lon="12.9131956"><ele>876.8</ele><time>2026-04-25T12:54:32.32Z</time></trkpt><trkpt lat="43.1698617" lon="12.9131394"><ele>881.6</ele><time>2026-04-25T12:54:33.322Z</time></trkpt><trkpt lat="43.1697706" lon="12.9130895"><ele>886.3999999999999</ele><time>2026-04-25T12:54:34.324Z</time></trkpt><trkpt lat="43.1696894" lon="12.9130312"><ele>891.1999999999999</ele><time>2026-04-25T12:54:35.328Z</time></trkpt><trkpt lat="43.169624" lon="12.9129561"><ele>896.0</ele><time>2026-04-25T12:54:36.325Z</time></trkpt><trkpt lat="43.169568" lon="12.912874"><ele>896.0000000000001</ele><time>2026-04-25T12:54:37.326Z</time></trkpt><trkpt lat="43.1695068" lon="12.9128007"><ele>896.0</ele><time>2026-04-25T12:54:38.328Z</time></trkpt><trkpt lat="43.1694344" lon="12.9127425"><ele>896.0</ele><time>2026-04-25T12:54:39.324Z</time></trkpt><trkpt lat="43.1693493" lon="12.9126913"><ele>896.0</ele><time>2026-04-25T12:54:40.325Z</time></trkpt><trkpt lat="43.1692588" lon="12.9126535"><ele>896.0000000000001</ele><time>2026-04-25T12:54:41.325Z</time></trkpt><trkpt lat="43.169168" lon="12.9126442"><ele>896.0</ele><time>2026-04-25T12:54:42.324Z</time></trkpt><trkpt lat="43.1690864" lon="12.9126541"><ele>898.4</ele><time>2026-04-25T12:54:43.322Z</time></trkpt><trkpt lat="43.1690183" lon="12.9126902"><ele>900.8</ele><time>2026-04-25T12:54:44.324Z</time></trkpt><trkpt lat="43.1689454" lon="12.9127475"><ele>903.1999999999999</ele><time>2026-04-25T12:54:45.322Z</time></trkpt><trkpt lat="43.1688616" lon="12.9128304"><ele>905.5999999999999</ele><time>2026-04-25T12:54:46.322Z</time></trkpt><trkpt lat="43.1687662" lon="12.9128964"><ele>908.0</ele><time>2026-04-25T12:54:47.314Z</time></trkpt><trkpt lat="43.1686647" lon="12.9129324"><ele>908.0</ele><time>2026-04-25T12:54:48.32Z</time></trkpt><trkpt lat="43.1685602" lon="12.9129374"><ele>908.0</ele><time>2026-04-25T12:54:49.321Z</time></trkpt><trkpt lat="43.1684592" lon="12.9129306"><ele>908.0</ele><time>2026-04-25T12:54:50.323Z</time></trkpt><trkpt lat="43.1683593" lon="12.9129162"><ele>908.0</ele><time>2026-04-25T12:54:51.322Z</time></trkpt><trkpt lat="43.1682686" lon="12.9128965"><ele>908.0</ele><time>2026-04-25T12:54:52.318Z</time></trkpt><trkpt lat="43.1681863" lon="12.9128834"><ele>911.4</ele><time>2026-04-25T12:54:53.319Z</time></trkpt><trkpt lat="43.1680965" lon="12.9128889"><ele>914.8</ele><time>2026-04-25T12:54:54.322Z</time></trkpt><trkpt lat="43.167996" lon="12.9129081"><ele>918.2</ele><time>2026-04-25T12:54:55.322Z</time></trkpt><trkpt lat="43.1678938" lon="12.9129341"><ele>921.6</ele><time>2026-04-25T12:54:56.323Z</time></trkpt><trkpt lat="43.1678005" lon="12.9129677"><ele>925.0</ele><time>2026-04-25T12:54:57.322Z</time></trkpt><trkpt lat="43.1677203" lon="12.9130109"><ele>924.9999999999999</ele><time>2026-04-25T12:54:58.321Z</time></trkpt><trkpt lat="43.1676495" lon="12.9130596"><ele>925.0</ele><time>2026-04-25T12:54:59.323Z</time></trkpt><trkpt lat="43.1675775" lon="12.913116"><ele>925.0</ele><time>2026-04-25T12:55:00.319Z</time></trkpt><trkpt lat="43.1675002" lon="12.9131765"><ele>925.0</ele><time>2026-04-25T12:55:01.322Z</time></trkpt><trkpt lat="43.1674197" lon="12.9132403"><ele>924.9999999999999</ele><time>2026-04-25T12:55:02.327Z</time></trkpt><trkpt lat="43.1673341" lon="12.9132896"><ele>925.0</ele><time>2026-04-25T12:55:03.32Z</time></trkpt><trkpt lat="43.1672505" lon="12.9133168"><ele>924.9999999999999</ele><time>2026-04-25T12:55:04.319Z</time></trkpt><trkpt lat="43.167174" lon="12.9133337"><ele>925.0</ele><time>2026-04-25T12:55:05.324Z</time></trkpt><trkpt lat="43.1670995" lon="12.9133337"><ele>925.0</ele><time>2026-04-25T12:55:06.327Z</time></trkpt><trkpt lat="43.1670234" lon="12.9133134"><ele>925.0</ele><time>2026-04-25T12:55:07.328Z</time></trkpt><trkpt lat="43.1669488" lon="12.9132664"><ele>924.9999999999999</ele><time>2026-04-25T12:55:08.319Z</time></trkpt><trkpt lat="43.1668783" lon="12.9132036"><ele>925.0</ele><time>2026-04-25T12:55:09.318Z</time></trkpt><trkpt lat="43.1668017" lon="12.9131405"><ele>925.0</ele><time>2026-04-25T12:55:10.326Z</time></trkpt><trkpt lat="43.1667266" lon="12.9130711"><ele>925.0</ele><time>2026-04-25T12:55:11.323Z</time></trkpt><trkpt lat="43.1666458" lon="12.913008"><ele>925.0</ele><time>2026-04-25T12:55:12.316Z</time></trkpt><trkpt lat="43.1665507" lon="12.9129526"><ele>925.0</ele><time>2026-04-25T12:55:13.327Z</time></trkpt><trkpt lat="43.1664509" lon="12.9128991"><ele>925.0</ele><time>2026-04-25T12:55:14.324Z</time></trkpt><trkpt lat="43.1663511" lon="12.9128521"><ele>924.8</ele><time>2026-04-25T12:55:15.314Z</time></trkpt><trkpt lat="43.1662564" lon="12.9128087"><ele>924.6</ele><time>2026-04-25T12:55:16.329Z</time></trkpt><trkpt lat="43.16617" lon="12.9127875"><ele>924.4000000000001</ele><time>2026-04-25T12:55:17.317Z</time></trkpt><trkpt lat="43.1660807" lon="12.9127923"><ele>924.2</ele><time>2026-04-25T12:55:18.325Z</time></trkpt><trkpt lat="43.1659904" lon="12.9128291"><ele>924.0</ele><time>2026-04-25T12:55:19.324Z</time></trkpt><trkpt lat="43.1658969" lon="12.9128863"><ele>924.0</ele><time>2026-04-25T12:55:20.319Z</time></trkpt><trkpt lat="43.1658009" lon="12.9129332"><ele>924.0000000000001</ele><time>2026-04-25T12:55:21.324Z</time></trkpt><trkpt lat="43.165702" lon="12.9129491"><ele>924.0000000000001</ele><time>2026-04-25T12:55:22.324Z</time></trkpt><trkpt lat="43.1656005" lon="12.9129452"><ele>924.0</ele><time>2026-04-25T12:55:23.324Z</time></trkpt><trkpt lat="43.1654976" lon="12.9129403"><ele>924.0</ele><time>2026-04-25T12:55:24.32Z</time></trkpt><trkpt lat="43.1653955" lon="12.9129439"><ele>929.2</ele><time>2026-04-25T12:55:25.318Z</time></trkpt><trkpt lat="43.1652963" lon="12.9129684"><ele>934.4000000000001</ele><time>2026-04-25T12:55:26.316Z</time></trkpt><trkpt lat="43.1652019" lon="12.9130212"><ele>939.6</ele><time>2026-04-25T12:55:27.318Z</time></trkpt><trkpt lat="43.1651072" lon="12.9130899"><ele>944.8</ele><time>2026-04-25T12:55:28.32Z</time></trkpt><trkpt lat="43.1650121" lon="12.9131682"><ele>950.0</ele><time>2026-04-25T12:55:29.319Z</time></trkpt><trkpt lat="43.1649254" lon="12.9132599"><ele>953.6</ele><time>2026-04-25T12:55:30.323Z</time></trkpt><trkpt lat="43.1648508" lon="12.9133519"><ele>957.2</ele><time>2026-04-25T12:55:31.319Z</time></trkpt><trkpt lat="43.1647951" lon="12.9134388"><ele>960.8</ele><time>2026-04-25T12:55:32.325Z</time></trkpt><trkpt lat="43.1647482" lon="12.913511"><ele>964.4</ele><time>2026-04-25T12:55:33.319Z</time></trkpt><trkpt lat="43.1646944" lon="12.9135559"><ele>968.0</ele><time>2026-04-25T12:55:34.316Z</time></trkpt><trkpt lat="43.1645617" lon="12.9135666"><ele>960.0</ele><time>2026-04-25T12:55:36.322Z</time></trkpt><trkpt lat="43.1644771" lon="12.9135449"><ele>952.0</ele><time>2026-04-25T12:55:37.325Z</time></trkpt><trkpt lat="43.1643852" lon="12.9135316"><ele>944.0</ele><time>2026-04-25T12:55:38.328Z</time></trkpt><trkpt lat="43.1642957" lon="12.9135435"><ele>936.0</ele><time>2026-04-25T12:55:39.324Z</time></trkpt><trkpt lat="43.1642069" lon="12.9135669"><ele>928.0</ele><time>2026-04-25T12:55:40.32Z</time></trkpt><trkpt lat="43.1641141" lon="12.9135968"><ele>926.2</ele><time>2026-04-25T12:55:41.323Z</time></trkpt><trkpt lat="43.1640236" lon="12.9136305"><ele>924.4</ele><time>2026-04-25T12:55:42.322Z</time></trkpt><trkpt lat="43.1639431" lon="12.9136645"><ele>922.6000000000001</ele><time>2026-04-25T12:55:43.325Z</time></trkpt><trkpt lat="43.1638776" lon="12.9136791"><ele>920.8000000000001</ele><time>2026-04-25T12:55:44.324Z</time></trkpt><trkpt lat="43.1638007" lon="12.9136062"><ele>919.0</ele><time>2026-04-25T12:55:46.326Z</time></trkpt><trkpt lat="43.1637781" lon="12.9134329"><ele>926.4000000000001</ele><time>2026-04-25T12:55:48.319Z</time></trkpt><trkpt lat="43.1637565" lon="12.9133269"><ele>933.8000000000001</ele><time>2026-04-25T12:55:49.323Z</time></trkpt><trkpt lat="43.163715" lon="12.9132293"><ele>941.1999999999999</ele><time>2026-04-25T12:55:50.318Z</time></trkpt><trkpt lat="43.1636549" lon="12.9131437"><ele>948.5999999999999</ele><time>2026-04-25T12:55:51.327Z</time></trkpt><trkpt lat="43.163565" lon="12.9130725"><ele>956.0</ele><time>2026-04-25T12:55:52.325Z</time></trkpt><trkpt lat="43.1634523" lon="12.9130221"><ele>956.0</ele><time>2026-04-25T12:55:53.327Z</time></trkpt><trkpt lat="43.1633238" lon="12.9129848"><ele>956.0</ele><time>2026-04-25T12:55:54.323Z</time></trkpt><trkpt lat="43.1631818" lon="12.9129492"><ele>956.0</ele><time>2026-04-25T12:55:55.322Z</time></trkpt><trkpt lat="43.1630471" lon="12.912921"><ele>956.0</ele><time>2026-04-25T12:55:56.314Z</time></trkpt><trkpt lat="43.1629168" lon="12.9129031"><ele>956.0</ele><time>2026-04-25T12:55:57.314Z</time></trkpt><trkpt lat="43.1628023" lon="12.9128897"><ele>955.9999999999999</ele><time>2026-04-25T12:55:58.311Z</time></trkpt><trkpt lat="43.1627033" lon="12.9128827"><ele>955.9999999999999</ele><time>2026-04-25T12:55:59.321Z</time></trkpt><trkpt lat="43.1626099" lon="12.9128929"><ele>956.0</ele><time>2026-04-25T12:56:00.323Z</time></trkpt><trkpt lat="43.1625088" lon="12.9129309"><ele>956.0</ele><time>2026-04-25T12:56:01.322Z</time></trkpt><trkpt lat="43.1623998" lon="12.9129829"><ele>956.8</ele><time>2026-04-25T12:56:02.321Z</time></trkpt><trkpt lat="43.1622979" lon="12.9130209"><ele>957.5999999999999</ele><time>2026-04-25T12:56:03.315Z</time></trkpt><trkpt lat="43.1621956" lon="12.9130384"><ele>958.4</ele><time>2026-04-25T12:56:04.315Z</time></trkpt><trkpt lat="43.1620852" lon="12.9130388"><ele>959.2</ele><time>2026-04-25T12:56:05.324Z</time></trkpt><trkpt lat="43.1619673" lon="12.9130332"><ele>960.0</ele><time>2026-04-25T12:56:06.323Z</time></trkpt><trkpt lat="43.1618437" lon="12.9130286"><ele>960.0</ele><time>2026-04-25T12:56:07.322Z</time></trkpt><trkpt lat="43.1617161" lon="12.9130383"><ele>960.0</ele><time>2026-04-25T12:56:08.323Z</time></trkpt><trkpt lat="43.1615896" lon="12.913062"><ele>960.0</ele><time>2026-04-25T12:56:09.322Z</time></trkpt><trkpt lat="43.1614684" lon="12.9130911"><ele>960.0</ele><time>2026-04-25T12:56:10.32Z</time></trkpt><trkpt lat="43.1613531" lon="12.9131237"><ele>962.8</ele><time>2026-04-25T12:56:11.314Z</time></trkpt><trkpt lat="43.1612389" lon="12.9131598"><ele>965.6</ele><time>2026-04-25T12:56:12.323Z</time></trkpt><trkpt lat="43.1611231" lon="12.9131983"><ele>968.4000000000001</ele><time>2026-04-25T12:56:13.318Z</time></trkpt><trkpt lat="43.161014" lon="12.9132402"><ele>971.2</ele><time>2026-04-25T12:56:14.319Z</time></trkpt><trkpt lat="43.160921" lon="12.913281"><ele>974.0</ele><time>2026-04-25T12:56:15.323Z</time></trkpt><trkpt lat="43.1608446" lon="12.9133112"><ele>974.0000000000001</ele><time>2026-04-25T12:56:16.322Z</time></trkpt><trkpt lat="43.1607696" lon="12.9133279"><ele>974.0</ele><time>2026-04-25T12:56:17.314Z</time></trkpt><trkpt lat="43.1606868" lon="12.9133258"><ele>974.0</ele><time>2026-04-25T12:56:18.315Z</time></trkpt><trkpt lat="43.1606033" lon="12.9133051"><ele>974.0</ele><time>2026-04-25T12:56:19.32Z</time></trkpt><trkpt lat="43.1605097" lon="12.9132822"><ele>974.0000000000001</ele><time>2026-04-25T12:56:20.322Z</time></trkpt><trkpt lat="43.1604109" lon="12.9132622"><ele>974.0</ele><time>2026-04-25T12:56:21.323Z</time></trkpt><trkpt lat="43.1603192" lon="12.9132429"><ele>972.3333333333334</ele><time>2026-04-25T12:56:22.32Z</time></trkpt><trkpt lat="43.1602442" lon="12.9132265"><ele>970.6666666666667</ele><time>2026-04-25T12:56:23.322Z</time></trkpt><trkpt lat="43.1601563" lon="12.913253"><ele>969.0</ele><time>2026-04-25T12:56:25.313Z</time></trkpt><trkpt lat="43.160095" lon="12.9133624"><ele>967.3333333333333</ele><time>2026-04-25T12:56:27.32Z</time></trkpt><trkpt lat="43.1600595" lon="12.913458"><ele>965.6666666666666</ele><time>2026-04-25T12:56:28.319Z</time></trkpt><trkpt lat="43.1600213" lon="12.9135684"><ele>964.0</ele><time>2026-04-25T12:56:29.323Z</time></trkpt><trkpt lat="43.1599857" lon="12.9136884"><ele>964.0</ele><time>2026-04-25T12:56:30.316Z</time></trkpt><trkpt lat="43.1599455" lon="12.9138064"><ele>964.0000000000001</ele><time>2026-04-25T12:56:31.314Z</time></trkpt><trkpt lat="43.1598841" lon="12.9139115"><ele>964.0000000000001</ele><time>2026-04-25T12:56:32.315Z</time></trkpt><trkpt lat="43.1597968" lon="12.914005"><ele>964.0</ele><time>2026-04-25T12:56:33.324Z</time></trkpt><trkpt lat="43.1596996" lon="12.914091"><ele>964.0</ele><time>2026-04-25T12:56:34.324Z</time></trkpt><trkpt lat="43.159598" lon="12.9141789"><ele>970.0</ele><time>2026-04-25T12:56:35.319Z</time></trkpt><trkpt lat="43.159499" lon="12.9142651"><ele>976.0000000000001</ele><time>2026-04-25T12:56:36.321Z</time></trkpt><trkpt lat="43.1594086" lon="12.9143408"><ele>982.0000000000001</ele><time>2026-04-25T12:56:37.324Z</time></trkpt><trkpt lat="43.1593309" lon="12.9144021"><ele>988.0</ele><time>2026-04-25T12:56:38.315Z</time></trkpt><trkpt lat="43.1592758" lon="12.9144623"><ele>994.0</ele><time>2026-04-25T12:56:39.314Z</time></trkpt><trkpt lat="43.1592177" lon="12.9146125"><ele>994.0</ele><time>2026-04-25T12:56:41.318Z</time></trkpt><trkpt lat="43.1591905" lon="12.9147394"><ele>994.0</ele><time>2026-04-25T12:56:42.32Z</time></trkpt><trkpt lat="43.1591613" lon="12.9149054"><ele>994.0</ele><time>2026-04-25T12:56:43.321Z</time></trkpt><trkpt lat="43.159135" lon="12.915079"><ele>994.0</ele><time>2026-04-25T12:56:44.316Z</time></trkpt><trkpt lat="43.1591209" lon="12.9152428"><ele>993.25</ele><time>2026-04-25T12:56:45.321Z</time></trkpt><trkpt lat="43.1591248" lon="12.9153999"><ele>992.5</ele><time>2026-04-25T12:56:46.317Z</time></trkpt><trkpt lat="43.1591452" lon="12.9155627"><ele>991.75</ele><time>2026-04-25T12:56:47.324Z</time></trkpt><trkpt lat="43.1591765" lon="12.9157307"><ele>991.0</ele><time>2026-04-25T12:56:48.323Z</time></trkpt><trkpt lat="43.1592152" lon="12.9159026"><ele>991.4</ele><time>2026-04-25T12:56:49.321Z</time></trkpt><trkpt lat="43.1592512" lon="12.9160695"><ele>991.8</ele><time>2026-04-25T12:56:50.324Z</time></trkpt><trkpt lat="43.1592783" lon="12.9162199"><ele>992.1999999999999</ele><time>2026-04-25T12:56:51.328Z</time></trkpt><trkpt lat="43.1593048" lon="12.9163465"><ele>992.5999999999999</ele><time>2026-04-25T12:56:52.327Z</time></trkpt><trkpt lat="43.159327" lon="12.9164495"><ele>993.0</ele><time>2026-04-25T12:56:53.325Z</time></trkpt><trkpt lat="43.1593331" lon="12.9165846"><ele>993.0</ele><time>2026-04-25T12:56:55.323Z</time></trkpt><trkpt lat="43.1592744" lon="12.9166726"><ele>993.0</ele><time>2026-04-25T12:56:57.319Z</time></trkpt><trkpt lat="43.1591757" lon="12.9167552"><ele>993.0</ele><time>2026-04-25T12:56:59.329Z</time></trkpt><trkpt lat="43.1590683" lon="12.9168309"><ele>993.0</ele><time>2026-04-25T12:57:01.328Z</time></trkpt><trkpt lat="43.1589529" lon="12.9168778"><ele>993.0</ele><time>2026-04-25T12:57:03.33Z</time></trkpt><trkpt lat="43.15883" lon="12.9168749"><ele>995.4</ele><time>2026-04-25T12:57:05.326Z</time></trkpt><trkpt lat="43.1587546" lon="12.9168556"><ele>997.8</ele><time>2026-04-25T12:57:06.329Z</time></trkpt><trkpt lat="43.158673" lon="12.9168293"><ele>1000.2</ele><time>2026-04-25T12:57:07.332Z</time></trkpt><trkpt lat="43.1585858" lon="12.9167951"><ele>1002.6</ele><time>2026-04-25T12:57:08.321Z</time></trkpt><trkpt lat="43.1584902" lon="12.916753"><ele>1005.0</ele><time>2026-04-25T12:57:09.325Z</time></trkpt><trkpt lat="43.1583862" lon="12.9167035"><ele>1005.0</ele><time>2026-04-25T12:57:10.326Z</time></trkpt><trkpt lat="43.1582849" lon="12.9166531"><ele>1005.0</ele><time>2026-04-25T12:57:11.32Z</time></trkpt><trkpt lat="43.1582003" lon="12.9166065"><ele>1005.0</ele><time>2026-04-25T12:57:12.329Z</time></trkpt><trkpt lat="43.1581263" lon="12.9165633"><ele>1005.0</ele><time>2026-04-25T12:57:13.328Z</time></trkpt><trkpt lat="43.1580527" lon="12.9165236"><ele>1005.0</ele><time>2026-04-25T12:57:14.33Z</time></trkpt><trkpt lat="43.1579776" lon="12.916492"><ele>1005.0</ele><time>2026-04-25T12:57:15.319Z</time></trkpt><trkpt lat="43.157897" lon="12.9164666"><ele>1004.8</ele><time>2026-04-25T12:57:16.322Z</time></trkpt><trkpt lat="43.157807" lon="12.9164518"><ele>1004.6</ele><time>2026-04-25T12:57:17.324Z</time></trkpt><trkpt lat="43.1577086" lon="12.916442"><ele>1004.4000000000001</ele><time>2026-04-25T12:57:18.321Z</time></trkpt><trkpt lat="43.1576081" lon="12.91643"><ele>1004.2</ele><time>2026-04-25T12:57:19.326Z</time></trkpt><trkpt lat="43.157513" lon="12.9164189"><ele>1004.0</ele><time>2026-04-25T12:57:20.315Z</time></trkpt><trkpt lat="43.1574173" lon="12.916402"><ele>1009.6666666666667</ele><time>2026-04-25T12:57:21.318Z</time></trkpt><trkpt lat="43.1573288" lon="12.9163798"><ele>1015.3333333333334</ele><time>2026-04-25T12:57:22.316Z</time></trkpt><trkpt lat="43.1572488" lon="12.9163583"><ele>1021.0</ele><time>2026-04-25T12:57:23.322Z</time></trkpt><trkpt lat="43.1571767" lon="12.9163384"><ele>1026.6666666666667</ele><time>2026-04-25T12:57:24.32Z</time></trkpt><trkpt lat="43.1571132" lon="12.9163246"><ele>1032.3333333333333</ele><time>2026-04-25T12:57:25.32Z</time></trkpt><trkpt lat="43.1570114" lon="12.9163398"><ele>1038.0</ele><time>2026-04-25T12:57:27.316Z</time></trkpt><trkpt lat="43.1569565" lon="12.9164571"><ele>1038.0</ele><time>2026-04-25T12:57:29.315Z</time></trkpt><trkpt lat="43.1569273" lon="12.9165638"><ele>1038.0</ele><time>2026-04-25T12:57:30.319Z</time></trkpt><trkpt lat="43.1568988" lon="12.916695"><ele>1038.0</ele><time>2026-04-25T12:57:31.32Z</time></trkpt><trkpt lat="43.1568671" lon="12.9168387"><ele>1038.0</ele><time>2026-04-25T12:57:32.311Z</time></trkpt><trkpt lat="43.1568346" lon="12.9169854"><ele>1038.0</ele><time>2026-04-25T12:57:33.315Z</time></trkpt><trkpt lat="43.1568133" lon="12.9171445"><ele>1033.4</ele><time>2026-04-25T12:57:34.312Z</time></trkpt><trkpt lat="43.1568003" lon="12.9173043"><ele>1028.8</ele><time>2026-04-25T12:57:35.325Z</time></trkpt><trkpt lat="43.1567915" lon="12.9174333"><ele>1024.2</ele><time>2026-04-25T12:57:36.32Z</time></trkpt><trkpt lat="43.1567912" lon="12.9175409"><ele>1019.6</ele><time>2026-04-25T12:57:37.322Z</time></trkpt><trkpt lat="43.1567696" lon="12.9176815"><ele>1015.0</ele><time>2026-04-25T12:57:39.315Z</time></trkpt><trkpt lat="43.1567173" lon="12.9177639"><ele>1013.9999999999999</ele><time>2026-04-25T12:57:41.326Z</time></trkpt><trkpt lat="43.1566126" lon="12.9178606"><ele>1013.0</ele><time>2026-04-25T12:57:43.325Z</time></trkpt><trkpt lat="43.1565474" lon="12.9179141"><ele>1012.0</ele><time>2026-04-25T12:57:44.322Z</time></trkpt><trkpt lat="43.1564816" lon="12.9179688"><ele>1011.0</ele><time>2026-04-25T12:57:45.324Z</time></trkpt><trkpt lat="43.1564136" lon="12.9180183"><ele>1009.9999999999999</ele><time>2026-04-25T12:57:46.325Z</time></trkpt><trkpt lat="43.1563431" lon="12.9180631"><ele>1009.0</ele><time>2026-04-25T12:57:47.323Z</time></trkpt><trkpt lat="43.1562652" lon="12.918101"><ele>1008.9999999999999</ele><time>2026-04-25T12:57:48.323Z</time></trkpt><trkpt lat="43.1561768" lon="12.9181332"><ele>1009.0</ele><time>2026-04-25T12:57:49.327Z</time></trkpt><trkpt lat="43.1560853" lon="12.9181728"><ele>1009.0</ele><time>2026-04-25T12:57:50.32Z</time></trkpt><trkpt lat="43.1559981" lon="12.9182199"><ele>1009.0</ele><time>2026-04-25T12:57:51.319Z</time></trkpt><trkpt lat="43.1559186" lon="12.9182642"><ele>1008.9999999999999</ele><time>2026-04-25T12:57:52.319Z</time></trkpt><trkpt lat="43.155839" lon="12.9182886"><ele>1009.0</ele><time>2026-04-25T12:57:53.328Z</time></trkpt><trkpt lat="43.1557519" lon="12.9182991"><ele>1011.0</ele><time>2026-04-25T12:57:54.327Z</time></trkpt><trkpt lat="43.1556506" lon="12.9183079"><ele>1013.0000000000001</ele><time>2026-04-25T12:57:55.326Z</time></trkpt><trkpt lat="43.1555461" lon="12.9183137"><ele>1015.0000000000001</ele><time>2026-04-25T12:57:56.327Z</time></trkpt><trkpt lat="43.1554453" lon="12.9183238"><ele>1017.0</ele><time>2026-04-25T12:57:57.326Z</time></trkpt><trkpt lat="43.1553471" lon="12.9183454"><ele>1019.0</ele><time>2026-04-25T12:57:58.324Z</time></trkpt><trkpt lat="43.1552416" lon="12.9183834"><ele>1020.0</ele><time>2026-04-25T12:57:59.328Z</time></trkpt><trkpt lat="43.1551377" lon="12.9184308"><ele>1021.0</ele><time>2026-04-25T12:58:00.324Z</time></trkpt><trkpt lat="43.1550297" lon="12.9184899"><ele>1022.0</ele><time>2026-04-25T12:58:01.324Z</time></trkpt><trkpt lat="43.1549261" lon="12.9185606"><ele>1023.0</ele><time>2026-04-25T12:58:02.313Z</time></trkpt><trkpt lat="43.1548316" lon="12.9186337"><ele>1023.0</ele><time>2026-04-25T12:58:03.327Z</time></trkpt><trkpt lat="43.1547462" lon="12.9186924"><ele>1023.0</ele><time>2026-04-25T12:58:04.32Z</time></trkpt><trkpt lat="43.1546629" lon="12.9187343"><ele>1023.0</ele><time>2026-04-25T12:58:05.321Z</time></trkpt><trkpt lat="43.1545811" lon="12.9187628"><ele>1023.0</ele><time>2026-04-25T12:58:06.319Z</time></trkpt><trkpt lat="43.1544996" lon="12.9187802"><ele>1023.0</ele><time>2026-04-25T12:58:07.314Z</time></trkpt><trkpt lat="43.1544146" lon="12.9187978"><ele>1023.0</ele><time>2026-04-25T12:58:08.314Z</time></trkpt><trkpt lat="43.1543307" lon="12.9188229"><ele>1023.0</ele><time>2026-04-25T12:58:09.314Z</time></trkpt><trkpt lat="43.1542662" lon="12.9188547"><ele>1023.0</ele><time>2026-04-25T12:58:10.319Z</time></trkpt><trkpt lat="43.1542156" lon="12.9189587"><ele>1023.0</ele><time>2026-04-25T12:58:12.312Z</time></trkpt><trkpt lat="43.1542533" lon="12.9190996"><ele>1023.0</ele><time>2026-04-25T12:58:14.32Z</time></trkpt><trkpt lat="43.1542816" lon="12.9192104"><ele>1023.0</ele><time>2026-04-25T12:58:15.313Z</time></trkpt><trkpt lat="43.1543045" lon="12.919349"><ele>1025.25</ele><time>2026-04-25T12:58:16.316Z</time></trkpt><trkpt lat="43.1543315" lon="12.9194993"><ele>1027.5</ele><time>2026-04-25T12:58:17.318Z</time></trkpt><trkpt lat="43.1543618" lon="12.9196498"><ele>1029.75</ele><time>2026-04-25T12:58:18.316Z</time></trkpt><trkpt lat="43.1544012" lon="12.9198098"><ele>1032.0</ele><time>2026-04-25T12:58:19.328Z</time></trkpt><trkpt lat="43.1544469" lon="12.919981"><ele>1036.4</ele><time>2026-04-25T12:58:20.325Z</time></trkpt><trkpt lat="43.1544893" lon="12.9201371"><ele>1040.8000000000002</ele><time>2026-04-25T12:58:21.323Z</time></trkpt><trkpt lat="43.1545226" lon="12.9202563"><ele>1045.2</ele><time>2026-04-25T12:58:22.32Z</time></trkpt><trkpt lat="43.1545603" lon="12.9203537"><ele>1049.6000000000001</ele><time>2026-04-25T12:58:23.325Z</time></trkpt><trkpt lat="43.1546123" lon="12.9204311"><ele>1054.0</ele><time>2026-04-25T12:58:24.328Z</time></trkpt><trkpt lat="43.1546729" lon="12.9205045"><ele>1054.0</ele><time>2026-04-25T12:58:25.317Z</time></trkpt><trkpt lat="43.1547291" lon="12.9205743"><ele>1054.0</ele><time>2026-04-25T12:58:26.329Z</time></trkpt><trkpt lat="43.1547914" lon="12.9206535"><ele>1054.0</ele><time>2026-04-25T12:58:27.329Z</time></trkpt><trkpt lat="43.1548609" lon="12.920735"><ele>1054.0</ele><time>2026-04-25T12:58:28.316Z</time></trkpt><trkpt lat="43.1549404" lon="12.9208185"><ele>1054.0</ele><time>2026-04-25T12:58:29.318Z</time></trkpt><trkpt lat="43.1550241" lon="12.9209054"><ele>1053.0</ele><time>2026-04-25T12:58:30.317Z</time></trkpt><trkpt lat="43.1551122" lon="12.9209929"><ele>1052.0</ele><time>2026-04-25T12:58:31.318Z</time></trkpt><trkpt lat="43.1552051" lon="12.9210855"><ele>1051.0</ele><time>2026-04-25T12:58:32.327Z</time></trkpt><trkpt lat="43.1553025" lon="12.9211828"><ele>1050.0</ele><time>2026-04-25T12:58:33.315Z</time></trkpt><trkpt lat="43.1554082" lon="12.9212848"><ele>1050.0</ele><time>2026-04-25T12:58:34.324Z</time></trkpt><trkpt lat="43.1555197" lon="12.9213898"><ele>1050.0</ele><time>2026-04-25T12:58:35.324Z</time></trkpt><trkpt lat="43.1556351" lon="12.9214982"><ele>1050.0</ele><time>2026-04-25T12:58:36.324Z</time></trkpt><trkpt lat="43.1557503" lon="12.921606"><ele>1050.0</ele><time>2026-04-25T12:58:37.323Z</time></trkpt><trkpt lat="43.1558601" lon="12.9217108"><ele>1049.25</ele><time>2026-04-25T12:58:38.323Z</time></trkpt><trkpt lat="43.1559698" lon="12.9218098"><ele>1048.5</ele><time>2026-04-25T12:58:39.325Z</time></trkpt><trkpt lat="43.156087" lon="12.9219004"><ele>1047.75</ele><time>2026-04-25T12:58:40.324Z</time></trkpt><trkpt lat="43.1562123" lon="12.9219837"><ele>1047.0</ele><time>2026-04-25T12:58:41.327Z</time></trkpt><trkpt lat="43.1563383" lon="12.9220636"><ele>1047.0</ele><time>2026-04-25T12:58:42.325Z</time></trkpt><trkpt lat="43.1564631" lon="12.9221376"><ele>1047.0</ele><time>2026-04-25T12:58:43.316Z</time></trkpt><trkpt lat="43.1565836" lon="12.9222112"><ele>1047.0</ele><time>2026-04-25T12:58:44.32Z</time></trkpt><trkpt lat="43.1566989" lon="12.9222869"><ele>1047.0</ele><time>2026-04-25T12:58:45.329Z</time></trkpt><trkpt lat="43.156808" lon="12.9223697"><ele>1048.0</ele><time>2026-04-25T12:58:46.326Z</time></trkpt><trkpt lat="43.1569129" lon="12.9224611"><ele>1049.0</ele><time>2026-04-25T12:58:47.325Z</time></trkpt><trkpt lat="43.1570144" lon="12.922556"><ele>1050.0</ele><time>2026-04-25T12:58:48.323Z</time></trkpt><trkpt lat="43.1571119" lon="12.9226446"><ele>1051.0</ele><time>2026-04-25T12:58:49.325Z</time></trkpt><trkpt lat="43.1572042" lon="12.9227266"><ele>1051.0</ele><time>2026-04-25T12:58:50.326Z</time></trkpt><trkpt lat="43.1572885" lon="12.9228099"><ele>1051.0</ele><time>2026-04-25T12:58:51.322Z</time></trkpt><trkpt lat="43.1573682" lon="12.9229004"><ele>1051.0</ele><time>2026-04-25T12:58:52.326Z</time></trkpt><trkpt lat="43.1574492" lon="12.9229972"><ele>1051.0</ele><time>2026-04-25T12:58:53.326Z</time></trkpt><trkpt lat="43.1575344" lon="12.9231"><ele>1051.0</ele><time>2026-04-25T12:58:54.328Z</time></trkpt><trkpt lat="43.1576198" lon="12.92321"><ele>1050.5</ele><time>2026-04-25T12:58:55.318Z</time></trkpt><trkpt lat="43.1577051" lon="12.923328"><ele>1050.0</ele><time>2026-04-25T12:58:56.326Z</time></trkpt><trkpt lat="43.1577901" lon="12.9234434"><ele>1049.5</ele><time>2026-04-25T12:58:57.328Z</time></trkpt><trkpt lat="43.1578697" lon="12.9235558"><ele>1049.0</ele><time>2026-04-25T12:58:58.32Z</time></trkpt><trkpt lat="43.1579426" lon="12.9236722"><ele>1049.0</ele><time>2026-04-25T12:58:59.33Z</time></trkpt><trkpt lat="43.1580137" lon="12.9237926"><ele>1049.0</ele><time>2026-04-25T12:59:00.323Z</time></trkpt><trkpt lat="43.1580909" lon="12.9239107"><ele>1049.0</ele><time>2026-04-25T12:59:01.322Z</time></trkpt><trkpt lat="43.158163" lon="12.9240218"><ele>1049.0</ele><time>2026-04-25T12:59:02.327Z</time></trkpt><trkpt lat="43.1582165" lon="12.9241249"><ele>1049.0</ele><time>2026-04-25T12:59:03.33Z</time></trkpt><trkpt lat="43.1582461" lon="12.9242228"><ele>1051.3333333333335</ele><time>2026-04-25T12:59:04.321Z</time></trkpt><trkpt lat="43.1582537" lon="12.9243189"><ele>1053.6666666666667</ele><time>2026-04-25T12:59:05.322Z</time></trkpt><trkpt lat="43.1582455" lon="12.9244157"><ele>1056.0</ele><time>2026-04-25T12:59:06.318Z</time></trkpt><trkpt lat="43.1582195" lon="12.9245155"><ele>1058.3333333333333</ele><time>2026-04-25T12:59:07.33Z</time></trkpt><trkpt lat="43.1581769" lon="12.9246184"><ele>1060.6666666666665</ele><time>2026-04-25T12:59:08.316Z</time></trkpt><trkpt lat="43.1581207" lon="12.9247328"><ele>1063.0</ele><time>2026-04-25T12:59:09.317Z</time></trkpt><trkpt lat="43.1580645" lon="12.9248561"><ele>1063.0</ele><time>2026-04-25T12:59:10.327Z</time></trkpt><trkpt lat="43.1580175" lon="12.9249897"><ele>1063.0</ele><time>2026-04-25T12:59:11.33Z</time></trkpt><trkpt lat="43.1579866" lon="12.9251371"><ele>1063.0</ele><time>2026-04-25T12:59:12.329Z</time></trkpt><trkpt lat="43.1579679" lon="12.9252893"><ele>1063.0</ele><time>2026-04-25T12:59:13.329Z</time></trkpt><trkpt lat="43.1579494" lon="12.9254404"><ele>1063.0</ele><time>2026-04-25T12:59:14.324Z</time></trkpt><trkpt lat="43.1579332" lon="12.9255822"><ele>1064.8</ele><time>2026-04-25T12:59:15.33Z</time></trkpt><trkpt lat="43.1579274" lon="12.9257089"><ele>1066.6</ele><time>2026-04-25T12:59:16.326Z</time></trkpt><trkpt lat="43.157944" lon="12.9258325"><ele>1068.4</ele><time>2026-04-25T12:59:17.327Z</time></trkpt><trkpt lat="43.1579829" lon="12.9259504"><ele>1070.2</ele><time>2026-04-25T12:59:18.32Z</time></trkpt><trkpt lat="43.1580419" lon="12.9260553"><ele>1072.0</ele><time>2026-04-25T12:59:19.323Z</time></trkpt><trkpt lat="43.1581183" lon="12.9261457"><ele>1075.8</ele><time>2026-04-25T12:59:20.322Z</time></trkpt><trkpt lat="43.1582003" lon="12.9262292"><ele>1079.6</ele><time>2026-04-25T12:59:21.319Z</time></trkpt><trkpt lat="43.1582776" lon="12.9263136"><ele>1083.3999999999999</ele><time>2026-04-25T12:59:22.327Z</time></trkpt><trkpt lat="43.1583458" lon="12.9264015"><ele>1087.2</ele><time>2026-04-25T12:59:23.328Z</time></trkpt><trkpt lat="43.1584142" lon="12.9264892"><ele>1091.0</ele><time>2026-04-25T12:59:24.326Z</time></trkpt><trkpt lat="43.1584897" lon="12.9265581"><ele>1081.25</ele><time>2026-04-25T12:59:25.318Z</time></trkpt><trkpt lat="43.1585763" lon="12.9265978"><ele>1071.5</ele><time>2026-04-25T12:59:26.314Z</time></trkpt><trkpt lat="43.1586846" lon="12.9266296"><ele>1061.75</ele><time>2026-04-25T12:59:27.327Z</time></trkpt><trkpt lat="43.158804" lon="12.9266693"><ele>1052.0</ele><time>2026-04-25T12:59:28.317Z</time></trkpt><trkpt lat="43.1589273" lon="12.9267222"><ele>1055.5</ele><time>2026-04-25T12:59:29.326Z</time></trkpt><trkpt lat="43.1590566" lon="12.9267835"><ele>1059.0</ele><time>2026-04-25T12:59:30.325Z</time></trkpt><trkpt lat="43.1591814" lon="12.9268484"><ele>1062.5</ele><time>2026-04-25T12:59:31.315Z</time></trkpt><trkpt lat="43.1592957" lon="12.9269147"><ele>1066.0</ele><time>2026-04-25T12:59:32.321Z</time></trkpt><trkpt lat="43.159398" lon="12.926978"><ele>1066.0</ele><time>2026-04-25T12:59:33.322Z</time></trkpt><trkpt lat="43.1594922" lon="12.9270326"><ele>1066.0</ele><time>2026-04-25T12:59:34.325Z</time></trkpt><trkpt lat="43.1595778" lon="12.9270773"><ele>1066.0</ele><time>2026-04-25T12:59:35.319Z</time></trkpt><trkpt lat="43.159664" lon="12.927107"><ele>1066.0</ele><time>2026-04-25T12:59:36.324Z</time></trkpt><trkpt lat="43.1597556" lon="12.9271142"><ele>1066.0</ele><time>2026-04-25T12:59:37.323Z</time></trkpt><trkpt lat="43.1598549" lon="12.9270947"><ele>1064.2</ele><time>2026-04-25T12:59:38.323Z</time></trkpt><trkpt lat="43.1599585" lon="12.9270485"><ele>1062.3999999999999</ele><time>2026-04-25T12:59:39.316Z</time></trkpt><trkpt lat="43.1600605" lon="12.9269908"><ele>1060.6</ele><time>2026-04-25T12:59:40.321Z</time></trkpt><trkpt lat="43.1601578" lon="12.9269373"><ele>1058.8</ele><time>2026-04-25T12:59:41.327Z</time></trkpt><trkpt lat="43.1602506" lon="12.9268939"><ele>1057.0</ele><time>2026-04-25T12:59:42.333Z</time></trkpt><trkpt lat="43.1603413" lon="12.9268766"><ele>1057.0</ele><time>2026-04-25T12:59:43.321Z</time></trkpt><trkpt lat="43.1604363" lon="12.9268884"><ele>1057.0</ele><time>2026-04-25T12:59:44.33Z</time></trkpt><trkpt lat="43.1605229" lon="12.9269064"><ele>1057.0</ele><time>2026-04-25T12:59:45.331Z</time></trkpt><trkpt lat="43.1605902" lon="12.9269106"><ele>1057.0</ele><time>2026-04-25T12:59:46.32Z</time></trkpt><trkpt lat="43.1606551" lon="12.9268983"><ele>1057.0</ele><time>2026-04-25T12:59:47.316Z</time></trkpt><trkpt lat="43.160717" lon="12.9268688"><ele>1057.0</ele><time>2026-04-25T12:59:48.328Z</time></trkpt><trkpt lat="43.1607797" lon="12.9268291"><ele>1056.4285714285713</ele><time>2026-04-25T12:59:49.329Z</time></trkpt><trkpt lat="43.1608463" lon="12.9267975"><ele>1055.857142857143</ele><time>2026-04-25T12:59:50.33Z</time></trkpt><trkpt lat="43.1609205" lon="12.9267841"><ele>1055.2857142857142</ele><time>2026-04-25T12:59:51.329Z</time></trkpt><trkpt lat="43.1609983" lon="12.9267905"><ele>1054.7142857142858</ele><time>2026-04-25T12:59:52.32Z</time></trkpt><trkpt lat="43.161073" lon="12.9268189"><ele>1054.142857142857</ele><time>2026-04-25T12:59:53.329Z</time></trkpt><trkpt lat="43.1611379" lon="12.9268599"><ele>1053.5714285714284</ele><time>2026-04-25T12:59:54.329Z</time></trkpt><trkpt lat="43.1611945" lon="12.9269037"><ele>1053.0</ele><time>2026-04-25T12:59:55.327Z</time></trkpt><trkpt lat="43.16128" lon="12.9269845"><ele>1053.0</ele><time>2026-04-25T12:59:57.326Z</time></trkpt><trkpt lat="43.1613506" lon="12.9269656"><ele>1053.0</ele><time>2026-04-25T13:00:00.323Z</time></trkpt><trkpt lat="43.1614027" lon="12.9268967"><ele>1053.0</ele><time>2026-04-25T13:00:03.326Z</time></trkpt><trkpt lat="43.1614515" lon="12.9269714"><ele>1053.0</ele><time>2026-04-25T13:00:06.329Z</time></trkpt><trkpt lat="43.1614873" lon="12.9270651"><ele>1053.0</ele><time>2026-04-25T13:00:07.321Z</time></trkpt><trkpt lat="43.1615305" lon="12.9271828"><ele>1053.0</ele><time>2026-04-25T13:00:08.328Z</time></trkpt><trkpt lat="43.1615811" lon="12.9273211"><ele>1053.0</ele><time>2026-04-25T13:00:09.322Z</time></trkpt><trkpt lat="43.1616392" lon="12.9274833"><ele>1053.0</ele><time>2026-04-25T13:00:10.328Z</time></trkpt><trkpt lat="43.1617013" lon="12.9276656"><ele>1053.0</ele><time>2026-04-25T13:00:11.327Z</time></trkpt><trkpt lat="43.1617679" lon="12.9278635"><ele>1053.0</ele><time>2026-04-25T13:00:12.332Z</time></trkpt><trkpt lat="43.1618357" lon="12.9280694"><ele>1053.0</ele><time>2026-04-25T13:00:13.33Z</time></trkpt><trkpt lat="43.1618979" lon="12.9282513"><ele>1053.0</ele><time>2026-04-25T13:00:14.321Z</time></trkpt><trkpt lat="43.1619554" lon="12.9283889"><ele>1053.0</ele><time>2026-04-25T13:00:15.33Z</time></trkpt><trkpt lat="43.1620149" lon="12.9284734"><ele>1053.0</ele><time>2026-04-25T13:00:16.328Z</time></trkpt><trkpt lat="43.1620843" lon="12.9285136"><ele>1053.0</ele><time>2026-04-25T13:00:17.33Z</time></trkpt><trkpt lat="43.1621765" lon="12.9285405"><ele>1057.0</ele><time>2026-04-25T13:00:18.318Z</time></trkpt><trkpt lat="43.162295" lon="12.9285719"><ele>1061.0</ele><time>2026-04-25T13:00:19.33Z</time></trkpt><trkpt lat="43.1624362" lon="12.9286108"><ele>1065.0</ele><time>2026-04-25T13:00:20.328Z</time></trkpt><trkpt lat="43.1626034" lon="12.9286652"><ele>1069.0</ele><time>2026-04-25T13:00:21.329Z</time></trkpt><trkpt lat="43.1627818" lon="12.928741"><ele>1069.0</ele><time>2026-04-25T13:00:22.324Z</time></trkpt><trkpt lat="43.1629527" lon="12.9288314"><ele>1069.0</ele><time>2026-04-25T13:00:23.332Z</time></trkpt><trkpt lat="43.1631273" lon="12.9289241"><ele>1069.0</ele><time>2026-04-25T13:00:24.327Z</time></trkpt><trkpt lat="43.1632947" lon="12.9290174"><ele>1066.0</ele><time>2026-04-25T13:00:25.314Z</time></trkpt><trkpt lat="43.1634557" lon="12.9291178"><ele>1063.0</ele><time>2026-04-25T13:00:26.326Z</time></trkpt><trkpt lat="43.1636087" lon="12.9292277"><ele>1060.0</ele><time>2026-04-25T13:00:27.328Z</time></trkpt><trkpt lat="43.1637543" lon="12.9293392"><ele>1062.0</ele><time>2026-04-25T13:00:28.327Z</time></trkpt><trkpt lat="43.1638773" lon="12.9294448"><ele>1064.0</ele><time>2026-04-25T13:00:29.323Z</time></trkpt><trkpt lat="43.163974" lon="12.9295359"><ele>1066.0</ele><time>2026-04-25T13:00:30.318Z</time></trkpt><trkpt lat="43.1640423" lon="12.9296102"><ele>1068.0</ele><time>2026-04-25T13:00:31.327Z</time></trkpt><trkpt lat="43.1640852" lon="12.9297064"><ele>1070.0</ele><time>2026-04-25T13:00:33.33Z</time></trkpt><trkpt lat="43.1640367" lon="12.9297701"><ele>1072.8</ele><time>2026-04-25T13:00:35.327Z</time></trkpt><trkpt lat="43.1639357" lon="12.9297844"><ele>1075.6</ele><time>2026-04-25T13:00:37.33Z</time></trkpt><trkpt lat="43.1638159" lon="12.9297281"><ele>1078.4</ele><time>2026-04-25T13:00:39.326Z</time></trkpt><trkpt lat="43.1637315" lon="12.9296677"><ele>1081.2</ele><time>2026-04-25T13:00:40.33Z</time></trkpt><trkpt lat="43.1636219" lon="12.929604"><ele>1084.0</ele><time>2026-04-25T13:00:41.325Z</time></trkpt><trkpt lat="43.1634885" lon="12.9295489"><ele>1084.0</ele><time>2026-04-25T13:00:42.33Z</time></trkpt><trkpt lat="43.1633407" lon="12.9295118"><ele>1084.0</ele><time>2026-04-25T13:00:43.32Z</time></trkpt><trkpt lat="43.1631817" lon="12.9294963"><ele>1084.0</ele><time>2026-04-25T13:00:44.335Z</time></trkpt><trkpt lat="43.1630199" lon="12.9294943"><ele>1089.0</ele><time>2026-04-25T13:00:45.322Z</time></trkpt><trkpt lat="43.162852" lon="12.9294957"><ele>1094.0</ele><time>2026-04-25T13:00:46.336Z</time></trkpt><trkpt lat="43.1626897" lon="12.9294925"><ele>1099.0</ele><time>2026-04-25T13:00:47.323Z</time></trkpt><trkpt lat="43.1625256" lon="12.92948"><ele>1099.0</ele><time>2026-04-25T13:00:48.337Z</time></trkpt><trkpt lat="43.1623678" lon="12.9294599"><ele>1099.0</ele><time>2026-04-25T13:00:49.325Z</time></trkpt><trkpt lat="43.1622127" lon="12.9294372"><ele>1099.0</ele><time>2026-04-25T13:00:50.328Z</time></trkpt><trkpt lat="43.1620525" lon="12.9294115"><ele>1105.0</ele><time>2026-04-25T13:00:51.332Z</time></trkpt><trkpt lat="43.161891" lon="12.9293778"><ele>1111.0</ele><time>2026-04-25T13:00:52.323Z</time></trkpt><trkpt lat="43.1617288" lon="12.9293396"><ele>1117.0</ele><time>2026-04-25T13:00:53.33Z</time></trkpt><trkpt lat="43.1615682" lon="12.9293023"><ele>1114.0</ele><time>2026-04-25T13:00:54.33Z</time></trkpt><trkpt lat="43.1614049" lon="12.9292715"><ele>1111.0</ele><time>2026-04-25T13:00:55.331Z</time></trkpt><trkpt lat="43.1612478" lon="12.9292475"><ele>1108.0</ele><time>2026-04-25T13:00:56.321Z</time></trkpt><trkpt lat="43.1610934" lon="12.9292209"><ele>1108.0</ele><time>2026-04-25T13:00:57.329Z</time></trkpt><trkpt lat="43.1609512" lon="12.9291885"><ele>1108.0</ele><time>2026-04-25T13:00:58.328Z</time></trkpt><trkpt lat="43.1608217" lon="12.9291436"><ele>1108.0</ele><time>2026-04-25T13:00:59.328Z</time></trkpt><trkpt lat="43.1607073" lon="12.9290831"><ele>1108.0</ele><time>2026-04-25T13:01:00.325Z</time></trkpt><trkpt lat="43.1605982" lon="12.9290103"><ele>1113.5</ele><time>2026-04-25T13:01:01.326Z</time></trkpt><trkpt lat="43.1604832" lon="12.9289328"><ele>1119.0</ele><time>2026-04-25T13:01:02.326Z</time></trkpt><trkpt lat="43.1603629" lon="12.9288647"><ele>1124.5</ele><time>2026-04-25T13:01:03.323Z</time></trkpt><trkpt lat="43.1602402" lon="12.9288086"><ele>1130.0</ele><time>2026-04-25T13:01:04.325Z</time></trkpt><trkpt lat="43.1601171" lon="12.9287676"><ele>1130.0</ele><time>2026-04-25T13:01:05.325Z</time></trkpt><trkpt lat="43.1599893" lon="12.9287509"><ele>1130.0</ele><time>2026-04-25T13:01:06.315Z</time></trkpt><trkpt lat="43.1598527" lon="12.9287573"><ele>1130.0</ele><time>2026-04-25T13:01:07.321Z</time></trkpt><trkpt lat="43.1597098" lon="12.9287806"><ele>1130.0</ele><time>2026-04-25T13:01:08.325Z</time></trkpt><trkpt lat="43.1595593" lon="12.9288004"><ele>1134.5</ele><time>2026-04-25T13:01:09.322Z</time></trkpt><trkpt lat="43.1594053" lon="12.9288086"><ele>1139.0</ele><time>2026-04-25T13:01:10.325Z</time></trkpt><trkpt lat="43.1592593" lon="12.9288051"><ele>1143.5</ele><time>2026-04-25T13:01:11.32Z</time></trkpt><trkpt lat="43.1591266" lon="12.9287872"><ele>1148.0</ele><time>2026-04-25T13:01:12.324Z</time></trkpt><trkpt lat="43.1590059" lon="12.928757"><ele>1153.25</ele><time>2026-04-25T13:01:13.321Z</time></trkpt><trkpt lat="43.1588826" lon="12.9287077"><ele>1158.5</ele><time>2026-04-25T13:01:14.318Z</time></trkpt><trkpt lat="43.1587533" lon="12.9286364"><ele>1163.75</ele><time>2026-04-25T13:01:15.325Z</time></trkpt><trkpt lat="43.1586252" lon="12.9285496"><ele>1169.0</ele><time>2026-04-25T13:01:16.324Z</time></trkpt><trkpt lat="43.158493" lon="12.928455"><ele>1166.3333333333335</ele><time>2026-04-25T13:01:17.324Z</time></trkpt><trkpt lat="43.1583582" lon="12.9283501"><ele>1163.6666666666667</ele><time>2026-04-25T13:01:18.324Z</time></trkpt><trkpt lat="43.1582179" lon="12.9282446"><ele>1161.0</ele><time>2026-04-25T13:01:19.316Z</time></trkpt><trkpt lat="43.1580629" lon="12.9281404"><ele>1161.0</ele><time>2026-04-25T13:01:20.326Z</time></trkpt><trkpt lat="43.157898" lon="12.9280421"><ele>1161.0</ele><time>2026-04-25T13:01:21.316Z</time></trkpt><trkpt lat="43.1577237" lon="12.9279478"><ele>1161.0</ele><time>2026-04-25T13:01:22.326Z</time></trkpt><trkpt lat="43.1575519" lon="12.9278511"><ele>1161.0</ele><time>2026-04-25T13:01:23.316Z</time></trkpt><trkpt lat="43.157387" lon="12.9277476"><ele>1161.0</ele><time>2026-04-25T13:01:24.32Z</time></trkpt><trkpt lat="43.1572363" lon="12.9276444"><ele>1161.0</ele><time>2026-04-25T13:01:25.327Z</time></trkpt><trkpt lat="43.1571011" lon="12.9275463"><ele>1162.5</ele><time>2026-04-25T13:01:26.324Z</time></trkpt><trkpt lat="43.1569828" lon="12.9274506"><ele>1164.0</ele><time>2026-04-25T13:01:27.32Z</time></trkpt><trkpt lat="43.1568801" lon="12.9273472"><ele>1165.5</ele><time>2026-04-25T13:01:28.318Z</time></trkpt><trkpt lat="43.1567883" lon="12.9272254"><ele>1167.0</ele><time>2026-04-25T13:01:29.322Z</time></trkpt><trkpt lat="43.1566964" lon="12.9270807"><ele>1167.0</ele><time>2026-04-25T13:01:30.326Z</time></trkpt><trkpt lat="43.1566022" lon="12.9269149"><ele>1167.0</ele><time>2026-04-25T13:01:31.322Z</time></trkpt><trkpt lat="43.1565102" lon="12.9267557"><ele>1167.0</ele><time>2026-04-25T13:01:32.323Z</time></trkpt><trkpt lat="43.1564274" lon="12.9266033"><ele>1167.0</ele><time>2026-04-25T13:01:33.325Z</time></trkpt><trkpt lat="43.1563462" lon="12.9264689"><ele>1168.25</ele><time>2026-04-25T13:01:34.319Z</time></trkpt><trkpt lat="43.1562552" lon="12.9263456"><ele>1169.5</ele><time>2026-04-25T13:01:35.328Z</time></trkpt><trkpt lat="43.1561453" lon="12.9262244"><ele>1170.75</ele><time>2026-04-25T13:01:36.327Z</time></trkpt><trkpt lat="43.1560147" lon="12.9260973"><ele>1172.0</ele><time>2026-04-25T13:01:37.317Z</time></trkpt><trkpt lat="43.1558694" lon="12.9259594"><ele>1175.3333333333335</ele><time>2026-04-25T13:01:38.317Z</time></trkpt><trkpt lat="43.1557178" lon="12.9258091"><ele>1178.6666666666667</ele><time>2026-04-25T13:01:39.317Z</time></trkpt><trkpt lat="43.1555659" lon="12.92565"><ele>1182.0</ele><time>2026-04-25T13:01:40.319Z</time></trkpt><trkpt lat="43.1554207" lon="12.9254928"><ele>1182.0</ele><time>2026-04-25T13:01:41.32Z</time></trkpt><trkpt lat="43.1552862" lon="12.925352"><ele>1182.0</ele><time>2026-04-25T13:01:42.317Z</time></trkpt><trkpt lat="43.1551565" lon="12.9252233"><ele>1182.0</ele><time>2026-04-25T13:01:43.327Z</time></trkpt><trkpt lat="43.1550206" lon="12.925102"><ele>1185.6666666666667</ele><time>2026-04-25T13:01:44.328Z</time></trkpt><trkpt lat="43.1548821" lon="12.9249884"><ele>1189.3333333333335</ele><time>2026-04-25T13:01:45.327Z</time></trkpt><trkpt lat="43.154746" lon="12.9248608"><ele>1193.0</ele><time>2026-04-25T13:01:46.328Z</time></trkpt><trkpt lat="43.1546127" lon="12.9247174"><ele>1193.0</ele><time>2026-04-25T13:01:47.322Z</time></trkpt><trkpt lat="43.1544804" lon="12.9245665"><ele>1193.0</ele><time>2026-04-25T13:01:48.321Z</time></trkpt><trkpt lat="43.1543496" lon="12.924414"><ele>1193.0</ele><time>2026-04-25T13:01:49.323Z</time></trkpt><trkpt lat="43.1542211" lon="12.9242608"><ele>1201.3333333333335</ele><time>2026-04-25T13:01:50.327Z</time></trkpt><trkpt lat="43.1540995" lon="12.924109"><ele>1209.6666666666667</ele><time>2026-04-25T13:01:51.325Z</time></trkpt><trkpt lat="43.1539808" lon="12.9239514"><ele>1218.0</ele><time>2026-04-25T13:01:52.327Z</time></trkpt><trkpt lat="43.153867" lon="12.9237938"><ele>1218.0</ele><time>2026-04-25T13:01:53.327Z</time></trkpt><trkpt lat="43.153756" lon="12.9236439"><ele>1218.0</ele><time>2026-04-25T13:01:54.324Z</time></trkpt><trkpt lat="43.153648" lon="12.9235042"><ele>1218.0</ele><time>2026-04-25T13:01:55.319Z</time></trkpt><trkpt lat="43.1535486" lon="12.9233672"><ele>1218.0</ele><time>2026-04-25T13:01:56.322Z</time></trkpt><trkpt lat="43.1534543" lon="12.9232175"><ele>1222.0</ele><time>2026-04-25T13:01:57.328Z</time></trkpt><trkpt lat="43.1533607" lon="12.9230509"><ele>1226.0</ele><time>2026-04-25T13:01:58.327Z</time></trkpt><trkpt lat="43.1532706" lon="12.922873"><ele>1230.0</ele><time>2026-04-25T13:01:59.317Z</time></trkpt><trkpt lat="43.1531815" lon="12.9226877"><ele>1223.3333333333333</ele><time>2026-04-25T13:02:00.323Z</time></trkpt><trkpt lat="43.1530915" lon="12.9225035"><ele>1216.6666666666665</ele><time>2026-04-25T13:02:01.322Z</time></trkpt><trkpt lat="43.1530068" lon="12.9223304"><ele>1210.0</ele><time>2026-04-25T13:02:02.323Z</time></trkpt><trkpt lat="43.1529198" lon="12.9221655"><ele>1210.0</ele><time>2026-04-25T13:02:03.317Z</time></trkpt><trkpt lat="43.1528298" lon="12.9220103"><ele>1210.0</ele><time>2026-04-25T13:02:04.315Z</time></trkpt><trkpt lat="43.152736" lon="12.9218613"><ele>1210.0</ele><time>2026-04-25T13:02:05.325Z</time></trkpt><trkpt lat="43.1526305" lon="12.921713"><ele>1210.0</ele><time>2026-04-25T13:02:06.316Z</time></trkpt><trkpt lat="43.1525141" lon="12.9215668"><ele>1213.6666666666665</ele><time>2026-04-25T13:02:07.325Z</time></trkpt><trkpt lat="43.1523921" lon="12.9214193"><ele>1217.3333333333333</ele><time>2026-04-25T13:02:08.317Z</time></trkpt><trkpt lat="43.1522627" lon="12.9212736"><ele>1221.0</ele><time>2026-04-25T13:02:09.322Z</time></trkpt><trkpt lat="43.1521271" lon="12.9211339"><ele>1221.0</ele><time>2026-04-25T13:02:10.325Z</time></trkpt><trkpt lat="43.1519848" lon="12.920997"><ele>1221.0</ele><time>2026-04-25T13:02:11.323Z</time></trkpt><trkpt lat="43.1518375" lon="12.9208634"><ele>1221.0</ele><time>2026-04-25T13:02:12.33Z</time></trkpt><trkpt lat="43.1516857" lon="12.9207342"><ele>1222.0</ele><time>2026-04-25T13:02:13.327Z</time></trkpt><trkpt lat="43.1515294" lon="12.9206098"><ele>1223.0</ele><time>2026-04-25T13:02:14.324Z</time></trkpt><trkpt lat="43.151372" lon="12.9204865"><ele>1224.0</ele><time>2026-04-25T13:02:15.316Z</time></trkpt><trkpt lat="43.1512131" lon="12.9203654"><ele>1224.0</ele><time>2026-04-25T13:02:16.327Z</time></trkpt><trkpt lat="43.1510596" lon="12.9202447"><ele>1224.0</ele><time>2026-04-25T13:02:17.33Z</time></trkpt><trkpt lat="43.1509131" lon="12.920123"><ele>1224.0</ele><time>2026-04-25T13:02:18.323Z</time></trkpt><trkpt lat="43.1507779" lon="12.9199953"><ele>1227.0</ele><time>2026-04-25T13:02:19.325Z</time></trkpt><trkpt lat="43.1506522" lon="12.9198603"><ele>1230.0</ele><time>2026-04-25T13:02:20.315Z</time></trkpt><trkpt lat="43.1505314" lon="12.9197194"><ele>1233.0</ele><time>2026-04-25T13:02:21.326Z</time></trkpt><trkpt lat="43.1504152" lon="12.9195705"><ele>1233.0</ele><time>2026-04-25T13:02:22.321Z</time></trkpt><trkpt lat="43.1503076" lon="12.9194214"><ele>1233.0</ele><time>2026-04-25T13:02:23.317Z</time></trkpt><trkpt lat="43.1502086" lon="12.919281"><ele>1233.0</ele><time>2026-04-25T13:02:24.326Z</time></trkpt><trkpt lat="43.1501202" lon="12.9191509"><ele>1233.0</ele><time>2026-04-25T13:02:25.318Z</time></trkpt><trkpt lat="43.1500428" lon="12.9190211"><ele>1228.8</ele><time>2026-04-25T13:02:26.327Z</time></trkpt><trkpt lat="43.1499808" lon="12.9188905"><ele>1224.6</ele><time>2026-04-25T13:02:27.325Z</time></trkpt><trkpt lat="43.1499466" lon="12.9187703"><ele>1220.4</ele><time>2026-04-25T13:02:28.318Z</time></trkpt><trkpt lat="43.149943" lon="12.9186635"><ele>1216.2</ele><time>2026-04-25T13:02:29.328Z</time></trkpt><trkpt lat="43.1499714" lon="12.918564"><ele>1212.0</ele><time>2026-04-25T13:02:30.328Z</time></trkpt><trkpt lat="43.150021" lon="12.9184584"><ele>1211.0</ele><time>2026-04-25T13:02:31.327Z</time></trkpt><trkpt lat="43.1500912" lon="12.9183551"><ele>1210.0</ele><time>2026-04-25T13:02:32.327Z</time></trkpt><trkpt lat="43.1501736" lon="12.9182445"><ele>1209.0</ele><time>2026-04-25T13:02:33.325Z</time></trkpt><trkpt lat="43.1502478" lon="12.9181284"><ele>1208.0</ele><time>2026-04-25T13:02:34.321Z</time></trkpt><trkpt lat="43.1502918" lon="12.9179937"><ele>1207.0</ele><time>2026-04-25T13:02:35.331Z</time></trkpt><trkpt lat="43.1503041" lon="12.917846"><ele>1207.0</ele><time>2026-04-25T13:02:36.322Z</time></trkpt><trkpt lat="43.1503063" lon="12.9176971"><ele>1207.0</ele><time>2026-04-25T13:02:37.331Z</time></trkpt><trkpt lat="43.1503358" lon="12.9175692"><ele>1207.0</ele><time>2026-04-25T13:02:38.328Z</time></trkpt><trkpt lat="43.1503893" lon="12.9174482"><ele>1207.0</ele><time>2026-04-25T13:02:39.329Z</time></trkpt><trkpt lat="43.1504447" lon="12.917326"><ele>1207.0</ele><time>2026-04-25T13:02:40.32Z</time></trkpt><trkpt lat="43.150507" lon="12.9171918"><ele>1208.0</ele><time>2026-04-25T13:02:41.329Z</time></trkpt><trkpt lat="43.1505608" lon="12.9170636"><ele>1209.0</ele><time>2026-04-25T13:02:42.332Z</time></trkpt><trkpt lat="43.1505915" lon="12.916946"><ele>1210.0</ele><time>2026-04-25T13:02:43.322Z</time></trkpt><trkpt lat="43.1506039" lon="12.9168529"><ele>1211.0</ele><time>2026-04-25T13:02:44.332Z</time></trkpt><trkpt lat="43.1505639" lon="12.9167249"><ele>1212.0</ele><time>2026-04-25T13:02:46.333Z</time></trkpt><trkpt lat="43.1504763" lon="12.9167162"><ele>1212.0</ele><time>2026-04-25T13:02:48.335Z</time></trkpt><trkpt lat="43.1503637" lon="12.9168285"><ele>1212.0</ele><time>2026-04-25T13:02:50.333Z</time></trkpt><trkpt lat="43.1502983" lon="12.9169123"><ele>1212.0</ele><time>2026-04-25T13:02:51.328Z</time></trkpt><trkpt lat="43.150238" lon="12.9170101"><ele>1212.0</ele><time>2026-04-25T13:02:52.334Z</time></trkpt><trkpt lat="43.1501804" lon="12.917116"><ele>1212.0</ele><time>2026-04-25T13:02:53.331Z</time></trkpt><trkpt lat="43.1501296" lon="12.9172103"><ele>1212.0</ele><time>2026-04-25T13:02:54.333Z</time></trkpt><trkpt lat="43.1500757" lon="12.9172783"><ele>1212.0</ele><time>2026-04-25T13:02:55.335Z</time></trkpt><trkpt lat="43.1500098" lon="12.9173163"><ele>1212.0</ele><time>2026-04-25T13:02:56.334Z</time></trkpt><trkpt lat="43.149932" lon="12.9173246"><ele>1212.0</ele><time>2026-04-25T13:02:57.33Z</time></trkpt><trkpt lat="43.1498444" lon="12.9173161"><ele>1212.0</ele><time>2026-04-25T13:02:58.33Z</time></trkpt><trkpt lat="43.1497522" lon="12.9172901"><ele>1212.0</ele><time>2026-04-25T13:02:59.326Z</time></trkpt><trkpt lat="43.1496678" lon="12.9172353"><ele>1213.0</ele><time>2026-04-25T13:03:00.33Z</time></trkpt><trkpt lat="43.1495957" lon="12.9171494"><ele>1214.0</ele><time>2026-04-25T13:03:01.331Z</time></trkpt><trkpt lat="43.1495298" lon="12.9170409"><ele>1215.0</ele><time>2026-04-25T13:03:02.334Z</time></trkpt><trkpt lat="43.1494673" lon="12.9169117"><ele>1216.0</ele><time>2026-04-25T13:03:03.322Z</time></trkpt><trkpt lat="43.1493972" lon="12.9167768"><ele>1217.0</ele><time>2026-04-25T13:03:04.329Z</time></trkpt><trkpt lat="43.1493166" lon="12.9166502"><ele>1217.0</ele><time>2026-04-25T13:03:05.329Z</time></trkpt><trkpt lat="43.1492289" lon="12.9165348"><ele>1217.0</ele><time>2026-04-25T13:03:06.329Z</time></trkpt><trkpt lat="43.149138" lon="12.9164299"><ele>1217.0</ele><time>2026-04-25T13:03:07.335Z</time></trkpt><trkpt lat="43.1490491" lon="12.9163373"><ele>1217.0</ele><time>2026-04-25T13:03:08.328Z</time></trkpt><trkpt lat="43.1489615" lon="12.9162572"><ele>1218.8</ele><time>2026-04-25T13:03:09.333Z</time></trkpt><trkpt lat="43.1488727" lon="12.9161849"><ele>1220.6</ele><time>2026-04-25T13:03:10.331Z</time></trkpt><trkpt lat="43.1487799" lon="12.9161173"><ele>1222.3999999999999</ele><time>2026-04-25T13:03:11.324Z</time></trkpt><trkpt lat="43.1486849" lon="12.9160627"><ele>1224.2</ele><time>2026-04-25T13:03:12.333Z</time></trkpt><trkpt lat="43.1485902" lon="12.9160189"><ele>1226.0</ele><time>2026-04-25T13:03:13.329Z</time></trkpt><trkpt lat="43.1484943" lon="12.9159846"><ele>1226.0</ele><time>2026-04-25T13:03:14.331Z</time></trkpt><trkpt lat="43.1483997" lon="12.9159544"><ele>1226.0</ele><time>2026-04-25T13:03:15.335Z</time></trkpt><trkpt lat="43.1483042" lon="12.9159283"><ele>1226.0</ele><time>2026-04-25T13:03:16.32Z</time></trkpt><trkpt lat="43.1482114" lon="12.9159039"><ele>1226.0</ele><time>2026-04-25T13:03:17.332Z</time></trkpt><trkpt lat="43.1481147" lon="12.915884"><ele>1226.0</ele><time>2026-04-25T13:03:18.335Z</time></trkpt><trkpt lat="43.1480136" lon="12.9158645"><ele>1224.5</ele><time>2026-04-25T13:03:19.334Z</time></trkpt><trkpt lat="43.1479072" lon="12.9158497"><ele>1223.0</ele><time>2026-04-25T13:03:20.327Z</time></trkpt><trkpt lat="43.1477933" lon="12.9158433"><ele>1221.5</ele><time>2026-04-25T13:03:21.336Z</time></trkpt><trkpt lat="43.1476748" lon="12.9158424"><ele>1220.0</ele><time>2026-04-25T13:03:22.338Z</time></trkpt><trkpt lat="43.1475564" lon="12.9158408"><ele>1220.0</ele><time>2026-04-25T13:03:23.325Z</time></trkpt><trkpt lat="43.1474373" lon="12.9158412"><ele>1220.0</ele><time>2026-04-25T13:03:24.334Z</time></trkpt><trkpt lat="43.1473164" lon="12.9158455"><ele>1220.0</ele><time>2026-04-25T13:03:25.329Z</time></trkpt><trkpt lat="43.1471925" lon="12.915848"><ele>1220.0</ele><time>2026-04-25T13:03:26.333Z</time></trkpt><trkpt lat="43.1470657" lon="12.9158475"><ele>1221.0</ele><time>2026-04-25T13:03:27.332Z</time></trkpt><trkpt lat="43.1469391" lon="12.9158474"><ele>1222.0</ele><time>2026-04-25T13:03:28.332Z</time></trkpt><trkpt lat="43.1468131" lon="12.9158463"><ele>1223.0</ele><time>2026-04-25T13:03:29.334Z</time></trkpt><trkpt lat="43.1466874" lon="12.915845"><ele>1224.0</ele><time>2026-04-25T13:03:30.335Z</time></trkpt><trkpt lat="43.1465626" lon="12.915842"><ele>1224.0</ele><time>2026-04-25T13:03:31.336Z</time></trkpt><trkpt lat="43.1464405" lon="12.9158408"><ele>1224.0</ele><time>2026-04-25T13:03:32.341Z</time></trkpt><trkpt lat="43.1463242" lon="12.9158504"><ele>1224.0</ele><time>2026-04-25T13:03:33.335Z</time></trkpt><trkpt lat="43.1462107" lon="12.9158726"><ele>1224.0</ele><time>2026-04-25T13:03:34.337Z</time></trkpt><trkpt lat="43.1460959" lon="12.9159095"><ele>1225.0</ele><time>2026-04-25T13:03:35.328Z</time></trkpt><trkpt lat="43.1459818" lon="12.9159612"><ele>1226.0</ele><time>2026-04-25T13:03:36.324Z</time></trkpt><trkpt lat="43.1458685" lon="12.916023"><ele>1227.0</ele><time>2026-04-25T13:03:37.33Z</time></trkpt><trkpt lat="43.1457547" lon="12.9160946"><ele>1228.0</ele><time>2026-04-25T13:03:38.325Z</time></trkpt><trkpt lat="43.1456401" lon="12.9161741"><ele>1228.0</ele><time>2026-04-25T13:03:39.337Z</time></trkpt><trkpt lat="43.1455287" lon="12.9162642"><ele>1228.0</ele><time>2026-04-25T13:03:40.321Z</time></trkpt><trkpt lat="43.1454185" lon="12.9163664"><ele>1228.0</ele><time>2026-04-25T13:03:41.322Z</time></trkpt><trkpt lat="43.1453076" lon="12.916477"><ele>1228.0</ele><time>2026-04-25T13:03:42.339Z</time></trkpt><trkpt lat="43.1451923" lon="12.9165953"><ele>1228.0</ele><time>2026-04-25T13:03:43.321Z</time></trkpt><trkpt lat="43.1450717" lon="12.9167252"><ele>1228.0</ele><time>2026-04-25T13:03:44.333Z</time></trkpt><trkpt lat="43.1449489" lon="12.916862"><ele>1228.0</ele><time>2026-04-25T13:03:45.335Z</time></trkpt><trkpt lat="43.1448298" lon="12.9169878"><ele>1227.5</ele><time>2026-04-25T13:03:46.337Z</time></trkpt><trkpt lat="43.1447149" lon="12.9170919"><ele>1227.0</ele><time>2026-04-25T13:03:47.323Z</time></trkpt><trkpt lat="43.1446047" lon="12.9171741"><ele>1226.5</ele><time>2026-04-25T13:03:48.322Z</time></trkpt><trkpt lat="43.1444991" lon="12.9172315"><ele>1226.0</ele><time>2026-04-25T13:03:49.332Z</time></trkpt><trkpt lat="43.1443945" lon="12.9172519"><ele>1226.0</ele><time>2026-04-25T13:03:50.335Z</time></trkpt><trkpt lat="43.1443023" lon="12.9172352"><ele>1226.0</ele><time>2026-04-25T13:03:51.333Z</time></trkpt><trkpt lat="43.1442274" lon="12.9171841"><ele>1226.0</ele><time>2026-04-25T13:03:52.324Z</time></trkpt><trkpt lat="43.1441666" lon="12.917101"><ele>1226.0</ele><time>2026-04-25T13:03:53.322Z</time></trkpt><trkpt lat="43.1441129" lon="12.9169935"><ele>1226.0</ele><time>2026-04-25T13:03:54.333Z</time></trkpt><trkpt lat="43.1440655" lon="12.9168606"><ele>1222.0</ele><time>2026-04-25T13:03:55.334Z</time></trkpt><trkpt lat="43.1440105" lon="12.9167043"><ele>1218.0</ele><time>2026-04-25T13:03:56.334Z</time></trkpt><trkpt lat="43.1439502" lon="12.9165277"><ele>1214.0</ele><time>2026-04-25T13:03:57.33Z</time></trkpt><trkpt lat="43.1438852" lon="12.9163503"><ele>1210.0</ele><time>2026-04-25T13:03:58.333Z</time></trkpt><trkpt lat="43.1438173" lon="12.9161781"><ele>1210.0</ele><time>2026-04-25T13:03:59.337Z</time></trkpt><trkpt lat="43.1437446" lon="12.9160082"><ele>1210.0</ele><time>2026-04-25T13:04:00.338Z</time></trkpt><trkpt lat="43.1436741" lon="12.9158442"><ele>1210.0</ele><time>2026-04-25T13:04:01.334Z</time></trkpt><trkpt lat="43.1436081" lon="12.9156823"><ele>1210.0</ele><time>2026-04-25T13:04:02.33Z</time></trkpt><trkpt lat="43.1435473" lon="12.9155281"><ele>1209.75</ele><time>2026-04-25T13:04:03.338Z</time></trkpt><trkpt lat="43.1434892" lon="12.9153825"><ele>1209.5</ele><time>2026-04-25T13:04:04.338Z</time></trkpt><trkpt lat="43.1434311" lon="12.9152419"><ele>1209.25</ele><time>2026-04-25T13:04:05.339Z</time></trkpt><trkpt lat="43.1433698" lon="12.9151095"><ele>1209.0</ele><time>2026-04-25T13:04:06.33Z</time></trkpt><trkpt lat="43.1433096" lon="12.9149835"><ele>1209.0</ele><time>2026-04-25T13:04:07.337Z</time></trkpt><trkpt lat="43.1432474" lon="12.9148677"><ele>1209.0</ele><time>2026-04-25T13:04:08.338Z</time></trkpt><trkpt lat="43.1431849" lon="12.9147622"><ele>1209.0</ele><time>2026-04-25T13:04:09.337Z</time></trkpt><trkpt lat="43.14312" lon="12.9146656"><ele>1209.0</ele><time>2026-04-25T13:04:10.327Z</time></trkpt><trkpt lat="43.1430508" lon="12.9145648"><ele>1209.0</ele><time>2026-04-25T13:04:11.332Z</time></trkpt><trkpt lat="43.1429741" lon="12.9144566"><ele>1206.75</ele><time>2026-04-25T13:04:12.334Z</time></trkpt><trkpt lat="43.1428924" lon="12.9143465"><ele>1204.5</ele><time>2026-04-25T13:04:13.337Z</time></trkpt><trkpt lat="43.1428114" lon="12.9142343"><ele>1202.25</ele><time>2026-04-25T13:04:14.324Z</time></trkpt><trkpt lat="43.1427334" lon="12.9141224"><ele>1200.0</ele><time>2026-04-25T13:04:15.324Z</time></trkpt><trkpt lat="43.1426572" lon="12.91401"><ele>1200.0</ele><time>2026-04-25T13:04:16.327Z</time></trkpt><trkpt lat="43.1425878" lon="12.9138929"><ele>1200.0</ele><time>2026-04-25T13:04:17.338Z</time></trkpt><trkpt lat="43.142532" lon="12.9137616"><ele>1200.0</ele><time>2026-04-25T13:04:18.323Z</time></trkpt><trkpt lat="43.1424926" lon="12.9136137"><ele>1200.0</ele><time>2026-04-25T13:04:19.331Z</time></trkpt><trkpt lat="43.1424656" lon="12.9134565"><ele>1199.75</ele><time>2026-04-25T13:04:20.338Z</time></trkpt><trkpt lat="43.1424429" lon="12.9133018"><ele>1199.5</ele><time>2026-04-25T13:04:21.335Z</time></trkpt><trkpt lat="43.1424286" lon="12.9131462"><ele>1199.25</ele><time>2026-04-25T13:04:22.328Z</time></trkpt><trkpt lat="43.1424181" lon="12.9129924"><ele>1199.0</ele><time>2026-04-25T13:04:23.328Z</time></trkpt><trkpt lat="43.1424058" lon="12.9128429"><ele>1199.0</ele><time>2026-04-25T13:04:24.334Z</time></trkpt><trkpt lat="43.142391" lon="12.9126953"><ele>1199.0</ele><time>2026-04-25T13:04:25.334Z</time></trkpt><trkpt lat="43.1423772" lon="12.912552"><ele>1199.0</ele><time>2026-04-25T13:04:26.335Z</time></trkpt><trkpt lat="43.1423657" lon="12.9124187"><ele>1199.0</ele><time>2026-04-25T13:04:27.326Z</time></trkpt><trkpt lat="43.1423538" lon="12.9122925"><ele>1199.0</ele><time>2026-04-25T13:04:28.335Z</time></trkpt><trkpt lat="43.1423376" lon="12.9121689"><ele>1199.1666666666667</ele><time>2026-04-25T13:04:29.329Z</time></trkpt><trkpt lat="43.1423102" lon="12.9120542"><ele>1199.3333333333335</ele><time>2026-04-25T13:04:30.336Z</time></trkpt><trkpt lat="43.1422725" lon="12.9119552"><ele>1199.5</ele><time>2026-04-25T13:04:31.33Z</time></trkpt><trkpt lat="43.1422236" lon="12.9118624"><ele>1199.6666666666667</ele><time>2026-04-25T13:04:32.341Z</time></trkpt><trkpt lat="43.1421667" lon="12.9117751"><ele>1199.8333333333333</ele><time>2026-04-25T13:04:33.341Z</time></trkpt><trkpt lat="43.1421085" lon="12.9116898"><ele>1200.0</ele><time>2026-04-25T13:04:34.339Z</time></trkpt><trkpt lat="43.1420474" lon="12.9116106"><ele>1198.6666666666667</ele><time>2026-04-25T13:04:35.338Z</time></trkpt><trkpt lat="43.1419777" lon="12.9115458"><ele>1197.3333333333333</ele><time>2026-04-25T13:04:36.334Z</time></trkpt><trkpt lat="43.1418987" lon="12.9114953"><ele>1196.0</ele><time>2026-04-25T13:04:37.328Z</time></trkpt><trkpt lat="43.1418134" lon="12.9114581"><ele>1194.6666666666665</ele><time>2026-04-25T13:04:38.336Z</time></trkpt><trkpt lat="43.1417268" lon="12.9114312"><ele>1193.3333333333333</ele><time>2026-04-25T13:04:39.332Z</time></trkpt><trkpt lat="43.1416393" lon="12.911416"><ele>1192.0</ele><time>2026-04-25T13:04:40.332Z</time></trkpt><trkpt lat="43.1415533" lon="12.9114053"><ele>1190.6666666666665</ele><time>2026-04-25T13:04:41.335Z</time></trkpt><trkpt lat="43.1414681" lon="12.9113993"><ele>1189.3333333333333</ele><time>2026-04-25T13:04:42.339Z</time></trkpt><trkpt lat="43.1413856" lon="12.9113996"><ele>1188.0</ele><time>2026-04-25T13:04:43.335Z</time></trkpt><trkpt lat="43.1413107" lon="12.911407"><ele>1186.6666666666667</ele><time>2026-04-25T13:04:44.326Z</time></trkpt><trkpt lat="43.1412436" lon="12.911419"><ele>1185.3333333333335</ele><time>2026-04-25T13:04:45.328Z</time></trkpt><trkpt lat="43.1411805" lon="12.9114355"><ele>1184.0</ele><time>2026-04-25T13:04:46.332Z</time></trkpt><trkpt lat="43.1410821" lon="12.9114774"><ele>1184.0</ele><time>2026-04-25T13:04:48.336Z</time></trkpt><trkpt lat="43.1410088" lon="12.9115022"><ele>1184.0</ele><time>2026-04-25T13:04:50.331Z</time></trkpt><trkpt lat="43.14099" lon="12.9114049"><ele>1184.0</ele><time>2026-04-25T13:04:54.328Z</time></trkpt><trkpt lat="43.1410492" lon="12.911368"><ele>1184.0</ele><time>2026-04-25T13:04:56.326Z</time></trkpt><trkpt lat="43.141114" lon="12.9112767"><ele>1184.0</ele><time>2026-04-25T13:04:58.327Z</time></trkpt><trkpt lat="43.1412062" lon="12.9111485"><ele>1184.0</ele><time>2026-04-25T13:05:00.333Z</time></trkpt><trkpt lat="43.1412689" lon="12.9110676"><ele>1184.0</ele><time>2026-04-25T13:05:01.334Z</time></trkpt><trkpt lat="43.1413363" lon="12.9109722"><ele>1184.0</ele><time>2026-04-25T13:05:02.34Z</time></trkpt><trkpt lat="43.1414047" lon="12.9108655"><ele>1184.0</ele><time>2026-04-25T13:05:03.334Z</time></trkpt><trkpt lat="43.1414739" lon="12.9107481"><ele>1184.0</ele><time>2026-04-25T13:05:04.327Z</time></trkpt><trkpt lat="43.1415472" lon="12.9106221"><ele>1184.0</ele><time>2026-04-25T13:05:05.331Z</time></trkpt><trkpt lat="43.1416189" lon="12.9105004"><ele>1183.8</ele><time>2026-04-25T13:05:06.338Z</time></trkpt><trkpt lat="43.1416805" lon="12.9103799"><ele>1183.6000000000001</ele><time>2026-04-25T13:05:07.335Z</time></trkpt><trkpt lat="43.1417355" lon="12.9102522"><ele>1183.4</ele><time>2026-04-25T13:05:08.336Z</time></trkpt><trkpt lat="43.141786" lon="12.9101234"><ele>1183.2</ele><time>2026-04-25T13:05:09.334Z</time></trkpt><trkpt lat="43.1418241" lon="12.9099952"><ele>1183.0</ele><time>2026-04-25T13:05:10.325Z</time></trkpt><trkpt lat="43.1418496" lon="12.9098653"><ele>1182.0</ele><time>2026-04-25T13:05:11.333Z</time></trkpt><trkpt lat="43.1418623" lon="12.9097401"><ele>1181.0</ele><time>2026-04-25T13:05:12.33Z</time></trkpt><trkpt lat="43.1418606" lon="12.9096167"><ele>1180.0</ele><time>2026-04-25T13:05:13.337Z</time></trkpt><trkpt lat="43.1418428" lon="12.9094981"><ele>1179.0</ele><time>2026-04-25T13:05:14.327Z</time></trkpt><trkpt lat="43.1418129" lon="12.9093836"><ele>1178.0</ele><time>2026-04-25T13:05:15.331Z</time></trkpt><trkpt lat="43.1417799" lon="12.909272"><ele>1177.0</ele><time>2026-04-25T13:05:16.332Z</time></trkpt><trkpt lat="43.1417465" lon="12.9091616"><ele>1176.2</ele><time>2026-04-25T13:05:17.328Z</time></trkpt><trkpt lat="43.1417091" lon="12.9090506"><ele>1175.4</ele><time>2026-04-25T13:05:18.334Z</time></trkpt><trkpt lat="43.141669" lon="12.908933"><ele>1174.6</ele><time>2026-04-25T13:05:19.33Z</time></trkpt><trkpt lat="43.1416325" lon="12.9088143"><ele>1173.8</ele><time>2026-04-25T13:05:20.334Z</time></trkpt><trkpt lat="43.1416002" lon="12.9086927"><ele>1173.0</ele><time>2026-04-25T13:05:21.325Z</time></trkpt><trkpt lat="43.1415713" lon="12.9085653"><ele>1170.4</ele><time>2026-04-25T13:05:22.338Z</time></trkpt><trkpt lat="43.1415428" lon="12.9084376"><ele>1167.8</ele><time>2026-04-25T13:05:23.328Z</time></trkpt><trkpt lat="43.1415122" lon="12.9083053"><ele>1165.2</ele><time>2026-04-25T13:05:24.33Z</time></trkpt><trkpt lat="43.141483" lon="12.9081684"><ele>1162.6</ele><time>2026-04-25T13:05:25.329Z</time></trkpt><trkpt lat="43.1414623" lon="12.908031"><ele>1160.0</ele><time>2026-04-25T13:05:26.335Z</time></trkpt><trkpt lat="43.1414503" lon="12.9078945"><ele>1158.6</ele><time>2026-04-25T13:05:27.337Z</time></trkpt><trkpt lat="43.1414444" lon="12.9077605"><ele>1157.2</ele><time>2026-04-25T13:05:28.329Z</time></trkpt><trkpt lat="43.1414441" lon="12.9076217"><ele>1155.8</ele><time>2026-04-25T13:05:29.333Z</time></trkpt><trkpt lat="43.1414433" lon="12.907477"><ele>1154.4</ele><time>2026-04-25T13:05:30.335Z</time></trkpt><trkpt lat="43.1414433" lon="12.9073327"><ele>1153.0</ele><time>2026-04-25T13:05:31.331Z</time></trkpt><trkpt lat="43.1414412" lon="12.9071922"><ele>1151.8</ele><time>2026-04-25T13:05:32.339Z</time></trkpt><trkpt lat="43.1414407" lon="12.9070548"><ele>1150.6</ele><time>2026-04-25T13:05:33.335Z</time></trkpt><trkpt lat="43.1414389" lon="12.9069263"><ele>1149.4</ele><time>2026-04-25T13:05:34.333Z</time></trkpt><trkpt lat="43.1414373" lon="12.906808"><ele>1148.2</ele><time>2026-04-25T13:05:35.326Z</time></trkpt><trkpt lat="43.141439" lon="12.9066899"><ele>1147.0</ele><time>2026-04-25T13:05:36.332Z</time></trkpt><trkpt lat="43.1414435" lon="12.9065728"><ele>1145.6666666666665</ele><time>2026-04-25T13:05:37.339Z</time></trkpt><trkpt lat="43.1414479" lon="12.9064556"><ele>1144.3333333333333</ele><time>2026-04-25T13:05:38.333Z</time></trkpt><trkpt lat="43.1414546" lon="12.9063406"><ele>1143.0</ele><time>2026-04-25T13:05:39.332Z</time></trkpt><trkpt lat="43.1414637" lon="12.9062268"><ele>1141.6666666666667</ele><time>2026-04-25T13:05:40.333Z</time></trkpt><trkpt lat="43.1414736" lon="12.9061162"><ele>1140.3333333333335</ele><time>2026-04-25T13:05:41.333Z</time></trkpt><trkpt lat="43.141486" lon="12.9060132"><ele>1139.0</ele><time>2026-04-25T13:05:42.338Z</time></trkpt><trkpt lat="43.1414993" lon="12.9059209"><ele>1139.6000000000001</ele><time>2026-04-25T13:05:43.335Z</time></trkpt><trkpt lat="43.1415173" lon="12.9058343"><ele>1140.2</ele><time>2026-04-25T13:05:44.333Z</time></trkpt><trkpt lat="43.1415416" lon="12.9057543"><ele>1140.8000000000002</ele><time>2026-04-25T13:05:45.329Z</time></trkpt><trkpt lat="43.1416127" lon="12.9056162"><ele>1141.4</ele><time>2026-04-25T13:05:47.323Z</time></trkpt><trkpt lat="43.1416663" lon="12.9054987"><ele>1142.0</ele><time>2026-04-25T13:05:49.326Z</time></trkpt><trkpt lat="43.1416483" lon="12.9053684"><ele>1142.0</ele><time>2026-04-25T13:05:51.336Z</time></trkpt><trkpt lat="43.1415831" lon="12.9052278"><ele>1142.0</ele><time>2026-04-25T13:05:53.324Z</time></trkpt><trkpt lat="43.1415496" lon="12.9051435"><ele>1142.0</ele><time>2026-04-25T13:05:54.336Z</time></trkpt><trkpt lat="43.1415161" lon="12.9050496"><ele>1142.0</ele><time>2026-04-25T13:05:55.325Z</time></trkpt><trkpt lat="43.1414779" lon="12.9049462"><ele>1142.0</ele><time>2026-04-25T13:05:56.334Z</time></trkpt><trkpt lat="43.1414407" lon="12.9048367"><ele>1142.0</ele><time>2026-04-25T13:05:57.333Z</time></trkpt><trkpt lat="43.1414054" lon="12.9047263"><ele>1137.3333333333335</ele><time>2026-04-25T13:05:58.333Z</time></trkpt><trkpt lat="43.1413743" lon="12.9046201"><ele>1132.6666666666667</ele><time>2026-04-25T13:05:59.336Z</time></trkpt><trkpt lat="43.1413498" lon="12.9045194"><ele>1128.0</ele><time>2026-04-25T13:06:00.336Z</time></trkpt><trkpt lat="43.1413395" lon="12.9044249"><ele>1123.3333333333333</ele><time>2026-04-25T13:06:01.339Z</time></trkpt><trkpt lat="43.1413513" lon="12.9043358"><ele>1118.6666666666665</ele><time>2026-04-25T13:06:02.334Z</time></trkpt><trkpt lat="43.1413838" lon="12.9042607"><ele>1114.0</ele><time>2026-04-25T13:06:03.333Z</time></trkpt><trkpt lat="43.1414781" lon="12.9041634"><ele>1115.5</ele><time>2026-04-25T13:06:05.324Z</time></trkpt><trkpt lat="43.1415532" lon="12.9041308"><ele>1117.0</ele><time>2026-04-25T13:06:07.342Z</time></trkpt><trkpt lat="43.1416338" lon="12.9041101"><ele>1118.5</ele><time>2026-04-25T13:06:10.325Z</time></trkpt><trkpt lat="43.1417091" lon="12.9040898"><ele>1120.0</ele><time>2026-04-25T13:06:24.336Z</time></trkpt><trkpt lat="43.1417967" lon="12.9040837"><ele>1121.5</ele><time>2026-04-25T13:06:28.326Z</time></trkpt><trkpt lat="43.1418725" lon="12.9040873"><ele>1123.0</ele><time>2026-04-25T13:06:30.336Z</time></trkpt><trkpt lat="43.1419922" lon="12.9040944"><ele>1123.0</ele><time>2026-04-25T13:06:32.325Z</time></trkpt><trkpt lat="43.1420621" lon="12.9040983"><ele>1123.0</ele><time>2026-04-25T13:06:33.338Z</time></trkpt><trkpt lat="43.1421359" lon="12.9041049"><ele>1123.0</ele><time>2026-04-25T13:06:34.329Z</time></trkpt><trkpt lat="43.142213" lon="12.9041191"><ele>1123.0</ele><time>2026-04-25T13:06:35.33Z</time></trkpt><trkpt lat="43.1422888" lon="12.9041373"><ele>1123.0</ele><time>2026-04-25T13:06:36.337Z</time></trkpt><trkpt lat="43.1423639" lon="12.9041574"><ele>1123.0</ele><time>2026-04-25T13:06:37.336Z</time></trkpt><trkpt lat="43.1424399" lon="12.9041732"><ele>1122.0</ele><time>2026-04-25T13:06:38.338Z</time></trkpt><trkpt lat="43.1425145" lon="12.9041895"><ele>1121.0</ele><time>2026-04-25T13:06:39.328Z</time></trkpt><trkpt lat="43.1425884" lon="12.9042091"><ele>1120.0</ele><time>2026-04-25T13:06:40.33Z</time></trkpt><trkpt lat="43.1426634" lon="12.9042276"><ele>1119.0</ele><time>2026-04-25T13:06:41.333Z</time></trkpt><trkpt lat="43.1427392" lon="12.9042454"><ele>1118.0</ele><time>2026-04-25T13:06:42.342Z</time></trkpt><trkpt lat="43.1428157" lon="12.9042615"><ele>1117.0</ele><time>2026-04-25T13:06:43.334Z</time></trkpt><trkpt lat="43.1428936" lon="12.9042763"><ele>1117.5</ele><time>2026-04-25T13:06:44.334Z</time></trkpt><trkpt lat="43.1429696" lon="12.9042945"><ele>1118.0</ele><time>2026-04-25T13:06:45.337Z</time></trkpt><trkpt lat="43.1430428" lon="12.9043161"><ele>1118.5</ele><time>2026-04-25T13:06:46.333Z</time></trkpt><trkpt lat="43.143114" lon="12.9043397"><ele>1119.0</ele><time>2026-04-25T13:06:47.335Z</time></trkpt><trkpt lat="43.1431848" lon="12.9043676"><ele>1119.5</ele><time>2026-04-25T13:06:48.335Z</time></trkpt><trkpt lat="43.1432588" lon="12.9044007"><ele>1120.0</ele><time>2026-04-25T13:06:49.332Z</time></trkpt><trkpt lat="43.1433344" lon="12.904438"><ele>1120.0</ele><time>2026-04-25T13:06:50.333Z</time></trkpt><trkpt lat="43.1434108" lon="12.9044728"><ele>1120.0</ele><time>2026-04-25T13:06:51.334Z</time></trkpt><trkpt lat="43.1434851" lon="12.9044953"><ele>1120.0</ele><time>2026-04-25T13:06:52.341Z</time></trkpt><trkpt lat="43.1435552" lon="12.9044986"><ele>1120.0</ele><time>2026-04-25T13:06:53.334Z</time></trkpt><trkpt lat="43.1436185" lon="12.9044831"><ele>1120.0</ele><time>2026-04-25T13:06:54.328Z</time></trkpt><trkpt lat="43.1436849" lon="12.9044397"><ele>1120.0</ele><time>2026-04-25T13:06:55.326Z</time></trkpt><trkpt lat="43.143752" lon="12.9043735"><ele>1120.0</ele><time>2026-04-25T13:06:56.333Z</time></trkpt><trkpt lat="43.1438094" lon="12.9042933"><ele>1118.0</ele><time>2026-04-25T13:06:57.334Z</time></trkpt><trkpt lat="43.1438526" lon="12.9042067"><ele>1116.0</ele><time>2026-04-25T13:06:58.335Z</time></trkpt><trkpt lat="43.1438842" lon="12.9041038"><ele>1114.0</ele><time>2026-04-25T13:06:59.328Z</time></trkpt><trkpt lat="43.1439083" lon="12.9039895"><ele>1112.0</ele><time>2026-04-25T13:07:00.329Z</time></trkpt><trkpt lat="43.1439299" lon="12.9038776"><ele>1110.0</ele><time>2026-04-25T13:07:01.334Z</time></trkpt><trkpt lat="43.1439482" lon="12.9037608"><ele>1108.0</ele><time>2026-04-25T13:07:02.336Z</time></trkpt><trkpt lat="43.1439611" lon="12.903654"><ele>1108.0</ele><time>2026-04-25T13:07:03.338Z</time></trkpt><trkpt lat="43.1439671" lon="12.9035519"><ele>1108.0</ele><time>2026-04-25T13:07:04.334Z</time></trkpt><trkpt lat="43.1439635" lon="12.9034547"><ele>1108.0</ele><time>2026-04-25T13:07:05.337Z</time></trkpt><trkpt lat="43.1439549" lon="12.9033628"><ele>1108.0</ele><time>2026-04-25T13:07:06.333Z</time></trkpt><trkpt lat="43.1439426" lon="12.9032764"><ele>1108.0</ele><time>2026-04-25T13:07:07.326Z</time></trkpt><trkpt lat="43.1439093" lon="12.9031167"><ele>1108.0</ele><time>2026-04-25T13:07:09.334Z</time></trkpt><trkpt lat="43.1438568" lon="12.9029737"><ele>1106.0</ele><time>2026-04-25T13:07:11.333Z</time></trkpt><trkpt lat="43.1437941" lon="12.9028488"><ele>1104.0</ele><time>2026-04-25T13:07:13.33Z</time></trkpt><trkpt lat="43.14372" lon="12.9027399"><ele>1102.0</ele><time>2026-04-25T13:07:15.336Z</time></trkpt><trkpt lat="43.14365" lon="12.9026491"><ele>1100.0</ele><time>2026-04-25T13:07:17.332Z</time></trkpt><trkpt lat="43.14359" lon="12.9025474"><ele>1098.0</ele><time>2026-04-25T13:07:19.337Z</time></trkpt><trkpt lat="43.143532" lon="12.9024322"><ele>1096.6</ele><time>2026-04-25T13:07:21.324Z</time></trkpt><trkpt lat="43.1434879" lon="12.9023528"><ele>1095.1999999999998</ele><time>2026-04-25T13:07:22.344Z</time></trkpt><trkpt lat="43.1434326" lon="12.902253"><ele>1093.8</ele><time>2026-04-25T13:07:23.338Z</time></trkpt><trkpt lat="43.1433771" lon="12.9021349"><ele>1092.3999999999999</ele><time>2026-04-25T13:07:24.337Z</time></trkpt><trkpt lat="43.1433205" lon="12.9020133"><ele>1091.0</ele><time>2026-04-25T13:07:25.325Z</time></trkpt><trkpt lat="43.1432668" lon="12.9018939"><ele>1091.0</ele><time>2026-04-25T13:07:26.337Z</time></trkpt><trkpt lat="43.1432197" lon="12.9017794"><ele>1091.0</ele><time>2026-04-25T13:07:27.337Z</time></trkpt><trkpt lat="43.1431789" lon="12.9016706"><ele>1091.0</ele><time>2026-04-25T13:07:28.325Z</time></trkpt><trkpt lat="43.1431396" lon="12.9015715"><ele>1091.0</ele><time>2026-04-25T13:07:29.332Z</time></trkpt><trkpt lat="43.1431024" lon="12.9014836"><ele>1091.0</ele><time>2026-04-25T13:07:30.337Z</time></trkpt><trkpt lat="43.1430649" lon="12.9014076"><ele>1091.0</ele><time>2026-04-25T13:07:31.334Z</time></trkpt><trkpt lat="43.1430227" lon="12.9013412"><ele>1089.2857142857142</ele><time>2026-04-25T13:07:32.341Z</time></trkpt><trkpt lat="43.142975" lon="12.9012777"><ele>1087.5714285714287</ele><time>2026-04-25T13:07:33.335Z</time></trkpt><trkpt lat="43.1429236" lon="12.9012139"><ele>1085.857142857143</ele><time>2026-04-25T13:07:34.332Z</time></trkpt><trkpt lat="43.1428679" lon="12.9011516"><ele>1084.142857142857</ele><time>2026-04-25T13:07:35.323Z</time></trkpt><trkpt lat="43.1428089" lon="12.9010849"><ele>1082.4285714285713</ele><time>2026-04-25T13:07:36.324Z</time></trkpt><trkpt lat="43.1427506" lon="12.9010127"><ele>1080.7142857142858</ele><time>2026-04-25T13:07:37.335Z</time></trkpt><trkpt lat="43.1426965" lon="12.9009328"><ele>1079.0</ele><time>2026-04-25T13:07:38.332Z</time></trkpt><trkpt lat="43.142652" lon="12.9008499"><ele>1078.6000000000001</ele><time>2026-04-25T13:07:39.337Z</time></trkpt><trkpt lat="43.142616" lon="12.9007531"><ele>1078.2</ele><time>2026-04-25T13:07:40.337Z</time></trkpt><trkpt lat="43.142577" lon="12.9006475"><ele>1077.8000000000002</ele><time>2026-04-25T13:07:41.34Z</time></trkpt><trkpt lat="43.1425354" lon="12.9005312"><ele>1077.4</ele><time>2026-04-25T13:07:42.328Z</time></trkpt><trkpt lat="43.1424882" lon="12.9004053"><ele>1077.0</ele><time>2026-04-25T13:07:43.327Z</time></trkpt><trkpt lat="43.1424389" lon="12.900271"><ele>1077.0</ele><time>2026-04-25T13:07:44.338Z</time></trkpt><trkpt lat="43.1423928" lon="12.900137"><ele>1077.0</ele><time>2026-04-25T13:07:45.325Z</time></trkpt><trkpt lat="43.1423513" lon="12.9000094"><ele>1077.0</ele><time>2026-04-25T13:07:46.338Z</time></trkpt><trkpt lat="43.142313" lon="12.8998859"><ele>1077.0</ele><time>2026-04-25T13:07:47.338Z</time></trkpt><trkpt lat="43.1422764" lon="12.8997643"><ele>1077.0</ele><time>2026-04-25T13:07:48.325Z</time></trkpt><trkpt lat="43.1422431" lon="12.899647"><ele>1070.2</ele><time>2026-04-25T13:07:49.339Z</time></trkpt><trkpt lat="43.1422109" lon="12.8995239"><ele>1063.4</ele><time>2026-04-25T13:07:50.333Z</time></trkpt><trkpt lat="43.1421832" lon="12.8993944"><ele>1056.6</ele><time>2026-04-25T13:07:51.339Z</time></trkpt><trkpt lat="43.1421565" lon="12.8992642"><ele>1049.8</ele><time>2026-04-25T13:07:52.345Z</time></trkpt><trkpt lat="43.1421323" lon="12.8991381"><ele>1043.0</ele><time>2026-04-25T13:07:53.326Z</time></trkpt><trkpt lat="43.1421092" lon="12.8990135"><ele>1042.2</ele><time>2026-04-25T13:07:54.339Z</time></trkpt><trkpt lat="43.1420867" lon="12.8988873"><ele>1041.4</ele><time>2026-04-25T13:07:55.336Z</time></trkpt><trkpt lat="43.1420638" lon="12.8987557"><ele>1040.6000000000001</ele><time>2026-04-25T13:07:56.336Z</time></trkpt><trkpt lat="43.1420451" lon="12.8986173"><ele>1039.8</ele><time>2026-04-25T13:07:57.325Z</time></trkpt><trkpt lat="43.142029" lon="12.8984786"><ele>1039.0</ele><time>2026-04-25T13:07:58.341Z</time></trkpt><trkpt lat="43.1420165" lon="12.8983416"><ele>1039.0</ele><time>2026-04-25T13:07:59.336Z</time></trkpt><trkpt lat="43.1420069" lon="12.8982037"><ele>1039.0</ele><time>2026-04-25T13:08:00.325Z</time></trkpt><trkpt lat="43.1419972" lon="12.8980693"><ele>1039.0</ele><time>2026-04-25T13:08:01.336Z</time></trkpt><trkpt lat="43.1419913" lon="12.8979402"><ele>1039.0</ele><time>2026-04-25T13:08:02.34Z</time></trkpt><trkpt lat="43.1419875" lon="12.8978112"><ele>1039.0</ele><time>2026-04-25T13:08:03.34Z</time></trkpt><trkpt lat="43.1419842" lon="12.8976858"><ele>1039.1666666666665</ele><time>2026-04-25T13:08:04.339Z</time></trkpt><trkpt lat="43.1419818" lon="12.8975702"><ele>1039.3333333333333</ele><time>2026-04-25T13:08:05.335Z</time></trkpt><trkpt lat="43.1419854" lon="12.8974688"><ele>1039.5</ele><time>2026-04-25T13:08:06.329Z</time></trkpt><trkpt lat="43.1420048" lon="12.897379"><ele>1039.6666666666667</ele><time>2026-04-25T13:08:07.339Z</time></trkpt><trkpt lat="43.1420444" lon="12.897304"><ele>1039.8333333333335</ele><time>2026-04-25T13:08:08.339Z</time></trkpt><trkpt lat="43.1421524" lon="12.8972194"><ele>1040.0</ele><time>2026-04-25T13:08:10.33Z</time></trkpt><trkpt lat="43.1422176" lon="12.8972144"><ele>1040.0</ele><time>2026-04-25T13:08:11.337Z</time></trkpt><trkpt lat="43.1423362" lon="12.8972668"><ele>1040.0</ele><time>2026-04-25T13:08:13.329Z</time></trkpt><trkpt lat="43.1424122" lon="12.8973144"><ele>1040.0</ele><time>2026-04-25T13:08:14.326Z</time></trkpt><trkpt lat="43.1424949" lon="12.8973653"><ele>1040.0</ele><time>2026-04-25T13:08:15.336Z</time></trkpt><trkpt lat="43.1425852" lon="12.897408"><ele>1040.0</ele><time>2026-04-25T13:08:16.333Z</time></trkpt><trkpt lat="43.1426817" lon="12.897457"><ele>1042.4</ele><time>2026-04-25T13:08:17.335Z</time></trkpt><trkpt lat="43.1427823" lon="12.8975111"><ele>1044.8</ele><time>2026-04-25T13:08:18.332Z</time></trkpt><trkpt lat="43.1428785" lon="12.8975683"><ele>1047.2</ele><time>2026-04-25T13:08:19.325Z</time></trkpt><trkpt lat="43.1429752" lon="12.8976231"><ele>1049.6</ele><time>2026-04-25T13:08:20.325Z</time></trkpt><trkpt lat="43.143074" lon="12.897676"><ele>1052.0</ele><time>2026-04-25T13:08:21.336Z</time></trkpt><trkpt lat="43.1431724" lon="12.8977313"><ele>1053.5</ele><time>2026-04-25T13:08:22.333Z</time></trkpt><trkpt lat="43.1432789" lon="12.8977962"><ele>1055.0</ele><time>2026-04-25T13:08:23.334Z</time></trkpt><trkpt lat="43.1433953" lon="12.8978761"><ele>1056.5</ele><time>2026-04-25T13:08:24.335Z</time></trkpt><trkpt lat="43.1435182" lon="12.8979616"><ele>1058.0</ele><time>2026-04-25T13:08:25.333Z</time></trkpt><trkpt lat="43.1436374" lon="12.8980413"><ele>1058.0</ele><time>2026-04-25T13:08:26.332Z</time></trkpt><trkpt lat="43.1437553" lon="12.8981152"><ele>1058.0</ele><time>2026-04-25T13:08:27.33Z</time></trkpt><trkpt lat="43.1438762" lon="12.8981845"><ele>1058.0</ele><time>2026-04-25T13:08:28.335Z</time></trkpt><trkpt lat="43.143995" lon="12.8982511"><ele>1058.0</ele><time>2026-04-25T13:08:29.333Z</time></trkpt><trkpt lat="43.1441102" lon="12.898313"><ele>1058.0</ele><time>2026-04-25T13:08:30.334Z</time></trkpt><trkpt lat="43.1442227" lon="12.8983656"><ele>1058.0</ele><time>2026-04-25T13:08:31.334Z</time></trkpt><trkpt lat="43.1443371" lon="12.8984047"><ele>1058.0</ele><time>2026-04-25T13:08:32.337Z</time></trkpt><trkpt lat="43.144455" lon="12.8984311"><ele>1058.0</ele><time>2026-04-25T13:08:33.325Z</time></trkpt><trkpt lat="43.1445723" lon="12.8984492"><ele>1058.0</ele><time>2026-04-25T13:08:34.334Z</time></trkpt><trkpt lat="43.1446896" lon="12.8984591"><ele>1058.0</ele><time>2026-04-25T13:08:35.334Z</time></trkpt><trkpt lat="43.1448047" lon="12.8984592"><ele>1058.0</ele><time>2026-04-25T13:08:36.336Z</time></trkpt><trkpt lat="43.1449185" lon="12.8984539"><ele>1058.0</ele><time>2026-04-25T13:08:37.336Z</time></trkpt><trkpt lat="43.1450292" lon="12.8984396"><ele>1049.8</ele><time>2026-04-25T13:08:38.333Z</time></trkpt><trkpt lat="43.1451343" lon="12.8984004"><ele>1041.6</ele><time>2026-04-25T13:08:39.339Z</time></trkpt><trkpt lat="43.1452376" lon="12.8983586"><ele>1033.4</ele><time>2026-04-25T13:08:40.333Z</time></trkpt><trkpt lat="43.1453408" lon="12.8983229"><ele>1025.2</ele><time>2026-04-25T13:08:41.325Z</time></trkpt><trkpt lat="43.1454417" lon="12.8982962"><ele>1017.0</ele><time>2026-04-25T13:08:42.345Z</time></trkpt><trkpt lat="43.1455381" lon="12.8982727"><ele>1017.0</ele><time>2026-04-25T13:08:43.329Z</time></trkpt><trkpt lat="43.1456237" lon="12.8982415"><ele>1017.0</ele><time>2026-04-25T13:08:44.334Z</time></trkpt><trkpt lat="43.1457014" lon="12.8981931"><ele>1017.0</ele><time>2026-04-25T13:08:45.336Z</time></trkpt><trkpt lat="43.1457754" lon="12.8981294"><ele>1017.0</ele><time>2026-04-25T13:08:46.331Z</time></trkpt><trkpt lat="43.1458336" lon="12.8980643"><ele>1017.0</ele><time>2026-04-25T13:08:47.325Z</time></trkpt><trkpt lat="43.1459207" lon="12.8979453"><ele>1016.0</ele><time>2026-04-25T13:08:49.331Z</time></trkpt><trkpt lat="43.1459749" lon="12.897864"><ele>1015.0</ele><time>2026-04-25T13:08:50.34Z</time></trkpt><trkpt lat="43.1460286" lon="12.8977626"><ele>1014.0</ele><time>2026-04-25T13:08:51.34Z</time></trkpt><trkpt lat="43.1460737" lon="12.8976483"><ele>1013.0</ele><time>2026-04-25T13:08:52.329Z</time></trkpt><trkpt lat="43.1461199" lon="12.8975301"><ele>1012.0</ele><time>2026-04-25T13:08:53.333Z</time></trkpt><trkpt lat="43.1461701" lon="12.8974142"><ele>1010.4000000000001</ele><time>2026-04-25T13:08:54.339Z</time></trkpt><trkpt lat="43.1462211" lon="12.8972941"><ele>1008.8000000000001</ele><time>2026-04-25T13:08:55.337Z</time></trkpt><trkpt lat="43.1462758" lon="12.8971667"><ele>1007.2</ele><time>2026-04-25T13:08:56.329Z</time></trkpt><trkpt lat="43.1463308" lon="12.897046"><ele>1005.6</ele><time>2026-04-25T13:08:57.326Z</time></trkpt><trkpt lat="43.146384" lon="12.8969304"><ele>1004.0</ele><time>2026-04-25T13:08:58.335Z</time></trkpt><trkpt lat="43.1464348" lon="12.8968179"><ele>1003.0</ele><time>2026-04-25T13:08:59.33Z</time></trkpt><trkpt lat="43.1464828" lon="12.8967016"><ele>1002.0000000000001</ele><time>2026-04-25T13:09:00.336Z</time></trkpt><trkpt lat="43.1465265" lon="12.8965828"><ele>1001.0000000000001</ele><time>2026-04-25T13:09:01.326Z</time></trkpt><trkpt lat="43.1465632" lon="12.8964626"><ele>1000.0</ele><time>2026-04-25T13:09:02.341Z</time></trkpt><trkpt lat="43.1465928" lon="12.896338"><ele>999.0</ele><time>2026-04-25T13:09:03.328Z</time></trkpt><trkpt lat="43.1466186" lon="12.8962075"><ele>997.0</ele><time>2026-04-25T13:09:04.329Z</time></trkpt><trkpt lat="43.1466399" lon="12.8960739"><ele>995.0000000000001</ele><time>2026-04-25T13:09:05.338Z</time></trkpt><trkpt lat="43.1466593" lon="12.8959371"><ele>993.0000000000001</ele><time>2026-04-25T13:09:06.336Z</time></trkpt><trkpt lat="43.1466782" lon="12.8958001"><ele>991.0</ele><time>2026-04-25T13:09:07.338Z</time></trkpt><trkpt lat="43.1466964" lon="12.8956621"><ele>989.0</ele><time>2026-04-25T13:09:08.332Z</time></trkpt><trkpt lat="43.1467144" lon="12.8955219"><ele>988.6</ele><time>2026-04-25T13:09:09.328Z</time></trkpt><trkpt lat="43.1467305" lon="12.8953826"><ele>988.2</ele><time>2026-04-25T13:09:10.335Z</time></trkpt><trkpt lat="43.1467422" lon="12.8952514"><ele>987.8000000000001</ele><time>2026-04-25T13:09:11.335Z</time></trkpt><trkpt lat="43.1467449" lon="12.895128"><ele>987.4000000000001</ele><time>2026-04-25T13:09:12.344Z</time></trkpt><trkpt lat="43.1467413" lon="12.8950119"><ele>987.0</ele><time>2026-04-25T13:09:13.338Z</time></trkpt><trkpt lat="43.1467286" lon="12.8948988"><ele>986.4000000000001</ele><time>2026-04-25T13:09:14.336Z</time></trkpt><trkpt lat="43.1467031" lon="12.894786"><ele>985.8000000000001</ele><time>2026-04-25T13:09:15.333Z</time></trkpt><trkpt lat="43.1466608" lon="12.8946654"><ele>985.2</ele><time>2026-04-25T13:09:16.338Z</time></trkpt><trkpt lat="43.1466089" lon="12.8945403"><ele>984.6</ele><time>2026-04-25T13:09:17.338Z</time></trkpt><trkpt lat="43.1465538" lon="12.8944162"><ele>984.0</ele><time>2026-04-25T13:09:18.337Z</time></trkpt><trkpt lat="43.1464926" lon="12.8942976"><ele>983.2</ele><time>2026-04-25T13:09:19.338Z</time></trkpt><trkpt lat="43.146429" lon="12.8941868"><ele>982.4000000000001</ele><time>2026-04-25T13:09:20.337Z</time></trkpt><trkpt lat="43.1463645" lon="12.8940822"><ele>981.6</ele><time>2026-04-25T13:09:21.331Z</time></trkpt><trkpt lat="43.1462993" lon="12.8939783"><ele>980.8</ele><time>2026-04-25T13:09:22.339Z</time></trkpt><trkpt lat="43.1462357" lon="12.8938721"><ele>980.0</ele><time>2026-04-25T13:09:23.341Z</time></trkpt><trkpt lat="43.1461732" lon="12.8937576"><ele>980.0</ele><time>2026-04-25T13:09:24.328Z</time></trkpt><trkpt lat="43.1461099" lon="12.8936317"><ele>980.0</ele><time>2026-04-25T13:09:25.338Z</time></trkpt><trkpt lat="43.146051" lon="12.8935035"><ele>980.0</ele><time>2026-04-25T13:09:26.338Z</time></trkpt><trkpt lat="43.1459949" lon="12.8933741"><ele>980.0</ele><time>2026-04-25T13:09:27.335Z</time></trkpt><trkpt lat="43.1459396" lon="12.8932453"><ele>980.0</ele><time>2026-04-25T13:09:28.329Z</time></trkpt><trkpt lat="43.1458836" lon="12.8931223"><ele>978.2</ele><time>2026-04-25T13:09:29.336Z</time></trkpt><trkpt lat="43.1458262" lon="12.8930056"><ele>976.4</ele><time>2026-04-25T13:09:30.338Z</time></trkpt><trkpt lat="43.1457691" lon="12.8928918"><ele>974.5999999999999</ele><time>2026-04-25T13:09:31.339Z</time></trkpt><trkpt lat="43.1457177" lon="12.8927773"><ele>972.8</ele><time>2026-04-25T13:09:32.341Z</time></trkpt><trkpt lat="43.1456698" lon="12.8926576"><ele>971.0</ele><time>2026-04-25T13:09:33.338Z</time></trkpt><trkpt lat="43.145626" lon="12.8925352"><ele>965.0000000000001</ele><time>2026-04-25T13:09:34.333Z</time></trkpt><trkpt lat="43.1455899" lon="12.8924252"><ele>959.0</ele><time>2026-04-25T13:09:35.34Z</time></trkpt><trkpt lat="43.1455677" lon="12.8923228"><ele>953.0</ele><time>2026-04-25T13:09:36.329Z</time></trkpt><trkpt lat="43.1455636" lon="12.8922197"><ele>947.0</ele><time>2026-04-25T13:09:37.326Z</time></trkpt><trkpt lat="43.1455799" lon="12.8921075"><ele>941.0000000000001</ele><time>2026-04-25T13:09:38.335Z</time></trkpt><trkpt lat="43.1456164" lon="12.8919926"><ele>935.0</ele><time>2026-04-25T13:09:39.337Z</time></trkpt><trkpt lat="43.1456591" lon="12.8918862"><ele>935.0000000000001</ele><time>2026-04-25T13:09:40.329Z</time></trkpt><trkpt lat="43.145699" lon="12.8917861"><ele>935.0</ele><time>2026-04-25T13:09:41.338Z</time></trkpt><trkpt lat="43.145739" lon="12.8916889"><ele>935.0</ele><time>2026-04-25T13:09:42.34Z</time></trkpt><trkpt lat="43.1457896" lon="12.8915999"><ele>935.0</ele><time>2026-04-25T13:09:43.338Z</time></trkpt><trkpt lat="43.1458576" lon="12.891519"><ele>935.0000000000001</ele><time>2026-04-25T13:09:44.327Z</time></trkpt><trkpt lat="43.145938" lon="12.8914571"><ele>935.0</ele><time>2026-04-25T13:09:45.327Z</time></trkpt><trkpt lat="43.1460273" lon="12.8914161"><ele>939.6</ele><time>2026-04-25T13:09:46.338Z</time></trkpt><trkpt lat="43.1461192" lon="12.8913988"><ele>944.2</ele><time>2026-04-25T13:09:47.338Z</time></trkpt><trkpt lat="43.1462108" lon="12.8913958"><ele>948.8</ele><time>2026-04-25T13:09:48.338Z</time></trkpt><trkpt lat="43.1463062" lon="12.8914053"><ele>953.4</ele><time>2026-04-25T13:09:49.33Z</time></trkpt><trkpt lat="43.1463997" lon="12.8914284"><ele>958.0</ele><time>2026-04-25T13:09:50.334Z</time></trkpt><trkpt lat="43.1464885" lon="12.8914608"><ele>957.4</ele><time>2026-04-25T13:09:51.336Z</time></trkpt><trkpt lat="43.1465767" lon="12.8915026"><ele>956.8</ele><time>2026-04-25T13:09:52.33Z</time></trkpt><trkpt lat="43.1466672" lon="12.8915481"><ele>956.2</ele><time>2026-04-25T13:09:53.339Z</time></trkpt><trkpt lat="43.1467602" lon="12.8915927"><ele>955.6</ele><time>2026-04-25T13:09:54.326Z</time></trkpt><trkpt lat="43.1468523" lon="12.8916408"><ele>955.0</ele><time>2026-04-25T13:09:55.326Z</time></trkpt><trkpt lat="43.1469428" lon="12.8916924"><ele>955.0</ele><time>2026-04-25T13:09:56.333Z</time></trkpt><trkpt lat="43.1470328" lon="12.8917476"><ele>955.0</ele><time>2026-04-25T13:09:57.336Z</time></trkpt><trkpt lat="43.1471215" lon="12.8918074"><ele>955.0</ele><time>2026-04-25T13:09:58.335Z</time></trkpt><trkpt lat="43.1472073" lon="12.8918831"><ele>955.0</ele><time>2026-04-25T13:09:59.328Z</time></trkpt><trkpt lat="43.1472913" lon="12.8919738"><ele>955.0</ele><time>2026-04-25T13:10:00.334Z</time></trkpt><trkpt lat="43.147372" lon="12.892067"><ele>955.4</ele><time>2026-04-25T13:10:01.337Z</time></trkpt><trkpt lat="43.1474471" lon="12.892167"><ele>955.8</ele><time>2026-04-25T13:10:02.335Z</time></trkpt><trkpt lat="43.1475176" lon="12.8922808"><ele>956.2</ele><time>2026-04-25T13:10:03.327Z</time></trkpt><trkpt lat="43.1475896" lon="12.892402"><ele>956.6</ele><time>2026-04-25T13:10:04.328Z</time></trkpt><trkpt lat="43.1476646" lon="12.8925297"><ele>957.0</ele><time>2026-04-25T13:10:05.331Z</time></trkpt><trkpt lat="43.1477392" lon="12.8926603"><ele>957.0</ele><time>2026-04-25T13:10:06.319Z</time></trkpt><trkpt lat="43.147808" lon="12.8927908"><ele>957.0</ele><time>2026-04-25T13:10:07.33Z</time></trkpt><trkpt lat="43.1478788" lon="12.8929142"><ele>957.0</ele><time>2026-04-25T13:10:08.33Z</time></trkpt><trkpt lat="43.1479481" lon="12.8930341"><ele>957.0</ele><time>2026-04-25T13:10:09.334Z</time></trkpt><trkpt lat="43.1480144" lon="12.8931566"><ele>957.0</ele><time>2026-04-25T13:10:10.326Z</time></trkpt><trkpt lat="43.1480768" lon="12.8932832"><ele>957.0</ele><time>2026-04-25T13:10:11.325Z</time></trkpt><trkpt lat="43.1481356" lon="12.8934082"><ele>957.0</ele><time>2026-04-25T13:10:12.343Z</time></trkpt><trkpt lat="43.1481906" lon="12.8935307"><ele>957.0</ele><time>2026-04-25T13:10:13.325Z</time></trkpt><trkpt lat="43.1482403" lon="12.8936506"><ele>957.0</ele><time>2026-04-25T13:10:14.333Z</time></trkpt><trkpt lat="43.1482813" lon="12.8937658"><ele>953.0</ele><time>2026-04-25T13:10:15.333Z</time></trkpt><trkpt lat="43.1483122" lon="12.893873"><ele>949.0</ele><time>2026-04-25T13:10:16.335Z</time></trkpt><trkpt lat="43.1483324" lon="12.8939662"><ele>945.0</ele><time>2026-04-25T13:10:17.337Z</time></trkpt><trkpt lat="43.1483696" lon="12.8940896"><ele>941.0</ele><time>2026-04-25T13:10:19.33Z</time></trkpt><trkpt lat="43.1484422" lon="12.8940865"><ele>937.0</ele><time>2026-04-25T13:10:21.336Z</time></trkpt><trkpt lat="43.1484863" lon="12.8939868"><ele>933.0</ele><time>2026-04-25T13:10:23.325Z</time></trkpt><trkpt lat="43.1484845" lon="12.8938187"><ele>933.0</ele><time>2026-04-25T13:10:25.343Z</time></trkpt><trkpt lat="43.1484834" lon="12.8937019"><ele>933.0</ele><time>2026-04-25T13:10:26.334Z</time></trkpt><trkpt lat="43.1484874" lon="12.8935808"><ele>933.0</ele><time>2026-04-25T13:10:27.331Z</time></trkpt><trkpt lat="43.1484945" lon="12.8934567"><ele>933.0</ele><time>2026-04-25T13:10:28.335Z</time></trkpt><trkpt lat="43.1484982" lon="12.8933383"><ele>933.0</ele><time>2026-04-25T13:10:29.335Z</time></trkpt><trkpt lat="43.1485016" lon="12.8932235"><ele>933.0</ele><time>2026-04-25T13:10:30.337Z</time></trkpt><trkpt lat="43.1484989" lon="12.8931103"><ele>932.5</ele><time>2026-04-25T13:10:31.335Z</time></trkpt><trkpt lat="43.1484913" lon="12.8930023"><ele>932.0</ele><time>2026-04-25T13:10:32.32Z</time></trkpt><trkpt lat="43.1484847" lon="12.8928976"><ele>931.5</ele><time>2026-04-25T13:10:33.336Z</time></trkpt><trkpt lat="43.1484768" lon="12.8927949"><ele>931.0</ele><time>2026-04-25T13:10:34.337Z</time></trkpt><trkpt lat="43.1484718" lon="12.8926903"><ele>930.5</ele><time>2026-04-25T13:10:35.322Z</time></trkpt><trkpt lat="43.1484735" lon="12.8925791"><ele>930.0</ele><time>2026-04-25T13:10:36.327Z</time></trkpt><trkpt lat="43.1484814" lon="12.8924672"><ele>928.1666666666666</ele><time>2026-04-25T13:10:37.336Z</time></trkpt><trkpt lat="43.1484922" lon="12.8923579"><ele>926.3333333333333</ele><time>2026-04-25T13:10:38.334Z</time></trkpt><trkpt lat="43.148501" lon="12.8922487"><ele>924.5</ele><time>2026-04-25T13:10:39.338Z</time></trkpt><trkpt lat="43.1485078" lon="12.8921317"><ele>922.6666666666666</ele><time>2026-04-25T13:10:40.333Z</time></trkpt><trkpt lat="43.1485163" lon="12.8920094"><ele>920.8333333333333</ele><time>2026-04-25T13:10:41.326Z</time></trkpt><trkpt lat="43.148528" lon="12.8918862"><ele>919.0</ele><time>2026-04-25T13:10:42.341Z</time></trkpt><trkpt lat="43.148542" lon="12.8917624"><ele>917.0</ele><time>2026-04-25T13:10:43.335Z</time></trkpt><trkpt lat="43.1485589" lon="12.8916397"><ele>915.0000000000001</ele><time>2026-04-25T13:10:44.324Z</time></trkpt><trkpt lat="43.1485778" lon="12.8915177"><ele>913.0000000000001</ele><time>2026-04-25T13:10:45.332Z</time></trkpt><trkpt lat="43.1485966" lon="12.8913957"><ele>911.0</ele><time>2026-04-25T13:10:46.326Z</time></trkpt><trkpt lat="43.1486149" lon="12.8912718"><ele>909.0</ele><time>2026-04-25T13:10:47.333Z</time></trkpt><trkpt lat="43.1486306" lon="12.8911456"><ele>909.0</ele><time>2026-04-25T13:10:48.326Z</time></trkpt><trkpt lat="43.1486422" lon="12.8910187"><ele>909.0000000000001</ele><time>2026-04-25T13:10:49.332Z</time></trkpt><trkpt lat="43.1486488" lon="12.8908909"><ele>909.0000000000001</ele><time>2026-04-25T13:10:50.334Z</time></trkpt><trkpt lat="43.1486502" lon="12.8907672"><ele>909.0</ele><time>2026-04-25T13:10:51.323Z</time></trkpt><trkpt lat="43.148644" lon="12.8906431"><ele>909.0</ele><time>2026-04-25T13:10:52.337Z</time></trkpt><trkpt lat="43.1486302" lon="12.8905061"><ele>907.6</ele><time>2026-04-25T13:10:53.335Z</time></trkpt><trkpt lat="43.1486144" lon="12.8903612"><ele>906.2</ele><time>2026-04-25T13:10:54.333Z</time></trkpt><trkpt lat="43.1485946" lon="12.8902208"><ele>904.8000000000001</ele><time>2026-04-25T13:10:55.335Z</time></trkpt><trkpt lat="43.1485746" lon="12.8900861"><ele>903.4000000000001</ele><time>2026-04-25T13:10:56.337Z</time></trkpt><trkpt lat="43.1485573" lon="12.8899533"><ele>902.0</ele><time>2026-04-25T13:10:57.334Z</time></trkpt><trkpt lat="43.1485442" lon="12.8898205"><ele>900.0</ele><time>2026-04-25T13:10:58.333Z</time></trkpt><trkpt lat="43.1485313" lon="12.8896891"><ele>898.0</ele><time>2026-04-25T13:10:59.332Z</time></trkpt><trkpt lat="43.1485132" lon="12.8895567"><ele>896.0</ele><time>2026-04-25T13:11:00.334Z</time></trkpt><trkpt lat="43.1484908" lon="12.8894254"><ele>894.0</ele><time>2026-04-25T13:11:01.337Z</time></trkpt><trkpt lat="43.1484623" lon="12.8892863"><ele>892.0</ele><time>2026-04-25T13:11:02.331Z</time></trkpt><trkpt lat="43.14843" lon="12.8891484"><ele>894.0</ele><time>2026-04-25T13:11:03.334Z</time></trkpt><trkpt lat="43.1483944" lon="12.8890152"><ele>896.0</ele><time>2026-04-25T13:11:04.336Z</time></trkpt><trkpt lat="43.1483582" lon="12.8888897"><ele>898.0</ele><time>2026-04-25T13:11:05.334Z</time></trkpt><trkpt lat="43.1483137" lon="12.8887728"><ele>900.0</ele><time>2026-04-25T13:11:06.336Z</time></trkpt><trkpt lat="43.1482558" lon="12.8886644"><ele>902.0</ele><time>2026-04-25T13:11:07.336Z</time></trkpt><trkpt lat="43.1481901" lon="12.8885627"><ele>902.0</ele><time>2026-04-25T13:11:08.336Z</time></trkpt><trkpt lat="43.148123" lon="12.8884654"><ele>902.0</ele><time>2026-04-25T13:11:09.329Z</time></trkpt><trkpt lat="43.1480514" lon="12.8883708"><ele>902.0</ele><time>2026-04-25T13:11:10.334Z</time></trkpt><trkpt lat="43.1479728" lon="12.8882801"><ele>902.0</ele><time>2026-04-25T13:11:11.337Z</time></trkpt><trkpt lat="43.1478941" lon="12.8881915"><ele>902.0</ele><time>2026-04-25T13:11:12.338Z</time></trkpt><trkpt lat="43.1478115" lon="12.8881031"><ele>901.2</ele><time>2026-04-25T13:11:13.335Z</time></trkpt><trkpt lat="43.1477228" lon="12.8880177"><ele>900.4000000000001</ele><time>2026-04-25T13:11:14.326Z</time></trkpt><trkpt lat="43.1476302" lon="12.8879354"><ele>899.5999999999999</ele><time>2026-04-25T13:11:15.335Z</time></trkpt><trkpt lat="43.147536" lon="12.8878557"><ele>898.8</ele><time>2026-04-25T13:11:16.334Z</time></trkpt><trkpt lat="43.1474456" lon="12.8877755"><ele>898.0</ele><time>2026-04-25T13:11:17.326Z</time></trkpt><trkpt lat="43.1473536" lon="12.8876947"><ele>898.0</ele><time>2026-04-25T13:11:18.333Z</time></trkpt><trkpt lat="43.1472625" lon="12.8876117"><ele>898.0</ele><time>2026-04-25T13:11:19.334Z</time></trkpt><trkpt lat="43.1471705" lon="12.8875279"><ele>898.0</ele><time>2026-04-25T13:11:20.335Z</time></trkpt><trkpt lat="43.1470783" lon="12.8874407"><ele>898.0</ele><time>2026-04-25T13:11:21.335Z</time></trkpt><trkpt lat="43.146985" lon="12.887355"><ele>898.0</ele><time>2026-04-25T13:11:22.329Z</time></trkpt><trkpt lat="43.1468915" lon="12.8872703"><ele>893.5</ele><time>2026-04-25T13:11:23.323Z</time></trkpt><trkpt lat="43.1467965" lon="12.887188"><ele>889.0</ele><time>2026-04-25T13:11:24.334Z</time></trkpt><trkpt lat="43.1467021" lon="12.8871052"><ele>884.5</ele><time>2026-04-25T13:11:25.321Z</time></trkpt><trkpt lat="43.1466059" lon="12.8870221"><ele>880.0</ele><time>2026-04-25T13:11:26.332Z</time></trkpt><trkpt lat="43.1465085" lon="12.8869407"><ele>880.0</ele><time>2026-04-25T13:11:27.333Z</time></trkpt><trkpt lat="43.1464125" lon="12.8868622"><ele>880.0</ele><time>2026-04-25T13:11:28.335Z</time></trkpt><trkpt lat="43.1463174" lon="12.8867873"><ele>880.0</ele><time>2026-04-25T13:11:29.333Z</time></trkpt><trkpt lat="43.1462231" lon="12.8867131"><ele>880.0</ele><time>2026-04-25T13:11:30.322Z</time></trkpt><trkpt lat="43.1461272" lon="12.8866387"><ele>880.0</ele><time>2026-04-25T13:11:31.321Z</time></trkpt><trkpt lat="43.1460267" lon="12.8865638"><ele>872.75</ele><time>2026-04-25T13:11:32.334Z</time></trkpt><trkpt lat="43.1459233" lon="12.8864915"><ele>865.5</ele><time>2026-04-25T13:11:33.322Z</time></trkpt><trkpt lat="43.1458193" lon="12.8864217"><ele>858.25</ele><time>2026-04-25T13:11:34.333Z</time></trkpt><trkpt lat="43.1457182" lon="12.8863486"><ele>851.0</ele><time>2026-04-25T13:11:35.336Z</time></trkpt><trkpt lat="43.1456191" lon="12.8862742"><ele>851.0</ele><time>2026-04-25T13:11:36.324Z</time></trkpt><trkpt lat="43.145521" lon="12.8862019"><ele>851.0</ele><time>2026-04-25T13:11:37.334Z</time></trkpt><trkpt lat="43.1454223" lon="12.8861327"><ele>851.0</ele><time>2026-04-25T13:11:38.333Z</time></trkpt><trkpt lat="43.1453209" lon="12.8860754"><ele>851.0</ele><time>2026-04-25T13:11:39.335Z</time></trkpt><trkpt lat="43.1452185" lon="12.8860266"><ele>851.0</ele><time>2026-04-25T13:11:40.333Z</time></trkpt><trkpt lat="43.1451164" lon="12.8859858"><ele>851.0</ele><time>2026-04-25T13:11:41.333Z</time></trkpt><trkpt lat="43.1450153" lon="12.8859494"><ele>851.0</ele><time>2026-04-25T13:11:42.337Z</time></trkpt><trkpt lat="43.1449152" lon="12.8859134"><ele>851.0</ele><time>2026-04-25T13:11:43.334Z</time></trkpt><trkpt lat="43.1448174" lon="12.8858794"><ele>851.0</ele><time>2026-04-25T13:11:44.322Z</time></trkpt><trkpt lat="43.1447177" lon="12.8858546"><ele>851.0</ele><time>2026-04-25T13:11:45.332Z</time></trkpt><trkpt lat="43.1446168" lon="12.8858449"><ele>847.8</ele><time>2026-04-25T13:11:46.322Z</time></trkpt><trkpt lat="43.1445133" lon="12.8858516"><ele>844.5999999999999</ele><time>2026-04-25T13:11:47.334Z</time></trkpt><trkpt lat="43.1444139" lon="12.8858643"><ele>841.4</ele><time>2026-04-25T13:11:48.324Z</time></trkpt><trkpt lat="43.1443153" lon="12.8858841"><ele>838.2</ele><time>2026-04-25T13:11:49.326Z</time></trkpt><trkpt lat="43.1442182" lon="12.8859111"><ele>835.0</ele><time>2026-04-25T13:11:50.333Z</time></trkpt><trkpt lat="43.1441228" lon="12.8859398"><ele>824.6</ele><time>2026-04-25T13:11:51.336Z</time></trkpt><trkpt lat="43.1440277" lon="12.8859684"><ele>814.2</ele><time>2026-04-25T13:11:52.337Z</time></trkpt><trkpt lat="43.1439344" lon="12.8860012"><ele>803.8</ele><time>2026-04-25T13:11:53.331Z</time></trkpt><trkpt lat="43.1438415" lon="12.8860425"><ele>793.4</ele><time>2026-04-25T13:11:54.337Z</time></trkpt><trkpt lat="43.143756" lon="12.8860968"><ele>783.0</ele><time>2026-04-25T13:11:55.333Z</time></trkpt><trkpt lat="43.1436902" lon="12.8861549"><ele>783.0</ele><time>2026-04-25T13:11:56.334Z</time></trkpt><trkpt lat="43.1436415" lon="12.8862118"><ele>783.0</ele><time>2026-04-25T13:11:57.332Z</time></trkpt><trkpt lat="43.1435714" lon="12.8863557"><ele>783.0</ele><time>2026-04-25T13:11:59.332Z</time></trkpt><trkpt lat="43.1435491" lon="12.8864478"><ele>783.0</ele><time>2026-04-25T13:12:00.33Z</time></trkpt><trkpt lat="43.1435287" lon="12.886558"><ele>783.0</ele><time>2026-04-25T13:12:01.332Z</time></trkpt><trkpt lat="43.1435104" lon="12.8866703"><ele>783.0</ele><time>2026-04-25T13:12:02.329Z</time></trkpt><trkpt lat="43.1434953" lon="12.8867824"><ele>784.6666666666666</ele><time>2026-04-25T13:12:03.335Z</time></trkpt><trkpt lat="43.1434805" lon="12.8869001"><ele>786.3333333333333</ele><time>2026-04-25T13:12:04.327Z</time></trkpt><trkpt lat="43.1434669" lon="12.8870182"><ele>788.0</ele><time>2026-04-25T13:12:05.331Z</time></trkpt><trkpt lat="43.1434564" lon="12.8871391"><ele>789.6666666666666</ele><time>2026-04-25T13:12:06.334Z</time></trkpt><trkpt lat="43.1434481" lon="12.8872625"><ele>791.3333333333333</ele><time>2026-04-25T13:12:07.335Z</time></trkpt><trkpt lat="43.1434423" lon="12.8873909"><ele>793.0</ele><time>2026-04-25T13:12:08.332Z</time></trkpt><trkpt lat="43.143437" lon="12.887524"><ele>793.2</ele><time>2026-04-25T13:12:09.336Z</time></trkpt><trkpt lat="43.1434265" lon="12.8876573"><ele>793.4</ele><time>2026-04-25T13:12:10.332Z</time></trkpt><trkpt lat="43.1434129" lon="12.8877872"><ele>793.6</ele><time>2026-04-25T13:12:11.332Z</time></trkpt><trkpt lat="43.1433945" lon="12.8879162"><ele>793.8000000000001</ele><time>2026-04-25T13:12:12.337Z</time></trkpt><trkpt lat="43.1433727" lon="12.8880429"><ele>794.0</ele><time>2026-04-25T13:12:13.331Z</time></trkpt><trkpt lat="43.1433474" lon="12.8881696"><ele>794.0</ele><time>2026-04-25T13:12:14.332Z</time></trkpt><trkpt lat="43.1433198" lon="12.8883021"><ele>794.0</ele><time>2026-04-25T13:12:15.322Z</time></trkpt><trkpt lat="43.1432891" lon="12.8884392"><ele>794.0</ele><time>2026-04-25T13:12:16.33Z</time></trkpt><trkpt lat="43.1432601" lon="12.8885776"><ele>794.0</ele><time>2026-04-25T13:12:17.332Z</time></trkpt><trkpt lat="43.1432329" lon="12.8887176"><ele>794.0</ele><time>2026-04-25T13:12:18.33Z</time></trkpt><trkpt lat="43.1432097" lon="12.8888577"><ele>789.4000000000001</ele><time>2026-04-25T13:12:19.332Z</time></trkpt><trkpt lat="43.1431891" lon="12.8889933"><ele>784.8</ele><time>2026-04-25T13:12:20.331Z</time></trkpt><trkpt lat="43.1431683" lon="12.889131"><ele>780.2</ele><time>2026-04-25T13:12:21.322Z</time></trkpt><trkpt lat="43.1431481" lon="12.8892696"><ele>775.5999999999999</ele><time>2026-04-25T13:12:22.334Z</time></trkpt><trkpt lat="43.1431312" lon="12.8894091"><ele>771.0</ele><time>2026-04-25T13:12:23.333Z</time></trkpt><trkpt lat="43.1431174" lon="12.8895494"><ele>771.0</ele><time>2026-04-25T13:12:24.331Z</time></trkpt><trkpt lat="43.1431043" lon="12.8896854"><ele>771.0</ele><time>2026-04-25T13:12:25.331Z</time></trkpt><trkpt lat="43.1430896" lon="12.8898196"><ele>771.0</ele><time>2026-04-25T13:12:26.331Z</time></trkpt><trkpt lat="43.1430681" lon="12.8899525"><ele>771.0</ele><time>2026-04-25T13:12:27.33Z</time></trkpt><trkpt lat="43.1430411" lon="12.8900854"><ele>771.0</ele><time>2026-04-25T13:12:28.319Z</time></trkpt><trkpt lat="43.1430142" lon="12.8902173"><ele>774.1666666666666</ele><time>2026-04-25T13:12:29.332Z</time></trkpt><trkpt lat="43.1429949" lon="12.8903385"><ele>777.3333333333333</ele><time>2026-04-25T13:12:30.322Z</time></trkpt><trkpt lat="43.1429844" lon="12.8904438"><ele>780.5</ele><time>2026-04-25T13:12:31.329Z</time></trkpt><trkpt lat="43.142963" lon="12.8905724"><ele>783.6666666666666</ele><time>2026-04-25T13:12:33.328Z</time></trkpt><trkpt lat="43.1428983" lon="12.8905344"><ele>786.8333333333333</ele><time>2026-04-25T13:12:36.328Z</time></trkpt><trkpt lat="43.1428964" lon="12.890383"><ele>790.0</ele><time>2026-04-25T13:12:38.328Z</time></trkpt><trkpt lat="43.1429162" lon="12.8902943"><ele>789.9999999999999</ele><time>2026-04-25T13:12:39.331Z</time></trkpt><trkpt lat="43.1429312" lon="12.8901998"><ele>790.0</ele><time>2026-04-25T13:12:40.329Z</time></trkpt><trkpt lat="43.1429331" lon="12.8900973"><ele>790.0</ele><time>2026-04-25T13:12:41.329Z</time></trkpt><trkpt lat="43.1429214" lon="12.8899866"><ele>790.0</ele><time>2026-04-25T13:12:42.33Z</time></trkpt><trkpt lat="43.1429143" lon="12.8898742"><ele>789.9999999999999</ele><time>2026-04-25T13:12:43.318Z</time></trkpt><trkpt lat="43.1429083" lon="12.8897498"><ele>790.0</ele><time>2026-04-25T13:12:44.321Z</time></trkpt><trkpt lat="43.1429002" lon="12.8896192"><ele>786.2</ele><time>2026-04-25T13:12:45.328Z</time></trkpt><trkpt lat="43.14289" lon="12.8894879"><ele>782.4</ele><time>2026-04-25T13:12:46.326Z</time></trkpt><trkpt lat="43.1428804" lon="12.8893535"><ele>778.5999999999999</ele><time>2026-04-25T13:12:47.326Z</time></trkpt><trkpt lat="43.1428715" lon="12.8892217"><ele>774.8</ele><time>2026-04-25T13:12:48.33Z</time></trkpt><trkpt lat="43.1428603" lon="12.8890907"><ele>771.0</ele><time>2026-04-25T13:12:49.326Z</time></trkpt><trkpt lat="43.142852" lon="12.8889546"><ele>768.4</ele><time>2026-04-25T13:12:50.326Z</time></trkpt><trkpt lat="43.1428459" lon="12.8888147"><ele>765.8</ele><time>2026-04-25T13:12:51.317Z</time></trkpt><trkpt lat="43.1428419" lon="12.8886735"><ele>763.1999999999999</ele><time>2026-04-25T13:12:52.329Z</time></trkpt><trkpt lat="43.1428395" lon="12.8885289"><ele>760.5999999999999</ele><time>2026-04-25T13:12:53.325Z</time></trkpt><trkpt lat="43.1428389" lon="12.8883801"><ele>758.0</ele><time>2026-04-25T13:12:54.323Z</time></trkpt><trkpt lat="43.1428402" lon="12.8882294"><ele>755.5999999999999</ele><time>2026-04-25T13:12:55.328Z</time></trkpt><trkpt lat="43.1428398" lon="12.8880766"><ele>753.1999999999999</ele><time>2026-04-25T13:12:56.329Z</time></trkpt><trkpt lat="43.1428367" lon="12.8879217"><ele>750.8</ele><time>2026-04-25T13:12:57.328Z</time></trkpt><trkpt lat="43.1428296" lon="12.8877671"><ele>748.4</ele><time>2026-04-25T13:12:58.318Z</time></trkpt><trkpt lat="43.1428176" lon="12.8876147"><ele>746.0</ele><time>2026-04-25T13:12:59.321Z</time></trkpt><trkpt lat="43.1428019" lon="12.8874635"><ele>743.0</ele><time>2026-04-25T13:13:00.33Z</time></trkpt><trkpt lat="43.1427799" lon="12.8873069"><ele>740.0</ele><time>2026-04-25T13:13:01.327Z</time></trkpt><trkpt lat="43.1427569" lon="12.8871382"><ele>737.0</ele><time>2026-04-25T13:13:02.329Z</time></trkpt><trkpt lat="43.1427267" lon="12.8869634"><ele>734.0</ele><time>2026-04-25T13:13:03.329Z</time></trkpt><trkpt lat="43.142696" lon="12.8867818"><ele>733.25</ele><time>2026-04-25T13:13:04.328Z</time></trkpt><trkpt lat="43.1426678" lon="12.8866008"><ele>732.5</ele><time>2026-04-25T13:13:05.33Z</time></trkpt><trkpt lat="43.1426399" lon="12.8864227"><ele>731.75</ele><time>2026-04-25T13:13:06.317Z</time></trkpt><trkpt lat="43.1426076" lon="12.8862545"><ele>731.0</ele><time>2026-04-25T13:13:07.321Z</time></trkpt><trkpt lat="43.1425646" lon="12.8861041"><ele>731.0</ele><time>2026-04-25T13:13:08.332Z</time></trkpt><trkpt lat="43.1425099" lon="12.8859742"><ele>731.0</ele><time>2026-04-25T13:13:09.329Z</time></trkpt><trkpt lat="43.1424571" lon="12.885861"><ele>731.0</ele><time>2026-04-25T13:13:10.325Z</time></trkpt><trkpt lat="43.1424156" lon="12.885752"><ele>731.0</ele><time>2026-04-25T13:13:11.318Z</time></trkpt><trkpt lat="43.1423918" lon="12.8856466"><ele>731.0</ele><time>2026-04-25T13:13:12.333Z</time></trkpt><trkpt lat="43.1423812" lon="12.8855611"><ele>731.0</ele><time>2026-04-25T13:13:13.33Z</time></trkpt><trkpt lat="43.1424231" lon="12.8854132"><ele>731.0</ele><time>2026-04-25T13:13:15.333Z</time></trkpt><trkpt lat="43.1424642" lon="12.8853436"><ele>731.0</ele><time>2026-04-25T13:13:16.324Z</time></trkpt><trkpt lat="43.142503" lon="12.8852656"><ele>731.0</ele><time>2026-04-25T13:13:17.322Z</time></trkpt><trkpt lat="43.1425377" lon="12.885176"><ele>731.0</ele><time>2026-04-25T13:13:18.331Z</time></trkpt><trkpt lat="43.1425647" lon="12.8850859"><ele>731.0</ele><time>2026-04-25T13:13:19.327Z</time></trkpt><trkpt lat="43.1426223" lon="12.8849326"><ele>731.0</ele><time>2026-04-25T13:13:21.332Z</time></trkpt><trkpt lat="43.142665" lon="12.8848555"><ele>728.7142857142857</ele><time>2026-04-25T13:13:22.328Z</time></trkpt><trkpt lat="43.1427109" lon="12.8847795"><ele>726.4285714285713</ele><time>2026-04-25T13:13:23.336Z</time></trkpt><trkpt lat="43.1427572" lon="12.8847064"><ele>724.1428571428571</ele><time>2026-04-25T13:13:24.331Z</time></trkpt><trkpt lat="43.1428034" lon="12.8846368"><ele>721.8571428571429</ele><time>2026-04-25T13:13:25.33Z</time></trkpt><trkpt lat="43.1428537" lon="12.8845632"><ele>719.5714285714286</ele><time>2026-04-25T13:13:26.328Z</time></trkpt><trkpt lat="43.1429054" lon="12.884491"><ele>717.2857142857143</ele><time>2026-04-25T13:13:27.326Z</time></trkpt><trkpt lat="43.1429547" lon="12.8844303"><ele>715.0</ele><time>2026-04-25T13:13:28.328Z</time></trkpt><trkpt lat="43.1430408" lon="12.8843148"><ele>715.0</ele><time>2026-04-25T13:13:30.329Z</time></trkpt><trkpt lat="43.1430879" lon="12.8842485"><ele>715.0</ele><time>2026-04-25T13:13:31.331Z</time></trkpt><trkpt lat="43.1431431" lon="12.8841791"><ele>715.0</ele><time>2026-04-25T13:13:32.32Z</time></trkpt><trkpt lat="43.1432079" lon="12.8841127"><ele>715.0</ele><time>2026-04-25T13:13:33.321Z</time></trkpt><trkpt lat="43.1432788" lon="12.8840463"><ele>715.0</ele><time>2026-04-25T13:13:34.319Z</time></trkpt><trkpt lat="43.1433535" lon="12.883976"><ele>715.0</ele><time>2026-04-25T13:13:35.332Z</time></trkpt><trkpt lat="43.1434271" lon="12.8839056"><ele>715.0</ele><time>2026-04-25T13:13:36.328Z</time></trkpt><trkpt lat="43.1434991" lon="12.8838393"><ele>715.0</ele><time>2026-04-25T13:13:37.329Z</time></trkpt><trkpt lat="43.1435682" lon="12.8837762"><ele>715.0</ele><time>2026-04-25T13:13:38.326Z</time></trkpt><trkpt lat="43.1436371" lon="12.8837125"><ele>715.0</ele><time>2026-04-25T13:13:39.329Z</time></trkpt><trkpt lat="43.1437064" lon="12.8836525"><ele>715.0</ele><time>2026-04-25T13:13:40.322Z</time></trkpt><trkpt lat="43.1437762" lon="12.8835993"><ele>715.0</ele><time>2026-04-25T13:13:41.333Z</time></trkpt><trkpt lat="43.1438561" lon="12.8835531"><ele>715.0</ele><time>2026-04-25T13:13:42.335Z</time></trkpt><trkpt lat="43.1439485" lon="12.8835093"><ele>715.0</ele><time>2026-04-25T13:13:43.324Z</time></trkpt><trkpt lat="43.1440418" lon="12.8834765"><ele>715.0</ele><time>2026-04-25T13:13:44.329Z</time></trkpt><trkpt lat="43.1441414" lon="12.8834414"><ele>715.0</ele><time>2026-04-25T13:13:45.332Z</time></trkpt><trkpt lat="43.1442544" lon="12.8833978"><ele>715.0</ele><time>2026-04-25T13:13:46.326Z</time></trkpt><trkpt lat="43.1443765" lon="12.8833448"><ele>714.25</ele><time>2026-04-25T13:13:47.332Z</time></trkpt><trkpt lat="43.1445039" lon="12.8832997"><ele>713.5</ele><time>2026-04-25T13:13:48.332Z</time></trkpt><trkpt lat="43.1446266" lon="12.8832599"><ele>712.75</ele><time>2026-04-25T13:13:49.323Z</time></trkpt><trkpt lat="43.1447516" lon="12.8832268"><ele>712.0</ele><time>2026-04-25T13:13:50.33Z</time></trkpt><trkpt lat="43.1448702" lon="12.8832038"><ele>714.8333333333334</ele><time>2026-04-25T13:13:51.333Z</time></trkpt><trkpt lat="43.1449695" lon="12.8831818"><ele>717.6666666666667</ele><time>2026-04-25T13:13:52.336Z</time></trkpt><trkpt lat="43.1450438" lon="12.8831671"><ele>720.5</ele><time>2026-04-25T13:13:53.329Z</time></trkpt><trkpt lat="43.145144" lon="12.8831513"><ele>723.3333333333334</ele><time>2026-04-25T13:13:55.332Z</time></trkpt><trkpt lat="43.1452102" lon="12.8830912"><ele>726.1666666666666</ele><time>2026-04-25T13:13:57.322Z</time></trkpt><trkpt lat="43.1452955" lon="12.8830585"><ele>729.0</ele><time>2026-04-25T13:13:58.328Z</time></trkpt><trkpt lat="43.1454187" lon="12.883024"><ele>729.0</ele><time>2026-04-25T13:13:59.337Z</time></trkpt><trkpt lat="43.1455496" lon="12.8829923"><ele>729.0</ele><time>2026-04-25T13:14:00.336Z</time></trkpt><trkpt lat="43.1456828" lon="12.8829632"><ele>729.0</ele><time>2026-04-25T13:14:01.334Z</time></trkpt><trkpt lat="43.1458214" lon="12.8829345"><ele>729.0</ele><time>2026-04-25T13:14:02.325Z</time></trkpt><trkpt lat="43.1459567" lon="12.8829017"><ele>727.25</ele><time>2026-04-25T13:14:03.33Z</time></trkpt><trkpt lat="43.1460838" lon="12.8828606"><ele>725.5</ele><time>2026-04-25T13:14:04.331Z</time></trkpt><trkpt lat="43.1462005" lon="12.8827981"><ele>723.75</ele><time>2026-04-25T13:14:05.323Z</time></trkpt><trkpt lat="43.1463133" lon="12.8827212"><ele>722.0</ele><time>2026-04-25T13:14:06.333Z</time></trkpt><trkpt lat="43.1464277" lon="12.8826435"><ele>716.5</ele><time>2026-04-25T13:14:07.326Z</time></trkpt><trkpt lat="43.1465468" lon="12.8825673"><ele>711.0</ele><time>2026-04-25T13:14:08.328Z</time></trkpt><trkpt lat="43.1466706" lon="12.8825001"><ele>705.5</ele><time>2026-04-25T13:14:09.325Z</time></trkpt><trkpt lat="43.1467954" lon="12.8824536"><ele>700.0</ele><time>2026-04-25T13:14:10.323Z</time></trkpt><trkpt lat="43.1469155" lon="12.8824292"><ele>700.0</ele><time>2026-04-25T13:14:11.32Z</time></trkpt><trkpt lat="43.147021" lon="12.8824296"><ele>700.0</ele><time>2026-04-25T13:14:12.334Z</time></trkpt><trkpt lat="43.1471133" lon="12.8824503"><ele>700.0</ele><time>2026-04-25T13:14:13.325Z</time></trkpt><trkpt lat="43.1471842" lon="12.8824976"><ele>700.0</ele><time>2026-04-25T13:14:14.321Z</time></trkpt><trkpt lat="43.1472479" lon="12.8825786"><ele>700.0</ele><time>2026-04-25T13:14:15.329Z</time></trkpt><trkpt lat="43.1473095" lon="12.8826739"><ele>701.4</ele><time>2026-04-25T13:14:16.323Z</time></trkpt><trkpt lat="43.1473643" lon="12.8827774"><ele>702.8</ele><time>2026-04-25T13:14:17.325Z</time></trkpt><trkpt lat="43.1474049" lon="12.8828943"><ele>704.2</ele><time>2026-04-25T13:14:18.322Z</time></trkpt><trkpt lat="43.1474278" lon="12.8830223"><ele>705.6</ele><time>2026-04-25T13:14:19.333Z</time></trkpt><trkpt lat="43.1474429" lon="12.8831437"><ele>707.0</ele><time>2026-04-25T13:14:20.327Z</time></trkpt><trkpt lat="43.1474602" lon="12.8832657"><ele>706.8</ele><time>2026-04-25T13:14:21.33Z</time></trkpt><trkpt lat="43.1474794" lon="12.8833896"><ele>706.6</ele><time>2026-04-25T13:14:22.328Z</time></trkpt><trkpt lat="43.1475032" lon="12.8835125"><ele>706.4</ele><time>2026-04-25T13:14:23.324Z</time></trkpt><trkpt lat="43.1475339" lon="12.8836314"><ele>706.1999999999999</ele><time>2026-04-25T13:14:24.321Z</time></trkpt><trkpt lat="43.1475851" lon="12.8837365"><ele>706.0</ele><time>2026-04-25T13:14:25.323Z</time></trkpt><trkpt lat="43.1476583" lon="12.8838247"><ele>706.0</ele><time>2026-04-25T13:14:26.321Z</time></trkpt><trkpt lat="43.1477453" lon="12.8838921"><ele>706.0</ele><time>2026-04-25T13:14:27.329Z</time></trkpt><trkpt lat="43.1478461" lon="12.8839427"><ele>706.0</ele><time>2026-04-25T13:14:28.327Z</time></trkpt><trkpt lat="43.1479623" lon="12.8839934"><ele>706.0</ele><time>2026-04-25T13:14:29.33Z</time></trkpt><trkpt lat="43.1480842" lon="12.8840417"><ele>700.5</ele><time>2026-04-25T13:14:30.322Z</time></trkpt><trkpt lat="43.1482146" lon="12.884088"><ele>695.0</ele><time>2026-04-25T13:14:31.327Z</time></trkpt><trkpt lat="43.1483509" lon="12.8841343"><ele>689.5</ele><time>2026-04-25T13:14:32.331Z</time></trkpt><trkpt lat="43.1484882" lon="12.8841799"><ele>684.0</ele><time>2026-04-25T13:14:33.329Z</time></trkpt><trkpt lat="43.1486282" lon="12.8842216"><ele>684.0</ele><time>2026-04-25T13:14:34.32Z</time></trkpt><trkpt lat="43.1487622" lon="12.8842625"><ele>684.0</ele><time>2026-04-25T13:14:35.33Z</time></trkpt><trkpt lat="43.1488995" lon="12.8842938"><ele>684.0</ele><time>2026-04-25T13:14:36.333Z</time></trkpt><trkpt lat="43.1490409" lon="12.8843161"><ele>684.0</ele><time>2026-04-25T13:14:37.327Z</time></trkpt><trkpt lat="43.149186" lon="12.8843284"><ele>689.6666666666666</ele><time>2026-04-25T13:14:38.326Z</time></trkpt><trkpt lat="43.1493342" lon="12.8843334"><ele>695.3333333333333</ele><time>2026-04-25T13:14:39.323Z</time></trkpt><trkpt lat="43.1494852" lon="12.8843361"><ele>701.0</ele><time>2026-04-25T13:14:40.327Z</time></trkpt><trkpt lat="43.1496367" lon="12.8843352"><ele>701.0</ele><time>2026-04-25T13:14:41.327Z</time></trkpt><trkpt lat="43.1497849" lon="12.8843312"><ele>701.0</ele><time>2026-04-25T13:14:42.332Z</time></trkpt><trkpt lat="43.1499311" lon="12.8843289"><ele>701.0</ele><time>2026-04-25T13:14:43.331Z</time></trkpt><trkpt lat="43.1500754" lon="12.8843291"><ele>701.0</ele><time>2026-04-25T13:14:44.329Z</time></trkpt><trkpt lat="43.1502219" lon="12.8843289"><ele>696.75</ele><time>2026-04-25T13:14:45.33Z</time></trkpt><trkpt lat="43.1503677" lon="12.8843325"><ele>692.5</ele><time>2026-04-25T13:14:46.327Z</time></trkpt><trkpt lat="43.1505119" lon="12.8843383"><ele>688.25</ele><time>2026-04-25T13:14:47.329Z</time></trkpt><trkpt lat="43.1506568" lon="12.8843488"><ele>684.0</ele><time>2026-04-25T13:14:48.326Z</time></trkpt><trkpt lat="43.1507953" lon="12.8843663"><ele>680.6</ele><time>2026-04-25T13:14:49.329Z</time></trkpt><trkpt lat="43.1509208" lon="12.88439"><ele>677.2</ele><time>2026-04-25T13:14:50.326Z</time></trkpt><trkpt lat="43.1510332" lon="12.8844133"><ele>673.8000000000001</ele><time>2026-04-25T13:14:51.325Z</time></trkpt><trkpt lat="43.1511339" lon="12.8844388"><ele>670.4000000000001</ele><time>2026-04-25T13:14:52.326Z</time></trkpt><trkpt lat="43.15123" lon="12.8844843"><ele>667.0</ele><time>2026-04-25T13:14:53.322Z</time></trkpt><trkpt lat="43.151312" lon="12.8845551"><ele>667.0</ele><time>2026-04-25T13:14:54.325Z</time></trkpt><trkpt lat="43.1513711" lon="12.8846453"><ele>667.0</ele><time>2026-04-25T13:14:55.326Z</time></trkpt><trkpt lat="43.1514083" lon="12.8847433"><ele>667.0</ele><time>2026-04-25T13:14:56.328Z</time></trkpt><trkpt lat="43.1514266" lon="12.8848609"><ele>667.0</ele><time>2026-04-25T13:14:57.325Z</time></trkpt><trkpt lat="43.1514244" lon="12.8850002"><ele>667.0</ele><time>2026-04-25T13:14:58.329Z</time></trkpt><trkpt lat="43.1514225" lon="12.8851583"><ele>662.2</ele><time>2026-04-25T13:14:59.331Z</time></trkpt><trkpt lat="43.1514363" lon="12.8853295"><ele>657.4000000000001</ele><time>2026-04-25T13:15:00.323Z</time></trkpt><trkpt lat="43.1514629" lon="12.8854843"><ele>652.5999999999999</ele><time>2026-04-25T13:15:01.33Z</time></trkpt><trkpt lat="43.1514928" lon="12.8856056"><ele>647.8</ele><time>2026-04-25T13:15:02.33Z</time></trkpt><trkpt lat="43.1515206" lon="12.8856932"><ele>643.0</ele><time>2026-04-25T13:15:03.318Z</time></trkpt><trkpt lat="43.151565" lon="12.8857637"><ele>643.0</ele><time>2026-04-25T13:15:04.323Z</time></trkpt><trkpt lat="43.1516152" lon="12.885819"><ele>643.0</ele><time>2026-04-25T13:15:05.323Z</time></trkpt><trkpt lat="43.1517265" lon="12.8858715"><ele>643.0</ele><time>2026-04-25T13:15:07.325Z</time></trkpt><trkpt lat="43.1518523" lon="12.8858694"><ele>643.0</ele><time>2026-04-25T13:15:09.318Z</time></trkpt><trkpt lat="43.1519499" lon="12.8858531"><ele>643.0</ele><time>2026-04-25T13:15:11.331Z</time></trkpt><trkpt lat="43.1520316" lon="12.8857635"><ele>643.0</ele><time>2026-04-25T13:15:13.331Z</time></trkpt><trkpt lat="43.1520577" lon="12.8856784"><ele>643.0</ele><time>2026-04-25T13:15:14.332Z</time></trkpt><trkpt lat="43.1520771" lon="12.8855781"><ele>643.0</ele><time>2026-04-25T13:15:15.323Z</time></trkpt><trkpt lat="43.1520972" lon="12.885493"><ele>643.0</ele><time>2026-04-25T13:15:16.331Z</time></trkpt><trkpt lat="43.1521337" lon="12.8853452"><ele>643.0</ele><time>2026-04-25T13:15:18.325Z</time></trkpt><trkpt lat="43.1521519" lon="12.8851603"><ele>642.1999999999999</ele><time>2026-04-25T13:15:20.332Z</time></trkpt><trkpt lat="43.1521586" lon="12.885045"><ele>641.4</ele><time>2026-04-25T13:15:21.328Z</time></trkpt><trkpt lat="43.1521717" lon="12.884915"><ele>640.5999999999999</ele><time>2026-04-25T13:15:22.333Z</time></trkpt><trkpt lat="43.1521928" lon="12.884775"><ele>639.8</ele><time>2026-04-25T13:15:23.324Z</time></trkpt><trkpt lat="43.1522251" lon="12.8846339"><ele>639.0</ele><time>2026-04-25T13:15:24.329Z</time></trkpt><trkpt lat="43.1522658" lon="12.8844971"><ele>639.0</ele><time>2026-04-25T13:15:25.328Z</time></trkpt><trkpt lat="43.1523055" lon="12.8843618"><ele>639.0</ele><time>2026-04-25T13:15:26.332Z</time></trkpt><trkpt lat="43.1523368" lon="12.8842252"><ele>639.0</ele><time>2026-04-25T13:15:27.332Z</time></trkpt><trkpt lat="43.152354" lon="12.8840908"><ele>639.0</ele><time>2026-04-25T13:15:28.323Z</time></trkpt><trkpt lat="43.1523613" lon="12.8839559"><ele>639.0</ele><time>2026-04-25T13:15:29.325Z</time></trkpt><trkpt lat="43.152362" lon="12.8838258"><ele>637.2</ele><time>2026-04-25T13:15:30.328Z</time></trkpt><trkpt lat="43.1523553" lon="12.8837005"><ele>635.4</ele><time>2026-04-25T13:15:31.327Z</time></trkpt><trkpt lat="43.1523391" lon="12.8835767"><ele>633.6</ele><time>2026-04-25T13:15:32.327Z</time></trkpt><trkpt lat="43.1523082" lon="12.8834571"><ele>631.8</ele><time>2026-04-25T13:15:33.325Z</time></trkpt><trkpt lat="43.1522697" lon="12.8833428"><ele>630.0</ele><time>2026-04-25T13:15:34.329Z</time></trkpt><trkpt lat="43.1522211" lon="12.8832345"><ele>629.0</ele><time>2026-04-25T13:15:35.323Z</time></trkpt><trkpt lat="43.1521686" lon="12.8831264"><ele>628.0</ele><time>2026-04-25T13:15:36.319Z</time></trkpt><trkpt lat="43.1521246" lon="12.883038"><ele>627.0</ele><time>2026-04-25T13:15:37.331Z</time></trkpt><trkpt lat="43.152054" lon="12.8829511"><ele>626.0</ele><time>2026-04-25T13:15:39.331Z</time></trkpt><trkpt lat="43.1520597" lon="12.8828614"><ele>625.0</ele><time>2026-04-25T13:16:13.331Z</time></trkpt><trkpt lat="43.1521215" lon="12.8829853"><ele>624.0</ele><time>2026-04-25T13:16:16.332Z</time></trkpt><trkpt lat="43.1521533" lon="12.8830845"><ele>624.0</ele><time>2026-04-25T13:16:17.334Z</time></trkpt><trkpt lat="43.152193" lon="12.883207"><ele>624.0</ele><time>2026-04-25T13:16:18.324Z</time></trkpt><trkpt lat="43.1522404" lon="12.883342"><ele>624.0</ele><time>2026-04-25T13:16:19.329Z</time></trkpt><trkpt lat="43.1522937" lon="12.8834723"><ele>624.0</ele><time>2026-04-25T13:16:20.331Z</time></trkpt><trkpt lat="43.1523383" lon="12.8835921"><ele>624.0</ele><time>2026-04-25T13:16:21.329Z</time></trkpt><trkpt lat="43.1523662" lon="12.8837165"><ele>625.2</ele><time>2026-04-25T13:16:22.336Z</time></trkpt><trkpt lat="43.1523751" lon="12.8838517"><ele>626.4</ele><time>2026-04-25T13:16:23.335Z</time></trkpt><trkpt lat="43.1523668" lon="12.8839895"><ele>627.6</ele><time>2026-04-25T13:16:24.349Z</time></trkpt><trkpt lat="43.1523489" lon="12.8841265"><ele>628.8</ele><time>2026-04-25T13:16:25.345Z</time></trkpt><trkpt lat="43.1523247" lon="12.884262"><ele>630.0</ele><time>2026-04-25T13:16:26.345Z</time></trkpt><trkpt lat="43.1522922" lon="12.8843908"><ele>631.8</ele><time>2026-04-25T13:16:27.343Z</time></trkpt><trkpt lat="43.1522564" lon="12.8845139"><ele>633.6</ele><time>2026-04-25T13:16:28.346Z</time></trkpt><trkpt lat="43.1522279" lon="12.884636"><ele>635.4</ele><time>2026-04-25T13:16:29.335Z</time></trkpt><trkpt lat="43.152203" lon="12.8847551"><ele>637.2</ele><time>2026-04-25T13:16:30.335Z</time></trkpt><trkpt lat="43.1521805" lon="12.8848709"><ele>639.0</ele><time>2026-04-25T13:16:31.341Z</time></trkpt><trkpt lat="43.1521606" lon="12.8849861"><ele>639.6666666666666</ele><time>2026-04-25T13:16:32.337Z</time></trkpt><trkpt lat="43.1521436" lon="12.8851"><ele>640.3333333333334</ele><time>2026-04-25T13:16:33.331Z</time></trkpt><trkpt lat="43.1521285" lon="12.8852036"><ele>641.0</ele><time>2026-04-25T13:16:34.323Z</time></trkpt><trkpt lat="43.1521046" lon="12.8853224"><ele>641.6666666666667</ele><time>2026-04-25T13:16:36.332Z</time></trkpt><trkpt lat="43.152178" lon="12.8852999"><ele>642.3333333333334</ele><time>2026-04-25T13:16:39.321Z</time></trkpt><trkpt lat="43.1522385" lon="12.8852384"><ele>643.0</ele><time>2026-04-25T13:16:40.321Z</time></trkpt><trkpt lat="43.1523018" lon="12.8851484"><ele>643.3333333333334</ele><time>2026-04-25T13:16:41.331Z</time></trkpt><trkpt lat="43.1523659" lon="12.8850481"><ele>643.6666666666667</ele><time>2026-04-25T13:16:42.324Z</time></trkpt><trkpt lat="43.1524156" lon="12.884964"><ele>644.0</ele><time>2026-04-25T13:16:43.328Z</time></trkpt><trkpt lat="43.1524545" lon="12.8848943"><ele>644.3333333333334</ele><time>2026-04-25T13:16:44.32Z</time></trkpt><trkpt lat="43.152486" lon="12.8848145"><ele>644.6666666666666</ele><time>2026-04-25T13:16:45.319Z</time></trkpt><trkpt lat="43.1525106" lon="12.8847062"><ele>645.0</ele><time>2026-04-25T13:16:46.325Z</time></trkpt><trkpt lat="43.1525472" lon="12.8845641"><ele>645.0</ele><time>2026-04-25T13:16:47.326Z</time></trkpt><trkpt lat="43.152606" lon="12.8844208"><ele>645.0</ele><time>2026-04-25T13:16:48.329Z</time></trkpt><trkpt lat="43.1526736" lon="12.8842717"><ele>645.0</ele><time>2026-04-25T13:16:49.329Z</time></trkpt><trkpt lat="43.1527553" lon="12.8841303"><ele>645.0</ele><time>2026-04-25T13:16:50.32Z</time></trkpt><trkpt lat="43.1528474" lon="12.8839942"><ele>643.0</ele><time>2026-04-25T13:16:51.331Z</time></trkpt><trkpt lat="43.1529488" lon="12.8838621"><ele>641.0</ele><time>2026-04-25T13:16:52.323Z</time></trkpt><trkpt lat="43.1530586" lon="12.8837321"><ele>639.0</ele><time>2026-04-25T13:16:53.32Z</time></trkpt><trkpt lat="43.1531769" lon="12.8836131"><ele>637.0</ele><time>2026-04-25T13:16:54.332Z</time></trkpt><trkpt lat="43.1532927" lon="12.8835052"><ele>640.2</ele><time>2026-04-25T13:16:55.331Z</time></trkpt><trkpt lat="43.1534034" lon="12.883416"><ele>643.4000000000001</ele><time>2026-04-25T13:16:56.333Z</time></trkpt><trkpt lat="43.1535006" lon="12.8833411"><ele>646.5999999999999</ele><time>2026-04-25T13:16:57.322Z</time></trkpt><trkpt lat="43.1535728" lon="12.8832648"><ele>649.8</ele><time>2026-04-25T13:16:58.33Z</time></trkpt><trkpt lat="43.1536134" lon="12.8831746"><ele>653.0</ele><time>2026-04-25T13:16:59.328Z</time></trkpt><trkpt lat="43.1536035" lon="12.8830791"><ele>653.0</ele><time>2026-04-25T13:17:00.332Z</time></trkpt><trkpt lat="43.1535223" lon="12.882972"><ele>653.0</ele><time>2026-04-25T13:17:01.327Z</time></trkpt><trkpt lat="43.1533999" lon="12.8828768"><ele>653.0</ele><time>2026-04-25T13:17:02.329Z</time></trkpt><trkpt lat="43.1532621" lon="12.8828095"><ele>653.0</ele><time>2026-04-25T13:17:03.329Z</time></trkpt><trkpt lat="43.1531368" lon="12.8827495"><ele>651.0</ele><time>2026-04-25T13:17:04.322Z</time></trkpt><trkpt lat="43.1530368" lon="12.8826749"><ele>649.0</ele><time>2026-04-25T13:17:05.335Z</time></trkpt><trkpt lat="43.152959" lon="12.8825736"><ele>647.0</ele><time>2026-04-25T13:17:06.326Z</time></trkpt><trkpt lat="43.1529062" lon="12.8824497"><ele>645.0</ele><time>2026-04-25T13:17:07.33Z</time></trkpt><trkpt lat="43.1528839" lon="12.8823149"><ele>643.0</ele><time>2026-04-25T13:17:08.335Z</time></trkpt><trkpt lat="43.1528929" lon="12.8821875"><ele>643.0</ele><time>2026-04-25T13:17:09.336Z</time></trkpt><trkpt lat="43.1529347" lon="12.8820642"><ele>643.0</ele><time>2026-04-25T13:17:10.333Z</time></trkpt><trkpt lat="43.1529992" lon="12.88196"><ele>643.0</ele><time>2026-04-25T13:17:11.33Z</time></trkpt><trkpt lat="43.1530549" lon="12.8818813"><ele>643.0</ele><time>2026-04-25T13:17:12.332Z</time></trkpt><trkpt lat="43.1531004" lon="12.8818091"><ele>643.0</ele><time>2026-04-25T13:17:13.325Z</time></trkpt><trkpt lat="43.1531546" lon="12.8817236"><ele>643.0</ele><time>2026-04-25T13:17:14.333Z</time></trkpt><trkpt lat="43.1532238" lon="12.8816224"><ele>648.5</ele><time>2026-04-25T13:17:15.329Z</time></trkpt><trkpt lat="43.1532992" lon="12.8815096"><ele>654.0</ele><time>2026-04-25T13:17:16.321Z</time></trkpt><trkpt lat="43.1533697" lon="12.8813898"><ele>659.5</ele><time>2026-04-25T13:17:17.333Z</time></trkpt><trkpt lat="43.1534399" lon="12.8812699"><ele>665.0</ele><time>2026-04-25T13:17:18.326Z</time></trkpt><trkpt lat="43.1535219" lon="12.8811596"><ele>665.0</ele><time>2026-04-25T13:17:19.333Z</time></trkpt><trkpt lat="43.1536173" lon="12.8810629"><ele>665.0</ele><time>2026-04-25T13:17:20.332Z</time></trkpt><trkpt lat="43.1537209" lon="12.880978"><ele>665.0</ele><time>2026-04-25T13:17:21.334Z</time></trkpt><trkpt lat="43.1538155" lon="12.8809007"><ele>665.0</ele><time>2026-04-25T13:17:22.337Z</time></trkpt><trkpt lat="43.153888" lon="12.880823"><ele>665.0</ele><time>2026-04-25T13:17:23.337Z</time></trkpt><trkpt lat="43.1539308" lon="12.88073"><ele>664.8</ele><time>2026-04-25T13:17:24.334Z</time></trkpt><trkpt lat="43.153962" lon="12.8806194"><ele>664.6</ele><time>2026-04-25T13:17:25.324Z</time></trkpt><trkpt lat="43.1539821" lon="12.880512"><ele>664.4000000000001</ele><time>2026-04-25T13:17:26.33Z</time></trkpt><trkpt lat="43.153981" lon="12.8804202"><ele>664.2</ele><time>2026-04-25T13:17:27.327Z</time></trkpt><trkpt lat="43.1539269" lon="12.8802889"><ele>664.0</ele><time>2026-04-25T13:17:29.324Z</time></trkpt><trkpt lat="43.1538151" lon="12.8802685"><ele>664.0</ele><time>2026-04-25T13:17:31.342Z</time></trkpt><trkpt lat="43.1537377" lon="12.8803055"><ele>664.0</ele><time>2026-04-25T13:17:32.338Z</time></trkpt><trkpt lat="43.1536489" lon="12.8803539"><ele>664.0</ele><time>2026-04-25T13:17:33.332Z</time></trkpt><trkpt lat="43.1535623" lon="12.8804064"><ele>664.0</ele><time>2026-04-25T13:17:34.331Z</time></trkpt><trkpt lat="43.153469" lon="12.8804411"><ele>664.0</ele><time>2026-04-25T13:17:35.33Z</time></trkpt><trkpt lat="43.1533836" lon="12.8804645"><ele>664.0</ele><time>2026-04-25T13:17:36.325Z</time></trkpt><trkpt lat="43.1533188" lon="12.880482"><ele>664.0</ele><time>2026-04-25T13:17:37.328Z</time></trkpt><trkpt lat="43.1532527" lon="12.880441"><ele>664.0</ele><time>2026-04-25T13:17:48.332Z</time></trkpt><trkpt lat="43.15335" lon="12.8804473"><ele>664.0</ele><time>2026-04-25T13:18:01.331Z</time></trkpt><trkpt lat="43.1534613" lon="12.8804463"><ele>664.0</ele><time>2026-04-25T13:18:03.333Z</time></trkpt><trkpt lat="43.1535782" lon="12.8803897"><ele>664.0</ele><time>2026-04-25T13:18:05.323Z</time></trkpt><trkpt lat="43.1536446" lon="12.880355"><ele>664.0</ele><time>2026-04-25T13:18:06.329Z</time></trkpt><trkpt lat="43.1537128" lon="12.8803256"><ele>664.0</ele><time>2026-04-25T13:18:07.33Z</time></trkpt><trkpt lat="43.1537793" lon="12.8802952"><ele>664.0</ele><time>2026-04-25T13:18:08.333Z</time></trkpt><trkpt lat="43.1538412" lon="12.8802756"><ele>664.0</ele><time>2026-04-25T13:18:09.325Z</time></trkpt><trkpt lat="43.1539415" lon="12.8803076"><ele>664.0</ele><time>2026-04-25T13:18:11.33Z</time></trkpt><trkpt lat="43.1539835" lon="12.8804239"><ele>668.6</ele><time>2026-04-25T13:18:13.331Z</time></trkpt><trkpt lat="43.1540675" lon="12.880407"><ele>673.2</ele><time>2026-04-25T13:18:22.333Z</time></trkpt><trkpt lat="43.1541442" lon="12.8803155"><ele>677.8000000000001</ele><time>2026-04-25T13:18:24.326Z</time></trkpt><trkpt lat="43.1542365" lon="12.8802483"><ele>682.4000000000001</ele><time>2026-04-25T13:18:26.326Z</time></trkpt><trkpt lat="43.1543426" lon="12.8802042"><ele>687.0</ele><time>2026-04-25T13:18:28.332Z</time></trkpt><trkpt lat="43.1544655" lon="12.8801973"><ele>687.0</ele><time>2026-04-25T13:18:30.329Z</time></trkpt><trkpt lat="43.1545749" lon="12.8801837"><ele>687.0</ele><time>2026-04-25T13:18:32.328Z</time></trkpt><trkpt lat="43.1546865" lon="12.8801576"><ele>687.0</ele><time>2026-04-25T13:18:34.334Z</time></trkpt><trkpt lat="43.1548032" lon="12.8801152"><ele>687.0</ele><time>2026-04-25T13:18:36.334Z</time></trkpt><trkpt lat="43.1548689" lon="12.8800911"><ele>687.0</ele><time>2026-04-25T13:18:37.33Z</time></trkpt><trkpt lat="43.1549393" lon="12.8800752"><ele>687.2</ele><time>2026-04-25T13:18:38.327Z</time></trkpt><trkpt lat="43.1550046" lon="12.88006"><ele>687.4000000000001</ele><time>2026-04-25T13:18:39.337Z</time></trkpt><trkpt lat="43.1551242" lon="12.8800168"><ele>687.5999999999999</ele><time>2026-04-25T13:18:41.333Z</time></trkpt><trkpt lat="43.1551827" lon="12.8799764"><ele>687.8</ele><time>2026-04-25T13:18:42.332Z</time></trkpt><trkpt lat="43.1552594" lon="12.8798596"><ele>688.0</ele><time>2026-04-25T13:18:44.333Z</time></trkpt><trkpt lat="43.1552974" lon="12.8796917"><ele>688.0</ele><time>2026-04-25T13:18:46.334Z</time></trkpt><trkpt lat="43.1553086" lon="12.8795928"><ele>688.0</ele><time>2026-04-25T13:18:47.327Z</time></trkpt><trkpt lat="43.1553093" lon="12.8794931"><ele>688.0</ele><time>2026-04-25T13:18:48.322Z</time></trkpt><trkpt lat="43.1552972" lon="12.8793979"><ele>688.0</ele><time>2026-04-25T13:18:49.333Z</time></trkpt><trkpt lat="43.1552847" lon="12.8793133"><ele>688.0</ele><time>2026-04-25T13:18:50.33Z</time></trkpt><trkpt lat="43.1552831" lon="12.8791564"><ele>688.0</ele><time>2026-04-25T13:18:52.336Z</time></trkpt><trkpt lat="43.1552962" lon="12.8790667"><ele>687.0</ele><time>2026-04-25T13:18:53.324Z</time></trkpt><trkpt lat="43.1553205" lon="12.8789816"><ele>686.0</ele><time>2026-04-25T13:18:54.328Z</time></trkpt><trkpt lat="43.1553674" lon="12.878847"><ele>685.0</ele><time>2026-04-25T13:18:56.328Z</time></trkpt><trkpt lat="43.1553981" lon="12.8787307"><ele>684.0</ele><time>2026-04-25T13:18:58.334Z</time></trkpt><trkpt lat="43.1554032" lon="12.8786113"><ele>683.0</ele><time>2026-04-25T13:19:00.324Z</time></trkpt><trkpt lat="43.1553465" lon="12.8785241"><ele>682.0</ele><time>2026-04-25T13:19:02.33Z</time></trkpt><trkpt lat="43.1552538" lon="12.8784202"><ele>682.0</ele><time>2026-04-25T13:19:04.333Z</time></trkpt><trkpt lat="43.1552065" lon="12.8783583"><ele>682.0</ele><time>2026-04-25T13:19:05.334Z</time></trkpt><trkpt lat="43.1551366" lon="12.8782361"><ele>682.0</ele><time>2026-04-25T13:19:07.333Z</time></trkpt><trkpt lat="43.1550959" lon="12.878093"><ele>682.0</ele><time>2026-04-25T13:19:09.334Z</time></trkpt><trkpt lat="43.155093" lon="12.8779942"><ele>682.0</ele><time>2026-04-25T13:19:10.33Z</time></trkpt><trkpt lat="43.1550925" lon="12.8779038"><ele>682.0</ele><time>2026-04-25T13:19:11.331Z</time></trkpt><trkpt lat="43.155108" lon="12.8777537"><ele>682.0</ele><time>2026-04-25T13:19:13.332Z</time></trkpt><trkpt lat="43.1551645" lon="12.8776058"><ele>682.0</ele><time>2026-04-25T13:19:15.322Z</time></trkpt><trkpt lat="43.1552" lon="12.8775196"><ele>682.0</ele><time>2026-04-25T13:19:16.331Z</time></trkpt><trkpt lat="43.1552441" lon="12.8774207"><ele>682.0</ele><time>2026-04-25T13:19:17.332Z</time></trkpt><trkpt lat="43.1552909" lon="12.877317"><ele>682.0</ele><time>2026-04-25T13:19:18.327Z</time></trkpt><trkpt lat="43.1553414" lon="12.8772151"><ele>684.1666666666667</ele><time>2026-04-25T13:19:19.331Z</time></trkpt><trkpt lat="43.1553936" lon="12.8771138"><ele>686.3333333333334</ele><time>2026-04-25T13:19:20.332Z</time></trkpt><trkpt lat="43.1554453" lon="12.8770169"><ele>688.5</ele><time>2026-04-25T13:19:21.333Z</time></trkpt><trkpt lat="43.1554988" lon="12.876923"><ele>690.6666666666666</ele><time>2026-04-25T13:19:22.335Z</time></trkpt><trkpt lat="43.1555514" lon="12.8768313"><ele>692.8333333333333</ele><time>2026-04-25T13:19:23.321Z</time></trkpt><trkpt lat="43.1555994" lon="12.8767428"><ele>695.0</ele><time>2026-04-25T13:19:24.325Z</time></trkpt><trkpt lat="43.1556453" lon="12.876659"><ele>694.0</ele><time>2026-04-25T13:19:25.33Z</time></trkpt><trkpt lat="43.1556898" lon="12.8765831"><ele>693.0</ele><time>2026-04-25T13:19:26.319Z</time></trkpt><trkpt lat="43.155733" lon="12.8765126"><ele>692.0</ele><time>2026-04-25T13:19:27.323Z</time></trkpt><trkpt lat="43.1557786" lon="12.8764402"><ele>691.0</ele><time>2026-04-25T13:19:28.331Z</time></trkpt><trkpt lat="43.1558236" lon="12.8763736"><ele>690.0</ele><time>2026-04-25T13:19:29.323Z</time></trkpt><trkpt lat="43.1559166" lon="12.8762735"><ele>689.0</ele><time>2026-04-25T13:19:31.334Z</time></trkpt><trkpt lat="43.156027" lon="12.8762107"><ele>689.0</ele><time>2026-04-25T13:19:33.333Z</time></trkpt><trkpt lat="43.1561239" lon="12.8761425"><ele>689.0</ele><time>2026-04-25T13:19:35.319Z</time></trkpt><trkpt lat="43.1561914" lon="12.8760574"><ele>689.0</ele><time>2026-04-25T13:19:37.327Z</time></trkpt><trkpt lat="43.1562622" lon="12.8759407"><ele>689.0</ele><time>2026-04-25T13:19:39.332Z</time></trkpt><trkpt lat="43.1563564" lon="12.8758343"><ele>689.0</ele><time>2026-04-25T13:19:41.334Z</time></trkpt><trkpt lat="43.1564139" lon="12.8757788"><ele>689.3333333333333</ele><time>2026-04-25T13:19:42.326Z</time></trkpt><trkpt lat="43.1564727" lon="12.8757248"><ele>689.6666666666666</ele><time>2026-04-25T13:19:43.328Z</time></trkpt><trkpt lat="43.1565295" lon="12.8756753"><ele>690.0</ele><time>2026-04-25T13:19:44.334Z</time></trkpt><trkpt lat="43.1565882" lon="12.8756362"><ele>690.3333333333334</ele><time>2026-04-25T13:19:45.332Z</time></trkpt><trkpt lat="43.1566497" lon="12.8756078"><ele>690.6666666666667</ele><time>2026-04-25T13:19:46.321Z</time></trkpt><trkpt lat="43.1567578" lon="12.8755434"><ele>691.0</ele><time>2026-04-25T13:19:48.331Z</time></trkpt><trkpt lat="43.1568456" lon="12.8754225"><ele>690.9999999999999</ele><time>2026-04-25T13:19:50.331Z</time></trkpt><trkpt lat="43.1568836" lon="12.8753451"><ele>691.0</ele><time>2026-04-25T13:19:51.333Z</time></trkpt><trkpt lat="43.1569311" lon="12.8752774"><ele>691.0</ele><time>2026-04-25T13:19:52.336Z</time></trkpt><trkpt lat="43.1569826" lon="12.8752223"><ele>691.0</ele><time>2026-04-25T13:19:53.329Z</time></trkpt><trkpt lat="43.1570356" lon="12.875172"><ele>691.0</ele><time>2026-04-25T13:19:54.33Z</time></trkpt><trkpt lat="43.1570903" lon="12.8751206"><ele>690.9999999999999</ele><time>2026-04-25T13:19:55.329Z</time></trkpt><trkpt lat="43.1571486" lon="12.8750754"><ele>691.0</ele><time>2026-04-25T13:19:56.331Z</time></trkpt><trkpt lat="43.1572078" lon="12.8750384"><ele>692.0</ele><time>2026-04-25T13:19:57.329Z</time></trkpt><trkpt lat="43.1573241" lon="12.8749843"><ele>693.0</ele><time>2026-04-25T13:19:59.332Z</time></trkpt><trkpt lat="43.1574276" lon="12.8749291"><ele>694.0</ele><time>2026-04-25T13:20:01.332Z</time></trkpt><trkpt lat="43.1575169" lon="12.8748627"><ele>695.0</ele><time>2026-04-25T13:20:03.322Z</time></trkpt><trkpt lat="43.1575925" lon="12.8748021"><ele>696.0</ele><time>2026-04-25T13:20:05.332Z</time></trkpt><trkpt lat="43.1576872" lon="12.8747397"><ele>696.0</ele><time>2026-04-25T13:20:07.325Z</time></trkpt><trkpt lat="43.1577749" lon="12.8746714"><ele>696.0</ele><time>2026-04-25T13:20:09.334Z</time></trkpt><trkpt lat="43.1578439" lon="12.8746068"><ele>696.0</ele><time>2026-04-25T13:20:12.337Z</time></trkpt><trkpt lat="43.1579417" lon="12.8745301"><ele>696.0</ele><time>2026-04-25T13:20:14.324Z</time></trkpt><trkpt lat="43.1580568" lon="12.8744412"><ele>696.0</ele><time>2026-04-25T13:20:16.335Z</time></trkpt><trkpt lat="43.1581115" lon="12.8743931"><ele>695.5999999999999</ele><time>2026-04-25T13:20:17.334Z</time></trkpt><trkpt lat="43.1582065" lon="12.8742898"><ele>695.2</ele><time>2026-04-25T13:20:19.327Z</time></trkpt><trkpt lat="43.1583007" lon="12.8741735"><ele>694.8</ele><time>2026-04-25T13:20:21.328Z</time></trkpt><trkpt lat="43.1583476" lon="12.8741146"><ele>694.4000000000001</ele><time>2026-04-25T13:20:22.329Z</time></trkpt><trkpt lat="43.1584318" lon="12.8740079"><ele>694.0</ele><time>2026-04-25T13:20:24.337Z</time></trkpt><trkpt lat="43.1585113" lon="12.8739381"><ele>694.0</ele><time>2026-04-25T13:20:26.334Z</time></trkpt><trkpt lat="43.1585997" lon="12.8738793"><ele>694.0</ele><time>2026-04-25T13:20:28.327Z</time></trkpt><trkpt lat="43.158685" lon="12.8738057"><ele>694.0</ele><time>2026-04-25T13:20:30.325Z</time></trkpt><trkpt lat="43.1587733" lon="12.8737291"><ele>694.0</ele><time>2026-04-25T13:20:32.335Z</time></trkpt><trkpt lat="43.1588683" lon="12.8736485"><ele>694.0</ele><time>2026-04-25T13:20:34.323Z</time></trkpt><trkpt lat="43.1589554" lon="12.8735723"><ele>692.4000000000001</ele><time>2026-04-25T13:20:36.334Z</time></trkpt><trkpt lat="43.1590385" lon="12.8734885"><ele>690.8</ele><time>2026-04-25T13:20:38.333Z</time></trkpt><trkpt lat="43.1591265" lon="12.8734136"><ele>689.2</ele><time>2026-04-25T13:20:40.323Z</time></trkpt><trkpt lat="43.1592076" lon="12.8733308"><ele>687.5999999999999</ele><time>2026-04-25T13:20:42.338Z</time></trkpt><trkpt lat="43.1592526" lon="12.8732681"><ele>686.0</ele><time>2026-04-25T13:20:44.338Z</time></trkpt><trkpt lat="43.1592563" lon="12.873154"><ele>686.0</ele><time>2026-04-25T13:20:47.337Z</time></trkpt><trkpt lat="43.1591766" lon="12.8731383"><ele>686.0</ele><time>2026-04-25T13:20:50.339Z</time></trkpt><trkpt lat="43.1591493" lon="12.8732305"><ele>686.0</ele><time>2026-04-25T13:20:52.328Z</time></trkpt><trkpt lat="43.1591577" lon="12.8733355"><ele>686.0</ele><time>2026-04-25T13:20:55.331Z</time></trkpt><trkpt lat="43.1590929" lon="12.8734409"><ele>686.0</ele><time>2026-04-25T13:21:13.333Z</time></trkpt><trkpt lat="43.1589926" lon="12.8735261"><ele>686.0</ele><time>2026-04-25T13:21:15.337Z</time></trkpt><trkpt lat="43.1588886" lon="12.8736173"><ele>687.3333333333333</ele><time>2026-04-25T13:21:17.327Z</time></trkpt><trkpt lat="43.1588266" lon="12.8736659"><ele>688.6666666666666</ele><time>2026-04-25T13:21:18.333Z</time></trkpt><trkpt lat="43.1587582" lon="12.8737169"><ele>690.0</ele><time>2026-04-25T13:21:19.335Z</time></trkpt><trkpt lat="43.1586945" lon="12.8737629"><ele>691.3333333333334</ele><time>2026-04-25T13:21:20.338Z</time></trkpt><trkpt lat="43.1585959" lon="12.8738424"><ele>692.6666666666667</ele><time>2026-04-25T13:21:22.329Z</time></trkpt><trkpt lat="43.1585206" lon="12.8739035"><ele>694.0</ele><time>2026-04-25T13:21:24.33Z</time></trkpt><trkpt lat="43.1584182" lon="12.8739811"><ele>694.0</ele><time>2026-04-25T13:21:26.328Z</time></trkpt><trkpt lat="43.1583669" lon="12.8740352"><ele>694.0</ele><time>2026-04-25T13:21:27.337Z</time></trkpt><trkpt lat="43.1583153" lon="12.8740964"><ele>694.0</ele><time>2026-04-25T13:21:28.324Z</time></trkpt><trkpt lat="43.1582599" lon="12.874163"><ele>694.0</ele><time>2026-04-25T13:21:29.335Z</time></trkpt><trkpt lat="43.1582042" lon="12.8742313"><ele>694.0</ele><time>2026-04-25T13:21:30.336Z</time></trkpt><trkpt lat="43.1581478" lon="12.8742989"><ele>694.0</ele><time>2026-04-25T13:21:31.337Z</time></trkpt><trkpt lat="43.1580923" lon="12.8743518"><ele>694.0</ele><time>2026-04-25T13:21:32.338Z</time></trkpt><trkpt lat="43.1580346" lon="12.8744003"><ele>694.3333333333334</ele><time>2026-04-25T13:21:33.333Z</time></trkpt><trkpt lat="43.1579669" lon="12.8744555"><ele>694.6666666666667</ele><time>2026-04-25T13:21:34.327Z</time></trkpt><trkpt lat="43.1578982" lon="12.8745111"><ele>695.0</ele><time>2026-04-25T13:21:35.333Z</time></trkpt><trkpt lat="43.1578351" lon="12.8745624"><ele>695.3333333333334</ele><time>2026-04-25T13:21:36.336Z</time></trkpt><trkpt lat="43.1577499" lon="12.8746341"><ele>695.6666666666666</ele><time>2026-04-25T13:21:38.326Z</time></trkpt><trkpt lat="43.1576823" lon="12.8746875"><ele>696.0</ele><time>2026-04-25T13:21:40.335Z</time></trkpt><trkpt lat="43.1575839" lon="12.874755"><ele>696.0</ele><time>2026-04-25T13:21:42.328Z</time></trkpt><trkpt lat="43.1574899" lon="12.8748233"><ele>696.0</ele><time>2026-04-25T13:21:44.329Z</time></trkpt><trkpt lat="43.1574034" lon="12.8749"><ele>696.0</ele><time>2026-04-25T13:21:46.334Z</time></trkpt><trkpt lat="43.1572923" lon="12.8749877"><ele>696.0</ele><time>2026-04-25T13:21:48.333Z</time></trkpt><trkpt lat="43.1572164" lon="12.8750365"><ele>696.0</ele><time>2026-04-25T13:21:49.337Z</time></trkpt><trkpt lat="43.1571365" lon="12.8750885"><ele>695.2857142857142</ele><time>2026-04-25T13:21:50.331Z</time></trkpt><trkpt lat="43.1570647" lon="12.8751369"><ele>694.5714285714286</ele><time>2026-04-25T13:21:51.33Z</time></trkpt><trkpt lat="43.1570019" lon="12.8751931"><ele>693.8571428571429</ele><time>2026-04-25T13:21:52.335Z</time></trkpt><trkpt lat="43.1569496" lon="12.8752527"><ele>693.1428571428571</ele><time>2026-04-25T13:21:53.323Z</time></trkpt><trkpt lat="43.1569012" lon="12.8753144"><ele>692.4285714285714</ele><time>2026-04-25T13:21:54.337Z</time></trkpt><trkpt lat="43.1568539" lon="12.8753794"><ele>691.7142857142857</ele><time>2026-04-25T13:21:55.325Z</time></trkpt><trkpt lat="43.1568067" lon="12.8754475"><ele>691.0</ele><time>2026-04-25T13:21:56.335Z</time></trkpt><trkpt lat="43.1567612" lon="12.8755136"><ele>691.0</ele><time>2026-04-25T13:21:57.333Z</time></trkpt><trkpt lat="43.1566828" lon="12.8756109"><ele>691.0</ele><time>2026-04-25T13:21:59.333Z</time></trkpt><trkpt lat="43.1565832" lon="12.8756659"><ele>691.0</ele><time>2026-04-25T13:22:01.333Z</time></trkpt><trkpt lat="43.1564722" lon="12.8757246"><ele>691.0</ele><time>2026-04-25T13:22:03.331Z</time></trkpt><trkpt lat="43.1563659" lon="12.875811"><ele>690.5</ele><time>2026-04-25T13:22:05.333Z</time></trkpt><trkpt lat="43.1562751" lon="12.8759241"><ele>690.0</ele><time>2026-04-25T13:22:07.327Z</time></trkpt><trkpt lat="43.1561994" lon="12.8760481"><ele>689.5</ele><time>2026-04-25T13:22:09.328Z</time></trkpt><trkpt lat="43.1561176" lon="12.8761616"><ele>689.0</ele><time>2026-04-25T13:22:11.329Z</time></trkpt><trkpt lat="43.1560257" lon="12.8762385"><ele>689.0</ele><time>2026-04-25T13:22:13.333Z</time></trkpt><trkpt lat="43.155918" lon="12.8763136"><ele>689.0</ele><time>2026-04-25T13:22:15.325Z</time></trkpt><trkpt lat="43.1558601" lon="12.8763549"><ele>689.0</ele><time>2026-04-25T13:22:16.333Z</time></trkpt><trkpt lat="43.1557635" lon="12.8764483"><ele>689.0</ele><time>2026-04-25T13:22:18.331Z</time></trkpt><trkpt lat="43.155692" lon="12.8765975"><ele>689.0</ele><time>2026-04-25T13:22:20.334Z</time></trkpt><trkpt lat="43.1556445" lon="12.8766817"><ele>690.0</ele><time>2026-04-25T13:22:21.335Z</time></trkpt><trkpt lat="43.1555992" lon="12.8767655"><ele>691.0</ele><time>2026-04-25T13:22:22.324Z</time></trkpt><trkpt lat="43.1555571" lon="12.876857"><ele>692.0</ele><time>2026-04-25T13:22:23.332Z</time></trkpt><trkpt lat="43.1555158" lon="12.8769459"><ele>693.0</ele><time>2026-04-25T13:22:24.331Z</time></trkpt><trkpt lat="43.1554696" lon="12.8770273"><ele>694.0</ele><time>2026-04-25T13:22:25.333Z</time></trkpt><trkpt lat="43.155423" lon="12.8771108"><ele>695.0</ele><time>2026-04-25T13:22:26.325Z</time></trkpt><trkpt lat="43.155379" lon="12.8771994"><ele>695.0</ele><time>2026-04-25T13:22:27.329Z</time></trkpt><trkpt lat="43.1553337" lon="12.8772913"><ele>695.0</ele><time>2026-04-25T13:22:28.331Z</time></trkpt><trkpt lat="43.1552882" lon="12.8773816"><ele>695.0</ele><time>2026-04-25T13:22:29.329Z</time></trkpt><trkpt lat="43.1552476" lon="12.8774701"><ele>695.0</ele><time>2026-04-25T13:22:30.331Z</time></trkpt><trkpt lat="43.1552078" lon="12.8775571"><ele>695.0</ele><time>2026-04-25T13:22:31.328Z</time></trkpt><trkpt lat="43.1551747" lon="12.8776396"><ele>695.0</ele><time>2026-04-25T13:22:32.328Z</time></trkpt><trkpt lat="43.155135" lon="12.8777609"><ele>692.8333333333333</ele><time>2026-04-25T13:22:34.331Z</time></trkpt><trkpt lat="43.155115" lon="12.8778482"><ele>690.6666666666666</ele><time>2026-04-25T13:22:37.32Z</time></trkpt><trkpt lat="43.1551002" lon="12.8779617"><ele>688.5</ele><time>2026-04-25T13:27:36.338Z</time></trkpt><trkpt lat="43.1551071" lon="12.8780777"><ele>686.3333333333334</ele><time>2026-04-25T13:27:38.339Z</time></trkpt><trkpt lat="43.1551286" lon="12.8782184"><ele>684.1666666666667</ele><time>2026-04-25T13:27:40.334Z</time></trkpt><trkpt lat="43.155167" lon="12.878315"><ele>682.0</ele><time>2026-04-25T13:27:43.318Z</time></trkpt><trkpt lat="43.1552342" lon="12.8784291"><ele>681.3333333333334</ele><time>2026-04-25T13:27:45.315Z</time></trkpt><trkpt lat="43.1552837" lon="12.8784851"><ele>680.6666666666667</ele><time>2026-04-25T13:27:46.323Z</time></trkpt><trkpt lat="43.1553426" lon="12.8785497"><ele>680.0</ele><time>2026-04-25T13:27:48.348Z</time></trkpt><trkpt lat="43.1553882" lon="12.8786205"><ele>679.3333333333334</ele><time>2026-04-25T13:27:50.349Z</time></trkpt><trkpt lat="43.1554092" lon="12.8787164"><ele>678.6666666666666</ele><time>2026-04-25T13:27:52.353Z</time></trkpt><trkpt lat="43.155394" lon="12.8788293"><ele>678.0</ele><time>2026-04-25T13:27:54.347Z</time></trkpt><trkpt lat="43.1553575" lon="12.8789368"><ele>678.0</ele><time>2026-04-25T13:27:56.347Z</time></trkpt><trkpt lat="43.155316" lon="12.8790773"><ele>678.0</ele><time>2026-04-25T13:27:58.347Z</time></trkpt><trkpt lat="43.1552959" lon="12.879224"><ele>678.0</ele><time>2026-04-25T13:28:00.326Z</time></trkpt><trkpt lat="43.1552972" lon="12.8793617"><ele>678.0</ele><time>2026-04-25T13:28:02.349Z</time></trkpt><trkpt lat="43.1553063" lon="12.8795067"><ele>678.0</ele><time>2026-04-25T13:28:04.333Z</time></trkpt><trkpt lat="43.1552831" lon="12.879667"><ele>679.6666666666666</ele><time>2026-04-25T13:28:06.336Z</time></trkpt><trkpt lat="43.1552581" lon="12.8797462"><ele>681.3333333333334</ele><time>2026-04-25T13:28:07.334Z</time></trkpt><trkpt lat="43.1552103" lon="12.879869"><ele>683.0</ele><time>2026-04-25T13:28:09.337Z</time></trkpt><trkpt lat="43.1551448" lon="12.8799479"><ele>684.6666666666667</ele><time>2026-04-25T13:28:12.353Z</time></trkpt><trkpt lat="43.1550549" lon="12.8800014"><ele>686.3333333333334</ele><time>2026-04-25T13:28:15.345Z</time></trkpt><trkpt lat="43.15497" lon="12.8800562"><ele>688.0</ele><time>2026-04-25T13:28:17.322Z</time></trkpt><trkpt lat="43.1548823" lon="12.8800929"><ele>687.8333333333334</ele><time>2026-04-25T13:28:19.34Z</time></trkpt><trkpt lat="43.1547797" lon="12.8801149"><ele>687.6666666666667</ele><time>2026-04-25T13:28:21.334Z</time></trkpt><trkpt lat="43.1547185" lon="12.8801373"><ele>687.5</ele><time>2026-04-25T13:28:22.346Z</time></trkpt><trkpt lat="43.1546578" lon="12.8801608"><ele>687.3333333333334</ele><time>2026-04-25T13:28:23.335Z</time></trkpt><trkpt lat="43.154568" lon="12.8802073"><ele>687.1666666666666</ele><time>2026-04-25T13:28:25.353Z</time></trkpt><trkpt lat="43.1544802" lon="12.8802305"><ele>687.0</ele><time>2026-04-25T13:28:27.333Z</time></trkpt><trkpt lat="43.154382" lon="12.8802436"><ele>687.0</ele><time>2026-04-25T13:28:29.342Z</time></trkpt><trkpt lat="43.1542896" lon="12.880266"><ele>687.0</ele><time>2026-04-25T13:28:31.341Z</time></trkpt><trkpt lat="43.1542005" lon="12.8803119"><ele>687.0</ele><time>2026-04-25T13:28:33.342Z</time></trkpt><trkpt lat="43.1541189" lon="12.880365"><ele>687.0</ele><time>2026-04-25T13:28:35.329Z</time></trkpt><trkpt lat="43.154063" lon="12.8804293"><ele>687.0</ele><time>2026-04-25T13:28:37.326Z</time></trkpt><trkpt lat="43.1539934" lon="12.8805233"><ele>683.3333333333334</ele><time>2026-04-25T13:28:40.325Z</time></trkpt><trkpt lat="43.1539559" lon="12.8806406"><ele>679.6666666666666</ele><time>2026-04-25T13:28:42.328Z</time></trkpt><trkpt lat="43.1539171" lon="12.8807938"><ele>676.0</ele><time>2026-04-25T13:28:44.327Z</time></trkpt><trkpt lat="43.1538786" lon="12.8808643"><ele>672.3333333333333</ele><time>2026-04-25T13:28:45.328Z</time></trkpt><trkpt lat="43.1538219" lon="12.8809213"><ele>668.6666666666666</ele><time>2026-04-25T13:28:46.333Z</time></trkpt><trkpt lat="43.1537589" lon="12.8809725"><ele>665.0</ele><time>2026-04-25T13:28:47.322Z</time></trkpt><trkpt lat="43.1536939" lon="12.8810295"><ele>665.0</ele><time>2026-04-25T13:28:48.333Z</time></trkpt><trkpt lat="43.1536277" lon="12.8810923"><ele>665.0</ele><time>2026-04-25T13:28:49.33Z</time></trkpt><trkpt lat="43.1535604" lon="12.8811536"><ele>665.0</ele><time>2026-04-25T13:28:50.332Z</time></trkpt><trkpt lat="43.1534936" lon="12.8812197"><ele>665.0</ele><time>2026-04-25T13:28:51.331Z</time></trkpt><trkpt lat="43.1534313" lon="12.8812925"><ele>665.0</ele><time>2026-04-25T13:28:52.331Z</time></trkpt><trkpt lat="43.1533794" lon="12.8813784"><ele>665.0</ele><time>2026-04-25T13:28:53.33Z</time></trkpt><trkpt lat="43.1533319" lon="12.881475"><ele>665.0</ele><time>2026-04-25T13:28:54.33Z</time></trkpt><trkpt lat="43.1532833" lon="12.8815749"><ele>665.0</ele><time>2026-04-25T13:28:55.333Z</time></trkpt><trkpt lat="43.1532301" lon="12.8816717"><ele>665.0</ele><time>2026-04-25T13:28:56.321Z</time></trkpt><trkpt lat="43.153177" lon="12.8817635"><ele>665.0</ele><time>2026-04-25T13:28:57.33Z</time></trkpt><trkpt lat="43.1531281" lon="12.8818518"><ele>665.0</ele><time>2026-04-25T13:28:58.333Z</time></trkpt><trkpt lat="43.1530788" lon="12.8819338"><ele>665.0</ele><time>2026-04-25T13:28:59.328Z</time></trkpt><trkpt lat="43.1530277" lon="12.8820122"><ele>661.3333333333333</ele><time>2026-04-25T13:29:00.334Z</time></trkpt><trkpt lat="43.1529752" lon="12.8820868"><ele>657.6666666666666</ele><time>2026-04-25T13:29:01.334Z</time></trkpt><trkpt lat="43.1529256" lon="12.8821624"><ele>654.0</ele><time>2026-04-25T13:29:02.334Z</time></trkpt><trkpt lat="43.1528899" lon="12.8822447"><ele>650.3333333333334</ele><time>2026-04-25T13:29:03.32Z</time></trkpt><trkpt lat="43.1528786" lon="12.8823438"><ele>646.6666666666667</ele><time>2026-04-25T13:29:04.332Z</time></trkpt><trkpt lat="43.1528869" lon="12.882457"><ele>643.0</ele><time>2026-04-25T13:29:05.334Z</time></trkpt><trkpt lat="43.1529123" lon="12.8825595"><ele>645.0</ele><time>2026-04-25T13:29:06.321Z</time></trkpt><trkpt lat="43.1529601" lon="12.882646"><ele>647.0</ele><time>2026-04-25T13:29:07.331Z</time></trkpt><trkpt lat="43.1530275" lon="12.8827144"><ele>649.0</ele><time>2026-04-25T13:29:08.332Z</time></trkpt><trkpt lat="43.1531121" lon="12.882765"><ele>651.0</ele><time>2026-04-25T13:29:09.331Z</time></trkpt><trkpt lat="43.1532039" lon="12.8828082"><ele>653.0</ele><time>2026-04-25T13:29:10.333Z</time></trkpt><trkpt lat="43.1532981" lon="12.8828556"><ele>653.0</ele><time>2026-04-25T13:29:11.332Z</time></trkpt><trkpt lat="43.1533871" lon="12.8829137"><ele>653.0</ele><time>2026-04-25T13:29:12.337Z</time></trkpt><trkpt lat="43.153466" lon="12.8829844"><ele>653.0</ele><time>2026-04-25T13:29:13.333Z</time></trkpt><trkpt lat="43.1535232" lon="12.8830714"><ele>653.0</ele><time>2026-04-25T13:29:14.334Z</time></trkpt><trkpt lat="43.1535472" lon="12.8831754"><ele>653.0</ele><time>2026-04-25T13:29:15.325Z</time></trkpt><trkpt lat="43.1535404" lon="12.8832857"><ele>653.0</ele><time>2026-04-25T13:29:16.336Z</time></trkpt><trkpt lat="43.1535039" lon="12.8833916"><ele>655.5999999999999</ele><time>2026-04-25T13:29:17.323Z</time></trkpt><trkpt lat="43.1534387" lon="12.8834765"><ele>658.1999999999999</ele><time>2026-04-25T13:29:18.331Z</time></trkpt><trkpt lat="43.1533556" lon="12.8835358"><ele>660.8</ele><time>2026-04-25T13:29:19.33Z</time></trkpt><trkpt lat="43.1532631" lon="12.8835928"><ele>663.4</ele><time>2026-04-25T13:29:20.329Z</time></trkpt><trkpt lat="43.1531615" lon="12.8836638"><ele>666.0</ele><time>2026-04-25T13:29:21.327Z</time></trkpt><trkpt lat="43.1530576" lon="12.8837546"><ele>658.75</ele><time>2026-04-25T13:29:22.336Z</time></trkpt><trkpt lat="43.1529583" lon="12.8838551"><ele>651.5</ele><time>2026-04-25T13:29:23.335Z</time></trkpt><trkpt lat="43.1528699" lon="12.8839599"><ele>644.25</ele><time>2026-04-25T13:29:24.332Z</time></trkpt><trkpt lat="43.1527954" lon="12.8840706"><ele>637.0</ele><time>2026-04-25T13:29:25.326Z</time></trkpt><trkpt lat="43.1527264" lon="12.8841856"><ele>638.6</ele><time>2026-04-25T13:29:26.332Z</time></trkpt><trkpt lat="43.1526619" lon="12.8842981"><ele>640.2</ele><time>2026-04-25T13:29:27.332Z</time></trkpt><trkpt lat="43.1526027" lon="12.8844029"><ele>641.8</ele><time>2026-04-25T13:29:28.334Z</time></trkpt><trkpt lat="43.1525484" lon="12.8845008"><ele>643.4</ele><time>2026-04-25T13:29:29.324Z</time></trkpt><trkpt lat="43.1525031" lon="12.8845972"><ele>645.0</ele><time>2026-04-25T13:29:30.324Z</time></trkpt><trkpt lat="43.1524764" lon="12.8846967"><ele>645.0</ele><time>2026-04-25T13:29:31.331Z</time></trkpt><trkpt lat="43.1524619" lon="12.8847944"><ele>645.0</ele><time>2026-04-25T13:29:32.324Z</time></trkpt><trkpt lat="43.1524392" lon="12.8849377"><ele>645.0</ele><time>2026-04-25T13:29:34.328Z</time></trkpt><trkpt lat="43.1523822" lon="12.8850534"><ele>645.0</ele><time>2026-04-25T13:29:36.325Z</time></trkpt><trkpt lat="43.1523001" lon="12.8851722"><ele>645.0</ele><time>2026-04-25T13:29:38.328Z</time></trkpt><trkpt lat="43.15224" lon="12.8852908"><ele>644.6666666666666</ele><time>2026-04-25T13:29:40.327Z</time></trkpt><trkpt lat="43.1521926" lon="12.88535"><ele>644.3333333333334</ele><time>2026-04-25T13:29:42.322Z</time></trkpt><trkpt lat="43.1521273" lon="12.8853089"><ele>644.0</ele><time>2026-04-25T13:30:12.33Z</time></trkpt><trkpt lat="43.1521424" lon="12.8851755"><ele>643.6666666666667</ele><time>2026-04-25T13:30:14.326Z</time></trkpt><trkpt lat="43.1521617" lon="12.8850698"><ele>643.3333333333334</ele><time>2026-04-25T13:30:15.329Z</time></trkpt><trkpt lat="43.1521853" lon="12.8849424"><ele>643.0</ele><time>2026-04-25T13:30:16.327Z</time></trkpt><trkpt lat="43.1522066" lon="12.8848023"><ele>642.0</ele><time>2026-04-25T13:30:17.329Z</time></trkpt><trkpt lat="43.1522362" lon="12.8846496"><ele>641.0</ele><time>2026-04-25T13:30:18.328Z</time></trkpt><trkpt lat="43.1522705" lon="12.8844935"><ele>640.0</ele><time>2026-04-25T13:30:19.332Z</time></trkpt><trkpt lat="43.152308" lon="12.8843387"><ele>639.0</ele><time>2026-04-25T13:30:20.322Z</time></trkpt><trkpt lat="43.1523413" lon="12.8841801"><ele>636.75</ele><time>2026-04-25T13:30:21.332Z</time></trkpt><trkpt lat="43.1523628" lon="12.8840103"><ele>634.5</ele><time>2026-04-25T13:30:22.318Z</time></trkpt><trkpt lat="43.1523673" lon="12.8838425"><ele>632.25</ele><time>2026-04-25T13:30:23.324Z</time></trkpt><trkpt lat="43.1523575" lon="12.8836895"><ele>630.0</ele><time>2026-04-25T13:30:24.331Z</time></trkpt><trkpt lat="43.1523286" lon="12.8835514"><ele>628.8</ele><time>2026-04-25T13:30:25.333Z</time></trkpt><trkpt lat="43.1522809" lon="12.8834128"><ele>627.6</ele><time>2026-04-25T13:30:26.331Z</time></trkpt><trkpt lat="43.1522247" lon="12.88328"><ele>626.4</ele><time>2026-04-25T13:30:27.331Z</time></trkpt><trkpt lat="43.1521666" lon="12.8831466"><ele>625.2</ele><time>2026-04-25T13:30:28.327Z</time></trkpt><trkpt lat="43.1521099" lon="12.8830139"><ele>624.0</ele><time>2026-04-25T13:30:29.328Z</time></trkpt><trkpt lat="43.1520733" lon="12.8828832"><ele>624.0</ele><time>2026-04-25T13:30:30.327Z</time></trkpt><trkpt lat="43.1520582" lon="12.8827429"><ele>624.0</ele><time>2026-04-25T13:30:31.324Z</time></trkpt><trkpt lat="43.1520607" lon="12.8825892"><ele>624.0</ele><time>2026-04-25T13:30:32.324Z</time></trkpt><trkpt lat="43.1520803" lon="12.8824219"><ele>624.0</ele><time>2026-04-25T13:30:33.327Z</time></trkpt><trkpt lat="43.1521076" lon="12.8822396"><ele>623.75</ele><time>2026-04-25T13:30:34.328Z</time></trkpt><trkpt lat="43.1521336" lon="12.882042"><ele>623.5</ele><time>2026-04-25T13:30:35.322Z</time></trkpt><trkpt lat="43.152149" lon="12.8818417"><ele>623.25</ele><time>2026-04-25T13:30:36.321Z</time></trkpt><trkpt lat="43.1521504" lon="12.8816448"><ele>623.0</ele><time>2026-04-25T13:30:37.326Z</time></trkpt><trkpt lat="43.1521364" lon="12.8814554"><ele>623.6666666666666</ele><time>2026-04-25T13:30:38.326Z</time></trkpt><trkpt lat="43.152126" lon="12.8812567"><ele>624.3333333333334</ele><time>2026-04-25T13:30:39.33Z</time></trkpt><trkpt lat="43.152132" lon="12.8810365"><ele>625.0</ele><time>2026-04-25T13:30:40.329Z</time></trkpt><trkpt lat="43.1521425" lon="12.8807937"><ele>625.6666666666667</ele><time>2026-04-25T13:30:41.325Z</time></trkpt><trkpt lat="43.1521504" lon="12.8805532"><ele>626.3333333333334</ele><time>2026-04-25T13:30:42.33Z</time></trkpt><trkpt lat="43.1521667" lon="12.8803328"><ele>627.0</ele><time>2026-04-25T13:30:43.329Z</time></trkpt><trkpt lat="43.1521962" lon="12.8801338"><ele>628.75</ele><time>2026-04-25T13:30:44.326Z</time></trkpt><trkpt lat="43.1522425" lon="12.8799568"><ele>630.5</ele><time>2026-04-25T13:30:45.333Z</time></trkpt><trkpt lat="43.1523151" lon="12.8797902"><ele>632.25</ele><time>2026-04-25T13:30:46.321Z</time></trkpt><trkpt lat="43.1523819" lon="12.8796054"><ele>634.0</ele><time>2026-04-25T13:30:47.333Z</time></trkpt><trkpt lat="43.1524339" lon="12.8793896"><ele>630.6666666666667</ele><time>2026-04-25T13:30:48.325Z</time></trkpt><trkpt lat="43.1524707" lon="12.8791533"><ele>627.3333333333334</ele><time>2026-04-25T13:30:49.324Z</time></trkpt><trkpt lat="43.1525015" lon="12.8789278"><ele>624.0</ele><time>2026-04-25T13:30:50.32Z</time></trkpt><trkpt lat="43.1525335" lon="12.8787149"><ele>624.0</ele><time>2026-04-25T13:30:51.33Z</time></trkpt><trkpt lat="43.1525663" lon="12.8785157"><ele>624.0</ele><time>2026-04-25T13:30:52.333Z</time></trkpt><trkpt lat="43.1526008" lon="12.8783296"><ele>624.0</ele><time>2026-04-25T13:30:53.332Z</time></trkpt><trkpt lat="43.1526266" lon="12.8781613"><ele>624.0</ele><time>2026-04-25T13:30:54.327Z</time></trkpt><trkpt lat="43.15262" lon="12.877979"><ele>624.0</ele><time>2026-04-25T13:30:55.334Z</time></trkpt><trkpt lat="43.1525734" lon="12.8778128"><ele>624.0</ele><time>2026-04-25T13:30:56.32Z</time></trkpt><trkpt lat="43.1525039" lon="12.8776569"><ele>624.0</ele><time>2026-04-25T13:30:57.331Z</time></trkpt><trkpt lat="43.1524382" lon="12.877494"><ele>624.0</ele><time>2026-04-25T13:30:58.32Z</time></trkpt><trkpt lat="43.1523945" lon="12.8773108"><ele>623.6666666666666</ele><time>2026-04-25T13:30:59.333Z</time></trkpt><trkpt lat="43.1523659" lon="12.8771121"><ele>623.3333333333333</ele><time>2026-04-25T13:31:00.329Z</time></trkpt><trkpt lat="43.1523372" lon="12.8769006"><ele>623.0</ele><time>2026-04-25T13:31:01.328Z</time></trkpt><trkpt lat="43.1523071" lon="12.8766713"><ele>621.3333333333333</ele><time>2026-04-25T13:31:02.328Z</time></trkpt><trkpt lat="43.1522688" lon="12.8764076"><ele>619.6666666666666</ele><time>2026-04-25T13:31:03.328Z</time></trkpt><trkpt lat="43.1522201" lon="12.8761344"><ele>618.0</ele><time>2026-04-25T13:31:04.331Z</time></trkpt><trkpt lat="43.1521706" lon="12.8758785"><ele>618.0</ele><time>2026-04-25T13:31:05.332Z</time></trkpt><trkpt lat="43.1521192" lon="12.8756416"><ele>618.0</ele><time>2026-04-25T13:31:06.319Z</time></trkpt><trkpt lat="43.1520605" lon="12.8754212"><ele>618.0</ele><time>2026-04-25T13:31:07.32Z</time></trkpt><trkpt lat="43.1519878" lon="12.8752055"><ele>617.6666666666666</ele><time>2026-04-25T13:31:08.33Z</time></trkpt><trkpt lat="43.151894" lon="12.8749901"><ele>617.3333333333333</ele><time>2026-04-25T13:31:09.332Z</time></trkpt><trkpt lat="43.1517846" lon="12.8747652"><ele>617.0</ele><time>2026-04-25T13:31:10.325Z</time></trkpt><trkpt lat="43.1516717" lon="12.874531"><ele>617.0</ele><time>2026-04-25T13:31:11.322Z</time></trkpt><trkpt lat="43.1515633" lon="12.8743084"><ele>617.0</ele><time>2026-04-25T13:31:12.339Z</time></trkpt><trkpt lat="43.1514569" lon="12.8741031"><ele>617.0</ele><time>2026-04-25T13:31:13.321Z</time></trkpt><trkpt lat="43.1513551" lon="12.8739143"><ele>618.0</ele><time>2026-04-25T13:31:14.33Z</time></trkpt><trkpt lat="43.1512537" lon="12.8737463"><ele>619.0</ele><time>2026-04-25T13:31:15.32Z</time></trkpt><trkpt lat="43.1511543" lon="12.8735978"><ele>620.0</ele><time>2026-04-25T13:31:16.323Z</time></trkpt><trkpt lat="43.1510615" lon="12.8734587"><ele>621.0</ele><time>2026-04-25T13:31:17.331Z</time></trkpt><trkpt lat="43.1509858" lon="12.8733201"><ele>618.75</ele><time>2026-04-25T13:31:18.324Z</time></trkpt><trkpt lat="43.1509418" lon="12.8731793"><ele>616.5</ele><time>2026-04-25T13:31:19.321Z</time></trkpt><trkpt lat="43.1509314" lon="12.8730387"><ele>614.25</ele><time>2026-04-25T13:31:20.322Z</time></trkpt><trkpt lat="43.1509586" lon="12.8728735"><ele>612.0</ele><time>2026-04-25T13:31:21.335Z</time></trkpt><trkpt lat="43.1510041" lon="12.8726766"><ele>612.5</ele><time>2026-04-25T13:31:22.333Z</time></trkpt><trkpt lat="43.1510198" lon="12.8724774"><ele>613.0</ele><time>2026-04-25T13:31:23.332Z</time></trkpt><trkpt lat="43.1510021" lon="12.8722767"><ele>613.5</ele><time>2026-04-25T13:31:24.336Z</time></trkpt><trkpt lat="43.1509591" lon="12.8720769"><ele>614.0</ele><time>2026-04-25T13:31:25.33Z</time></trkpt><trkpt lat="43.1508948" lon="12.8718904"><ele>616.3333333333333</ele><time>2026-04-25T13:31:26.333Z</time></trkpt><trkpt lat="43.1508017" lon="12.8717181"><ele>618.6666666666666</ele><time>2026-04-25T13:31:27.327Z</time></trkpt><trkpt lat="43.1506872" lon="12.8715521"><ele>621.0</ele><time>2026-04-25T13:31:28.333Z</time></trkpt><trkpt lat="43.1505775" lon="12.8713852"><ele>621.3333333333334</ele><time>2026-04-25T13:31:29.332Z</time></trkpt><trkpt lat="43.1504774" lon="12.8711989"><ele>621.6666666666667</ele><time>2026-04-25T13:31:30.318Z</time></trkpt><trkpt lat="43.1503882" lon="12.8709827"><ele>622.0</ele><time>2026-04-25T13:31:31.323Z</time></trkpt><trkpt lat="43.150309" lon="12.8707606"><ele>619.0</ele><time>2026-04-25T13:31:32.32Z</time></trkpt><trkpt lat="43.1502387" lon="12.870539"><ele>616.0</ele><time>2026-04-25T13:31:33.327Z</time></trkpt><trkpt lat="43.1501682" lon="12.8703343"><ele>613.0</ele><time>2026-04-25T13:31:34.331Z</time></trkpt><trkpt lat="43.1500856" lon="12.8701467"><ele>612.0</ele><time>2026-04-25T13:31:35.328Z</time></trkpt><trkpt lat="43.1499798" lon="12.869964"><ele>611.0</ele><time>2026-04-25T13:31:36.322Z</time></trkpt><trkpt lat="43.1498501" lon="12.8697816"><ele>610.0</ele><time>2026-04-25T13:31:37.331Z</time></trkpt><trkpt lat="43.1497115" lon="12.8695878"><ele>608.3333333333334</ele><time>2026-04-25T13:31:38.318Z</time></trkpt><trkpt lat="43.1495682" lon="12.8693899"><ele>606.6666666666666</ele><time>2026-04-25T13:31:39.327Z</time></trkpt><trkpt lat="43.1494283" lon="12.8691971"><ele>605.0</ele><time>2026-04-25T13:31:40.328Z</time></trkpt><trkpt lat="43.149296" lon="12.8690095"><ele>605.0</ele><time>2026-04-25T13:31:41.32Z</time></trkpt><trkpt lat="43.149173" lon="12.8688317"><ele>605.0</ele><time>2026-04-25T13:31:42.326Z</time></trkpt><trkpt lat="43.1490556" lon="12.8686643"><ele>605.0</ele><time>2026-04-25T13:31:43.323Z</time></trkpt><trkpt lat="43.1489452" lon="12.8685037"><ele>602.5</ele><time>2026-04-25T13:31:44.321Z</time></trkpt><trkpt lat="43.148837" lon="12.8683497"><ele>600.0</ele><time>2026-04-25T13:31:45.329Z</time></trkpt><trkpt lat="43.1487303" lon="12.8682078"><ele>597.5</ele><time>2026-04-25T13:31:46.326Z</time></trkpt><trkpt lat="43.1486235" lon="12.8680798"><ele>595.0</ele><time>2026-04-25T13:31:47.331Z</time></trkpt><trkpt lat="43.1485158" lon="12.8679699"><ele>595.0</ele><time>2026-04-25T13:31:48.331Z</time></trkpt><trkpt lat="43.1484092" lon="12.8678837"><ele>595.0</ele><time>2026-04-25T13:31:49.325Z</time></trkpt><trkpt lat="43.1483016" lon="12.8678208"><ele>595.0</ele><time>2026-04-25T13:31:50.322Z</time></trkpt><trkpt lat="43.1481997" lon="12.8677569"><ele>595.0</ele><time>2026-04-25T13:31:51.329Z</time></trkpt><trkpt lat="43.148114" lon="12.8676721"><ele>594.25</ele><time>2026-04-25T13:31:52.33Z</time></trkpt><trkpt lat="43.1480526" lon="12.8675625"><ele>593.5</ele><time>2026-04-25T13:31:53.322Z</time></trkpt><trkpt lat="43.1480185" lon="12.867413"><ele>592.75</ele><time>2026-04-25T13:31:54.321Z</time></trkpt><trkpt lat="43.1480028" lon="12.8672289"><ele>592.0</ele><time>2026-04-25T13:31:55.329Z</time></trkpt><trkpt lat="43.1480031" lon="12.8670132"><ele>592.0</ele><time>2026-04-25T13:31:56.319Z</time></trkpt><trkpt lat="43.1480095" lon="12.8667914"><ele>592.0</ele><time>2026-04-25T13:31:57.321Z</time></trkpt><trkpt lat="43.1480034" lon="12.8665879"><ele>592.0</ele><time>2026-04-25T13:31:58.331Z</time></trkpt><trkpt lat="43.1479755" lon="12.8663989"><ele>591.6666666666667</ele><time>2026-04-25T13:31:59.332Z</time></trkpt><trkpt lat="43.147925" lon="12.8662135"><ele>591.3333333333334</ele><time>2026-04-25T13:32:00.322Z</time></trkpt><trkpt lat="43.1478471" lon="12.8660334"><ele>591.0</ele><time>2026-04-25T13:32:01.33Z</time></trkpt><trkpt lat="43.147747" lon="12.8658698"><ele>591.0</ele><time>2026-04-25T13:32:02.33Z</time></trkpt><trkpt lat="43.1476392" lon="12.8656787"><ele>591.0</ele><time>2026-04-25T13:32:03.327Z</time></trkpt><trkpt lat="43.1475434" lon="12.8654645"><ele>591.0</ele><time>2026-04-25T13:32:04.326Z</time></trkpt><trkpt lat="43.1474528" lon="12.8652563"><ele>588.0</ele><time>2026-04-25T13:32:05.326Z</time></trkpt><trkpt lat="43.1473603" lon="12.8650444"><ele>585.0</ele><time>2026-04-25T13:32:06.32Z</time></trkpt><trkpt lat="43.1472602" lon="12.8648274"><ele>582.0</ele><time>2026-04-25T13:32:07.326Z</time></trkpt><trkpt lat="43.1471538" lon="12.8646225"><ele>582.0</ele><time>2026-04-25T13:32:08.325Z</time></trkpt><trkpt lat="43.1470427" lon="12.8644364"><ele>582.0</ele><time>2026-04-25T13:32:09.325Z</time></trkpt><trkpt lat="43.1469275" lon="12.864268"><ele>582.0</ele><time>2026-04-25T13:32:10.328Z</time></trkpt><trkpt lat="43.1468181" lon="12.864102"><ele>580.3333333333334</ele><time>2026-04-25T13:32:11.33Z</time></trkpt><trkpt lat="43.1467181" lon="12.8639333"><ele>578.6666666666667</ele><time>2026-04-25T13:32:12.323Z</time></trkpt><trkpt lat="43.1466274" lon="12.8637657"><ele>577.0</ele><time>2026-04-25T13:32:13.325Z</time></trkpt><trkpt lat="43.1465328" lon="12.8636105"><ele>577.0</ele><time>2026-04-25T13:32:14.329Z</time></trkpt><trkpt lat="43.1464206" lon="12.8634698"><ele>577.0</ele><time>2026-04-25T13:32:15.329Z</time></trkpt><trkpt lat="43.1462804" lon="12.8633499"><ele>577.0</ele><time>2026-04-25T13:32:16.321Z</time></trkpt><trkpt lat="43.146128" lon="12.8632615"><ele>577.5</ele><time>2026-04-25T13:32:17.329Z</time></trkpt><trkpt lat="43.1459854" lon="12.8632029"><ele>578.0</ele><time>2026-04-25T13:32:18.33Z</time></trkpt><trkpt lat="43.1458601" lon="12.8631533"><ele>578.5</ele><time>2026-04-25T13:32:19.323Z</time></trkpt><trkpt lat="43.1457534" lon="12.8630937"><ele>579.0</ele><time>2026-04-25T13:32:20.32Z</time></trkpt><trkpt lat="43.145664" lon="12.8630079"><ele>579.0</ele><time>2026-04-25T13:32:21.329Z</time></trkpt><trkpt lat="43.1455982" lon="12.8628745"><ele>579.0</ele><time>2026-04-25T13:32:22.323Z</time></trkpt><trkpt lat="43.145569" lon="12.862685"><ele>579.0</ele><time>2026-04-25T13:32:23.323Z</time></trkpt><trkpt lat="43.1455684" lon="12.8624677"><ele>579.0</ele><time>2026-04-25T13:32:24.328Z</time></trkpt><trkpt lat="43.1455724" lon="12.8622212"><ele>577.6666666666666</ele><time>2026-04-25T13:32:25.327Z</time></trkpt><trkpt lat="43.145563" lon="12.8619676"><ele>576.3333333333333</ele><time>2026-04-25T13:32:26.322Z</time></trkpt><trkpt lat="43.1455492" lon="12.8617285"><ele>575.0</ele><time>2026-04-25T13:32:27.323Z</time></trkpt><trkpt lat="43.1455363" lon="12.8615053"><ele>575.0</ele><time>2026-04-25T13:32:28.325Z</time></trkpt><trkpt lat="43.1455235" lon="12.8612936"><ele>575.0</ele><time>2026-04-25T13:32:29.321Z</time></trkpt><trkpt lat="43.1455035" lon="12.8610904"><ele>575.0</ele><time>2026-04-25T13:32:30.326Z</time></trkpt><trkpt lat="43.1454691" lon="12.8608982"><ele>575.0</ele><time>2026-04-25T13:32:31.325Z</time></trkpt><trkpt lat="43.1454227" lon="12.8607162"><ele>575.5</ele><time>2026-04-25T13:32:32.322Z</time></trkpt><trkpt lat="43.1453626" lon="12.8605407"><ele>576.0</ele><time>2026-04-25T13:32:33.325Z</time></trkpt><trkpt lat="43.1452852" lon="12.8603738"><ele>576.5</ele><time>2026-04-25T13:32:34.327Z</time></trkpt><trkpt lat="43.1451936" lon="12.860223"><ele>577.0</ele><time>2026-04-25T13:32:35.327Z</time></trkpt><trkpt lat="43.1451003" lon="12.8600852"><ele>577.0</ele><time>2026-04-25T13:32:36.32Z</time></trkpt><trkpt lat="43.1450133" lon="12.8599502"><ele>577.0</ele><time>2026-04-25T13:32:37.319Z</time></trkpt><trkpt lat="43.1449402" lon="12.8598073"><ele>577.0</ele><time>2026-04-25T13:32:38.328Z</time></trkpt><trkpt lat="43.1448935" lon="12.8596487"><ele>577.0</ele><time>2026-04-25T13:32:39.324Z</time></trkpt><trkpt lat="43.1448699" lon="12.8594718"><ele>577.25</ele><time>2026-04-25T13:32:40.324Z</time></trkpt><trkpt lat="43.1448591" lon="12.8592823"><ele>577.5</ele><time>2026-04-25T13:32:41.319Z</time></trkpt><trkpt lat="43.1448531" lon="12.8590955"><ele>577.75</ele><time>2026-04-25T13:32:42.321Z</time></trkpt><trkpt lat="43.1448637" lon="12.8589211"><ele>578.0</ele><time>2026-04-25T13:32:43.321Z</time></trkpt><trkpt lat="43.1448933" lon="12.8587635"><ele>578.0</ele><time>2026-04-25T13:32:44.326Z</time></trkpt><trkpt lat="43.1449478" lon="12.8586112"><ele>578.0</ele><time>2026-04-25T13:32:45.328Z</time></trkpt><trkpt lat="43.1449958" lon="12.858452"><ele>578.0</ele><time>2026-04-25T13:32:46.329Z</time></trkpt><trkpt lat="43.1450277" lon="12.8582727"><ele>578.0</ele><time>2026-04-25T13:32:47.319Z</time></trkpt><trkpt lat="43.14504" lon="12.8580767"><ele>576.0</ele><time>2026-04-25T13:32:48.321Z</time></trkpt><trkpt lat="43.1450318" lon="12.8578733"><ele>574.0</ele><time>2026-04-25T13:32:49.33Z</time></trkpt><trkpt lat="43.1450196" lon="12.8576738"><ele>572.0</ele><time>2026-04-25T13:32:50.326Z</time></trkpt><trkpt lat="43.1450141" lon="12.857481"><ele>570.0</ele><time>2026-04-25T13:32:51.33Z</time></trkpt><trkpt lat="43.1450206" lon="12.8573029"><ele>569.0</ele><time>2026-04-25T13:32:52.326Z</time></trkpt><trkpt lat="43.1450405" lon="12.8571321"><ele>568.0</ele><time>2026-04-25T13:32:53.331Z</time></trkpt><trkpt lat="43.1450561" lon="12.8569572"><ele>567.0</ele><time>2026-04-25T13:32:54.317Z</time></trkpt><trkpt lat="43.1450639" lon="12.8567797"><ele>566.0</ele><time>2026-04-25T13:32:55.327Z</time></trkpt><trkpt lat="43.1450708" lon="12.8566007"><ele>565.0</ele><time>2026-04-25T13:32:56.327Z</time></trkpt><trkpt lat="43.1450869" lon="12.8564231"><ele>564.0</ele><time>2026-04-25T13:32:57.332Z</time></trkpt><trkpt lat="43.1451122" lon="12.8562503"><ele>563.0</ele><time>2026-04-25T13:32:58.326Z</time></trkpt><trkpt lat="43.1451447" lon="12.8560881"><ele>562.0</ele><time>2026-04-25T13:32:59.331Z</time></trkpt><trkpt lat="43.145178" lon="12.8559412"><ele>561.0</ele><time>2026-04-25T13:33:00.325Z</time></trkpt><trkpt lat="43.1452052" lon="12.8558074"><ele>560.0</ele><time>2026-04-25T13:33:01.323Z</time></trkpt><trkpt lat="43.145226" lon="12.8556863"><ele>559.0</ele><time>2026-04-25T13:33:02.318Z</time></trkpt><trkpt lat="43.1452407" lon="12.8555841"><ele>558.0</ele><time>2026-04-25T13:33:03.325Z</time></trkpt><trkpt lat="43.1452513" lon="12.8554951"><ele>557.0</ele><time>2026-04-25T13:33:04.326Z</time></trkpt><trkpt lat="43.1452616" lon="12.8554052"><ele>556.0</ele><time>2026-04-25T13:33:05.326Z</time></trkpt><trkpt lat="43.1452715" lon="12.8553166"><ele>556.0</ele><time>2026-04-25T13:33:06.32Z</time></trkpt><trkpt lat="43.1452791" lon="12.8552286"><ele>556.0</ele><time>2026-04-25T13:33:07.32Z</time></trkpt><trkpt lat="43.1452848" lon="12.8551409"><ele>556.0</ele><time>2026-04-25T13:33:08.325Z</time></trkpt><trkpt lat="43.1452954" lon="12.8549812"><ele>556.0</ele><time>2026-04-25T13:33:10.326Z</time></trkpt><trkpt lat="43.1452633" lon="12.8548385"><ele>556.0</ele><time>2026-04-25T13:33:12.331Z</time></trkpt><trkpt lat="43.145216" lon="12.8547609"><ele>556.0</ele><time>2026-04-25T13:33:13.328Z</time></trkpt><trkpt lat="43.1451449" lon="12.854674"><ele>556.4</ele><time>2026-04-25T13:33:14.33Z</time></trkpt><trkpt lat="43.1450634" lon="12.8545757"><ele>556.8</ele><time>2026-04-25T13:33:15.323Z</time></trkpt><trkpt lat="43.1449786" lon="12.8544842"><ele>557.1999999999999</ele><time>2026-04-25T13:33:16.321Z</time></trkpt><trkpt lat="43.1448932" lon="12.8544143"><ele>557.6</ele><time>2026-04-25T13:33:17.318Z</time></trkpt><trkpt lat="43.1448126" lon="12.8543738"><ele>558.0</ele><time>2026-04-25T13:33:18.319Z</time></trkpt><trkpt lat="43.1447432" lon="12.8543651"><ele>558.0</ele><time>2026-04-25T13:33:19.333Z</time></trkpt><trkpt lat="43.1446578" lon="12.8544121"><ele>558.0</ele><time>2026-04-25T13:33:21.331Z</time></trkpt><trkpt lat="43.144628" lon="12.8545288"><ele>558.0</ele><time>2026-04-25T13:33:23.327Z</time></trkpt><trkpt lat="43.144605" lon="12.8546229"><ele>558.0</ele><time>2026-04-25T13:33:24.338Z</time></trkpt><trkpt lat="43.1445792" lon="12.8547359"><ele>558.0</ele><time>2026-04-25T13:33:25.323Z</time></trkpt><trkpt lat="43.1445625" lon="12.8548569"><ele>558.0</ele><time>2026-04-25T13:33:26.327Z</time></trkpt><trkpt lat="43.1445498" lon="12.8549712"><ele>558.0</ele><time>2026-04-25T13:33:27.319Z</time></trkpt><trkpt lat="43.1445473" lon="12.8551199"><ele>558.0</ele><time>2026-04-25T13:33:29.324Z</time></trkpt><trkpt lat="43.144453" lon="12.8551373"><ele>558.0</ele><time>2026-04-25T13:33:33.318Z</time></trkpt><trkpt lat="43.1443345" lon="12.8550806"><ele>558.0</ele><time>2026-04-25T13:33:35.328Z</time></trkpt><trkpt lat="43.1442333" lon="12.8550387"><ele>558.0</ele><time>2026-04-25T13:33:37.325Z</time></trkpt><trkpt lat="43.14432" lon="12.8550675"><ele>558.0</ele><time>2026-04-25T13:33:50.326Z</time></trkpt><trkpt lat="43.1443976" lon="12.8551063"><ele>558.0</ele><time>2026-04-25T13:33:51.33Z</time></trkpt><trkpt lat="43.1444876" lon="12.8551595"><ele>558.0</ele><time>2026-04-25T13:33:52.322Z</time></trkpt><trkpt lat="43.1445761" lon="12.8552204"><ele>558.0</ele><time>2026-04-25T13:33:53.328Z</time></trkpt><trkpt lat="43.1446524" lon="12.855271"><ele>558.0</ele><time>2026-04-25T13:33:54.328Z</time></trkpt><trkpt lat="43.1447119" lon="12.8553116"><ele>558.0</ele><time>2026-04-25T13:33:55.322Z</time></trkpt><trkpt lat="43.1448109" lon="12.8553008"><ele>557.6666666666666</ele><time>2026-04-25T13:33:57.327Z</time></trkpt><trkpt lat="43.1448627" lon="12.8552357"><ele>557.3333333333334</ele><time>2026-04-25T13:33:58.32Z</time></trkpt><trkpt lat="43.1449259" lon="12.8551452"><ele>557.0</ele><time>2026-04-25T13:33:59.322Z</time></trkpt><trkpt lat="43.1449858" lon="12.8550487"><ele>556.6666666666667</ele><time>2026-04-25T13:34:00.329Z</time></trkpt><trkpt lat="43.1450396" lon="12.8549554"><ele>556.3333333333334</ele><time>2026-04-25T13:34:01.326Z</time></trkpt><trkpt lat="43.1450808" lon="12.8548688"><ele>556.0</ele><time>2026-04-25T13:34:02.318Z</time></trkpt><trkpt lat="43.1451345" lon="12.8547511"><ele>556.4</ele><time>2026-04-25T13:34:04.324Z</time></trkpt><trkpt lat="43.1451273" lon="12.8546479"><ele>556.8</ele><time>2026-04-25T13:34:06.33Z</time></trkpt><trkpt lat="43.1450185" lon="12.8545152"><ele>557.1999999999999</ele><time>2026-04-25T13:34:08.321Z</time></trkpt><trkpt lat="43.1449369" lon="12.8544471"><ele>557.6</ele><time>2026-04-25T13:34:09.332Z</time></trkpt><trkpt lat="43.1448585" lon="12.8544006"><ele>558.0</ele><time>2026-04-25T13:34:10.33Z</time></trkpt><trkpt lat="43.1447918" lon="12.8543834"><ele>558.0</ele><time>2026-04-25T13:34:11.329Z</time></trkpt><trkpt lat="43.1446832" lon="12.8543969"><ele>558.0</ele><time>2026-04-25T13:34:13.33Z</time></trkpt><trkpt lat="43.1445934" lon="12.8542993"><ele>558.0</ele><time>2026-04-25T13:34:15.326Z</time></trkpt><trkpt lat="43.1445465" lon="12.8541838"><ele>558.0</ele><time>2026-04-25T13:34:16.327Z</time></trkpt><trkpt lat="43.1444965" lon="12.8540605"><ele>558.0</ele><time>2026-04-25T13:34:17.33Z</time></trkpt><trkpt lat="43.1444326" lon="12.8539504"><ele>559.8</ele><time>2026-04-25T13:34:18.327Z</time></trkpt><trkpt lat="43.1443605" lon="12.8538557"><ele>561.5999999999999</ele><time>2026-04-25T13:34:19.322Z</time></trkpt><trkpt lat="43.1442783" lon="12.853779"><ele>563.4000000000001</ele><time>2026-04-25T13:34:20.329Z</time></trkpt><trkpt lat="43.1441875" lon="12.8537131"><ele>565.2</ele><time>2026-04-25T13:34:21.33Z</time></trkpt><trkpt lat="43.1440919" lon="12.8536509"><ele>567.0</ele><time>2026-04-25T13:34:22.331Z</time></trkpt><trkpt lat="43.1439913" lon="12.8535899"><ele>568.5</ele><time>2026-04-25T13:34:23.327Z</time></trkpt><trkpt lat="43.1438838" lon="12.8535268"><ele>570.0</ele><time>2026-04-25T13:34:24.328Z</time></trkpt><trkpt lat="43.1437729" lon="12.8534615"><ele>571.5</ele><time>2026-04-25T13:34:25.327Z</time></trkpt><trkpt lat="43.1436548" lon="12.8533954"><ele>573.0</ele><time>2026-04-25T13:34:26.317Z</time></trkpt><trkpt lat="43.1435416" lon="12.8533158"><ele>573.25</ele><time>2026-04-25T13:34:27.316Z</time></trkpt><trkpt lat="43.1434147" lon="12.8532268"><ele>573.5</ele><time>2026-04-25T13:34:28.328Z</time></trkpt><trkpt lat="43.1432811" lon="12.8531325"><ele>573.75</ele><time>2026-04-25T13:34:29.326Z</time></trkpt><trkpt lat="43.1431534" lon="12.8530408"><ele>574.0</ele><time>2026-04-25T13:34:30.326Z</time></trkpt><trkpt lat="43.1430339" lon="12.8529586"><ele>577.25</ele><time>2026-04-25T13:34:31.317Z</time></trkpt><trkpt lat="43.1429214" lon="12.8528871"><ele>580.5</ele><time>2026-04-25T13:34:32.32Z</time></trkpt><trkpt lat="43.1428083" lon="12.8528223"><ele>583.75</ele><time>2026-04-25T13:34:33.317Z</time></trkpt><trkpt lat="43.1426898" lon="12.8527576"><ele>587.0</ele><time>2026-04-25T13:34:34.319Z</time></trkpt><trkpt lat="43.1425742" lon="12.8526923"><ele>587.0</ele><time>2026-04-25T13:34:35.322Z</time></trkpt><trkpt lat="43.1424629" lon="12.8526243"><ele>587.0</ele><time>2026-04-25T13:34:36.325Z</time></trkpt><trkpt lat="43.1423503" lon="12.8525466"><ele>587.0</ele><time>2026-04-25T13:34:37.325Z</time></trkpt><trkpt lat="43.1422393" lon="12.8524662"><ele>587.0</ele><time>2026-04-25T13:34:38.322Z</time></trkpt><trkpt lat="43.1421353" lon="12.8523904"><ele>590.2</ele><time>2026-04-25T13:34:39.317Z</time></trkpt><trkpt lat="43.1420414" lon="12.8523109"><ele>593.4000000000001</ele><time>2026-04-25T13:34:40.316Z</time></trkpt><trkpt lat="43.141956" lon="12.8522238"><ele>596.5999999999999</ele><time>2026-04-25T13:34:41.33Z</time></trkpt><trkpt lat="43.1418827" lon="12.8521241"><ele>599.8</ele><time>2026-04-25T13:34:42.33Z</time></trkpt><trkpt lat="43.1418158" lon="12.8520043"><ele>603.0</ele><time>2026-04-25T13:34:43.323Z</time></trkpt><trkpt lat="43.141749" lon="12.8518817"><ele>605.6</ele><time>2026-04-25T13:34:44.322Z</time></trkpt><trkpt lat="43.1416841" lon="12.8517682"><ele>608.1999999999999</ele><time>2026-04-25T13:34:45.325Z</time></trkpt><trkpt lat="43.1416162" lon="12.8516567"><ele>610.8</ele><time>2026-04-25T13:34:46.324Z</time></trkpt><trkpt lat="43.1415393" lon="12.8515588"><ele>613.4</ele><time>2026-04-25T13:34:47.316Z</time></trkpt><trkpt lat="43.1414473" lon="12.851474"><ele>616.0</ele><time>2026-04-25T13:34:48.319Z</time></trkpt><trkpt lat="43.1413461" lon="12.8513952"><ele>616.0</ele><time>2026-04-25T13:34:49.324Z</time></trkpt><trkpt lat="43.1412525" lon="12.8513243"><ele>616.0</ele><time>2026-04-25T13:34:50.328Z</time></trkpt><trkpt lat="43.1411645" lon="12.8512476"><ele>616.0</ele><time>2026-04-25T13:34:51.325Z</time></trkpt><trkpt lat="43.1410811" lon="12.8511535"><ele>616.0</ele><time>2026-04-25T13:34:52.325Z</time></trkpt><trkpt lat="43.1410044" lon="12.8510481"><ele>616.0</ele><time>2026-04-25T13:34:53.323Z</time></trkpt><trkpt lat="43.1409294" lon="12.8509505"><ele>617.4</ele><time>2026-04-25T13:34:54.327Z</time></trkpt><trkpt lat="43.1408618" lon="12.8508635"><ele>618.8</ele><time>2026-04-25T13:34:55.328Z</time></trkpt><trkpt lat="43.1408004" lon="12.8507733"><ele>620.1999999999999</ele><time>2026-04-25T13:34:56.331Z</time></trkpt><trkpt lat="43.1407492" lon="12.850672"><ele>621.6</ele><time>2026-04-25T13:34:57.321Z</time></trkpt><trkpt lat="43.1407072" lon="12.8505506"><ele>623.0</ele><time>2026-04-25T13:34:58.319Z</time></trkpt><trkpt lat="43.1406667" lon="12.8504164"><ele>623.0</ele><time>2026-04-25T13:34:59.328Z</time></trkpt><trkpt lat="43.1406319" lon="12.8502704"><ele>623.0</ele><time>2026-04-25T13:35:00.323Z</time></trkpt><trkpt lat="43.1405987" lon="12.8501149"><ele>623.0</ele><time>2026-04-25T13:35:01.319Z</time></trkpt><trkpt lat="43.1405692" lon="12.8499695"><ele>623.0</ele><time>2026-04-25T13:35:02.329Z</time></trkpt><trkpt lat="43.1405386" lon="12.8498377"><ele>623.0</ele><time>2026-04-25T13:35:03.326Z</time></trkpt><trkpt lat="43.1404948" lon="12.8497161"><ele>618.4</ele><time>2026-04-25T13:35:04.328Z</time></trkpt><trkpt lat="43.1404408" lon="12.8496011"><ele>613.8</ele><time>2026-04-25T13:35:05.327Z</time></trkpt><trkpt lat="43.1403816" lon="12.8494927"><ele>609.2</ele><time>2026-04-25T13:35:06.312Z</time></trkpt><trkpt lat="43.1403231" lon="12.8493822"><ele>604.6</ele><time>2026-04-25T13:35:07.323Z</time></trkpt><trkpt lat="43.1402597" lon="12.8492702"><ele>600.0</ele><time>2026-04-25T13:35:08.324Z</time></trkpt><trkpt lat="43.1401927" lon="12.8491534"><ele>598.2</ele><time>2026-04-25T13:35:09.325Z</time></trkpt><trkpt lat="43.1401265" lon="12.8490255"><ele>596.4</ele><time>2026-04-25T13:35:10.316Z</time></trkpt><trkpt lat="43.1400628" lon="12.8489101"><ele>594.6</ele><time>2026-04-25T13:35:11.317Z</time></trkpt><trkpt lat="43.1400113" lon="12.8487996"><ele>592.8</ele><time>2026-04-25T13:35:12.328Z</time></trkpt><trkpt lat="43.1399725" lon="12.8486896"><ele>591.0</ele><time>2026-04-25T13:35:13.327Z</time></trkpt><trkpt lat="43.1399483" lon="12.8485706"><ele>592.2</ele><time>2026-04-25T13:35:14.325Z</time></trkpt><trkpt lat="43.1399284" lon="12.8484374"><ele>593.4000000000001</ele><time>2026-04-25T13:35:15.322Z</time></trkpt><trkpt lat="43.1399089" lon="12.8482919"><ele>594.6</ele><time>2026-04-25T13:35:16.326Z</time></trkpt><trkpt lat="43.1398862" lon="12.8481472"><ele>595.8000000000001</ele><time>2026-04-25T13:35:17.324Z</time></trkpt><trkpt lat="43.1398661" lon="12.8480041"><ele>597.0</ele><time>2026-04-25T13:35:18.319Z</time></trkpt><trkpt lat="43.1398493" lon="12.8478626"><ele>597.0</ele><time>2026-04-25T13:35:19.324Z</time></trkpt><trkpt lat="43.1398398" lon="12.8477202"><ele>597.0</ele><time>2026-04-25T13:35:20.325Z</time></trkpt><trkpt lat="43.1398395" lon="12.8475735"><ele>597.0</ele><time>2026-04-25T13:35:21.33Z</time></trkpt><trkpt lat="43.1398481" lon="12.8474312"><ele>597.0</ele><time>2026-04-25T13:35:22.329Z</time></trkpt><trkpt lat="43.1398573" lon="12.8472964"><ele>597.0</ele><time>2026-04-25T13:35:23.319Z</time></trkpt><trkpt lat="43.1398696" lon="12.8471693"><ele>597.6666666666666</ele><time>2026-04-25T13:35:24.328Z</time></trkpt><trkpt lat="43.1398849" lon="12.8470514"><ele>598.3333333333334</ele><time>2026-04-25T13:35:25.328Z</time></trkpt><trkpt lat="43.1399027" lon="12.8469424"><ele>599.0</ele><time>2026-04-25T13:35:26.326Z</time></trkpt><trkpt lat="43.139925" lon="12.8468325"><ele>599.6666666666667</ele><time>2026-04-25T13:35:27.328Z</time></trkpt><trkpt lat="43.1399546" lon="12.8467138"><ele>600.3333333333334</ele><time>2026-04-25T13:35:28.327Z</time></trkpt><trkpt lat="43.1399881" lon="12.8465922"><ele>601.0</ele><time>2026-04-25T13:35:29.32Z</time></trkpt><trkpt lat="43.1400268" lon="12.8464748"><ele>601.8333333333334</ele><time>2026-04-25T13:35:30.326Z</time></trkpt><trkpt lat="43.1400671" lon="12.8463647"><ele>602.6666666666667</ele><time>2026-04-25T13:35:31.328Z</time></trkpt><trkpt lat="43.1401139" lon="12.8462624"><ele>603.5</ele><time>2026-04-25T13:35:32.332Z</time></trkpt><trkpt lat="43.1401679" lon="12.8461755"><ele>604.3333333333334</ele><time>2026-04-25T13:35:33.324Z</time></trkpt><trkpt lat="43.1402262" lon="12.8461152"><ele>605.1666666666666</ele><time>2026-04-25T13:35:34.322Z</time></trkpt><trkpt lat="43.1402891" lon="12.8460899"><ele>606.0</ele><time>2026-04-25T13:35:35.326Z</time></trkpt><trkpt lat="43.1404059" lon="12.8461532"><ele>606.0</ele><time>2026-04-25T13:35:37.325Z</time></trkpt><trkpt lat="43.1404671" lon="12.846208"><ele>606.0</ele><time>2026-04-25T13:35:38.323Z</time></trkpt><trkpt lat="43.1405546" lon="12.8462665"><ele>606.0</ele><time>2026-04-25T13:35:40.326Z</time></trkpt><trkpt lat="43.1406283" lon="12.846212"><ele>606.0</ele><time>2026-04-25T13:35:48.325Z</time></trkpt><trkpt lat="43.1406565" lon="12.846055"><ele>606.0</ele><time>2026-04-25T13:35:50.319Z</time></trkpt><trkpt lat="43.1406591" lon="12.8459382"><ele>608.2</ele><time>2026-04-25T13:35:51.319Z</time></trkpt><trkpt lat="43.1406523" lon="12.8458099"><ele>610.4000000000001</ele><time>2026-04-25T13:35:52.328Z</time></trkpt><trkpt lat="43.1406377" lon="12.8456954"><ele>612.6</ele><time>2026-04-25T13:35:53.323Z</time></trkpt><trkpt lat="43.1406274" lon="12.8455572"><ele>614.8000000000001</ele><time>2026-04-25T13:35:55.33Z</time></trkpt><trkpt lat="43.1407067" lon="12.8456193"><ele>617.0</ele><time>2026-04-25T13:35:59.328Z</time></trkpt><trkpt lat="43.1407196" lon="12.8457929"><ele>618.2</ele><time>2026-04-25T13:36:01.327Z</time></trkpt><trkpt lat="43.1407181" lon="12.84591"><ele>619.4000000000001</ele><time>2026-04-25T13:36:02.328Z</time></trkpt><trkpt lat="43.1407213" lon="12.8460471"><ele>620.5999999999999</ele><time>2026-04-25T13:36:03.317Z</time></trkpt><trkpt lat="43.1407287" lon="12.846199"><ele>621.8</ele><time>2026-04-25T13:36:04.319Z</time></trkpt><trkpt lat="43.1407421" lon="12.8463629"><ele>623.0</ele><time>2026-04-25T13:36:05.328Z</time></trkpt><trkpt lat="43.1407619" lon="12.8465315"><ele>623.0</ele><time>2026-04-25T13:36:06.328Z</time></trkpt><trkpt lat="43.1407874" lon="12.8467037"><ele>623.0</ele><time>2026-04-25T13:36:07.333Z</time></trkpt><trkpt lat="43.1408184" lon="12.8468818"><ele>623.0</ele><time>2026-04-25T13:36:08.327Z</time></trkpt><trkpt lat="43.1408481" lon="12.8470528"><ele>623.0</ele><time>2026-04-25T13:36:09.321Z</time></trkpt><trkpt lat="43.1408681" lon="12.8472118"><ele>622.8</ele><time>2026-04-25T13:36:10.315Z</time></trkpt><trkpt lat="43.1408751" lon="12.8473674"><ele>622.5999999999999</ele><time>2026-04-25T13:36:11.319Z</time></trkpt><trkpt lat="43.1408633" lon="12.8475186"><ele>622.4000000000001</ele><time>2026-04-25T13:36:12.326Z</time></trkpt><trkpt lat="43.1408321" lon="12.8476636"><ele>622.2</ele><time>2026-04-25T13:36:13.33Z</time></trkpt><trkpt lat="43.1407927" lon="12.8477957"><ele>622.0</ele><time>2026-04-25T13:36:14.334Z</time></trkpt><trkpt lat="43.1407691" lon="12.8479066"><ele>620.5</ele><time>2026-04-25T13:36:15.326Z</time></trkpt><trkpt lat="43.1407746" lon="12.8480048"><ele>619.0</ele><time>2026-04-25T13:36:16.319Z</time></trkpt><trkpt lat="43.1408074" lon="12.8480945"><ele>617.5</ele><time>2026-04-25T13:36:17.321Z</time></trkpt><trkpt lat="43.1408622" lon="12.8481729"><ele>616.0</ele><time>2026-04-25T13:36:18.32Z</time></trkpt><trkpt lat="43.1409412" lon="12.8482511"><ele>614.5</ele><time>2026-04-25T13:36:19.322Z</time></trkpt><trkpt lat="43.1410426" lon="12.8483278"><ele>613.0</ele><time>2026-04-25T13:36:20.331Z</time></trkpt><trkpt lat="43.1411672" lon="12.8484091"><ele>613.6666666666667</ele><time>2026-04-25T13:36:21.321Z</time></trkpt><trkpt lat="43.1413139" lon="12.848514"><ele>614.3333333333334</ele><time>2026-04-25T13:36:22.333Z</time></trkpt><trkpt lat="43.141454" lon="12.8486133"><ele>615.0</ele><time>2026-04-25T13:36:23.319Z</time></trkpt><trkpt lat="43.1415866" lon="12.8486964"><ele>615.0</ele><time>2026-04-25T13:36:24.33Z</time></trkpt><trkpt lat="43.1417219" lon="12.8487669"><ele>615.0</ele><time>2026-04-25T13:36:25.327Z</time></trkpt><trkpt lat="43.1418632" lon="12.8488368"><ele>615.0</ele><time>2026-04-25T13:36:26.33Z</time></trkpt><trkpt lat="43.1420017" lon="12.8489127"><ele>615.0</ele><time>2026-04-25T13:36:27.319Z</time></trkpt><trkpt lat="43.1421271" lon="12.848996"><ele>615.0</ele><time>2026-04-25T13:36:28.325Z</time></trkpt><trkpt lat="43.1422378" lon="12.8490817"><ele>615.0</ele><time>2026-04-25T13:36:29.326Z</time></trkpt><trkpt lat="43.1423428" lon="12.8491795"><ele>615.0</ele><time>2026-04-25T13:36:30.328Z</time></trkpt><trkpt lat="43.1424418" lon="12.8493001"><ele>615.0</ele><time>2026-04-25T13:36:31.324Z</time></trkpt><trkpt lat="43.14253" lon="12.849438"><ele>616.75</ele><time>2026-04-25T13:36:32.327Z</time></trkpt><trkpt lat="43.1426106" lon="12.8495662"><ele>618.5</ele><time>2026-04-25T13:36:33.322Z</time></trkpt><trkpt lat="43.1426844" lon="12.8496801"><ele>620.25</ele><time>2026-04-25T13:36:34.319Z</time></trkpt><trkpt lat="43.1427643" lon="12.8497884"><ele>622.0</ele><time>2026-04-25T13:36:35.317Z</time></trkpt><trkpt lat="43.1428653" lon="12.8498758"><ele>622.0</ele><time>2026-04-25T13:36:36.327Z</time></trkpt><trkpt lat="43.1429822" lon="12.8499431"><ele>622.0</ele><time>2026-04-25T13:36:37.323Z</time></trkpt><trkpt lat="43.1431028" lon="12.8500055"><ele>622.0</ele><time>2026-04-25T13:36:38.324Z</time></trkpt><trkpt lat="43.143209" lon="12.8500594"><ele>622.0</ele><time>2026-04-25T13:36:39.32Z</time></trkpt><trkpt lat="43.1433074" lon="12.8500955"><ele>625.6</ele><time>2026-04-25T13:36:40.318Z</time></trkpt><trkpt lat="43.1434032" lon="12.850105"><ele>629.2</ele><time>2026-04-25T13:36:41.328Z</time></trkpt><trkpt lat="43.1434989" lon="12.8500801"><ele>632.8</ele><time>2026-04-25T13:36:42.321Z</time></trkpt><trkpt lat="43.1435957" lon="12.8500305"><ele>636.4</ele><time>2026-04-25T13:36:43.331Z</time></trkpt><trkpt lat="43.1436967" lon="12.8499857"><ele>640.0</ele><time>2026-04-25T13:36:44.329Z</time></trkpt><trkpt lat="43.1437936" lon="12.8499686"><ele>640.0</ele><time>2026-04-25T13:36:45.327Z</time></trkpt><trkpt lat="43.1438879" lon="12.849989"><ele>640.0</ele><time>2026-04-25T13:36:46.327Z</time></trkpt><trkpt lat="43.1439941" lon="12.8500578"><ele>640.0</ele><time>2026-04-25T13:36:47.324Z</time></trkpt><trkpt lat="43.1441131" lon="12.8501388"><ele>640.0</ele><time>2026-04-25T13:36:48.326Z</time></trkpt><trkpt lat="43.144238" lon="12.8502262"><ele>639.0</ele><time>2026-04-25T13:36:49.332Z</time></trkpt><trkpt lat="43.1443556" lon="12.8503152"><ele>638.0</ele><time>2026-04-25T13:36:50.319Z</time></trkpt><trkpt lat="43.1444562" lon="12.8504076"><ele>637.0</ele><time>2026-04-25T13:36:51.331Z</time></trkpt><trkpt lat="43.1445366" lon="12.8505074"><ele>636.0</ele><time>2026-04-25T13:36:52.331Z</time></trkpt><trkpt lat="43.1445988" lon="12.8506179"><ele>636.0</ele><time>2026-04-25T13:36:53.324Z</time></trkpt><trkpt lat="43.1446393" lon="12.8507423"><ele>636.0</ele><time>2026-04-25T13:36:54.33Z</time></trkpt><trkpt lat="43.1446567" lon="12.8508694"><ele>636.0</ele><time>2026-04-25T13:36:55.328Z</time></trkpt><trkpt lat="43.1446514" lon="12.8509887"><ele>636.0</ele><time>2026-04-25T13:36:56.323Z</time></trkpt><trkpt lat="43.1446263" lon="12.8510984"><ele>636.0</ele><time>2026-04-25T13:36:57.332Z</time></trkpt><trkpt lat="43.1445957" lon="12.8512124"><ele>634.8333333333334</ele><time>2026-04-25T13:36:58.333Z</time></trkpt><trkpt lat="43.1445807" lon="12.8513344"><ele>633.6666666666666</ele><time>2026-04-25T13:36:59.333Z</time></trkpt><trkpt lat="43.144592" lon="12.8514564"><ele>632.5</ele><time>2026-04-25T13:37:00.332Z</time></trkpt><trkpt lat="43.1446284" lon="12.8515603"><ele>631.3333333333333</ele><time>2026-04-25T13:37:01.325Z</time></trkpt><trkpt lat="43.1446767" lon="12.8516198"><ele>630.1666666666666</ele><time>2026-04-25T13:37:02.326Z</time></trkpt><trkpt lat="43.1447733" lon="12.8516078"><ele>629.0</ele><time>2026-04-25T13:37:04.319Z</time></trkpt><trkpt lat="43.144806" lon="12.8514837"><ele>629.0</ele><time>2026-04-25T13:37:06.331Z</time></trkpt><trkpt lat="43.144793" lon="12.8513934"><ele>629.0</ele><time>2026-04-25T13:37:07.33Z</time></trkpt><trkpt lat="43.1447685" lon="12.8512905"><ele>629.0</ele><time>2026-04-25T13:37:08.328Z</time></trkpt><trkpt lat="43.1447642" lon="12.8511877"><ele>629.0</ele><time>2026-04-25T13:37:09.321Z</time></trkpt><trkpt lat="43.1447958" lon="12.8510903"><ele>629.0</ele><time>2026-04-25T13:37:10.331Z</time></trkpt><trkpt lat="43.14485" lon="12.8510005"><ele>629.0</ele><time>2026-04-25T13:37:11.332Z</time></trkpt><trkpt lat="43.144926" lon="12.8509108"><ele>636.25</ele><time>2026-04-25T13:37:12.334Z</time></trkpt><trkpt lat="43.1450167" lon="12.8508119"><ele>643.5</ele><time>2026-04-25T13:37:13.323Z</time></trkpt><trkpt lat="43.1451109" lon="12.8506973"><ele>650.75</ele><time>2026-04-25T13:37:14.322Z</time></trkpt><trkpt lat="43.1451986" lon="12.8505711"><ele>658.0</ele><time>2026-04-25T13:37:15.32Z</time></trkpt><trkpt lat="43.1452692" lon="12.850448"><ele>658.0</ele><time>2026-04-25T13:37:16.328Z</time></trkpt><trkpt lat="43.1453189" lon="12.8503376"><ele>658.0</ele><time>2026-04-25T13:37:17.328Z</time></trkpt><trkpt lat="43.1453462" lon="12.8502414"><ele>658.0</ele><time>2026-04-25T13:37:18.329Z</time></trkpt><trkpt lat="43.145357" lon="12.8501459"><ele>658.0</ele><time>2026-04-25T13:37:19.334Z</time></trkpt><trkpt lat="43.1453562" lon="12.8500366"><ele>658.0</ele><time>2026-04-25T13:37:20.326Z</time></trkpt><trkpt lat="43.1453508" lon="12.8499209"><ele>658.0</ele><time>2026-04-25T13:37:21.329Z</time></trkpt><trkpt lat="43.1453562" lon="12.8498049"><ele>657.6666666666667</ele><time>2026-04-25T13:37:22.332Z</time></trkpt><trkpt lat="43.145384" lon="12.8497021"><ele>657.3333333333334</ele><time>2026-04-25T13:37:23.331Z</time></trkpt><trkpt lat="43.14544" lon="12.8496312"><ele>657.0</ele><time>2026-04-25T13:37:24.333Z</time></trkpt><trkpt lat="43.1455168" lon="12.8496103"><ele>656.6666666666666</ele><time>2026-04-25T13:37:25.333Z</time></trkpt><trkpt lat="43.1456081" lon="12.84963"><ele>656.3333333333333</ele><time>2026-04-25T13:37:26.325Z</time></trkpt><trkpt lat="43.145702" lon="12.8496632"><ele>656.0</ele><time>2026-04-25T13:37:27.329Z</time></trkpt><trkpt lat="43.1457856" lon="12.849681"><ele>656.0</ele><time>2026-04-25T13:37:28.325Z</time></trkpt><trkpt lat="43.1458664" lon="12.8496637"><ele>656.0</ele><time>2026-04-25T13:37:29.327Z</time></trkpt><trkpt lat="43.1459209" lon="12.8496088"><ele>656.0</ele><time>2026-04-25T13:37:30.328Z</time></trkpt><trkpt lat="43.1459498" lon="12.8494508"><ele>656.0</ele><time>2026-04-25T13:37:32.322Z</time></trkpt><trkpt lat="43.1459236" lon="12.849343"><ele>656.0</ele><time>2026-04-25T13:37:33.327Z</time></trkpt><trkpt lat="43.1458853" lon="12.8492227"><ele>656.0</ele><time>2026-04-25T13:37:34.323Z</time></trkpt><trkpt lat="43.1458641" lon="12.8490919"><ele>657.1999999999999</ele><time>2026-04-25T13:37:35.326Z</time></trkpt><trkpt lat="43.1458806" lon="12.8489782"><ele>658.4</ele><time>2026-04-25T13:37:36.33Z</time></trkpt><trkpt lat="43.1459329" lon="12.8488974"><ele>659.6</ele><time>2026-04-25T13:37:37.325Z</time></trkpt><trkpt lat="43.1460201" lon="12.8488525"><ele>660.8</ele><time>2026-04-25T13:37:38.325Z</time></trkpt><trkpt lat="43.1461374" lon="12.8488563"><ele>662.0</ele><time>2026-04-25T13:37:39.324Z</time></trkpt><trkpt lat="43.146271" lon="12.8489158"><ele>662.0</ele><time>2026-04-25T13:37:40.317Z</time></trkpt><trkpt lat="43.1463937" lon="12.8490159"><ele>662.0</ele><time>2026-04-25T13:37:41.328Z</time></trkpt><trkpt lat="43.1465042" lon="12.849155"><ele>662.0</ele><time>2026-04-25T13:37:42.333Z</time></trkpt><trkpt lat="43.146603" lon="12.8493198"><ele>662.0</ele><time>2026-04-25T13:37:43.319Z</time></trkpt><trkpt lat="43.1467009" lon="12.8494952"><ele>658.75</ele><time>2026-04-25T13:37:44.317Z</time></trkpt><trkpt lat="43.1467944" lon="12.8496554"><ele>655.5</ele><time>2026-04-25T13:37:45.322Z</time></trkpt><trkpt lat="43.1468785" lon="12.8497862"><ele>652.25</ele><time>2026-04-25T13:37:46.329Z</time></trkpt><trkpt lat="43.1469712" lon="12.8498829"><ele>649.0</ele><time>2026-04-25T13:37:47.318Z</time></trkpt><trkpt lat="43.1470907" lon="12.8499694"><ele>649.0</ele><time>2026-04-25T13:37:48.319Z</time></trkpt><trkpt lat="43.1472341" lon="12.8500498"><ele>649.0</ele><time>2026-04-25T13:37:49.326Z</time></trkpt><trkpt lat="43.1473873" lon="12.8501269"><ele>649.0</ele><time>2026-04-25T13:37:50.322Z</time></trkpt><trkpt lat="43.1475418" lon="12.8502067"><ele>645.3333333333334</ele><time>2026-04-25T13:37:51.332Z</time></trkpt><trkpt lat="43.1476875" lon="12.8502934"><ele>641.6666666666666</ele><time>2026-04-25T13:37:52.321Z</time></trkpt><trkpt lat="43.1478233" lon="12.8503938"><ele>638.0</ele><time>2026-04-25T13:37:53.321Z</time></trkpt><trkpt lat="43.147954" lon="12.8505053"><ele>638.0</ele><time>2026-04-25T13:37:54.322Z</time></trkpt><trkpt lat="43.1480784" lon="12.8506173"><ele>638.0</ele><time>2026-04-25T13:37:55.33Z</time></trkpt><trkpt lat="43.148202" lon="12.8507192"><ele>638.0</ele><time>2026-04-25T13:37:56.323Z</time></trkpt><trkpt lat="43.1483263" lon="12.8508071"><ele>638.0</ele><time>2026-04-25T13:37:57.329Z</time></trkpt><trkpt lat="43.1484501" lon="12.8508821"><ele>639.0</ele><time>2026-04-25T13:37:58.331Z</time></trkpt><trkpt lat="43.1485793" lon="12.8509365"><ele>640.0</ele><time>2026-04-25T13:37:59.333Z</time></trkpt><trkpt lat="43.1487164" lon="12.8509714"><ele>641.0</ele><time>2026-04-25T13:38:00.325Z</time></trkpt><trkpt lat="43.1488627" lon="12.8509984"><ele>642.0</ele><time>2026-04-25T13:38:01.327Z</time></trkpt><trkpt lat="43.1490036" lon="12.8510243"><ele>637.0</ele><time>2026-04-25T13:38:02.323Z</time></trkpt><trkpt lat="43.1491298" lon="12.851054"><ele>632.0</ele><time>2026-04-25T13:38:03.329Z</time></trkpt><trkpt lat="43.1492425" lon="12.851069"><ele>627.0</ele><time>2026-04-25T13:38:04.317Z</time></trkpt><trkpt lat="43.1493534" lon="12.851057"><ele>622.0</ele><time>2026-04-25T13:38:05.327Z</time></trkpt><trkpt lat="43.1494744" lon="12.8510333"><ele>622.0</ele><time>2026-04-25T13:38:06.33Z</time></trkpt><trkpt lat="43.1496107" lon="12.851014"><ele>622.0</ele><time>2026-04-25T13:38:07.326Z</time></trkpt><trkpt lat="43.1497558" lon="12.8510074"><ele>622.0</ele><time>2026-04-25T13:38:08.327Z</time></trkpt><trkpt lat="43.1498905" lon="12.8510133"><ele>622.0</ele><time>2026-04-25T13:38:09.328Z</time></trkpt><trkpt lat="43.1500003" lon="12.8510124"><ele>621.0</ele><time>2026-04-25T13:38:10.328Z</time></trkpt><trkpt lat="43.150092" lon="12.8509941"><ele>620.0</ele><time>2026-04-25T13:38:11.32Z</time></trkpt><trkpt lat="43.1501734" lon="12.8509479"><ele>619.0</ele><time>2026-04-25T13:38:12.332Z</time></trkpt><trkpt lat="43.1502342" lon="12.8508706"><ele>618.0</ele><time>2026-04-25T13:38:13.322Z</time></trkpt><trkpt lat="43.1502623" lon="12.8507733"><ele>617.0</ele><time>2026-04-25T13:38:14.319Z</time></trkpt><trkpt lat="43.150257" lon="12.8506711"><ele>616.0</ele><time>2026-04-25T13:38:15.331Z</time></trkpt><trkpt lat="43.1502226" lon="12.8505654"><ele>620.2</ele><time>2026-04-25T13:38:16.315Z</time></trkpt><trkpt lat="43.1501612" lon="12.8504333"><ele>624.4000000000001</ele><time>2026-04-25T13:38:17.319Z</time></trkpt><trkpt lat="43.150095" lon="12.8502981"><ele>628.6</ele><time>2026-04-25T13:38:18.327Z</time></trkpt><trkpt lat="43.1500514" lon="12.850173"><ele>632.8000000000001</ele><time>2026-04-25T13:38:19.321Z</time></trkpt><trkpt lat="43.1500473" lon="12.8500508"><ele>637.0</ele><time>2026-04-25T13:38:20.33Z</time></trkpt><trkpt lat="43.1500832" lon="12.8499334"><ele>638.0</ele><time>2026-04-25T13:38:21.333Z</time></trkpt><trkpt lat="43.1501489" lon="12.8498432"><ele>639.0</ele><time>2026-04-25T13:38:22.333Z</time></trkpt><trkpt lat="43.1502361" lon="12.8497841"><ele>640.0</ele><time>2026-04-25T13:38:23.33Z</time></trkpt><trkpt lat="43.150337" lon="12.849756"><ele>641.0</ele><time>2026-04-25T13:38:24.321Z</time></trkpt><trkpt lat="43.1504502" lon="12.8497623"><ele>642.0</ele><time>2026-04-25T13:38:25.327Z</time></trkpt><trkpt lat="43.1505651" lon="12.8497998"><ele>642.0</ele><time>2026-04-25T13:38:26.327Z</time></trkpt><trkpt lat="43.1506975" lon="12.849868"><ele>642.0</ele><time>2026-04-25T13:38:27.32Z</time></trkpt><trkpt lat="43.1508336" lon="12.8499546"><ele>642.0</ele><time>2026-04-25T13:38:28.319Z</time></trkpt><trkpt lat="43.1509662" lon="12.8500537"><ele>642.0</ele><time>2026-04-25T13:38:29.32Z</time></trkpt><trkpt lat="43.1510934" lon="12.8501582"><ele>637.75</ele><time>2026-04-25T13:38:30.326Z</time></trkpt><trkpt lat="43.1512115" lon="12.8502659"><ele>633.5</ele><time>2026-04-25T13:38:31.327Z</time></trkpt><trkpt lat="43.1513218" lon="12.8503786"><ele>629.25</ele><time>2026-04-25T13:38:32.324Z</time></trkpt><trkpt lat="43.1514133" lon="12.8504885"><ele>625.0</ele><time>2026-04-25T13:38:33.322Z</time></trkpt><trkpt lat="43.1514863" lon="12.8505839"><ele>625.3333333333334</ele><time>2026-04-25T13:38:34.326Z</time></trkpt><trkpt lat="43.1515529" lon="12.8506511"><ele>625.6666666666667</ele><time>2026-04-25T13:38:35.326Z</time></trkpt><trkpt lat="43.1516263" lon="12.8506849"><ele>626.0</ele><time>2026-04-25T13:38:36.321Z</time></trkpt><trkpt lat="43.1517168" lon="12.8506892"><ele>626.3333333333334</ele><time>2026-04-25T13:38:37.326Z</time></trkpt><trkpt lat="43.1518087" lon="12.8506688"><ele>626.6666666666666</ele><time>2026-04-25T13:38:38.327Z</time></trkpt><trkpt lat="43.1518853" lon="12.8506242"><ele>627.0</ele><time>2026-04-25T13:38:39.328Z</time></trkpt><trkpt lat="43.1519496" lon="12.8505515"><ele>627.0</ele><time>2026-04-25T13:38:40.33Z</time></trkpt><trkpt lat="43.1519891" lon="12.8504525"><ele>627.0</ele><time>2026-04-25T13:38:41.317Z</time></trkpt><trkpt lat="43.152003" lon="12.8503334"><ele>627.0</ele><time>2026-04-25T13:38:42.324Z</time></trkpt><trkpt lat="43.1519968" lon="12.8502007"><ele>627.0</ele><time>2026-04-25T13:38:43.326Z</time></trkpt><trkpt lat="43.1519739" lon="12.850053"><ele>627.0</ele><time>2026-04-25T13:38:44.326Z</time></trkpt><trkpt lat="43.1519364" lon="12.8498965"><ele>627.5</ele><time>2026-04-25T13:38:45.325Z</time></trkpt><trkpt lat="43.1518847" lon="12.8497352"><ele>628.0</ele><time>2026-04-25T13:38:46.325Z</time></trkpt><trkpt lat="43.1518242" lon="12.8495669"><ele>628.5</ele><time>2026-04-25T13:38:47.329Z</time></trkpt><trkpt lat="43.1517609" lon="12.849401"><ele>629.0</ele><time>2026-04-25T13:38:48.321Z</time></trkpt><trkpt lat="43.1516946" lon="12.8492404"><ele>626.75</ele><time>2026-04-25T13:38:49.33Z</time></trkpt><trkpt lat="43.1516199" lon="12.849092"><ele>624.5</ele><time>2026-04-25T13:38:50.328Z</time></trkpt><trkpt lat="43.1515358" lon="12.8489577"><ele>622.25</ele><time>2026-04-25T13:38:51.332Z</time></trkpt><trkpt lat="43.1514488" lon="12.8488384"><ele>620.0</ele><time>2026-04-25T13:38:52.323Z</time></trkpt><trkpt lat="43.1513695" lon="12.8487294"><ele>624.8</ele><time>2026-04-25T13:38:53.321Z</time></trkpt><trkpt lat="43.1513052" lon="12.8486284"><ele>629.6</ele><time>2026-04-25T13:38:54.316Z</time></trkpt><trkpt lat="43.1512646" lon="12.8485277"><ele>634.4000000000001</ele><time>2026-04-25T13:38:55.328Z</time></trkpt><trkpt lat="43.1512535" lon="12.8484154"><ele>639.2</ele><time>2026-04-25T13:38:56.328Z</time></trkpt><trkpt lat="43.1512603" lon="12.8482877"><ele>644.0</ele><time>2026-04-25T13:38:57.327Z</time></trkpt><trkpt lat="43.151277" lon="12.8481517"><ele>644.6</ele><time>2026-04-25T13:38:58.326Z</time></trkpt><trkpt lat="43.1512993" lon="12.8480105"><ele>645.2</ele><time>2026-04-25T13:38:59.32Z</time></trkpt><trkpt lat="43.1513228" lon="12.8478653"><ele>645.8000000000001</ele><time>2026-04-25T13:39:00.324Z</time></trkpt><trkpt lat="43.1513471" lon="12.8477318"><ele>646.4000000000001</ele><time>2026-04-25T13:39:01.319Z</time></trkpt><trkpt lat="43.1513768" lon="12.8476266"><ele>647.0</ele><time>2026-04-25T13:39:02.326Z</time></trkpt><trkpt lat="43.1514184" lon="12.8475506"><ele>649.3333333333333</ele><time>2026-04-25T13:39:03.327Z</time></trkpt><trkpt lat="43.1514736" lon="12.8474987"><ele>651.6666666666666</ele><time>2026-04-25T13:39:04.316Z</time></trkpt><trkpt lat="43.1515476" lon="12.8474657"><ele>654.0</ele><time>2026-04-25T13:39:05.325Z</time></trkpt><trkpt lat="43.1516369" lon="12.8474576"><ele>656.3333333333334</ele><time>2026-04-25T13:39:06.32Z</time></trkpt><trkpt lat="43.1517346" lon="12.8474889"><ele>658.6666666666667</ele><time>2026-04-25T13:39:07.328Z</time></trkpt><trkpt lat="43.1518294" lon="12.8475538"><ele>661.0</ele><time>2026-04-25T13:39:08.325Z</time></trkpt><trkpt lat="43.1519164" lon="12.8476405"><ele>650.25</ele><time>2026-04-25T13:39:09.319Z</time></trkpt><trkpt lat="43.1519995" lon="12.8477455"><ele>639.5</ele><time>2026-04-25T13:39:10.323Z</time></trkpt><trkpt lat="43.1520872" lon="12.8478615"><ele>628.75</ele><time>2026-04-25T13:39:11.331Z</time></trkpt><trkpt lat="43.1521804" lon="12.8479793"><ele>618.0</ele><time>2026-04-25T13:39:12.324Z</time></trkpt><trkpt lat="43.1522815" lon="12.8481008"><ele>616.5</ele><time>2026-04-25T13:39:13.328Z</time></trkpt><trkpt lat="43.1523867" lon="12.8482281"><ele>615.0</ele><time>2026-04-25T13:39:14.327Z</time></trkpt><trkpt lat="43.1524969" lon="12.8483578"><ele>613.5</ele><time>2026-04-25T13:39:15.331Z</time></trkpt><trkpt lat="43.1526172" lon="12.8484857"><ele>612.0</ele><time>2026-04-25T13:39:16.331Z</time></trkpt><trkpt lat="43.1527484" lon="12.848615"><ele>612.0</ele><time>2026-04-25T13:39:17.33Z</time></trkpt><trkpt lat="43.152886" lon="12.8487515"><ele>612.0</ele><time>2026-04-25T13:39:18.331Z</time></trkpt><trkpt lat="43.153019" lon="12.8488906"><ele>612.0</ele><time>2026-04-25T13:39:19.325Z</time></trkpt><trkpt lat="43.1531435" lon="12.8490268"><ele>613.25</ele><time>2026-04-25T13:39:20.33Z</time></trkpt><trkpt lat="43.1532677" lon="12.8491518"><ele>614.5</ele><time>2026-04-25T13:39:21.328Z</time></trkpt><trkpt lat="43.1533907" lon="12.8492639"><ele>615.75</ele><time>2026-04-25T13:39:22.333Z</time></trkpt><trkpt lat="43.1535084" lon="12.8493664"><ele>617.0</ele><time>2026-04-25T13:39:23.328Z</time></trkpt><trkpt lat="43.1536189" lon="12.8494721"><ele>617.0</ele><time>2026-04-25T13:39:24.328Z</time></trkpt><trkpt lat="43.1537184" lon="12.8495813"><ele>617.0</ele><time>2026-04-25T13:39:25.33Z</time></trkpt><trkpt lat="43.1538025" lon="12.8496866"><ele>617.0</ele><time>2026-04-25T13:39:26.32Z</time></trkpt><trkpt lat="43.1538817" lon="12.8497805"><ele>617.0</ele><time>2026-04-25T13:39:27.33Z</time></trkpt><trkpt lat="43.1539592" lon="12.8498551"><ele>617.0</ele><time>2026-04-25T13:39:28.327Z</time></trkpt><trkpt lat="43.1540362" lon="12.8499088"><ele>620.2</ele><time>2026-04-25T13:39:29.32Z</time></trkpt><trkpt lat="43.1541148" lon="12.849939"><ele>623.4000000000001</ele><time>2026-04-25T13:39:30.33Z</time></trkpt><trkpt lat="43.1542038" lon="12.8499487"><ele>626.5999999999999</ele><time>2026-04-25T13:39:31.33Z</time></trkpt><trkpt lat="43.1543076" lon="12.8499519"><ele>629.8</ele><time>2026-04-25T13:39:32.329Z</time></trkpt><trkpt lat="43.1544191" lon="12.8499539"><ele>633.0</ele><time>2026-04-25T13:39:33.326Z</time></trkpt><trkpt lat="43.1545325" lon="12.8499682"><ele>633.0</ele><time>2026-04-25T13:39:34.328Z</time></trkpt><trkpt lat="43.1546399" lon="12.8500007"><ele>633.0</ele><time>2026-04-25T13:39:35.33Z</time></trkpt><trkpt lat="43.1547305" lon="12.8500479"><ele>633.0</ele><time>2026-04-25T13:39:36.319Z</time></trkpt><trkpt lat="43.1548088" lon="12.8501114"><ele>633.0</ele><time>2026-04-25T13:39:37.32Z</time></trkpt><trkpt lat="43.1548871" lon="12.8501848"><ele>633.0</ele><time>2026-04-25T13:39:38.318Z</time></trkpt><trkpt lat="43.1549658" lon="12.8502697"><ele>633.6</ele><time>2026-04-25T13:39:39.328Z</time></trkpt><trkpt lat="43.1550403" lon="12.8503645"><ele>634.1999999999999</ele><time>2026-04-25T13:39:40.331Z</time></trkpt><trkpt lat="43.1551177" lon="12.85046"><ele>634.8</ele><time>2026-04-25T13:39:41.33Z</time></trkpt><trkpt lat="43.1552018" lon="12.8505533"><ele>635.4</ele><time>2026-04-25T13:39:42.33Z</time></trkpt><trkpt lat="43.1552914" lon="12.8506408"><ele>636.0</ele><time>2026-04-25T13:39:43.326Z</time></trkpt><trkpt lat="43.1553868" lon="12.8507156"><ele>636.0</ele><time>2026-04-25T13:39:44.329Z</time></trkpt><trkpt lat="43.1554902" lon="12.8507789"><ele>636.0</ele><time>2026-04-25T13:39:45.326Z</time></trkpt><trkpt lat="43.1555983" lon="12.8508337"><ele>636.0</ele><time>2026-04-25T13:39:46.328Z</time></trkpt><trkpt lat="43.155707" lon="12.8508791"><ele>636.0</ele><time>2026-04-25T13:39:47.326Z</time></trkpt><trkpt lat="43.1558227" lon="12.8509107"><ele>633.75</ele><time>2026-04-25T13:39:48.32Z</time></trkpt><trkpt lat="43.1559423" lon="12.8509355"><ele>631.5</ele><time>2026-04-25T13:39:49.334Z</time></trkpt><trkpt lat="43.1560603" lon="12.8509638"><ele>629.25</ele><time>2026-04-25T13:39:50.329Z</time></trkpt><trkpt lat="43.1561789" lon="12.8510073"><ele>627.0</ele><time>2026-04-25T13:39:51.33Z</time></trkpt><trkpt lat="43.1562981" lon="12.8510688"><ele>627.0</ele><time>2026-04-25T13:39:52.324Z</time></trkpt><trkpt lat="43.1564167" lon="12.8511397"><ele>627.0</ele><time>2026-04-25T13:39:53.329Z</time></trkpt><trkpt lat="43.1565272" lon="12.8512177"><ele>627.0</ele><time>2026-04-25T13:39:54.329Z</time></trkpt><trkpt lat="43.1566259" lon="12.8512976"><ele>627.0</ele><time>2026-04-25T13:39:55.327Z</time></trkpt><trkpt lat="43.1567098" lon="12.8513747"><ele>630.4000000000001</ele><time>2026-04-25T13:39:56.334Z</time></trkpt><trkpt lat="43.1567857" lon="12.8514369"><ele>633.8000000000001</ele><time>2026-04-25T13:39:57.321Z</time></trkpt><trkpt lat="43.1568544" lon="12.8514707"><ele>637.2</ele><time>2026-04-25T13:39:58.328Z</time></trkpt><trkpt lat="43.1569662" lon="12.8514526"><ele>640.6</ele><time>2026-04-25T13:40:00.321Z</time></trkpt><trkpt lat="43.1570624" lon="12.8513667"><ele>644.0</ele><time>2026-04-25T13:40:02.32Z</time></trkpt><trkpt lat="43.1571383" lon="12.8512795"><ele>644.0</ele><time>2026-04-25T13:40:04.325Z</time></trkpt><trkpt lat="43.157206" lon="12.8511343"><ele>644.0</ele><time>2026-04-25T13:40:06.331Z</time></trkpt><trkpt lat="43.1572232" lon="12.8510388"><ele>644.0</ele><time>2026-04-25T13:40:07.326Z</time></trkpt><trkpt lat="43.1572368" lon="12.850937"><ele>644.0</ele><time>2026-04-25T13:40:08.326Z</time></trkpt><trkpt lat="43.1572559" lon="12.8508357"><ele>644.0</ele><time>2026-04-25T13:40:09.318Z</time></trkpt><trkpt lat="43.1572818" lon="12.8507408"><ele>644.0</ele><time>2026-04-25T13:40:10.324Z</time></trkpt><trkpt lat="43.1573173" lon="12.8506628"><ele>644.0</ele><time>2026-04-25T13:40:11.324Z</time></trkpt><trkpt lat="43.1573627" lon="12.8505993"><ele>644.0</ele><time>2026-04-25T13:40:12.321Z</time></trkpt><trkpt lat="43.1574708" lon="12.8505309"><ele>644.0</ele><time>2026-04-25T13:40:14.329Z</time></trkpt><trkpt lat="43.1575999" lon="12.8505145"><ele>644.0</ele><time>2026-04-25T13:40:16.322Z</time></trkpt><trkpt lat="43.1576739" lon="12.8505093"><ele>644.0</ele><time>2026-04-25T13:40:17.332Z</time></trkpt><trkpt lat="43.1577528" lon="12.8505035"><ele>644.0</ele><time>2026-04-25T13:40:18.32Z</time></trkpt><trkpt lat="43.1578328" lon="12.8504946"><ele>644.0</ele><time>2026-04-25T13:40:19.329Z</time></trkpt><trkpt lat="43.1579117" lon="12.8504841"><ele>644.0</ele><time>2026-04-25T13:40:20.327Z</time></trkpt><trkpt lat="43.1579905" lon="12.8504653"><ele>644.0</ele><time>2026-04-25T13:40:21.326Z</time></trkpt><trkpt lat="43.1580673" lon="12.8504441"><ele>644.0</ele><time>2026-04-25T13:40:22.328Z</time></trkpt><trkpt lat="43.1581338" lon="12.8504261"><ele>644.0</ele><time>2026-04-25T13:40:23.32Z</time></trkpt><trkpt lat="43.1581986" lon="12.8504222"><ele>643.5714285714286</ele><time>2026-04-25T13:40:24.323Z</time></trkpt><trkpt lat="43.1582672" lon="12.850433"><ele>643.1428571428571</ele><time>2026-04-25T13:40:25.325Z</time></trkpt><trkpt lat="43.1583309" lon="12.8504672"><ele>642.7142857142858</ele><time>2026-04-25T13:40:26.328Z</time></trkpt><trkpt lat="43.1583891" lon="12.850534"><ele>642.2857142857142</ele><time>2026-04-25T13:40:27.329Z</time></trkpt><trkpt lat="43.1584362" lon="12.8506226"><ele>641.8571428571429</ele><time>2026-04-25T13:40:28.327Z</time></trkpt><trkpt lat="43.1584778" lon="12.8507119"><ele>641.4285714285714</ele><time>2026-04-25T13:40:29.327Z</time></trkpt><trkpt lat="43.1585127" lon="12.8507849"><ele>641.0</ele><time>2026-04-25T13:40:30.326Z</time></trkpt><trkpt lat="43.1585764" lon="12.8508701"><ele>641.0</ele><time>2026-04-25T13:40:32.323Z</time></trkpt><trkpt lat="43.1586495" lon="12.8509169"><ele>641.0</ele><time>2026-04-25T13:40:34.327Z</time></trkpt><trkpt lat="43.1587209" lon="12.8509614"><ele>641.0</ele><time>2026-04-25T13:40:36.325Z</time></trkpt><trkpt lat="43.158627" lon="12.850863"><ele>641.0</ele><time>2026-04-25T13:40:51.326Z</time></trkpt><trkpt lat="43.1585604" lon="12.8508034"><ele>641.0</ele><time>2026-04-25T13:40:52.325Z</time></trkpt><trkpt lat="43.1584964" lon="12.8507357"><ele>641.0</ele><time>2026-04-25T13:40:53.327Z</time></trkpt><trkpt lat="43.1584394" lon="12.8506611"><ele>641.0</ele><time>2026-04-25T13:40:54.33Z</time></trkpt><trkpt lat="43.1583907" lon="12.8505753"><ele>641.0</ele><time>2026-04-25T13:40:55.327Z</time></trkpt><trkpt lat="43.1583466" lon="12.8504956"><ele>641.0</ele><time>2026-04-25T13:40:56.325Z</time></trkpt><trkpt lat="43.158293" lon="12.8504354"><ele>641.0</ele><time>2026-04-25T13:40:57.326Z</time></trkpt><trkpt lat="43.1582175" lon="12.8504042"><ele>641.0</ele><time>2026-04-25T13:40:58.321Z</time></trkpt><trkpt lat="43.1581262" lon="12.8504086"><ele>641.0</ele><time>2026-04-25T13:40:59.326Z</time></trkpt><trkpt lat="43.1580362" lon="12.8504371"><ele>641.5999999999999</ele><time>2026-04-25T13:41:00.327Z</time></trkpt><trkpt lat="43.1579456" lon="12.850466"><ele>642.2</ele><time>2026-04-25T13:41:01.323Z</time></trkpt><trkpt lat="43.1578502" lon="12.8504941"><ele>642.8</ele><time>2026-04-25T13:41:02.319Z</time></trkpt><trkpt lat="43.1577502" lon="12.8505136"><ele>643.4000000000001</ele><time>2026-04-25T13:41:03.319Z</time></trkpt><trkpt lat="43.1576514" lon="12.8505176"><ele>644.0</ele><time>2026-04-25T13:41:04.319Z</time></trkpt><trkpt lat="43.1575591" lon="12.8505228"><ele>644.0</ele><time>2026-04-25T13:41:05.32Z</time></trkpt><trkpt lat="43.1574691" lon="12.8505453"><ele>644.0</ele><time>2026-04-25T13:41:06.324Z</time></trkpt><trkpt lat="43.15739" lon="12.8505854"><ele>644.0</ele><time>2026-04-25T13:41:07.326Z</time></trkpt><trkpt lat="43.1573292" lon="12.8506466"><ele>644.0</ele><time>2026-04-25T13:41:08.323Z</time></trkpt><trkpt lat="43.1572848" lon="12.8507299"><ele>644.0</ele><time>2026-04-25T13:41:09.324Z</time></trkpt><trkpt lat="43.1572514" lon="12.85083"><ele>644.0</ele><time>2026-04-25T13:41:10.319Z</time></trkpt><trkpt lat="43.1572297" lon="12.8509366"><ele>644.0</ele><time>2026-04-25T13:41:11.321Z</time></trkpt><trkpt lat="43.1572138" lon="12.8510447"><ele>644.0</ele><time>2026-04-25T13:41:12.332Z</time></trkpt><trkpt lat="43.1571961" lon="12.8511431"><ele>644.0</ele><time>2026-04-25T13:41:13.325Z</time></trkpt><trkpt lat="43.1571687" lon="12.8512345"><ele>644.0</ele><time>2026-04-25T13:41:14.325Z</time></trkpt><trkpt lat="43.1571268" lon="12.8513093"><ele>644.0</ele><time>2026-04-25T13:41:15.328Z</time></trkpt><trkpt lat="43.1570711" lon="12.8513676"><ele>644.0</ele><time>2026-04-25T13:41:16.331Z</time></trkpt><trkpt lat="43.1570063" lon="12.8514024"><ele>644.0</ele><time>2026-04-25T13:41:17.33Z</time></trkpt><trkpt lat="43.156942" lon="12.8514028"><ele>644.0</ele><time>2026-04-25T13:41:18.33Z</time></trkpt><trkpt lat="43.1568682" lon="12.851373"><ele>644.0</ele><time>2026-04-25T13:41:19.332Z</time></trkpt><trkpt lat="43.1567862" lon="12.851319"><ele>644.0</ele><time>2026-04-25T13:41:20.331Z</time></trkpt><trkpt lat="43.1567088" lon="12.8512432"><ele>644.0</ele><time>2026-04-25T13:41:21.326Z</time></trkpt><trkpt lat="43.1566349" lon="12.8511476"><ele>644.0</ele><time>2026-04-25T13:41:22.322Z</time></trkpt><trkpt lat="43.1565554" lon="12.8510515"><ele>644.5</ele><time>2026-04-25T13:41:23.332Z</time></trkpt><trkpt lat="43.1564684" lon="12.8509612"><ele>645.0</ele><time>2026-04-25T13:41:24.323Z</time></trkpt><trkpt lat="43.1563698" lon="12.8508768"><ele>645.5</ele><time>2026-04-25T13:41:25.321Z</time></trkpt><trkpt lat="43.1562625" lon="12.850804"><ele>646.0</ele><time>2026-04-25T13:41:26.331Z</time></trkpt><trkpt lat="43.1561493" lon="12.8507443"><ele>646.0</ele><time>2026-04-25T13:41:27.323Z</time></trkpt><trkpt lat="43.1560351" lon="12.8506914"><ele>646.0</ele><time>2026-04-25T13:41:28.321Z</time></trkpt><trkpt lat="43.1559215" lon="12.8506431"><ele>646.0</ele><time>2026-04-25T13:41:29.322Z</time></trkpt><trkpt lat="43.1558131" lon="12.8505913"><ele>646.0</ele><time>2026-04-25T13:41:30.33Z</time></trkpt><trkpt lat="43.1557093" lon="12.8505298"><ele>643.5</ele><time>2026-04-25T13:41:31.33Z</time></trkpt><trkpt lat="43.155614" lon="12.8504503"><ele>641.0</ele><time>2026-04-25T13:41:32.32Z</time></trkpt><trkpt lat="43.1555249" lon="12.8503565"><ele>638.5</ele><time>2026-04-25T13:41:33.333Z</time></trkpt><trkpt lat="43.1554367" lon="12.8502529"><ele>636.0</ele><time>2026-04-25T13:41:34.324Z</time></trkpt><trkpt lat="43.1553426" lon="12.8501464"><ele>640.25</ele><time>2026-04-25T13:41:35.322Z</time></trkpt><trkpt lat="43.1552495" lon="12.8500449"><ele>644.5</ele><time>2026-04-25T13:41:36.323Z</time></trkpt><trkpt lat="43.1551579" lon="12.849954"><ele>648.75</ele><time>2026-04-25T13:41:37.321Z</time></trkpt><trkpt lat="43.1550647" lon="12.8498723"><ele>653.0</ele><time>2026-04-25T13:41:38.329Z</time></trkpt><trkpt lat="43.1549627" lon="12.8497875"><ele>648.0</ele><time>2026-04-25T13:41:39.319Z</time></trkpt><trkpt lat="43.1548501" lon="12.8497002"><ele>643.0</ele><time>2026-04-25T13:41:40.331Z</time></trkpt><trkpt lat="43.1547252" lon="12.8496297"><ele>638.0</ele><time>2026-04-25T13:41:41.32Z</time></trkpt><trkpt lat="43.1546012" lon="12.84957"><ele>633.0</ele><time>2026-04-25T13:41:42.324Z</time></trkpt><trkpt lat="43.1544864" lon="12.8495154"><ele>633.0</ele><time>2026-04-25T13:41:43.329Z</time></trkpt><trkpt lat="43.1543817" lon="12.8494598"><ele>633.0</ele><time>2026-04-25T13:41:44.324Z</time></trkpt><trkpt lat="43.1542778" lon="12.8493978"><ele>633.0</ele><time>2026-04-25T13:41:45.329Z</time></trkpt><trkpt lat="43.1541797" lon="12.8493047"><ele>633.0</ele><time>2026-04-25T13:41:46.325Z</time></trkpt><trkpt lat="43.1540911" lon="12.849179"><ele>632.5</ele><time>2026-04-25T13:41:47.33Z</time></trkpt><trkpt lat="43.154004" lon="12.8490406"><ele>632.0</ele><time>2026-04-25T13:41:48.331Z</time></trkpt><trkpt lat="43.1539198" lon="12.8489105"><ele>631.5</ele><time>2026-04-25T13:41:49.325Z</time></trkpt><trkpt lat="43.1538382" lon="12.8487994"><ele>631.0</ele><time>2026-04-25T13:41:50.319Z</time></trkpt><trkpt lat="43.1537647" lon="12.8487029"><ele>631.0</ele><time>2026-04-25T13:41:51.323Z</time></trkpt><trkpt lat="43.1537016" lon="12.8486061"><ele>631.0</ele><time>2026-04-25T13:41:52.33Z</time></trkpt><trkpt lat="43.1536364" lon="12.8484979"><ele>631.0</ele><time>2026-04-25T13:41:53.324Z</time></trkpt><trkpt lat="43.1535708" lon="12.8483749"><ele>631.0</ele><time>2026-04-25T13:41:54.327Z</time></trkpt><trkpt lat="43.1535" lon="12.8482479"><ele>631.0</ele><time>2026-04-25T13:41:55.329Z</time></trkpt><trkpt lat="43.1534281" lon="12.8481264"><ele>630.4</ele><time>2026-04-25T13:41:56.328Z</time></trkpt><trkpt lat="43.1533606" lon="12.8480132"><ele>629.8</ele><time>2026-04-25T13:41:57.327Z</time></trkpt><trkpt lat="43.1532976" lon="12.8479028"><ele>629.1999999999999</ele><time>2026-04-25T13:41:58.322Z</time></trkpt><trkpt lat="43.1532432" lon="12.8477843"><ele>628.6</ele><time>2026-04-25T13:41:59.319Z</time></trkpt><trkpt lat="43.1531927" lon="12.8476643"><ele>628.0</ele><time>2026-04-25T13:42:00.323Z</time></trkpt><trkpt lat="43.1531435" lon="12.8475427"><ele>631.4</ele><time>2026-04-25T13:42:01.32Z</time></trkpt><trkpt lat="43.1530958" lon="12.8474223"><ele>634.8</ele><time>2026-04-25T13:42:02.33Z</time></trkpt><trkpt lat="43.1530499" lon="12.8473021"><ele>638.2</ele><time>2026-04-25T13:42:03.327Z</time></trkpt><trkpt lat="43.1530062" lon="12.8471827"><ele>641.6</ele><time>2026-04-25T13:42:04.328Z</time></trkpt><trkpt lat="43.1529612" lon="12.8470638"><ele>645.0</ele><time>2026-04-25T13:42:05.323Z</time></trkpt><trkpt lat="43.1529198" lon="12.8469396"><ele>645.0</ele><time>2026-04-25T13:42:06.33Z</time></trkpt><trkpt lat="43.1528829" lon="12.8468236"><ele>645.0</ele><time>2026-04-25T13:42:07.32Z</time></trkpt><trkpt lat="43.1528493" lon="12.8467191"><ele>645.0</ele><time>2026-04-25T13:42:08.319Z</time></trkpt><trkpt lat="43.152815" lon="12.8466173"><ele>645.0</ele><time>2026-04-25T13:42:09.33Z</time></trkpt><trkpt lat="43.1527845" lon="12.8465175"><ele>645.0</ele><time>2026-04-25T13:42:10.329Z</time></trkpt><trkpt lat="43.1527662" lon="12.8464273"><ele>645.0</ele><time>2026-04-25T13:42:11.329Z</time></trkpt><trkpt lat="43.1527668" lon="12.8463389"><ele>647.6</ele><time>2026-04-25T13:42:12.329Z</time></trkpt><trkpt lat="43.1527891" lon="12.8462404"><ele>650.2</ele><time>2026-04-25T13:42:13.331Z</time></trkpt><trkpt lat="43.1528213" lon="12.846133"><ele>652.8</ele><time>2026-04-25T13:42:14.33Z</time></trkpt><trkpt lat="43.152859" lon="12.8460181"><ele>655.4</ele><time>2026-04-25T13:42:15.33Z</time></trkpt><trkpt lat="43.1529029" lon="12.8458953"><ele>658.0</ele><time>2026-04-25T13:42:16.33Z</time></trkpt><trkpt lat="43.1529466" lon="12.8457644"><ele>658.0</ele><time>2026-04-25T13:42:17.32Z</time></trkpt><trkpt lat="43.1529849" lon="12.8456333"><ele>658.0</ele><time>2026-04-25T13:42:18.333Z</time></trkpt><trkpt lat="43.1530136" lon="12.8455041"><ele>658.0</ele><time>2026-04-25T13:42:19.326Z</time></trkpt><trkpt lat="43.1530358" lon="12.8453782"><ele>658.0</ele><time>2026-04-25T13:42:20.329Z</time></trkpt><trkpt lat="43.1530413" lon="12.845254"><ele>658.0</ele><time>2026-04-25T13:42:21.326Z</time></trkpt><trkpt lat="43.1530463" lon="12.8451231"><ele>659.75</ele><time>2026-04-25T13:42:22.323Z</time></trkpt><trkpt lat="43.1530691" lon="12.8449854"><ele>661.5</ele><time>2026-04-25T13:42:23.329Z</time></trkpt><trkpt lat="43.1531036" lon="12.8448378"><ele>663.25</ele><time>2026-04-25T13:42:24.33Z</time></trkpt><trkpt lat="43.1531389" lon="12.8446839"><ele>665.0</ele><time>2026-04-25T13:42:25.33Z</time></trkpt><trkpt lat="43.1531724" lon="12.8445318"><ele>670.0</ele><time>2026-04-25T13:42:26.323Z</time></trkpt><trkpt lat="43.1532097" lon="12.844378"><ele>675.0</ele><time>2026-04-25T13:42:27.325Z</time></trkpt><trkpt lat="43.1532466" lon="12.8442297"><ele>680.0</ele><time>2026-04-25T13:42:28.327Z</time></trkpt><trkpt lat="43.1532765" lon="12.8440929"><ele>685.0</ele><time>2026-04-25T13:42:29.319Z</time></trkpt><trkpt lat="43.1532961" lon="12.8439732"><ele>690.0</ele><time>2026-04-25T13:42:30.327Z</time></trkpt><trkpt lat="43.1533028" lon="12.8438625"><ele>690.0</ele><time>2026-04-25T13:42:31.323Z</time></trkpt><trkpt lat="43.1532912" lon="12.8437668"><ele>690.0</ele><time>2026-04-25T13:42:32.327Z</time></trkpt><trkpt lat="43.1532605" lon="12.8436793"><ele>690.0</ele><time>2026-04-25T13:42:33.326Z</time></trkpt><trkpt lat="43.1532142" lon="12.84359"><ele>690.0</ele><time>2026-04-25T13:42:34.322Z</time></trkpt><trkpt lat="43.1531737" lon="12.8435102"><ele>690.0</ele><time>2026-04-25T13:42:35.32Z</time></trkpt><trkpt lat="43.1531196" lon="12.8434121"><ele>690.0</ele><time>2026-04-25T13:42:37.322Z</time></trkpt><trkpt lat="43.1530197" lon="12.8433955"><ele>688.4</ele><time>2026-04-25T13:42:39.321Z</time></trkpt><trkpt lat="43.1529451" lon="12.8434253"><ele>686.8</ele><time>2026-04-25T13:42:40.316Z</time></trkpt><trkpt lat="43.15285" lon="12.8434745"><ele>685.2</ele><time>2026-04-25T13:42:41.321Z</time></trkpt><trkpt lat="43.1527463" lon="12.8435353"><ele>683.6</ele><time>2026-04-25T13:42:42.318Z</time></trkpt><trkpt lat="43.1526448" lon="12.843612"><ele>682.0</ele><time>2026-04-25T13:42:43.321Z</time></trkpt><trkpt lat="43.152545" lon="12.8437035"><ele>682.0</ele><time>2026-04-25T13:42:44.32Z</time></trkpt><trkpt lat="43.1524492" lon="12.8438097"><ele>682.0</ele><time>2026-04-25T13:42:45.325Z</time></trkpt><trkpt lat="43.1523553" lon="12.8439274"><ele>682.0</ele><time>2026-04-25T13:42:46.324Z</time></trkpt><trkpt lat="43.1522643" lon="12.8440457"><ele>682.0</ele><time>2026-04-25T13:42:47.326Z</time></trkpt><trkpt lat="43.1521844" lon="12.844156"><ele>683.5</ele><time>2026-04-25T13:42:48.325Z</time></trkpt><trkpt lat="43.1521158" lon="12.8442513"><ele>685.0</ele><time>2026-04-25T13:42:49.317Z</time></trkpt><trkpt lat="43.152058" lon="12.8443267"><ele>686.5</ele><time>2026-04-25T13:42:50.325Z</time></trkpt><trkpt lat="43.1520002" lon="12.8443858"><ele>688.0</ele><time>2026-04-25T13:42:51.328Z</time></trkpt><trkpt lat="43.151935" lon="12.8444331"><ele>689.5</ele><time>2026-04-25T13:42:52.318Z</time></trkpt><trkpt lat="43.1518598" lon="12.8444664"><ele>691.0</ele><time>2026-04-25T13:42:53.324Z</time></trkpt><trkpt lat="43.1517904" lon="12.8444851"><ele>691.0</ele><time>2026-04-25T13:42:54.326Z</time></trkpt><trkpt lat="43.1516808" lon="12.8444686"><ele>691.0</ele><time>2026-04-25T13:42:56.327Z</time></trkpt><trkpt lat="43.1515914" lon="12.8443479"><ele>691.0</ele><time>2026-04-25T13:42:58.327Z</time></trkpt><trkpt lat="43.151547" lon="12.8442366"><ele>691.0</ele><time>2026-04-25T13:42:59.328Z</time></trkpt><trkpt lat="43.1514979" lon="12.8441149"><ele>691.0</ele><time>2026-04-25T13:43:00.323Z</time></trkpt><trkpt lat="43.1514491" lon="12.8439838"><ele>690.1999999999999</ele><time>2026-04-25T13:43:01.326Z</time></trkpt><trkpt lat="43.1514022" lon="12.8438498"><ele>689.4</ele><time>2026-04-25T13:43:02.317Z</time></trkpt><trkpt lat="43.1513435" lon="12.8437229"><ele>688.6</ele><time>2026-04-25T13:43:03.33Z</time></trkpt><trkpt lat="43.1512727" lon="12.8436007"><ele>687.8</ele><time>2026-04-25T13:43:04.328Z</time></trkpt><trkpt lat="43.1511998" lon="12.8434957"><ele>687.0</ele><time>2026-04-25T13:43:05.323Z</time></trkpt><trkpt lat="43.1511236" lon="12.8434008"><ele>687.0</ele><time>2026-04-25T13:43:06.328Z</time></trkpt><trkpt lat="43.1510518" lon="12.8433064"><ele>687.0</ele><time>2026-04-25T13:43:07.323Z</time></trkpt><trkpt lat="43.1509884" lon="12.8432184"><ele>687.0</ele><time>2026-04-25T13:43:08.326Z</time></trkpt><trkpt lat="43.1509333" lon="12.8431417"><ele>687.0</ele><time>2026-04-25T13:43:09.328Z</time></trkpt><trkpt lat="43.1508891" lon="12.8430742"><ele>687.0</ele><time>2026-04-25T13:43:10.326Z</time></trkpt><trkpt lat="43.1508032" lon="12.8429445"><ele>687.0</ele><time>2026-04-25T13:43:12.328Z</time></trkpt><trkpt lat="43.1507459" lon="12.8428923"><ele>687.0</ele><time>2026-04-25T13:43:13.333Z</time></trkpt><trkpt lat="43.150677" lon="12.8428506"><ele>687.0</ele><time>2026-04-25T13:43:14.329Z</time></trkpt><trkpt lat="43.150603" lon="12.8428169"><ele>687.0</ele><time>2026-04-25T13:43:15.328Z</time></trkpt><trkpt lat="43.1505316" lon="12.8427873"><ele>687.0</ele><time>2026-04-25T13:43:16.322Z</time></trkpt><trkpt lat="43.1504644" lon="12.8427516"><ele>687.0</ele><time>2026-04-25T13:43:17.324Z</time></trkpt><trkpt lat="43.1504009" lon="12.8426978"><ele>687.0</ele><time>2026-04-25T13:43:18.326Z</time></trkpt><trkpt lat="43.1503484" lon="12.8426261"><ele>688.1666666666666</ele><time>2026-04-25T13:43:19.335Z</time></trkpt><trkpt lat="43.1503086" lon="12.8425361"><ele>689.3333333333334</ele><time>2026-04-25T13:43:20.328Z</time></trkpt><trkpt lat="43.1502808" lon="12.842438"><ele>690.5</ele><time>2026-04-25T13:43:21.33Z</time></trkpt><trkpt lat="43.1502517" lon="12.8423399"><ele>691.6666666666667</ele><time>2026-04-25T13:43:22.328Z</time></trkpt><trkpt lat="43.150208" lon="12.8422534"><ele>692.8333333333334</ele><time>2026-04-25T13:43:23.331Z</time></trkpt><trkpt lat="43.1501479" lon="12.8421668"><ele>694.0</ele><time>2026-04-25T13:43:24.328Z</time></trkpt><trkpt lat="43.1500788" lon="12.842112"><ele>694.0</ele><time>2026-04-25T13:43:25.319Z</time></trkpt><trkpt lat="43.1500125" lon="12.8420476"><ele>694.0</ele><time>2026-04-25T13:43:26.318Z</time></trkpt><trkpt lat="43.1499599" lon="12.8419628"><ele>694.0</ele><time>2026-04-25T13:43:27.327Z</time></trkpt><trkpt lat="43.1499159" lon="12.8418622"><ele>694.0</ele><time>2026-04-25T13:43:28.328Z</time></trkpt><trkpt lat="43.1498751" lon="12.8417619"><ele>694.0</ele><time>2026-04-25T13:43:29.327Z</time></trkpt><trkpt lat="43.1498327" lon="12.84167"><ele>694.0</ele><time>2026-04-25T13:43:30.323Z</time></trkpt><trkpt lat="43.1497912" lon="12.8415876"><ele>696.6666666666667</ele><time>2026-04-25T13:43:31.321Z</time></trkpt><trkpt lat="43.1497562" lon="12.8415129"><ele>699.3333333333334</ele><time>2026-04-25T13:43:32.327Z</time></trkpt><trkpt lat="43.1497221" lon="12.841437"><ele>702.0</ele><time>2026-04-25T13:43:33.328Z</time></trkpt><trkpt lat="43.1496802" lon="12.8413515"><ele>704.6666666666666</ele><time>2026-04-25T13:43:34.32Z</time></trkpt><trkpt lat="43.1496314" lon="12.8412529"><ele>707.3333333333333</ele><time>2026-04-25T13:43:35.332Z</time></trkpt><trkpt lat="43.1495814" lon="12.8411456"><ele>710.0</ele><time>2026-04-25T13:43:36.323Z</time></trkpt><trkpt lat="43.1495438" lon="12.8410526"><ele>710.2857142857142</ele><time>2026-04-25T13:43:37.317Z</time></trkpt><trkpt lat="43.1495104" lon="12.8409627"><ele>710.5714285714286</ele><time>2026-04-25T13:43:38.319Z</time></trkpt><trkpt lat="43.1494811" lon="12.8408735"><ele>710.8571428571429</ele><time>2026-04-25T13:43:39.32Z</time></trkpt><trkpt lat="43.1494617" lon="12.8407859"><ele>711.1428571428571</ele><time>2026-04-25T13:43:40.325Z</time></trkpt><trkpt lat="43.1494554" lon="12.8406987"><ele>711.4285714285714</ele><time>2026-04-25T13:43:41.318Z</time></trkpt><trkpt lat="43.1494582" lon="12.8406118"><ele>711.7142857142857</ele><time>2026-04-25T13:43:42.329Z</time></trkpt><trkpt lat="43.1494685" lon="12.8405101"><ele>712.0</ele><time>2026-04-25T13:43:43.327Z</time></trkpt><trkpt lat="43.1494817" lon="12.8403986"><ele>712.0</ele><time>2026-04-25T13:43:44.326Z</time></trkpt><trkpt lat="43.1495002" lon="12.8402857"><ele>712.0</ele><time>2026-04-25T13:43:45.33Z</time></trkpt><trkpt lat="43.1495209" lon="12.8401724"><ele>712.0</ele><time>2026-04-25T13:43:46.33Z</time></trkpt><trkpt lat="43.1495384" lon="12.8400594"><ele>712.0</ele><time>2026-04-25T13:43:47.328Z</time></trkpt><trkpt lat="43.1495548" lon="12.8399468"><ele>712.0</ele><time>2026-04-25T13:43:48.329Z</time></trkpt><trkpt lat="43.1495747" lon="12.8398327"><ele>712.0</ele><time>2026-04-25T13:43:49.326Z</time></trkpt><trkpt lat="43.149592" lon="12.83972"><ele>712.0</ele><time>2026-04-25T13:43:50.329Z</time></trkpt><trkpt lat="43.1496023" lon="12.8396074"><ele>712.0</ele><time>2026-04-25T13:43:51.329Z</time></trkpt><trkpt lat="43.1496076" lon="12.8394955"><ele>712.0</ele><time>2026-04-25T13:43:52.333Z</time></trkpt><trkpt lat="43.1496065" lon="12.8393889"><ele>712.0</ele><time>2026-04-25T13:43:53.333Z</time></trkpt><trkpt lat="43.1495989" lon="12.8392941"><ele>712.0</ele><time>2026-04-25T13:43:54.326Z</time></trkpt><trkpt lat="43.1495842" lon="12.839195"><ele>712.0</ele><time>2026-04-25T13:43:55.329Z</time></trkpt><trkpt lat="43.149572" lon="12.8390888"><ele>713.0</ele><time>2026-04-25T13:43:56.332Z</time></trkpt><trkpt lat="43.1495501" lon="12.8389739"><ele>714.0</ele><time>2026-04-25T13:43:57.331Z</time></trkpt><trkpt lat="43.1495227" lon="12.8388536"><ele>715.0</ele><time>2026-04-25T13:43:58.321Z</time></trkpt><trkpt lat="43.1494981" lon="12.8387349"><ele>716.0</ele><time>2026-04-25T13:43:59.332Z</time></trkpt><trkpt lat="43.1494777" lon="12.8386269"><ele>717.0</ele><time>2026-04-25T13:44:00.327Z</time></trkpt><trkpt lat="43.1494689" lon="12.8385245"><ele>718.0</ele><time>2026-04-25T13:44:01.335Z</time></trkpt><trkpt lat="43.1494737" lon="12.8384315"><ele>720.2</ele><time>2026-04-25T13:44:02.332Z</time></trkpt><trkpt lat="43.149492" lon="12.838342"><ele>722.4</ele><time>2026-04-25T13:44:03.326Z</time></trkpt><trkpt lat="43.1495123" lon="12.8382509"><ele>724.6</ele><time>2026-04-25T13:44:04.326Z</time></trkpt><trkpt lat="43.149549" lon="12.8381115"><ele>726.8000000000001</ele><time>2026-04-25T13:44:06.315Z</time></trkpt><trkpt lat="43.1495878" lon="12.8379856"><ele>729.0</ele><time>2026-04-25T13:44:08.319Z</time></trkpt><trkpt lat="43.1496296" lon="12.8378534"><ele>729.0</ele><time>2026-04-25T13:44:10.317Z</time></trkpt><trkpt lat="43.1496691" lon="12.8377059"><ele>729.0</ele><time>2026-04-25T13:44:12.317Z</time></trkpt><trkpt lat="43.1497149" lon="12.8375597"><ele>729.0</ele><time>2026-04-25T13:44:14.33Z</time></trkpt><trkpt lat="43.1497445" lon="12.837477"><ele>729.0</ele><time>2026-04-25T13:44:15.328Z</time></trkpt><trkpt lat="43.1497774" lon="12.8373836"><ele>729.0</ele><time>2026-04-25T13:44:16.32Z</time></trkpt><trkpt lat="43.1498095" lon="12.8372917"><ele>729.0</ele><time>2026-04-25T13:44:17.328Z</time></trkpt><trkpt lat="43.1498406" lon="12.8372017"><ele>731.0</ele><time>2026-04-25T13:44:18.328Z</time></trkpt><trkpt lat="43.1498773" lon="12.8371195"><ele>733.0</ele><time>2026-04-25T13:44:19.329Z</time></trkpt><trkpt lat="43.1499212" lon="12.8370489"><ele>735.0</ele><time>2026-04-25T13:44:20.326Z</time></trkpt><trkpt lat="43.1499651" lon="12.8369861"><ele>737.0</ele><time>2026-04-25T13:44:21.328Z</time></trkpt><trkpt lat="43.1500373" lon="12.8368591"><ele>739.0</ele><time>2026-04-25T13:44:23.32Z</time></trkpt><trkpt lat="43.1500771" lon="12.8367146"><ele>741.0</ele><time>2026-04-25T13:44:25.319Z</time></trkpt><trkpt lat="43.1500763" lon="12.8366283"><ele>741.0</ele><time>2026-04-25T13:44:26.329Z</time></trkpt><trkpt lat="43.1500623" lon="12.8365332"><ele>741.0</ele><time>2026-04-25T13:44:27.325Z</time></trkpt><trkpt lat="43.15004" lon="12.8364297"><ele>741.0</ele><time>2026-04-25T13:44:28.333Z</time></trkpt><trkpt lat="43.1500282" lon="12.8363344"><ele>741.0</ele><time>2026-04-25T13:44:29.331Z</time></trkpt><trkpt lat="43.1500177" lon="12.8362388"><ele>741.0</ele><time>2026-04-25T13:44:30.327Z</time></trkpt><trkpt lat="43.1500052" lon="12.8361434"><ele>741.0</ele><time>2026-04-25T13:44:31.332Z</time></trkpt><trkpt lat="43.1499887" lon="12.8360478"><ele>741.0</ele><time>2026-04-25T13:44:32.322Z</time></trkpt><trkpt lat="43.1499649" lon="12.8359554"><ele>742.2857142857142</ele><time>2026-04-25T13:44:33.328Z</time></trkpt><trkpt lat="43.1499402" lon="12.8358647"><ele>743.5714285714287</ele><time>2026-04-25T13:44:34.331Z</time></trkpt><trkpt lat="43.1499282" lon="12.8357713"><ele>744.8571428571429</ele><time>2026-04-25T13:44:35.328Z</time></trkpt><trkpt lat="43.1499292" lon="12.8356798"><ele>746.1428571428571</ele><time>2026-04-25T13:44:36.325Z</time></trkpt><trkpt lat="43.1499743" lon="12.8356022"><ele>747.4285714285713</ele><time>2026-04-25T13:44:37.329Z</time></trkpt><trkpt lat="43.1500387" lon="12.8355388"><ele>748.7142857142858</ele><time>2026-04-25T13:44:38.326Z</time></trkpt><trkpt lat="43.150105" lon="12.8354819"><ele>750.0</ele><time>2026-04-25T13:44:39.331Z</time></trkpt><trkpt lat="43.1501781" lon="12.8354588"><ele>750.0</ele><time>2026-04-25T13:44:40.33Z</time></trkpt><trkpt lat="43.1502438" lon="12.8354697"><ele>750.0</ele><time>2026-04-25T13:44:41.33Z</time></trkpt><trkpt lat="43.1503075" lon="12.8355737"><ele>750.0</ele><time>2026-04-25T13:44:43.33Z</time></trkpt><trkpt lat="43.1503466" lon="12.8357474"><ele>750.0</ele><time>2026-04-25T13:44:45.33Z</time></trkpt><trkpt lat="43.1503702" lon="12.83585"><ele>750.0</ele><time>2026-04-25T13:44:46.333Z</time></trkpt><trkpt lat="43.1503898" lon="12.8359709"><ele>748.2</ele><time>2026-04-25T13:44:47.334Z</time></trkpt><trkpt lat="43.150406" lon="12.8361132"><ele>746.4</ele><time>2026-04-25T13:44:48.324Z</time></trkpt><trkpt lat="43.1504209" lon="12.8362623"><ele>744.5999999999999</ele><time>2026-04-25T13:44:49.331Z</time></trkpt><trkpt lat="43.1504304" lon="12.8364093"><ele>742.8</ele><time>2026-04-25T13:44:50.336Z</time></trkpt><trkpt lat="43.1504266" lon="12.8365553"><ele>741.0</ele><time>2026-04-25T13:44:51.331Z</time></trkpt><trkpt lat="43.1504115" lon="12.8367091"><ele>741.0</ele><time>2026-04-25T13:44:52.328Z</time></trkpt><trkpt lat="43.1503896" lon="12.8368618"><ele>741.0</ele><time>2026-04-25T13:44:53.329Z</time></trkpt><trkpt lat="43.1503637" lon="12.8369975"><ele>741.0</ele><time>2026-04-25T13:44:54.33Z</time></trkpt><trkpt lat="43.150334" lon="12.8371258"><ele>741.0</ele><time>2026-04-25T13:44:55.33Z</time></trkpt><trkpt lat="43.150296" lon="12.8372603"><ele>741.0</ele><time>2026-04-25T13:44:56.334Z</time></trkpt><trkpt lat="43.1502582" lon="12.8373958"><ele>741.0</ele><time>2026-04-25T13:44:57.321Z</time></trkpt><trkpt lat="43.1502283" lon="12.8375261"><ele>741.0</ele><time>2026-04-25T13:44:58.328Z</time></trkpt><trkpt lat="43.1502064" lon="12.8376539"><ele>741.0</ele><time>2026-04-25T13:44:59.328Z</time></trkpt><trkpt lat="43.1501864" lon="12.8377874"><ele>741.0</ele><time>2026-04-25T13:45:00.329Z</time></trkpt><trkpt lat="43.1501664" lon="12.8379277"><ele>741.0</ele><time>2026-04-25T13:45:01.319Z</time></trkpt><trkpt lat="43.1501461" lon="12.8380727"><ele>741.1999999999999</ele><time>2026-04-25T13:45:02.327Z</time></trkpt><trkpt lat="43.150133" lon="12.8382161"><ele>741.4</ele><time>2026-04-25T13:45:03.322Z</time></trkpt><trkpt lat="43.1501272" lon="12.8383494"><ele>741.6</ele><time>2026-04-25T13:45:04.316Z</time></trkpt><trkpt lat="43.1501281" lon="12.8384736"><ele>741.8</ele><time>2026-04-25T13:45:05.324Z</time></trkpt><trkpt lat="43.1501389" lon="12.8385862"><ele>742.0</ele><time>2026-04-25T13:45:06.326Z</time></trkpt><trkpt lat="43.1501613" lon="12.838688"><ele>740.8</ele><time>2026-04-25T13:45:07.326Z</time></trkpt><trkpt lat="43.1501975" lon="12.8387802"><ele>739.6</ele><time>2026-04-25T13:45:08.324Z</time></trkpt><trkpt lat="43.1502417" lon="12.8388711"><ele>738.4</ele><time>2026-04-25T13:45:09.328Z</time></trkpt><trkpt lat="43.1502888" lon="12.838979"><ele>737.1999999999999</ele><time>2026-04-25T13:45:10.329Z</time></trkpt><trkpt lat="43.1503391" lon="12.8390991"><ele>736.0</ele><time>2026-04-25T13:45:11.324Z</time></trkpt><trkpt lat="43.1503855" lon="12.8392257"><ele>734.1999999999999</ele><time>2026-04-25T13:45:12.333Z</time></trkpt><trkpt lat="43.1504317" lon="12.8393543"><ele>732.4</ele><time>2026-04-25T13:45:13.319Z</time></trkpt><trkpt lat="43.1504794" lon="12.8394804"><ele>730.6</ele><time>2026-04-25T13:45:14.327Z</time></trkpt><trkpt lat="43.1505217" lon="12.8395968"><ele>728.8</ele><time>2026-04-25T13:45:15.332Z</time></trkpt><trkpt lat="43.150565" lon="12.839697"><ele>727.0</ele><time>2026-04-25T13:45:16.331Z</time></trkpt><trkpt lat="43.150617" lon="12.8397844"><ele>727.0</ele><time>2026-04-25T13:45:17.333Z</time></trkpt><trkpt lat="43.1506724" lon="12.8398663"><ele>727.0</ele><time>2026-04-25T13:45:18.321Z</time></trkpt><trkpt lat="43.1507263" lon="12.8399422"><ele>727.0</ele><time>2026-04-25T13:45:19.317Z</time></trkpt><trkpt lat="43.1507862" lon="12.8400178"><ele>727.0</ele><time>2026-04-25T13:45:20.32Z</time></trkpt><trkpt lat="43.1508505" lon="12.8400974"><ele>727.0</ele><time>2026-04-25T13:45:21.326Z</time></trkpt><trkpt lat="43.1509192" lon="12.8401952"><ele>727.0</ele><time>2026-04-25T13:45:22.326Z</time></trkpt><trkpt lat="43.1509894" lon="12.8402928"><ele>730.8</ele><time>2026-04-25T13:45:23.331Z</time></trkpt><trkpt lat="43.1510613" lon="12.8403807"><ele>734.6</ele><time>2026-04-25T13:45:24.329Z</time></trkpt><trkpt lat="43.1511331" lon="12.840456"><ele>738.4</ele><time>2026-04-25T13:45:25.327Z</time></trkpt><trkpt lat="43.1512063" lon="12.8405285"><ele>742.1999999999999</ele><time>2026-04-25T13:45:26.326Z</time></trkpt><trkpt lat="43.1512817" lon="12.8406108"><ele>746.0</ele><time>2026-04-25T13:45:27.319Z</time></trkpt><trkpt lat="43.1513561" lon="12.8407062"><ele>746.0</ele><time>2026-04-25T13:45:28.327Z</time></trkpt><trkpt lat="43.1514282" lon="12.8408051"><ele>746.0</ele><time>2026-04-25T13:45:29.326Z</time></trkpt><trkpt lat="43.1514967" lon="12.8409047"><ele>746.0</ele><time>2026-04-25T13:45:30.327Z</time></trkpt><trkpt lat="43.1515623" lon="12.8410004"><ele>746.0</ele><time>2026-04-25T13:45:31.327Z</time></trkpt><trkpt lat="43.15163" lon="12.8410904"><ele>746.0</ele><time>2026-04-25T13:45:32.318Z</time></trkpt><trkpt lat="43.1516974" lon="12.8411769"><ele>747.6666666666666</ele><time>2026-04-25T13:45:33.327Z</time></trkpt><trkpt lat="43.1517599" lon="12.841254"><ele>749.3333333333333</ele><time>2026-04-25T13:45:34.325Z</time></trkpt><trkpt lat="43.1518174" lon="12.84132"><ele>751.0</ele><time>2026-04-25T13:45:35.327Z</time></trkpt><trkpt lat="43.1518733" lon="12.8413776"><ele>752.6666666666666</ele><time>2026-04-25T13:45:36.325Z</time></trkpt><trkpt lat="43.1519632" lon="12.8414347"><ele>754.3333333333334</ele><time>2026-04-25T13:45:38.327Z</time></trkpt><trkpt lat="43.151995" lon="12.8413537"><ele>756.0</ele><time>2026-04-25T13:45:41.329Z</time></trkpt><trkpt lat="43.1518895" lon="12.8412055"><ele>756.0</ele><time>2026-04-25T13:45:43.331Z</time></trkpt><trkpt lat="43.1517983" lon="12.8410737"><ele>756.0</ele><time>2026-04-25T13:45:44.325Z</time></trkpt><trkpt lat="43.1516995" lon="12.840924"><ele>756.0</ele><time>2026-04-25T13:45:45.318Z</time></trkpt><trkpt lat="43.151602" lon="12.8407579"><ele>756.0</ele><time>2026-04-25T13:45:46.324Z</time></trkpt><trkpt lat="43.1515005" lon="12.8405809"><ele>759.0</ele><time>2026-04-25T13:45:47.329Z</time></trkpt><trkpt lat="43.1513986" lon="12.8403983"><ele>762.0</ele><time>2026-04-25T13:45:48.33Z</time></trkpt><trkpt lat="43.1513024" lon="12.8402173"><ele>765.0</ele><time>2026-04-25T13:45:49.328Z</time></trkpt><trkpt lat="43.1512193" lon="12.8400372"><ele>765.0</ele><time>2026-04-25T13:45:50.328Z</time></trkpt><trkpt lat="43.1511535" lon="12.8398492"><ele>765.0</ele><time>2026-04-25T13:45:51.331Z</time></trkpt><trkpt lat="43.151102" lon="12.839648"><ele>765.0</ele><time>2026-04-25T13:45:52.33Z</time></trkpt><trkpt lat="43.1510571" lon="12.8394479"><ele>767.25</ele><time>2026-04-25T13:45:53.324Z</time></trkpt><trkpt lat="43.1510199" lon="12.8392525"><ele>769.5</ele><time>2026-04-25T13:45:54.326Z</time></trkpt><trkpt lat="43.1509955" lon="12.8390617"><ele>771.75</ele><time>2026-04-25T13:45:55.333Z</time></trkpt><trkpt lat="43.1509837" lon="12.8388737"><ele>774.0</ele><time>2026-04-25T13:45:56.329Z</time></trkpt><trkpt lat="43.1509802" lon="12.83869"><ele>774.0</ele><time>2026-04-25T13:45:57.323Z</time></trkpt><trkpt lat="43.1509775" lon="12.8385186"><ele>774.0</ele><time>2026-04-25T13:45:58.322Z</time></trkpt><trkpt lat="43.1509723" lon="12.8383638"><ele>774.0</ele><time>2026-04-25T13:45:59.328Z</time></trkpt><trkpt lat="43.1509696" lon="12.838225"><ele>774.0</ele><time>2026-04-25T13:46:00.329Z</time></trkpt><trkpt lat="43.1509745" lon="12.8381062"><ele>774.0</ele><time>2026-04-25T13:46:01.323Z</time></trkpt><trkpt lat="43.1509814" lon="12.8379958"><ele>775.6</ele><time>2026-04-25T13:46:02.331Z</time></trkpt><trkpt lat="43.1509892" lon="12.837887"><ele>777.2</ele><time>2026-04-25T13:46:03.322Z</time></trkpt><trkpt lat="43.1509946" lon="12.837783"><ele>778.8000000000001</ele><time>2026-04-25T13:46:04.319Z</time></trkpt><trkpt lat="43.1510048" lon="12.8376604"><ele>780.4000000000001</ele><time>2026-04-25T13:46:05.33Z</time></trkpt><trkpt lat="43.1510246" lon="12.8374806"><ele>782.0</ele><time>2026-04-25T13:46:06.32Z</time></trkpt><trkpt lat="43.1510555" lon="12.8372494"><ele>782.6666666666667</ele><time>2026-04-25T13:46:07.325Z</time></trkpt><trkpt lat="43.151095" lon="12.8369915"><ele>783.3333333333333</ele><time>2026-04-25T13:46:08.325Z</time></trkpt><trkpt lat="43.151145" lon="12.8367179"><ele>784.0</ele><time>2026-04-25T13:46:09.329Z</time></trkpt><trkpt lat="43.1512078" lon="12.8364255"><ele>782.3333333333333</ele><time>2026-04-25T13:46:10.324Z</time></trkpt><trkpt lat="43.1512662" lon="12.8361215"><ele>780.6666666666667</ele><time>2026-04-25T13:46:11.33Z</time></trkpt><trkpt lat="43.1513112" lon="12.8358402"><ele>779.0</ele><time>2026-04-25T13:46:12.327Z</time></trkpt><trkpt lat="43.1513546" lon="12.8355969"><ele>777.6666666666667</ele><time>2026-04-25T13:46:13.323Z</time></trkpt><trkpt lat="43.1514028" lon="12.8353907"><ele>776.3333333333333</ele><time>2026-04-25T13:46:14.326Z</time></trkpt><trkpt lat="43.1514662" lon="12.8352021"><ele>775.0</ele><time>2026-04-25T13:46:15.319Z</time></trkpt><trkpt lat="43.1515494" lon="12.8350247"><ele>788.6666666666666</ele><time>2026-04-25T13:46:16.324Z</time></trkpt><trkpt lat="43.1516437" lon="12.8348493"><ele>802.3333333333333</ele><time>2026-04-25T13:46:17.329Z</time></trkpt><trkpt lat="43.1517391" lon="12.8346726"><ele>816.0</ele><time>2026-04-25T13:46:18.328Z</time></trkpt><trkpt lat="43.1518209" lon="12.8345046"><ele>816.0</ele><time>2026-04-25T13:46:19.327Z</time></trkpt><trkpt lat="43.1518833" lon="12.8343452"><ele>816.0</ele><time>2026-04-25T13:46:20.328Z</time></trkpt><trkpt lat="43.1519276" lon="12.8341866"><ele>816.0</ele><time>2026-04-25T13:46:21.326Z</time></trkpt><trkpt lat="43.1519398" lon="12.8340233"><ele>816.0</ele><time>2026-04-25T13:46:22.328Z</time></trkpt><trkpt lat="43.1519141" lon="12.8338473"><ele>815.0</ele><time>2026-04-25T13:46:23.324Z</time></trkpt><trkpt lat="43.151856" lon="12.833666"><ele>814.0</ele><time>2026-04-25T13:46:24.326Z</time></trkpt><trkpt lat="43.1517752" lon="12.8335208"><ele>813.0</ele><time>2026-04-25T13:46:25.317Z</time></trkpt><trkpt lat="43.1516653" lon="12.8334243"><ele>812.0</ele><time>2026-04-25T13:46:26.329Z</time></trkpt><trkpt lat="43.1515412" lon="12.8333442"><ele>815.75</ele><time>2026-04-25T13:46:27.322Z</time></trkpt><trkpt lat="43.1514186" lon="12.833278"><ele>819.5</ele><time>2026-04-25T13:46:28.322Z</time></trkpt><trkpt lat="43.151306" lon="12.833225"><ele>823.25</ele><time>2026-04-25T13:46:29.324Z</time></trkpt><trkpt lat="43.1511984" lon="12.8332237"><ele>827.0</ele><time>2026-04-25T13:46:30.322Z</time></trkpt><trkpt lat="43.1510901" lon="12.8332668"><ele>827.0</ele><time>2026-04-25T13:46:31.324Z</time></trkpt><trkpt lat="43.1509701" lon="12.8333227"><ele>827.0</ele><time>2026-04-25T13:46:32.316Z</time></trkpt><trkpt lat="43.1508549" lon="12.8333362"><ele>827.0</ele><time>2026-04-25T13:46:33.323Z</time></trkpt><trkpt lat="43.1507419" lon="12.8333028"><ele>827.0</ele><time>2026-04-25T13:46:34.317Z</time></trkpt><trkpt lat="43.1506421" lon="12.8332249"><ele>828.0</ele><time>2026-04-25T13:46:35.325Z</time></trkpt><trkpt lat="43.1505699" lon="12.8331089"><ele>829.0</ele><time>2026-04-25T13:46:36.319Z</time></trkpt><trkpt lat="43.1505088" lon="12.8330279"><ele>830.0</ele><time>2026-04-25T13:46:37.319Z</time></trkpt><trkpt lat="43.1504269" lon="12.8329934"><ele>831.0</ele><time>2026-04-25T13:46:38.326Z</time></trkpt><trkpt lat="43.1503211" lon="12.8330079"><ele>832.0</ele><time>2026-04-25T13:46:39.328Z</time></trkpt><trkpt lat="43.1502063" lon="12.833061"><ele>832.0</ele><time>2026-04-25T13:46:40.32Z</time></trkpt><trkpt lat="43.150083" lon="12.8331272"><ele>832.0</ele><time>2026-04-25T13:46:41.318Z</time></trkpt><trkpt lat="43.1499665" lon="12.8331897"><ele>832.0</ele><time>2026-04-25T13:46:42.323Z</time></trkpt><trkpt lat="43.1498659" lon="12.8332251"><ele>832.0</ele><time>2026-04-25T13:46:43.324Z</time></trkpt><trkpt lat="43.1497697" lon="12.833246"><ele>832.75</ele><time>2026-04-25T13:46:44.315Z</time></trkpt><trkpt lat="43.1496658" lon="12.8332631"><ele>833.5</ele><time>2026-04-25T13:46:45.32Z</time></trkpt><trkpt lat="43.1495547" lon="12.8332695"><ele>834.25</ele><time>2026-04-25T13:46:46.319Z</time></trkpt><trkpt lat="43.1494393" lon="12.8332587"><ele>835.0</ele><time>2026-04-25T13:46:47.324Z</time></trkpt><trkpt lat="43.149321" lon="12.8332298"><ele>835.0</ele><time>2026-04-25T13:46:48.328Z</time></trkpt><trkpt lat="43.1491966" lon="12.8331867"><ele>835.0</ele><time>2026-04-25T13:46:49.321Z</time></trkpt><trkpt lat="43.1490744" lon="12.8331301"><ele>835.0</ele><time>2026-04-25T13:46:50.323Z</time></trkpt><trkpt lat="43.1489459" lon="12.833064"><ele>835.0</ele><time>2026-04-25T13:46:51.326Z</time></trkpt><trkpt lat="43.148811" lon="12.8330093"><ele>836.5</ele><time>2026-04-25T13:46:52.324Z</time></trkpt><trkpt lat="43.1486731" lon="12.8329615"><ele>838.0</ele><time>2026-04-25T13:46:53.327Z</time></trkpt><trkpt lat="43.1485357" lon="12.8329146"><ele>839.5</ele><time>2026-04-25T13:46:54.326Z</time></trkpt><trkpt lat="43.1484084" lon="12.8328604"><ele>841.0</ele><time>2026-04-25T13:46:55.334Z</time></trkpt><trkpt lat="43.1482922" lon="12.8327902"><ele>842.5</ele><time>2026-04-25T13:46:56.325Z</time></trkpt><trkpt lat="43.1481933" lon="12.8326861"><ele>844.0</ele><time>2026-04-25T13:46:57.333Z</time></trkpt><trkpt lat="43.1481146" lon="12.8325482"><ele>845.5</ele><time>2026-04-25T13:46:58.322Z</time></trkpt><trkpt lat="43.1480537" lon="12.8323939"><ele>847.0</ele><time>2026-04-25T13:46:59.331Z</time></trkpt><trkpt lat="43.1480032" lon="12.8322391"><ele>848.75</ele><time>2026-04-25T13:47:00.32Z</time></trkpt><trkpt lat="43.1479506" lon="12.8320858"><ele>850.5</ele><time>2026-04-25T13:47:01.328Z</time></trkpt><trkpt lat="43.1478971" lon="12.8319263"><ele>852.25</ele><time>2026-04-25T13:47:02.333Z</time></trkpt><trkpt lat="43.1478499" lon="12.8317556"><ele>854.0</ele><time>2026-04-25T13:47:03.331Z</time></trkpt><trkpt lat="43.1478126" lon="12.8315712"><ele>855.5</ele><time>2026-04-25T13:47:04.324Z</time></trkpt><trkpt lat="43.1477762" lon="12.8313852"><ele>857.0</ele><time>2026-04-25T13:47:05.323Z</time></trkpt><trkpt lat="43.1477323" lon="12.8312082"><ele>858.5</ele><time>2026-04-25T13:47:06.331Z</time></trkpt><trkpt lat="43.1476623" lon="12.8310442"><ele>860.0</ele><time>2026-04-25T13:47:07.332Z</time></trkpt><trkpt lat="43.1475668" lon="12.8309016"><ele>860.5</ele><time>2026-04-25T13:47:08.318Z</time></trkpt><trkpt lat="43.1474741" lon="12.8307722"><ele>861.0</ele><time>2026-04-25T13:47:09.322Z</time></trkpt><trkpt lat="43.1474057" lon="12.8306266"><ele>861.5</ele><time>2026-04-25T13:47:10.332Z</time></trkpt><trkpt lat="43.1473802" lon="12.8304657"><ele>862.0</ele><time>2026-04-25T13:47:11.328Z</time></trkpt><trkpt lat="43.1473741" lon="12.8303169"><ele>867.75</ele><time>2026-04-25T13:47:12.322Z</time></trkpt><trkpt lat="43.1473467" lon="12.8301793"><ele>873.5</ele><time>2026-04-25T13:47:13.331Z</time></trkpt><trkpt lat="43.1472898" lon="12.830036"><ele>879.25</ele><time>2026-04-25T13:47:14.321Z</time></trkpt><trkpt lat="43.1472089" lon="12.8298845"><ele>885.0</ele><time>2026-04-25T13:47:15.321Z</time></trkpt><trkpt lat="43.1471096" lon="12.8297292"><ele>885.6666666666667</ele><time>2026-04-25T13:47:16.33Z</time></trkpt><trkpt lat="43.146994" lon="12.8295654"><ele>886.3333333333334</ele><time>2026-04-25T13:47:17.333Z</time></trkpt><trkpt lat="43.1468672" lon="12.8293992"><ele>887.0</ele><time>2026-04-25T13:47:18.331Z</time></trkpt><trkpt lat="43.1467364" lon="12.8292298"><ele>881.6666666666667</ele><time>2026-04-25T13:47:19.324Z</time></trkpt><trkpt lat="43.1465958" lon="12.8290652"><ele>876.3333333333333</ele><time>2026-04-25T13:47:20.329Z</time></trkpt><trkpt lat="43.1464368" lon="12.8288953"><ele>871.0</ele><time>2026-04-25T13:47:21.332Z</time></trkpt><trkpt lat="43.1462589" lon="12.8287151"><ele>873.0</ele><time>2026-04-25T13:47:22.329Z</time></trkpt><trkpt lat="43.1460853" lon="12.8285326"><ele>875.0</ele><time>2026-04-25T13:47:23.324Z</time></trkpt><trkpt lat="43.1459262" lon="12.8283571"><ele>877.0</ele><time>2026-04-25T13:47:24.329Z</time></trkpt><trkpt lat="43.1457823" lon="12.8281771"><ele>875.6666666666666</ele><time>2026-04-25T13:47:25.331Z</time></trkpt><trkpt lat="43.1456528" lon="12.8279837"><ele>874.3333333333333</ele><time>2026-04-25T13:47:26.33Z</time></trkpt><trkpt lat="43.1455324" lon="12.827789"><ele>873.0</ele><time>2026-04-25T13:47:27.328Z</time></trkpt><trkpt lat="43.1454196" lon="12.8276173"><ele>873.0</ele><time>2026-04-25T13:47:28.328Z</time></trkpt><trkpt lat="43.145315" lon="12.8274688"><ele>873.0</ele><time>2026-04-25T13:47:29.323Z</time></trkpt><trkpt lat="43.1452144" lon="12.8273392"><ele>873.0</ele><time>2026-04-25T13:47:30.321Z</time></trkpt><trkpt lat="43.145119" lon="12.8272298"><ele>873.0</ele><time>2026-04-25T13:47:31.327Z</time></trkpt><trkpt lat="43.1450282" lon="12.8271459"><ele>873.0</ele><time>2026-04-25T13:47:32.33Z</time></trkpt><trkpt lat="43.1449395" lon="12.8271118"><ele>873.0</ele><time>2026-04-25T13:47:33.33Z</time></trkpt><trkpt lat="43.1448582" lon="12.8271385"><ele>873.0</ele><time>2026-04-25T13:47:34.331Z</time></trkpt><trkpt lat="43.1447928" lon="12.8272191"><ele>873.0</ele><time>2026-04-25T13:47:35.33Z</time></trkpt><trkpt lat="43.1447453" lon="12.8273578"><ele>873.0</ele><time>2026-04-25T13:47:36.331Z</time></trkpt><trkpt lat="43.1447074" lon="12.8275358"><ele>873.6666666666667</ele><time>2026-04-25T13:47:37.324Z</time></trkpt><trkpt lat="43.1446763" lon="12.8277427"><ele>874.3333333333334</ele><time>2026-04-25T13:47:38.328Z</time></trkpt><trkpt lat="43.1446407" lon="12.8279561"><ele>875.0</ele><time>2026-04-25T13:47:39.323Z</time></trkpt><trkpt lat="43.1446008" lon="12.8281501"><ele>875.0</ele><time>2026-04-25T13:47:40.331Z</time></trkpt><trkpt lat="43.1445557" lon="12.8283107"><ele>875.0</ele><time>2026-04-25T13:47:41.33Z</time></trkpt><trkpt lat="43.1445041" lon="12.8284337"><ele>875.0</ele><time>2026-04-25T13:47:42.331Z</time></trkpt><trkpt lat="43.1444353" lon="12.8284972"><ele>875.0</ele><time>2026-04-25T13:47:43.32Z</time></trkpt><trkpt lat="43.1443304" lon="12.8284795"><ele>875.0</ele><time>2026-04-25T13:47:44.323Z</time></trkpt><trkpt lat="43.1442136" lon="12.8284559"><ele>877.75</ele><time>2026-04-25T13:47:45.33Z</time></trkpt><trkpt lat="43.1440979" lon="12.8284917"><ele>880.5</ele><time>2026-04-25T13:47:46.334Z</time></trkpt><trkpt lat="43.1439793" lon="12.8285871"><ele>883.25</ele><time>2026-04-25T13:47:47.32Z</time></trkpt><trkpt lat="43.1438492" lon="12.8287123"><ele>886.0</ele><time>2026-04-25T13:47:48.334Z</time></trkpt><trkpt lat="43.1437186" lon="12.8288613"><ele>886.0</ele><time>2026-04-25T13:47:49.333Z</time></trkpt><trkpt lat="43.1436016" lon="12.8290056"><ele>886.0</ele><time>2026-04-25T13:47:50.333Z</time></trkpt><trkpt lat="43.1434914" lon="12.8291241"><ele>886.0</ele><time>2026-04-25T13:47:51.324Z</time></trkpt><trkpt lat="43.1433629" lon="12.8291981"><ele>886.0</ele><time>2026-04-25T13:47:52.328Z</time></trkpt><trkpt lat="43.1432211" lon="12.8292483"><ele>891.75</ele><time>2026-04-25T13:47:53.332Z</time></trkpt><trkpt lat="43.1430944" lon="12.8292834"><ele>897.5</ele><time>2026-04-25T13:47:54.333Z</time></trkpt><trkpt lat="43.1429868" lon="12.829284"><ele>903.25</ele><time>2026-04-25T13:47:55.332Z</time></trkpt><trkpt lat="43.1428804" lon="12.8292402"><ele>909.0</ele><time>2026-04-25T13:47:56.322Z</time></trkpt><trkpt lat="43.1427838" lon="12.8291455"><ele>909.0</ele><time>2026-04-25T13:47:57.321Z</time></trkpt><trkpt lat="43.1426874" lon="12.8290047"><ele>909.0</ele><time>2026-04-25T13:47:58.322Z</time></trkpt><trkpt lat="43.1426052" lon="12.828829"><ele>909.0</ele><time>2026-04-25T13:47:59.321Z</time></trkpt><trkpt lat="43.1425453" lon="12.8286297"><ele>910.5</ele><time>2026-04-25T13:48:00.319Z</time></trkpt><trkpt lat="43.1425028" lon="12.8284457"><ele>912.0</ele><time>2026-04-25T13:48:01.327Z</time></trkpt><trkpt lat="43.142471" lon="12.8282769"><ele>913.5</ele><time>2026-04-25T13:48:02.318Z</time></trkpt><trkpt lat="43.1424326" lon="12.8281197"><ele>915.0</ele><time>2026-04-25T13:48:03.319Z</time></trkpt><trkpt lat="43.1423484" lon="12.8279705"><ele>915.0</ele><time>2026-04-25T13:48:04.326Z</time></trkpt><trkpt lat="43.1422397" lon="12.8278408"><ele>915.0</ele><time>2026-04-25T13:48:05.319Z</time></trkpt><trkpt lat="43.1421274" lon="12.8277358"><ele>915.0</ele><time>2026-04-25T13:48:06.319Z</time></trkpt><trkpt lat="43.1420104" lon="12.8276671"><ele>915.0</ele><time>2026-04-25T13:48:07.327Z</time></trkpt><trkpt lat="43.1418819" lon="12.8276364"><ele>915.0</ele><time>2026-04-25T13:48:08.324Z</time></trkpt><trkpt lat="43.1417461" lon="12.8276359"><ele>915.0</ele><time>2026-04-25T13:48:09.327Z</time></trkpt><trkpt lat="43.1416085" lon="12.8276536"><ele>915.0</ele><time>2026-04-25T13:48:10.324Z</time></trkpt><trkpt lat="43.1414821" lon="12.827694"><ele>915.0</ele><time>2026-04-25T13:48:11.333Z</time></trkpt><trkpt lat="43.1413663" lon="12.8277471"><ele>910.5</ele><time>2026-04-25T13:48:12.332Z</time></trkpt><trkpt lat="43.1412596" lon="12.8278093"><ele>906.0</ele><time>2026-04-25T13:48:13.33Z</time></trkpt><trkpt lat="43.1411725" lon="12.8279042"><ele>901.5</ele><time>2026-04-25T13:48:14.326Z</time></trkpt><trkpt lat="43.1411055" lon="12.8280483"><ele>897.0</ele><time>2026-04-25T13:48:15.327Z</time></trkpt><trkpt lat="43.1410573" lon="12.8282253"><ele>897.0</ele><time>2026-04-25T13:48:16.332Z</time></trkpt><trkpt lat="43.1410193" lon="12.8284192"><ele>897.0</ele><time>2026-04-25T13:48:17.324Z</time></trkpt><trkpt lat="43.1409815" lon="12.8286191"><ele>897.0</ele><time>2026-04-25T13:48:18.322Z</time></trkpt><trkpt lat="43.1409442" lon="12.8288228"><ele>903.3333333333333</ele><time>2026-04-25T13:48:19.331Z</time></trkpt><trkpt lat="43.1409041" lon="12.8290387"><ele>909.6666666666666</ele><time>2026-04-25T13:48:20.331Z</time></trkpt><trkpt lat="43.1408729" lon="12.8292511"><ele>916.0</ele><time>2026-04-25T13:48:21.334Z</time></trkpt><trkpt lat="43.1408541" lon="12.8294381"><ele>916.3333333333333</ele><time>2026-04-25T13:48:22.325Z</time></trkpt><trkpt lat="43.1408353" lon="12.8295939"><ele>916.6666666666666</ele><time>2026-04-25T13:48:23.329Z</time></trkpt><trkpt lat="43.1408058" lon="12.8297229"><ele>917.0</ele><time>2026-04-25T13:48:24.323Z</time></trkpt><trkpt lat="43.1407607" lon="12.8298188"><ele>917.3333333333333</ele><time>2026-04-25T13:48:25.328Z</time></trkpt><trkpt lat="43.140698" lon="12.8298455"><ele>917.6666666666666</ele><time>2026-04-25T13:48:26.324Z</time></trkpt><trkpt lat="43.1406239" lon="12.8298017"><ele>918.0</ele><time>2026-04-25T13:48:27.328Z</time></trkpt><trkpt lat="43.1405451" lon="12.8297269"><ele>918.0</ele><time>2026-04-25T13:48:28.319Z</time></trkpt><trkpt lat="43.1404566" lon="12.82967"><ele>918.0</ele><time>2026-04-25T13:48:29.332Z</time></trkpt><trkpt lat="43.1403633" lon="12.8296706"><ele>918.0</ele><time>2026-04-25T13:48:30.326Z</time></trkpt><trkpt lat="43.1402665" lon="12.8297368"><ele>918.0</ele><time>2026-04-25T13:48:31.329Z</time></trkpt><trkpt lat="43.1401741" lon="12.8298413"><ele>918.0</ele><time>2026-04-25T13:48:32.329Z</time></trkpt><trkpt lat="43.1400891" lon="12.8299772"><ele>918.0</ele><time>2026-04-25T13:48:33.324Z</time></trkpt><trkpt lat="43.1400081" lon="12.8301413"><ele>918.0</ele><time>2026-04-25T13:48:34.329Z</time></trkpt><trkpt lat="43.1399306" lon="12.8303194"><ele>918.0</ele><time>2026-04-25T13:48:35.318Z</time></trkpt><trkpt lat="43.1398497" lon="12.8304989"><ele>922.6666666666667</ele><time>2026-04-25T13:48:36.321Z</time></trkpt><trkpt lat="43.1397608" lon="12.8306794"><ele>927.3333333333334</ele><time>2026-04-25T13:48:37.319Z</time></trkpt><trkpt lat="43.1396614" lon="12.8308374"><ele>932.0</ele><time>2026-04-25T13:48:38.328Z</time></trkpt><trkpt lat="43.1395379" lon="12.8309576"><ele>944.0</ele><time>2026-04-25T13:48:39.322Z</time></trkpt><trkpt lat="43.1394001" lon="12.8310404"><ele>956.0</ele><time>2026-04-25T13:48:40.317Z</time></trkpt><trkpt lat="43.1392555" lon="12.8310956"><ele>968.0</ele><time>2026-04-25T13:48:41.318Z</time></trkpt><trkpt lat="43.1390986" lon="12.8311271"><ele>967.3333333333334</ele><time>2026-04-25T13:48:42.325Z</time></trkpt><trkpt lat="43.1389392" lon="12.8311314"><ele>966.6666666666667</ele><time>2026-04-25T13:48:43.322Z</time></trkpt><trkpt lat="43.1387685" lon="12.8311245"><ele>966.0</ele><time>2026-04-25T13:48:44.325Z</time></trkpt><trkpt lat="43.1385883" lon="12.8311258"><ele>966.0</ele><time>2026-04-25T13:48:45.317Z</time></trkpt><trkpt lat="43.1384016" lon="12.8311438"><ele>966.0</ele><time>2026-04-25T13:48:46.317Z</time></trkpt><trkpt lat="43.1382167" lon="12.8311594"><ele>966.0</ele><time>2026-04-25T13:48:47.319Z</time></trkpt><trkpt lat="43.138028" lon="12.8311581"><ele>964.3333333333333</ele><time>2026-04-25T13:48:48.323Z</time></trkpt><trkpt lat="43.1378366" lon="12.8311379"><ele>962.6666666666666</ele><time>2026-04-25T13:48:49.333Z</time></trkpt><trkpt lat="43.1376501" lon="12.8311059"><ele>961.0</ele><time>2026-04-25T13:48:50.321Z</time></trkpt><trkpt lat="43.1374785" lon="12.8310704"><ele>960.5</ele><time>2026-04-25T13:48:51.34Z</time></trkpt><trkpt lat="43.1373242" lon="12.8310318"><ele>960.0</ele><time>2026-04-25T13:48:52.337Z</time></trkpt><trkpt lat="43.1371862" lon="12.8309962"><ele>959.5</ele><time>2026-04-25T13:48:53.337Z</time></trkpt><trkpt lat="43.1370615" lon="12.8309634"><ele>959.0</ele><time>2026-04-25T13:48:54.33Z</time></trkpt><trkpt lat="43.1369455" lon="12.8309284"><ele>956.75</ele><time>2026-04-25T13:48:55.331Z</time></trkpt><trkpt lat="43.1368342" lon="12.8308826"><ele>954.5</ele><time>2026-04-25T13:48:56.33Z</time></trkpt><trkpt lat="43.1367263" lon="12.8308197"><ele>952.25</ele><time>2026-04-25T13:48:57.327Z</time></trkpt><trkpt lat="43.1366229" lon="12.8307434"><ele>950.0</ele><time>2026-04-25T13:48:58.323Z</time></trkpt><trkpt lat="43.1365281" lon="12.8306668"><ele>949.0000000000001</ele><time>2026-04-25T13:48:59.326Z</time></trkpt><trkpt lat="43.1364419" lon="12.8305943"><ele>948.0</ele><time>2026-04-25T13:49:00.326Z</time></trkpt><trkpt lat="43.1363664" lon="12.830521"><ele>947.0</ele><time>2026-04-25T13:49:01.331Z</time></trkpt><trkpt lat="43.1363012" lon="12.8304458"><ele>946.0</ele><time>2026-04-25T13:49:02.32Z</time></trkpt><trkpt lat="43.1362411" lon="12.8303757"><ele>945.0000000000001</ele><time>2026-04-25T13:49:03.33Z</time></trkpt><trkpt lat="43.1361837" lon="12.8303069"><ele>944.0</ele><time>2026-04-25T13:49:04.329Z</time></trkpt><trkpt lat="43.1361265" lon="12.8302355"><ele>944.0000000000001</ele><time>2026-04-25T13:49:05.321Z</time></trkpt><trkpt lat="43.1360756" lon="12.8301582"><ele>944.0</ele><time>2026-04-25T13:49:06.331Z</time></trkpt><trkpt lat="43.1360322" lon="12.830078"><ele>944.0</ele><time>2026-04-25T13:49:07.33Z</time></trkpt><trkpt lat="43.1359932" lon="12.8299973"><ele>944.0</ele><time>2026-04-25T13:49:08.331Z</time></trkpt><trkpt lat="43.135959" lon="12.8299228"><ele>944.0000000000001</ele><time>2026-04-25T13:49:09.324Z</time></trkpt><trkpt lat="43.1359003" lon="12.8298108"><ele>944.0</ele><time>2026-04-25T13:49:11.333Z</time></trkpt><trkpt lat="43.135835" lon="12.8297953"><ele>944.0</ele><time>2026-04-25T13:49:13.32Z</time></trkpt><trkpt lat="43.1357858" lon="12.829917"><ele>944.0000000000001</ele><time>2026-04-25T13:49:16.328Z</time></trkpt><trkpt lat="43.1357694" lon="12.8300903"><ele>944.0000000000001</ele><time>2026-04-25T13:49:18.327Z</time></trkpt><trkpt lat="43.1357544" lon="12.8301918"><ele>944.0</ele><time>2026-04-25T13:49:19.322Z</time></trkpt><trkpt lat="43.1357388" lon="12.8302982"><ele>944.0</ele><time>2026-04-25T13:49:20.323Z</time></trkpt><trkpt lat="43.1357271" lon="12.8304119"><ele>942.8000000000001</ele><time>2026-04-25T13:49:21.33Z</time></trkpt><trkpt lat="43.1357192" lon="12.8305388"><ele>941.6000000000001</ele><time>2026-04-25T13:49:22.333Z</time></trkpt><trkpt lat="43.1357154" lon="12.8306787"><ele>940.4</ele><time>2026-04-25T13:49:23.332Z</time></trkpt><trkpt lat="43.1357166" lon="12.8308197"><ele>939.2</ele><time>2026-04-25T13:49:24.33Z</time></trkpt><trkpt lat="43.1357142" lon="12.8309595"><ele>938.0</ele><time>2026-04-25T13:49:25.329Z</time></trkpt><trkpt lat="43.135694" lon="12.8310954"><ele>938.0</ele><time>2026-04-25T13:49:26.329Z</time></trkpt><trkpt lat="43.135651" lon="12.8312252"><ele>938.0</ele><time>2026-04-25T13:49:27.328Z</time></trkpt><trkpt lat="43.1355889" lon="12.831341"><ele>938.0</ele><time>2026-04-25T13:49:28.333Z</time></trkpt><trkpt lat="43.1355173" lon="12.8314465"><ele>938.0</ele><time>2026-04-25T13:49:29.321Z</time></trkpt><trkpt lat="43.1354362" lon="12.8315395"><ele>938.0</ele><time>2026-04-25T13:49:30.324Z</time></trkpt><trkpt lat="43.1353426" lon="12.8316131"><ele>938.0</ele><time>2026-04-25T13:49:31.323Z</time></trkpt><trkpt lat="43.1352395" lon="12.8316626"><ele>938.0</ele><time>2026-04-25T13:49:32.33Z</time></trkpt><trkpt lat="43.1351365" lon="12.8316959"><ele>938.0</ele><time>2026-04-25T13:49:33.325Z</time></trkpt><trkpt lat="43.1350342" lon="12.8317422"><ele>938.0</ele><time>2026-04-25T13:49:34.332Z</time></trkpt><trkpt lat="43.1349364" lon="12.8318037"><ele>938.0</ele><time>2026-04-25T13:49:35.32Z</time></trkpt><trkpt lat="43.1348448" lon="12.8318855"><ele>937.75</ele><time>2026-04-25T13:49:36.323Z</time></trkpt><trkpt lat="43.134756" lon="12.8319786"><ele>937.5</ele><time>2026-04-25T13:49:37.33Z</time></trkpt><trkpt lat="43.1346668" lon="12.832077"><ele>937.25</ele><time>2026-04-25T13:49:38.325Z</time></trkpt><trkpt lat="43.1345771" lon="12.8321771"><ele>937.0</ele><time>2026-04-25T13:49:39.331Z</time></trkpt><trkpt lat="43.1344832" lon="12.8322706"><ele>937.0</ele><time>2026-04-25T13:49:40.321Z</time></trkpt><trkpt lat="43.1343847" lon="12.8323555"><ele>937.0</ele><time>2026-04-25T13:49:41.326Z</time></trkpt><trkpt lat="43.1342879" lon="12.8324243"><ele>937.0</ele><time>2026-04-25T13:49:42.325Z</time></trkpt><trkpt lat="43.1341964" lon="12.8324696"><ele>937.0</ele><time>2026-04-25T13:49:43.328Z</time></trkpt><trkpt lat="43.1341155" lon="12.8324997"><ele>937.0</ele><time>2026-04-25T13:49:44.321Z</time></trkpt><trkpt lat="43.1340423" lon="12.8325288"><ele>937.1666666666666</ele><time>2026-04-25T13:49:45.331Z</time></trkpt><trkpt lat="43.1339793" lon="12.8325535"><ele>937.3333333333333</ele><time>2026-04-25T13:49:46.33Z</time></trkpt><trkpt lat="43.133918" lon="12.8325819"><ele>937.5</ele><time>2026-04-25T13:49:47.327Z</time></trkpt><trkpt lat="43.1338559" lon="12.8326192"><ele>937.6666666666667</ele><time>2026-04-25T13:49:48.327Z</time></trkpt><trkpt lat="43.1337888" lon="12.832672"><ele>937.8333333333334</ele><time>2026-04-25T13:49:49.325Z</time></trkpt><trkpt lat="43.1337111" lon="12.8327417"><ele>938.0</ele><time>2026-04-25T13:49:50.318Z</time></trkpt><trkpt lat="43.1336222" lon="12.8328271"><ele>938.4</ele><time>2026-04-25T13:49:51.318Z</time></trkpt><trkpt lat="43.1335349" lon="12.8329141"><ele>938.8</ele><time>2026-04-25T13:49:52.327Z</time></trkpt><trkpt lat="43.133453" lon="12.833007"><ele>939.2</ele><time>2026-04-25T13:49:53.33Z</time></trkpt><trkpt lat="43.133374" lon="12.8331086"><ele>939.6</ele><time>2026-04-25T13:49:54.33Z</time></trkpt><trkpt lat="43.1332976" lon="12.8332118"><ele>940.0</ele><time>2026-04-25T13:49:55.331Z</time></trkpt><trkpt lat="43.1332233" lon="12.8333136"><ele>940.6</ele><time>2026-04-25T13:49:56.324Z</time></trkpt><trkpt lat="43.1331491" lon="12.8334199"><ele>941.2</ele><time>2026-04-25T13:49:57.326Z</time></trkpt><trkpt lat="43.1330737" lon="12.8335267"><ele>941.8</ele><time>2026-04-25T13:49:58.32Z</time></trkpt><trkpt lat="43.1329965" lon="12.8336364"><ele>942.4</ele><time>2026-04-25T13:49:59.326Z</time></trkpt><trkpt lat="43.13291" lon="12.8337437"><ele>943.0</ele><time>2026-04-25T13:50:00.322Z</time></trkpt><trkpt lat="43.1328146" lon="12.8338434"><ele>943.4</ele><time>2026-04-25T13:50:01.33Z</time></trkpt><trkpt lat="43.1327184" lon="12.8339307"><ele>943.8</ele><time>2026-04-25T13:50:02.326Z</time></trkpt><trkpt lat="43.1326235" lon="12.8340098"><ele>944.2</ele><time>2026-04-25T13:50:03.326Z</time></trkpt><trkpt lat="43.1325358" lon="12.8340775"><ele>944.6</ele><time>2026-04-25T13:50:04.327Z</time></trkpt><trkpt lat="43.1324547" lon="12.8341401"><ele>945.0</ele><time>2026-04-25T13:50:05.331Z</time></trkpt><trkpt lat="43.1323739" lon="12.8342009"><ele>946.0</ele><time>2026-04-25T13:50:06.326Z</time></trkpt><trkpt lat="43.1322911" lon="12.8342601"><ele>947.0</ele><time>2026-04-25T13:50:07.33Z</time></trkpt><trkpt lat="43.132208" lon="12.8343194"><ele>948.0</ele><time>2026-04-25T13:50:08.317Z</time></trkpt><trkpt lat="43.1321269" lon="12.8343769"><ele>949.0</ele><time>2026-04-25T13:50:09.328Z</time></trkpt><trkpt lat="43.1320466" lon="12.8344342"><ele>950.0</ele><time>2026-04-25T13:50:10.327Z</time></trkpt><trkpt lat="43.1319675" lon="12.8344929"><ele>950.0</ele><time>2026-04-25T13:50:11.33Z</time></trkpt><trkpt lat="43.1318883" lon="12.8345533"><ele>950.0</ele><time>2026-04-25T13:50:12.328Z</time></trkpt><trkpt lat="43.1318067" lon="12.8346147"><ele>950.0</ele><time>2026-04-25T13:50:13.331Z</time></trkpt><trkpt lat="43.1317251" lon="12.8346749"><ele>950.0</ele><time>2026-04-25T13:50:14.328Z</time></trkpt><trkpt lat="43.1316417" lon="12.834735"><ele>950.0</ele><time>2026-04-25T13:50:15.327Z</time></trkpt><trkpt lat="43.1315539" lon="12.8347883"><ele>950.6</ele><time>2026-04-25T13:50:16.321Z</time></trkpt><trkpt lat="43.1314627" lon="12.8348328"><ele>951.2</ele><time>2026-04-25T13:50:17.338Z</time></trkpt><trkpt lat="43.1313694" lon="12.8348651"><ele>951.8</ele><time>2026-04-25T13:50:18.339Z</time></trkpt><trkpt lat="43.1312731" lon="12.8348831"><ele>952.4</ele><time>2026-04-25T13:50:19.34Z</time></trkpt><trkpt lat="43.1311697" lon="12.834887"><ele>953.0</ele><time>2026-04-25T13:50:20.325Z</time></trkpt><trkpt lat="43.1310603" lon="12.8348817"><ele>953.0</ele><time>2026-04-25T13:50:21.345Z</time></trkpt><trkpt lat="43.1309488" lon="12.8348756"><ele>953.0</ele><time>2026-04-25T13:50:22.342Z</time></trkpt><trkpt lat="43.1308388" lon="12.8348768"><ele>953.0</ele><time>2026-04-25T13:50:23.343Z</time></trkpt><trkpt lat="43.130729" lon="12.834892"><ele>953.0</ele><time>2026-04-25T13:50:24.345Z</time></trkpt><trkpt lat="43.1306133" lon="12.8349372"><ele>952.0</ele><time>2026-04-25T13:50:25.33Z</time></trkpt><trkpt lat="43.1304765" lon="12.8350228"><ele>951.0</ele><time>2026-04-25T13:50:26.322Z</time></trkpt><trkpt lat="43.1303418" lon="12.8351274"><ele>950.0</ele><time>2026-04-25T13:50:27.32Z</time></trkpt><trkpt lat="43.1302186" lon="12.8352388"><ele>950.0</ele><time>2026-04-25T13:50:28.328Z</time></trkpt><trkpt lat="43.1301127" lon="12.8353287"><ele>950.0</ele><time>2026-04-25T13:50:29.332Z</time></trkpt><trkpt lat="43.1300119" lon="12.8353875"><ele>950.0</ele><time>2026-04-25T13:50:30.327Z</time></trkpt><trkpt lat="43.1299218" lon="12.8354005"><ele>950.0</ele><time>2026-04-25T13:50:31.318Z</time></trkpt><trkpt lat="43.1298362" lon="12.8353897"><ele>950.0</ele><time>2026-04-25T13:50:32.324Z</time></trkpt><trkpt lat="43.1297526" lon="12.8353683"><ele>951.8</ele><time>2026-04-25T13:50:33.33Z</time></trkpt><trkpt lat="43.1296585" lon="12.8353536"><ele>953.6</ele><time>2026-04-25T13:50:34.324Z</time></trkpt><trkpt lat="43.1295528" lon="12.8353482"><ele>955.4000000000001</ele><time>2026-04-25T13:50:35.332Z</time></trkpt><trkpt lat="43.1294431" lon="12.8353835"><ele>957.2</ele><time>2026-04-25T13:50:36.327Z</time></trkpt><trkpt lat="43.1293352" lon="12.8354345"><ele>959.0</ele><time>2026-04-25T13:50:37.322Z</time></trkpt><trkpt lat="43.1292337" lon="12.8354984"><ele>959.0</ele><time>2026-04-25T13:50:38.326Z</time></trkpt><trkpt lat="43.1291394" lon="12.8355606"><ele>959.0000000000001</ele><time>2026-04-25T13:50:39.324Z</time></trkpt><trkpt lat="43.1290445" lon="12.8356176"><ele>959.0000000000001</ele><time>2026-04-25T13:50:40.328Z</time></trkpt><trkpt lat="43.128942" lon="12.8356671"><ele>959.0</ele><time>2026-04-25T13:50:41.328Z</time></trkpt><trkpt lat="43.1288406" lon="12.8357107"><ele>959.0</ele><time>2026-04-25T13:50:42.331Z</time></trkpt><trkpt lat="43.128749" lon="12.8357489"><ele>959.0</ele><time>2026-04-25T13:50:43.334Z</time></trkpt><trkpt lat="43.1286623" lon="12.8357693"><ele>959.0000000000001</ele><time>2026-04-25T13:50:44.335Z</time></trkpt><trkpt lat="43.1285801" lon="12.835759"><ele>959.0000000000001</ele><time>2026-04-25T13:50:45.332Z</time></trkpt><trkpt lat="43.128496" lon="12.8357187"><ele>959.0</ele><time>2026-04-25T13:50:46.32Z</time></trkpt><trkpt lat="43.1284001" lon="12.8356513"><ele>959.0</ele><time>2026-04-25T13:50:47.329Z</time></trkpt><trkpt lat="43.1283033" lon="12.8355693"><ele>959.0</ele><time>2026-04-25T13:50:48.323Z</time></trkpt><trkpt lat="43.1282221" lon="12.8354778"><ele>959.0000000000001</ele><time>2026-04-25T13:50:49.329Z</time></trkpt><trkpt lat="43.1281548" lon="12.8353794"><ele>959.0000000000001</ele><time>2026-04-25T13:50:50.329Z</time></trkpt><trkpt lat="43.1281001" lon="12.8352748"><ele>959.0</ele><time>2026-04-25T13:50:51.33Z</time></trkpt><trkpt lat="43.1280601" lon="12.8351711"><ele>959.0</ele><time>2026-04-25T13:50:52.325Z</time></trkpt><trkpt lat="43.1280312" lon="12.8350801"><ele>959.0000000000001</ele><time>2026-04-25T13:50:53.325Z</time></trkpt><trkpt lat="43.127988" lon="12.8349175"><ele>959.0</ele><time>2026-04-25T13:50:55.326Z</time></trkpt><trkpt lat="43.1279647" lon="12.8348298"><ele>959.0</ele><time>2026-04-25T13:50:56.329Z</time></trkpt><trkpt lat="43.1279391" lon="12.8347407"><ele>959.0</ele><time>2026-04-25T13:50:57.326Z</time></trkpt><trkpt lat="43.1279148" lon="12.8346404"><ele>959.0000000000001</ele><time>2026-04-25T13:50:58.329Z</time></trkpt><trkpt lat="43.1278894" lon="12.8345379"><ele>959.0</ele><time>2026-04-25T13:50:59.331Z</time></trkpt><trkpt lat="43.1278622" lon="12.8344368"><ele>959.0</ele><time>2026-04-25T13:51:00.331Z</time></trkpt><trkpt lat="43.1278272" lon="12.8343286"><ele>959.0000000000001</ele><time>2026-04-25T13:51:01.328Z</time></trkpt><trkpt lat="43.1277835" lon="12.8342041"><ele>959.0000000000001</ele><time>2026-04-25T13:51:02.329Z</time></trkpt><trkpt lat="43.1277321" lon="12.8340653"><ele>959.0</ele><time>2026-04-25T13:51:03.329Z</time></trkpt><trkpt lat="43.1276714" lon="12.8339244"><ele>959.0</ele><time>2026-04-25T13:51:04.32Z</time></trkpt><trkpt lat="43.1276011" lon="12.8337952"><ele>958.2</ele><time>2026-04-25T13:51:05.321Z</time></trkpt><trkpt lat="43.1275213" lon="12.833681"><ele>957.4000000000001</ele><time>2026-04-25T13:51:06.332Z</time></trkpt><trkpt lat="43.1274398" lon="12.8335852"><ele>956.6</ele><time>2026-04-25T13:51:07.329Z</time></trkpt><trkpt lat="43.1273593" lon="12.8334942"><ele>955.8</ele><time>2026-04-25T13:51:08.329Z</time></trkpt><trkpt lat="43.1272827" lon="12.8334046"><ele>955.0</ele><time>2026-04-25T13:51:09.32Z</time></trkpt><trkpt lat="43.127205" lon="12.833318"><ele>952.0</ele><time>2026-04-25T13:51:10.33Z</time></trkpt><trkpt lat="43.127131" lon="12.8332314"><ele>949.0</ele><time>2026-04-25T13:51:11.333Z</time></trkpt><trkpt lat="43.1270669" lon="12.8331389"><ele>946.0</ele><time>2026-04-25T13:51:12.333Z</time></trkpt><trkpt lat="43.1270139" lon="12.8330368"><ele>943.0</ele><time>2026-04-25T13:51:13.329Z</time></trkpt><trkpt lat="43.12697" lon="12.8329244"><ele>940.0</ele><time>2026-04-25T13:51:14.322Z</time></trkpt><trkpt lat="43.1269307" lon="12.8328076"><ele>939.9999999999999</ele><time>2026-04-25T13:51:15.329Z</time></trkpt><trkpt lat="43.1269012" lon="12.8326843"><ele>940.0</ele><time>2026-04-25T13:51:16.331Z</time></trkpt><trkpt lat="43.1268789" lon="12.8325661"><ele>940.0</ele><time>2026-04-25T13:51:17.319Z</time></trkpt><trkpt lat="43.126862" lon="12.8324544"><ele>940.0</ele><time>2026-04-25T13:51:18.329Z</time></trkpt><trkpt lat="43.1268521" lon="12.8323416"><ele>939.9999999999999</ele><time>2026-04-25T13:51:19.332Z</time></trkpt><trkpt lat="43.1268492" lon="12.8322252"><ele>940.0</ele><time>2026-04-25T13:51:20.33Z</time></trkpt><trkpt lat="43.1268493" lon="12.8321093"><ele>938.4999999999999</ele><time>2026-04-25T13:51:21.327Z</time></trkpt><trkpt lat="43.1268495" lon="12.831992"><ele>937.0</ele><time>2026-04-25T13:51:22.334Z</time></trkpt><trkpt lat="43.1268466" lon="12.8318693"><ele>935.5</ele><time>2026-04-25T13:51:23.331Z</time></trkpt><trkpt lat="43.1268366" lon="12.8317448"><ele>934.0</ele><time>2026-04-25T13:51:24.334Z</time></trkpt><trkpt lat="43.1268208" lon="12.8316208"><ele>932.4999999999999</ele><time>2026-04-25T13:51:25.33Z</time></trkpt><trkpt lat="43.1267997" lon="12.8315014"><ele>931.0</ele><time>2026-04-25T13:51:26.331Z</time></trkpt><trkpt lat="43.1267788" lon="12.8313966"><ele>929.9999999999999</ele><time>2026-04-25T13:51:27.319Z</time></trkpt><trkpt lat="43.1267601" lon="12.8313055"><ele>929.0</ele><time>2026-04-25T13:51:28.322Z</time></trkpt><trkpt lat="43.1267421" lon="12.8312218"><ele>928.0</ele><time>2026-04-25T13:51:29.329Z</time></trkpt><trkpt lat="43.1267269" lon="12.8310489"><ele>927.0</ele><time>2026-04-25T13:51:31.316Z</time></trkpt><trkpt lat="43.1267317" lon="12.8309551"><ele>925.9999999999999</ele><time>2026-04-25T13:51:32.329Z</time></trkpt><trkpt lat="43.1267483" lon="12.8308584"><ele>925.0</ele><time>2026-04-25T13:51:33.329Z</time></trkpt><trkpt lat="43.1267754" lon="12.8307633"><ele>923.7142857142858</ele><time>2026-04-25T13:51:34.322Z</time></trkpt><trkpt lat="43.1268048" lon="12.830676"><ele>922.4285714285713</ele><time>2026-04-25T13:51:35.323Z</time></trkpt><trkpt lat="43.1268361" lon="12.8305988"><ele>921.1428571428571</ele><time>2026-04-25T13:51:36.323Z</time></trkpt><trkpt lat="43.1268722" lon="12.8305275"><ele>919.8571428571429</ele><time>2026-04-25T13:51:37.322Z</time></trkpt><trkpt lat="43.1269176" lon="12.8304546"><ele>918.5714285714287</ele><time>2026-04-25T13:51:38.33Z</time></trkpt><trkpt lat="43.126967" lon="12.8303794"><ele>917.2857142857142</ele><time>2026-04-25T13:51:39.326Z</time></trkpt><trkpt lat="43.1270154" lon="12.8303064"><ele>916.0</ele><time>2026-04-25T13:51:40.33Z</time></trkpt><trkpt lat="43.1270659" lon="12.8302293"><ele>915.9999999999999</ele><time>2026-04-25T13:51:41.329Z</time></trkpt><trkpt lat="43.1271214" lon="12.830144"><ele>916.0</ele><time>2026-04-25T13:51:42.333Z</time></trkpt><trkpt lat="43.1271817" lon="12.8300506"><ele>916.0</ele><time>2026-04-25T13:51:43.321Z</time></trkpt><trkpt lat="43.1272424" lon="12.8299567"><ele>916.0</ele><time>2026-04-25T13:51:44.318Z</time></trkpt><trkpt lat="43.1273036" lon="12.8298689"><ele>915.9999999999999</ele><time>2026-04-25T13:51:45.32Z</time></trkpt><trkpt lat="43.1273687" lon="12.8297894"><ele>916.0</ele><time>2026-04-25T13:51:46.327Z</time></trkpt><trkpt lat="43.12744" lon="12.8297157"><ele>915.5999999999999</ele><time>2026-04-25T13:51:47.328Z</time></trkpt><trkpt lat="43.1275119" lon="12.8296435"><ele>915.1999999999999</ele><time>2026-04-25T13:51:48.327Z</time></trkpt><trkpt lat="43.1275826" lon="12.8295692"><ele>914.8000000000001</ele><time>2026-04-25T13:51:49.327Z</time></trkpt><trkpt lat="43.1276623" lon="12.8294929"><ele>914.4000000000001</ele><time>2026-04-25T13:51:50.33Z</time></trkpt><trkpt lat="43.1277443" lon="12.8294161"><ele>914.0</ele><time>2026-04-25T13:51:51.33Z</time></trkpt><trkpt lat="43.1278247" lon="12.8293411"><ele>911.6666666666667</ele><time>2026-04-25T13:51:52.33Z</time></trkpt><trkpt lat="43.1279035" lon="12.8292704"><ele>909.3333333333334</ele><time>2026-04-25T13:51:53.329Z</time></trkpt><trkpt lat="43.1279809" lon="12.8292121"><ele>907.0</ele><time>2026-04-25T13:51:54.318Z</time></trkpt><trkpt lat="43.128058" lon="12.8291666"><ele>904.6666666666667</ele><time>2026-04-25T13:51:55.327Z</time></trkpt><trkpt lat="43.1281361" lon="12.8291295"><ele>902.3333333333334</ele><time>2026-04-25T13:51:56.321Z</time></trkpt><trkpt lat="43.1282086" lon="12.8291025"><ele>900.0</ele><time>2026-04-25T13:51:57.328Z</time></trkpt><trkpt lat="43.1282755" lon="12.8290885"><ele>900.0</ele><time>2026-04-25T13:51:58.332Z</time></trkpt><trkpt lat="43.1283429" lon="12.8290832"><ele>900.0</ele><time>2026-04-25T13:51:59.321Z</time></trkpt><trkpt lat="43.128406" lon="12.8290853"><ele>900.0</ele><time>2026-04-25T13:52:00.328Z</time></trkpt><trkpt lat="43.1285225" lon="12.8290746"><ele>900.0</ele><time>2026-04-25T13:52:02.328Z</time></trkpt><trkpt lat="43.1285844" lon="12.8290114"><ele>900.0</ele><time>2026-04-25T13:52:04.322Z</time></trkpt><trkpt lat="43.1285659" lon="12.8289137"><ele>900.0</ele><time>2026-04-25T13:52:06.327Z</time></trkpt><trkpt lat="43.1285046" lon="12.8288325"><ele>900.0</ele><time>2026-04-25T13:52:08.329Z</time></trkpt><trkpt lat="43.1284341" lon="12.8287922"><ele>900.0</ele><time>2026-04-25T13:52:10.326Z</time></trkpt><trkpt lat="43.1283303" lon="12.8287399"><ele>900.0</ele><time>2026-04-25T13:52:12.322Z</time></trkpt><trkpt lat="43.1282668" lon="12.8287018"><ele>900.0</ele><time>2026-04-25T13:52:13.33Z</time></trkpt><trkpt lat="43.1282" lon="12.8286591"><ele>900.0</ele><time>2026-04-25T13:52:14.327Z</time></trkpt><trkpt lat="43.1281336" lon="12.8286114"><ele>900.0</ele><time>2026-04-25T13:52:15.327Z</time></trkpt><trkpt lat="43.1280658" lon="12.8285693"><ele>898.8333333333334</ele><time>2026-04-25T13:52:16.326Z</time></trkpt><trkpt lat="43.127996" lon="12.828529"><ele>897.6666666666667</ele><time>2026-04-25T13:52:17.322Z</time></trkpt><trkpt lat="43.1279214" lon="12.8284899"><ele>896.5</ele><time>2026-04-25T13:52:18.321Z</time></trkpt><trkpt lat="43.1278436" lon="12.8284557"><ele>895.3333333333334</ele><time>2026-04-25T13:52:19.326Z</time></trkpt><trkpt lat="43.1277624" lon="12.8284239"><ele>894.1666666666667</ele><time>2026-04-25T13:52:20.328Z</time></trkpt><trkpt lat="43.1276818" lon="12.8283956"><ele>893.0</ele><time>2026-04-25T13:52:21.318Z</time></trkpt><trkpt lat="43.1276057" lon="12.8283737"><ele>888.3333333333334</ele><time>2026-04-25T13:52:22.326Z</time></trkpt><trkpt lat="43.1275303" lon="12.8283554"><ele>883.6666666666667</ele><time>2026-04-25T13:52:23.326Z</time></trkpt><trkpt lat="43.1274521" lon="12.8283333"><ele>879.0</ele><time>2026-04-25T13:52:24.317Z</time></trkpt><trkpt lat="43.1273713" lon="12.828314"><ele>874.3333333333333</ele><time>2026-04-25T13:52:25.323Z</time></trkpt><trkpt lat="43.1272872" lon="12.8283045"><ele>869.6666666666666</ele><time>2026-04-25T13:52:26.319Z</time></trkpt><trkpt lat="43.1271976" lon="12.8283033"><ele>865.0</ele><time>2026-04-25T13:52:27.328Z</time></trkpt><trkpt lat="43.1271027" lon="12.8283057"><ele>863.4</ele><time>2026-04-25T13:52:28.325Z</time></trkpt><trkpt lat="43.1270057" lon="12.8283069"><ele>861.8</ele><time>2026-04-25T13:52:29.318Z</time></trkpt><trkpt lat="43.1269095" lon="12.8283007"><ele>860.2</ele><time>2026-04-25T13:52:30.316Z</time></trkpt><trkpt lat="43.1268113" lon="12.8282885"><ele>858.6</ele><time>2026-04-25T13:52:31.32Z</time></trkpt><trkpt lat="43.1267087" lon="12.8282741"><ele>857.0</ele><time>2026-04-25T13:52:32.318Z</time></trkpt><trkpt lat="43.1266044" lon="12.8282623"><ele>855.8</ele><time>2026-04-25T13:52:33.322Z</time></trkpt><trkpt lat="43.1264999" lon="12.8282507"><ele>854.6</ele><time>2026-04-25T13:52:34.325Z</time></trkpt><trkpt lat="43.1263929" lon="12.8282377"><ele>853.4</ele><time>2026-04-25T13:52:35.329Z</time></trkpt><trkpt lat="43.1262871" lon="12.8282217"><ele>852.1999999999999</ele><time>2026-04-25T13:52:36.326Z</time></trkpt><trkpt lat="43.1261781" lon="12.8282002"><ele>851.0</ele><time>2026-04-25T13:52:37.323Z</time></trkpt><trkpt lat="43.1260643" lon="12.8281717"><ele>851.0</ele><time>2026-04-25T13:52:38.321Z</time></trkpt><trkpt lat="43.1259519" lon="12.8281398"><ele>851.0</ele><time>2026-04-25T13:52:39.32Z</time></trkpt><trkpt lat="43.1258445" lon="12.82811"><ele>851.0</ele><time>2026-04-25T13:52:40.317Z</time></trkpt><trkpt lat="43.1257414" lon="12.828081"><ele>851.0</ele><time>2026-04-25T13:52:41.318Z</time></trkpt><trkpt lat="43.1256349" lon="12.8280501"><ele>851.0</ele><time>2026-04-25T13:52:42.325Z</time></trkpt><trkpt lat="43.1255281" lon="12.8280204"><ele>848.0</ele><time>2026-04-25T13:52:43.325Z</time></trkpt><trkpt lat="43.1254258" lon="12.827993"><ele>845.0</ele><time>2026-04-25T13:52:44.327Z</time></trkpt><trkpt lat="43.1253304" lon="12.8279707"><ele>842.0</ele><time>2026-04-25T13:52:45.316Z</time></trkpt><trkpt lat="43.1252381" lon="12.8279491"><ele>839.0</ele><time>2026-04-25T13:52:46.32Z</time></trkpt><trkpt lat="43.125147" lon="12.8279337"><ele>836.0</ele><time>2026-04-25T13:52:47.331Z</time></trkpt><trkpt lat="43.1250587" lon="12.8279251"><ele>836.0000000000001</ele><time>2026-04-25T13:52:48.317Z</time></trkpt><trkpt lat="43.1249746" lon="12.8279252"><ele>836.0</ele><time>2026-04-25T13:52:49.322Z</time></trkpt><trkpt lat="43.1248939" lon="12.8279392"><ele>836.0</ele><time>2026-04-25T13:52:50.321Z</time></trkpt><trkpt lat="43.1248181" lon="12.8279754"><ele>836.0</ele><time>2026-04-25T13:52:51.324Z</time></trkpt><trkpt lat="43.1247484" lon="12.8280377"><ele>836.0000000000001</ele><time>2026-04-25T13:52:52.329Z</time></trkpt><trkpt lat="43.1246846" lon="12.8281207"><ele>836.0</ele><time>2026-04-25T13:52:53.325Z</time></trkpt><trkpt lat="43.124629" lon="12.8282213"><ele>830.5999999999999</ele><time>2026-04-25T13:52:54.327Z</time></trkpt><trkpt lat="43.1245827" lon="12.8283351"><ele>825.2</ele><time>2026-04-25T13:52:55.328Z</time></trkpt><trkpt lat="43.1245383" lon="12.8284606"><ele>819.8</ele><time>2026-04-25T13:52:56.324Z</time></trkpt><trkpt lat="43.1244932" lon="12.8285883"><ele>814.4000000000001</ele><time>2026-04-25T13:52:57.32Z</time></trkpt><trkpt lat="43.1244482" lon="12.8287215"><ele>809.0</ele><time>2026-04-25T13:52:58.324Z</time></trkpt><trkpt lat="43.1244057" lon="12.8288575"><ele>809.0</ele><time>2026-04-25T13:52:59.324Z</time></trkpt><trkpt lat="43.124371" lon="12.8289846"><ele>809.0</ele><time>2026-04-25T13:53:00.32Z</time></trkpt><trkpt lat="43.1243392" lon="12.8291088"><ele>809.0</ele><time>2026-04-25T13:53:01.326Z</time></trkpt><trkpt lat="43.1243113" lon="12.8292256"><ele>809.0</ele><time>2026-04-25T13:53:02.325Z</time></trkpt><trkpt lat="43.1242857" lon="12.8293399"><ele>809.0</ele><time>2026-04-25T13:53:03.328Z</time></trkpt><trkpt lat="43.1242562" lon="12.8294558"><ele>810.0000000000001</ele><time>2026-04-25T13:53:04.326Z</time></trkpt><trkpt lat="43.1242257" lon="12.8295643"><ele>811.0</ele><time>2026-04-25T13:53:05.316Z</time></trkpt><trkpt lat="43.1241995" lon="12.8296713"><ele>812.0</ele><time>2026-04-25T13:53:06.328Z</time></trkpt><trkpt lat="43.1241797" lon="12.8297825"><ele>813.0</ele><time>2026-04-25T13:53:07.326Z</time></trkpt><trkpt lat="43.1241655" lon="12.8299028"><ele>814.0000000000001</ele><time>2026-04-25T13:53:08.321Z</time></trkpt><trkpt lat="43.1241594" lon="12.8300233"><ele>815.0</ele><time>2026-04-25T13:53:09.328Z</time></trkpt><trkpt lat="43.1241602" lon="12.8301267"><ele>814.3333333333334</ele><time>2026-04-25T13:53:10.32Z</time></trkpt><trkpt lat="43.124158" lon="12.8302241"><ele>813.6666666666667</ele><time>2026-04-25T13:53:11.327Z</time></trkpt><trkpt lat="43.1241328" lon="12.8303628"><ele>813.0</ele><time>2026-04-25T13:53:13.32Z</time></trkpt><trkpt lat="43.1240377" lon="12.8303999"><ele>812.3333333333333</ele><time>2026-04-25T13:53:15.328Z</time></trkpt><trkpt lat="43.1239659" lon="12.830414"><ele>811.6666666666666</ele><time>2026-04-25T13:53:16.328Z</time></trkpt><trkpt lat="43.1238869" lon="12.8304382"><ele>811.0</ele><time>2026-04-25T13:53:17.316Z</time></trkpt><trkpt lat="43.123808" lon="12.8304832"><ele>811.0</ele><time>2026-04-25T13:53:18.318Z</time></trkpt><trkpt lat="43.1237289" lon="12.8305542"><ele>811.0</ele><time>2026-04-25T13:53:19.323Z</time></trkpt><trkpt lat="43.1236592" lon="12.8306519"><ele>811.0</ele><time>2026-04-25T13:53:20.32Z</time></trkpt><trkpt lat="43.1235917" lon="12.830776"><ele>811.0</ele><time>2026-04-25T13:53:21.32Z</time></trkpt><trkpt lat="43.1235223" lon="12.830919"><ele>811.0</ele><time>2026-04-25T13:53:22.326Z</time></trkpt><trkpt lat="43.1234406" lon="12.8310592"><ele>815.1999999999999</ele><time>2026-04-25T13:53:23.314Z</time></trkpt><trkpt lat="43.1233577" lon="12.8311793"><ele>819.4</ele><time>2026-04-25T13:53:24.32Z</time></trkpt><trkpt lat="43.123292" lon="12.8312794"><ele>823.6</ele><time>2026-04-25T13:53:25.328Z</time></trkpt><trkpt lat="43.1232378" lon="12.8313595"><ele>827.8</ele><time>2026-04-25T13:53:26.32Z</time></trkpt><trkpt lat="43.1231849" lon="12.8314142"><ele>832.0</ele><time>2026-04-25T13:53:27.317Z</time></trkpt><trkpt lat="43.1230893" lon="12.8314005"><ele>830.8</ele><time>2026-04-25T13:53:29.322Z</time></trkpt><trkpt lat="43.1230425" lon="12.8312346"><ele>829.6</ele><time>2026-04-25T13:53:31.329Z</time></trkpt><trkpt lat="43.1230378" lon="12.8311081"><ele>828.4</ele><time>2026-04-25T13:53:32.325Z</time></trkpt><trkpt lat="43.1230343" lon="12.8309645"><ele>827.1999999999999</ele><time>2026-04-25T13:53:33.321Z</time></trkpt><trkpt lat="43.123023" lon="12.8308256"><ele>826.0</ele><time>2026-04-25T13:53:34.317Z</time></trkpt><trkpt lat="43.1230013" lon="12.8306999"><ele>826.0</ele><time>2026-04-25T13:53:35.316Z</time></trkpt><trkpt lat="43.1229646" lon="12.8305896"><ele>826.0</ele><time>2026-04-25T13:53:36.325Z</time></trkpt><trkpt lat="43.1229179" lon="12.830494"><ele>826.0</ele><time>2026-04-25T13:53:37.317Z</time></trkpt><trkpt lat="43.1228576" lon="12.8303944"><ele>826.0</ele><time>2026-04-25T13:53:38.322Z</time></trkpt><trkpt lat="43.1227945" lon="12.8302893"><ele>826.0</ele><time>2026-04-25T13:53:39.317Z</time></trkpt><trkpt lat="43.1227536" lon="12.830174"><ele>822.4</ele><time>2026-04-25T13:53:40.316Z</time></trkpt><trkpt lat="43.1227358" lon="12.8300557"><ele>818.8</ele><time>2026-04-25T13:53:41.318Z</time></trkpt><trkpt lat="43.1227401" lon="12.8299302"><ele>815.1999999999999</ele><time>2026-04-25T13:53:42.318Z</time></trkpt><trkpt lat="43.1227557" lon="12.8297955"><ele>811.5999999999999</ele><time>2026-04-25T13:53:43.327Z</time></trkpt><trkpt lat="43.1227609" lon="12.8296625"><ele>808.0</ele><time>2026-04-25T13:53:44.322Z</time></trkpt><trkpt lat="43.1227456" lon="12.8295292"><ele>808.0</ele><time>2026-04-25T13:53:45.328Z</time></trkpt><trkpt lat="43.1227146" lon="12.8294096"><ele>808.0</ele><time>2026-04-25T13:53:46.32Z</time></trkpt><trkpt lat="43.1226782" lon="12.8292925"><ele>808.0</ele><time>2026-04-25T13:53:47.327Z</time></trkpt><trkpt lat="43.1226345" lon="12.8291713"><ele>808.0</ele><time>2026-04-25T13:53:48.326Z</time></trkpt><trkpt lat="43.1225868" lon="12.8290464"><ele>808.0</ele><time>2026-04-25T13:53:49.317Z</time></trkpt><trkpt lat="43.1225302" lon="12.8289259"><ele>804.0</ele><time>2026-04-25T13:53:50.333Z</time></trkpt><trkpt lat="43.1224651" lon="12.8288187"><ele>800.0</ele><time>2026-04-25T13:53:51.324Z</time></trkpt><trkpt lat="43.1223932" lon="12.8287157"><ele>796.0</ele><time>2026-04-25T13:53:52.329Z</time></trkpt><trkpt lat="43.1223254" lon="12.8286179"><ele>792.0</ele><time>2026-04-25T13:53:53.333Z</time></trkpt><trkpt lat="43.1222597" lon="12.8285207"><ele>788.0</ele><time>2026-04-25T13:53:54.325Z</time></trkpt><trkpt lat="43.1221896" lon="12.8284243"><ele>783.4</ele><time>2026-04-25T13:53:55.321Z</time></trkpt><trkpt lat="43.1221152" lon="12.8283358"><ele>778.8</ele><time>2026-04-25T13:53:56.325Z</time></trkpt><trkpt lat="43.122039" lon="12.8282603"><ele>774.2</ele><time>2026-04-25T13:53:57.314Z</time></trkpt><trkpt lat="43.1219601" lon="12.8282015"><ele>769.6</ele><time>2026-04-25T13:53:58.32Z</time></trkpt><trkpt lat="43.1218769" lon="12.8281654"><ele>765.0</ele><time>2026-04-25T13:53:59.321Z</time></trkpt><trkpt lat="43.1217889" lon="12.8281524"><ele>765.0</ele><time>2026-04-25T13:54:00.324Z</time></trkpt><trkpt lat="43.1217023" lon="12.828158"><ele>765.0</ele><time>2026-04-25T13:54:01.328Z</time></trkpt><trkpt lat="43.121619" lon="12.8281785"><ele>765.0</ele><time>2026-04-25T13:54:02.329Z</time></trkpt><trkpt lat="43.1215371" lon="12.8282187"><ele>765.0</ele><time>2026-04-25T13:54:03.32Z</time></trkpt><trkpt lat="43.1214566" lon="12.828271"><ele>765.0</ele><time>2026-04-25T13:54:04.32Z</time></trkpt><trkpt lat="43.1213713" lon="12.8283174"><ele>765.0</ele><time>2026-04-25T13:54:05.319Z</time></trkpt><trkpt lat="43.1212812" lon="12.8283483"><ele>762.0</ele><time>2026-04-25T13:54:06.324Z</time></trkpt><trkpt lat="43.1211832" lon="12.828339"><ele>759.0</ele><time>2026-04-25T13:54:07.32Z</time></trkpt><trkpt lat="43.1210884" lon="12.8282915"><ele>756.0</ele><time>2026-04-25T13:54:08.316Z</time></trkpt><trkpt lat="43.1209941" lon="12.8282279"><ele>753.0</ele><time>2026-04-25T13:54:09.316Z</time></trkpt><trkpt lat="43.1208968" lon="12.8281621"><ele>750.0</ele><time>2026-04-25T13:54:10.324Z</time></trkpt><trkpt lat="43.1207913" lon="12.8281078"><ele>747.75</ele><time>2026-04-25T13:54:11.32Z</time></trkpt><trkpt lat="43.1206784" lon="12.8280696"><ele>745.5</ele><time>2026-04-25T13:54:12.333Z</time></trkpt><trkpt lat="43.1205578" lon="12.8280617"><ele>743.25</ele><time>2026-04-25T13:54:13.322Z</time></trkpt><trkpt lat="43.1204355" lon="12.8280753"><ele>741.0</ele><time>2026-04-25T13:54:14.319Z</time></trkpt><trkpt lat="43.1203191" lon="12.8281013"><ele>741.0</ele><time>2026-04-25T13:54:15.326Z</time></trkpt><trkpt lat="43.1202093" lon="12.8281402"><ele>741.0</ele><time>2026-04-25T13:54:16.32Z</time></trkpt><trkpt lat="43.1200989" lon="12.8281923"><ele>741.0</ele><time>2026-04-25T13:54:17.321Z</time></trkpt><trkpt lat="43.1199778" lon="12.8282536"><ele>741.0</ele><time>2026-04-25T13:54:18.318Z</time></trkpt><trkpt lat="43.1198441" lon="12.8283279"><ele>742.75</ele><time>2026-04-25T13:54:19.322Z</time></trkpt><trkpt lat="43.1197171" lon="12.8283949"><ele>744.5</ele><time>2026-04-25T13:54:20.329Z</time></trkpt><trkpt lat="43.1195975" lon="12.8284487"><ele>746.25</ele><time>2026-04-25T13:54:21.32Z</time></trkpt><trkpt lat="43.1194841" lon="12.8284877"><ele>748.0</ele><time>2026-04-25T13:54:22.329Z</time></trkpt><trkpt lat="43.1193762" lon="12.8285064"><ele>748.0</ele><time>2026-04-25T13:54:23.318Z</time></trkpt><trkpt lat="43.1192755" lon="12.8285081"><ele>748.0</ele><time>2026-04-25T13:54:24.32Z</time></trkpt><trkpt lat="43.1191743" lon="12.8284967"><ele>748.0</ele><time>2026-04-25T13:54:25.318Z</time></trkpt><trkpt lat="43.1190646" lon="12.8284701"><ele>748.0</ele><time>2026-04-25T13:54:26.321Z</time></trkpt><trkpt lat="43.1189504" lon="12.8284249"><ele>748.0</ele><time>2026-04-25T13:54:27.327Z</time></trkpt><trkpt lat="43.1188304" lon="12.8283696"><ele>744.5999999999999</ele><time>2026-04-25T13:54:28.324Z</time></trkpt><trkpt lat="43.1187125" lon="12.8283178"><ele>741.1999999999999</ele><time>2026-04-25T13:54:29.321Z</time></trkpt><trkpt lat="43.1186113" lon="12.8282786"><ele>737.8</ele><time>2026-04-25T13:54:30.317Z</time></trkpt><trkpt lat="43.1185259" lon="12.8282502"><ele>734.4</ele><time>2026-04-25T13:54:31.321Z</time></trkpt><trkpt lat="43.1184408" lon="12.8282487"><ele>731.0</ele><time>2026-04-25T13:54:32.323Z</time></trkpt><trkpt lat="43.1183601" lon="12.8282682"><ele>731.0</ele><time>2026-04-25T13:54:33.32Z</time></trkpt><trkpt lat="43.1182818" lon="12.8283101"><ele>731.0</ele><time>2026-04-25T13:54:34.329Z</time></trkpt><trkpt lat="43.1182005" lon="12.828376"><ele>731.0</ele><time>2026-04-25T13:54:35.326Z</time></trkpt><trkpt lat="43.1181112" lon="12.8284599"><ele>731.0</ele><time>2026-04-25T13:54:36.326Z</time></trkpt><trkpt lat="43.1180094" lon="12.8285618"><ele>731.0</ele><time>2026-04-25T13:54:37.321Z</time></trkpt><trkpt lat="43.1178873" lon="12.8286877"><ele>733.6666666666666</ele><time>2026-04-25T13:54:38.327Z</time></trkpt><trkpt lat="43.1177564" lon="12.8288165"><ele>736.3333333333334</ele><time>2026-04-25T13:54:39.325Z</time></trkpt><trkpt lat="43.1176257" lon="12.8289269"><ele>739.0</ele><time>2026-04-25T13:54:40.322Z</time></trkpt><trkpt lat="43.1175014" lon="12.8290221"><ele>736.5</ele><time>2026-04-25T13:54:41.327Z</time></trkpt><trkpt lat="43.1173837" lon="12.8291055"><ele>734.0</ele><time>2026-04-25T13:54:42.323Z</time></trkpt><trkpt lat="43.1172634" lon="12.8291754"><ele>731.5</ele><time>2026-04-25T13:54:43.325Z</time></trkpt><trkpt lat="43.1171397" lon="12.8292266"><ele>729.0</ele><time>2026-04-25T13:54:44.319Z</time></trkpt><trkpt lat="43.1170077" lon="12.8292563"><ele>729.0</ele><time>2026-04-25T13:54:45.321Z</time></trkpt><trkpt lat="43.1168686" lon="12.8292699"><ele>729.0</ele><time>2026-04-25T13:54:46.324Z</time></trkpt><trkpt lat="43.1167307" lon="12.8292778"><ele>729.0</ele><time>2026-04-25T13:54:47.329Z</time></trkpt><trkpt lat="43.1166067" lon="12.8292848"><ele>729.0</ele><time>2026-04-25T13:54:48.328Z</time></trkpt><trkpt lat="43.1165015" lon="12.8292918"><ele>732.1666666666666</ele><time>2026-04-25T13:54:49.321Z</time></trkpt><trkpt lat="43.1164099" lon="12.8292824"><ele>735.3333333333334</ele><time>2026-04-25T13:54:50.33Z</time></trkpt><trkpt lat="43.1163357" lon="12.829239"><ele>738.5</ele><time>2026-04-25T13:54:51.323Z</time></trkpt><trkpt lat="43.1162749" lon="12.8291645"><ele>741.6666666666667</ele><time>2026-04-25T13:54:52.319Z</time></trkpt><trkpt lat="43.1162284" lon="12.8290696"><ele>744.8333333333334</ele><time>2026-04-25T13:54:53.316Z</time></trkpt><trkpt lat="43.1162012" lon="12.8289355"><ele>748.0</ele><time>2026-04-25T13:54:54.317Z</time></trkpt><trkpt lat="43.1161833" lon="12.8287978"><ele>748.0</ele><time>2026-04-25T13:54:55.319Z</time></trkpt><trkpt lat="43.116171" lon="12.8286854"><ele>748.0</ele><time>2026-04-25T13:54:56.331Z</time></trkpt><trkpt lat="43.1161823" lon="12.8285442"><ele>748.0</ele><time>2026-04-25T13:54:58.328Z</time></trkpt><trkpt lat="43.1162385" lon="12.8284214"><ele>748.0</ele><time>2026-04-25T13:55:00.319Z</time></trkpt><trkpt lat="43.1162767" lon="12.8283499"><ele>748.0</ele><time>2026-04-25T13:55:01.321Z</time></trkpt><trkpt lat="43.1163177" lon="12.8282704"><ele>748.0</ele><time>2026-04-25T13:55:02.319Z</time></trkpt><trkpt lat="43.1163589" lon="12.8281798"><ele>748.25</ele><time>2026-04-25T13:55:03.319Z</time></trkpt><trkpt lat="43.1163972" lon="12.8280746"><ele>748.5</ele><time>2026-04-25T13:55:04.317Z</time></trkpt><trkpt lat="43.1164336" lon="12.8278371"><ele>748.75</ele><time>2026-04-25T13:55:06.327Z</time></trkpt><trkpt lat="43.1164416" lon="12.8277017"><ele>749.0</ele><time>2026-04-25T13:55:07.318Z</time></trkpt><trkpt lat="43.1164393" lon="12.8275628"><ele>749.2</ele><time>2026-04-25T13:55:08.318Z</time></trkpt><trkpt lat="43.1164262" lon="12.8274268"><ele>749.4000000000001</ele><time>2026-04-25T13:55:09.322Z</time></trkpt><trkpt lat="43.1164106" lon="12.8272857"><ele>749.6</ele><time>2026-04-25T13:55:10.33Z</time></trkpt><trkpt lat="43.116411" lon="12.8271382"><ele>749.8</ele><time>2026-04-25T13:55:11.322Z</time></trkpt><trkpt lat="43.116426" lon="12.8270058"><ele>750.0</ele><time>2026-04-25T13:55:12.33Z</time></trkpt><trkpt lat="43.1164467" lon="12.8268777"><ele>750.2</ele><time>2026-04-25T13:55:13.322Z</time></trkpt><trkpt lat="43.1164662" lon="12.8267515"><ele>750.4</ele><time>2026-04-25T13:55:14.319Z</time></trkpt><trkpt lat="43.1164956" lon="12.8266278"><ele>750.5999999999999</ele><time>2026-04-25T13:55:15.325Z</time></trkpt><trkpt lat="43.1165365" lon="12.8265118"><ele>750.8</ele><time>2026-04-25T13:55:16.316Z</time></trkpt><trkpt lat="43.1165848" lon="12.8263991"><ele>751.0</ele><time>2026-04-25T13:55:17.317Z</time></trkpt><trkpt lat="43.1166352" lon="12.8262826"><ele>742.8</ele><time>2026-04-25T13:55:18.325Z</time></trkpt><trkpt lat="43.1166841" lon="12.8261635"><ele>734.5999999999999</ele><time>2026-04-25T13:55:19.321Z</time></trkpt><trkpt lat="43.1167281" lon="12.8260454"><ele>726.4</ele><time>2026-04-25T13:55:20.319Z</time></trkpt><trkpt lat="43.116768" lon="12.8259277"><ele>718.2</ele><time>2026-04-25T13:55:21.327Z</time></trkpt><trkpt lat="43.1168035" lon="12.8258144"><ele>710.0</ele><time>2026-04-25T13:55:22.323Z</time></trkpt><trkpt lat="43.1168399" lon="12.8257008"><ele>708.8</ele><time>2026-04-25T13:55:23.327Z</time></trkpt><trkpt lat="43.11688" lon="12.8255888"><ele>707.6</ele><time>2026-04-25T13:55:24.32Z</time></trkpt><trkpt lat="43.1169225" lon="12.8254803"><ele>706.4000000000001</ele><time>2026-04-25T13:55:25.328Z</time></trkpt><trkpt lat="43.1169607" lon="12.8253682"><ele>705.2</ele><time>2026-04-25T13:55:26.327Z</time></trkpt><trkpt lat="43.1169915" lon="12.8252475"><ele>704.0</ele><time>2026-04-25T13:55:27.331Z</time></trkpt><trkpt lat="43.1170151" lon="12.8251167"><ele>703.2</ele><time>2026-04-25T13:55:28.32Z</time></trkpt><trkpt lat="43.1170347" lon="12.8249851"><ele>702.4000000000001</ele><time>2026-04-25T13:55:29.329Z</time></trkpt><trkpt lat="43.1170528" lon="12.8248548"><ele>701.6</ele><time>2026-04-25T13:55:30.319Z</time></trkpt><trkpt lat="43.1170726" lon="12.8247267"><ele>700.8</ele><time>2026-04-25T13:55:31.317Z</time></trkpt><trkpt lat="43.1170931" lon="12.824601"><ele>700.0</ele><time>2026-04-25T13:55:32.318Z</time></trkpt><trkpt lat="43.1171144" lon="12.8244773"><ele>700.0</ele><time>2026-04-25T13:55:33.317Z</time></trkpt><trkpt lat="43.1171328" lon="12.824351"><ele>700.0</ele><time>2026-04-25T13:55:34.319Z</time></trkpt><trkpt lat="43.1171472" lon="12.824219"><ele>700.0</ele><time>2026-04-25T13:55:35.321Z</time></trkpt><trkpt lat="43.1171558" lon="12.8240828"><ele>700.0</ele><time>2026-04-25T13:55:36.322Z</time></trkpt><trkpt lat="43.1171602" lon="12.8239456"><ele>700.0</ele><time>2026-04-25T13:55:37.327Z</time></trkpt><trkpt lat="43.117167" lon="12.8238089"><ele>698.1666666666667</ele><time>2026-04-25T13:55:38.321Z</time></trkpt><trkpt lat="43.1171731" lon="12.823678"><ele>696.3333333333334</ele><time>2026-04-25T13:55:39.32Z</time></trkpt><trkpt lat="43.1171783" lon="12.8235577"><ele>694.5</ele><time>2026-04-25T13:55:40.321Z</time></trkpt><trkpt lat="43.1171828" lon="12.8234445"><ele>692.6666666666666</ele><time>2026-04-25T13:55:41.317Z</time></trkpt><trkpt lat="43.1171853" lon="12.8233336"><ele>690.8333333333333</ele><time>2026-04-25T13:55:42.332Z</time></trkpt><trkpt lat="43.1171865" lon="12.8232356"><ele>689.0</ele><time>2026-04-25T13:55:43.329Z</time></trkpt><trkpt lat="43.1171862" lon="12.8231476"><ele>687.4000000000001</ele><time>2026-04-25T13:55:44.331Z</time></trkpt><trkpt lat="43.1171769" lon="12.822982"><ele>685.8</ele><time>2026-04-25T13:55:46.323Z</time></trkpt><trkpt lat="43.1171283" lon="12.8228194"><ele>684.2</ele><time>2026-04-25T13:55:48.329Z</time></trkpt><trkpt lat="43.1171007" lon="12.8227321"><ele>682.5999999999999</ele><time>2026-04-25T13:55:49.329Z</time></trkpt><trkpt lat="43.1170703" lon="12.8226489"><ele>681.0</ele><time>2026-04-25T13:55:50.322Z</time></trkpt><trkpt lat="43.1170344" lon="12.8225685"><ele>679.0</ele><time>2026-04-25T13:55:51.321Z</time></trkpt><trkpt lat="43.116996" lon="12.8224858"><ele>677.0</ele><time>2026-04-25T13:55:52.329Z</time></trkpt><trkpt lat="43.1169571" lon="12.8223978"><ele>675.0</ele><time>2026-04-25T13:55:53.327Z</time></trkpt><trkpt lat="43.1169178" lon="12.822306"><ele>673.0</ele><time>2026-04-25T13:55:54.329Z</time></trkpt><trkpt lat="43.116876" lon="12.8222103"><ele>671.0</ele><time>2026-04-25T13:55:55.327Z</time></trkpt><trkpt lat="43.1168335" lon="12.8221091"><ele>669.0</ele><time>2026-04-25T13:55:56.319Z</time></trkpt><trkpt lat="43.1167947" lon="12.8219969"><ele>669.0</ele><time>2026-04-25T13:55:57.33Z</time></trkpt><trkpt lat="43.1167609" lon="12.8218821"><ele>669.0</ele><time>2026-04-25T13:55:58.328Z</time></trkpt><trkpt lat="43.1167328" lon="12.8217731"><ele>669.0</ele><time>2026-04-25T13:55:59.328Z</time></trkpt><trkpt lat="43.1167125" lon="12.8216652"><ele>669.0</ele><time>2026-04-25T13:56:00.328Z</time></trkpt><trkpt lat="43.1166981" lon="12.8215566"><ele>669.0</ele><time>2026-04-25T13:56:01.317Z</time></trkpt><trkpt lat="43.1166929" lon="12.8214382"><ele>669.0</ele><time>2026-04-25T13:56:02.33Z</time></trkpt><trkpt lat="43.1166936" lon="12.8213084"><ele>665.8000000000001</ele><time>2026-04-25T13:56:03.328Z</time></trkpt><trkpt lat="43.1166993" lon="12.8211761"><ele>662.6</ele><time>2026-04-25T13:56:04.334Z</time></trkpt><trkpt lat="43.1167115" lon="12.8210437"><ele>659.4</ele><time>2026-04-25T13:56:05.329Z</time></trkpt><trkpt lat="43.1167238" lon="12.8209183"><ele>656.2</ele><time>2026-04-25T13:56:06.317Z</time></trkpt><trkpt lat="43.1167369" lon="12.8207928"><ele>653.0</ele><time>2026-04-25T13:56:07.32Z</time></trkpt><trkpt lat="43.1167484" lon="12.8206736"><ele>651.1666666666666</ele><time>2026-04-25T13:56:08.328Z</time></trkpt><trkpt lat="43.1167563" lon="12.8205577"><ele>649.3333333333333</ele><time>2026-04-25T13:56:09.315Z</time></trkpt><trkpt lat="43.1167602" lon="12.820444"><ele>647.5</ele><time>2026-04-25T13:56:10.325Z</time></trkpt><trkpt lat="43.1167598" lon="12.8203339"><ele>645.6666666666666</ele><time>2026-04-25T13:56:11.316Z</time></trkpt><trkpt lat="43.1167525" lon="12.8202338"><ele>643.8333333333334</ele><time>2026-04-25T13:56:12.328Z</time></trkpt><trkpt lat="43.116742" lon="12.8201401"><ele>642.0</ele><time>2026-04-25T13:56:13.327Z</time></trkpt><trkpt lat="43.1167348" lon="12.820047"><ele>639.6</ele><time>2026-04-25T13:56:14.322Z</time></trkpt><trkpt lat="43.116772" lon="12.8199101"><ele>637.2</ele><time>2026-04-25T13:56:16.327Z</time></trkpt><trkpt lat="43.1168776" lon="12.8198672"><ele>634.8</ele><time>2026-04-25T13:56:18.328Z</time></trkpt><trkpt lat="43.1169532" lon="12.8198704"><ele>632.4</ele><time>2026-04-25T13:56:19.331Z</time></trkpt><trkpt lat="43.1170326" lon="12.8198782"><ele>630.0</ele><time>2026-04-25T13:56:20.329Z</time></trkpt><trkpt lat="43.1171133" lon="12.8198902"><ele>630.0</ele><time>2026-04-25T13:56:21.328Z</time></trkpt><trkpt lat="43.1171933" lon="12.8199123"><ele>630.0</ele><time>2026-04-25T13:56:22.329Z</time></trkpt><trkpt lat="43.1172676" lon="12.8199474"><ele>630.0</ele><time>2026-04-25T13:56:23.321Z</time></trkpt><trkpt lat="43.1173366" lon="12.8199997"><ele>630.0</ele><time>2026-04-25T13:56:24.32Z</time></trkpt><trkpt lat="43.1174002" lon="12.8200692"><ele>630.0</ele><time>2026-04-25T13:56:25.321Z</time></trkpt><trkpt lat="43.1174534" lon="12.8201525"><ele>630.0</ele><time>2026-04-25T13:56:26.324Z</time></trkpt><trkpt lat="43.1174982" lon="12.8202467"><ele>627.7142857142857</ele><time>2026-04-25T13:56:27.328Z</time></trkpt><trkpt lat="43.1175372" lon="12.8203461"><ele>625.4285714285714</ele><time>2026-04-25T13:56:28.325Z</time></trkpt><trkpt lat="43.1175688" lon="12.8204466"><ele>623.1428571428571</ele><time>2026-04-25T13:56:29.328Z</time></trkpt><trkpt lat="43.1175925" lon="12.8205433"><ele>620.8571428571429</ele><time>2026-04-25T13:56:30.325Z</time></trkpt><trkpt lat="43.1176062" lon="12.820638"><ele>618.5714285714286</ele><time>2026-04-25T13:56:31.332Z</time></trkpt><trkpt lat="43.1176138" lon="12.8207245"><ele>616.2857142857142</ele><time>2026-04-25T13:56:32.324Z</time></trkpt><trkpt lat="43.1176268" lon="12.8208188"><ele>614.0</ele><time>2026-04-25T13:56:34.327Z</time></trkpt><trkpt lat="43.1176887" lon="12.8209673"><ele>617.6</ele><time>2026-04-25T13:57:05.332Z</time></trkpt><trkpt lat="43.1177646" lon="12.8210928"><ele>621.2</ele><time>2026-04-25T13:57:07.331Z</time></trkpt><trkpt lat="43.1178287" lon="12.8211496"><ele>624.8000000000001</ele><time>2026-04-25T13:57:08.319Z</time></trkpt><trkpt lat="43.1179198" lon="12.8212276"><ele>628.4</ele><time>2026-04-25T13:57:09.329Z</time></trkpt><trkpt lat="43.1180294" lon="12.8213318"><ele>632.0</ele><time>2026-04-25T13:57:10.328Z</time></trkpt><trkpt lat="43.1181407" lon="12.8214384"><ele>628.8000000000001</ele><time>2026-04-25T13:57:11.327Z</time></trkpt><trkpt lat="43.1182421" lon="12.8215353"><ele>625.6</ele><time>2026-04-25T13:57:12.337Z</time></trkpt><trkpt lat="43.118331" lon="12.8216192"><ele>622.4000000000001</ele><time>2026-04-25T13:57:13.327Z</time></trkpt><trkpt lat="43.1184137" lon="12.8216933"><ele>619.2</ele><time>2026-04-25T13:57:14.327Z</time></trkpt><trkpt lat="43.1184953" lon="12.8217565"><ele>616.0</ele><time>2026-04-25T13:57:15.332Z</time></trkpt><trkpt lat="43.1185763" lon="12.821811"><ele>620.4</ele><time>2026-04-25T13:57:16.32Z</time></trkpt><trkpt lat="43.1186601" lon="12.8218571"><ele>624.8</ele><time>2026-04-25T13:57:17.324Z</time></trkpt><trkpt lat="43.1187493" lon="12.8218981"><ele>629.1999999999999</ele><time>2026-04-25T13:57:18.329Z</time></trkpt><trkpt lat="43.1188383" lon="12.8219335"><ele>633.6</ele><time>2026-04-25T13:57:19.318Z</time></trkpt><trkpt lat="43.1189247" lon="12.8219679"><ele>638.0</ele><time>2026-04-25T13:57:20.329Z</time></trkpt><trkpt lat="43.1190046" lon="12.8220156"><ele>630.4</ele><time>2026-04-25T13:57:21.322Z</time></trkpt><trkpt lat="43.1190776" lon="12.8220896"><ele>622.8</ele><time>2026-04-25T13:57:22.328Z</time></trkpt><trkpt lat="43.1191509" lon="12.822174"><ele>615.2</ele><time>2026-04-25T13:57:23.328Z</time></trkpt><trkpt lat="43.1192238" lon="12.8222547"><ele>607.6</ele><time>2026-04-25T13:57:24.329Z</time></trkpt><trkpt lat="43.119295" lon="12.8223402"><ele>600.0</ele><time>2026-04-25T13:57:25.33Z</time></trkpt><trkpt lat="43.119361" lon="12.8224275"><ele>600.0</ele><time>2026-04-25T13:57:26.331Z</time></trkpt><trkpt lat="43.1194224" lon="12.8225157"><ele>600.0</ele><time>2026-04-25T13:57:27.329Z</time></trkpt><trkpt lat="43.1194855" lon="12.8225922"><ele>600.0</ele><time>2026-04-25T13:57:28.328Z</time></trkpt><trkpt lat="43.1195443" lon="12.8226285"><ele>600.0</ele><time>2026-04-25T13:57:29.323Z</time></trkpt><trkpt lat="43.1196646" lon="12.8225726"><ele>600.0</ele><time>2026-04-25T13:57:31.328Z</time></trkpt><trkpt lat="43.1197275" lon="12.8224844"><ele>600.0</ele><time>2026-04-25T13:57:32.333Z</time></trkpt><trkpt lat="43.119782" lon="12.8223902"><ele>600.0</ele><time>2026-04-25T13:57:33.327Z</time></trkpt><trkpt lat="43.1198223" lon="12.8222952"><ele>600.0</ele><time>2026-04-25T13:57:34.328Z</time></trkpt><trkpt lat="43.1198381" lon="12.8221932"><ele>600.0</ele><time>2026-04-25T13:57:35.318Z</time></trkpt><trkpt lat="43.1198245" lon="12.8220935"><ele>600.0</ele><time>2026-04-25T13:57:36.324Z</time></trkpt><trkpt lat="43.1197925" lon="12.8220041"><ele>600.0</ele><time>2026-04-25T13:57:37.328Z</time></trkpt><trkpt lat="43.1197504" lon="12.8219148"><ele>600.0</ele><time>2026-04-25T13:57:38.326Z</time></trkpt><trkpt lat="43.1197069" lon="12.8218174"><ele>600.0</ele><time>2026-04-25T13:57:39.323Z</time></trkpt><trkpt lat="43.1196651" lon="12.8217146"><ele>600.0</ele><time>2026-04-25T13:57:40.319Z</time></trkpt><trkpt lat="43.1196373" lon="12.8216097"><ele>600.0</ele><time>2026-04-25T13:57:41.323Z</time></trkpt><trkpt lat="43.1196208" lon="12.8214976"><ele>600.0</ele><time>2026-04-25T13:57:42.331Z</time></trkpt><trkpt lat="43.119615" lon="12.8213741"><ele>600.0</ele><time>2026-04-25T13:57:43.322Z</time></trkpt><trkpt lat="43.1196208" lon="12.8212421"><ele>597.8</ele><time>2026-04-25T13:57:44.316Z</time></trkpt><trkpt lat="43.1196257" lon="12.8211061"><ele>595.6</ele><time>2026-04-25T13:57:45.331Z</time></trkpt><trkpt lat="43.1196157" lon="12.8209621"><ele>593.4</ele><time>2026-04-25T13:57:46.328Z</time></trkpt><trkpt lat="43.1195989" lon="12.8208178"><ele>591.2</ele><time>2026-04-25T13:57:47.325Z</time></trkpt><trkpt lat="43.1195725" lon="12.8206745"><ele>589.0</ele><time>2026-04-25T13:57:48.326Z</time></trkpt><trkpt lat="43.1195372" lon="12.8205455"><ele>586.8</ele><time>2026-04-25T13:57:49.33Z</time></trkpt><trkpt lat="43.1195" lon="12.8204365"><ele>584.5999999999999</ele><time>2026-04-25T13:57:50.329Z</time></trkpt><trkpt lat="43.1194675" lon="12.8203449"><ele>582.4</ele><time>2026-04-25T13:57:51.331Z</time></trkpt><trkpt lat="43.1194285" lon="12.8202013"><ele>580.1999999999999</ele><time>2026-04-25T13:57:53.324Z</time></trkpt><trkpt lat="43.1194412" lon="12.8200486"><ele>578.0</ele><time>2026-04-25T13:57:55.32Z</time></trkpt><trkpt lat="43.1194634" lon="12.8199622"><ele>577.3333333333333</ele><time>2026-04-25T13:57:56.32Z</time></trkpt><trkpt lat="43.119484" lon="12.8198615"><ele>576.6666666666666</ele><time>2026-04-25T13:57:57.329Z</time></trkpt><trkpt lat="43.1194829" lon="12.8197516"><ele>576.0</ele><time>2026-04-25T13:57:58.328Z</time></trkpt><trkpt lat="43.1194554" lon="12.8196418"><ele>575.3333333333334</ele><time>2026-04-25T13:57:59.327Z</time></trkpt><trkpt lat="43.119411" lon="12.8195201"><ele>574.6666666666667</ele><time>2026-04-25T13:58:00.324Z</time></trkpt><trkpt lat="43.1193577" lon="12.8193902"><ele>574.0</ele><time>2026-04-25T13:58:01.316Z</time></trkpt><trkpt lat="43.1193065" lon="12.8192439"><ele>574.0</ele><time>2026-04-25T13:58:02.325Z</time></trkpt><trkpt lat="43.1192651" lon="12.8190928"><ele>574.0</ele><time>2026-04-25T13:58:03.322Z</time></trkpt><trkpt lat="43.1192286" lon="12.8189301"><ele>574.0</ele><time>2026-04-25T13:58:04.317Z</time></trkpt><trkpt lat="43.1191912" lon="12.8187773"><ele>574.0</ele><time>2026-04-25T13:58:05.324Z</time></trkpt><trkpt lat="43.1191522" lon="12.818613"><ele>576.75</ele><time>2026-04-25T13:58:06.319Z</time></trkpt><trkpt lat="43.1191164" lon="12.8184314"><ele>579.5</ele><time>2026-04-25T13:58:07.325Z</time></trkpt><trkpt lat="43.119087" lon="12.8182532"><ele>582.25</ele><time>2026-04-25T13:58:08.326Z</time></trkpt><trkpt lat="43.1190566" lon="12.8180799"><ele>585.0</ele><time>2026-04-25T13:58:09.324Z</time></trkpt><trkpt lat="43.119014" lon="12.8179177"><ele>581.0</ele><time>2026-04-25T13:58:10.32Z</time></trkpt><trkpt lat="43.1189601" lon="12.8177661"><ele>577.0</ele><time>2026-04-25T13:58:11.325Z</time></trkpt><trkpt lat="43.1189064" lon="12.8176309"><ele>573.0</ele><time>2026-04-25T13:58:12.332Z</time></trkpt><trkpt lat="43.1188651" lon="12.8175215"><ele>569.0</ele><time>2026-04-25T13:58:13.318Z</time></trkpt><trkpt lat="43.1188323" lon="12.8174165"><ele>565.0</ele><time>2026-04-25T13:58:15.324Z</time></trkpt><trkpt lat="43.1188241" lon="12.8173248"><ele>565.0</ele><time>2026-04-25T13:58:17.327Z</time></trkpt><trkpt lat="43.1188487" lon="12.8172048"><ele>565.0</ele><time>2026-04-25T13:58:19.326Z</time></trkpt><trkpt lat="43.118845" lon="12.8171004"><ele>565.0</ele><time>2026-04-25T13:58:21.329Z</time></trkpt><trkpt lat="43.1187519" lon="12.8169556"><ele>565.0</ele><time>2026-04-25T13:58:23.325Z</time></trkpt><trkpt lat="43.1186916" lon="12.8168678"><ele>565.0</ele><time>2026-04-25T13:58:24.328Z</time></trkpt><trkpt lat="43.1186316" lon="12.8167705"><ele>566.0</ele><time>2026-04-25T13:58:25.327Z</time></trkpt><trkpt lat="43.1185813" lon="12.8166703"><ele>567.0</ele><time>2026-04-25T13:58:26.325Z</time></trkpt><trkpt lat="43.1185413" lon="12.8165689"><ele>568.0</ele><time>2026-04-25T13:58:27.327Z</time></trkpt><trkpt lat="43.1185082" lon="12.8164687"><ele>569.0</ele><time>2026-04-25T13:58:28.327Z</time></trkpt><trkpt lat="43.118481" lon="12.8163705"><ele>570.0</ele><time>2026-04-25T13:58:29.329Z</time></trkpt><trkpt lat="43.1184634" lon="12.8162784"><ele>571.0</ele><time>2026-04-25T13:58:30.322Z</time></trkpt><trkpt lat="43.1184519" lon="12.8161279"><ele>571.0</ele><time>2026-04-25T13:58:32.33Z</time></trkpt><trkpt lat="43.1184349" lon="12.8160394"><ele>571.0</ele><time>2026-04-25T13:58:35.32Z</time></trkpt><trkpt lat="43.1184072" lon="12.8161315"><ele>571.0</ele><time>2026-04-25T13:58:38.319Z</time></trkpt><trkpt lat="43.1184575" lon="12.8163145"><ele>571.0</ele><time>2026-04-25T13:58:40.324Z</time></trkpt><trkpt lat="43.118491" lon="12.8164518"><ele>571.0</ele><time>2026-04-25T13:58:41.323Z</time></trkpt><trkpt lat="43.118535" lon="12.8165912"><ele>571.0</ele><time>2026-04-25T13:58:42.33Z</time></trkpt><trkpt lat="43.1185904" lon="12.8167173"><ele>571.0</ele><time>2026-04-25T13:58:43.319Z</time></trkpt><trkpt lat="43.1186527" lon="12.8168287"><ele>571.0</ele><time>2026-04-25T13:58:44.321Z</time></trkpt><trkpt lat="43.1187169" lon="12.8169274"><ele>571.0</ele><time>2026-04-25T13:58:45.329Z</time></trkpt><trkpt lat="43.1187773" lon="12.8170125"><ele>571.0</ele><time>2026-04-25T13:58:46.328Z</time></trkpt><trkpt lat="43.1188263" lon="12.8170895"><ele>569.8</ele><time>2026-04-25T13:58:47.327Z</time></trkpt><trkpt lat="43.1188627" lon="12.8172156"><ele>568.6</ele><time>2026-04-25T13:58:49.32Z</time></trkpt><trkpt lat="43.1188295" lon="12.8173277"><ele>567.4</ele><time>2026-04-25T13:58:51.328Z</time></trkpt><trkpt lat="43.1188201" lon="12.8174856"><ele>566.2</ele><time>2026-04-25T13:58:53.324Z</time></trkpt><trkpt lat="43.1188504" lon="12.8175919"><ele>565.0</ele><time>2026-04-25T13:58:54.326Z</time></trkpt><trkpt lat="43.1189078" lon="12.8177362"><ele>563.0</ele><time>2026-04-25T13:58:55.317Z</time></trkpt><trkpt lat="43.1189721" lon="12.8178939"><ele>561.0</ele><time>2026-04-25T13:58:56.326Z</time></trkpt><trkpt lat="43.119029" lon="12.8180645"><ele>559.0</ele><time>2026-04-25T13:58:57.329Z</time></trkpt><trkpt lat="43.1190705" lon="12.8182504"><ele>557.0</ele><time>2026-04-25T13:58:58.331Z</time></trkpt><trkpt lat="43.1191093" lon="12.8184616"><ele>562.6666666666666</ele><time>2026-04-25T13:58:59.319Z</time></trkpt><trkpt lat="43.1191571" lon="12.8186932"><ele>568.3333333333334</ele><time>2026-04-25T13:59:00.324Z</time></trkpt><trkpt lat="43.119209" lon="12.8189301"><ele>574.0</ele><time>2026-04-25T13:59:01.325Z</time></trkpt><trkpt lat="43.119266" lon="12.8191617"><ele>574.0</ele><time>2026-04-25T13:59:02.329Z</time></trkpt><trkpt lat="43.1193278" lon="12.8193845"><ele>574.0</ele><time>2026-04-25T13:59:03.325Z</time></trkpt><trkpt lat="43.119386" lon="12.8195732"><ele>574.0</ele><time>2026-04-25T13:59:04.316Z</time></trkpt><trkpt lat="43.1194328" lon="12.8197212"><ele>574.0</ele><time>2026-04-25T13:59:05.324Z</time></trkpt><trkpt lat="43.119458" lon="12.8198451"><ele>574.0</ele><time>2026-04-25T13:59:06.326Z</time></trkpt><trkpt lat="43.1194558" lon="12.8199631"><ele>574.0</ele><time>2026-04-25T13:59:07.323Z</time></trkpt><trkpt lat="43.119429" lon="12.8200599"><ele>574.0</ele><time>2026-04-25T13:59:08.327Z</time></trkpt><trkpt lat="43.1193824" lon="12.8201354"><ele>574.0</ele><time>2026-04-25T13:59:09.318Z</time></trkpt><trkpt lat="43.1193284" lon="12.8201841"><ele>574.0</ele><time>2026-04-25T13:59:10.318Z</time></trkpt><trkpt lat="43.1192173" lon="12.8201671"><ele>574.0</ele><time>2026-04-25T13:59:12.322Z</time></trkpt><trkpt lat="43.1191574" lon="12.8201203"><ele>574.0</ele><time>2026-04-25T13:59:13.329Z</time></trkpt><trkpt lat="43.1190948" lon="12.8200428"><ele>574.0</ele><time>2026-04-25T13:59:14.322Z</time></trkpt><trkpt lat="43.1190263" lon="12.8199344"><ele>574.0</ele><time>2026-04-25T13:59:15.332Z</time></trkpt><trkpt lat="43.1189481" lon="12.8197943"><ele>574.0</ele><time>2026-04-25T13:59:16.318Z</time></trkpt><trkpt lat="43.1188522" lon="12.8196265"><ele>571.3333333333334</ele><time>2026-04-25T13:59:17.323Z</time></trkpt><trkpt lat="43.118749" lon="12.8194284"><ele>568.6666666666666</ele><time>2026-04-25T13:59:18.322Z</time></trkpt><trkpt lat="43.1186489" lon="12.8192237"><ele>566.0</ele><time>2026-04-25T13:59:19.324Z</time></trkpt><trkpt lat="43.1185522" lon="12.8190216"><ele>566.0</ele><time>2026-04-25T13:59:20.322Z</time></trkpt><trkpt lat="43.1184559" lon="12.8188252"><ele>566.0</ele><time>2026-04-25T13:59:21.329Z</time></trkpt><trkpt lat="43.1183684" lon="12.8186384"><ele>566.0</ele><time>2026-04-25T13:59:22.333Z</time></trkpt><trkpt lat="43.1182915" lon="12.8184669"><ele>565.25</ele><time>2026-04-25T13:59:23.328Z</time></trkpt><trkpt lat="43.1182126" lon="12.8183099"><ele>564.5</ele><time>2026-04-25T13:59:24.327Z</time></trkpt><trkpt lat="43.1181148" lon="12.8181706"><ele>563.75</ele><time>2026-04-25T13:59:25.325Z</time></trkpt><trkpt lat="43.1179943" lon="12.818046"><ele>563.0</ele><time>2026-04-25T13:59:26.324Z</time></trkpt><trkpt lat="43.1178712" lon="12.8179243"><ele>563.0</ele><time>2026-04-25T13:59:27.33Z</time></trkpt><trkpt lat="43.1177561" lon="12.817794"><ele>563.0</ele><time>2026-04-25T13:59:28.328Z</time></trkpt><trkpt lat="43.1176458" lon="12.8176442"><ele>563.0</ele><time>2026-04-25T13:59:29.325Z</time></trkpt><trkpt lat="43.117537" lon="12.817476"><ele>565.0</ele><time>2026-04-25T13:59:30.328Z</time></trkpt><trkpt lat="43.117427" lon="12.8173074"><ele>567.0</ele><time>2026-04-25T13:59:31.329Z</time></trkpt><trkpt lat="43.1173176" lon="12.8171398"><ele>569.0</ele><time>2026-04-25T13:59:32.327Z</time></trkpt><trkpt lat="43.1172081" lon="12.8169673"><ele>561.6666666666666</ele><time>2026-04-25T13:59:33.321Z</time></trkpt><trkpt lat="43.1171008" lon="12.8167847"><ele>554.3333333333334</ele><time>2026-04-25T13:59:34.327Z</time></trkpt><trkpt lat="43.1170007" lon="12.8165949"><ele>547.0</ele><time>2026-04-25T13:59:35.331Z</time></trkpt><trkpt lat="43.1169106" lon="12.8164019"><ele>547.0</ele><time>2026-04-25T13:59:36.316Z</time></trkpt><trkpt lat="43.1168309" lon="12.8162044"><ele>547.0</ele><time>2026-04-25T13:59:37.317Z</time></trkpt><trkpt lat="43.1167605" lon="12.8160009"><ele>547.0</ele><time>2026-04-25T13:59:38.327Z</time></trkpt><trkpt lat="43.1166965" lon="12.8157903"><ele>548.6666666666667</ele><time>2026-04-25T13:59:39.326Z</time></trkpt><trkpt lat="43.1166285" lon="12.8155802"><ele>550.3333333333334</ele><time>2026-04-25T13:59:40.327Z</time></trkpt><trkpt lat="43.1165509" lon="12.8153806"><ele>552.0</ele><time>2026-04-25T13:59:41.329Z</time></trkpt><trkpt lat="43.116461" lon="12.8151989"><ele>545.3333333333334</ele><time>2026-04-25T13:59:42.33Z</time></trkpt><trkpt lat="43.1163599" lon="12.8150286"><ele>538.6666666666667</ele><time>2026-04-25T13:59:43.316Z</time></trkpt><trkpt lat="43.1162447" lon="12.8148664"><ele>532.0</ele><time>2026-04-25T13:59:44.324Z</time></trkpt><trkpt lat="43.1161178" lon="12.81471"><ele>532.0</ele><time>2026-04-25T13:59:45.328Z</time></trkpt><trkpt lat="43.1159846" lon="12.8145565"><ele>532.0</ele><time>2026-04-25T13:59:46.329Z</time></trkpt><trkpt lat="43.115845" lon="12.8144129"><ele>532.0</ele><time>2026-04-25T13:59:47.328Z</time></trkpt><trkpt lat="43.1157089" lon="12.8142783"><ele>534.3333333333334</ele><time>2026-04-25T13:59:48.325Z</time></trkpt><trkpt lat="43.1155848" lon="12.8141426"><ele>536.6666666666666</ele><time>2026-04-25T13:59:49.33Z</time></trkpt><trkpt lat="43.1154645" lon="12.8140108"><ele>539.0</ele><time>2026-04-25T13:59:50.328Z</time></trkpt><trkpt lat="43.1153432" lon="12.8138934"><ele>539.0</ele><time>2026-04-25T13:59:51.329Z</time></trkpt><trkpt lat="43.1152178" lon="12.8137918"><ele>539.0</ele><time>2026-04-25T13:59:52.32Z</time></trkpt><trkpt lat="43.1150835" lon="12.8136962"><ele>539.0</ele><time>2026-04-25T13:59:53.321Z</time></trkpt><trkpt lat="43.1149373" lon="12.8136022"><ele>539.0</ele><time>2026-04-25T13:59:54.329Z</time></trkpt><trkpt lat="43.1147781" lon="12.8135112"><ele>539.0</ele><time>2026-04-25T13:59:55.326Z</time></trkpt><trkpt lat="43.1146137" lon="12.8134185"><ele>539.0</ele><time>2026-04-25T13:59:56.327Z</time></trkpt><trkpt lat="43.1144514" lon="12.8133206"><ele>531.0</ele><time>2026-04-25T13:59:57.318Z</time></trkpt><trkpt lat="43.1142896" lon="12.8132115"><ele>523.0</ele><time>2026-04-25T13:59:58.32Z</time></trkpt><trkpt lat="43.1141322" lon="12.8130934"><ele>515.0</ele><time>2026-04-25T13:59:59.327Z</time></trkpt><trkpt lat="43.1139791" lon="12.8129838"><ele>513.6666666666666</ele><time>2026-04-25T14:00:00.323Z</time></trkpt><trkpt lat="43.1138226" lon="12.8128901"><ele>512.3333333333334</ele><time>2026-04-25T14:00:01.318Z</time></trkpt><trkpt lat="43.1136574" lon="12.8128087"><ele>511.0</ele><time>2026-04-25T14:00:02.316Z</time></trkpt><trkpt lat="43.1134915" lon="12.8127357"><ele>511.0</ele><time>2026-04-25T14:00:03.321Z</time></trkpt><trkpt lat="43.1133248" lon="12.8126738"><ele>511.0</ele><time>2026-04-25T14:00:04.323Z</time></trkpt><trkpt lat="43.1131573" lon="12.8126238"><ele>511.0</ele><time>2026-04-25T14:00:05.322Z</time></trkpt><trkpt lat="43.1129904" lon="12.8125806"><ele>506.6666666666667</ele><time>2026-04-25T14:00:06.324Z</time></trkpt><trkpt lat="43.112823" lon="12.812536"><ele>502.33333333333337</ele><time>2026-04-25T14:00:07.322Z</time></trkpt><trkpt lat="43.1126552" lon="12.8124931"><ele>498.0</ele><time>2026-04-25T14:00:08.329Z</time></trkpt><trkpt lat="43.112489" lon="12.8124499"><ele>496.0</ele><time>2026-04-25T14:00:09.322Z</time></trkpt><trkpt lat="43.1123237" lon="12.8124039"><ele>494.0</ele><time>2026-04-25T14:00:10.326Z</time></trkpt><trkpt lat="43.1121589" lon="12.8123527"><ele>492.0</ele><time>2026-04-25T14:00:11.323Z</time></trkpt><trkpt lat="43.1119938" lon="12.8122988"><ele>492.0</ele><time>2026-04-25T14:00:12.322Z</time></trkpt><trkpt lat="43.1118274" lon="12.812246"><ele>492.0</ele><time>2026-04-25T14:00:13.326Z</time></trkpt><trkpt lat="43.1116596" lon="12.8121923"><ele>492.0</ele><time>2026-04-25T14:00:14.325Z</time></trkpt><trkpt lat="43.1114919" lon="12.8121336"><ele>491.66666666666663</ele><time>2026-04-25T14:00:15.326Z</time></trkpt><trkpt lat="43.1113288" lon="12.8120691"><ele>491.3333333333333</ele><time>2026-04-25T14:00:16.325Z</time></trkpt><trkpt lat="43.1111716" lon="12.8119972"><ele>491.0</ele><time>2026-04-25T14:00:17.321Z</time></trkpt><trkpt lat="43.1110203" lon="12.8119182"><ele>491.0</ele><time>2026-04-25T14:00:18.326Z</time></trkpt><trkpt lat="43.1108784" lon="12.8118347"><ele>491.0</ele><time>2026-04-25T14:00:19.319Z</time></trkpt><trkpt lat="43.11074" lon="12.8117391"><ele>491.0</ele><time>2026-04-25T14:00:20.328Z</time></trkpt><trkpt lat="43.1106037" lon="12.8116516"><ele>489.0</ele><time>2026-04-25T14:00:21.324Z</time></trkpt><trkpt lat="43.1104631" lon="12.8116044"><ele>487.0</ele><time>2026-04-25T14:00:22.331Z</time></trkpt><trkpt lat="43.110322" lon="12.8115986"><ele>485.0</ele><time>2026-04-25T14:00:23.328Z</time></trkpt><trkpt lat="43.1101956" lon="12.8115982"><ele>483.0</ele><time>2026-04-25T14:00:24.327Z</time></trkpt><trkpt lat="43.1100782" lon="12.8115802"><ele>483.0</ele><time>2026-04-25T14:00:25.33Z</time></trkpt><trkpt lat="43.1099683" lon="12.8115324"><ele>483.0</ele><time>2026-04-25T14:00:26.327Z</time></trkpt><trkpt lat="43.109857" lon="12.8114785"><ele>483.0</ele><time>2026-04-25T14:00:27.328Z</time></trkpt><trkpt lat="43.1097339" lon="12.8114492"><ele>483.0</ele><time>2026-04-25T14:00:28.328Z</time></trkpt><trkpt lat="43.1095981" lon="12.8114447"><ele>481.75</ele><time>2026-04-25T14:00:29.328Z</time></trkpt><trkpt lat="43.1094578" lon="12.8114628"><ele>480.5</ele><time>2026-04-25T14:00:30.324Z</time></trkpt><trkpt lat="43.1093238" lon="12.811499"><ele>479.25</ele><time>2026-04-25T14:00:31.324Z</time></trkpt><trkpt lat="43.1091905" lon="12.8115598"><ele>478.0</ele><time>2026-04-25T14:00:32.324Z</time></trkpt><trkpt lat="43.1090564" lon="12.8116308"><ele>478.0</ele><time>2026-04-25T14:00:33.324Z</time></trkpt><trkpt lat="43.1089248" lon="12.8116988"><ele>478.0</ele><time>2026-04-25T14:00:34.316Z</time></trkpt><trkpt lat="43.1087905" lon="12.8117499"><ele>478.0</ele><time>2026-04-25T14:00:35.321Z</time></trkpt><trkpt lat="43.1086519" lon="12.8117865"><ele>478.0</ele><time>2026-04-25T14:00:36.325Z</time></trkpt><trkpt lat="43.1085062" lon="12.8117988"><ele>478.0</ele><time>2026-04-25T14:00:37.317Z</time></trkpt><trkpt lat="43.1083529" lon="12.8117886"><ele>478.0</ele><time>2026-04-25T14:00:38.326Z</time></trkpt><trkpt lat="43.1081923" lon="12.8117671"><ele>478.0</ele><time>2026-04-25T14:00:39.324Z</time></trkpt><trkpt lat="43.1080351" lon="12.811735"><ele>476.6666666666667</ele><time>2026-04-25T14:00:40.322Z</time></trkpt><trkpt lat="43.1078839" lon="12.8117018"><ele>475.33333333333337</ele><time>2026-04-25T14:00:41.321Z</time></trkpt><trkpt lat="43.107735" lon="12.811661"><ele>474.0</ele><time>2026-04-25T14:00:42.329Z</time></trkpt><trkpt lat="43.1075859" lon="12.8116082"><ele>474.0</ele><time>2026-04-25T14:00:43.326Z</time></trkpt><trkpt lat="43.1074317" lon="12.8115464"><ele>474.0</ele><time>2026-04-25T14:00:44.32Z</time></trkpt><trkpt lat="43.1072748" lon="12.8114781"><ele>474.0</ele><time>2026-04-25T14:00:45.325Z</time></trkpt><trkpt lat="43.1071172" lon="12.8114096"><ele>472.66666666666663</ele><time>2026-04-25T14:00:46.323Z</time></trkpt><trkpt lat="43.1069666" lon="12.811345"><ele>471.3333333333333</ele><time>2026-04-25T14:00:47.324Z</time></trkpt><trkpt lat="43.1068249" lon="12.8112804"><ele>470.0</ele><time>2026-04-25T14:00:48.327Z</time></trkpt><trkpt lat="43.1066911" lon="12.8112115"><ele>470.5</ele><time>2026-04-25T14:00:49.324Z</time></trkpt><trkpt lat="43.1065624" lon="12.8111322"><ele>471.0</ele><time>2026-04-25T14:00:50.326Z</time></trkpt><trkpt lat="43.1064353" lon="12.8110418"><ele>471.5</ele><time>2026-04-25T14:00:51.321Z</time></trkpt><trkpt lat="43.1063071" lon="12.8109429"><ele>472.0</ele><time>2026-04-25T14:00:52.33Z</time></trkpt><trkpt lat="43.1061791" lon="12.8108334"><ele>470.5</ele><time>2026-04-25T14:00:53.318Z</time></trkpt><trkpt lat="43.1060535" lon="12.8107191"><ele>469.0</ele><time>2026-04-25T14:00:54.326Z</time></trkpt><trkpt lat="43.1059338" lon="12.8106085"><ele>467.5</ele><time>2026-04-25T14:00:55.326Z</time></trkpt><trkpt lat="43.1058169" lon="12.8105047"><ele>466.0</ele><time>2026-04-25T14:00:56.327Z</time></trkpt><trkpt lat="43.1057006" lon="12.8104097"><ele>466.0</ele><time>2026-04-25T14:00:57.325Z</time></trkpt><trkpt lat="43.1055811" lon="12.8103199"><ele>466.0</ele><time>2026-04-25T14:00:58.323Z</time></trkpt><trkpt lat="43.105453" lon="12.8102311"><ele>466.0</ele><time>2026-04-25T14:00:59.32Z</time></trkpt><trkpt lat="43.1053219" lon="12.8101396"><ele>466.0</ele><time>2026-04-25T14:01:00.324Z</time></trkpt><trkpt lat="43.1051949" lon="12.8100488"><ele>465.25</ele><time>2026-04-25T14:01:01.324Z</time></trkpt><trkpt lat="43.105074" lon="12.8099588"><ele>464.5</ele><time>2026-04-25T14:01:02.325Z</time></trkpt><trkpt lat="43.1049574" lon="12.8098675"><ele>463.75</ele><time>2026-04-25T14:01:03.323Z</time></trkpt><trkpt lat="43.1048375" lon="12.8097742"><ele>463.0</ele><time>2026-04-25T14:01:04.319Z</time></trkpt><trkpt lat="43.1047141" lon="12.8096858"><ele>461.25</ele><time>2026-04-25T14:01:05.318Z</time></trkpt><trkpt lat="43.1045884" lon="12.8096105"><ele>459.5</ele><time>2026-04-25T14:01:06.319Z</time></trkpt><trkpt lat="43.1044649" lon="12.8095486"><ele>457.75</ele><time>2026-04-25T14:01:07.323Z</time></trkpt><trkpt lat="43.1043434" lon="12.8095009"><ele>456.0</ele><time>2026-04-25T14:01:08.323Z</time></trkpt><trkpt lat="43.1042297" lon="12.8094666"><ele>456.0</ele><time>2026-04-25T14:01:09.323Z</time></trkpt><trkpt lat="43.1041327" lon="12.809442"><ele>456.0</ele><time>2026-04-25T14:01:10.324Z</time></trkpt><trkpt lat="43.1040542" lon="12.8094246"><ele>456.0</ele><time>2026-04-25T14:01:11.317Z</time></trkpt><trkpt lat="43.1039916" lon="12.8094113"><ele>456.0</ele><time>2026-04-25T14:01:12.321Z</time></trkpt><trkpt lat="43.1038938" lon="12.8093589"><ele>456.0</ele><time>2026-04-25T14:01:14.319Z</time></trkpt><trkpt lat="43.1038388" lon="12.8092916"><ele>456.0</ele><time>2026-04-25T14:01:15.323Z</time></trkpt><trkpt lat="43.1037818" lon="12.809177"><ele>455.25</ele><time>2026-04-25T14:01:16.322Z</time></trkpt><trkpt lat="43.1037127" lon="12.8090246"><ele>454.5</ele><time>2026-04-25T14:01:17.327Z</time></trkpt><trkpt lat="43.1036357" lon="12.8088615"><ele>453.75</ele><time>2026-04-25T14:01:18.323Z</time></trkpt><trkpt lat="43.1035629" lon="12.8086937"><ele>453.0</ele><time>2026-04-25T14:01:19.33Z</time></trkpt><trkpt lat="43.1035155" lon="12.8085207"><ele>452.33333333333337</ele><time>2026-04-25T14:01:20.329Z</time></trkpt><trkpt lat="43.1035026" lon="12.8083351"><ele>451.6666666666667</ele><time>2026-04-25T14:01:21.331Z</time></trkpt><trkpt lat="43.1035258" lon="12.8081245"><ele>451.0</ele><time>2026-04-25T14:01:22.334Z</time></trkpt><trkpt lat="43.103571" lon="12.8078715"><ele>450.0</ele><time>2026-04-25T14:01:23.332Z</time></trkpt><trkpt lat="43.1036239" lon="12.8075872"><ele>449.0</ele><time>2026-04-25T14:01:24.334Z</time></trkpt><trkpt lat="43.1036711" lon="12.8072927"><ele>448.0</ele><time>2026-04-25T14:01:25.327Z</time></trkpt><trkpt lat="43.1037063" lon="12.8070071"><ele>447.6666666666667</ele><time>2026-04-25T14:01:26.325Z</time></trkpt><trkpt lat="43.1037271" lon="12.8067347"><ele>447.33333333333337</ele><time>2026-04-25T14:01:27.326Z</time></trkpt><trkpt lat="43.1037268" lon="12.8064641"><ele>447.0</ele><time>2026-04-25T14:01:28.324Z</time></trkpt><trkpt lat="43.1036965" lon="12.8061729"><ele>446.5</ele><time>2026-04-25T14:01:29.324Z</time></trkpt><trkpt lat="43.1036335" lon="12.805863"><ele>446.0</ele><time>2026-04-25T14:01:30.329Z</time></trkpt><trkpt lat="43.1035539" lon="12.805566"><ele>446.0</ele><time>2026-04-25T14:01:31.324Z</time></trkpt><trkpt lat="43.1034572" lon="12.8052992"><ele>446.0</ele><time>2026-04-25T14:01:32.329Z</time></trkpt><trkpt lat="43.1033488" lon="12.8050585"><ele>446.0</ele><time>2026-04-25T14:01:33.327Z</time></trkpt><trkpt lat="43.1032408" lon="12.8048375"><ele>446.0</ele><time>2026-04-25T14:01:34.329Z</time></trkpt><trkpt lat="43.1031317" lon="12.8046324"><ele>446.0</ele><time>2026-04-25T14:01:35.328Z</time></trkpt><trkpt lat="43.1030281" lon="12.8044424"><ele>446.0</ele><time>2026-04-25T14:01:36.327Z</time></trkpt><trkpt lat="43.1029307" lon="12.804265"><ele>445.75</ele><time>2026-04-25T14:01:37.318Z</time></trkpt><trkpt lat="43.1028455" lon="12.8041043"><ele>445.5</ele><time>2026-04-25T14:01:38.333Z</time></trkpt><trkpt lat="43.1027765" lon="12.8039562"><ele>445.25</ele><time>2026-04-25T14:01:39.33Z</time></trkpt><trkpt lat="43.1027234" lon="12.8038029"><ele>445.0</ele><time>2026-04-25T14:01:40.325Z</time></trkpt><trkpt lat="43.1026984" lon="12.8036397"><ele>445.0</ele><time>2026-04-25T14:01:41.322Z</time></trkpt><trkpt lat="43.1027165" lon="12.8034735"><ele>445.0</ele><time>2026-04-25T14:01:42.337Z</time></trkpt><trkpt lat="43.1027787" lon="12.8033101"><ele>445.0</ele><time>2026-04-25T14:01:43.323Z</time></trkpt><trkpt lat="43.1028775" lon="12.8031385"><ele>445.0</ele><time>2026-04-25T14:01:44.33Z</time></trkpt><trkpt lat="43.1029966" lon="12.8029736"><ele>445.0</ele><time>2026-04-25T14:01:45.323Z</time></trkpt><trkpt lat="43.1031087" lon="12.8028219"><ele>445.0</ele><time>2026-04-25T14:01:46.323Z</time></trkpt><trkpt lat="43.1032125" lon="12.802675"><ele>445.0</ele><time>2026-04-25T14:01:47.32Z</time></trkpt><trkpt lat="43.1033085" lon="12.8025392"><ele>445.0</ele><time>2026-04-25T14:01:48.324Z</time></trkpt><trkpt lat="43.1033996" lon="12.8024191"><ele>446.0</ele><time>2026-04-25T14:01:49.319Z</time></trkpt><trkpt lat="43.1034832" lon="12.8023084"><ele>447.0</ele><time>2026-04-25T14:01:50.33Z</time></trkpt><trkpt lat="43.1035681" lon="12.8021889"><ele>448.0</ele><time>2026-04-25T14:01:51.328Z</time></trkpt><trkpt lat="43.1036647" lon="12.8020438"><ele>449.0</ele><time>2026-04-25T14:01:52.335Z</time></trkpt><trkpt lat="43.1037823" lon="12.8018817"><ele>449.3333333333333</ele><time>2026-04-25T14:01:53.327Z</time></trkpt><trkpt lat="43.1039272" lon="12.8017215"><ele>449.66666666666663</ele><time>2026-04-25T14:01:54.319Z</time></trkpt><trkpt lat="43.1040852" lon="12.8015819"><ele>450.0</ele><time>2026-04-25T14:01:55.328Z</time></trkpt><trkpt lat="43.1042482" lon="12.801448"><ele>450.0</ele><time>2026-04-25T14:01:56.328Z</time></trkpt><trkpt lat="43.1044175" lon="12.8013013"><ele>450.0</ele><time>2026-04-25T14:01:57.331Z</time></trkpt><trkpt lat="43.1045886" lon="12.8011435"><ele>450.0</ele><time>2026-04-25T14:01:58.331Z</time></trkpt><trkpt lat="43.104753" lon="12.8009784"><ele>450.66666666666663</ele><time>2026-04-25T14:01:59.329Z</time></trkpt><trkpt lat="43.1049063" lon="12.8008209"><ele>451.3333333333333</ele><time>2026-04-25T14:02:00.327Z</time></trkpt><trkpt lat="43.1050534" lon="12.8006713"><ele>452.0</ele><time>2026-04-25T14:02:01.32Z</time></trkpt><trkpt lat="43.1051895" lon="12.8005292"><ele>452.0</ele><time>2026-04-25T14:02:02.329Z</time></trkpt><trkpt lat="43.1053131" lon="12.8003961"><ele>452.0</ele><time>2026-04-25T14:02:03.327Z</time></trkpt><trkpt lat="43.1054239" lon="12.8002559"><ele>452.0</ele><time>2026-04-25T14:02:04.321Z</time></trkpt><trkpt lat="43.1055285" lon="12.8000981"><ele>454.3333333333333</ele><time>2026-04-25T14:02:05.321Z</time></trkpt><trkpt lat="43.1056203" lon="12.7999125"><ele>456.66666666666663</ele><time>2026-04-25T14:02:06.318Z</time></trkpt><trkpt lat="43.1057007" lon="12.799708"><ele>459.0</ele><time>2026-04-25T14:02:07.316Z</time></trkpt><trkpt lat="43.1057692" lon="12.7994742"><ele>453.66666666666663</ele><time>2026-04-25T14:02:08.319Z</time></trkpt><trkpt lat="43.1058349" lon="12.7992009"><ele>448.3333333333333</ele><time>2026-04-25T14:02:09.322Z</time></trkpt><trkpt lat="43.1058924" lon="12.7988998"><ele>443.0</ele><time>2026-04-25T14:02:10.326Z</time></trkpt><trkpt lat="43.1059422" lon="12.7986012"><ele>441.0</ele><time>2026-04-25T14:02:11.329Z</time></trkpt><trkpt lat="43.1059911" lon="12.7983195"><ele>439.0</ele><time>2026-04-25T14:02:12.324Z</time></trkpt><trkpt lat="43.1060456" lon="12.7980439"><ele>437.0</ele><time>2026-04-25T14:02:13.327Z</time></trkpt><trkpt lat="43.1061109" lon="12.797757"><ele>437.3333333333333</ele><time>2026-04-25T14:02:14.33Z</time></trkpt><trkpt lat="43.1061768" lon="12.7974611"><ele>437.66666666666663</ele><time>2026-04-25T14:02:15.335Z</time></trkpt><trkpt lat="43.1062317" lon="12.7971694"><ele>438.0</ele><time>2026-04-25T14:02:16.331Z</time></trkpt><trkpt lat="43.1062773" lon="12.7968986"><ele>438.0</ele><time>2026-04-25T14:02:17.331Z</time></trkpt><trkpt lat="43.1063163" lon="12.7966486"><ele>438.0</ele><time>2026-04-25T14:02:18.324Z</time></trkpt><trkpt lat="43.1063523" lon="12.796429"><ele>438.0</ele><time>2026-04-25T14:02:19.326Z</time></trkpt><trkpt lat="43.1063971" lon="12.7962292"><ele>438.0</ele><time>2026-04-25T14:02:20.33Z</time></trkpt><trkpt lat="43.1064598" lon="12.7960464"><ele>438.0</ele><time>2026-04-25T14:02:21.332Z</time></trkpt><trkpt lat="43.1065592" lon="12.7958668"><ele>438.0</ele><time>2026-04-25T14:02:22.332Z</time></trkpt><trkpt lat="43.1066915" lon="12.7956787"><ele>438.0</ele><time>2026-04-25T14:02:23.321Z</time></trkpt><trkpt lat="43.106826" lon="12.7954776"><ele>438.0</ele><time>2026-04-25T14:02:24.324Z</time></trkpt><trkpt lat="43.1069434" lon="12.7952716"><ele>438.0</ele><time>2026-04-25T14:02:25.333Z</time></trkpt><trkpt lat="43.1070427" lon="12.7950817"><ele>438.0</ele><time>2026-04-25T14:02:26.321Z</time></trkpt><trkpt lat="43.1071375" lon="12.7949197"><ele>438.0</ele><time>2026-04-25T14:02:27.322Z</time></trkpt><trkpt lat="43.1072416" lon="12.7947823"><ele>438.0</ele><time>2026-04-25T14:02:28.332Z</time></trkpt><trkpt lat="43.107368" lon="12.7946663"><ele>438.0</ele><time>2026-04-25T14:02:29.33Z</time></trkpt><trkpt lat="43.1075208" lon="12.7945671"><ele>437.25</ele><time>2026-04-25T14:02:30.329Z</time></trkpt><trkpt lat="43.1076728" lon="12.7944741"><ele>436.5</ele><time>2026-04-25T14:02:31.329Z</time></trkpt><trkpt lat="43.107805" lon="12.794383"><ele>435.75</ele><time>2026-04-25T14:02:32.324Z</time></trkpt><trkpt lat="43.1079158" lon="12.7942834"><ele>435.0</ele><time>2026-04-25T14:02:33.328Z</time></trkpt><trkpt lat="43.1080044" lon="12.794165"><ele>434.75</ele><time>2026-04-25T14:02:34.32Z</time></trkpt><trkpt lat="43.1080785" lon="12.7940106"><ele>434.5</ele><time>2026-04-25T14:02:35.334Z</time></trkpt><trkpt lat="43.1081411" lon="12.7938281"><ele>434.25</ele><time>2026-04-25T14:02:36.318Z</time></trkpt><trkpt lat="43.1081973" lon="12.7936462"><ele>434.0</ele><time>2026-04-25T14:02:37.328Z</time></trkpt><trkpt lat="43.1082587" lon="12.793473"><ele>434.0</ele><time>2026-04-25T14:02:38.325Z</time></trkpt><trkpt lat="43.1083248" lon="12.7933029"><ele>434.0</ele><time>2026-04-25T14:02:39.32Z</time></trkpt><trkpt lat="43.1083858" lon="12.7931292"><ele>434.0</ele><time>2026-04-25T14:02:40.321Z</time></trkpt><trkpt lat="43.1084326" lon="12.7929432"><ele>434.0</ele><time>2026-04-25T14:02:41.33Z</time></trkpt><trkpt lat="43.1084633" lon="12.7927296"><ele>435.3333333333333</ele><time>2026-04-25T14:02:42.331Z</time></trkpt><trkpt lat="43.1084689" lon="12.7924773"><ele>436.66666666666663</ele><time>2026-04-25T14:02:43.329Z</time></trkpt><trkpt lat="43.1084491" lon="12.792197"><ele>438.0</ele><time>2026-04-25T14:02:44.329Z</time></trkpt><trkpt lat="43.10842" lon="12.7919064"><ele>439.66666666666663</ele><time>2026-04-25T14:02:45.317Z</time></trkpt><trkpt lat="43.1083893" lon="12.7916305"><ele>441.3333333333333</ele><time>2026-04-25T14:02:46.328Z</time></trkpt><trkpt lat="43.1083502" lon="12.7913837"><ele>443.0</ele><time>2026-04-25T14:02:47.317Z</time></trkpt><trkpt lat="43.1083099" lon="12.7911946"><ele>443.0</ele><time>2026-04-25T14:02:48.331Z</time></trkpt><trkpt lat="43.1082987" lon="12.7910204"><ele>443.0</ele><time>2026-04-25T14:02:49.33Z</time></trkpt><trkpt lat="43.1083086" lon="12.7908307"><ele>443.0</ele><time>2026-04-25T14:02:50.322Z</time></trkpt><trkpt lat="43.1083389" lon="12.7906307"><ele>443.0</ele><time>2026-04-25T14:02:51.328Z</time></trkpt><trkpt lat="43.108381" lon="12.7904285"><ele>442.5</ele><time>2026-04-25T14:02:52.331Z</time></trkpt><trkpt lat="43.1084329" lon="12.7902329"><ele>442.0</ele><time>2026-04-25T14:02:53.328Z</time></trkpt><trkpt lat="43.1084842" lon="12.7900437"><ele>441.5</ele><time>2026-04-25T14:02:54.324Z</time></trkpt><trkpt lat="43.1085315" lon="12.78985"><ele>441.0</ele><time>2026-04-25T14:02:55.323Z</time></trkpt><trkpt lat="43.1085692" lon="12.7896439"><ele>441.0</ele><time>2026-04-25T14:02:56.325Z</time></trkpt><trkpt lat="43.1085873" lon="12.7894335"><ele>441.0</ele><time>2026-04-25T14:02:57.321Z</time></trkpt><trkpt lat="43.1085893" lon="12.7892407"><ele>441.0</ele><time>2026-04-25T14:02:58.328Z</time></trkpt><trkpt lat="43.108589" lon="12.7890786"><ele>441.0</ele><time>2026-04-25T14:02:59.331Z</time></trkpt><trkpt lat="43.1085767" lon="12.7889336"><ele>439.8</ele><time>2026-04-25T14:03:00.316Z</time></trkpt><trkpt lat="43.1085686" lon="12.7888233"><ele>438.6</ele><time>2026-04-25T14:03:01.322Z</time></trkpt><trkpt lat="43.1085616" lon="12.7886803"><ele>437.4</ele><time>2026-04-25T14:03:03.326Z</time></trkpt><trkpt lat="43.1086209" lon="12.7885368"><ele>436.2</ele><time>2026-04-25T14:03:05.328Z</time></trkpt><trkpt lat="43.1086816" lon="12.7884647"><ele>435.0</ele><time>2026-04-25T14:03:06.319Z</time></trkpt><trkpt lat="43.1087581" lon="12.788401"><ele>434.5</ele><time>2026-04-25T14:03:07.321Z</time></trkpt><trkpt lat="43.1088489" lon="12.7883657"><ele>434.0</ele><time>2026-04-25T14:03:08.321Z</time></trkpt><trkpt lat="43.1089543" lon="12.7883669"><ele>433.5</ele><time>2026-04-25T14:03:09.327Z</time></trkpt><trkpt lat="43.1090739" lon="12.7883892"><ele>433.0</ele><time>2026-04-25T14:03:10.327Z</time></trkpt><trkpt lat="43.1092062" lon="12.7883992"><ele>436.5</ele><time>2026-04-25T14:03:11.319Z</time></trkpt><trkpt lat="43.1093464" lon="12.7883847"><ele>440.0</ele><time>2026-04-25T14:03:12.317Z</time></trkpt><trkpt lat="43.1094922" lon="12.788357"><ele>443.5</ele><time>2026-04-25T14:03:13.322Z</time></trkpt><trkpt lat="43.1096441" lon="12.7883133"><ele>447.0</ele><time>2026-04-25T14:03:14.319Z</time></trkpt><trkpt lat="43.1098023" lon="12.7882645"><ele>453.0</ele><time>2026-04-25T14:03:15.319Z</time></trkpt><trkpt lat="43.1099598" lon="12.788224"><ele>459.0</ele><time>2026-04-25T14:03:16.319Z</time></trkpt><trkpt lat="43.1101185" lon="12.7881724"><ele>465.0</ele><time>2026-04-25T14:03:17.322Z</time></trkpt><trkpt lat="43.1102754" lon="12.7881078"><ele>465.0</ele><time>2026-04-25T14:03:18.331Z</time></trkpt><trkpt lat="43.1104147" lon="12.7880446"><ele>465.0</ele><time>2026-04-25T14:03:19.331Z</time></trkpt><trkpt lat="43.1105286" lon="12.7879871"><ele>465.0</ele><time>2026-04-25T14:03:20.331Z</time></trkpt><trkpt lat="43.1106318" lon="12.7879546"><ele>465.0</ele><time>2026-04-25T14:03:21.328Z</time></trkpt><trkpt lat="43.1107588" lon="12.7879443"><ele>471.66666666666663</ele><time>2026-04-25T14:03:22.332Z</time></trkpt><trkpt lat="43.1109128" lon="12.7879557"><ele>478.3333333333333</ele><time>2026-04-25T14:03:23.32Z</time></trkpt><trkpt lat="43.1110892" lon="12.7879976"><ele>485.0</ele><time>2026-04-25T14:03:24.323Z</time></trkpt><trkpt lat="43.1112889" lon="12.7880643"><ele>485.0</ele><time>2026-04-25T14:03:25.332Z</time></trkpt><trkpt lat="43.1114932" lon="12.7881213"><ele>485.0</ele><time>2026-04-25T14:03:26.317Z</time></trkpt><trkpt lat="43.111665" lon="12.7881649"><ele>485.0</ele><time>2026-04-25T14:03:27.319Z</time></trkpt><trkpt lat="43.1118067" lon="12.7882055"><ele>485.5</ele><time>2026-04-25T14:03:28.321Z</time></trkpt><trkpt lat="43.1119343" lon="12.7882473"><ele>486.0</ele><time>2026-04-25T14:03:29.322Z</time></trkpt><trkpt lat="43.1120542" lon="12.7883052"><ele>486.5</ele><time>2026-04-25T14:03:30.325Z</time></trkpt><trkpt lat="43.1121763" lon="12.7883813"><ele>487.0</ele><time>2026-04-25T14:03:31.325Z</time></trkpt><trkpt lat="43.1123012" lon="12.7884608"><ele>487.6</ele><time>2026-04-25T14:03:32.318Z</time></trkpt><trkpt lat="43.1124089" lon="12.7885314"><ele>488.20000000000005</ele><time>2026-04-25T14:03:33.326Z</time></trkpt><trkpt lat="43.1124776" lon="12.7885962"><ele>488.8</ele><time>2026-04-25T14:03:34.325Z</time></trkpt><trkpt lat="43.1125228" lon="12.7884943"><ele>489.4</ele><time>2026-04-25T14:03:38.325Z</time></trkpt><trkpt lat="43.1124527" lon="12.7883102"><ele>490.0</ele><time>2026-04-25T14:03:40.32Z</time></trkpt><trkpt lat="43.1124147" lon="12.7881737"><ele>489.4</ele><time>2026-04-25T14:03:41.33Z</time></trkpt><trkpt lat="43.1123844" lon="12.7880364"><ele>488.8</ele><time>2026-04-25T14:03:42.332Z</time></trkpt><trkpt lat="43.1123526" lon="12.7878946"><ele>488.20000000000005</ele><time>2026-04-25T14:03:43.33Z</time></trkpt><trkpt lat="43.1123174" lon="12.7877506"><ele>487.6</ele><time>2026-04-25T14:03:44.329Z</time></trkpt><trkpt lat="43.1122812" lon="12.7876152"><ele>487.0</ele><time>2026-04-25T14:03:45.336Z</time></trkpt><trkpt lat="43.1122382" lon="12.7874934"><ele>483.75</ele><time>2026-04-25T14:03:46.335Z</time></trkpt><trkpt lat="43.1121712" lon="12.7873849"><ele>480.5</ele><time>2026-04-25T14:03:47.321Z</time></trkpt><trkpt lat="43.1120872" lon="12.7872723"><ele>477.25</ele><time>2026-04-25T14:03:48.328Z</time></trkpt><trkpt lat="43.1120021" lon="12.7871533"><ele>474.0</ele><time>2026-04-25T14:03:49.329Z</time></trkpt><trkpt lat="43.111921" lon="12.787019"><ele>474.0</ele><time>2026-04-25T14:03:50.329Z</time></trkpt><trkpt lat="43.1118432" lon="12.7868629"><ele>474.0</ele><time>2026-04-25T14:03:51.323Z</time></trkpt><trkpt lat="43.1117636" lon="12.7866911"><ele>474.0</ele><time>2026-04-25T14:03:52.323Z</time></trkpt><trkpt lat="43.1116855" lon="12.7865161"><ele>474.0</ele><time>2026-04-25T14:03:53.325Z</time></trkpt><trkpt lat="43.1116072" lon="12.7863495"><ele>472.5</ele><time>2026-04-25T14:03:54.326Z</time></trkpt><trkpt lat="43.1115211" lon="12.7862005"><ele>471.0</ele><time>2026-04-25T14:03:55.328Z</time></trkpt><trkpt lat="43.1114137" lon="12.7860658"><ele>469.5</ele><time>2026-04-25T14:03:56.321Z</time></trkpt><trkpt lat="43.1112982" lon="12.78595"><ele>468.0</ele><time>2026-04-25T14:03:57.329Z</time></trkpt><trkpt lat="43.111197" lon="12.7858693"><ele>470.3333333333333</ele><time>2026-04-25T14:03:58.329Z</time></trkpt><trkpt lat="43.1111138" lon="12.7858029"><ele>472.66666666666663</ele><time>2026-04-25T14:03:59.327Z</time></trkpt><trkpt lat="43.1110354" lon="12.7857528"><ele>475.0</ele><time>2026-04-25T14:04:00.33Z</time></trkpt><trkpt lat="43.1109748" lon="12.7857057"><ele>477.3333333333333</ele><time>2026-04-25T14:04:01.332Z</time></trkpt><trkpt lat="43.1109027" lon="12.7856184"><ele>479.66666666666663</ele><time>2026-04-25T14:04:03.323Z</time></trkpt><trkpt lat="43.1109568" lon="12.7855503"><ele>482.0</ele><time>2026-04-25T14:04:06.321Z</time></trkpt><trkpt lat="43.1110747" lon="12.7856337"><ele>482.0</ele><time>2026-04-25T14:04:08.328Z</time></trkpt><trkpt lat="43.1111664" lon="12.785714"><ele>482.0</ele><time>2026-04-25T14:04:09.33Z</time></trkpt><trkpt lat="43.1112893" lon="12.7858289"><ele>482.0</ele><time>2026-04-25T14:04:10.334Z</time></trkpt><trkpt lat="43.1114707" lon="12.7859703"><ele>481.5</ele><time>2026-04-25T14:04:11.327Z</time></trkpt><trkpt lat="43.1116586" lon="12.7861578"><ele>481.0</ele><time>2026-04-25T14:04:12.326Z</time></trkpt><trkpt lat="43.1118346" lon="12.786382"><ele>481.0</ele><time>2026-04-25T14:04:13.329Z</time></trkpt><trkpt lat="43.1119904" lon="12.7866241"><ele>481.0</ele><time>2026-04-25T14:04:14.332Z</time></trkpt><trkpt lat="43.1121133" lon="12.7868461"><ele>481.0</ele><time>2026-04-25T14:04:15.332Z</time></trkpt><trkpt lat="43.1122229" lon="12.787029"><ele>478.6666666666667</ele><time>2026-04-25T14:04:16.33Z</time></trkpt><trkpt lat="43.1123251" lon="12.7871521"><ele>476.33333333333337</ele><time>2026-04-25T14:04:17.325Z</time></trkpt><trkpt lat="43.1124701" lon="12.7872441"><ele>474.0</ele><time>2026-04-25T14:04:18.327Z</time></trkpt><trkpt lat="43.1126474" lon="12.7873016"><ele>479.33333333333337</ele><time>2026-04-25T14:04:19.328Z</time></trkpt><trkpt lat="43.1128548" lon="12.7873478"><ele>484.6666666666667</ele><time>2026-04-25T14:04:20.329Z</time></trkpt><trkpt lat="43.1130555" lon="12.7874013"><ele>490.0</ele><time>2026-04-25T14:04:21.329Z</time></trkpt><trkpt lat="43.1132355" lon="12.7874442"><ele>491.2</ele><time>2026-04-25T14:04:22.328Z</time></trkpt><trkpt lat="43.1133744" lon="12.7875061"><ele>492.4</ele><time>2026-04-25T14:04:23.331Z</time></trkpt><trkpt lat="43.1134847" lon="12.7875808"><ele>493.6</ele><time>2026-04-25T14:04:24.319Z</time></trkpt><trkpt lat="43.1135466" lon="12.7876732"><ele>494.8</ele><time>2026-04-25T14:04:25.328Z</time></trkpt><trkpt lat="43.1135726" lon="12.7877868"><ele>496.0</ele><time>2026-04-25T14:04:26.331Z</time></trkpt><trkpt lat="43.1135755" lon="12.7879141"><ele>496.00000000000006</ele><time>2026-04-25T14:04:27.327Z</time></trkpt><trkpt lat="43.1135833" lon="12.7880264"><ele>496.0</ele><time>2026-04-25T14:04:28.329Z</time></trkpt><trkpt lat="43.1136001" lon="12.7881285"><ele>496.0</ele><time>2026-04-25T14:04:29.33Z</time></trkpt><trkpt lat="43.1136083" lon="12.7882223"><ele>496.0</ele><time>2026-04-25T14:04:30.327Z</time></trkpt><trkpt lat="43.1136164" lon="12.7883094"><ele>496.00000000000006</ele><time>2026-04-25T14:04:31.322Z</time></trkpt><trkpt lat="43.1136417" lon="12.7884567"><ele>496.0</ele><time>2026-04-25T14:04:33.322Z</time></trkpt><trkpt lat="43.1136531" lon="12.7885531"><ele>504.0</ele><time>2026-04-25T14:04:35.323Z</time></trkpt><trkpt lat="43.1136849" lon="12.7886562"><ele>504.0</ele><time>2026-04-25T14:04:44.328Z</time></trkpt><trkpt lat="43.1137635" lon="12.7886513"><ele>504.0</ele><time>2026-04-25T14:04:47.33Z</time></trkpt><trkpt lat="43.11381" lon="12.7885917"><ele>504.0</ele><time>2026-04-25T14:04:50.322Z</time></trkpt><trkpt lat="43.113749" lon="12.788639"><ele>504.0</ele><time>2026-04-25T14:06:33.328Z</time></trkpt><trkpt lat="43.1136292" lon="12.7885227"><ele>504.0</ele><time>2026-04-25T14:09:00.308Z</time></trkpt></trkseg></trk></gpx>